<?xml version="1.0" encoding="UTF-8" standalone="no" ?>
<gpx xmlns="http://www.topografix.com/GPX/1/1" xmlns:xsi="http://www.w3.org/2001/XMLSchema-instance" xsi:schemaLocation="http://www.topografix.com/GPX/1/1 http://www.topografix.com/GPX/1/1/gpx.xsd" version="1.1" creator="VisuGPX - https://www.visugpx.com">
  <metadata>
    <name>Rando Guy Mocquet 18/12/12</name>
    <desc><![CDATA[Rando Guy Mocquet 18/12/12]]></desc>
  </metadata>
  <trk>
    <name><![CDATA[Guy Mocquet]]></name>
    <desc><![CDATA[]]></desc>
    <trkseg>
      <trkpt lat="48.89293" lon="2.32725">
        <ele>149</ele>
        <time>2012-12-18T19:10:54.000Z</time>
      </trkpt>
      <trkpt lat="48.8929" lon="2.3273">
        <ele>159</ele>
        <time>2012-12-18T19:11:03.000Z</time>
      </trkpt>
      <trkpt lat="48.89292" lon="2.32732">
        <ele>158</ele>
        <time>2012-12-18T19:11:04.000Z</time>
      </trkpt>
      <trkpt lat="48.89291" lon="2.32738">
        <ele>160</ele>
        <time>2012-12-18T19:11:09.000Z</time>
      </trkpt>
      <trkpt lat="48.8929" lon="2.32741">
        <ele>160</ele>
        <time>2012-12-18T19:11:10.000Z</time>
      </trkpt>
      <trkpt lat="48.8929" lon="2.32747">
        <ele>158</ele>
        <time>2012-12-18T19:11:11.000Z</time>
      </trkpt>
      <trkpt lat="48.8929" lon="2.32752">
        <ele>158</ele>
        <time>2012-12-18T19:11:12.000Z</time>
      </trkpt>
      <trkpt lat="48.89289" lon="2.32757">
        <ele>156</ele>
        <time>2012-12-18T19:11:14.000Z</time>
      </trkpt>
      <trkpt lat="48.89289" lon="2.32761">
        <ele>155</ele>
        <time>2012-12-18T19:11:15.000Z</time>
      </trkpt>
      <trkpt lat="48.89289" lon="2.32764">
        <ele>154</ele>
        <time>2012-12-18T19:11:16.000Z</time>
      </trkpt>
      <trkpt lat="48.89292" lon="2.32769">
        <ele>153</ele>
        <time>2012-12-18T19:11:17.000Z</time>
      </trkpt>
      <trkpt lat="48.89294" lon="2.32771">
        <ele>151</ele>
        <time>2012-12-18T19:11:18.000Z</time>
      </trkpt>
      <trkpt lat="48.89297" lon="2.32773">
        <ele>148</ele>
        <time>2012-12-18T19:11:19.000Z</time>
      </trkpt>
      <trkpt lat="48.89301" lon="2.32774">
        <ele>149</ele>
        <time>2012-12-18T19:11:20.000Z</time>
      </trkpt>
      <trkpt lat="48.89303" lon="2.32776">
        <ele>148</ele>
        <time>2012-12-18T19:11:21.000Z</time>
      </trkpt>
      <trkpt lat="48.89303" lon="2.32781">
        <ele>148</ele>
        <time>2012-12-18T19:11:25.000Z</time>
      </trkpt>
      <trkpt lat="48.89302" lon="2.32782">
        <ele>148</ele>
        <time>2012-12-18T19:11:26.000Z</time>
      </trkpt>
      <trkpt lat="48.893" lon="2.32788">
        <ele>149</ele>
        <time>2012-12-18T19:11:28.000Z</time>
      </trkpt>
      <trkpt lat="48.89298" lon="2.32789">
        <ele>148</ele>
        <time>2012-12-18T19:11:29.000Z</time>
      </trkpt>
      <trkpt lat="48.89296" lon="2.32794">
        <ele>147</ele>
        <time>2012-12-18T19:11:31.000Z</time>
      </trkpt>
      <trkpt lat="48.89295" lon="2.32796">
        <ele>147</ele>
        <time>2012-12-18T19:11:32.000Z</time>
      </trkpt>
      <trkpt lat="48.89293" lon="2.32798">
        <ele>147</ele>
        <time>2012-12-18T19:11:33.000Z</time>
      </trkpt>
      <trkpt lat="48.89289" lon="2.328">
        <ele>147</ele>
        <time>2012-12-18T19:11:34.000Z</time>
      </trkpt>
      <trkpt lat="48.89291" lon="2.32804">
        <ele>147</ele>
        <time>2012-12-18T19:11:35.000Z</time>
      </trkpt>
      <trkpt lat="48.89289" lon="2.32809">
        <ele>147</ele>
        <time>2012-12-18T19:11:36.000Z</time>
      </trkpt>
      <trkpt lat="48.89287" lon="2.32811">
        <ele>146</ele>
        <time>2012-12-18T19:11:37.000Z</time>
      </trkpt>
      <trkpt lat="48.89285" lon="2.32815">
        <ele>147</ele>
        <time>2012-12-18T19:11:38.000Z</time>
      </trkpt>
      <trkpt lat="48.89286" lon="2.32819">
        <ele>147</ele>
        <time>2012-12-18T19:11:39.000Z</time>
      </trkpt>
      <trkpt lat="48.89285" lon="2.32822">
        <ele>147</ele>
        <time>2012-12-18T19:11:40.000Z</time>
      </trkpt>
      <trkpt lat="48.89282" lon="2.32827">
        <ele>147</ele>
        <time>2012-12-18T19:11:41.000Z</time>
      </trkpt>
      <trkpt lat="48.89278" lon="2.32832">
        <ele>146</ele>
        <time>2012-12-18T19:11:42.000Z</time>
      </trkpt>
      <trkpt lat="48.89275" lon="2.32836">
        <ele>147</ele>
        <time>2012-12-18T19:11:44.000Z</time>
      </trkpt>
      <trkpt lat="48.89273" lon="2.32839">
        <ele>146</ele>
        <time>2012-12-18T19:11:45.000Z</time>
      </trkpt>
      <trkpt lat="48.89272" lon="2.32843">
        <ele>147</ele>
        <time>2012-12-18T19:11:46.000Z</time>
      </trkpt>
      <trkpt lat="48.89274" lon="2.32848">
        <ele>146</ele>
        <time>2012-12-18T19:11:47.000Z</time>
      </trkpt>
      <trkpt lat="48.89274" lon="2.32852">
        <ele>146</ele>
        <time>2012-12-18T19:11:48.000Z</time>
      </trkpt>
      <trkpt lat="48.89274" lon="2.32859">
        <ele>146</ele>
        <time>2012-12-18T19:11:49.000Z</time>
      </trkpt>
      <trkpt lat="48.89273" lon="2.32864">
        <ele>145</ele>
        <time>2012-12-18T19:11:50.000Z</time>
      </trkpt>
      <trkpt lat="48.89272" lon="2.32868">
        <ele>145</ele>
        <time>2012-12-18T19:11:51.000Z</time>
      </trkpt>
      <trkpt lat="48.89272" lon="2.32874">
        <ele>144</ele>
        <time>2012-12-18T19:11:52.000Z</time>
      </trkpt>
      <trkpt lat="48.89273" lon="2.32879">
        <ele>144</ele>
        <time>2012-12-18T19:11:53.000Z</time>
      </trkpt>
      <trkpt lat="48.89271" lon="2.32881">
        <ele>144</ele>
        <time>2012-12-18T19:11:54.000Z</time>
      </trkpt>
      <trkpt lat="48.8927" lon="2.32889">
        <ele>144</ele>
        <time>2012-12-18T19:11:55.000Z</time>
      </trkpt>
      <trkpt lat="48.89268" lon="2.32896">
        <ele>145</ele>
        <time>2012-12-18T19:11:56.000Z</time>
      </trkpt>
      <trkpt lat="48.89264" lon="2.32904">
        <ele>144</ele>
        <time>2012-12-18T19:11:57.000Z</time>
      </trkpt>
      <trkpt lat="48.89263" lon="2.32911">
        <ele>143</ele>
        <time>2012-12-18T19:11:58.000Z</time>
      </trkpt>
      <trkpt lat="48.89267" lon="2.32927">
        <ele>139</ele>
        <time>2012-12-18T19:11:59.000Z</time>
      </trkpt>
      <trkpt lat="48.89264" lon="2.32933">
        <ele>140</ele>
        <time>2012-12-18T19:12:00.000Z</time>
      </trkpt>
      <trkpt lat="48.89264" lon="2.32936">
        <ele>139</ele>
        <time>2012-12-18T19:12:01.000Z</time>
      </trkpt>
      <trkpt lat="48.89263" lon="2.32941">
        <ele>139</ele>
        <time>2012-12-18T19:12:02.000Z</time>
      </trkpt>
      <trkpt lat="48.89263" lon="2.32944">
        <ele>139</ele>
        <time>2012-12-18T19:12:03.000Z</time>
      </trkpt>
      <trkpt lat="48.89262" lon="2.3295">
        <ele>139</ele>
        <time>2012-12-18T19:12:04.000Z</time>
      </trkpt>
      <trkpt lat="48.89261" lon="2.32954">
        <ele>139</ele>
        <time>2012-12-18T19:12:05.000Z</time>
      </trkpt>
      <trkpt lat="48.89263" lon="2.32962">
        <ele>138</ele>
        <time>2012-12-18T19:12:06.000Z</time>
      </trkpt>
      <trkpt lat="48.89261" lon="2.32966">
        <ele>138</ele>
        <time>2012-12-18T19:12:07.000Z</time>
      </trkpt>
      <trkpt lat="48.89263" lon="2.3297">
        <ele>140</ele>
        <time>2012-12-18T19:12:08.000Z</time>
      </trkpt>
      <trkpt lat="48.89262" lon="2.32976">
        <ele>139</ele>
        <time>2012-12-18T19:12:10.000Z</time>
      </trkpt>
      <trkpt lat="48.8926" lon="2.3298">
        <ele>139</ele>
        <time>2012-12-18T19:12:11.000Z</time>
      </trkpt>
      <trkpt lat="48.89261" lon="2.32987">
        <ele>139</ele>
        <time>2012-12-18T19:12:12.000Z</time>
      </trkpt>
      <trkpt lat="48.89263" lon="2.32993">
        <ele>137</ele>
        <time>2012-12-18T19:12:13.000Z</time>
      </trkpt>
      <trkpt lat="48.89262" lon="2.32998">
        <ele>137</ele>
        <time>2012-12-18T19:12:14.000Z</time>
      </trkpt>
      <trkpt lat="48.89262" lon="2.33004">
        <ele>137</ele>
        <time>2012-12-18T19:12:19.000Z</time>
      </trkpt>
      <trkpt lat="48.8926" lon="2.33005">
        <ele>137</ele>
        <time>2012-12-18T19:12:20.000Z</time>
      </trkpt>
      <trkpt lat="48.89258" lon="2.33007">
        <ele>136</ele>
        <time>2012-12-18T19:12:24.000Z</time>
      </trkpt>
      <trkpt lat="48.89252" lon="2.33013">
        <ele>132</ele>
        <time>2012-12-18T19:12:25.000Z</time>
      </trkpt>
      <trkpt lat="48.89248" lon="2.33014">
        <ele>129</ele>
        <time>2012-12-18T19:12:26.000Z</time>
      </trkpt>
      <trkpt lat="48.89242" lon="2.33019">
        <ele>127</ele>
        <time>2012-12-18T19:12:27.000Z</time>
      </trkpt>
      <trkpt lat="48.89239" lon="2.33021">
        <ele>126</ele>
        <time>2012-12-18T19:12:28.000Z</time>
      </trkpt>
      <trkpt lat="48.89235" lon="2.33024">
        <ele>125</ele>
        <time>2012-12-18T19:12:29.000Z</time>
      </trkpt>
      <trkpt lat="48.89231" lon="2.33023">
        <ele>125</ele>
        <time>2012-12-18T19:12:30.000Z</time>
      </trkpt>
      <trkpt lat="48.89228" lon="2.33024">
        <ele>125</ele>
        <time>2012-12-18T19:12:31.000Z</time>
      </trkpt>
      <trkpt lat="48.89225" lon="2.33025">
        <ele>124</ele>
        <time>2012-12-18T19:12:32.000Z</time>
      </trkpt>
      <trkpt lat="48.89223" lon="2.33026">
        <ele>124</ele>
        <time>2012-12-18T19:12:33.000Z</time>
      </trkpt>
      <trkpt lat="48.8922" lon="2.33028">
        <ele>123</ele>
        <time>2012-12-18T19:12:34.000Z</time>
      </trkpt>
      <trkpt lat="48.89217" lon="2.33029">
        <ele>123</ele>
        <time>2012-12-18T19:12:35.000Z</time>
      </trkpt>
      <trkpt lat="48.89215" lon="2.3303">
        <ele>123</ele>
        <time>2012-12-18T19:12:36.000Z</time>
      </trkpt>
      <trkpt lat="48.89213" lon="2.33032">
        <ele>123</ele>
        <time>2012-12-18T19:12:37.000Z</time>
      </trkpt>
      <trkpt lat="48.89208" lon="2.33032">
        <ele>123</ele>
        <time>2012-12-18T19:12:38.000Z</time>
      </trkpt>
      <trkpt lat="48.89206" lon="2.33034">
        <ele>122</ele>
        <time>2012-12-18T19:12:39.000Z</time>
      </trkpt>
      <trkpt lat="48.89203" lon="2.33034">
        <ele>122</ele>
        <time>2012-12-18T19:12:40.000Z</time>
      </trkpt>
      <trkpt lat="48.89199" lon="2.33035">
        <ele>122</ele>
        <time>2012-12-18T19:12:41.000Z</time>
      </trkpt>
      <trkpt lat="48.89196" lon="2.33036">
        <ele>122</ele>
        <time>2012-12-18T19:12:42.000Z</time>
      </trkpt>
      <trkpt lat="48.89193" lon="2.3304">
        <ele>121</ele>
        <time>2012-12-18T19:12:43.000Z</time>
      </trkpt>
      <trkpt lat="48.89192" lon="2.33044">
        <ele>120</ele>
        <time>2012-12-18T19:12:44.000Z</time>
      </trkpt>
      <trkpt lat="48.89189" lon="2.33046">
        <ele>120</ele>
        <time>2012-12-18T19:12:45.000Z</time>
      </trkpt>
      <trkpt lat="48.89188" lon="2.33056">
        <ele>117</ele>
        <time>2012-12-18T19:12:46.000Z</time>
      </trkpt>
      <trkpt lat="48.89186" lon="2.3306">
        <ele>116</ele>
        <time>2012-12-18T19:12:47.000Z</time>
      </trkpt>
      <trkpt lat="48.89183" lon="2.33065">
        <ele>115</ele>
        <time>2012-12-18T19:12:48.000Z</time>
      </trkpt>
      <trkpt lat="48.8918" lon="2.33069">
        <ele>115</ele>
        <time>2012-12-18T19:12:49.000Z</time>
      </trkpt>
      <trkpt lat="48.89177" lon="2.33069">
        <ele>115</ele>
        <time>2012-12-18T19:12:50.000Z</time>
      </trkpt>
      <trkpt lat="48.89174" lon="2.33073">
        <ele>115</ele>
        <time>2012-12-18T19:12:51.000Z</time>
      </trkpt>
      <trkpt lat="48.89172" lon="2.33076">
        <ele>114</ele>
        <time>2012-12-18T19:12:52.000Z</time>
      </trkpt>
      <trkpt lat="48.8917" lon="2.33078">
        <ele>114</ele>
        <time>2012-12-18T19:12:53.000Z</time>
      </trkpt>
      <trkpt lat="48.89167" lon="2.33081">
        <ele>113</ele>
        <time>2012-12-18T19:12:54.000Z</time>
      </trkpt>
      <trkpt lat="48.89163" lon="2.33083">
        <ele>113</ele>
        <time>2012-12-18T19:12:55.000Z</time>
      </trkpt>
      <trkpt lat="48.8916" lon="2.33087">
        <ele>113</ele>
        <time>2012-12-18T19:12:56.000Z</time>
      </trkpt>
      <trkpt lat="48.89157" lon="2.33089">
        <ele>113</ele>
        <time>2012-12-18T19:12:57.000Z</time>
      </trkpt>
      <trkpt lat="48.89154" lon="2.33091">
        <ele>113</ele>
        <time>2012-12-18T19:12:58.000Z</time>
      </trkpt>
      <trkpt lat="48.89151" lon="2.33094">
        <ele>113</ele>
        <time>2012-12-18T19:12:59.000Z</time>
      </trkpt>
      <trkpt lat="48.89148" lon="2.33096">
        <ele>113</ele>
        <time>2012-12-18T19:13:00.000Z</time>
      </trkpt>
      <trkpt lat="48.89145" lon="2.33098">
        <ele>113</ele>
        <time>2012-12-18T19:13:01.000Z</time>
      </trkpt>
      <trkpt lat="48.89141" lon="2.33095">
        <ele>112</ele>
        <time>2012-12-18T19:13:02.000Z</time>
      </trkpt>
      <trkpt lat="48.89139" lon="2.33096">
        <ele>112</ele>
        <time>2012-12-18T19:13:03.000Z</time>
      </trkpt>
      <trkpt lat="48.89136" lon="2.33097">
        <ele>112</ele>
        <time>2012-12-18T19:13:04.000Z</time>
      </trkpt>
      <trkpt lat="48.89133" lon="2.33099">
        <ele>112</ele>
        <time>2012-12-18T19:13:05.000Z</time>
      </trkpt>
      <trkpt lat="48.89131" lon="2.331">
        <ele>112</ele>
        <time>2012-12-18T19:13:06.000Z</time>
      </trkpt>
      <trkpt lat="48.89128" lon="2.33102">
        <ele>112</ele>
        <time>2012-12-18T19:13:07.000Z</time>
      </trkpt>
      <trkpt lat="48.89124" lon="2.33101">
        <ele>112</ele>
        <time>2012-12-18T19:13:08.000Z</time>
      </trkpt>
      <trkpt lat="48.89122" lon="2.33101">
        <ele>112</ele>
        <time>2012-12-18T19:13:09.000Z</time>
      </trkpt>
      <trkpt lat="48.89119" lon="2.33102">
        <ele>112</ele>
        <time>2012-12-18T19:13:10.000Z</time>
      </trkpt>
      <trkpt lat="48.89116" lon="2.33102">
        <ele>112</ele>
        <time>2012-12-18T19:13:11.000Z</time>
      </trkpt>
      <trkpt lat="48.89113" lon="2.33102">
        <ele>112</ele>
        <time>2012-12-18T19:13:12.000Z</time>
      </trkpt>
      <trkpt lat="48.8911" lon="2.33101">
        <ele>113</ele>
        <time>2012-12-18T19:13:15.000Z</time>
      </trkpt>
      <trkpt lat="48.89109" lon="2.33101">
        <ele>112</ele>
        <time>2012-12-18T19:13:16.000Z</time>
      </trkpt>
      <trkpt lat="48.89112" lon="2.33105">
        <ele>113</ele>
        <time>2012-12-18T19:13:27.000Z</time>
      </trkpt>
      <trkpt lat="48.89111" lon="2.33106">
        <ele>113</ele>
        <time>2012-12-18T19:13:28.000Z</time>
      </trkpt>
      <trkpt lat="48.8911" lon="2.33111">
        <ele>115</ele>
        <time>2012-12-18T19:13:52.000Z</time>
      </trkpt>
      <trkpt lat="48.89104" lon="2.33108">
        <ele>116</ele>
        <time>2012-12-18T19:13:53.000Z</time>
      </trkpt>
      <trkpt lat="48.89099" lon="2.33106">
        <ele>116</ele>
        <time>2012-12-18T19:13:54.000Z</time>
      </trkpt>
      <trkpt lat="48.89096" lon="2.3311">
        <ele>116</ele>
        <time>2012-12-18T19:13:56.000Z</time>
      </trkpt>
      <trkpt lat="48.89093" lon="2.331">
        <ele>114</ele>
        <time>2012-12-18T19:13:57.000Z</time>
      </trkpt>
      <trkpt lat="48.89089" lon="2.33101">
        <ele>113</ele>
        <time>2012-12-18T19:13:58.000Z</time>
      </trkpt>
      <trkpt lat="48.89088" lon="2.33105">
        <ele>111</ele>
        <time>2012-12-18T19:13:59.000Z</time>
      </trkpt>
      <trkpt lat="48.89086" lon="2.33105">
        <ele>112</ele>
        <time>2012-12-18T19:14:00.000Z</time>
      </trkpt>
      <trkpt lat="48.89083" lon="2.33107">
        <ele>112</ele>
        <time>2012-12-18T19:14:01.000Z</time>
      </trkpt>
      <trkpt lat="48.8908" lon="2.3311">
        <ele>112</ele>
        <time>2012-12-18T19:14:02.000Z</time>
      </trkpt>
      <trkpt lat="48.89076" lon="2.33113">
        <ele>112</ele>
        <time>2012-12-18T19:14:03.000Z</time>
      </trkpt>
      <trkpt lat="48.89073" lon="2.33116">
        <ele>112</ele>
        <time>2012-12-18T19:14:04.000Z</time>
      </trkpt>
      <trkpt lat="48.89071" lon="2.33117">
        <ele>111</ele>
        <time>2012-12-18T19:14:05.000Z</time>
      </trkpt>
      <trkpt lat="48.89068" lon="2.3312">
        <ele>112</ele>
        <time>2012-12-18T19:14:06.000Z</time>
      </trkpt>
      <trkpt lat="48.89064" lon="2.33124">
        <ele>111</ele>
        <time>2012-12-18T19:14:07.000Z</time>
      </trkpt>
      <trkpt lat="48.89059" lon="2.33127">
        <ele>111</ele>
        <time>2012-12-18T19:14:08.000Z</time>
      </trkpt>
      <trkpt lat="48.89055" lon="2.3313">
        <ele>112</ele>
        <time>2012-12-18T19:14:09.000Z</time>
      </trkpt>
      <trkpt lat="48.89052" lon="2.33132">
        <ele>112</ele>
        <time>2012-12-18T19:14:10.000Z</time>
      </trkpt>
      <trkpt lat="48.89048" lon="2.33133">
        <ele>112</ele>
        <time>2012-12-18T19:14:11.000Z</time>
      </trkpt>
      <trkpt lat="48.89046" lon="2.33137">
        <ele>112</ele>
        <time>2012-12-18T19:14:12.000Z</time>
      </trkpt>
      <trkpt lat="48.89043" lon="2.3314">
        <ele>112</ele>
        <time>2012-12-18T19:14:13.000Z</time>
      </trkpt>
      <trkpt lat="48.89038" lon="2.33141">
        <ele>112</ele>
        <time>2012-12-18T19:14:14.000Z</time>
      </trkpt>
      <trkpt lat="48.89035" lon="2.33144">
        <ele>112</ele>
        <time>2012-12-18T19:14:15.000Z</time>
      </trkpt>
      <trkpt lat="48.89032" lon="2.33144">
        <ele>112</ele>
        <time>2012-12-18T19:14:16.000Z</time>
      </trkpt>
      <trkpt lat="48.89027" lon="2.33146">
        <ele>112</ele>
        <time>2012-12-18T19:14:17.000Z</time>
      </trkpt>
      <trkpt lat="48.89024" lon="2.33147">
        <ele>112</ele>
        <time>2012-12-18T19:14:18.000Z</time>
      </trkpt>
      <trkpt lat="48.89019" lon="2.3315">
        <ele>112</ele>
        <time>2012-12-18T19:14:19.000Z</time>
      </trkpt>
      <trkpt lat="48.89015" lon="2.33153">
        <ele>112</ele>
        <time>2012-12-18T19:14:20.000Z</time>
      </trkpt>
      <trkpt lat="48.89011" lon="2.33154">
        <ele>112</ele>
        <time>2012-12-18T19:14:21.000Z</time>
      </trkpt>
      <trkpt lat="48.89008" lon="2.33155">
        <ele>113</ele>
        <time>2012-12-18T19:14:22.000Z</time>
      </trkpt>
      <trkpt lat="48.89003" lon="2.33156">
        <ele>113</ele>
        <time>2012-12-18T19:14:23.000Z</time>
      </trkpt>
      <trkpt lat="48.88996" lon="2.33155">
        <ele>113</ele>
        <time>2012-12-18T19:14:24.000Z</time>
      </trkpt>
      <trkpt lat="48.88992" lon="2.33155">
        <ele>112</ele>
        <time>2012-12-18T19:14:25.000Z</time>
      </trkpt>
      <trkpt lat="48.88986" lon="2.33154">
        <ele>113</ele>
        <time>2012-12-18T19:14:26.000Z</time>
      </trkpt>
      <trkpt lat="48.88983" lon="2.33156">
        <ele>113</ele>
        <time>2012-12-18T19:14:27.000Z</time>
      </trkpt>
      <trkpt lat="48.88979" lon="2.33157">
        <ele>113</ele>
        <time>2012-12-18T19:14:28.000Z</time>
      </trkpt>
      <trkpt lat="48.88975" lon="2.33159">
        <ele>113</ele>
        <time>2012-12-18T19:14:29.000Z</time>
      </trkpt>
      <trkpt lat="48.88971" lon="2.33159">
        <ele>113</ele>
        <time>2012-12-18T19:14:30.000Z</time>
      </trkpt>
      <trkpt lat="48.88968" lon="2.33159">
        <ele>112</ele>
        <time>2012-12-18T19:14:31.000Z</time>
      </trkpt>
      <trkpt lat="48.88964" lon="2.33161">
        <ele>112</ele>
        <time>2012-12-18T19:14:32.000Z</time>
      </trkpt>
      <trkpt lat="48.88958" lon="2.33162">
        <ele>112</ele>
        <time>2012-12-18T19:14:33.000Z</time>
      </trkpt>
      <trkpt lat="48.88955" lon="2.33164">
        <ele>112</ele>
        <time>2012-12-18T19:14:34.000Z</time>
      </trkpt>
      <trkpt lat="48.88951" lon="2.33167">
        <ele>112</ele>
        <time>2012-12-18T19:14:35.000Z</time>
      </trkpt>
      <trkpt lat="48.88948" lon="2.33169">
        <ele>112</ele>
        <time>2012-12-18T19:14:36.000Z</time>
      </trkpt>
      <trkpt lat="48.88943" lon="2.33171">
        <ele>112</ele>
        <time>2012-12-18T19:14:37.000Z</time>
      </trkpt>
      <trkpt lat="48.88941" lon="2.33172">
        <ele>112</ele>
        <time>2012-12-18T19:14:38.000Z</time>
      </trkpt>
      <trkpt lat="48.88934" lon="2.3317">
        <ele>111</ele>
        <time>2012-12-18T19:14:39.000Z</time>
      </trkpt>
      <trkpt lat="48.88932" lon="2.33171">
        <ele>111</ele>
        <time>2012-12-18T19:14:40.000Z</time>
      </trkpt>
      <trkpt lat="48.88928" lon="2.33174">
        <ele>111</ele>
        <time>2012-12-18T19:14:41.000Z</time>
      </trkpt>
      <trkpt lat="48.88924" lon="2.33176">
        <ele>111</ele>
        <time>2012-12-18T19:14:42.000Z</time>
      </trkpt>
      <trkpt lat="48.8892" lon="2.33177">
        <ele>111</ele>
        <time>2012-12-18T19:14:43.000Z</time>
      </trkpt>
      <trkpt lat="48.88915" lon="2.33179">
        <ele>111</ele>
        <time>2012-12-18T19:14:44.000Z</time>
      </trkpt>
      <trkpt lat="48.88912" lon="2.33182">
        <ele>111</ele>
        <time>2012-12-18T19:14:45.000Z</time>
      </trkpt>
      <trkpt lat="48.88909" lon="2.33182">
        <ele>111</ele>
        <time>2012-12-18T19:14:46.000Z</time>
      </trkpt>
      <trkpt lat="48.88905" lon="2.33183">
        <ele>111</ele>
        <time>2012-12-18T19:14:47.000Z</time>
      </trkpt>
      <trkpt lat="48.88902" lon="2.33185">
        <ele>111</ele>
        <time>2012-12-18T19:14:48.000Z</time>
      </trkpt>
      <trkpt lat="48.88899" lon="2.33183">
        <ele>111</ele>
        <time>2012-12-18T19:14:49.000Z</time>
      </trkpt>
      <trkpt lat="48.88895" lon="2.33184">
        <ele>111</ele>
        <time>2012-12-18T19:14:50.000Z</time>
      </trkpt>
      <trkpt lat="48.88891" lon="2.33185">
        <ele>111</ele>
        <time>2012-12-18T19:14:51.000Z</time>
      </trkpt>
      <trkpt lat="48.88888" lon="2.33183">
        <ele>113</ele>
        <time>2012-12-18T19:14:52.000Z</time>
      </trkpt>
      <trkpt lat="48.88885" lon="2.33184">
        <ele>112</ele>
        <time>2012-12-18T19:14:53.000Z</time>
      </trkpt>
      <trkpt lat="48.88883" lon="2.33183">
        <ele>113</ele>
        <time>2012-12-18T19:14:54.000Z</time>
      </trkpt>
      <trkpt lat="48.88882" lon="2.3318">
        <ele>119</ele>
        <time>2012-12-18T19:15:34.000Z</time>
      </trkpt>
      <trkpt lat="48.88878" lon="2.3318">
        <ele>119</ele>
        <time>2012-12-18T19:15:35.000Z</time>
      </trkpt>
      <trkpt lat="48.88874" lon="2.33181">
        <ele>118</ele>
        <time>2012-12-18T19:15:37.000Z</time>
      </trkpt>
      <trkpt lat="48.88871" lon="2.33181">
        <ele>119</ele>
        <time>2012-12-18T19:15:38.000Z</time>
      </trkpt>
      <trkpt lat="48.88868" lon="2.33182">
        <ele>119</ele>
        <time>2012-12-18T19:15:39.000Z</time>
      </trkpt>
      <trkpt lat="48.88865" lon="2.33185">
        <ele>119</ele>
        <time>2012-12-18T19:15:40.000Z</time>
      </trkpt>
      <trkpt lat="48.88862" lon="2.33186">
        <ele>120</ele>
        <time>2012-12-18T19:15:41.000Z</time>
      </trkpt>
      <trkpt lat="48.88858" lon="2.33187">
        <ele>120</ele>
        <time>2012-12-18T19:15:42.000Z</time>
      </trkpt>
      <trkpt lat="48.88854" lon="2.33191">
        <ele>120</ele>
        <time>2012-12-18T19:15:44.000Z</time>
      </trkpt>
      <trkpt lat="48.88851" lon="2.33192">
        <ele>121</ele>
        <time>2012-12-18T19:15:45.000Z</time>
      </trkpt>
      <trkpt lat="48.88848" lon="2.33193">
        <ele>122</ele>
        <time>2012-12-18T19:15:46.000Z</time>
      </trkpt>
      <trkpt lat="48.88846" lon="2.33194">
        <ele>123</ele>
        <time>2012-12-18T19:15:47.000Z</time>
      </trkpt>
      <trkpt lat="48.88844" lon="2.33196">
        <ele>123</ele>
        <time>2012-12-18T19:15:48.000Z</time>
      </trkpt>
      <trkpt lat="48.8884" lon="2.33198">
        <ele>123</ele>
        <time>2012-12-18T19:15:49.000Z</time>
      </trkpt>
      <trkpt lat="48.88837" lon="2.33201">
        <ele>124</ele>
        <time>2012-12-18T19:15:50.000Z</time>
      </trkpt>
      <trkpt lat="48.88834" lon="2.33203">
        <ele>124</ele>
        <time>2012-12-18T19:15:51.000Z</time>
      </trkpt>
      <trkpt lat="48.8883" lon="2.33206">
        <ele>124</ele>
        <time>2012-12-18T19:15:52.000Z</time>
      </trkpt>
      <trkpt lat="48.88826" lon="2.33208">
        <ele>124</ele>
        <time>2012-12-18T19:15:53.000Z</time>
      </trkpt>
      <trkpt lat="48.88823" lon="2.33211">
        <ele>124</ele>
        <time>2012-12-18T19:15:54.000Z</time>
      </trkpt>
      <trkpt lat="48.88819" lon="2.33211">
        <ele>124</ele>
        <time>2012-12-18T19:15:55.000Z</time>
      </trkpt>
      <trkpt lat="48.88816" lon="2.33208">
        <ele>124</ele>
        <time>2012-12-18T19:15:56.000Z</time>
      </trkpt>
      <trkpt lat="48.88811" lon="2.33209">
        <ele>124</ele>
        <time>2012-12-18T19:15:57.000Z</time>
      </trkpt>
      <trkpt lat="48.88808" lon="2.33209">
        <ele>125</ele>
        <time>2012-12-18T19:15:58.000Z</time>
      </trkpt>
      <trkpt lat="48.88804" lon="2.33212">
        <ele>125</ele>
        <time>2012-12-18T19:15:59.000Z</time>
      </trkpt>
      <trkpt lat="48.88801" lon="2.33212">
        <ele>124</ele>
        <time>2012-12-18T19:16:00.000Z</time>
      </trkpt>
      <trkpt lat="48.88799" lon="2.33215">
        <ele>124</ele>
        <time>2012-12-18T19:16:01.000Z</time>
      </trkpt>
      <trkpt lat="48.88796" lon="2.33217">
        <ele>123</ele>
        <time>2012-12-18T19:16:02.000Z</time>
      </trkpt>
      <trkpt lat="48.88791" lon="2.33217">
        <ele>123</ele>
        <time>2012-12-18T19:16:03.000Z</time>
      </trkpt>
      <trkpt lat="48.88788" lon="2.33219">
        <ele>123</ele>
        <time>2012-12-18T19:16:04.000Z</time>
      </trkpt>
      <trkpt lat="48.88784" lon="2.33219">
        <ele>123</ele>
        <time>2012-12-18T19:16:05.000Z</time>
      </trkpt>
      <trkpt lat="48.8878" lon="2.33219">
        <ele>123</ele>
        <time>2012-12-18T19:16:06.000Z</time>
      </trkpt>
      <trkpt lat="48.88778" lon="2.33221">
        <ele>123</ele>
        <time>2012-12-18T19:16:07.000Z</time>
      </trkpt>
      <trkpt lat="48.88775" lon="2.33222">
        <ele>123</ele>
        <time>2012-12-18T19:16:08.000Z</time>
      </trkpt>
      <trkpt lat="48.88773" lon="2.33222">
        <ele>123</ele>
        <time>2012-12-18T19:16:09.000Z</time>
      </trkpt>
      <trkpt lat="48.8877" lon="2.33223">
        <ele>122</ele>
        <time>2012-12-18T19:16:10.000Z</time>
      </trkpt>
      <trkpt lat="48.88766" lon="2.33224">
        <ele>122</ele>
        <time>2012-12-18T19:16:11.000Z</time>
      </trkpt>
      <trkpt lat="48.88763" lon="2.33225">
        <ele>122</ele>
        <time>2012-12-18T19:16:12.000Z</time>
      </trkpt>
      <trkpt lat="48.88759" lon="2.33226">
        <ele>122</ele>
        <time>2012-12-18T19:16:13.000Z</time>
      </trkpt>
      <trkpt lat="48.88756" lon="2.33227">
        <ele>121</ele>
        <time>2012-12-18T19:16:14.000Z</time>
      </trkpt>
      <trkpt lat="48.88753" lon="2.33228">
        <ele>122</ele>
        <time>2012-12-18T19:16:15.000Z</time>
      </trkpt>
      <trkpt lat="48.88749" lon="2.33229">
        <ele>122</ele>
        <time>2012-12-18T19:16:16.000Z</time>
      </trkpt>
      <trkpt lat="48.88747" lon="2.33232">
        <ele>122</ele>
        <time>2012-12-18T19:16:17.000Z</time>
      </trkpt>
      <trkpt lat="48.88745" lon="2.33233">
        <ele>122</ele>
        <time>2012-12-18T19:16:18.000Z</time>
      </trkpt>
      <trkpt lat="48.88742" lon="2.33235">
        <ele>122</ele>
        <time>2012-12-18T19:16:19.000Z</time>
      </trkpt>
      <trkpt lat="48.88738" lon="2.33236">
        <ele>122</ele>
        <time>2012-12-18T19:16:20.000Z</time>
      </trkpt>
      <trkpt lat="48.88736" lon="2.33237">
        <ele>122</ele>
        <time>2012-12-18T19:16:21.000Z</time>
      </trkpt>
      <trkpt lat="48.88733" lon="2.3324">
        <ele>122</ele>
        <time>2012-12-18T19:16:23.000Z</time>
      </trkpt>
      <trkpt lat="48.88729" lon="2.3324">
        <ele>122</ele>
        <time>2012-12-18T19:16:24.000Z</time>
      </trkpt>
      <trkpt lat="48.88727" lon="2.33241">
        <ele>123</ele>
        <time>2012-12-18T19:16:25.000Z</time>
      </trkpt>
      <trkpt lat="48.88725" lon="2.33241">
        <ele>123</ele>
        <time>2012-12-18T19:16:26.000Z</time>
      </trkpt>
      <trkpt lat="48.88721" lon="2.33243">
        <ele>123</ele>
        <time>2012-12-18T19:16:28.000Z</time>
      </trkpt>
      <trkpt lat="48.88714" lon="2.3324">
        <ele>126</ele>
        <time>2012-12-18T19:16:29.000Z</time>
      </trkpt>
      <trkpt lat="48.88712" lon="2.33243">
        <ele>126</ele>
        <time>2012-12-18T19:16:30.000Z</time>
      </trkpt>
      <trkpt lat="48.88708" lon="2.33243">
        <ele>127</ele>
        <time>2012-12-18T19:16:31.000Z</time>
      </trkpt>
      <trkpt lat="48.88705" lon="2.33245">
        <ele>128</ele>
        <time>2012-12-18T19:16:32.000Z</time>
      </trkpt>
      <trkpt lat="48.88701" lon="2.33248">
        <ele>129</ele>
        <time>2012-12-18T19:16:33.000Z</time>
      </trkpt>
      <trkpt lat="48.88698" lon="2.33249">
        <ele>130</ele>
        <time>2012-12-18T19:16:35.000Z</time>
      </trkpt>
      <trkpt lat="48.88697" lon="2.33251">
        <ele>129</ele>
        <time>2012-12-18T19:16:36.000Z</time>
      </trkpt>
      <trkpt lat="48.88694" lon="2.33251">
        <ele>128</ele>
        <time>2012-12-18T19:16:38.000Z</time>
      </trkpt>
      <trkpt lat="48.88692" lon="2.33251">
        <ele>129</ele>
        <time>2012-12-18T19:16:39.000Z</time>
      </trkpt>
      <trkpt lat="48.8869" lon="2.33251">
        <ele>129</ele>
        <time>2012-12-18T19:16:40.000Z</time>
      </trkpt>
      <trkpt lat="48.88687" lon="2.33251">
        <ele>129</ele>
        <time>2012-12-18T19:16:41.000Z</time>
      </trkpt>
      <trkpt lat="48.88684" lon="2.33255">
        <ele>130</ele>
        <time>2012-12-18T19:16:43.000Z</time>
      </trkpt>
      <trkpt lat="48.88683" lon="2.33257">
        <ele>130</ele>
        <time>2012-12-18T19:16:44.000Z</time>
      </trkpt>
      <trkpt lat="48.88683" lon="2.33263">
        <ele>132</ele>
        <time>2012-12-18T19:16:48.000Z</time>
      </trkpt>
      <trkpt lat="48.88682" lon="2.33264">
        <ele>133</ele>
        <time>2012-12-18T19:16:49.000Z</time>
      </trkpt>
      <trkpt lat="48.88679" lon="2.3327">
        <ele>137</ele>
        <time>2012-12-18T19:16:55.000Z</time>
      </trkpt>
      <trkpt lat="48.88679" lon="2.33271">
        <ele>138</ele>
        <time>2012-12-18T19:16:56.000Z</time>
      </trkpt>
      <trkpt lat="48.88677" lon="2.33274">
        <ele>140</ele>
        <time>2012-12-18T19:17:22.000Z</time>
      </trkpt>
      <trkpt lat="48.88675" lon="2.33274">
        <ele>140</ele>
        <time>2012-12-18T19:17:23.000Z</time>
      </trkpt>
      <trkpt lat="48.88671" lon="2.33274">
        <ele>140</ele>
        <time>2012-12-18T19:17:25.000Z</time>
      </trkpt>
      <trkpt lat="48.88669" lon="2.33272">
        <ele>141</ele>
        <time>2012-12-18T19:17:26.000Z</time>
      </trkpt>
      <trkpt lat="48.88665" lon="2.33273">
        <ele>141</ele>
        <time>2012-12-18T19:17:28.000Z</time>
      </trkpt>
      <trkpt lat="48.88662" lon="2.33271">
        <ele>142</ele>
        <time>2012-12-18T19:17:29.000Z</time>
      </trkpt>
      <trkpt lat="48.88657" lon="2.33271">
        <ele>142</ele>
        <time>2012-12-18T19:17:32.000Z</time>
      </trkpt>
      <trkpt lat="48.88656" lon="2.33266">
        <ele>143</ele>
        <time>2012-12-18T19:17:33.000Z</time>
      </trkpt>
      <trkpt lat="48.88655" lon="2.33272">
        <ele>141</ele>
        <time>2012-12-18T19:18:23.000Z</time>
      </trkpt>
      <trkpt lat="48.88654" lon="2.33274">
        <ele>141</ele>
        <time>2012-12-18T19:18:24.000Z</time>
      </trkpt>
      <trkpt lat="48.88653" lon="2.33278">
        <ele>141</ele>
        <time>2012-12-18T19:18:26.000Z</time>
      </trkpt>
      <trkpt lat="48.88652" lon="2.3328">
        <ele>141</ele>
        <time>2012-12-18T19:18:27.000Z</time>
      </trkpt>
      <trkpt lat="48.88652" lon="2.33284">
        <ele>141</ele>
        <time>2012-12-18T19:18:28.000Z</time>
      </trkpt>
      <trkpt lat="48.88651" lon="2.33288">
        <ele>141</ele>
        <time>2012-12-18T19:18:29.000Z</time>
      </trkpt>
      <trkpt lat="48.8865" lon="2.33293">
        <ele>141</ele>
        <time>2012-12-18T19:18:32.000Z</time>
      </trkpt>
      <trkpt lat="48.88649" lon="2.33296">
        <ele>141</ele>
        <time>2012-12-18T19:18:33.000Z</time>
      </trkpt>
      <trkpt lat="48.88649" lon="2.33302">
        <ele>141</ele>
        <time>2012-12-18T19:18:36.000Z</time>
      </trkpt>
      <trkpt lat="48.88649" lon="2.33304">
        <ele>141</ele>
        <time>2012-12-18T19:18:37.000Z</time>
      </trkpt>
      <trkpt lat="48.88649" lon="2.3331">
        <ele>141</ele>
        <time>2012-12-18T19:18:40.000Z</time>
      </trkpt>
      <trkpt lat="48.88649" lon="2.33314">
        <ele>140</ele>
        <time>2012-12-18T19:18:41.000Z</time>
      </trkpt>
      <trkpt lat="48.88649" lon="2.33318">
        <ele>140</ele>
        <time>2012-12-18T19:18:44.000Z</time>
      </trkpt>
      <trkpt lat="48.88649" lon="2.33321">
        <ele>140</ele>
        <time>2012-12-18T19:18:45.000Z</time>
      </trkpt>
      <trkpt lat="48.88649" lon="2.33323">
        <ele>141</ele>
        <time>2012-12-18T19:18:46.000Z</time>
      </trkpt>
      <trkpt lat="48.88651" lon="2.33328">
        <ele>140</ele>
        <time>2012-12-18T19:18:47.000Z</time>
      </trkpt>
      <trkpt lat="48.8865" lon="2.33334">
        <ele>140</ele>
        <time>2012-12-18T19:18:50.000Z</time>
      </trkpt>
      <trkpt lat="48.88647" lon="2.33337">
        <ele>140</ele>
        <time>2012-12-18T19:18:51.000Z</time>
      </trkpt>
      <trkpt lat="48.88645" lon="2.33341">
        <ele>140</ele>
        <time>2012-12-18T19:18:52.000Z</time>
      </trkpt>
      <trkpt lat="48.88642" lon="2.33345">
        <ele>140</ele>
        <time>2012-12-18T19:18:53.000Z</time>
      </trkpt>
      <trkpt lat="48.8864" lon="2.3335">
        <ele>140</ele>
        <time>2012-12-18T19:18:55.000Z</time>
      </trkpt>
      <trkpt lat="48.88641" lon="2.33352">
        <ele>140</ele>
        <time>2012-12-18T19:18:56.000Z</time>
      </trkpt>
      <trkpt lat="48.88639" lon="2.33358">
        <ele>140</ele>
        <time>2012-12-18T19:18:59.000Z</time>
      </trkpt>
      <trkpt lat="48.88634" lon="2.33359">
        <ele>138</ele>
        <time>2012-12-18T19:19:00.000Z</time>
      </trkpt>
      <trkpt lat="48.88633" lon="2.33365">
        <ele>138</ele>
        <time>2012-12-18T19:19:02.000Z</time>
      </trkpt>
      <trkpt lat="48.88632" lon="2.33367">
        <ele>138</ele>
        <time>2012-12-18T19:19:03.000Z</time>
      </trkpt>
      <trkpt lat="48.88631" lon="2.33368">
        <ele>138</ele>
        <time>2012-12-18T19:19:04.000Z</time>
      </trkpt>
      <trkpt lat="48.88628" lon="2.33373">
        <ele>137</ele>
        <time>2012-12-18T19:19:05.000Z</time>
      </trkpt>
      <trkpt lat="48.88628" lon="2.33377">
        <ele>137</ele>
        <time>2012-12-18T19:19:06.000Z</time>
      </trkpt>
      <trkpt lat="48.8863" lon="2.33383">
        <ele>137</ele>
        <time>2012-12-18T19:19:07.000Z</time>
      </trkpt>
      <trkpt lat="48.88633" lon="2.33387">
        <ele>137</ele>
        <time>2012-12-18T19:19:10.000Z</time>
      </trkpt>
      <trkpt lat="48.88632" lon="2.33391">
        <ele>136</ele>
        <time>2012-12-18T19:19:11.000Z</time>
      </trkpt>
      <trkpt lat="48.8863" lon="2.33392">
        <ele>137</ele>
        <time>2012-12-18T19:19:12.000Z</time>
      </trkpt>
      <trkpt lat="48.88628" lon="2.33397">
        <ele>137</ele>
        <time>2012-12-18T19:19:13.000Z</time>
      </trkpt>
      <trkpt lat="48.88625" lon="2.33399">
        <ele>137</ele>
        <time>2012-12-18T19:19:17.000Z</time>
      </trkpt>
      <trkpt lat="48.88624" lon="2.334">
        <ele>137</ele>
        <time>2012-12-18T19:19:18.000Z</time>
      </trkpt>
      <trkpt lat="48.88625" lon="2.33402">
        <ele>137</ele>
        <time>2012-12-18T19:19:23.000Z</time>
      </trkpt>
      <trkpt lat="48.88619" lon="2.33407">
        <ele>137</ele>
        <time>2012-12-18T19:19:24.000Z</time>
      </trkpt>
      <trkpt lat="48.88611" lon="2.33416">
        <ele>136</ele>
        <time>2012-12-18T19:19:25.000Z</time>
      </trkpt>
      <trkpt lat="48.886" lon="2.33429">
        <ele>135</ele>
        <time>2012-12-18T19:19:26.000Z</time>
      </trkpt>
      <trkpt lat="48.88595" lon="2.33437">
        <ele>136</ele>
        <time>2012-12-18T19:19:27.000Z</time>
      </trkpt>
      <trkpt lat="48.88594" lon="2.33442">
        <ele>135</ele>
        <time>2012-12-18T19:19:29.000Z</time>
      </trkpt>
      <trkpt lat="48.8859" lon="2.33447">
        <ele>135</ele>
        <time>2012-12-18T19:19:30.000Z</time>
      </trkpt>
      <trkpt lat="48.88589" lon="2.33449">
        <ele>135</ele>
        <time>2012-12-18T19:19:31.000Z</time>
      </trkpt>
      <trkpt lat="48.88589" lon="2.33455">
        <ele>136</ele>
        <time>2012-12-18T19:19:32.000Z</time>
      </trkpt>
      <trkpt lat="48.88588" lon="2.33462">
        <ele>137</ele>
        <time>2012-12-18T19:19:33.000Z</time>
      </trkpt>
      <trkpt lat="48.88587" lon="2.33466">
        <ele>137</ele>
        <time>2012-12-18T19:19:34.000Z</time>
      </trkpt>
      <trkpt lat="48.88586" lon="2.33472">
        <ele>137</ele>
        <time>2012-12-18T19:19:35.000Z</time>
      </trkpt>
      <trkpt lat="48.88584" lon="2.33477">
        <ele>138</ele>
        <time>2012-12-18T19:19:37.000Z</time>
      </trkpt>
      <trkpt lat="48.88585" lon="2.33479">
        <ele>138</ele>
        <time>2012-12-18T19:19:38.000Z</time>
      </trkpt>
      <trkpt lat="48.88584" lon="2.33485">
        <ele>138</ele>
        <time>2012-12-18T19:19:39.000Z</time>
      </trkpt>
      <trkpt lat="48.88584" lon="2.33488">
        <ele>138</ele>
        <time>2012-12-18T19:19:40.000Z</time>
      </trkpt>
      <trkpt lat="48.88582" lon="2.33493">
        <ele>139</ele>
        <time>2012-12-18T19:19:44.000Z</time>
      </trkpt>
      <trkpt lat="48.88582" lon="2.33496">
        <ele>139</ele>
        <time>2012-12-18T19:19:45.000Z</time>
      </trkpt>
      <trkpt lat="48.88581" lon="2.33502">
        <ele>139</ele>
        <time>2012-12-18T19:19:48.000Z</time>
      </trkpt>
      <trkpt lat="48.88581" lon="2.33505">
        <ele>139</ele>
        <time>2012-12-18T19:19:49.000Z</time>
      </trkpt>
      <trkpt lat="48.8858" lon="2.33508">
        <ele>139</ele>
        <time>2012-12-18T19:19:51.000Z</time>
      </trkpt>
      <trkpt lat="48.88579" lon="2.33512">
        <ele>139</ele>
        <time>2012-12-18T19:19:52.000Z</time>
      </trkpt>
      <trkpt lat="48.88577" lon="2.33516">
        <ele>139</ele>
        <time>2012-12-18T19:19:55.000Z</time>
      </trkpt>
      <trkpt lat="48.88579" lon="2.33518">
        <ele>139</ele>
        <time>2012-12-18T19:19:56.000Z</time>
      </trkpt>
      <trkpt lat="48.88576" lon="2.3352">
        <ele>139</ele>
        <time>2012-12-18T19:19:57.000Z</time>
      </trkpt>
      <trkpt lat="48.88576" lon="2.33528">
        <ele>140</ele>
        <time>2012-12-18T19:19:58.000Z</time>
      </trkpt>
      <trkpt lat="48.88575" lon="2.33531">
        <ele>140</ele>
        <time>2012-12-18T19:20:00.000Z</time>
      </trkpt>
      <trkpt lat="48.88574" lon="2.33536">
        <ele>140</ele>
        <time>2012-12-18T19:20:01.000Z</time>
      </trkpt>
      <trkpt lat="48.88574" lon="2.33542">
        <ele>140</ele>
        <time>2012-12-18T19:20:03.000Z</time>
      </trkpt>
      <trkpt lat="48.88573" lon="2.33543">
        <ele>140</ele>
        <time>2012-12-18T19:20:04.000Z</time>
      </trkpt>
      <trkpt lat="48.88573" lon="2.33545">
        <ele>140</ele>
        <time>2012-12-18T19:20:05.000Z</time>
      </trkpt>
      <trkpt lat="48.88573" lon="2.3355">
        <ele>140</ele>
        <time>2012-12-18T19:20:06.000Z</time>
      </trkpt>
      <trkpt lat="48.88572" lon="2.33555">
        <ele>140</ele>
        <time>2012-12-18T19:20:08.000Z</time>
      </trkpt>
      <trkpt lat="48.88572" lon="2.33558">
        <ele>139</ele>
        <time>2012-12-18T19:20:09.000Z</time>
      </trkpt>
      <trkpt lat="48.8857" lon="2.33562">
        <ele>139</ele>
        <time>2012-12-18T19:20:11.000Z</time>
      </trkpt>
      <trkpt lat="48.88566" lon="2.33565">
        <ele>139</ele>
        <time>2012-12-18T19:20:12.000Z</time>
      </trkpt>
      <trkpt lat="48.88561" lon="2.33568">
        <ele>139</ele>
        <time>2012-12-18T19:20:13.000Z</time>
      </trkpt>
      <trkpt lat="48.88558" lon="2.3357">
        <ele>138</ele>
        <time>2012-12-18T19:20:15.000Z</time>
      </trkpt>
      <trkpt lat="48.88557" lon="2.33574">
        <ele>138</ele>
        <time>2012-12-18T19:20:16.000Z</time>
      </trkpt>
      <trkpt lat="48.88557" lon="2.33579">
        <ele>139</ele>
        <time>2012-12-18T19:20:18.000Z</time>
      </trkpt>
      <trkpt lat="48.88553" lon="2.33583">
        <ele>139</ele>
        <time>2012-12-18T19:20:19.000Z</time>
      </trkpt>
      <trkpt lat="48.88552" lon="2.33588">
        <ele>139</ele>
        <time>2012-12-18T19:20:21.000Z</time>
      </trkpt>
      <trkpt lat="48.88553" lon="2.33591">
        <ele>139</ele>
        <time>2012-12-18T19:20:22.000Z</time>
      </trkpt>
      <trkpt lat="48.8855" lon="2.33595">
        <ele>139</ele>
        <time>2012-12-18T19:20:25.000Z</time>
      </trkpt>
      <trkpt lat="48.88549" lon="2.33596">
        <ele>140</ele>
        <time>2012-12-18T19:20:26.000Z</time>
      </trkpt>
      <trkpt lat="48.88546" lon="2.33598">
        <ele>139</ele>
        <time>2012-12-18T19:20:29.000Z</time>
      </trkpt>
      <trkpt lat="48.88546" lon="2.33604">
        <ele>140</ele>
        <time>2012-12-18T19:20:30.000Z</time>
      </trkpt>
      <trkpt lat="48.88545" lon="2.3361">
        <ele>140</ele>
        <time>2012-12-18T19:20:33.000Z</time>
      </trkpt>
      <trkpt lat="48.88549" lon="2.33613">
        <ele>140</ele>
        <time>2012-12-18T19:20:34.000Z</time>
      </trkpt>
      <trkpt lat="48.88549" lon="2.33615">
        <ele>140</ele>
        <time>2012-12-18T19:20:36.000Z</time>
      </trkpt>
      <trkpt lat="48.88549" lon="2.33622">
        <ele>141</ele>
        <time>2012-12-18T19:20:37.000Z</time>
      </trkpt>
      <trkpt lat="48.88548" lon="2.33626">
        <ele>141</ele>
        <time>2012-12-18T19:20:40.000Z</time>
      </trkpt>
      <trkpt lat="48.88556" lon="2.3363">
        <ele>141</ele>
        <time>2012-12-18T19:20:41.000Z</time>
      </trkpt>
      <trkpt lat="48.88556" lon="2.33632">
        <ele>141</ele>
        <time>2012-12-18T19:20:43.000Z</time>
      </trkpt>
      <trkpt lat="48.88549" lon="2.33627">
        <ele>142</ele>
        <time>2012-12-18T19:20:44.000Z</time>
      </trkpt>
      <trkpt lat="48.8854" lon="2.33621">
        <ele>143</ele>
        <time>2012-12-18T19:20:45.000Z</time>
      </trkpt>
      <trkpt lat="48.88537" lon="2.33625">
        <ele>143</ele>
        <time>2012-12-18T19:20:48.000Z</time>
      </trkpt>
      <trkpt lat="48.88533" lon="2.33622">
        <ele>143</ele>
        <time>2012-12-18T19:20:49.000Z</time>
      </trkpt>
      <trkpt lat="48.88537" lon="2.33626">
        <ele>143</ele>
        <time>2012-12-18T19:20:50.000Z</time>
      </trkpt>
      <trkpt lat="48.88528" lon="2.33631">
        <ele>143</ele>
        <time>2012-12-18T19:20:51.000Z</time>
      </trkpt>
      <trkpt lat="48.88524" lon="2.33633">
        <ele>143</ele>
        <time>2012-12-18T19:20:53.000Z</time>
      </trkpt>
      <trkpt lat="48.88524" lon="2.33641">
        <ele>142</ele>
        <time>2012-12-18T19:20:54.000Z</time>
      </trkpt>
      <trkpt lat="48.88519" lon="2.33644">
        <ele>141</ele>
        <time>2012-12-18T19:20:55.000Z</time>
      </trkpt>
      <trkpt lat="48.88517" lon="2.33646">
        <ele>141</ele>
        <time>2012-12-18T19:20:56.000Z</time>
      </trkpt>
      <trkpt lat="48.88517" lon="2.3365">
        <ele>141</ele>
        <time>2012-12-18T19:20:57.000Z</time>
      </trkpt>
      <trkpt lat="48.88516" lon="2.33649">
        <ele>140</ele>
        <time>2012-12-18T19:20:59.000Z</time>
      </trkpt>
      <trkpt lat="48.88513" lon="2.33656">
        <ele>140</ele>
        <time>2012-12-18T19:21:00.000Z</time>
      </trkpt>
      <trkpt lat="48.88513" lon="2.33658">
        <ele>141</ele>
        <time>2012-12-18T19:21:01.000Z</time>
      </trkpt>
      <trkpt lat="48.88511" lon="2.33666">
        <ele>141</ele>
        <time>2012-12-18T19:21:02.000Z</time>
      </trkpt>
      <trkpt lat="48.88509" lon="2.33669">
        <ele>141</ele>
        <time>2012-12-18T19:21:03.000Z</time>
      </trkpt>
      <trkpt lat="48.88508" lon="2.33676">
        <ele>142</ele>
        <time>2012-12-18T19:21:04.000Z</time>
      </trkpt>
      <trkpt lat="48.88505" lon="2.3368">
        <ele>143</ele>
        <time>2012-12-18T19:21:07.000Z</time>
      </trkpt>
      <trkpt lat="48.88503" lon="2.33685">
        <ele>144</ele>
        <time>2012-12-18T19:21:08.000Z</time>
      </trkpt>
      <trkpt lat="48.88501" lon="2.33692">
        <ele>144</ele>
        <time>2012-12-18T19:21:09.000Z</time>
      </trkpt>
      <trkpt lat="48.88502" lon="2.33696">
        <ele>144</ele>
        <time>2012-12-18T19:21:10.000Z</time>
      </trkpt>
      <trkpt lat="48.88502" lon="2.337">
        <ele>144</ele>
        <time>2012-12-18T19:21:11.000Z</time>
      </trkpt>
      <trkpt lat="48.88506" lon="2.33707">
        <ele>144</ele>
        <time>2012-12-18T19:21:12.000Z</time>
      </trkpt>
      <trkpt lat="48.88502" lon="2.33709">
        <ele>145</ele>
        <time>2012-12-18T19:21:15.000Z</time>
      </trkpt>
      <trkpt lat="48.88502" lon="2.33711">
        <ele>145</ele>
        <time>2012-12-18T19:21:16.000Z</time>
      </trkpt>
      <trkpt lat="48.885" lon="2.33716">
        <ele>145</ele>
        <time>2012-12-18T19:21:18.000Z</time>
      </trkpt>
      <trkpt lat="48.885" lon="2.33719">
        <ele>145</ele>
        <time>2012-12-18T19:21:19.000Z</time>
      </trkpt>
      <trkpt lat="48.88499" lon="2.33719">
        <ele>145</ele>
        <time>2012-12-18T19:21:20.000Z</time>
      </trkpt>
      <trkpt lat="48.88498" lon="2.33724">
        <ele>145</ele>
        <time>2012-12-18T19:21:21.000Z</time>
      </trkpt>
      <trkpt lat="48.88497" lon="2.33728">
        <ele>145</ele>
        <time>2012-12-18T19:21:22.000Z</time>
      </trkpt>
      <trkpt lat="48.88494" lon="2.33735">
        <ele>145</ele>
        <time>2012-12-18T19:21:23.000Z</time>
      </trkpt>
      <trkpt lat="48.88492" lon="2.33743">
        <ele>146</ele>
        <time>2012-12-18T19:21:24.000Z</time>
      </trkpt>
      <trkpt lat="48.88491" lon="2.33748">
        <ele>147</ele>
        <time>2012-12-18T19:21:26.000Z</time>
      </trkpt>
      <trkpt lat="48.88487" lon="2.33755">
        <ele>147</ele>
        <time>2012-12-18T19:21:27.000Z</time>
      </trkpt>
      <trkpt lat="48.88483" lon="2.3376">
        <ele>147</ele>
        <time>2012-12-18T19:21:28.000Z</time>
      </trkpt>
      <trkpt lat="48.88484" lon="2.33761">
        <ele>149</ele>
        <time>2012-12-18T19:21:29.000Z</time>
      </trkpt>
      <trkpt lat="48.88477" lon="2.33766">
        <ele>146</ele>
        <time>2012-12-18T19:21:30.000Z</time>
      </trkpt>
      <trkpt lat="48.88476" lon="2.3377">
        <ele>147</ele>
        <time>2012-12-18T19:21:32.000Z</time>
      </trkpt>
      <trkpt lat="48.88474" lon="2.33772">
        <ele>148</ele>
        <time>2012-12-18T19:21:33.000Z</time>
      </trkpt>
      <trkpt lat="48.88473" lon="2.33777">
        <ele>150</ele>
        <time>2012-12-18T19:21:34.000Z</time>
      </trkpt>
      <trkpt lat="48.88473" lon="2.33781">
        <ele>151</ele>
        <time>2012-12-18T19:21:35.000Z</time>
      </trkpt>
      <trkpt lat="48.88466" lon="2.33783">
        <ele>151</ele>
        <time>2012-12-18T19:21:36.000Z</time>
      </trkpt>
      <trkpt lat="48.88462" lon="2.33785">
        <ele>150</ele>
        <time>2012-12-18T19:21:38.000Z</time>
      </trkpt>
      <trkpt lat="48.88462" lon="2.33786">
        <ele>149</ele>
        <time>2012-12-18T19:21:39.000Z</time>
      </trkpt>
      <trkpt lat="48.8846" lon="2.33792">
        <ele>146</ele>
        <time>2012-12-18T19:21:44.000Z</time>
      </trkpt>
      <trkpt lat="48.88458" lon="2.33794">
        <ele>146</ele>
        <time>2012-12-18T19:21:45.000Z</time>
      </trkpt>
      <trkpt lat="48.88456" lon="2.33792">
        <ele>145</ele>
        <time>2012-12-18T19:21:47.000Z</time>
      </trkpt>
      <trkpt lat="48.88453" lon="2.33792">
        <ele>145</ele>
        <time>2012-12-18T19:21:48.000Z</time>
      </trkpt>
      <trkpt lat="48.8845" lon="2.3379">
        <ele>144</ele>
        <time>2012-12-18T19:21:50.000Z</time>
      </trkpt>
      <trkpt lat="48.88448" lon="2.33792">
        <ele>144</ele>
        <time>2012-12-18T19:21:51.000Z</time>
      </trkpt>
      <trkpt lat="48.88444" lon="2.33793">
        <ele>144</ele>
        <time>2012-12-18T19:21:53.000Z</time>
      </trkpt>
      <trkpt lat="48.88443" lon="2.33795">
        <ele>143</ele>
        <time>2012-12-18T19:21:54.000Z</time>
      </trkpt>
      <trkpt lat="48.88441" lon="2.33799">
        <ele>144</ele>
        <time>2012-12-18T19:21:55.000Z</time>
      </trkpt>
      <trkpt lat="48.8844" lon="2.33807">
        <ele>147</ele>
        <time>2012-12-18T19:21:56.000Z</time>
      </trkpt>
      <trkpt lat="48.88441" lon="2.33814">
        <ele>149</ele>
        <time>2012-12-18T19:21:57.000Z</time>
      </trkpt>
      <trkpt lat="48.8844" lon="2.33815">
        <ele>149</ele>
        <time>2012-12-18T19:21:58.000Z</time>
      </trkpt>
      <trkpt lat="48.88439" lon="2.3382">
        <ele>149</ele>
        <time>2012-12-18T19:22:00.000Z</time>
      </trkpt>
      <trkpt lat="48.88438" lon="2.33823">
        <ele>149</ele>
        <time>2012-12-18T19:22:01.000Z</time>
      </trkpt>
      <trkpt lat="48.88434" lon="2.33826">
        <ele>148</ele>
        <time>2012-12-18T19:22:04.000Z</time>
      </trkpt>
      <trkpt lat="48.88432" lon="2.33829">
        <ele>148</ele>
        <time>2012-12-18T19:22:05.000Z</time>
      </trkpt>
      <trkpt lat="48.88431" lon="2.33832">
        <ele>148</ele>
        <time>2012-12-18T19:22:08.000Z</time>
      </trkpt>
      <trkpt lat="48.88429" lon="2.33836">
        <ele>148</ele>
        <time>2012-12-18T19:22:09.000Z</time>
      </trkpt>
      <trkpt lat="48.88428" lon="2.33837">
        <ele>148</ele>
        <time>2012-12-18T19:22:10.000Z</time>
      </trkpt>
      <trkpt lat="48.88419" lon="2.33847">
        <ele>146</ele>
        <time>2012-12-18T19:22:11.000Z</time>
      </trkpt>
      <trkpt lat="48.88416" lon="2.33853">
        <ele>145</ele>
        <time>2012-12-18T19:22:12.000Z</time>
      </trkpt>
      <trkpt lat="48.88412" lon="2.33859">
        <ele>144</ele>
        <time>2012-12-18T19:22:13.000Z</time>
      </trkpt>
      <trkpt lat="48.88409" lon="2.33862">
        <ele>143</ele>
        <time>2012-12-18T19:22:15.000Z</time>
      </trkpt>
      <trkpt lat="48.88407" lon="2.33862">
        <ele>143</ele>
        <time>2012-12-18T19:22:16.000Z</time>
      </trkpt>
      <trkpt lat="48.88403" lon="2.33865">
        <ele>143</ele>
        <time>2012-12-18T19:22:19.000Z</time>
      </trkpt>
      <trkpt lat="48.88403" lon="2.33869">
        <ele>143</ele>
        <time>2012-12-18T19:22:20.000Z</time>
      </trkpt>
      <trkpt lat="48.88399" lon="2.33874">
        <ele>143</ele>
        <time>2012-12-18T19:22:21.000Z</time>
      </trkpt>
      <trkpt lat="48.88399" lon="2.33882">
        <ele>144</ele>
        <time>2012-12-18T19:22:22.000Z</time>
      </trkpt>
      <trkpt lat="48.88396" lon="2.33887">
        <ele>145</ele>
        <time>2012-12-18T19:22:23.000Z</time>
      </trkpt>
      <trkpt lat="48.88395" lon="2.33889">
        <ele>145</ele>
        <time>2012-12-18T19:22:24.000Z</time>
      </trkpt>
      <trkpt lat="48.88394" lon="2.33894">
        <ele>146</ele>
        <time>2012-12-18T19:22:25.000Z</time>
      </trkpt>
      <trkpt lat="48.88391" lon="2.33897">
        <ele>146</ele>
        <time>2012-12-18T19:22:26.000Z</time>
      </trkpt>
      <trkpt lat="48.8839" lon="2.33901">
        <ele>147</ele>
        <time>2012-12-18T19:22:28.000Z</time>
      </trkpt>
      <trkpt lat="48.88387" lon="2.33906">
        <ele>147</ele>
        <time>2012-12-18T19:22:29.000Z</time>
      </trkpt>
      <trkpt lat="48.88384" lon="2.33908">
        <ele>148</ele>
        <time>2012-12-18T19:22:30.000Z</time>
      </trkpt>
      <trkpt lat="48.88382" lon="2.33911">
        <ele>148</ele>
        <time>2012-12-18T19:22:31.000Z</time>
      </trkpt>
      <trkpt lat="48.88381" lon="2.33916">
        <ele>148</ele>
        <time>2012-12-18T19:22:33.000Z</time>
      </trkpt>
      <trkpt lat="48.88381" lon="2.33921">
        <ele>148</ele>
        <time>2012-12-18T19:22:34.000Z</time>
      </trkpt>
      <trkpt lat="48.88382" lon="2.33925">
        <ele>148</ele>
        <time>2012-12-18T19:22:35.000Z</time>
      </trkpt>
      <trkpt lat="48.88385" lon="2.33934">
        <ele>147</ele>
        <time>2012-12-18T19:22:36.000Z</time>
      </trkpt>
      <trkpt lat="48.88381" lon="2.33938">
        <ele>147</ele>
        <time>2012-12-18T19:22:37.000Z</time>
      </trkpt>
      <trkpt lat="48.88381" lon="2.33941">
        <ele>146</ele>
        <time>2012-12-18T19:22:38.000Z</time>
      </trkpt>
      <trkpt lat="48.88379" lon="2.33946">
        <ele>146</ele>
        <time>2012-12-18T19:22:39.000Z</time>
      </trkpt>
      <trkpt lat="48.88376" lon="2.33951">
        <ele>148</ele>
        <time>2012-12-18T19:22:41.000Z</time>
      </trkpt>
      <trkpt lat="48.88375" lon="2.33955">
        <ele>148</ele>
        <time>2012-12-18T19:22:42.000Z</time>
      </trkpt>
      <trkpt lat="48.88373" lon="2.33958">
        <ele>149</ele>
        <time>2012-12-18T19:22:43.000Z</time>
      </trkpt>
      <trkpt lat="48.88372" lon="2.33962">
        <ele>149</ele>
        <time>2012-12-18T19:22:44.000Z</time>
      </trkpt>
      <trkpt lat="48.88369" lon="2.33965">
        <ele>149</ele>
        <time>2012-12-18T19:22:46.000Z</time>
      </trkpt>
      <trkpt lat="48.88365" lon="2.33968">
        <ele>150</ele>
        <time>2012-12-18T19:22:47.000Z</time>
      </trkpt>
      <trkpt lat="48.88367" lon="2.33969">
        <ele>151</ele>
        <time>2012-12-18T19:24:00.000Z</time>
      </trkpt>
      <trkpt lat="48.88358" lon="2.33967">
        <ele>152</ele>
        <time>2012-12-18T19:24:01.000Z</time>
      </trkpt>
      <trkpt lat="48.88356" lon="2.33967">
        <ele>151</ele>
        <time>2012-12-18T19:24:02.000Z</time>
      </trkpt>
      <trkpt lat="48.88351" lon="2.33967">
        <ele>151</ele>
        <time>2012-12-18T19:24:03.000Z</time>
      </trkpt>
      <trkpt lat="48.88349" lon="2.33966">
        <ele>151</ele>
        <time>2012-12-18T19:24:04.000Z</time>
      </trkpt>
      <trkpt lat="48.88346" lon="2.33965">
        <ele>151</ele>
        <time>2012-12-18T19:24:05.000Z</time>
      </trkpt>
      <trkpt lat="48.88343" lon="2.33963">
        <ele>150</ele>
        <time>2012-12-18T19:24:06.000Z</time>
      </trkpt>
      <trkpt lat="48.8834" lon="2.33962">
        <ele>150</ele>
        <time>2012-12-18T19:24:07.000Z</time>
      </trkpt>
      <trkpt lat="48.88337" lon="2.33963">
        <ele>149</ele>
        <time>2012-12-18T19:24:08.000Z</time>
      </trkpt>
      <trkpt lat="48.88333" lon="2.33963">
        <ele>149</ele>
        <time>2012-12-18T19:24:09.000Z</time>
      </trkpt>
      <trkpt lat="48.8833" lon="2.33962">
        <ele>149</ele>
        <time>2012-12-18T19:24:10.000Z</time>
      </trkpt>
      <trkpt lat="48.88327" lon="2.33963">
        <ele>148</ele>
        <time>2012-12-18T19:24:11.000Z</time>
      </trkpt>
      <trkpt lat="48.88324" lon="2.33966">
        <ele>149</ele>
        <time>2012-12-18T19:24:12.000Z</time>
      </trkpt>
      <trkpt lat="48.88323" lon="2.33966">
        <ele>149</ele>
        <time>2012-12-18T19:24:13.000Z</time>
      </trkpt>
      <trkpt lat="48.88319" lon="2.33967">
        <ele>149</ele>
        <time>2012-12-18T19:24:14.000Z</time>
      </trkpt>
      <trkpt lat="48.88317" lon="2.33968">
        <ele>149</ele>
        <time>2012-12-18T19:24:15.000Z</time>
      </trkpt>
      <trkpt lat="48.88315" lon="2.33968">
        <ele>149</ele>
        <time>2012-12-18T19:24:16.000Z</time>
      </trkpt>
      <trkpt lat="48.88313" lon="2.33965">
        <ele>149</ele>
        <time>2012-12-18T19:24:17.000Z</time>
      </trkpt>
      <trkpt lat="48.88308" lon="2.33966">
        <ele>149</ele>
        <time>2012-12-18T19:24:18.000Z</time>
      </trkpt>
      <trkpt lat="48.88306" lon="2.33966">
        <ele>149</ele>
        <time>2012-12-18T19:24:19.000Z</time>
      </trkpt>
      <trkpt lat="48.88302" lon="2.33966">
        <ele>149</ele>
        <time>2012-12-18T19:24:20.000Z</time>
      </trkpt>
      <trkpt lat="48.88298" lon="2.33966">
        <ele>149</ele>
        <time>2012-12-18T19:24:21.000Z</time>
      </trkpt>
      <trkpt lat="48.88294" lon="2.33967">
        <ele>149</ele>
        <time>2012-12-18T19:24:23.000Z</time>
      </trkpt>
      <trkpt lat="48.88293" lon="2.33969">
        <ele>150</ele>
        <time>2012-12-18T19:24:24.000Z</time>
      </trkpt>
      <trkpt lat="48.8829" lon="2.33971">
        <ele>150</ele>
        <time>2012-12-18T19:24:25.000Z</time>
      </trkpt>
      <trkpt lat="48.88288" lon="2.3397">
        <ele>149</ele>
        <time>2012-12-18T19:24:26.000Z</time>
      </trkpt>
      <trkpt lat="48.88285" lon="2.33971">
        <ele>149</ele>
        <time>2012-12-18T19:24:28.000Z</time>
      </trkpt>
      <trkpt lat="48.8828" lon="2.3397">
        <ele>149</ele>
        <time>2012-12-18T19:24:29.000Z</time>
      </trkpt>
      <trkpt lat="48.88276" lon="2.33969">
        <ele>149</ele>
        <time>2012-12-18T19:24:30.000Z</time>
      </trkpt>
      <trkpt lat="48.88272" lon="2.33968">
        <ele>149</ele>
        <time>2012-12-18T19:24:31.000Z</time>
      </trkpt>
      <trkpt lat="48.88269" lon="2.33967">
        <ele>149</ele>
        <time>2012-12-18T19:24:32.000Z</time>
      </trkpt>
      <trkpt lat="48.88266" lon="2.33965">
        <ele>149</ele>
        <time>2012-12-18T19:24:33.000Z</time>
      </trkpt>
      <trkpt lat="48.88264" lon="2.33963">
        <ele>149</ele>
        <time>2012-12-18T19:24:34.000Z</time>
      </trkpt>
      <trkpt lat="48.8826" lon="2.33964">
        <ele>149</ele>
        <time>2012-12-18T19:24:35.000Z</time>
      </trkpt>
      <trkpt lat="48.88258" lon="2.33965">
        <ele>149</ele>
        <time>2012-12-18T19:24:36.000Z</time>
      </trkpt>
      <trkpt lat="48.88255" lon="2.33963">
        <ele>148</ele>
        <time>2012-12-18T19:24:37.000Z</time>
      </trkpt>
      <trkpt lat="48.88251" lon="2.33963">
        <ele>148</ele>
        <time>2012-12-18T19:24:39.000Z</time>
      </trkpt>
      <trkpt lat="48.88251" lon="2.33966">
        <ele>148</ele>
        <time>2012-12-18T19:24:40.000Z</time>
      </trkpt>
      <trkpt lat="48.88249" lon="2.33966">
        <ele>148</ele>
        <time>2012-12-18T19:24:41.000Z</time>
      </trkpt>
      <trkpt lat="48.88246" lon="2.33965">
        <ele>147</ele>
        <time>2012-12-18T19:24:42.000Z</time>
      </trkpt>
      <trkpt lat="48.88244" lon="2.33965">
        <ele>147</ele>
        <time>2012-12-18T19:24:43.000Z</time>
      </trkpt>
      <trkpt lat="48.8824" lon="2.33966">
        <ele>147</ele>
        <time>2012-12-18T19:24:44.000Z</time>
      </trkpt>
      <trkpt lat="48.88236" lon="2.33967">
        <ele>147</ele>
        <time>2012-12-18T19:24:46.000Z</time>
      </trkpt>
      <trkpt lat="48.88234" lon="2.3397">
        <ele>147</ele>
        <time>2012-12-18T19:24:47.000Z</time>
      </trkpt>
      <trkpt lat="48.88231" lon="2.33973">
        <ele>143</ele>
        <time>2012-12-18T19:24:50.000Z</time>
      </trkpt>
      <trkpt lat="48.88228" lon="2.33973">
        <ele>142</ele>
        <time>2012-12-18T19:24:51.000Z</time>
      </trkpt>
      <trkpt lat="48.88225" lon="2.33973">
        <ele>142</ele>
        <time>2012-12-18T19:24:53.000Z</time>
      </trkpt>
      <trkpt lat="48.88222" lon="2.33973">
        <ele>141</ele>
        <time>2012-12-18T19:24:54.000Z</time>
      </trkpt>
      <trkpt lat="48.88222" lon="2.33974">
        <ele>141</ele>
        <time>2012-12-18T19:24:55.000Z</time>
      </trkpt>
      <trkpt lat="48.88219" lon="2.33969">
        <ele>140</ele>
        <time>2012-12-18T19:24:56.000Z</time>
      </trkpt>
      <trkpt lat="48.88218" lon="2.33967">
        <ele>140</ele>
        <time>2012-12-18T19:24:57.000Z</time>
      </trkpt>
      <trkpt lat="48.88214" lon="2.33951">
        <ele>136</ele>
        <time>2012-12-18T19:24:58.000Z</time>
      </trkpt>
      <trkpt lat="48.88213" lon="2.3395">
        <ele>135</ele>
        <time>2012-12-18T19:24:59.000Z</time>
      </trkpt>
      <trkpt lat="48.88212" lon="2.33945">
        <ele>132</ele>
        <time>2012-12-18T19:25:00.000Z</time>
      </trkpt>
      <trkpt lat="48.88215" lon="2.33943">
        <ele>124</ele>
        <time>2012-12-18T19:25:05.000Z</time>
      </trkpt>
      <trkpt lat="48.88219" lon="2.33946">
        <ele>123</ele>
        <time>2012-12-18T19:25:06.000Z</time>
      </trkpt>
      <trkpt lat="48.88214" lon="2.33945">
        <ele>122</ele>
        <time>2012-12-18T19:27:13.000Z</time>
      </trkpt>
      <trkpt lat="48.88214" lon="2.33944">
        <ele>122</ele>
        <time>2012-12-18T19:27:14.000Z</time>
      </trkpt>
      <trkpt lat="48.88212" lon="2.33947">
        <ele>119</ele>
        <time>2012-12-18T19:28:34.000Z</time>
      </trkpt>
      <trkpt lat="48.88208" lon="2.33949">
        <ele>120</ele>
        <time>2012-12-18T19:28:35.000Z</time>
      </trkpt>
      <trkpt lat="48.88205" lon="2.33949">
        <ele>120</ele>
        <time>2012-12-18T19:28:36.000Z</time>
      </trkpt>
      <trkpt lat="48.88204" lon="2.33952">
        <ele>120</ele>
        <time>2012-12-18T19:28:37.000Z</time>
      </trkpt>
      <trkpt lat="48.882" lon="2.33955">
        <ele>121</ele>
        <time>2012-12-18T19:28:38.000Z</time>
      </trkpt>
      <trkpt lat="48.88197" lon="2.33958">
        <ele>122</ele>
        <time>2012-12-18T19:28:39.000Z</time>
      </trkpt>
      <trkpt lat="48.88196" lon="2.33964">
        <ele>122</ele>
        <time>2012-12-18T19:28:40.000Z</time>
      </trkpt>
      <trkpt lat="48.88195" lon="2.33966">
        <ele>121</ele>
        <time>2012-12-18T19:28:41.000Z</time>
      </trkpt>
      <trkpt lat="48.88193" lon="2.33969">
        <ele>121</ele>
        <time>2012-12-18T19:28:42.000Z</time>
      </trkpt>
      <trkpt lat="48.88192" lon="2.33973">
        <ele>121</ele>
        <time>2012-12-18T19:28:43.000Z</time>
      </trkpt>
      <trkpt lat="48.8819" lon="2.33974">
        <ele>120</ele>
        <time>2012-12-18T19:28:44.000Z</time>
      </trkpt>
      <trkpt lat="48.88188" lon="2.33976">
        <ele>120</ele>
        <time>2012-12-18T19:28:45.000Z</time>
      </trkpt>
      <trkpt lat="48.88184" lon="2.33979">
        <ele>120</ele>
        <time>2012-12-18T19:28:46.000Z</time>
      </trkpt>
      <trkpt lat="48.88183" lon="2.3398">
        <ele>120</ele>
        <time>2012-12-18T19:28:47.000Z</time>
      </trkpt>
      <trkpt lat="48.8818" lon="2.33981">
        <ele>120</ele>
        <time>2012-12-18T19:28:48.000Z</time>
      </trkpt>
      <trkpt lat="48.88179" lon="2.33984">
        <ele>120</ele>
        <time>2012-12-18T19:28:49.000Z</time>
      </trkpt>
      <trkpt lat="48.88175" lon="2.33987">
        <ele>120</ele>
        <time>2012-12-18T19:28:51.000Z</time>
      </trkpt>
      <trkpt lat="48.88174" lon="2.33989">
        <ele>121</ele>
        <time>2012-12-18T19:28:52.000Z</time>
      </trkpt>
      <trkpt lat="48.88171" lon="2.33993">
        <ele>121</ele>
        <time>2012-12-18T19:28:53.000Z</time>
      </trkpt>
      <trkpt lat="48.88169" lon="2.33993">
        <ele>120</ele>
        <time>2012-12-18T19:28:54.000Z</time>
      </trkpt>
      <trkpt lat="48.88167" lon="2.33994">
        <ele>120</ele>
        <time>2012-12-18T19:28:55.000Z</time>
      </trkpt>
      <trkpt lat="48.88164" lon="2.33999">
        <ele>121</ele>
        <time>2012-12-18T19:28:56.000Z</time>
      </trkpt>
      <trkpt lat="48.88162" lon="2.34003">
        <ele>121</ele>
        <time>2012-12-18T19:28:58.000Z</time>
      </trkpt>
      <trkpt lat="48.88156" lon="2.34006">
        <ele>121</ele>
        <time>2012-12-18T19:28:59.000Z</time>
      </trkpt>
      <trkpt lat="48.88153" lon="2.34008">
        <ele>122</ele>
        <time>2012-12-18T19:29:00.000Z</time>
      </trkpt>
      <trkpt lat="48.88151" lon="2.34012">
        <ele>122</ele>
        <time>2012-12-18T19:29:01.000Z</time>
      </trkpt>
      <trkpt lat="48.88148" lon="2.34013">
        <ele>122</ele>
        <time>2012-12-18T19:29:02.000Z</time>
      </trkpt>
      <trkpt lat="48.88142" lon="2.34013">
        <ele>122</ele>
        <time>2012-12-18T19:29:03.000Z</time>
      </trkpt>
      <trkpt lat="48.88138" lon="2.34015">
        <ele>122</ele>
        <time>2012-12-18T19:29:04.000Z</time>
      </trkpt>
      <trkpt lat="48.88131" lon="2.34015">
        <ele>122</ele>
        <time>2012-12-18T19:29:05.000Z</time>
      </trkpt>
      <trkpt lat="48.88123" lon="2.34011">
        <ele>121</ele>
        <time>2012-12-18T19:29:06.000Z</time>
      </trkpt>
      <trkpt lat="48.88115" lon="2.34008">
        <ele>121</ele>
        <time>2012-12-18T19:29:07.000Z</time>
      </trkpt>
      <trkpt lat="48.88113" lon="2.34009">
        <ele>121</ele>
        <time>2012-12-18T19:29:08.000Z</time>
      </trkpt>
      <trkpt lat="48.8811" lon="2.34011">
        <ele>121</ele>
        <time>2012-12-18T19:29:09.000Z</time>
      </trkpt>
      <trkpt lat="48.88107" lon="2.34012">
        <ele>121</ele>
        <time>2012-12-18T19:29:10.000Z</time>
      </trkpt>
      <trkpt lat="48.88103" lon="2.34013">
        <ele>121</ele>
        <time>2012-12-18T19:29:11.000Z</time>
      </trkpt>
      <trkpt lat="48.88099" lon="2.34013">
        <ele>121</ele>
        <time>2012-12-18T19:29:12.000Z</time>
      </trkpt>
      <trkpt lat="48.88096" lon="2.34017">
        <ele>120</ele>
        <time>2012-12-18T19:29:13.000Z</time>
      </trkpt>
      <trkpt lat="48.88094" lon="2.34019">
        <ele>120</ele>
        <time>2012-12-18T19:29:14.000Z</time>
      </trkpt>
      <trkpt lat="48.88092" lon="2.3403">
        <ele>120</ele>
        <time>2012-12-18T19:29:15.000Z</time>
      </trkpt>
      <trkpt lat="48.88081" lon="2.34029">
        <ele>119</ele>
        <time>2012-12-18T19:29:16.000Z</time>
      </trkpt>
      <trkpt lat="48.8808" lon="2.34033">
        <ele>119</ele>
        <time>2012-12-18T19:29:17.000Z</time>
      </trkpt>
      <trkpt lat="48.88076" lon="2.34035">
        <ele>117</ele>
        <time>2012-12-18T19:29:18.000Z</time>
      </trkpt>
      <trkpt lat="48.88073" lon="2.34038">
        <ele>117</ele>
        <time>2012-12-18T19:29:19.000Z</time>
      </trkpt>
      <trkpt lat="48.88075" lon="2.34043">
        <ele>117</ele>
        <time>2012-12-18T19:29:20.000Z</time>
      </trkpt>
      <trkpt lat="48.88073" lon="2.3404">
        <ele>116</ele>
        <time>2012-12-18T19:29:21.000Z</time>
      </trkpt>
      <trkpt lat="48.8807" lon="2.34041">
        <ele>116</ele>
        <time>2012-12-18T19:29:22.000Z</time>
      </trkpt>
      <trkpt lat="48.88066" lon="2.3404">
        <ele>116</ele>
        <time>2012-12-18T19:29:24.000Z</time>
      </trkpt>
      <trkpt lat="48.88064" lon="2.34043">
        <ele>117</ele>
        <time>2012-12-18T19:29:25.000Z</time>
      </trkpt>
      <trkpt lat="48.8806" lon="2.34043">
        <ele>116</ele>
        <time>2012-12-18T19:29:28.000Z</time>
      </trkpt>
      <trkpt lat="48.8806" lon="2.34046">
        <ele>117</ele>
        <time>2012-12-18T19:29:29.000Z</time>
      </trkpt>
      <trkpt lat="48.88058" lon="2.34046">
        <ele>117</ele>
        <time>2012-12-18T19:29:31.000Z</time>
      </trkpt>
      <trkpt lat="48.88055" lon="2.34046">
        <ele>117</ele>
        <time>2012-12-18T19:29:32.000Z</time>
      </trkpt>
      <trkpt lat="48.88053" lon="2.3404">
        <ele>122</ele>
        <time>2012-12-18T19:29:43.000Z</time>
      </trkpt>
      <trkpt lat="48.88052" lon="2.3404">
        <ele>122</ele>
        <time>2012-12-18T19:29:44.000Z</time>
      </trkpt>
      <trkpt lat="48.88049" lon="2.34039">
        <ele>124</ele>
        <time>2012-12-18T19:29:57.000Z</time>
      </trkpt>
      <trkpt lat="48.88046" lon="2.34044">
        <ele>123</ele>
        <time>2012-12-18T19:29:58.000Z</time>
      </trkpt>
      <trkpt lat="48.88044" lon="2.3404">
        <ele>122</ele>
        <time>2012-12-18T19:30:08.000Z</time>
      </trkpt>
      <trkpt lat="48.88042" lon="2.34042">
        <ele>122</ele>
        <time>2012-12-18T19:30:09.000Z</time>
      </trkpt>
      <trkpt lat="48.88038" lon="2.34041">
        <ele>122</ele>
        <time>2012-12-18T19:30:11.000Z</time>
      </trkpt>
      <trkpt lat="48.88037" lon="2.34042">
        <ele>122</ele>
        <time>2012-12-18T19:30:12.000Z</time>
      </trkpt>
      <trkpt lat="48.88032" lon="2.34042">
        <ele>122</ele>
        <time>2012-12-18T19:30:14.000Z</time>
      </trkpt>
      <trkpt lat="48.88029" lon="2.34042">
        <ele>122</ele>
        <time>2012-12-18T19:30:15.000Z</time>
      </trkpt>
      <trkpt lat="48.88025" lon="2.3404">
        <ele>122</ele>
        <time>2012-12-18T19:30:17.000Z</time>
      </trkpt>
      <trkpt lat="48.88022" lon="2.34038">
        <ele>122</ele>
        <time>2012-12-18T19:30:18.000Z</time>
      </trkpt>
      <trkpt lat="48.88019" lon="2.34037">
        <ele>122</ele>
        <time>2012-12-18T19:30:20.000Z</time>
      </trkpt>
      <trkpt lat="48.88016" lon="2.34039">
        <ele>122</ele>
        <time>2012-12-18T19:30:21.000Z</time>
      </trkpt>
      <trkpt lat="48.88015" lon="2.3404">
        <ele>122</ele>
        <time>2012-12-18T19:30:22.000Z</time>
      </trkpt>
      <trkpt lat="48.88012" lon="2.34042">
        <ele>122</ele>
        <time>2012-12-18T19:30:23.000Z</time>
      </trkpt>
      <trkpt lat="48.88008" lon="2.34042">
        <ele>121</ele>
        <time>2012-12-18T19:30:26.000Z</time>
      </trkpt>
      <trkpt lat="48.88005" lon="2.34041">
        <ele>122</ele>
        <time>2012-12-18T19:30:27.000Z</time>
      </trkpt>
      <trkpt lat="48.88002" lon="2.34039">
        <ele>121</ele>
        <time>2012-12-18T19:30:29.000Z</time>
      </trkpt>
      <trkpt lat="48.87998" lon="2.34039">
        <ele>121</ele>
        <time>2012-12-18T19:30:30.000Z</time>
      </trkpt>
      <trkpt lat="48.87995" lon="2.34039">
        <ele>121</ele>
        <time>2012-12-18T19:30:31.000Z</time>
      </trkpt>
      <trkpt lat="48.87993" lon="2.34038">
        <ele>121</ele>
        <time>2012-12-18T19:30:32.000Z</time>
      </trkpt>
      <trkpt lat="48.87991" lon="2.34036">
        <ele>121</ele>
        <time>2012-12-18T19:30:33.000Z</time>
      </trkpt>
      <trkpt lat="48.87989" lon="2.34035">
        <ele>121</ele>
        <time>2012-12-18T19:30:34.000Z</time>
      </trkpt>
      <trkpt lat="48.87986" lon="2.34033">
        <ele>121</ele>
        <time>2012-12-18T19:30:35.000Z</time>
      </trkpt>
      <trkpt lat="48.87983" lon="2.34031">
        <ele>121</ele>
        <time>2012-12-18T19:30:36.000Z</time>
      </trkpt>
      <trkpt lat="48.8798" lon="2.34028">
        <ele>119</ele>
        <time>2012-12-18T19:30:38.000Z</time>
      </trkpt>
      <trkpt lat="48.87978" lon="2.34026">
        <ele>119</ele>
        <time>2012-12-18T19:30:39.000Z</time>
      </trkpt>
      <trkpt lat="48.87975" lon="2.34025">
        <ele>119</ele>
        <time>2012-12-18T19:30:42.000Z</time>
      </trkpt>
      <trkpt lat="48.87972" lon="2.34025">
        <ele>119</ele>
        <time>2012-12-18T19:30:43.000Z</time>
      </trkpt>
      <trkpt lat="48.87969" lon="2.34024">
        <ele>119</ele>
        <time>2012-12-18T19:30:45.000Z</time>
      </trkpt>
      <trkpt lat="48.87964" lon="2.34023">
        <ele>119</ele>
        <time>2012-12-18T19:30:46.000Z</time>
      </trkpt>
      <trkpt lat="48.87962" lon="2.34022">
        <ele>118</ele>
        <time>2012-12-18T19:30:47.000Z</time>
      </trkpt>
      <trkpt lat="48.8796" lon="2.34022">
        <ele>117</ele>
        <time>2012-12-18T19:30:48.000Z</time>
      </trkpt>
      <trkpt lat="48.87956" lon="2.34017">
        <ele>117</ele>
        <time>2012-12-18T19:30:52.000Z</time>
      </trkpt>
      <trkpt lat="48.87955" lon="2.34016">
        <ele>117</ele>
        <time>2012-12-18T19:30:53.000Z</time>
      </trkpt>
      <trkpt lat="48.87953" lon="2.34013">
        <ele>116</ele>
        <time>2012-12-18T19:30:55.000Z</time>
      </trkpt>
      <trkpt lat="48.87953" lon="2.34008">
        <ele>115</ele>
        <time>2012-12-18T19:30:56.000Z</time>
      </trkpt>
      <trkpt lat="48.87951" lon="2.34006">
        <ele>115</ele>
        <time>2012-12-18T19:30:57.000Z</time>
      </trkpt>
      <trkpt lat="48.87948" lon="2.34003">
        <ele>114</ele>
        <time>2012-12-18T19:30:58.000Z</time>
      </trkpt>
      <trkpt lat="48.87947" lon="2.34005">
        <ele>114</ele>
        <time>2012-12-18T19:31:01.000Z</time>
      </trkpt>
      <trkpt lat="48.87942" lon="2.34003">
        <ele>115</ele>
        <time>2012-12-18T19:31:02.000Z</time>
      </trkpt>
      <trkpt lat="48.87938" lon="2.34">
        <ele>114</ele>
        <time>2012-12-18T19:31:03.000Z</time>
      </trkpt>
      <trkpt lat="48.87937" lon="2.34">
        <ele>114</ele>
        <time>2012-12-18T19:31:05.000Z</time>
      </trkpt>
      <trkpt lat="48.87933" lon="2.33998">
        <ele>114</ele>
        <time>2012-12-18T19:31:06.000Z</time>
      </trkpt>
      <trkpt lat="48.87932" lon="2.33999">
        <ele>114</ele>
        <time>2012-12-18T19:31:07.000Z</time>
      </trkpt>
      <trkpt lat="48.87927" lon="2.33997">
        <ele>115</ele>
        <time>2012-12-18T19:31:08.000Z</time>
      </trkpt>
      <trkpt lat="48.87924" lon="2.33997">
        <ele>114</ele>
        <time>2012-12-18T19:31:09.000Z</time>
      </trkpt>
      <trkpt lat="48.8792" lon="2.33995">
        <ele>115</ele>
        <time>2012-12-18T19:31:10.000Z</time>
      </trkpt>
      <trkpt lat="48.87918" lon="2.33994">
        <ele>115</ele>
        <time>2012-12-18T19:31:11.000Z</time>
      </trkpt>
      <trkpt lat="48.87914" lon="2.33994">
        <ele>115</ele>
        <time>2012-12-18T19:31:12.000Z</time>
      </trkpt>
      <trkpt lat="48.87913" lon="2.33994">
        <ele>115</ele>
        <time>2012-12-18T19:31:13.000Z</time>
      </trkpt>
      <trkpt lat="48.8791" lon="2.33996">
        <ele>115</ele>
        <time>2012-12-18T19:31:14.000Z</time>
      </trkpt>
      <trkpt lat="48.87908" lon="2.33995">
        <ele>115</ele>
        <time>2012-12-18T19:31:15.000Z</time>
      </trkpt>
      <trkpt lat="48.87905" lon="2.33993">
        <ele>114</ele>
        <time>2012-12-18T19:31:16.000Z</time>
      </trkpt>
      <trkpt lat="48.87904" lon="2.3399">
        <ele>114</ele>
        <time>2012-12-18T19:31:17.000Z</time>
      </trkpt>
      <trkpt lat="48.87903" lon="2.33986">
        <ele>113</ele>
        <time>2012-12-18T19:31:18.000Z</time>
      </trkpt>
      <trkpt lat="48.87902" lon="2.33979">
        <ele>109</ele>
        <time>2012-12-18T19:31:21.000Z</time>
      </trkpt>
      <trkpt lat="48.87901" lon="2.33977">
        <ele>108</ele>
        <time>2012-12-18T19:31:22.000Z</time>
      </trkpt>
      <trkpt lat="48.87902" lon="2.33976">
        <ele>104</ele>
        <time>2012-12-18T19:32:17.000Z</time>
      </trkpt>
      <trkpt lat="48.87891" lon="2.33976">
        <ele>103</ele>
        <time>2012-12-18T19:32:18.000Z</time>
      </trkpt>
      <trkpt lat="48.87889" lon="2.33977">
        <ele>103</ele>
        <time>2012-12-18T19:32:19.000Z</time>
      </trkpt>
      <trkpt lat="48.87884" lon="2.33974">
        <ele>103</ele>
        <time>2012-12-18T19:32:20.000Z</time>
      </trkpt>
      <trkpt lat="48.87882" lon="2.33973">
        <ele>103</ele>
        <time>2012-12-18T19:32:21.000Z</time>
      </trkpt>
      <trkpt lat="48.87879" lon="2.33971">
        <ele>103</ele>
        <time>2012-12-18T19:32:22.000Z</time>
      </trkpt>
      <trkpt lat="48.87875" lon="2.3397">
        <ele>103</ele>
        <time>2012-12-18T19:32:23.000Z</time>
      </trkpt>
      <trkpt lat="48.87865" lon="2.33966">
        <ele>102</ele>
        <time>2012-12-18T19:32:24.000Z</time>
      </trkpt>
      <trkpt lat="48.87863" lon="2.33965">
        <ele>102</ele>
        <time>2012-12-18T19:32:25.000Z</time>
      </trkpt>
      <trkpt lat="48.87859" lon="2.33964">
        <ele>102</ele>
        <time>2012-12-18T19:32:26.000Z</time>
      </trkpt>
      <trkpt lat="48.87851" lon="2.33956">
        <ele>104</ele>
        <time>2012-12-18T19:32:27.000Z</time>
      </trkpt>
      <trkpt lat="48.87847" lon="2.33954">
        <ele>104</ele>
        <time>2012-12-18T19:32:28.000Z</time>
      </trkpt>
      <trkpt lat="48.87845" lon="2.33957">
        <ele>104</ele>
        <time>2012-12-18T19:32:29.000Z</time>
      </trkpt>
      <trkpt lat="48.87843" lon="2.33959">
        <ele>104</ele>
        <time>2012-12-18T19:32:31.000Z</time>
      </trkpt>
      <trkpt lat="48.8784" lon="2.33961">
        <ele>104</ele>
        <time>2012-12-18T19:32:32.000Z</time>
      </trkpt>
      <trkpt lat="48.87836" lon="2.33963">
        <ele>103</ele>
        <time>2012-12-18T19:32:34.000Z</time>
      </trkpt>
      <trkpt lat="48.87835" lon="2.33961">
        <ele>104</ele>
        <time>2012-12-18T19:32:35.000Z</time>
      </trkpt>
      <trkpt lat="48.87831" lon="2.33963">
        <ele>104</ele>
        <time>2012-12-18T19:32:37.000Z</time>
      </trkpt>
      <trkpt lat="48.87828" lon="2.33964">
        <ele>103</ele>
        <time>2012-12-18T19:32:38.000Z</time>
      </trkpt>
      <trkpt lat="48.87826" lon="2.33964">
        <ele>103</ele>
        <time>2012-12-18T19:32:39.000Z</time>
      </trkpt>
      <trkpt lat="48.87823" lon="2.33964">
        <ele>103</ele>
        <time>2012-12-18T19:32:40.000Z</time>
      </trkpt>
      <trkpt lat="48.87818" lon="2.33966">
        <ele>103</ele>
        <time>2012-12-18T19:32:41.000Z</time>
      </trkpt>
      <trkpt lat="48.8781" lon="2.33967">
        <ele>102</ele>
        <time>2012-12-18T19:32:42.000Z</time>
      </trkpt>
      <trkpt lat="48.87807" lon="2.3397">
        <ele>102</ele>
        <time>2012-12-18T19:32:43.000Z</time>
      </trkpt>
      <trkpt lat="48.87801" lon="2.33972">
        <ele>102</ele>
        <time>2012-12-18T19:32:44.000Z</time>
      </trkpt>
      <trkpt lat="48.87797" lon="2.33971">
        <ele>102</ele>
        <time>2012-12-18T19:32:46.000Z</time>
      </trkpt>
      <trkpt lat="48.87795" lon="2.33971">
        <ele>102</ele>
        <time>2012-12-18T19:32:47.000Z</time>
      </trkpt>
      <trkpt lat="48.87792" lon="2.33971">
        <ele>102</ele>
        <time>2012-12-18T19:32:49.000Z</time>
      </trkpt>
      <trkpt lat="48.87788" lon="2.3397">
        <ele>101</ele>
        <time>2012-12-18T19:32:50.000Z</time>
      </trkpt>
      <trkpt lat="48.87785" lon="2.3397">
        <ele>101</ele>
        <time>2012-12-18T19:32:53.000Z</time>
      </trkpt>
      <trkpt lat="48.87783" lon="2.33971">
        <ele>101</ele>
        <time>2012-12-18T19:32:54.000Z</time>
      </trkpt>
      <trkpt lat="48.87779" lon="2.33966">
        <ele>103</ele>
        <time>2012-12-18T19:32:55.000Z</time>
      </trkpt>
      <trkpt lat="48.87777" lon="2.33963">
        <ele>103</ele>
        <time>2012-12-18T19:32:56.000Z</time>
      </trkpt>
      <trkpt lat="48.87773" lon="2.33961">
        <ele>104</ele>
        <time>2012-12-18T19:32:57.000Z</time>
      </trkpt>
      <trkpt lat="48.8777" lon="2.33958">
        <ele>104</ele>
        <time>2012-12-18T19:32:59.000Z</time>
      </trkpt>
      <trkpt lat="48.87769" lon="2.33958">
        <ele>104</ele>
        <time>2012-12-18T19:33:00.000Z</time>
      </trkpt>
      <trkpt lat="48.87765" lon="2.33959">
        <ele>104</ele>
        <time>2012-12-18T19:33:01.000Z</time>
      </trkpt>
      <trkpt lat="48.87762" lon="2.33961">
        <ele>104</ele>
        <time>2012-12-18T19:33:02.000Z</time>
      </trkpt>
      <trkpt lat="48.87755" lon="2.33963">
        <ele>103</ele>
        <time>2012-12-18T19:33:03.000Z</time>
      </trkpt>
      <trkpt lat="48.87751" lon="2.33959">
        <ele>104</ele>
        <time>2012-12-18T19:33:04.000Z</time>
      </trkpt>
      <trkpt lat="48.87747" lon="2.33959">
        <ele>103</ele>
        <time>2012-12-18T19:33:05.000Z</time>
      </trkpt>
      <trkpt lat="48.87743" lon="2.33959">
        <ele>103</ele>
        <time>2012-12-18T19:33:06.000Z</time>
      </trkpt>
      <trkpt lat="48.87741" lon="2.33958">
        <ele>103</ele>
        <time>2012-12-18T19:33:07.000Z</time>
      </trkpt>
      <trkpt lat="48.87739" lon="2.33962">
        <ele>103</ele>
        <time>2012-12-18T19:33:08.000Z</time>
      </trkpt>
      <trkpt lat="48.87737" lon="2.33963">
        <ele>102</ele>
        <time>2012-12-18T19:33:09.000Z</time>
      </trkpt>
      <trkpt lat="48.87734" lon="2.33963">
        <ele>103</ele>
        <time>2012-12-18T19:33:11.000Z</time>
      </trkpt>
      <trkpt lat="48.87732" lon="2.33965">
        <ele>103</ele>
        <time>2012-12-18T19:33:12.000Z</time>
      </trkpt>
      <trkpt lat="48.8773" lon="2.33965">
        <ele>103</ele>
        <time>2012-12-18T19:33:13.000Z</time>
      </trkpt>
      <trkpt lat="48.87727" lon="2.33966">
        <ele>102</ele>
        <time>2012-12-18T19:33:14.000Z</time>
      </trkpt>
      <trkpt lat="48.87722" lon="2.33962">
        <ele>103</ele>
        <time>2012-12-18T19:33:15.000Z</time>
      </trkpt>
      <trkpt lat="48.8772" lon="2.33959">
        <ele>103</ele>
        <time>2012-12-18T19:33:16.000Z</time>
      </trkpt>
      <trkpt lat="48.87717" lon="2.33956">
        <ele>104</ele>
        <time>2012-12-18T19:33:17.000Z</time>
      </trkpt>
      <trkpt lat="48.87713" lon="2.33953">
        <ele>104</ele>
        <time>2012-12-18T19:33:19.000Z</time>
      </trkpt>
      <trkpt lat="48.8771" lon="2.33954">
        <ele>103</ele>
        <time>2012-12-18T19:33:20.000Z</time>
      </trkpt>
      <trkpt lat="48.87708" lon="2.33957">
        <ele>103</ele>
        <time>2012-12-18T19:33:21.000Z</time>
      </trkpt>
      <trkpt lat="48.87705" lon="2.33957">
        <ele>103</ele>
        <time>2012-12-18T19:33:22.000Z</time>
      </trkpt>
      <trkpt lat="48.87701" lon="2.33959">
        <ele>102</ele>
        <time>2012-12-18T19:33:23.000Z</time>
      </trkpt>
      <trkpt lat="48.87699" lon="2.33958">
        <ele>102</ele>
        <time>2012-12-18T19:33:24.000Z</time>
      </trkpt>
      <trkpt lat="48.87696" lon="2.33956">
        <ele>100</ele>
        <time>2012-12-18T19:33:25.000Z</time>
      </trkpt>
      <trkpt lat="48.87692" lon="2.33951">
        <ele>101</ele>
        <time>2012-12-18T19:33:26.000Z</time>
      </trkpt>
      <trkpt lat="48.87689" lon="2.3395">
        <ele>100</ele>
        <time>2012-12-18T19:33:29.000Z</time>
      </trkpt>
      <trkpt lat="48.87689" lon="2.33944">
        <ele>99</ele>
        <time>2012-12-18T19:33:30.000Z</time>
      </trkpt>
      <trkpt lat="48.87689" lon="2.3394">
        <ele>99</ele>
        <time>2012-12-18T19:33:34.000Z</time>
      </trkpt>
      <trkpt lat="48.87689" lon="2.33937">
        <ele>98</ele>
        <time>2012-12-18T19:33:35.000Z</time>
      </trkpt>
      <trkpt lat="48.87689" lon="2.33931">
        <ele>97</ele>
        <time>2012-12-18T19:33:38.000Z</time>
      </trkpt>
      <trkpt lat="48.87689" lon="2.33929">
        <ele>97</ele>
        <time>2012-12-18T19:33:39.000Z</time>
      </trkpt>
      <trkpt lat="48.87686" lon="2.33924">
        <ele>99</ele>
        <time>2012-12-18T19:33:56.000Z</time>
      </trkpt>
      <trkpt lat="48.87686" lon="2.33923">
        <ele>98</ele>
        <time>2012-12-18T19:33:57.000Z</time>
      </trkpt>
      <trkpt lat="48.87682" lon="2.33921">
        <ele>97</ele>
        <time>2012-12-18T19:34:20.000Z</time>
      </trkpt>
      <trkpt lat="48.8768" lon="2.33919">
        <ele>96</ele>
        <time>2012-12-18T19:34:21.000Z</time>
      </trkpt>
      <trkpt lat="48.87676" lon="2.33922">
        <ele>97</ele>
        <time>2012-12-18T19:34:24.000Z</time>
      </trkpt>
      <trkpt lat="48.87675" lon="2.33923">
        <ele>97</ele>
        <time>2012-12-18T19:34:25.000Z</time>
      </trkpt>
      <trkpt lat="48.87672" lon="2.33925">
        <ele>97</ele>
        <time>2012-12-18T19:34:28.000Z</time>
      </trkpt>
      <trkpt lat="48.87677" lon="2.33932">
        <ele>92</ele>
        <time>2012-12-18T19:34:29.000Z</time>
      </trkpt>
      <trkpt lat="48.87674" lon="2.3393">
        <ele>91</ele>
        <time>2012-12-18T19:34:33.000Z</time>
      </trkpt>
      <trkpt lat="48.87671" lon="2.33929">
        <ele>91</ele>
        <time>2012-12-18T19:34:34.000Z</time>
      </trkpt>
      <trkpt lat="48.87669" lon="2.33926">
        <ele>91</ele>
        <time>2012-12-18T19:34:36.000Z</time>
      </trkpt>
      <trkpt lat="48.87666" lon="2.33926">
        <ele>91</ele>
        <time>2012-12-18T19:34:37.000Z</time>
      </trkpt>
      <trkpt lat="48.87662" lon="2.33923">
        <ele>90</ele>
        <time>2012-12-18T19:34:40.000Z</time>
      </trkpt>
      <trkpt lat="48.87661" lon="2.33922">
        <ele>90</ele>
        <time>2012-12-18T19:34:41.000Z</time>
      </trkpt>
      <trkpt lat="48.8766" lon="2.33922">
        <ele>90</ele>
        <time>2012-12-18T19:34:42.000Z</time>
      </trkpt>
      <trkpt lat="48.87656" lon="2.33922">
        <ele>90</ele>
        <time>2012-12-18T19:34:43.000Z</time>
      </trkpt>
      <trkpt lat="48.87652" lon="2.33921">
        <ele>89</ele>
        <time>2012-12-18T19:34:45.000Z</time>
      </trkpt>
      <trkpt lat="48.87646" lon="2.33921">
        <ele>89</ele>
        <time>2012-12-18T19:34:46.000Z</time>
      </trkpt>
      <trkpt lat="48.87644" lon="2.33922">
        <ele>89</ele>
        <time>2012-12-18T19:34:47.000Z</time>
      </trkpt>
      <trkpt lat="48.87632" lon="2.33922">
        <ele>89</ele>
        <time>2012-12-18T19:34:48.000Z</time>
      </trkpt>
      <trkpt lat="48.87629" lon="2.33922">
        <ele>89</ele>
        <time>2012-12-18T19:34:49.000Z</time>
      </trkpt>
      <trkpt lat="48.87625" lon="2.33919">
        <ele>90</ele>
        <time>2012-12-18T19:34:50.000Z</time>
      </trkpt>
      <trkpt lat="48.87621" lon="2.33915">
        <ele>90</ele>
        <time>2012-12-18T19:34:51.000Z</time>
      </trkpt>
      <trkpt lat="48.87618" lon="2.33914">
        <ele>91</ele>
        <time>2012-12-18T19:34:52.000Z</time>
      </trkpt>
      <trkpt lat="48.87615" lon="2.33911">
        <ele>92</ele>
        <time>2012-12-18T19:34:53.000Z</time>
      </trkpt>
      <trkpt lat="48.87613" lon="2.33908">
        <ele>93</ele>
        <time>2012-12-18T19:34:54.000Z</time>
      </trkpt>
      <trkpt lat="48.87611" lon="2.33906">
        <ele>94</ele>
        <time>2012-12-18T19:34:55.000Z</time>
      </trkpt>
      <trkpt lat="48.87609" lon="2.33911">
        <ele>95</ele>
        <time>2012-12-18T19:34:59.000Z</time>
      </trkpt>
      <trkpt lat="48.87611" lon="2.33913">
        <ele>96</ele>
        <time>2012-12-18T19:35:00.000Z</time>
      </trkpt>
      <trkpt lat="48.87608" lon="2.33918">
        <ele>97</ele>
        <time>2012-12-18T19:35:05.000Z</time>
      </trkpt>
      <trkpt lat="48.87605" lon="2.33918">
        <ele>97</ele>
        <time>2012-12-18T19:35:06.000Z</time>
      </trkpt>
      <trkpt lat="48.87605" lon="2.33919">
        <ele>98</ele>
        <time>2012-12-18T19:35:08.000Z</time>
      </trkpt>
      <trkpt lat="48.87601" lon="2.33915">
        <ele>99</ele>
        <time>2012-12-18T19:35:09.000Z</time>
      </trkpt>
      <trkpt lat="48.87605" lon="2.33915">
        <ele>100</ele>
        <time>2012-12-18T19:35:11.000Z</time>
      </trkpt>
      <trkpt lat="48.87605" lon="2.33915">
        <ele>100</ele>
        <time>2012-12-18T19:35:12.000Z</time>
      </trkpt>
      <trkpt lat="48.87606" lon="2.3392">
        <ele>97</ele>
        <time>2012-12-18T19:35:18.000Z</time>
      </trkpt>
      <trkpt lat="48.87603" lon="2.33925">
        <ele>97</ele>
        <time>2012-12-18T19:35:19.000Z</time>
      </trkpt>
      <trkpt lat="48.87603" lon="2.3393">
        <ele>97</ele>
        <time>2012-12-18T19:35:20.000Z</time>
      </trkpt>
      <trkpt lat="48.87601" lon="2.33934">
        <ele>96</ele>
        <time>2012-12-18T19:35:21.000Z</time>
      </trkpt>
      <trkpt lat="48.87599" lon="2.33937">
        <ele>96</ele>
        <time>2012-12-18T19:35:22.000Z</time>
      </trkpt>
      <trkpt lat="48.876" lon="2.33942">
        <ele>95</ele>
        <time>2012-12-18T19:35:23.000Z</time>
      </trkpt>
      <trkpt lat="48.876" lon="2.33947">
        <ele>95</ele>
        <time>2012-12-18T19:35:24.000Z</time>
      </trkpt>
      <trkpt lat="48.87601" lon="2.33951">
        <ele>97</ele>
        <time>2012-12-18T19:35:25.000Z</time>
      </trkpt>
      <trkpt lat="48.87603" lon="2.33954">
        <ele>97</ele>
        <time>2012-12-18T19:35:26.000Z</time>
      </trkpt>
      <trkpt lat="48.87597" lon="2.33958">
        <ele>96</ele>
        <time>2012-12-18T19:35:27.000Z</time>
      </trkpt>
      <trkpt lat="48.87596" lon="2.33962">
        <ele>96</ele>
        <time>2012-12-18T19:35:28.000Z</time>
      </trkpt>
      <trkpt lat="48.87595" lon="2.33964">
        <ele>95</ele>
        <time>2012-12-18T19:35:29.000Z</time>
      </trkpt>
      <trkpt lat="48.87593" lon="2.3397">
        <ele>94</ele>
        <time>2012-12-18T19:35:31.000Z</time>
      </trkpt>
      <trkpt lat="48.87593" lon="2.33973">
        <ele>93</ele>
        <time>2012-12-18T19:35:32.000Z</time>
      </trkpt>
      <trkpt lat="48.87589" lon="2.3397">
        <ele>93</ele>
        <time>2012-12-18T19:35:43.000Z</time>
      </trkpt>
      <trkpt lat="48.87588" lon="2.3397">
        <ele>93</ele>
        <time>2012-12-18T19:35:44.000Z</time>
      </trkpt>
      <trkpt lat="48.87589" lon="2.33972">
        <ele>92</ele>
        <time>2012-12-18T19:36:02.000Z</time>
      </trkpt>
      <trkpt lat="48.87592" lon="2.33976">
        <ele>92</ele>
        <time>2012-12-18T19:36:03.000Z</time>
      </trkpt>
      <trkpt lat="48.87595" lon="2.33977">
        <ele>91</ele>
        <time>2012-12-18T19:36:05.000Z</time>
      </trkpt>
      <trkpt lat="48.87597" lon="2.33981">
        <ele>90</ele>
        <time>2012-12-18T19:36:06.000Z</time>
      </trkpt>
      <trkpt lat="48.87599" lon="2.33985">
        <ele>91</ele>
        <time>2012-12-18T19:36:07.000Z</time>
      </trkpt>
      <trkpt lat="48.87605" lon="2.33987">
        <ele>91</ele>
        <time>2012-12-18T19:36:08.000Z</time>
      </trkpt>
      <trkpt lat="48.87609" lon="2.33989">
        <ele>91</ele>
        <time>2012-12-18T19:36:09.000Z</time>
      </trkpt>
      <trkpt lat="48.8761" lon="2.33993">
        <ele>90</ele>
        <time>2012-12-18T19:36:10.000Z</time>
      </trkpt>
      <trkpt lat="48.87611" lon="2.33996">
        <ele>90</ele>
        <time>2012-12-18T19:36:11.000Z</time>
      </trkpt>
      <trkpt lat="48.87612" lon="2.34001">
        <ele>90</ele>
        <time>2012-12-18T19:36:12.000Z</time>
      </trkpt>
      <trkpt lat="48.8761" lon="2.34007">
        <ele>89</ele>
        <time>2012-12-18T19:36:13.000Z</time>
      </trkpt>
      <trkpt lat="48.87599" lon="2.34018">
        <ele>85</ele>
        <time>2012-12-18T19:36:14.000Z</time>
      </trkpt>
      <trkpt lat="48.87593" lon="2.34024">
        <ele>84</ele>
        <time>2012-12-18T19:36:15.000Z</time>
      </trkpt>
      <trkpt lat="48.87592" lon="2.34029">
        <ele>84</ele>
        <time>2012-12-18T19:36:16.000Z</time>
      </trkpt>
      <trkpt lat="48.87589" lon="2.34033">
        <ele>84</ele>
        <time>2012-12-18T19:36:17.000Z</time>
      </trkpt>
      <trkpt lat="48.87589" lon="2.3404">
        <ele>85</ele>
        <time>2012-12-18T19:36:18.000Z</time>
      </trkpt>
      <trkpt lat="48.87589" lon="2.34045">
        <ele>85</ele>
        <time>2012-12-18T19:36:19.000Z</time>
      </trkpt>
      <trkpt lat="48.87589" lon="2.34051">
        <ele>85</ele>
        <time>2012-12-18T19:36:20.000Z</time>
      </trkpt>
      <trkpt lat="48.87588" lon="2.34057">
        <ele>84</ele>
        <time>2012-12-18T19:36:21.000Z</time>
      </trkpt>
      <trkpt lat="48.87587" lon="2.34063">
        <ele>84</ele>
        <time>2012-12-18T19:36:22.000Z</time>
      </trkpt>
      <trkpt lat="48.87587" lon="2.34069">
        <ele>84</ele>
        <time>2012-12-18T19:36:23.000Z</time>
      </trkpt>
      <trkpt lat="48.87587" lon="2.34076">
        <ele>85</ele>
        <time>2012-12-18T19:36:24.000Z</time>
      </trkpt>
      <trkpt lat="48.87587" lon="2.34083">
        <ele>85</ele>
        <time>2012-12-18T19:36:25.000Z</time>
      </trkpt>
      <trkpt lat="48.87587" lon="2.34089">
        <ele>85</ele>
        <time>2012-12-18T19:36:26.000Z</time>
      </trkpt>
      <trkpt lat="48.87588" lon="2.34097">
        <ele>86</ele>
        <time>2012-12-18T19:36:27.000Z</time>
      </trkpt>
      <trkpt lat="48.87588" lon="2.34103">
        <ele>86</ele>
        <time>2012-12-18T19:36:28.000Z</time>
      </trkpt>
      <trkpt lat="48.87588" lon="2.34109">
        <ele>85</ele>
        <time>2012-12-18T19:36:29.000Z</time>
      </trkpt>
      <trkpt lat="48.87589" lon="2.34117">
        <ele>86</ele>
        <time>2012-12-18T19:36:30.000Z</time>
      </trkpt>
      <trkpt lat="48.87588" lon="2.34124">
        <ele>86</ele>
        <time>2012-12-18T19:36:31.000Z</time>
      </trkpt>
      <trkpt lat="48.87588" lon="2.34131">
        <ele>86</ele>
        <time>2012-12-18T19:36:32.000Z</time>
      </trkpt>
      <trkpt lat="48.87589" lon="2.34137">
        <ele>85</ele>
        <time>2012-12-18T19:36:33.000Z</time>
      </trkpt>
      <trkpt lat="48.87589" lon="2.34143">
        <ele>86</ele>
        <time>2012-12-18T19:36:34.000Z</time>
      </trkpt>
      <trkpt lat="48.87588" lon="2.34149">
        <ele>86</ele>
        <time>2012-12-18T19:36:35.000Z</time>
      </trkpt>
      <trkpt lat="48.87587" lon="2.34156">
        <ele>86</ele>
        <time>2012-12-18T19:36:36.000Z</time>
      </trkpt>
      <trkpt lat="48.87586" lon="2.34162">
        <ele>86</ele>
        <time>2012-12-18T19:36:37.000Z</time>
      </trkpt>
      <trkpt lat="48.87586" lon="2.34168">
        <ele>86</ele>
        <time>2012-12-18T19:36:38.000Z</time>
      </trkpt>
      <trkpt lat="48.87586" lon="2.34175">
        <ele>86</ele>
        <time>2012-12-18T19:36:39.000Z</time>
      </trkpt>
      <trkpt lat="48.87586" lon="2.3418">
        <ele>87</ele>
        <time>2012-12-18T19:36:40.000Z</time>
      </trkpt>
      <trkpt lat="48.87586" lon="2.34185">
        <ele>86</ele>
        <time>2012-12-18T19:36:41.000Z</time>
      </trkpt>
      <trkpt lat="48.87585" lon="2.3419">
        <ele>86</ele>
        <time>2012-12-18T19:36:42.000Z</time>
      </trkpt>
      <trkpt lat="48.87586" lon="2.34198">
        <ele>86</ele>
        <time>2012-12-18T19:36:43.000Z</time>
      </trkpt>
      <trkpt lat="48.87586" lon="2.34205">
        <ele>86</ele>
        <time>2012-12-18T19:36:44.000Z</time>
      </trkpt>
      <trkpt lat="48.87585" lon="2.34212">
        <ele>86</ele>
        <time>2012-12-18T19:36:45.000Z</time>
      </trkpt>
      <trkpt lat="48.87583" lon="2.34219">
        <ele>86</ele>
        <time>2012-12-18T19:36:46.000Z</time>
      </trkpt>
      <trkpt lat="48.87583" lon="2.34224">
        <ele>86</ele>
        <time>2012-12-18T19:36:47.000Z</time>
      </trkpt>
      <trkpt lat="48.8758" lon="2.34231">
        <ele>86</ele>
        <time>2012-12-18T19:36:48.000Z</time>
      </trkpt>
      <trkpt lat="48.87577" lon="2.34236">
        <ele>85</ele>
        <time>2012-12-18T19:36:49.000Z</time>
      </trkpt>
      <trkpt lat="48.87573" lon="2.34241">
        <ele>84</ele>
        <time>2012-12-18T19:36:50.000Z</time>
      </trkpt>
      <trkpt lat="48.87572" lon="2.34246">
        <ele>85</ele>
        <time>2012-12-18T19:36:52.000Z</time>
      </trkpt>
      <trkpt lat="48.8757" lon="2.34249">
        <ele>86</ele>
        <time>2012-12-18T19:36:53.000Z</time>
      </trkpt>
      <trkpt lat="48.87571" lon="2.34254">
        <ele>87</ele>
        <time>2012-12-18T19:36:55.000Z</time>
      </trkpt>
      <trkpt lat="48.87572" lon="2.34257">
        <ele>87</ele>
        <time>2012-12-18T19:36:56.000Z</time>
      </trkpt>
      <trkpt lat="48.87573" lon="2.34263">
        <ele>87</ele>
        <time>2012-12-18T19:36:58.000Z</time>
      </trkpt>
      <trkpt lat="48.87574" lon="2.34264">
        <ele>86</ele>
        <time>2012-12-18T19:36:59.000Z</time>
      </trkpt>
      <trkpt lat="48.87578" lon="2.34268">
        <ele>87</ele>
        <time>2012-12-18T19:37:04.000Z</time>
      </trkpt>
      <trkpt lat="48.87579" lon="2.34269">
        <ele>87</ele>
        <time>2012-12-18T19:37:05.000Z</time>
      </trkpt>
      <trkpt lat="48.8758" lon="2.34275">
        <ele>89</ele>
        <time>2012-12-18T19:37:33.000Z</time>
      </trkpt>
      <trkpt lat="48.87582" lon="2.3428">
        <ele>89</ele>
        <time>2012-12-18T19:37:34.000Z</time>
      </trkpt>
      <trkpt lat="48.87582" lon="2.34285">
        <ele>90</ele>
        <time>2012-12-18T19:37:35.000Z</time>
      </trkpt>
      <trkpt lat="48.87582" lon="2.34289">
        <ele>90</ele>
        <time>2012-12-18T19:37:36.000Z</time>
      </trkpt>
      <trkpt lat="48.87582" lon="2.34294">
        <ele>89</ele>
        <time>2012-12-18T19:37:37.000Z</time>
      </trkpt>
      <trkpt lat="48.87586" lon="2.34299">
        <ele>90</ele>
        <time>2012-12-18T19:37:38.000Z</time>
      </trkpt>
      <trkpt lat="48.87587" lon="2.34305">
        <ele>90</ele>
        <time>2012-12-18T19:37:39.000Z</time>
      </trkpt>
      <trkpt lat="48.87587" lon="2.34309">
        <ele>90</ele>
        <time>2012-12-18T19:37:40.000Z</time>
      </trkpt>
      <trkpt lat="48.87588" lon="2.34314">
        <ele>90</ele>
        <time>2012-12-18T19:37:41.000Z</time>
      </trkpt>
      <trkpt lat="48.87589" lon="2.34319">
        <ele>90</ele>
        <time>2012-12-18T19:37:42.000Z</time>
      </trkpt>
      <trkpt lat="48.87592" lon="2.34323">
        <ele>91</ele>
        <time>2012-12-18T19:37:43.000Z</time>
      </trkpt>
      <trkpt lat="48.87593" lon="2.34326">
        <ele>92</ele>
        <time>2012-12-18T19:37:44.000Z</time>
      </trkpt>
      <trkpt lat="48.87595" lon="2.3433">
        <ele>92</ele>
        <time>2012-12-18T19:37:45.000Z</time>
      </trkpt>
      <trkpt lat="48.87598" lon="2.34334">
        <ele>93</ele>
        <time>2012-12-18T19:37:46.000Z</time>
      </trkpt>
      <trkpt lat="48.87598" lon="2.34338">
        <ele>93</ele>
        <time>2012-12-18T19:37:47.000Z</time>
      </trkpt>
      <trkpt lat="48.876" lon="2.3434">
        <ele>93</ele>
        <time>2012-12-18T19:37:48.000Z</time>
      </trkpt>
      <trkpt lat="48.87602" lon="2.34342">
        <ele>93</ele>
        <time>2012-12-18T19:37:49.000Z</time>
      </trkpt>
      <trkpt lat="48.87603" lon="2.34345">
        <ele>93</ele>
        <time>2012-12-18T19:37:50.000Z</time>
      </trkpt>
      <trkpt lat="48.87605" lon="2.34348">
        <ele>93</ele>
        <time>2012-12-18T19:37:51.000Z</time>
      </trkpt>
      <trkpt lat="48.87607" lon="2.34354">
        <ele>92</ele>
        <time>2012-12-18T19:37:52.000Z</time>
      </trkpt>
      <trkpt lat="48.87609" lon="2.3436">
        <ele>92</ele>
        <time>2012-12-18T19:37:53.000Z</time>
      </trkpt>
      <trkpt lat="48.8761" lon="2.34364">
        <ele>93</ele>
        <time>2012-12-18T19:37:54.000Z</time>
      </trkpt>
      <trkpt lat="48.87611" lon="2.34368">
        <ele>92</ele>
        <time>2012-12-18T19:37:55.000Z</time>
      </trkpt>
      <trkpt lat="48.87611" lon="2.34372">
        <ele>92</ele>
        <time>2012-12-18T19:37:56.000Z</time>
      </trkpt>
      <trkpt lat="48.87611" lon="2.34377">
        <ele>92</ele>
        <time>2012-12-18T19:37:57.000Z</time>
      </trkpt>
      <trkpt lat="48.87612" lon="2.34382">
        <ele>92</ele>
        <time>2012-12-18T19:37:58.000Z</time>
      </trkpt>
      <trkpt lat="48.87612" lon="2.34387">
        <ele>92</ele>
        <time>2012-12-18T19:37:59.000Z</time>
      </trkpt>
      <trkpt lat="48.87612" lon="2.34392">
        <ele>93</ele>
        <time>2012-12-18T19:38:00.000Z</time>
      </trkpt>
      <trkpt lat="48.87617" lon="2.34397">
        <ele>94</ele>
        <time>2012-12-18T19:38:01.000Z</time>
      </trkpt>
      <trkpt lat="48.87619" lon="2.34403">
        <ele>94</ele>
        <time>2012-12-18T19:38:02.000Z</time>
      </trkpt>
      <trkpt lat="48.87622" lon="2.3441">
        <ele>93</ele>
        <time>2012-12-18T19:38:03.000Z</time>
      </trkpt>
      <trkpt lat="48.87628" lon="2.34414">
        <ele>94</ele>
        <time>2012-12-18T19:38:04.000Z</time>
      </trkpt>
      <trkpt lat="48.87631" lon="2.34421">
        <ele>94</ele>
        <time>2012-12-18T19:38:05.000Z</time>
      </trkpt>
      <trkpt lat="48.87633" lon="2.34428">
        <ele>94</ele>
        <time>2012-12-18T19:38:06.000Z</time>
      </trkpt>
      <trkpt lat="48.87636" lon="2.34433">
        <ele>94</ele>
        <time>2012-12-18T19:38:07.000Z</time>
      </trkpt>
      <trkpt lat="48.87637" lon="2.34438">
        <ele>94</ele>
        <time>2012-12-18T19:38:08.000Z</time>
      </trkpt>
      <trkpt lat="48.87638" lon="2.34445">
        <ele>94</ele>
        <time>2012-12-18T19:38:09.000Z</time>
      </trkpt>
      <trkpt lat="48.8764" lon="2.3445">
        <ele>94</ele>
        <time>2012-12-18T19:38:10.000Z</time>
      </trkpt>
      <trkpt lat="48.87642" lon="2.34456">
        <ele>94</ele>
        <time>2012-12-18T19:38:11.000Z</time>
      </trkpt>
      <trkpt lat="48.87643" lon="2.34462">
        <ele>94</ele>
        <time>2012-12-18T19:38:12.000Z</time>
      </trkpt>
      <trkpt lat="48.87644" lon="2.34467">
        <ele>94</ele>
        <time>2012-12-18T19:38:13.000Z</time>
      </trkpt>
      <trkpt lat="48.87646" lon="2.34474">
        <ele>94</ele>
        <time>2012-12-18T19:38:14.000Z</time>
      </trkpt>
      <trkpt lat="48.87647" lon="2.34479">
        <ele>94</ele>
        <time>2012-12-18T19:38:15.000Z</time>
      </trkpt>
      <trkpt lat="48.87649" lon="2.34485">
        <ele>95</ele>
        <time>2012-12-18T19:38:16.000Z</time>
      </trkpt>
      <trkpt lat="48.8765" lon="2.34493">
        <ele>95</ele>
        <time>2012-12-18T19:38:17.000Z</time>
      </trkpt>
      <trkpt lat="48.87651" lon="2.34502">
        <ele>96</ele>
        <time>2012-12-18T19:38:18.000Z</time>
      </trkpt>
      <trkpt lat="48.87653" lon="2.34507">
        <ele>96</ele>
        <time>2012-12-18T19:38:19.000Z</time>
      </trkpt>
      <trkpt lat="48.87653" lon="2.34514">
        <ele>96</ele>
        <time>2012-12-18T19:38:20.000Z</time>
      </trkpt>
      <trkpt lat="48.87653" lon="2.34522">
        <ele>96</ele>
        <time>2012-12-18T19:38:21.000Z</time>
      </trkpt>
      <trkpt lat="48.87653" lon="2.34528">
        <ele>96</ele>
        <time>2012-12-18T19:38:22.000Z</time>
      </trkpt>
      <trkpt lat="48.87652" lon="2.34536">
        <ele>97</ele>
        <time>2012-12-18T19:38:23.000Z</time>
      </trkpt>
      <trkpt lat="48.87652" lon="2.34541">
        <ele>97</ele>
        <time>2012-12-18T19:38:24.000Z</time>
      </trkpt>
      <trkpt lat="48.87655" lon="2.34553">
        <ele>96</ele>
        <time>2012-12-18T19:38:26.000Z</time>
      </trkpt>
      <trkpt lat="48.87656" lon="2.34558">
        <ele>96</ele>
        <time>2012-12-18T19:38:27.000Z</time>
      </trkpt>
      <trkpt lat="48.87655" lon="2.34564">
        <ele>96</ele>
        <time>2012-12-18T19:38:28.000Z</time>
      </trkpt>
      <trkpt lat="48.87655" lon="2.34569">
        <ele>96</ele>
        <time>2012-12-18T19:38:29.000Z</time>
      </trkpt>
      <trkpt lat="48.87656" lon="2.34575">
        <ele>97</ele>
        <time>2012-12-18T19:38:30.000Z</time>
      </trkpt>
      <trkpt lat="48.87659" lon="2.34577">
        <ele>98</ele>
        <time>2012-12-18T19:38:31.000Z</time>
      </trkpt>
      <trkpt lat="48.87662" lon="2.34581">
        <ele>99</ele>
        <time>2012-12-18T19:38:32.000Z</time>
      </trkpt>
      <trkpt lat="48.87662" lon="2.34586">
        <ele>99</ele>
        <time>2012-12-18T19:38:34.000Z</time>
      </trkpt>
      <trkpt lat="48.87661" lon="2.3459">
        <ele>99</ele>
        <time>2012-12-18T19:38:35.000Z</time>
      </trkpt>
      <trkpt lat="48.87661" lon="2.34594">
        <ele>100</ele>
        <time>2012-12-18T19:38:36.000Z</time>
      </trkpt>
      <trkpt lat="48.87662" lon="2.34597">
        <ele>100</ele>
        <time>2012-12-18T19:38:37.000Z</time>
      </trkpt>
      <trkpt lat="48.87663" lon="2.34599">
        <ele>101</ele>
        <time>2012-12-18T19:38:38.000Z</time>
      </trkpt>
      <trkpt lat="48.87662" lon="2.34604">
        <ele>101</ele>
        <time>2012-12-18T19:38:39.000Z</time>
      </trkpt>
      <trkpt lat="48.87663" lon="2.3461">
        <ele>102</ele>
        <time>2012-12-18T19:38:42.000Z</time>
      </trkpt>
      <trkpt lat="48.87664" lon="2.34612">
        <ele>102</ele>
        <time>2012-12-18T19:38:43.000Z</time>
      </trkpt>
      <trkpt lat="48.87667" lon="2.34617">
        <ele>102</ele>
        <time>2012-12-18T19:38:44.000Z</time>
      </trkpt>
      <trkpt lat="48.87667" lon="2.34619">
        <ele>102</ele>
        <time>2012-12-18T19:38:45.000Z</time>
      </trkpt>
      <trkpt lat="48.87669" lon="2.34622">
        <ele>103</ele>
        <time>2012-12-18T19:38:47.000Z</time>
      </trkpt>
      <trkpt lat="48.87671" lon="2.34626">
        <ele>104</ele>
        <time>2012-12-18T19:38:48.000Z</time>
      </trkpt>
      <trkpt lat="48.8767" lon="2.34633">
        <ele>105</ele>
        <time>2012-12-18T19:38:49.000Z</time>
      </trkpt>
      <trkpt lat="48.87671" lon="2.3464">
        <ele>105</ele>
        <time>2012-12-18T19:38:51.000Z</time>
      </trkpt>
      <trkpt lat="48.87671" lon="2.34644">
        <ele>106</ele>
        <time>2012-12-18T19:38:52.000Z</time>
      </trkpt>
      <trkpt lat="48.87673" lon="2.3465">
        <ele>108</ele>
        <time>2012-12-18T19:38:54.000Z</time>
      </trkpt>
      <trkpt lat="48.87674" lon="2.34655">
        <ele>109</ele>
        <time>2012-12-18T19:38:55.000Z</time>
      </trkpt>
      <trkpt lat="48.87671" lon="2.3466">
        <ele>109</ele>
        <time>2012-12-18T19:38:56.000Z</time>
      </trkpt>
      <trkpt lat="48.8767" lon="2.34665">
        <ele>109</ele>
        <time>2012-12-18T19:38:57.000Z</time>
      </trkpt>
      <trkpt lat="48.8767" lon="2.3467">
        <ele>110</ele>
        <time>2012-12-18T19:38:59.000Z</time>
      </trkpt>
      <trkpt lat="48.8767" lon="2.34674">
        <ele>111</ele>
        <time>2012-12-18T19:39:00.000Z</time>
      </trkpt>
      <trkpt lat="48.87671" lon="2.34679">
        <ele>113</ele>
        <time>2012-12-18T19:39:02.000Z</time>
      </trkpt>
      <trkpt lat="48.87675" lon="2.34682">
        <ele>113</ele>
        <time>2012-12-18T19:39:03.000Z</time>
      </trkpt>
      <trkpt lat="48.87675" lon="2.34687">
        <ele>113</ele>
        <time>2012-12-18T19:39:04.000Z</time>
      </trkpt>
      <trkpt lat="48.87676" lon="2.3469">
        <ele>112</ele>
        <time>2012-12-18T19:39:05.000Z</time>
      </trkpt>
      <trkpt lat="48.87677" lon="2.34694">
        <ele>112</ele>
        <time>2012-12-18T19:39:06.000Z</time>
      </trkpt>
      <trkpt lat="48.87679" lon="2.34697">
        <ele>112</ele>
        <time>2012-12-18T19:39:07.000Z</time>
      </trkpt>
      <trkpt lat="48.87681" lon="2.34701">
        <ele>111</ele>
        <time>2012-12-18T19:39:09.000Z</time>
      </trkpt>
      <trkpt lat="48.87682" lon="2.34703">
        <ele>111</ele>
        <time>2012-12-18T19:39:10.000Z</time>
      </trkpt>
      <trkpt lat="48.87685" lon="2.34706">
        <ele>111</ele>
        <time>2012-12-18T19:39:11.000Z</time>
      </trkpt>
      <trkpt lat="48.87688" lon="2.3471">
        <ele>111</ele>
        <time>2012-12-18T19:39:12.000Z</time>
      </trkpt>
      <trkpt lat="48.8769" lon="2.34714">
        <ele>111</ele>
        <time>2012-12-18T19:39:13.000Z</time>
      </trkpt>
      <trkpt lat="48.87691" lon="2.34716">
        <ele>111</ele>
        <time>2012-12-18T19:39:14.000Z</time>
      </trkpt>
      <trkpt lat="48.87696" lon="2.3472">
        <ele>110</ele>
        <time>2012-12-18T19:39:15.000Z</time>
      </trkpt>
      <trkpt lat="48.877" lon="2.34725">
        <ele>110</ele>
        <time>2012-12-18T19:39:16.000Z</time>
      </trkpt>
      <trkpt lat="48.877" lon="2.34729">
        <ele>110</ele>
        <time>2012-12-18T19:39:17.000Z</time>
      </trkpt>
      <trkpt lat="48.87695" lon="2.34737">
        <ele>110</ele>
        <time>2012-12-18T19:39:18.000Z</time>
      </trkpt>
      <trkpt lat="48.87697" lon="2.3474">
        <ele>110</ele>
        <time>2012-12-18T19:39:19.000Z</time>
      </trkpt>
      <trkpt lat="48.877" lon="2.34744">
        <ele>109</ele>
        <time>2012-12-18T19:39:20.000Z</time>
      </trkpt>
      <trkpt lat="48.877" lon="2.34749">
        <ele>109</ele>
        <time>2012-12-18T19:39:21.000Z</time>
      </trkpt>
      <trkpt lat="48.87704" lon="2.34752">
        <ele>109</ele>
        <time>2012-12-18T19:39:22.000Z</time>
      </trkpt>
      <trkpt lat="48.87706" lon="2.34756">
        <ele>109</ele>
        <time>2012-12-18T19:39:23.000Z</time>
      </trkpt>
      <trkpt lat="48.87708" lon="2.34761">
        <ele>109</ele>
        <time>2012-12-18T19:39:24.000Z</time>
      </trkpt>
      <trkpt lat="48.87708" lon="2.34767">
        <ele>108</ele>
        <time>2012-12-18T19:39:25.000Z</time>
      </trkpt>
      <trkpt lat="48.8771" lon="2.34773">
        <ele>108</ele>
        <time>2012-12-18T19:39:26.000Z</time>
      </trkpt>
      <trkpt lat="48.87712" lon="2.3478">
        <ele>108</ele>
        <time>2012-12-18T19:39:27.000Z</time>
      </trkpt>
      <trkpt lat="48.87713" lon="2.34786">
        <ele>109</ele>
        <time>2012-12-18T19:39:28.000Z</time>
      </trkpt>
      <trkpt lat="48.87714" lon="2.34793">
        <ele>109</ele>
        <time>2012-12-18T19:39:29.000Z</time>
      </trkpt>
      <trkpt lat="48.87714" lon="2.34798">
        <ele>109</ele>
        <time>2012-12-18T19:39:30.000Z</time>
      </trkpt>
      <trkpt lat="48.87715" lon="2.34803">
        <ele>109</ele>
        <time>2012-12-18T19:39:31.000Z</time>
      </trkpt>
      <trkpt lat="48.87716" lon="2.34809">
        <ele>108</ele>
        <time>2012-12-18T19:39:32.000Z</time>
      </trkpt>
      <trkpt lat="48.87717" lon="2.34815">
        <ele>108</ele>
        <time>2012-12-18T19:39:33.000Z</time>
      </trkpt>
      <trkpt lat="48.87719" lon="2.34821">
        <ele>108</ele>
        <time>2012-12-18T19:39:34.000Z</time>
      </trkpt>
      <trkpt lat="48.8772" lon="2.34828">
        <ele>108</ele>
        <time>2012-12-18T19:39:35.000Z</time>
      </trkpt>
      <trkpt lat="48.87722" lon="2.34835">
        <ele>108</ele>
        <time>2012-12-18T19:39:36.000Z</time>
      </trkpt>
      <trkpt lat="48.87725" lon="2.34841">
        <ele>108</ele>
        <time>2012-12-18T19:39:37.000Z</time>
      </trkpt>
      <trkpt lat="48.87726" lon="2.34848">
        <ele>109</ele>
        <time>2012-12-18T19:39:38.000Z</time>
      </trkpt>
      <trkpt lat="48.87729" lon="2.34853">
        <ele>110</ele>
        <time>2012-12-18T19:39:39.000Z</time>
      </trkpt>
      <trkpt lat="48.87729" lon="2.34857">
        <ele>109</ele>
        <time>2012-12-18T19:39:40.000Z</time>
      </trkpt>
      <trkpt lat="48.87729" lon="2.34863">
        <ele>109</ele>
        <time>2012-12-18T19:39:41.000Z</time>
      </trkpt>
      <trkpt lat="48.87729" lon="2.34865">
        <ele>108</ele>
        <time>2012-12-18T19:39:42.000Z</time>
      </trkpt>
      <trkpt lat="48.8773" lon="2.3487">
        <ele>108</ele>
        <time>2012-12-18T19:39:43.000Z</time>
      </trkpt>
      <trkpt lat="48.87731" lon="2.34875">
        <ele>108</ele>
        <time>2012-12-18T19:39:45.000Z</time>
      </trkpt>
      <trkpt lat="48.8773" lon="2.34882">
        <ele>108</ele>
        <time>2012-12-18T19:39:46.000Z</time>
      </trkpt>
      <trkpt lat="48.87734" lon="2.34884">
        <ele>110</ele>
        <time>2012-12-18T19:39:48.000Z</time>
      </trkpt>
      <trkpt lat="48.87735" lon="2.34884">
        <ele>109</ele>
        <time>2012-12-18T19:39:49.000Z</time>
      </trkpt>
      <trkpt lat="48.87734" lon="2.34884">
        <ele>112</ele>
        <time>2012-12-18T19:40:31.000Z</time>
      </trkpt>
      <trkpt lat="48.8773" lon="2.34882">
        <ele>112</ele>
        <time>2012-12-18T19:40:32.000Z</time>
      </trkpt>
      <trkpt lat="48.87726" lon="2.34883">
        <ele>111</ele>
        <time>2012-12-18T19:40:33.000Z</time>
      </trkpt>
      <trkpt lat="48.87719" lon="2.34884">
        <ele>110</ele>
        <time>2012-12-18T19:40:34.000Z</time>
      </trkpt>
      <trkpt lat="48.87715" lon="2.34887">
        <ele>110</ele>
        <time>2012-12-18T19:40:35.000Z</time>
      </trkpt>
      <trkpt lat="48.87708" lon="2.34883">
        <ele>110</ele>
        <time>2012-12-18T19:40:36.000Z</time>
      </trkpt>
      <trkpt lat="48.87705" lon="2.3488">
        <ele>109</ele>
        <time>2012-12-18T19:40:37.000Z</time>
      </trkpt>
      <trkpt lat="48.87704" lon="2.34876">
        <ele>107</ele>
        <time>2012-12-18T19:40:38.000Z</time>
      </trkpt>
      <trkpt lat="48.87702" lon="2.34872">
        <ele>107</ele>
        <time>2012-12-18T19:40:39.000Z</time>
      </trkpt>
      <trkpt lat="48.877" lon="2.34868">
        <ele>107</ele>
        <time>2012-12-18T19:40:40.000Z</time>
      </trkpt>
      <trkpt lat="48.87697" lon="2.34863">
        <ele>107</ele>
        <time>2012-12-18T19:40:43.000Z</time>
      </trkpt>
      <trkpt lat="48.87693" lon="2.34864">
        <ele>107</ele>
        <time>2012-12-18T19:40:44.000Z</time>
      </trkpt>
      <trkpt lat="48.87691" lon="2.34864">
        <ele>107</ele>
        <time>2012-12-18T19:40:46.000Z</time>
      </trkpt>
      <trkpt lat="48.87681" lon="2.34867">
        <ele>107</ele>
        <time>2012-12-18T19:40:47.000Z</time>
      </trkpt>
      <trkpt lat="48.87677" lon="2.34867">
        <ele>106</ele>
        <time>2012-12-18T19:40:48.000Z</time>
      </trkpt>
      <trkpt lat="48.87673" lon="2.34864">
        <ele>106</ele>
        <time>2012-12-18T19:40:49.000Z</time>
      </trkpt>
      <trkpt lat="48.87669" lon="2.34862">
        <ele>107</ele>
        <time>2012-12-18T19:40:50.000Z</time>
      </trkpt>
      <trkpt lat="48.87666" lon="2.3486">
        <ele>107</ele>
        <time>2012-12-18T19:40:51.000Z</time>
      </trkpt>
      <trkpt lat="48.87661" lon="2.34856">
        <ele>107</ele>
        <time>2012-12-18T19:40:52.000Z</time>
      </trkpt>
      <trkpt lat="48.87659" lon="2.34854">
        <ele>107</ele>
        <time>2012-12-18T19:40:53.000Z</time>
      </trkpt>
      <trkpt lat="48.87658" lon="2.3485">
        <ele>106</ele>
        <time>2012-12-18T19:40:54.000Z</time>
      </trkpt>
      <trkpt lat="48.87656" lon="2.3485">
        <ele>106</ele>
        <time>2012-12-18T19:40:55.000Z</time>
      </trkpt>
      <trkpt lat="48.87652" lon="2.3485">
        <ele>106</ele>
        <time>2012-12-18T19:40:56.000Z</time>
      </trkpt>
      <trkpt lat="48.87639" lon="2.34852">
        <ele>105</ele>
        <time>2012-12-18T19:40:57.000Z</time>
      </trkpt>
      <trkpt lat="48.87636" lon="2.34849">
        <ele>105</ele>
        <time>2012-12-18T19:40:59.000Z</time>
      </trkpt>
      <trkpt lat="48.87632" lon="2.34847">
        <ele>104</ele>
        <time>2012-12-18T19:41:00.000Z</time>
      </trkpt>
      <trkpt lat="48.87629" lon="2.34845">
        <ele>104</ele>
        <time>2012-12-18T19:41:01.000Z</time>
      </trkpt>
      <trkpt lat="48.87626" lon="2.34843">
        <ele>103</ele>
        <time>2012-12-18T19:41:02.000Z</time>
      </trkpt>
      <trkpt lat="48.87618" lon="2.34843">
        <ele>102</ele>
        <time>2012-12-18T19:41:03.000Z</time>
      </trkpt>
      <trkpt lat="48.87603" lon="2.34846">
        <ele>101</ele>
        <time>2012-12-18T19:41:04.000Z</time>
      </trkpt>
      <trkpt lat="48.876" lon="2.34845">
        <ele>101</ele>
        <time>2012-12-18T19:41:05.000Z</time>
      </trkpt>
      <trkpt lat="48.87599" lon="2.34849">
        <ele>102</ele>
        <time>2012-12-18T19:41:06.000Z</time>
      </trkpt>
      <trkpt lat="48.87594" lon="2.3484">
        <ele>102</ele>
        <time>2012-12-18T19:41:07.000Z</time>
      </trkpt>
      <trkpt lat="48.87593" lon="2.34839">
        <ele>103</ele>
        <time>2012-12-18T19:41:08.000Z</time>
      </trkpt>
      <trkpt lat="48.87589" lon="2.34835">
        <ele>104</ele>
        <time>2012-12-18T19:41:09.000Z</time>
      </trkpt>
      <trkpt lat="48.87585" lon="2.34834">
        <ele>105</ele>
        <time>2012-12-18T19:41:22.000Z</time>
      </trkpt>
      <trkpt lat="48.87585" lon="2.34832">
        <ele>104</ele>
        <time>2012-12-18T19:41:23.000Z</time>
      </trkpt>
      <trkpt lat="48.8758" lon="2.3483">
        <ele>105</ele>
        <time>2012-12-18T19:41:45.000Z</time>
      </trkpt>
      <trkpt lat="48.8758" lon="2.3483">
        <ele>105</ele>
        <time>2012-12-18T19:41:46.000Z</time>
      </trkpt>
      <trkpt lat="48.87579" lon="2.3483">
        <ele>105</ele>
        <time>2012-12-18T19:41:53.000Z</time>
      </trkpt>
      <trkpt lat="48.87574" lon="2.34828">
        <ele>104</ele>
        <time>2012-12-18T19:41:54.000Z</time>
      </trkpt>
      <trkpt lat="48.87568" lon="2.34823">
        <ele>105</ele>
        <time>2012-12-18T19:41:55.000Z</time>
      </trkpt>
      <trkpt lat="48.87565" lon="2.34821">
        <ele>105</ele>
        <time>2012-12-18T19:41:56.000Z</time>
      </trkpt>
      <trkpt lat="48.87555" lon="2.34815">
        <ele>105</ele>
        <time>2012-12-18T19:41:57.000Z</time>
      </trkpt>
      <trkpt lat="48.8755" lon="2.34812">
        <ele>105</ele>
        <time>2012-12-18T19:41:58.000Z</time>
      </trkpt>
      <trkpt lat="48.87542" lon="2.34808">
        <ele>107</ele>
        <time>2012-12-18T19:41:59.000Z</time>
      </trkpt>
      <trkpt lat="48.87538" lon="2.34805">
        <ele>107</ele>
        <time>2012-12-18T19:42:00.000Z</time>
      </trkpt>
      <trkpt lat="48.87527" lon="2.34805">
        <ele>107</ele>
        <time>2012-12-18T19:42:01.000Z</time>
      </trkpt>
      <trkpt lat="48.8752" lon="2.34805">
        <ele>107</ele>
        <time>2012-12-18T19:42:02.000Z</time>
      </trkpt>
      <trkpt lat="48.87516" lon="2.34804">
        <ele>107</ele>
        <time>2012-12-18T19:42:03.000Z</time>
      </trkpt>
      <trkpt lat="48.87511" lon="2.34805">
        <ele>107</ele>
        <time>2012-12-18T19:42:04.000Z</time>
      </trkpt>
      <trkpt lat="48.87509" lon="2.34804">
        <ele>107</ele>
        <time>2012-12-18T19:42:05.000Z</time>
      </trkpt>
      <trkpt lat="48.87504" lon="2.34803">
        <ele>106</ele>
        <time>2012-12-18T19:42:06.000Z</time>
      </trkpt>
      <trkpt lat="48.87501" lon="2.34802">
        <ele>107</ele>
        <time>2012-12-18T19:42:07.000Z</time>
      </trkpt>
      <trkpt lat="48.87498" lon="2.34803">
        <ele>106</ele>
        <time>2012-12-18T19:42:08.000Z</time>
      </trkpt>
      <trkpt lat="48.87493" lon="2.34801">
        <ele>106</ele>
        <time>2012-12-18T19:42:09.000Z</time>
      </trkpt>
      <trkpt lat="48.8749" lon="2.348">
        <ele>106</ele>
        <time>2012-12-18T19:42:10.000Z</time>
      </trkpt>
      <trkpt lat="48.87486" lon="2.348">
        <ele>106</ele>
        <time>2012-12-18T19:42:11.000Z</time>
      </trkpt>
      <trkpt lat="48.87483" lon="2.34798">
        <ele>105</ele>
        <time>2012-12-18T19:42:12.000Z</time>
      </trkpt>
      <trkpt lat="48.8748" lon="2.34797">
        <ele>105</ele>
        <time>2012-12-18T19:42:13.000Z</time>
      </trkpt>
      <trkpt lat="48.87476" lon="2.34796">
        <ele>105</ele>
        <time>2012-12-18T19:42:14.000Z</time>
      </trkpt>
      <trkpt lat="48.87471" lon="2.34797">
        <ele>105</ele>
        <time>2012-12-18T19:42:15.000Z</time>
      </trkpt>
      <trkpt lat="48.87465" lon="2.34796">
        <ele>104</ele>
        <time>2012-12-18T19:42:16.000Z</time>
      </trkpt>
      <trkpt lat="48.87462" lon="2.34799">
        <ele>105</ele>
        <time>2012-12-18T19:42:17.000Z</time>
      </trkpt>
      <trkpt lat="48.87458" lon="2.34805">
        <ele>106</ele>
        <time>2012-12-18T19:42:18.000Z</time>
      </trkpt>
      <trkpt lat="48.87455" lon="2.34805">
        <ele>106</ele>
        <time>2012-12-18T19:42:20.000Z</time>
      </trkpt>
      <trkpt lat="48.87453" lon="2.34804">
        <ele>106</ele>
        <time>2012-12-18T19:42:21.000Z</time>
      </trkpt>
      <trkpt lat="48.87449" lon="2.34803">
        <ele>106</ele>
        <time>2012-12-18T19:42:22.000Z</time>
      </trkpt>
      <trkpt lat="48.87446" lon="2.34805">
        <ele>106</ele>
        <time>2012-12-18T19:42:23.000Z</time>
      </trkpt>
      <trkpt lat="48.87444" lon="2.34805">
        <ele>106</ele>
        <time>2012-12-18T19:42:24.000Z</time>
      </trkpt>
      <trkpt lat="48.87441" lon="2.34805">
        <ele>106</ele>
        <time>2012-12-18T19:42:25.000Z</time>
      </trkpt>
      <trkpt lat="48.87437" lon="2.34806">
        <ele>107</ele>
        <time>2012-12-18T19:42:27.000Z</time>
      </trkpt>
      <trkpt lat="48.87432" lon="2.34802">
        <ele>109</ele>
        <time>2012-12-18T19:42:28.000Z</time>
      </trkpt>
      <trkpt lat="48.87425" lon="2.34798">
        <ele>112</ele>
        <time>2012-12-18T19:42:29.000Z</time>
      </trkpt>
      <trkpt lat="48.8742" lon="2.348">
        <ele>112</ele>
        <time>2012-12-18T19:42:31.000Z</time>
      </trkpt>
      <trkpt lat="48.87419" lon="2.34802">
        <ele>112</ele>
        <time>2012-12-18T19:42:32.000Z</time>
      </trkpt>
      <trkpt lat="48.87415" lon="2.34803">
        <ele>113</ele>
        <time>2012-12-18T19:42:36.000Z</time>
      </trkpt>
      <trkpt lat="48.87412" lon="2.34804">
        <ele>113</ele>
        <time>2012-12-18T19:42:37.000Z</time>
      </trkpt>
      <trkpt lat="48.87409" lon="2.34805">
        <ele>113</ele>
        <time>2012-12-18T19:42:41.000Z</time>
      </trkpt>
      <trkpt lat="48.87406" lon="2.34808">
        <ele>113</ele>
        <time>2012-12-18T19:42:42.000Z</time>
      </trkpt>
      <trkpt lat="48.87403" lon="2.34809">
        <ele>113</ele>
        <time>2012-12-18T19:42:43.000Z</time>
      </trkpt>
      <trkpt lat="48.87401" lon="2.34811">
        <ele>113</ele>
        <time>2012-12-18T19:42:44.000Z</time>
      </trkpt>
      <trkpt lat="48.87397" lon="2.34811">
        <ele>113</ele>
        <time>2012-12-18T19:42:45.000Z</time>
      </trkpt>
      <trkpt lat="48.87391" lon="2.34811">
        <ele>112</ele>
        <time>2012-12-18T19:42:46.000Z</time>
      </trkpt>
      <trkpt lat="48.87387" lon="2.34812">
        <ele>112</ele>
        <time>2012-12-18T19:42:48.000Z</time>
      </trkpt>
      <trkpt lat="48.87385" lon="2.34813">
        <ele>112</ele>
        <time>2012-12-18T19:42:49.000Z</time>
      </trkpt>
      <trkpt lat="48.87382" lon="2.34812">
        <ele>112</ele>
        <time>2012-12-18T19:42:50.000Z</time>
      </trkpt>
      <trkpt lat="48.8738" lon="2.34813">
        <ele>113</ele>
        <time>2012-12-18T19:42:51.000Z</time>
      </trkpt>
      <trkpt lat="48.87376" lon="2.34814">
        <ele>112</ele>
        <time>2012-12-18T19:42:52.000Z</time>
      </trkpt>
      <trkpt lat="48.87372" lon="2.34811">
        <ele>111</ele>
        <time>2012-12-18T19:42:53.000Z</time>
      </trkpt>
      <trkpt lat="48.87366" lon="2.34811">
        <ele>111</ele>
        <time>2012-12-18T19:42:54.000Z</time>
      </trkpt>
      <trkpt lat="48.87363" lon="2.34811">
        <ele>111</ele>
        <time>2012-12-18T19:42:55.000Z</time>
      </trkpt>
      <trkpt lat="48.8736" lon="2.34811">
        <ele>111</ele>
        <time>2012-12-18T19:42:56.000Z</time>
      </trkpt>
      <trkpt lat="48.87354" lon="2.34811">
        <ele>110</ele>
        <time>2012-12-18T19:42:57.000Z</time>
      </trkpt>
      <trkpt lat="48.87343" lon="2.3481">
        <ele>109</ele>
        <time>2012-12-18T19:42:58.000Z</time>
      </trkpt>
      <trkpt lat="48.87336" lon="2.3481">
        <ele>109</ele>
        <time>2012-12-18T19:42:59.000Z</time>
      </trkpt>
      <trkpt lat="48.87331" lon="2.34811">
        <ele>108</ele>
        <time>2012-12-18T19:43:00.000Z</time>
      </trkpt>
      <trkpt lat="48.87327" lon="2.3481">
        <ele>108</ele>
        <time>2012-12-18T19:43:01.000Z</time>
      </trkpt>
      <trkpt lat="48.87323" lon="2.3481">
        <ele>108</ele>
        <time>2012-12-18T19:43:02.000Z</time>
      </trkpt>
      <trkpt lat="48.87317" lon="2.34809">
        <ele>108</ele>
        <time>2012-12-18T19:43:03.000Z</time>
      </trkpt>
      <trkpt lat="48.87314" lon="2.34809">
        <ele>107</ele>
        <time>2012-12-18T19:43:04.000Z</time>
      </trkpt>
      <trkpt lat="48.8731" lon="2.34807">
        <ele>107</ele>
        <time>2012-12-18T19:43:05.000Z</time>
      </trkpt>
      <trkpt lat="48.87307" lon="2.34807">
        <ele>107</ele>
        <time>2012-12-18T19:43:06.000Z</time>
      </trkpt>
      <trkpt lat="48.87303" lon="2.34806">
        <ele>107</ele>
        <time>2012-12-18T19:43:07.000Z</time>
      </trkpt>
      <trkpt lat="48.87301" lon="2.34804">
        <ele>108</ele>
        <time>2012-12-18T19:43:08.000Z</time>
      </trkpt>
      <trkpt lat="48.87297" lon="2.34802">
        <ele>108</ele>
        <time>2012-12-18T19:43:09.000Z</time>
      </trkpt>
      <trkpt lat="48.87293" lon="2.34802">
        <ele>108</ele>
        <time>2012-12-18T19:43:10.000Z</time>
      </trkpt>
      <trkpt lat="48.87288" lon="2.34802">
        <ele>108</ele>
        <time>2012-12-18T19:43:11.000Z</time>
      </trkpt>
      <trkpt lat="48.87284" lon="2.34802">
        <ele>108</ele>
        <time>2012-12-18T19:43:12.000Z</time>
      </trkpt>
      <trkpt lat="48.87279" lon="2.34802">
        <ele>108</ele>
        <time>2012-12-18T19:43:13.000Z</time>
      </trkpt>
      <trkpt lat="48.87276" lon="2.34803">
        <ele>109</ele>
        <time>2012-12-18T19:43:14.000Z</time>
      </trkpt>
      <trkpt lat="48.8727" lon="2.34801">
        <ele>108</ele>
        <time>2012-12-18T19:43:15.000Z</time>
      </trkpt>
      <trkpt lat="48.87267" lon="2.348">
        <ele>108</ele>
        <time>2012-12-18T19:43:16.000Z</time>
      </trkpt>
      <trkpt lat="48.87263" lon="2.348">
        <ele>108</ele>
        <time>2012-12-18T19:43:17.000Z</time>
      </trkpt>
      <trkpt lat="48.87259" lon="2.34796">
        <ele>108</ele>
        <time>2012-12-18T19:43:18.000Z</time>
      </trkpt>
      <trkpt lat="48.87255" lon="2.34795">
        <ele>108</ele>
        <time>2012-12-18T19:43:19.000Z</time>
      </trkpt>
      <trkpt lat="48.87251" lon="2.34796">
        <ele>108</ele>
        <time>2012-12-18T19:43:20.000Z</time>
      </trkpt>
      <trkpt lat="48.87248" lon="2.34799">
        <ele>108</ele>
        <time>2012-12-18T19:43:21.000Z</time>
      </trkpt>
      <trkpt lat="48.87242" lon="2.348">
        <ele>109</ele>
        <time>2012-12-18T19:43:22.000Z</time>
      </trkpt>
      <trkpt lat="48.87227" lon="2.34802">
        <ele>108</ele>
        <time>2012-12-18T19:43:23.000Z</time>
      </trkpt>
      <trkpt lat="48.87221" lon="2.348">
        <ele>109</ele>
        <time>2012-12-18T19:43:24.000Z</time>
      </trkpt>
      <trkpt lat="48.87215" lon="2.34798">
        <ele>109</ele>
        <time>2012-12-18T19:43:25.000Z</time>
      </trkpt>
      <trkpt lat="48.87211" lon="2.34797">
        <ele>109</ele>
        <time>2012-12-18T19:43:26.000Z</time>
      </trkpt>
      <trkpt lat="48.87207" lon="2.34796">
        <ele>108</ele>
        <time>2012-12-18T19:43:27.000Z</time>
      </trkpt>
      <trkpt lat="48.87204" lon="2.34798">
        <ele>109</ele>
        <time>2012-12-18T19:43:28.000Z</time>
      </trkpt>
      <trkpt lat="48.872" lon="2.34799">
        <ele>109</ele>
        <time>2012-12-18T19:43:29.000Z</time>
      </trkpt>
      <trkpt lat="48.87197" lon="2.34799">
        <ele>108</ele>
        <time>2012-12-18T19:43:30.000Z</time>
      </trkpt>
      <trkpt lat="48.87194" lon="2.348">
        <ele>109</ele>
        <time>2012-12-18T19:43:31.000Z</time>
      </trkpt>
      <trkpt lat="48.8719" lon="2.34797">
        <ele>109</ele>
        <time>2012-12-18T19:43:32.000Z</time>
      </trkpt>
      <trkpt lat="48.87187" lon="2.34797">
        <ele>109</ele>
        <time>2012-12-18T19:43:33.000Z</time>
      </trkpt>
      <trkpt lat="48.87184" lon="2.34796">
        <ele>109</ele>
        <time>2012-12-18T19:43:34.000Z</time>
      </trkpt>
      <trkpt lat="48.87181" lon="2.34794">
        <ele>109</ele>
        <time>2012-12-18T19:43:35.000Z</time>
      </trkpt>
      <trkpt lat="48.87177" lon="2.34796">
        <ele>108</ele>
        <time>2012-12-18T19:43:36.000Z</time>
      </trkpt>
      <trkpt lat="48.87175" lon="2.34794">
        <ele>108</ele>
        <time>2012-12-18T19:43:37.000Z</time>
      </trkpt>
      <trkpt lat="48.87171" lon="2.34793">
        <ele>108</ele>
        <time>2012-12-18T19:43:38.000Z</time>
      </trkpt>
      <trkpt lat="48.87166" lon="2.34793">
        <ele>108</ele>
        <time>2012-12-18T19:43:39.000Z</time>
      </trkpt>
      <trkpt lat="48.87164" lon="2.34797">
        <ele>108</ele>
        <time>2012-12-18T19:43:40.000Z</time>
      </trkpt>
      <trkpt lat="48.87161" lon="2.34798">
        <ele>108</ele>
        <time>2012-12-18T19:43:41.000Z</time>
      </trkpt>
      <trkpt lat="48.87158" lon="2.348">
        <ele>108</ele>
        <time>2012-12-18T19:43:42.000Z</time>
      </trkpt>
      <trkpt lat="48.87153" lon="2.34798">
        <ele>108</ele>
        <time>2012-12-18T19:43:43.000Z</time>
      </trkpt>
      <trkpt lat="48.87149" lon="2.34797">
        <ele>108</ele>
        <time>2012-12-18T19:43:44.000Z</time>
      </trkpt>
      <trkpt lat="48.87144" lon="2.34797">
        <ele>107</ele>
        <time>2012-12-18T19:43:45.000Z</time>
      </trkpt>
      <trkpt lat="48.87141" lon="2.34797">
        <ele>108</ele>
        <time>2012-12-18T19:43:46.000Z</time>
      </trkpt>
      <trkpt lat="48.87138" lon="2.34796">
        <ele>108</ele>
        <time>2012-12-18T19:43:47.000Z</time>
      </trkpt>
      <trkpt lat="48.87136" lon="2.34796">
        <ele>108</ele>
        <time>2012-12-18T19:43:48.000Z</time>
      </trkpt>
      <trkpt lat="48.87133" lon="2.34797">
        <ele>108</ele>
        <time>2012-12-18T19:43:49.000Z</time>
      </trkpt>
      <trkpt lat="48.8713" lon="2.34803">
        <ele>108</ele>
        <time>2012-12-18T19:43:50.000Z</time>
      </trkpt>
      <trkpt lat="48.87128" lon="2.34805">
        <ele>109</ele>
        <time>2012-12-18T19:43:51.000Z</time>
      </trkpt>
      <trkpt lat="48.87119" lon="2.34797">
        <ele>112</ele>
        <time>2012-12-18T19:43:52.000Z</time>
      </trkpt>
      <trkpt lat="48.87115" lon="2.34796">
        <ele>112</ele>
        <time>2012-12-18T19:43:53.000Z</time>
      </trkpt>
      <trkpt lat="48.87111" lon="2.34797">
        <ele>112</ele>
        <time>2012-12-18T19:43:54.000Z</time>
      </trkpt>
      <trkpt lat="48.87109" lon="2.34797">
        <ele>112</ele>
        <time>2012-12-18T19:43:55.000Z</time>
      </trkpt>
      <trkpt lat="48.87106" lon="2.34801">
        <ele>113</ele>
        <time>2012-12-18T19:43:56.000Z</time>
      </trkpt>
      <trkpt lat="48.87102" lon="2.34801">
        <ele>113</ele>
        <time>2012-12-18T19:43:57.000Z</time>
      </trkpt>
      <trkpt lat="48.87099" lon="2.34804">
        <ele>113</ele>
        <time>2012-12-18T19:43:58.000Z</time>
      </trkpt>
      <trkpt lat="48.87093" lon="2.34804">
        <ele>112</ele>
        <time>2012-12-18T19:43:59.000Z</time>
      </trkpt>
      <trkpt lat="48.87089" lon="2.34805">
        <ele>112</ele>
        <time>2012-12-18T19:44:01.000Z</time>
      </trkpt>
      <trkpt lat="48.87087" lon="2.34805">
        <ele>113</ele>
        <time>2012-12-18T19:44:02.000Z</time>
      </trkpt>
      <trkpt lat="48.87083" lon="2.34804">
        <ele>113</ele>
        <time>2012-12-18T19:44:04.000Z</time>
      </trkpt>
      <trkpt lat="48.87082" lon="2.34805">
        <ele>113</ele>
        <time>2012-12-18T19:44:05.000Z</time>
      </trkpt>
      <trkpt lat="48.87083" lon="2.34798">
        <ele>107</ele>
        <time>2012-12-18T19:44:07.000Z</time>
      </trkpt>
      <trkpt lat="48.87081" lon="2.34789">
        <ele>103</ele>
        <time>2012-12-18T19:44:08.000Z</time>
      </trkpt>
      <trkpt lat="48.87079" lon="2.34786">
        <ele>105</ele>
        <time>2012-12-18T19:44:09.000Z</time>
      </trkpt>
      <trkpt lat="48.87078" lon="2.34781">
        <ele>104</ele>
        <time>2012-12-18T19:44:10.000Z</time>
      </trkpt>
      <trkpt lat="48.87081" lon="2.3478">
        <ele>98</ele>
        <time>2012-12-18T19:44:52.000Z</time>
      </trkpt>
      <trkpt lat="48.87082" lon="2.34779">
        <ele>97</ele>
        <time>2012-12-18T19:44:53.000Z</time>
      </trkpt>
      <trkpt lat="48.87079" lon="2.34783">
        <ele>97</ele>
        <time>2012-12-18T19:45:08.000Z</time>
      </trkpt>
      <trkpt lat="48.87075" lon="2.34784">
        <ele>97</ele>
        <time>2012-12-18T19:45:09.000Z</time>
      </trkpt>
      <trkpt lat="48.87072" lon="2.34788">
        <ele>98</ele>
        <time>2012-12-18T19:45:11.000Z</time>
      </trkpt>
      <trkpt lat="48.8707" lon="2.34788">
        <ele>98</ele>
        <time>2012-12-18T19:45:12.000Z</time>
      </trkpt>
      <trkpt lat="48.87069" lon="2.34791">
        <ele>98</ele>
        <time>2012-12-18T19:45:14.000Z</time>
      </trkpt>
      <trkpt lat="48.87069" lon="2.34796">
        <ele>97</ele>
        <time>2012-12-18T19:45:15.000Z</time>
      </trkpt>
      <trkpt lat="48.8707" lon="2.34801">
        <ele>97</ele>
        <time>2012-12-18T19:45:16.000Z</time>
      </trkpt>
      <trkpt lat="48.87071" lon="2.34805">
        <ele>97</ele>
        <time>2012-12-18T19:45:17.000Z</time>
      </trkpt>
      <trkpt lat="48.87071" lon="2.3481">
        <ele>97</ele>
        <time>2012-12-18T19:45:18.000Z</time>
      </trkpt>
      <trkpt lat="48.87071" lon="2.34813">
        <ele>97</ele>
        <time>2012-12-18T19:45:19.000Z</time>
      </trkpt>
      <trkpt lat="48.87072" lon="2.34819">
        <ele>98</ele>
        <time>2012-12-18T19:45:20.000Z</time>
      </trkpt>
      <trkpt lat="48.87071" lon="2.34823">
        <ele>98</ele>
        <time>2012-12-18T19:45:21.000Z</time>
      </trkpt>
      <trkpt lat="48.87073" lon="2.34827">
        <ele>99</ele>
        <time>2012-12-18T19:45:22.000Z</time>
      </trkpt>
      <trkpt lat="48.87073" lon="2.34831">
        <ele>98</ele>
        <time>2012-12-18T19:45:23.000Z</time>
      </trkpt>
      <trkpt lat="48.87074" lon="2.34834">
        <ele>98</ele>
        <time>2012-12-18T19:45:24.000Z</time>
      </trkpt>
      <trkpt lat="48.87075" lon="2.34838">
        <ele>98</ele>
        <time>2012-12-18T19:45:25.000Z</time>
      </trkpt>
      <trkpt lat="48.87076" lon="2.34842">
        <ele>98</ele>
        <time>2012-12-18T19:45:26.000Z</time>
      </trkpt>
      <trkpt lat="48.87076" lon="2.34845">
        <ele>99</ele>
        <time>2012-12-18T19:45:27.000Z</time>
      </trkpt>
      <trkpt lat="48.87077" lon="2.34849">
        <ele>98</ele>
        <time>2012-12-18T19:45:28.000Z</time>
      </trkpt>
      <trkpt lat="48.87078" lon="2.34854">
        <ele>97</ele>
        <time>2012-12-18T19:45:29.000Z</time>
      </trkpt>
      <trkpt lat="48.87078" lon="2.34857">
        <ele>97</ele>
        <time>2012-12-18T19:45:30.000Z</time>
      </trkpt>
      <trkpt lat="48.87078" lon="2.34862">
        <ele>97</ele>
        <time>2012-12-18T19:45:31.000Z</time>
      </trkpt>
      <trkpt lat="48.87078" lon="2.34866">
        <ele>97</ele>
        <time>2012-12-18T19:45:32.000Z</time>
      </trkpt>
      <trkpt lat="48.87077" lon="2.3487">
        <ele>97</ele>
        <time>2012-12-18T19:45:33.000Z</time>
      </trkpt>
      <trkpt lat="48.87075" lon="2.34874">
        <ele>97</ele>
        <time>2012-12-18T19:45:34.000Z</time>
      </trkpt>
      <trkpt lat="48.87077" lon="2.3488">
        <ele>97</ele>
        <time>2012-12-18T19:45:35.000Z</time>
      </trkpt>
      <trkpt lat="48.87077" lon="2.34884">
        <ele>97</ele>
        <time>2012-12-18T19:45:36.000Z</time>
      </trkpt>
      <trkpt lat="48.87077" lon="2.3489">
        <ele>97</ele>
        <time>2012-12-18T19:45:37.000Z</time>
      </trkpt>
      <trkpt lat="48.87077" lon="2.34893">
        <ele>97</ele>
        <time>2012-12-18T19:45:38.000Z</time>
      </trkpt>
      <trkpt lat="48.87078" lon="2.34898">
        <ele>97</ele>
        <time>2012-12-18T19:45:39.000Z</time>
      </trkpt>
      <trkpt lat="48.87078" lon="2.34904">
        <ele>97</ele>
        <time>2012-12-18T19:45:40.000Z</time>
      </trkpt>
      <trkpt lat="48.87077" lon="2.34909">
        <ele>98</ele>
        <time>2012-12-18T19:45:41.000Z</time>
      </trkpt>
      <trkpt lat="48.87076" lon="2.34913">
        <ele>98</ele>
        <time>2012-12-18T19:45:42.000Z</time>
      </trkpt>
      <trkpt lat="48.87076" lon="2.34917">
        <ele>99</ele>
        <time>2012-12-18T19:45:43.000Z</time>
      </trkpt>
      <trkpt lat="48.87072" lon="2.34922">
        <ele>98</ele>
        <time>2012-12-18T19:45:44.000Z</time>
      </trkpt>
      <trkpt lat="48.87072" lon="2.34925">
        <ele>98</ele>
        <time>2012-12-18T19:45:45.000Z</time>
      </trkpt>
      <trkpt lat="48.87071" lon="2.3493">
        <ele>98</ele>
        <time>2012-12-18T19:45:46.000Z</time>
      </trkpt>
      <trkpt lat="48.87071" lon="2.34935">
        <ele>99</ele>
        <time>2012-12-18T19:45:47.000Z</time>
      </trkpt>
      <trkpt lat="48.87064" lon="2.34943">
        <ele>98</ele>
        <time>2012-12-18T19:45:48.000Z</time>
      </trkpt>
      <trkpt lat="48.87064" lon="2.34947">
        <ele>97</ele>
        <time>2012-12-18T19:45:49.000Z</time>
      </trkpt>
      <trkpt lat="48.87065" lon="2.34951">
        <ele>98</ele>
        <time>2012-12-18T19:45:50.000Z</time>
      </trkpt>
      <trkpt lat="48.87064" lon="2.34954">
        <ele>98</ele>
        <time>2012-12-18T19:45:51.000Z</time>
      </trkpt>
      <trkpt lat="48.87063" lon="2.34957">
        <ele>98</ele>
        <time>2012-12-18T19:45:52.000Z</time>
      </trkpt>
      <trkpt lat="48.87063" lon="2.34962">
        <ele>99</ele>
        <time>2012-12-18T19:45:53.000Z</time>
      </trkpt>
      <trkpt lat="48.87063" lon="2.34965">
        <ele>99</ele>
        <time>2012-12-18T19:45:54.000Z</time>
      </trkpt>
      <trkpt lat="48.87063" lon="2.34968">
        <ele>99</ele>
        <time>2012-12-18T19:45:55.000Z</time>
      </trkpt>
      <trkpt lat="48.87062" lon="2.34973">
        <ele>99</ele>
        <time>2012-12-18T19:45:56.000Z</time>
      </trkpt>
      <trkpt lat="48.87062" lon="2.34979">
        <ele>100</ele>
        <time>2012-12-18T19:45:57.000Z</time>
      </trkpt>
      <trkpt lat="48.8706" lon="2.34984">
        <ele>101</ele>
        <time>2012-12-18T19:45:58.000Z</time>
      </trkpt>
      <trkpt lat="48.8706" lon="2.34989">
        <ele>101</ele>
        <time>2012-12-18T19:45:59.000Z</time>
      </trkpt>
      <trkpt lat="48.87057" lon="2.34995">
        <ele>101</ele>
        <time>2012-12-18T19:46:00.000Z</time>
      </trkpt>
      <trkpt lat="48.87057" lon="2.34999">
        <ele>101</ele>
        <time>2012-12-18T19:46:01.000Z</time>
      </trkpt>
      <trkpt lat="48.87057" lon="2.35005">
        <ele>101</ele>
        <time>2012-12-18T19:46:02.000Z</time>
      </trkpt>
      <trkpt lat="48.87057" lon="2.3501">
        <ele>102</ele>
        <time>2012-12-18T19:46:03.000Z</time>
      </trkpt>
      <trkpt lat="48.87056" lon="2.35015">
        <ele>102</ele>
        <time>2012-12-18T19:46:04.000Z</time>
      </trkpt>
      <trkpt lat="48.87055" lon="2.35022">
        <ele>102</ele>
        <time>2012-12-18T19:46:05.000Z</time>
      </trkpt>
      <trkpt lat="48.87052" lon="2.35026">
        <ele>102</ele>
        <time>2012-12-18T19:46:06.000Z</time>
      </trkpt>
      <trkpt lat="48.87053" lon="2.35033">
        <ele>103</ele>
        <time>2012-12-18T19:46:08.000Z</time>
      </trkpt>
      <trkpt lat="48.87051" lon="2.35038">
        <ele>104</ele>
        <time>2012-12-18T19:46:09.000Z</time>
      </trkpt>
      <trkpt lat="48.87049" lon="2.35045">
        <ele>102</ele>
        <time>2012-12-18T19:46:10.000Z</time>
      </trkpt>
      <trkpt lat="48.87047" lon="2.35051">
        <ele>102</ele>
        <time>2012-12-18T19:46:11.000Z</time>
      </trkpt>
      <trkpt lat="48.87039" lon="2.35061">
        <ele>100</ele>
        <time>2012-12-18T19:46:12.000Z</time>
      </trkpt>
      <trkpt lat="48.87033" lon="2.35069">
        <ele>100</ele>
        <time>2012-12-18T19:46:13.000Z</time>
      </trkpt>
      <trkpt lat="48.87029" lon="2.35073">
        <ele>99</ele>
        <time>2012-12-18T19:46:14.000Z</time>
      </trkpt>
      <trkpt lat="48.87027" lon="2.35078">
        <ele>99</ele>
        <time>2012-12-18T19:46:15.000Z</time>
      </trkpt>
      <trkpt lat="48.87024" lon="2.35084">
        <ele>99</ele>
        <time>2012-12-18T19:46:16.000Z</time>
      </trkpt>
      <trkpt lat="48.87025" lon="2.35089">
        <ele>100</ele>
        <time>2012-12-18T19:46:17.000Z</time>
      </trkpt>
      <trkpt lat="48.87023" lon="2.35095">
        <ele>100</ele>
        <time>2012-12-18T19:46:18.000Z</time>
      </trkpt>
      <trkpt lat="48.87023" lon="2.351">
        <ele>100</ele>
        <time>2012-12-18T19:46:19.000Z</time>
      </trkpt>
      <trkpt lat="48.87023" lon="2.35105">
        <ele>100</ele>
        <time>2012-12-18T19:46:20.000Z</time>
      </trkpt>
      <trkpt lat="48.87023" lon="2.3511">
        <ele>99</ele>
        <time>2012-12-18T19:46:21.000Z</time>
      </trkpt>
      <trkpt lat="48.87023" lon="2.35116">
        <ele>99</ele>
        <time>2012-12-18T19:46:22.000Z</time>
      </trkpt>
      <trkpt lat="48.87022" lon="2.35124">
        <ele>99</ele>
        <time>2012-12-18T19:46:23.000Z</time>
      </trkpt>
      <trkpt lat="48.87021" lon="2.3513">
        <ele>99</ele>
        <time>2012-12-18T19:46:24.000Z</time>
      </trkpt>
      <trkpt lat="48.8702" lon="2.35135">
        <ele>99</ele>
        <time>2012-12-18T19:46:25.000Z</time>
      </trkpt>
      <trkpt lat="48.8702" lon="2.35141">
        <ele>100</ele>
        <time>2012-12-18T19:46:26.000Z</time>
      </trkpt>
      <trkpt lat="48.8702" lon="2.35148">
        <ele>101</ele>
        <time>2012-12-18T19:46:27.000Z</time>
      </trkpt>
      <trkpt lat="48.87019" lon="2.35152">
        <ele>101</ele>
        <time>2012-12-18T19:46:28.000Z</time>
      </trkpt>
      <trkpt lat="48.87018" lon="2.35157">
        <ele>100</ele>
        <time>2012-12-18T19:46:29.000Z</time>
      </trkpt>
      <trkpt lat="48.87018" lon="2.35163">
        <ele>101</ele>
        <time>2012-12-18T19:46:30.000Z</time>
      </trkpt>
      <trkpt lat="48.87015" lon="2.35168">
        <ele>102</ele>
        <time>2012-12-18T19:46:31.000Z</time>
      </trkpt>
      <trkpt lat="48.87015" lon="2.35173">
        <ele>101</ele>
        <time>2012-12-18T19:46:32.000Z</time>
      </trkpt>
      <trkpt lat="48.87015" lon="2.35181">
        <ele>101</ele>
        <time>2012-12-18T19:46:33.000Z</time>
      </trkpt>
      <trkpt lat="48.87015" lon="2.35185">
        <ele>101</ele>
        <time>2012-12-18T19:46:34.000Z</time>
      </trkpt>
      <trkpt lat="48.87015" lon="2.3519">
        <ele>101</ele>
        <time>2012-12-18T19:46:35.000Z</time>
      </trkpt>
      <trkpt lat="48.87014" lon="2.35193">
        <ele>101</ele>
        <time>2012-12-18T19:46:36.000Z</time>
      </trkpt>
      <trkpt lat="48.87012" lon="2.35196">
        <ele>101</ele>
        <time>2012-12-18T19:46:37.000Z</time>
      </trkpt>
      <trkpt lat="48.8701" lon="2.352">
        <ele>101</ele>
        <time>2012-12-18T19:46:38.000Z</time>
      </trkpt>
      <trkpt lat="48.8701" lon="2.35205">
        <ele>101</ele>
        <time>2012-12-18T19:46:39.000Z</time>
      </trkpt>
      <trkpt lat="48.87007" lon="2.35209">
        <ele>101</ele>
        <time>2012-12-18T19:46:40.000Z</time>
      </trkpt>
      <trkpt lat="48.87004" lon="2.35214">
        <ele>100</ele>
        <time>2012-12-18T19:46:41.000Z</time>
      </trkpt>
      <trkpt lat="48.86999" lon="2.35219">
        <ele>99</ele>
        <time>2012-12-18T19:46:42.000Z</time>
      </trkpt>
      <trkpt lat="48.86992" lon="2.35224">
        <ele>97</ele>
        <time>2012-12-18T19:46:43.000Z</time>
      </trkpt>
      <trkpt lat="48.86989" lon="2.35228">
        <ele>96</ele>
        <time>2012-12-18T19:46:44.000Z</time>
      </trkpt>
      <trkpt lat="48.86986" lon="2.35232">
        <ele>95</ele>
        <time>2012-12-18T19:46:45.000Z</time>
      </trkpt>
      <trkpt lat="48.86984" lon="2.35237">
        <ele>95</ele>
        <time>2012-12-18T19:46:46.000Z</time>
      </trkpt>
      <trkpt lat="48.86983" lon="2.35242">
        <ele>95</ele>
        <time>2012-12-18T19:46:47.000Z</time>
      </trkpt>
      <trkpt lat="48.86983" lon="2.35246">
        <ele>94</ele>
        <time>2012-12-18T19:46:48.000Z</time>
      </trkpt>
      <trkpt lat="48.86984" lon="2.3525">
        <ele>94</ele>
        <time>2012-12-18T19:46:49.000Z</time>
      </trkpt>
      <trkpt lat="48.86984" lon="2.35254">
        <ele>94</ele>
        <time>2012-12-18T19:46:50.000Z</time>
      </trkpt>
      <trkpt lat="48.86984" lon="2.35259">
        <ele>93</ele>
        <time>2012-12-18T19:46:51.000Z</time>
      </trkpt>
      <trkpt lat="48.86985" lon="2.35265">
        <ele>93</ele>
        <time>2012-12-18T19:46:52.000Z</time>
      </trkpt>
      <trkpt lat="48.86985" lon="2.35271">
        <ele>93</ele>
        <time>2012-12-18T19:46:53.000Z</time>
      </trkpt>
      <trkpt lat="48.86986" lon="2.35275">
        <ele>93</ele>
        <time>2012-12-18T19:46:54.000Z</time>
      </trkpt>
      <trkpt lat="48.86986" lon="2.35281">
        <ele>93</ele>
        <time>2012-12-18T19:46:55.000Z</time>
      </trkpt>
      <trkpt lat="48.86985" lon="2.35285">
        <ele>93</ele>
        <time>2012-12-18T19:46:56.000Z</time>
      </trkpt>
      <trkpt lat="48.86985" lon="2.35288">
        <ele>93</ele>
        <time>2012-12-18T19:46:57.000Z</time>
      </trkpt>
      <trkpt lat="48.86984" lon="2.35294">
        <ele>93</ele>
        <time>2012-12-18T19:46:58.000Z</time>
      </trkpt>
      <trkpt lat="48.86983" lon="2.35299">
        <ele>92</ele>
        <time>2012-12-18T19:46:59.000Z</time>
      </trkpt>
      <trkpt lat="48.86981" lon="2.35306">
        <ele>92</ele>
        <time>2012-12-18T19:47:00.000Z</time>
      </trkpt>
      <trkpt lat="48.86979" lon="2.3531">
        <ele>92</ele>
        <time>2012-12-18T19:47:01.000Z</time>
      </trkpt>
      <trkpt lat="48.86978" lon="2.35317">
        <ele>92</ele>
        <time>2012-12-18T19:47:02.000Z</time>
      </trkpt>
      <trkpt lat="48.86975" lon="2.35324">
        <ele>92</ele>
        <time>2012-12-18T19:47:03.000Z</time>
      </trkpt>
      <trkpt lat="48.86973" lon="2.35329">
        <ele>92</ele>
        <time>2012-12-18T19:47:04.000Z</time>
      </trkpt>
      <trkpt lat="48.8697" lon="2.35335">
        <ele>92</ele>
        <time>2012-12-18T19:47:05.000Z</time>
      </trkpt>
      <trkpt lat="48.86969" lon="2.3534">
        <ele>92</ele>
        <time>2012-12-18T19:47:06.000Z</time>
      </trkpt>
      <trkpt lat="48.86967" lon="2.35343">
        <ele>92</ele>
        <time>2012-12-18T19:47:07.000Z</time>
      </trkpt>
      <trkpt lat="48.86964" lon="2.35347">
        <ele>93</ele>
        <time>2012-12-18T19:47:08.000Z</time>
      </trkpt>
      <trkpt lat="48.86965" lon="2.3535">
        <ele>93</ele>
        <time>2012-12-18T19:47:09.000Z</time>
      </trkpt>
      <trkpt lat="48.86961" lon="2.35358">
        <ele>92</ele>
        <time>2012-12-18T19:47:10.000Z</time>
      </trkpt>
      <trkpt lat="48.86954" lon="2.35367">
        <ele>91</ele>
        <time>2012-12-18T19:47:11.000Z</time>
      </trkpt>
      <trkpt lat="48.86948" lon="2.35375">
        <ele>89</ele>
        <time>2012-12-18T19:47:12.000Z</time>
      </trkpt>
      <trkpt lat="48.86945" lon="2.35383">
        <ele>88</ele>
        <time>2012-12-18T19:47:13.000Z</time>
      </trkpt>
      <trkpt lat="48.86939" lon="2.35393">
        <ele>86</ele>
        <time>2012-12-18T19:47:14.000Z</time>
      </trkpt>
      <trkpt lat="48.86937" lon="2.35399">
        <ele>86</ele>
        <time>2012-12-18T19:47:15.000Z</time>
      </trkpt>
      <trkpt lat="48.86935" lon="2.35405">
        <ele>85</ele>
        <time>2012-12-18T19:47:16.000Z</time>
      </trkpt>
      <trkpt lat="48.86933" lon="2.35408">
        <ele>85</ele>
        <time>2012-12-18T19:47:17.000Z</time>
      </trkpt>
      <trkpt lat="48.86934" lon="2.35415">
        <ele>84</ele>
        <time>2012-12-18T19:47:18.000Z</time>
      </trkpt>
      <trkpt lat="48.86933" lon="2.3542">
        <ele>84</ele>
        <time>2012-12-18T19:47:19.000Z</time>
      </trkpt>
      <trkpt lat="48.86933" lon="2.35425">
        <ele>84</ele>
        <time>2012-12-18T19:47:20.000Z</time>
      </trkpt>
      <trkpt lat="48.86933" lon="2.35428">
        <ele>84</ele>
        <time>2012-12-18T19:47:21.000Z</time>
      </trkpt>
      <trkpt lat="48.86933" lon="2.35434">
        <ele>84</ele>
        <time>2012-12-18T19:47:22.000Z</time>
      </trkpt>
      <trkpt lat="48.86933" lon="2.3544">
        <ele>84</ele>
        <time>2012-12-18T19:47:23.000Z</time>
      </trkpt>
      <trkpt lat="48.86933" lon="2.35446">
        <ele>85</ele>
        <time>2012-12-18T19:47:24.000Z</time>
      </trkpt>
      <trkpt lat="48.86934" lon="2.35451">
        <ele>85</ele>
        <time>2012-12-18T19:47:25.000Z</time>
      </trkpt>
      <trkpt lat="48.86934" lon="2.35457">
        <ele>86</ele>
        <time>2012-12-18T19:47:26.000Z</time>
      </trkpt>
      <trkpt lat="48.86934" lon="2.35461">
        <ele>86</ele>
        <time>2012-12-18T19:47:27.000Z</time>
      </trkpt>
      <trkpt lat="48.86934" lon="2.35466">
        <ele>86</ele>
        <time>2012-12-18T19:47:28.000Z</time>
      </trkpt>
      <trkpt lat="48.86936" lon="2.35472">
        <ele>86</ele>
        <time>2012-12-18T19:47:29.000Z</time>
      </trkpt>
      <trkpt lat="48.86936" lon="2.35475">
        <ele>86</ele>
        <time>2012-12-18T19:47:30.000Z</time>
      </trkpt>
      <trkpt lat="48.86937" lon="2.35481">
        <ele>86</ele>
        <time>2012-12-18T19:47:32.000Z</time>
      </trkpt>
      <trkpt lat="48.86936" lon="2.35485">
        <ele>86</ele>
        <time>2012-12-18T19:47:33.000Z</time>
      </trkpt>
      <trkpt lat="48.86937" lon="2.35488">
        <ele>86</ele>
        <time>2012-12-18T19:47:34.000Z</time>
      </trkpt>
      <trkpt lat="48.86937" lon="2.35492">
        <ele>86</ele>
        <time>2012-12-18T19:47:35.000Z</time>
      </trkpt>
      <trkpt lat="48.86935" lon="2.35496">
        <ele>86</ele>
        <time>2012-12-18T19:47:36.000Z</time>
      </trkpt>
      <trkpt lat="48.86925" lon="2.35504">
        <ele>83</ele>
        <time>2012-12-18T19:47:37.000Z</time>
      </trkpt>
      <trkpt lat="48.86922" lon="2.35507">
        <ele>83</ele>
        <time>2012-12-18T19:47:38.000Z</time>
      </trkpt>
      <trkpt lat="48.86917" lon="2.35512">
        <ele>82</ele>
        <time>2012-12-18T19:47:39.000Z</time>
      </trkpt>
      <trkpt lat="48.86916" lon="2.35516">
        <ele>82</ele>
        <time>2012-12-18T19:47:40.000Z</time>
      </trkpt>
      <trkpt lat="48.86911" lon="2.35519">
        <ele>81</ele>
        <time>2012-12-18T19:47:41.000Z</time>
      </trkpt>
      <trkpt lat="48.86909" lon="2.3552">
        <ele>81</ele>
        <time>2012-12-18T19:47:42.000Z</time>
      </trkpt>
      <trkpt lat="48.86907" lon="2.35523">
        <ele>81</ele>
        <time>2012-12-18T19:47:43.000Z</time>
      </trkpt>
      <trkpt lat="48.86906" lon="2.35527">
        <ele>81</ele>
        <time>2012-12-18T19:47:45.000Z</time>
      </trkpt>
      <trkpt lat="48.86905" lon="2.3553">
        <ele>81</ele>
        <time>2012-12-18T19:47:46.000Z</time>
      </trkpt>
      <trkpt lat="48.86902" lon="2.35534">
        <ele>80</ele>
        <time>2012-12-18T19:47:53.000Z</time>
      </trkpt>
      <trkpt lat="48.86902" lon="2.35536">
        <ele>80</ele>
        <time>2012-12-18T19:47:54.000Z</time>
      </trkpt>
      <trkpt lat="48.86898" lon="2.3554">
        <ele>84</ele>
        <time>2012-12-18T19:48:54.000Z</time>
      </trkpt>
      <trkpt lat="48.86898" lon="2.35541">
        <ele>83</ele>
        <time>2012-12-18T19:48:55.000Z</time>
      </trkpt>
      <trkpt lat="48.86901" lon="2.3554">
        <ele>83</ele>
        <time>2012-12-18T19:49:01.000Z</time>
      </trkpt>
      <trkpt lat="48.86902" lon="2.35539">
        <ele>83</ele>
        <time>2012-12-18T19:49:02.000Z</time>
      </trkpt>
      <trkpt lat="48.86906" lon="2.35542">
        <ele>83</ele>
        <time>2012-12-18T19:49:46.000Z</time>
      </trkpt>
      <trkpt lat="48.86907" lon="2.35542">
        <ele>83</ele>
        <time>2012-12-18T19:49:47.000Z</time>
      </trkpt>
      <trkpt lat="48.86908" lon="2.35543">
        <ele>83</ele>
        <time>2012-12-18T19:49:52.000Z</time>
      </trkpt>
      <trkpt lat="48.86911" lon="2.35546">
        <ele>83</ele>
        <time>2012-12-18T19:49:53.000Z</time>
      </trkpt>
      <trkpt lat="48.86912" lon="2.35551">
        <ele>83</ele>
        <time>2012-12-18T19:49:55.000Z</time>
      </trkpt>
      <trkpt lat="48.86914" lon="2.35553">
        <ele>82</ele>
        <time>2012-12-18T19:49:56.000Z</time>
      </trkpt>
      <trkpt lat="48.86915" lon="2.35557">
        <ele>82</ele>
        <time>2012-12-18T19:49:58.000Z</time>
      </trkpt>
      <trkpt lat="48.86916" lon="2.3556">
        <ele>83</ele>
        <time>2012-12-18T19:49:59.000Z</time>
      </trkpt>
      <trkpt lat="48.86916" lon="2.35563">
        <ele>83</ele>
        <time>2012-12-18T19:50:01.000Z</time>
      </trkpt>
      <trkpt lat="48.86917" lon="2.35566">
        <ele>84</ele>
        <time>2012-12-18T19:50:02.000Z</time>
      </trkpt>
      <trkpt lat="48.86916" lon="2.35572">
        <ele>85</ele>
        <time>2012-12-18T19:50:04.000Z</time>
      </trkpt>
      <trkpt lat="48.86915" lon="2.35575">
        <ele>85</ele>
        <time>2012-12-18T19:50:05.000Z</time>
      </trkpt>
      <trkpt lat="48.86915" lon="2.35579">
        <ele>86</ele>
        <time>2012-12-18T19:50:07.000Z</time>
      </trkpt>
      <trkpt lat="48.86915" lon="2.35582">
        <ele>86</ele>
        <time>2012-12-18T19:50:08.000Z</time>
      </trkpt>
      <trkpt lat="48.86918" lon="2.35585">
        <ele>86</ele>
        <time>2012-12-18T19:50:09.000Z</time>
      </trkpt>
      <trkpt lat="48.86913" lon="2.3559">
        <ele>86</ele>
        <time>2012-12-18T19:50:10.000Z</time>
      </trkpt>
      <trkpt lat="48.86912" lon="2.35593">
        <ele>86</ele>
        <time>2012-12-18T19:50:12.000Z</time>
      </trkpt>
      <trkpt lat="48.86912" lon="2.35599">
        <ele>87</ele>
        <time>2012-12-18T19:50:13.000Z</time>
      </trkpt>
      <trkpt lat="48.86911" lon="2.35605">
        <ele>86</ele>
        <time>2012-12-18T19:50:15.000Z</time>
      </trkpt>
      <trkpt lat="48.8691" lon="2.3561">
        <ele>87</ele>
        <time>2012-12-18T19:50:16.000Z</time>
      </trkpt>
      <trkpt lat="48.8691" lon="2.35614">
        <ele>87</ele>
        <time>2012-12-18T19:50:17.000Z</time>
      </trkpt>
      <trkpt lat="48.86909" lon="2.35619">
        <ele>88</ele>
        <time>2012-12-18T19:50:18.000Z</time>
      </trkpt>
      <trkpt lat="48.86908" lon="2.35625">
        <ele>88</ele>
        <time>2012-12-18T19:50:20.000Z</time>
      </trkpt>
      <trkpt lat="48.86909" lon="2.35628">
        <ele>89</ele>
        <time>2012-12-18T19:50:21.000Z</time>
      </trkpt>
      <trkpt lat="48.86909" lon="2.35633">
        <ele>89</ele>
        <time>2012-12-18T19:50:22.000Z</time>
      </trkpt>
      <trkpt lat="48.86907" lon="2.35638">
        <ele>89</ele>
        <time>2012-12-18T19:50:23.000Z</time>
      </trkpt>
      <trkpt lat="48.86906" lon="2.35644">
        <ele>89</ele>
        <time>2012-12-18T19:50:24.000Z</time>
      </trkpt>
      <trkpt lat="48.86905" lon="2.3565">
        <ele>89</ele>
        <time>2012-12-18T19:50:25.000Z</time>
      </trkpt>
      <trkpt lat="48.86904" lon="2.35656">
        <ele>89</ele>
        <time>2012-12-18T19:50:26.000Z</time>
      </trkpt>
      <trkpt lat="48.86903" lon="2.3566">
        <ele>90</ele>
        <time>2012-12-18T19:50:27.000Z</time>
      </trkpt>
      <trkpt lat="48.86903" lon="2.35665">
        <ele>90</ele>
        <time>2012-12-18T19:50:28.000Z</time>
      </trkpt>
      <trkpt lat="48.86905" lon="2.35672">
        <ele>90</ele>
        <time>2012-12-18T19:50:29.000Z</time>
      </trkpt>
      <trkpt lat="48.86904" lon="2.35678">
        <ele>90</ele>
        <time>2012-12-18T19:50:30.000Z</time>
      </trkpt>
      <trkpt lat="48.86902" lon="2.35686">
        <ele>92</ele>
        <time>2012-12-18T19:50:31.000Z</time>
      </trkpt>
      <trkpt lat="48.86901" lon="2.35693">
        <ele>93</ele>
        <time>2012-12-18T19:50:32.000Z</time>
      </trkpt>
      <trkpt lat="48.86901" lon="2.35699">
        <ele>94</ele>
        <time>2012-12-18T19:50:33.000Z</time>
      </trkpt>
      <trkpt lat="48.86902" lon="2.35705">
        <ele>96</ele>
        <time>2012-12-18T19:50:34.000Z</time>
      </trkpt>
      <trkpt lat="48.86902" lon="2.3571">
        <ele>96</ele>
        <time>2012-12-18T19:50:35.000Z</time>
      </trkpt>
      <trkpt lat="48.86901" lon="2.35714">
        <ele>96</ele>
        <time>2012-12-18T19:50:36.000Z</time>
      </trkpt>
      <trkpt lat="48.86899" lon="2.3572">
        <ele>96</ele>
        <time>2012-12-18T19:50:37.000Z</time>
      </trkpt>
      <trkpt lat="48.86898" lon="2.35725">
        <ele>97</ele>
        <time>2012-12-18T19:50:38.000Z</time>
      </trkpt>
      <trkpt lat="48.86898" lon="2.35729">
        <ele>97</ele>
        <time>2012-12-18T19:50:39.000Z</time>
      </trkpt>
      <trkpt lat="48.86897" lon="2.35733">
        <ele>97</ele>
        <time>2012-12-18T19:50:40.000Z</time>
      </trkpt>
      <trkpt lat="48.86896" lon="2.35738">
        <ele>98</ele>
        <time>2012-12-18T19:50:41.000Z</time>
      </trkpt>
      <trkpt lat="48.86896" lon="2.35741">
        <ele>98</ele>
        <time>2012-12-18T19:50:42.000Z</time>
      </trkpt>
      <trkpt lat="48.86895" lon="2.35747">
        <ele>99</ele>
        <time>2012-12-18T19:50:43.000Z</time>
      </trkpt>
      <trkpt lat="48.86895" lon="2.35751">
        <ele>98</ele>
        <time>2012-12-18T19:50:44.000Z</time>
      </trkpt>
      <trkpt lat="48.86895" lon="2.35754">
        <ele>98</ele>
        <time>2012-12-18T19:50:45.000Z</time>
      </trkpt>
      <trkpt lat="48.86895" lon="2.35758">
        <ele>98</ele>
        <time>2012-12-18T19:50:46.000Z</time>
      </trkpt>
      <trkpt lat="48.86894" lon="2.35767">
        <ele>99</ele>
        <time>2012-12-18T19:50:47.000Z</time>
      </trkpt>
      <trkpt lat="48.86892" lon="2.3577">
        <ele>99</ele>
        <time>2012-12-18T19:50:48.000Z</time>
      </trkpt>
      <trkpt lat="48.86891" lon="2.35777">
        <ele>99</ele>
        <time>2012-12-18T19:50:49.000Z</time>
      </trkpt>
      <trkpt lat="48.86891" lon="2.35781">
        <ele>99</ele>
        <time>2012-12-18T19:50:50.000Z</time>
      </trkpt>
      <trkpt lat="48.86892" lon="2.35787">
        <ele>99</ele>
        <time>2012-12-18T19:50:51.000Z</time>
      </trkpt>
      <trkpt lat="48.8689" lon="2.35791">
        <ele>99</ele>
        <time>2012-12-18T19:50:52.000Z</time>
      </trkpt>
      <trkpt lat="48.86889" lon="2.35799">
        <ele>99</ele>
        <time>2012-12-18T19:50:53.000Z</time>
      </trkpt>
      <trkpt lat="48.86883" lon="2.35806">
        <ele>99</ele>
        <time>2012-12-18T19:50:54.000Z</time>
      </trkpt>
      <trkpt lat="48.86885" lon="2.35812">
        <ele>98</ele>
        <time>2012-12-18T19:50:55.000Z</time>
      </trkpt>
      <trkpt lat="48.86885" lon="2.35817">
        <ele>98</ele>
        <time>2012-12-18T19:50:56.000Z</time>
      </trkpt>
      <trkpt lat="48.86883" lon="2.35824">
        <ele>98</ele>
        <time>2012-12-18T19:50:57.000Z</time>
      </trkpt>
      <trkpt lat="48.86883" lon="2.35831">
        <ele>98</ele>
        <time>2012-12-18T19:50:58.000Z</time>
      </trkpt>
      <trkpt lat="48.86881" lon="2.35839">
        <ele>98</ele>
        <time>2012-12-18T19:50:59.000Z</time>
      </trkpt>
      <trkpt lat="48.86879" lon="2.35846">
        <ele>97</ele>
        <time>2012-12-18T19:51:00.000Z</time>
      </trkpt>
      <trkpt lat="48.86879" lon="2.3585">
        <ele>98</ele>
        <time>2012-12-18T19:51:01.000Z</time>
      </trkpt>
      <trkpt lat="48.86878" lon="2.35857">
        <ele>99</ele>
        <time>2012-12-18T19:51:02.000Z</time>
      </trkpt>
      <trkpt lat="48.86877" lon="2.35861">
        <ele>99</ele>
        <time>2012-12-18T19:51:03.000Z</time>
      </trkpt>
      <trkpt lat="48.86879" lon="2.35865">
        <ele>98</ele>
        <time>2012-12-18T19:51:04.000Z</time>
      </trkpt>
      <trkpt lat="48.86877" lon="2.35871">
        <ele>99</ele>
        <time>2012-12-18T19:51:05.000Z</time>
      </trkpt>
      <trkpt lat="48.86875" lon="2.35876">
        <ele>99</ele>
        <time>2012-12-18T19:51:06.000Z</time>
      </trkpt>
      <trkpt lat="48.86875" lon="2.35879">
        <ele>100</ele>
        <time>2012-12-18T19:51:07.000Z</time>
      </trkpt>
      <trkpt lat="48.86878" lon="2.35882">
        <ele>100</ele>
        <time>2012-12-18T19:51:08.000Z</time>
      </trkpt>
      <trkpt lat="48.86878" lon="2.35888">
        <ele>100</ele>
        <time>2012-12-18T19:51:10.000Z</time>
      </trkpt>
      <trkpt lat="48.86878" lon="2.35891">
        <ele>100</ele>
        <time>2012-12-18T19:51:11.000Z</time>
      </trkpt>
      <trkpt lat="48.86879" lon="2.35897">
        <ele>99</ele>
        <time>2012-12-18T19:51:13.000Z</time>
      </trkpt>
      <trkpt lat="48.86879" lon="2.35902">
        <ele>100</ele>
        <time>2012-12-18T19:51:14.000Z</time>
      </trkpt>
      <trkpt lat="48.86879" lon="2.35907">
        <ele>99</ele>
        <time>2012-12-18T19:51:15.000Z</time>
      </trkpt>
      <trkpt lat="48.86878" lon="2.35911">
        <ele>99</ele>
        <time>2012-12-18T19:51:16.000Z</time>
      </trkpt>
      <trkpt lat="48.86875" lon="2.35916">
        <ele>99</ele>
        <time>2012-12-18T19:51:17.000Z</time>
      </trkpt>
      <trkpt lat="48.86875" lon="2.3592">
        <ele>99</ele>
        <time>2012-12-18T19:51:18.000Z</time>
      </trkpt>
      <trkpt lat="48.86875" lon="2.35925">
        <ele>99</ele>
        <time>2012-12-18T19:51:20.000Z</time>
      </trkpt>
      <trkpt lat="48.86873" lon="2.35931">
        <ele>99</ele>
        <time>2012-12-18T19:51:21.000Z</time>
      </trkpt>
      <trkpt lat="48.86872" lon="2.35935">
        <ele>100</ele>
        <time>2012-12-18T19:51:22.000Z</time>
      </trkpt>
      <trkpt lat="48.86864" lon="2.3595">
        <ele>102</ele>
        <time>2012-12-18T19:51:23.000Z</time>
      </trkpt>
      <trkpt lat="48.86863" lon="2.35954">
        <ele>101</ele>
        <time>2012-12-18T19:51:24.000Z</time>
      </trkpt>
      <trkpt lat="48.86863" lon="2.35958">
        <ele>101</ele>
        <time>2012-12-18T19:51:25.000Z</time>
      </trkpt>
      <trkpt lat="48.86863" lon="2.35963">
        <ele>101</ele>
        <time>2012-12-18T19:51:26.000Z</time>
      </trkpt>
      <trkpt lat="48.86863" lon="2.35966">
        <ele>101</ele>
        <time>2012-12-18T19:51:27.000Z</time>
      </trkpt>
      <trkpt lat="48.8686" lon="2.35971">
        <ele>101</ele>
        <time>2012-12-18T19:51:28.000Z</time>
      </trkpt>
      <trkpt lat="48.86858" lon="2.35976">
        <ele>101</ele>
        <time>2012-12-18T19:51:29.000Z</time>
      </trkpt>
      <trkpt lat="48.86859" lon="2.3598">
        <ele>101</ele>
        <time>2012-12-18T19:51:30.000Z</time>
      </trkpt>
      <trkpt lat="48.86859" lon="2.35985">
        <ele>101</ele>
        <time>2012-12-18T19:51:31.000Z</time>
      </trkpt>
      <trkpt lat="48.86858" lon="2.3599">
        <ele>101</ele>
        <time>2012-12-18T19:51:32.000Z</time>
      </trkpt>
      <trkpt lat="48.86857" lon="2.35996">
        <ele>101</ele>
        <time>2012-12-18T19:51:33.000Z</time>
      </trkpt>
      <trkpt lat="48.86856" lon="2.36001">
        <ele>101</ele>
        <time>2012-12-18T19:51:34.000Z</time>
      </trkpt>
      <trkpt lat="48.86852" lon="2.36005">
        <ele>100</ele>
        <time>2012-12-18T19:51:35.000Z</time>
      </trkpt>
      <trkpt lat="48.86851" lon="2.36011">
        <ele>99</ele>
        <time>2012-12-18T19:51:36.000Z</time>
      </trkpt>
      <trkpt lat="48.86845" lon="2.36018">
        <ele>99</ele>
        <time>2012-12-18T19:51:37.000Z</time>
      </trkpt>
      <trkpt lat="48.86841" lon="2.36024">
        <ele>99</ele>
        <time>2012-12-18T19:51:38.000Z</time>
      </trkpt>
      <trkpt lat="48.86844" lon="2.36026">
        <ele>100</ele>
        <time>2012-12-18T19:51:39.000Z</time>
      </trkpt>
      <trkpt lat="48.86843" lon="2.36032">
        <ele>101</ele>
        <time>2012-12-18T19:51:40.000Z</time>
      </trkpt>
      <trkpt lat="48.86841" lon="2.36038">
        <ele>102</ele>
        <time>2012-12-18T19:51:41.000Z</time>
      </trkpt>
      <trkpt lat="48.8684" lon="2.36042">
        <ele>102</ele>
        <time>2012-12-18T19:51:42.000Z</time>
      </trkpt>
      <trkpt lat="48.86838" lon="2.36048">
        <ele>102</ele>
        <time>2012-12-18T19:51:43.000Z</time>
      </trkpt>
      <trkpt lat="48.86835" lon="2.36052">
        <ele>102</ele>
        <time>2012-12-18T19:51:44.000Z</time>
      </trkpt>
      <trkpt lat="48.86835" lon="2.36055">
        <ele>102</ele>
        <time>2012-12-18T19:51:45.000Z</time>
      </trkpt>
      <trkpt lat="48.86835" lon="2.3606">
        <ele>102</ele>
        <time>2012-12-18T19:51:46.000Z</time>
      </trkpt>
      <trkpt lat="48.86836" lon="2.36064">
        <ele>101</ele>
        <time>2012-12-18T19:51:47.000Z</time>
      </trkpt>
      <trkpt lat="48.86839" lon="2.36065">
        <ele>101</ele>
        <time>2012-12-18T19:51:48.000Z</time>
      </trkpt>
      <trkpt lat="48.86836" lon="2.36069">
        <ele>101</ele>
        <time>2012-12-18T19:51:49.000Z</time>
      </trkpt>
      <trkpt lat="48.86836" lon="2.36071">
        <ele>101</ele>
        <time>2012-12-18T19:51:50.000Z</time>
      </trkpt>
      <trkpt lat="48.86836" lon="2.36074">
        <ele>101</ele>
        <time>2012-12-18T19:51:51.000Z</time>
      </trkpt>
      <trkpt lat="48.86836" lon="2.36079">
        <ele>101</ele>
        <time>2012-12-18T19:51:52.000Z</time>
      </trkpt>
      <trkpt lat="48.86837" lon="2.36083">
        <ele>101</ele>
        <time>2012-12-18T19:51:53.000Z</time>
      </trkpt>
      <trkpt lat="48.86836" lon="2.36089">
        <ele>101</ele>
        <time>2012-12-18T19:51:54.000Z</time>
      </trkpt>
      <trkpt lat="48.86834" lon="2.36098">
        <ele>101</ele>
        <time>2012-12-18T19:51:55.000Z</time>
      </trkpt>
      <trkpt lat="48.86833" lon="2.36103">
        <ele>101</ele>
        <time>2012-12-18T19:51:56.000Z</time>
      </trkpt>
      <trkpt lat="48.86837" lon="2.36105">
        <ele>101</ele>
        <time>2012-12-18T19:51:57.000Z</time>
      </trkpt>
      <trkpt lat="48.86838" lon="2.3611">
        <ele>101</ele>
        <time>2012-12-18T19:51:58.000Z</time>
      </trkpt>
      <trkpt lat="48.86831" lon="2.36119">
        <ele>99</ele>
        <time>2012-12-18T19:51:59.000Z</time>
      </trkpt>
      <trkpt lat="48.86828" lon="2.36128">
        <ele>99</ele>
        <time>2012-12-18T19:52:00.000Z</time>
      </trkpt>
      <trkpt lat="48.86826" lon="2.36134">
        <ele>98</ele>
        <time>2012-12-18T19:52:01.000Z</time>
      </trkpt>
      <trkpt lat="48.86826" lon="2.36138">
        <ele>98</ele>
        <time>2012-12-18T19:52:02.000Z</time>
      </trkpt>
      <trkpt lat="48.86828" lon="2.36142">
        <ele>98</ele>
        <time>2012-12-18T19:52:03.000Z</time>
      </trkpt>
      <trkpt lat="48.86826" lon="2.36145">
        <ele>98</ele>
        <time>2012-12-18T19:52:04.000Z</time>
      </trkpt>
      <trkpt lat="48.86824" lon="2.36148">
        <ele>98</ele>
        <time>2012-12-18T19:52:05.000Z</time>
      </trkpt>
      <trkpt lat="48.86824" lon="2.36152">
        <ele>98</ele>
        <time>2012-12-18T19:52:06.000Z</time>
      </trkpt>
      <trkpt lat="48.86822" lon="2.36155">
        <ele>99</ele>
        <time>2012-12-18T19:52:07.000Z</time>
      </trkpt>
      <trkpt lat="48.86826" lon="2.36158">
        <ele>98</ele>
        <time>2012-12-18T19:52:08.000Z</time>
      </trkpt>
      <trkpt lat="48.86826" lon="2.36163">
        <ele>99</ele>
        <time>2012-12-18T19:52:09.000Z</time>
      </trkpt>
      <trkpt lat="48.86829" lon="2.36171">
        <ele>99</ele>
        <time>2012-12-18T19:52:10.000Z</time>
      </trkpt>
      <trkpt lat="48.86826" lon="2.36179">
        <ele>99</ele>
        <time>2012-12-18T19:52:11.000Z</time>
      </trkpt>
      <trkpt lat="48.86824" lon="2.36185">
        <ele>99</ele>
        <time>2012-12-18T19:52:12.000Z</time>
      </trkpt>
      <trkpt lat="48.86822" lon="2.36189">
        <ele>97</ele>
        <time>2012-12-18T19:52:13.000Z</time>
      </trkpt>
      <trkpt lat="48.86819" lon="2.36193">
        <ele>97</ele>
        <time>2012-12-18T19:52:14.000Z</time>
      </trkpt>
      <trkpt lat="48.86819" lon="2.36195">
        <ele>96</ele>
        <time>2012-12-18T19:52:15.000Z</time>
      </trkpt>
      <trkpt lat="48.86815" lon="2.36194">
        <ele>95</ele>
        <time>2012-12-18T19:52:17.000Z</time>
      </trkpt>
      <trkpt lat="48.86814" lon="2.36195">
        <ele>95</ele>
        <time>2012-12-18T19:52:18.000Z</time>
      </trkpt>
      <trkpt lat="48.86812" lon="2.36201">
        <ele>92</ele>
        <time>2012-12-18T19:52:37.000Z</time>
      </trkpt>
      <trkpt lat="48.86811" lon="2.36202">
        <ele>91</ele>
        <time>2012-12-18T19:52:38.000Z</time>
      </trkpt>
      <trkpt lat="48.86812" lon="2.36207">
        <ele>90</ele>
        <time>2012-12-18T19:52:58.000Z</time>
      </trkpt>
      <trkpt lat="48.86809" lon="2.36209">
        <ele>90</ele>
        <time>2012-12-18T19:52:59.000Z</time>
      </trkpt>
      <trkpt lat="48.8681" lon="2.3621">
        <ele>90</ele>
        <time>2012-12-18T19:53:00.000Z</time>
      </trkpt>
      <trkpt lat="48.86804" lon="2.36212">
        <ele>89</ele>
        <time>2012-12-18T19:53:01.000Z</time>
      </trkpt>
      <trkpt lat="48.86799" lon="2.36211">
        <ele>87</ele>
        <time>2012-12-18T19:53:05.000Z</time>
      </trkpt>
      <trkpt lat="48.86799" lon="2.36211">
        <ele>87</ele>
        <time>2012-12-18T19:53:06.000Z</time>
      </trkpt>
      <trkpt lat="48.86802" lon="2.36207">
        <ele>86</ele>
        <time>2012-12-18T19:53:21.000Z</time>
      </trkpt>
      <trkpt lat="48.86804" lon="2.36209">
        <ele>86</ele>
        <time>2012-12-18T19:53:22.000Z</time>
      </trkpt>
      <trkpt lat="48.86807" lon="2.36212">
        <ele>85</ele>
        <time>2012-12-18T19:53:23.000Z</time>
      </trkpt>
      <trkpt lat="48.8681" lon="2.36217">
        <ele>85</ele>
        <time>2012-12-18T19:53:24.000Z</time>
      </trkpt>
      <trkpt lat="48.86812" lon="2.36219">
        <ele>85</ele>
        <time>2012-12-18T19:53:25.000Z</time>
      </trkpt>
      <trkpt lat="48.86814" lon="2.36224">
        <ele>84</ele>
        <time>2012-12-18T19:53:26.000Z</time>
      </trkpt>
      <trkpt lat="48.86816" lon="2.36226">
        <ele>85</ele>
        <time>2012-12-18T19:53:27.000Z</time>
      </trkpt>
      <trkpt lat="48.86818" lon="2.36229">
        <ele>84</ele>
        <time>2012-12-18T19:53:28.000Z</time>
      </trkpt>
      <trkpt lat="48.8682" lon="2.36231">
        <ele>84</ele>
        <time>2012-12-18T19:53:29.000Z</time>
      </trkpt>
      <trkpt lat="48.86822" lon="2.36233">
        <ele>84</ele>
        <time>2012-12-18T19:53:30.000Z</time>
      </trkpt>
      <trkpt lat="48.86826" lon="2.36236">
        <ele>84</ele>
        <time>2012-12-18T19:53:31.000Z</time>
      </trkpt>
      <trkpt lat="48.86828" lon="2.36239">
        <ele>84</ele>
        <time>2012-12-18T19:53:32.000Z</time>
      </trkpt>
      <trkpt lat="48.8683" lon="2.36242">
        <ele>83</ele>
        <time>2012-12-18T19:53:33.000Z</time>
      </trkpt>
      <trkpt lat="48.86833" lon="2.36247">
        <ele>82</ele>
        <time>2012-12-18T19:53:34.000Z</time>
      </trkpt>
      <trkpt lat="48.86836" lon="2.36249">
        <ele>82</ele>
        <time>2012-12-18T19:53:35.000Z</time>
      </trkpt>
      <trkpt lat="48.86838" lon="2.36252">
        <ele>83</ele>
        <time>2012-12-18T19:53:36.000Z</time>
      </trkpt>
      <trkpt lat="48.86841" lon="2.36257">
        <ele>84</ele>
        <time>2012-12-18T19:53:47.000Z</time>
      </trkpt>
      <trkpt lat="48.86843" lon="2.36259">
        <ele>83</ele>
        <time>2012-12-18T19:53:48.000Z</time>
      </trkpt>
      <trkpt lat="48.86845" lon="2.36262">
        <ele>83</ele>
        <time>2012-12-18T19:53:49.000Z</time>
      </trkpt>
      <trkpt lat="48.86846" lon="2.36265">
        <ele>83</ele>
        <time>2012-12-18T19:53:50.000Z</time>
      </trkpt>
      <trkpt lat="48.86848" lon="2.36268">
        <ele>83</ele>
        <time>2012-12-18T19:53:51.000Z</time>
      </trkpt>
      <trkpt lat="48.8685" lon="2.3627">
        <ele>83</ele>
        <time>2012-12-18T19:53:52.000Z</time>
      </trkpt>
      <trkpt lat="48.86853" lon="2.36273">
        <ele>83</ele>
        <time>2012-12-18T19:53:55.000Z</time>
      </trkpt>
      <trkpt lat="48.86855" lon="2.36273">
        <ele>83</ele>
        <time>2012-12-18T19:53:56.000Z</time>
      </trkpt>
      <trkpt lat="48.86857" lon="2.36273">
        <ele>83</ele>
        <time>2012-12-18T19:53:57.000Z</time>
      </trkpt>
      <trkpt lat="48.86859" lon="2.36276">
        <ele>83</ele>
        <time>2012-12-18T19:53:58.000Z</time>
      </trkpt>
      <trkpt lat="48.8686" lon="2.36283">
        <ele>83</ele>
        <time>2012-12-18T19:54:07.000Z</time>
      </trkpt>
      <trkpt lat="48.86861" lon="2.36283">
        <ele>84</ele>
        <time>2012-12-18T19:54:08.000Z</time>
      </trkpt>
      <trkpt lat="48.86864" lon="2.36288">
        <ele>84</ele>
        <time>2012-12-18T19:54:26.000Z</time>
      </trkpt>
      <trkpt lat="48.86865" lon="2.3629">
        <ele>84</ele>
        <time>2012-12-18T19:54:27.000Z</time>
      </trkpt>
      <trkpt lat="48.86869" lon="2.36291">
        <ele>82</ele>
        <time>2012-12-18T19:54:32.000Z</time>
      </trkpt>
      <trkpt lat="48.86871" lon="2.36294">
        <ele>82</ele>
        <time>2012-12-18T19:54:33.000Z</time>
      </trkpt>
      <trkpt lat="48.86874" lon="2.36296">
        <ele>81</ele>
        <time>2012-12-18T19:54:35.000Z</time>
      </trkpt>
      <trkpt lat="48.86878" lon="2.36296">
        <ele>81</ele>
        <time>2012-12-18T19:54:36.000Z</time>
      </trkpt>
      <trkpt lat="48.86878" lon="2.36303">
        <ele>81</ele>
        <time>2012-12-18T19:54:42.000Z</time>
      </trkpt>
      <trkpt lat="48.86876" lon="2.36304">
        <ele>80</ele>
        <time>2012-12-18T19:54:43.000Z</time>
      </trkpt>
      <trkpt lat="48.86876" lon="2.36306">
        <ele>81</ele>
        <time>2012-12-18T19:54:44.000Z</time>
      </trkpt>
      <trkpt lat="48.86875" lon="2.36311">
        <ele>81</ele>
        <time>2012-12-18T19:54:45.000Z</time>
      </trkpt>
      <trkpt lat="48.86875" lon="2.36316">
        <ele>83</ele>
        <time>2012-12-18T19:54:48.000Z</time>
      </trkpt>
      <trkpt lat="48.86875" lon="2.36319">
        <ele>83</ele>
        <time>2012-12-18T19:54:49.000Z</time>
      </trkpt>
      <trkpt lat="48.86875" lon="2.3632">
        <ele>83</ele>
        <time>2012-12-18T19:54:50.000Z</time>
      </trkpt>
      <trkpt lat="48.86878" lon="2.36326">
        <ele>81</ele>
        <time>2012-12-18T19:54:51.000Z</time>
      </trkpt>
      <trkpt lat="48.86879" lon="2.3633">
        <ele>81</ele>
        <time>2012-12-18T19:54:52.000Z</time>
      </trkpt>
      <trkpt lat="48.86879" lon="2.36334">
        <ele>81</ele>
        <time>2012-12-18T19:54:53.000Z</time>
      </trkpt>
      <trkpt lat="48.86879" lon="2.36337">
        <ele>81</ele>
        <time>2012-12-18T19:54:54.000Z</time>
      </trkpt>
      <trkpt lat="48.8688" lon="2.36341">
        <ele>81</ele>
        <time>2012-12-18T19:54:55.000Z</time>
      </trkpt>
      <trkpt lat="48.86879" lon="2.36347">
        <ele>81</ele>
        <time>2012-12-18T19:54:57.000Z</time>
      </trkpt>
      <trkpt lat="48.86879" lon="2.3635">
        <ele>81</ele>
        <time>2012-12-18T19:54:58.000Z</time>
      </trkpt>
      <trkpt lat="48.86882" lon="2.36353">
        <ele>81</ele>
        <time>2012-12-18T19:54:59.000Z</time>
      </trkpt>
      <trkpt lat="48.86883" lon="2.36356">
        <ele>81</ele>
        <time>2012-12-18T19:55:00.000Z</time>
      </trkpt>
      <trkpt lat="48.86886" lon="2.36359">
        <ele>81</ele>
        <time>2012-12-18T19:55:01.000Z</time>
      </trkpt>
      <trkpt lat="48.86887" lon="2.36364">
        <ele>81</ele>
        <time>2012-12-18T19:55:02.000Z</time>
      </trkpt>
      <trkpt lat="48.8689" lon="2.36367">
        <ele>81</ele>
        <time>2012-12-18T19:55:03.000Z</time>
      </trkpt>
      <trkpt lat="48.8689" lon="2.3637">
        <ele>81</ele>
        <time>2012-12-18T19:55:04.000Z</time>
      </trkpt>
      <trkpt lat="48.86899" lon="2.36371">
        <ele>81</ele>
        <time>2012-12-18T19:55:05.000Z</time>
      </trkpt>
      <trkpt lat="48.869" lon="2.36375">
        <ele>81</ele>
        <time>2012-12-18T19:55:06.000Z</time>
      </trkpt>
      <trkpt lat="48.86902" lon="2.36378">
        <ele>81</ele>
        <time>2012-12-18T19:55:07.000Z</time>
      </trkpt>
      <trkpt lat="48.86902" lon="2.36383">
        <ele>81</ele>
        <time>2012-12-18T19:55:08.000Z</time>
      </trkpt>
      <trkpt lat="48.86905" lon="2.36387">
        <ele>81</ele>
        <time>2012-12-18T19:55:09.000Z</time>
      </trkpt>
      <trkpt lat="48.86905" lon="2.36391">
        <ele>81</ele>
        <time>2012-12-18T19:55:10.000Z</time>
      </trkpt>
      <trkpt lat="48.86908" lon="2.36395">
        <ele>80</ele>
        <time>2012-12-18T19:55:11.000Z</time>
      </trkpt>
      <trkpt lat="48.86909" lon="2.36398">
        <ele>80</ele>
        <time>2012-12-18T19:55:12.000Z</time>
      </trkpt>
      <trkpt lat="48.86911" lon="2.364">
        <ele>80</ele>
        <time>2012-12-18T19:55:13.000Z</time>
      </trkpt>
      <trkpt lat="48.86915" lon="2.36402">
        <ele>80</ele>
        <time>2012-12-18T19:55:15.000Z</time>
      </trkpt>
      <trkpt lat="48.86915" lon="2.36406">
        <ele>80</ele>
        <time>2012-12-18T19:55:16.000Z</time>
      </trkpt>
      <trkpt lat="48.86916" lon="2.36407">
        <ele>81</ele>
        <time>2012-12-18T19:55:17.000Z</time>
      </trkpt>
      <trkpt lat="48.86919" lon="2.3641">
        <ele>81</ele>
        <time>2012-12-18T19:55:18.000Z</time>
      </trkpt>
      <trkpt lat="48.86918" lon="2.36416">
        <ele>80</ele>
        <time>2012-12-18T19:55:20.000Z</time>
      </trkpt>
      <trkpt lat="48.86918" lon="2.36418">
        <ele>80</ele>
        <time>2012-12-18T19:55:21.000Z</time>
      </trkpt>
      <trkpt lat="48.86919" lon="2.36423">
        <ele>80</ele>
        <time>2012-12-18T19:55:22.000Z</time>
      </trkpt>
      <trkpt lat="48.86918" lon="2.36435">
        <ele>80</ele>
        <time>2012-12-18T19:55:23.000Z</time>
      </trkpt>
      <trkpt lat="48.86918" lon="2.36439">
        <ele>80</ele>
        <time>2012-12-18T19:55:24.000Z</time>
      </trkpt>
      <trkpt lat="48.8692" lon="2.36445">
        <ele>80</ele>
        <time>2012-12-18T19:55:25.000Z</time>
      </trkpt>
      <trkpt lat="48.86922" lon="2.36449">
        <ele>80</ele>
        <time>2012-12-18T19:55:26.000Z</time>
      </trkpt>
      <trkpt lat="48.86924" lon="2.36455">
        <ele>79</ele>
        <time>2012-12-18T19:55:27.000Z</time>
      </trkpt>
      <trkpt lat="48.86925" lon="2.3646">
        <ele>79</ele>
        <time>2012-12-18T19:55:28.000Z</time>
      </trkpt>
      <trkpt lat="48.86928" lon="2.36466">
        <ele>79</ele>
        <time>2012-12-18T19:55:29.000Z</time>
      </trkpt>
      <trkpt lat="48.86928" lon="2.3647">
        <ele>79</ele>
        <time>2012-12-18T19:55:30.000Z</time>
      </trkpt>
      <trkpt lat="48.86931" lon="2.36479">
        <ele>79</ele>
        <time>2012-12-18T19:55:31.000Z</time>
      </trkpt>
      <trkpt lat="48.86932" lon="2.36486">
        <ele>79</ele>
        <time>2012-12-18T19:55:32.000Z</time>
      </trkpt>
      <trkpt lat="48.86935" lon="2.36492">
        <ele>79</ele>
        <time>2012-12-18T19:55:33.000Z</time>
      </trkpt>
      <trkpt lat="48.86938" lon="2.36497">
        <ele>78</ele>
        <time>2012-12-18T19:55:34.000Z</time>
      </trkpt>
      <trkpt lat="48.86941" lon="2.36504">
        <ele>78</ele>
        <time>2012-12-18T19:55:35.000Z</time>
      </trkpt>
      <trkpt lat="48.86945" lon="2.3651">
        <ele>78</ele>
        <time>2012-12-18T19:55:36.000Z</time>
      </trkpt>
      <trkpt lat="48.86948" lon="2.36514">
        <ele>78</ele>
        <time>2012-12-18T19:55:37.000Z</time>
      </trkpt>
      <trkpt lat="48.86951" lon="2.3652">
        <ele>78</ele>
        <time>2012-12-18T19:55:38.000Z</time>
      </trkpt>
      <trkpt lat="48.86954" lon="2.36525">
        <ele>78</ele>
        <time>2012-12-18T19:55:39.000Z</time>
      </trkpt>
      <trkpt lat="48.86956" lon="2.3653">
        <ele>78</ele>
        <time>2012-12-18T19:55:40.000Z</time>
      </trkpt>
      <trkpt lat="48.86962" lon="2.36531">
        <ele>79</ele>
        <time>2012-12-18T19:55:41.000Z</time>
      </trkpt>
      <trkpt lat="48.86964" lon="2.36534">
        <ele>79</ele>
        <time>2012-12-18T19:55:42.000Z</time>
      </trkpt>
      <trkpt lat="48.86964" lon="2.36538">
        <ele>78</ele>
        <time>2012-12-18T19:55:43.000Z</time>
      </trkpt>
      <trkpt lat="48.86966" lon="2.36541">
        <ele>78</ele>
        <time>2012-12-18T19:55:44.000Z</time>
      </trkpt>
      <trkpt lat="48.8697" lon="2.36545">
        <ele>78</ele>
        <time>2012-12-18T19:55:45.000Z</time>
      </trkpt>
      <trkpt lat="48.86971" lon="2.36547">
        <ele>78</ele>
        <time>2012-12-18T19:55:46.000Z</time>
      </trkpt>
      <trkpt lat="48.86974" lon="2.36554">
        <ele>78</ele>
        <time>2012-12-18T19:55:47.000Z</time>
      </trkpt>
      <trkpt lat="48.86974" lon="2.36558">
        <ele>78</ele>
        <time>2012-12-18T19:55:48.000Z</time>
      </trkpt>
      <trkpt lat="48.86974" lon="2.36562">
        <ele>78</ele>
        <time>2012-12-18T19:55:49.000Z</time>
      </trkpt>
      <trkpt lat="48.86976" lon="2.36566">
        <ele>78</ele>
        <time>2012-12-18T19:55:50.000Z</time>
      </trkpt>
      <trkpt lat="48.86976" lon="2.3657">
        <ele>79</ele>
        <time>2012-12-18T19:55:51.000Z</time>
      </trkpt>
      <trkpt lat="48.86977" lon="2.36573">
        <ele>79</ele>
        <time>2012-12-18T19:55:52.000Z</time>
      </trkpt>
      <trkpt lat="48.86978" lon="2.36578">
        <ele>79</ele>
        <time>2012-12-18T19:55:53.000Z</time>
      </trkpt>
      <trkpt lat="48.86979" lon="2.36581">
        <ele>79</ele>
        <time>2012-12-18T19:55:54.000Z</time>
      </trkpt>
      <trkpt lat="48.86981" lon="2.36583">
        <ele>79</ele>
        <time>2012-12-18T19:55:55.000Z</time>
      </trkpt>
      <trkpt lat="48.86982" lon="2.36588">
        <ele>79</ele>
        <time>2012-12-18T19:55:57.000Z</time>
      </trkpt>
      <trkpt lat="48.86982" lon="2.36592">
        <ele>80</ele>
        <time>2012-12-18T19:55:58.000Z</time>
      </trkpt>
      <trkpt lat="48.86981" lon="2.36598">
        <ele>80</ele>
        <time>2012-12-18T19:56:00.000Z</time>
      </trkpt>
      <trkpt lat="48.86979" lon="2.36602">
        <ele>79</ele>
        <time>2012-12-18T19:56:01.000Z</time>
      </trkpt>
      <trkpt lat="48.86979" lon="2.36609">
        <ele>78</ele>
        <time>2012-12-18T19:56:03.000Z</time>
      </trkpt>
      <trkpt lat="48.86982" lon="2.36611">
        <ele>78</ele>
        <time>2012-12-18T19:56:04.000Z</time>
      </trkpt>
      <trkpt lat="48.86981" lon="2.36614">
        <ele>77</ele>
        <time>2012-12-18T19:56:06.000Z</time>
      </trkpt>
      <trkpt lat="48.86982" lon="2.3662">
        <ele>77</ele>
        <time>2012-12-18T19:56:07.000Z</time>
      </trkpt>
      <trkpt lat="48.86981" lon="2.36626">
        <ele>78</ele>
        <time>2012-12-18T19:56:10.000Z</time>
      </trkpt>
      <trkpt lat="48.86981" lon="2.36627">
        <ele>78</ele>
        <time>2012-12-18T19:56:11.000Z</time>
      </trkpt>
      <trkpt lat="48.86981" lon="2.36634">
        <ele>79</ele>
        <time>2012-12-18T19:56:15.000Z</time>
      </trkpt>
      <trkpt lat="48.86982" lon="2.36635">
        <ele>79</ele>
        <time>2012-12-18T19:56:16.000Z</time>
      </trkpt>
      <trkpt lat="48.86985" lon="2.36638">
        <ele>84</ele>
        <time>2012-12-18T19:56:20.000Z</time>
      </trkpt>
      <trkpt lat="48.86986" lon="2.36642">
        <ele>86</ele>
        <time>2012-12-18T19:56:21.000Z</time>
      </trkpt>
      <trkpt lat="48.86989" lon="2.36644">
        <ele>87</ele>
        <time>2012-12-18T19:56:28.000Z</time>
      </trkpt>
      <trkpt lat="48.8699" lon="2.36646">
        <ele>87</ele>
        <time>2012-12-18T19:56:29.000Z</time>
      </trkpt>
      <trkpt lat="48.86991" lon="2.36652">
        <ele>82</ele>
        <time>2012-12-18T19:56:58.000Z</time>
      </trkpt>
      <trkpt lat="48.86991" lon="2.36654">
        <ele>85</ele>
        <time>2012-12-18T19:56:59.000Z</time>
      </trkpt>
      <trkpt lat="48.86989" lon="2.36655">
        <ele>85</ele>
        <time>2012-12-18T19:58:03.000Z</time>
      </trkpt>
      <trkpt lat="48.86986" lon="2.36659">
        <ele>85</ele>
        <time>2012-12-18T19:58:04.000Z</time>
      </trkpt>
      <trkpt lat="48.86987" lon="2.36665">
        <ele>84</ele>
        <time>2012-12-18T19:58:05.000Z</time>
      </trkpt>
      <trkpt lat="48.86985" lon="2.36668">
        <ele>83</ele>
        <time>2012-12-18T19:58:06.000Z</time>
      </trkpt>
      <trkpt lat="48.86983" lon="2.36673">
        <ele>83</ele>
        <time>2012-12-18T19:58:09.000Z</time>
      </trkpt>
      <trkpt lat="48.8698" lon="2.36675">
        <ele>83</ele>
        <time>2012-12-18T19:58:10.000Z</time>
      </trkpt>
      <trkpt lat="48.86978" lon="2.36678">
        <ele>82</ele>
        <time>2012-12-18T19:58:12.000Z</time>
      </trkpt>
      <trkpt lat="48.86974" lon="2.36678">
        <ele>81</ele>
        <time>2012-12-18T19:58:13.000Z</time>
      </trkpt>
      <trkpt lat="48.86975" lon="2.36682">
        <ele>81</ele>
        <time>2012-12-18T19:58:14.000Z</time>
      </trkpt>
      <trkpt lat="48.86971" lon="2.36685">
        <ele>80</ele>
        <time>2012-12-18T19:58:15.000Z</time>
      </trkpt>
      <trkpt lat="48.86968" lon="2.36685">
        <ele>80</ele>
        <time>2012-12-18T19:58:16.000Z</time>
      </trkpt>
      <trkpt lat="48.86963" lon="2.36687">
        <ele>80</ele>
        <time>2012-12-18T19:58:17.000Z</time>
      </trkpt>
      <trkpt lat="48.86962" lon="2.3669">
        <ele>79</ele>
        <time>2012-12-18T19:58:18.000Z</time>
      </trkpt>
      <trkpt lat="48.86959" lon="2.36691">
        <ele>78</ele>
        <time>2012-12-18T19:58:19.000Z</time>
      </trkpt>
      <trkpt lat="48.86955" lon="2.36692">
        <ele>77</ele>
        <time>2012-12-18T19:58:20.000Z</time>
      </trkpt>
      <trkpt lat="48.8695" lon="2.36693">
        <ele>78</ele>
        <time>2012-12-18T19:58:21.000Z</time>
      </trkpt>
      <trkpt lat="48.86947" lon="2.36696">
        <ele>77</ele>
        <time>2012-12-18T19:58:22.000Z</time>
      </trkpt>
      <trkpt lat="48.86945" lon="2.36698">
        <ele>77</ele>
        <time>2012-12-18T19:58:23.000Z</time>
      </trkpt>
      <trkpt lat="48.86942" lon="2.36699">
        <ele>76</ele>
        <time>2012-12-18T19:58:24.000Z</time>
      </trkpt>
      <trkpt lat="48.86939" lon="2.36703">
        <ele>75</ele>
        <time>2012-12-18T19:58:25.000Z</time>
      </trkpt>
      <trkpt lat="48.86937" lon="2.36707">
        <ele>74</ele>
        <time>2012-12-18T19:58:26.000Z</time>
      </trkpt>
      <trkpt lat="48.86934" lon="2.36711">
        <ele>74</ele>
        <time>2012-12-18T19:58:27.000Z</time>
      </trkpt>
      <trkpt lat="48.86932" lon="2.36716">
        <ele>74</ele>
        <time>2012-12-18T19:58:28.000Z</time>
      </trkpt>
      <trkpt lat="48.86928" lon="2.36718">
        <ele>74</ele>
        <time>2012-12-18T19:58:29.000Z</time>
      </trkpt>
      <trkpt lat="48.86925" lon="2.36722">
        <ele>74</ele>
        <time>2012-12-18T19:58:30.000Z</time>
      </trkpt>
      <trkpt lat="48.86923" lon="2.36724">
        <ele>73</ele>
        <time>2012-12-18T19:58:31.000Z</time>
      </trkpt>
      <trkpt lat="48.86922" lon="2.36727">
        <ele>73</ele>
        <time>2012-12-18T19:58:32.000Z</time>
      </trkpt>
      <trkpt lat="48.86918" lon="2.36729">
        <ele>72</ele>
        <time>2012-12-18T19:58:33.000Z</time>
      </trkpt>
      <trkpt lat="48.86917" lon="2.3673">
        <ele>73</ele>
        <time>2012-12-18T19:58:34.000Z</time>
      </trkpt>
      <trkpt lat="48.86913" lon="2.36734">
        <ele>74</ele>
        <time>2012-12-18T19:58:35.000Z</time>
      </trkpt>
      <trkpt lat="48.86911" lon="2.36737">
        <ele>74</ele>
        <time>2012-12-18T19:58:36.000Z</time>
      </trkpt>
      <trkpt lat="48.86908" lon="2.36739">
        <ele>74</ele>
        <time>2012-12-18T19:58:37.000Z</time>
      </trkpt>
      <trkpt lat="48.86907" lon="2.36741">
        <ele>75</ele>
        <time>2012-12-18T19:58:38.000Z</time>
      </trkpt>
      <trkpt lat="48.86904" lon="2.36745">
        <ele>75</ele>
        <time>2012-12-18T19:58:39.000Z</time>
      </trkpt>
      <trkpt lat="48.869" lon="2.36744">
        <ele>76</ele>
        <time>2012-12-18T19:58:40.000Z</time>
      </trkpt>
      <trkpt lat="48.86898" lon="2.36744">
        <ele>77</ele>
        <time>2012-12-18T19:58:41.000Z</time>
      </trkpt>
      <trkpt lat="48.86897" lon="2.36745">
        <ele>77</ele>
        <time>2012-12-18T19:58:42.000Z</time>
      </trkpt>
      <trkpt lat="48.86894" lon="2.36746">
        <ele>78</ele>
        <time>2012-12-18T19:58:43.000Z</time>
      </trkpt>
      <trkpt lat="48.86893" lon="2.36749">
        <ele>78</ele>
        <time>2012-12-18T19:58:46.000Z</time>
      </trkpt>
      <trkpt lat="48.86893" lon="2.36753">
        <ele>78</ele>
        <time>2012-12-18T19:58:47.000Z</time>
      </trkpt>
      <trkpt lat="48.86891" lon="2.36759">
        <ele>79</ele>
        <time>2012-12-18T19:59:32.000Z</time>
      </trkpt>
      <trkpt lat="48.86891" lon="2.36761">
        <ele>79</ele>
        <time>2012-12-18T19:59:33.000Z</time>
      </trkpt>
      <trkpt lat="48.86893" lon="2.36767">
        <ele>79</ele>
        <time>2012-12-18T19:59:35.000Z</time>
      </trkpt>
      <trkpt lat="48.86893" lon="2.36769">
        <ele>79</ele>
        <time>2012-12-18T19:59:36.000Z</time>
      </trkpt>
      <trkpt lat="48.86895" lon="2.36773">
        <ele>78</ele>
        <time>2012-12-18T19:59:38.000Z</time>
      </trkpt>
      <trkpt lat="48.86895" lon="2.36775">
        <ele>79</ele>
        <time>2012-12-18T19:59:39.000Z</time>
      </trkpt>
      <trkpt lat="48.86895" lon="2.3678">
        <ele>78</ele>
        <time>2012-12-18T19:59:43.000Z</time>
      </trkpt>
      <trkpt lat="48.86895" lon="2.36782">
        <ele>78</ele>
        <time>2012-12-18T19:59:44.000Z</time>
      </trkpt>
      <trkpt lat="48.86896" lon="2.36786">
        <ele>78</ele>
        <time>2012-12-18T19:59:45.000Z</time>
      </trkpt>
      <trkpt lat="48.86898" lon="2.36789">
        <ele>78</ele>
        <time>2012-12-18T19:59:46.000Z</time>
      </trkpt>
      <trkpt lat="48.869" lon="2.36793">
        <ele>78</ele>
        <time>2012-12-18T19:59:48.000Z</time>
      </trkpt>
      <trkpt lat="48.86901" lon="2.36795">
        <ele>78</ele>
        <time>2012-12-18T19:59:49.000Z</time>
      </trkpt>
      <trkpt lat="48.86902" lon="2.36799">
        <ele>78</ele>
        <time>2012-12-18T19:59:51.000Z</time>
      </trkpt>
      <trkpt lat="48.86903" lon="2.36803">
        <ele>78</ele>
        <time>2012-12-18T19:59:52.000Z</time>
      </trkpt>
      <trkpt lat="48.86907" lon="2.36808">
        <ele>76</ele>
        <time>2012-12-18T19:59:53.000Z</time>
      </trkpt>
      <trkpt lat="48.8691" lon="2.36811">
        <ele>75</ele>
        <time>2012-12-18T19:59:54.000Z</time>
      </trkpt>
      <trkpt lat="48.86913" lon="2.36815">
        <ele>74</ele>
        <time>2012-12-18T19:59:55.000Z</time>
      </trkpt>
      <trkpt lat="48.86914" lon="2.36819">
        <ele>74</ele>
        <time>2012-12-18T19:59:56.000Z</time>
      </trkpt>
      <trkpt lat="48.86916" lon="2.3682">
        <ele>74</ele>
        <time>2012-12-18T19:59:57.000Z</time>
      </trkpt>
      <trkpt lat="48.86917" lon="2.36826">
        <ele>74</ele>
        <time>2012-12-18T19:59:58.000Z</time>
      </trkpt>
      <trkpt lat="48.86917" lon="2.3683">
        <ele>74</ele>
        <time>2012-12-18T19:59:59.000Z</time>
      </trkpt>
      <trkpt lat="48.86919" lon="2.36835">
        <ele>74</ele>
        <time>2012-12-18T20:00:00.000Z</time>
      </trkpt>
      <trkpt lat="48.86922" lon="2.36838">
        <ele>74</ele>
        <time>2012-12-18T20:00:01.000Z</time>
      </trkpt>
      <trkpt lat="48.86921" lon="2.36841">
        <ele>75</ele>
        <time>2012-12-18T20:00:02.000Z</time>
      </trkpt>
      <trkpt lat="48.8692" lon="2.36846">
        <ele>75</ele>
        <time>2012-12-18T20:00:03.000Z</time>
      </trkpt>
      <trkpt lat="48.86918" lon="2.36852">
        <ele>75</ele>
        <time>2012-12-18T20:00:04.000Z</time>
      </trkpt>
      <trkpt lat="48.86919" lon="2.36854">
        <ele>75</ele>
        <time>2012-12-18T20:00:05.000Z</time>
      </trkpt>
      <trkpt lat="48.86921" lon="2.36857">
        <ele>75</ele>
        <time>2012-12-18T20:00:07.000Z</time>
      </trkpt>
      <trkpt lat="48.86919" lon="2.36862">
        <ele>75</ele>
        <time>2012-12-18T20:00:08.000Z</time>
      </trkpt>
      <trkpt lat="48.86922" lon="2.36866">
        <ele>76</ele>
        <time>2012-12-18T20:00:10.000Z</time>
      </trkpt>
      <trkpt lat="48.86922" lon="2.36871">
        <ele>75</ele>
        <time>2012-12-18T20:00:11.000Z</time>
      </trkpt>
      <trkpt lat="48.86924" lon="2.36876">
        <ele>76</ele>
        <time>2012-12-18T20:00:14.000Z</time>
      </trkpt>
      <trkpt lat="48.86926" lon="2.36878">
        <ele>76</ele>
        <time>2012-12-18T20:00:15.000Z</time>
      </trkpt>
      <trkpt lat="48.86927" lon="2.36881">
        <ele>76</ele>
        <time>2012-12-18T20:00:16.000Z</time>
      </trkpt>
      <trkpt lat="48.86929" lon="2.36884">
        <ele>76</ele>
        <time>2012-12-18T20:00:17.000Z</time>
      </trkpt>
      <trkpt lat="48.8693" lon="2.36885">
        <ele>76</ele>
        <time>2012-12-18T20:00:18.000Z</time>
      </trkpt>
      <trkpt lat="48.8693" lon="2.36891">
        <ele>77</ele>
        <time>2012-12-18T20:00:19.000Z</time>
      </trkpt>
      <trkpt lat="48.86927" lon="2.36895">
        <ele>78</ele>
        <time>2012-12-18T20:00:20.000Z</time>
      </trkpt>
      <trkpt lat="48.86931" lon="2.36898">
        <ele>79</ele>
        <time>2012-12-18T20:00:21.000Z</time>
      </trkpt>
      <trkpt lat="48.86934" lon="2.36902">
        <ele>79</ele>
        <time>2012-12-18T20:00:24.000Z</time>
      </trkpt>
      <trkpt lat="48.86934" lon="2.36906">
        <ele>79</ele>
        <time>2012-12-18T20:00:25.000Z</time>
      </trkpt>
      <trkpt lat="48.86935" lon="2.3691">
        <ele>80</ele>
        <time>2012-12-18T20:00:27.000Z</time>
      </trkpt>
      <trkpt lat="48.86939" lon="2.36915">
        <ele>82</ele>
        <time>2012-12-18T20:00:28.000Z</time>
      </trkpt>
      <trkpt lat="48.86939" lon="2.36921">
        <ele>83</ele>
        <time>2012-12-18T20:00:29.000Z</time>
      </trkpt>
      <trkpt lat="48.86941" lon="2.36925">
        <ele>83</ele>
        <time>2012-12-18T20:00:30.000Z</time>
      </trkpt>
      <trkpt lat="48.86944" lon="2.36929">
        <ele>84</ele>
        <time>2012-12-18T20:00:31.000Z</time>
      </trkpt>
      <trkpt lat="48.86946" lon="2.36935">
        <ele>84</ele>
        <time>2012-12-18T20:00:32.000Z</time>
      </trkpt>
      <trkpt lat="48.86947" lon="2.3694">
        <ele>83</ele>
        <time>2012-12-18T20:00:33.000Z</time>
      </trkpt>
      <trkpt lat="48.86948" lon="2.36944">
        <ele>83</ele>
        <time>2012-12-18T20:00:34.000Z</time>
      </trkpt>
      <trkpt lat="48.8695" lon="2.36947">
        <ele>83</ele>
        <time>2012-12-18T20:00:35.000Z</time>
      </trkpt>
      <trkpt lat="48.86952" lon="2.36951">
        <ele>84</ele>
        <time>2012-12-18T20:00:36.000Z</time>
      </trkpt>
      <trkpt lat="48.86955" lon="2.36954">
        <ele>84</ele>
        <time>2012-12-18T20:00:37.000Z</time>
      </trkpt>
      <trkpt lat="48.86956" lon="2.36958">
        <ele>84</ele>
        <time>2012-12-18T20:00:38.000Z</time>
      </trkpt>
      <trkpt lat="48.86957" lon="2.36964">
        <ele>84</ele>
        <time>2012-12-18T20:00:40.000Z</time>
      </trkpt>
      <trkpt lat="48.8696" lon="2.36967">
        <ele>85</ele>
        <time>2012-12-18T20:00:41.000Z</time>
      </trkpt>
      <trkpt lat="48.86962" lon="2.36972">
        <ele>85</ele>
        <time>2012-12-18T20:00:43.000Z</time>
      </trkpt>
      <trkpt lat="48.86963" lon="2.36975">
        <ele>85</ele>
        <time>2012-12-18T20:00:44.000Z</time>
      </trkpt>
      <trkpt lat="48.86968" lon="2.36977">
        <ele>86</ele>
        <time>2012-12-18T20:00:45.000Z</time>
      </trkpt>
      <trkpt lat="48.8697" lon="2.3698">
        <ele>85</ele>
        <time>2012-12-18T20:00:46.000Z</time>
      </trkpt>
      <trkpt lat="48.86974" lon="2.36983">
        <ele>86</ele>
        <time>2012-12-18T20:00:47.000Z</time>
      </trkpt>
      <trkpt lat="48.86974" lon="2.36987">
        <ele>85</ele>
        <time>2012-12-18T20:00:48.000Z</time>
      </trkpt>
      <trkpt lat="48.86975" lon="2.3699">
        <ele>85</ele>
        <time>2012-12-18T20:00:49.000Z</time>
      </trkpt>
      <trkpt lat="48.86976" lon="2.36994">
        <ele>85</ele>
        <time>2012-12-18T20:00:50.000Z</time>
      </trkpt>
      <trkpt lat="48.86978" lon="2.36995">
        <ele>85</ele>
        <time>2012-12-18T20:00:51.000Z</time>
      </trkpt>
      <trkpt lat="48.86979" lon="2.36998">
        <ele>85</ele>
        <time>2012-12-18T20:00:52.000Z</time>
      </trkpt>
      <trkpt lat="48.86983" lon="2.37001">
        <ele>85</ele>
        <time>2012-12-18T20:00:53.000Z</time>
      </trkpt>
      <trkpt lat="48.86984" lon="2.37005">
        <ele>85</ele>
        <time>2012-12-18T20:00:54.000Z</time>
      </trkpt>
      <trkpt lat="48.86985" lon="2.37008">
        <ele>85</ele>
        <time>2012-12-18T20:00:55.000Z</time>
      </trkpt>
      <trkpt lat="48.86985" lon="2.37012">
        <ele>85</ele>
        <time>2012-12-18T20:00:56.000Z</time>
      </trkpt>
      <trkpt lat="48.86988" lon="2.37015">
        <ele>85</ele>
        <time>2012-12-18T20:00:57.000Z</time>
      </trkpt>
      <trkpt lat="48.8699" lon="2.37019">
        <ele>85</ele>
        <time>2012-12-18T20:00:58.000Z</time>
      </trkpt>
      <trkpt lat="48.86993" lon="2.37024">
        <ele>85</ele>
        <time>2012-12-18T20:00:59.000Z</time>
      </trkpt>
      <trkpt lat="48.86994" lon="2.37026">
        <ele>85</ele>
        <time>2012-12-18T20:01:00.000Z</time>
      </trkpt>
      <trkpt lat="48.86996" lon="2.37034">
        <ele>85</ele>
        <time>2012-12-18T20:01:01.000Z</time>
      </trkpt>
      <trkpt lat="48.86996" lon="2.37039">
        <ele>85</ele>
        <time>2012-12-18T20:01:02.000Z</time>
      </trkpt>
      <trkpt lat="48.86999" lon="2.37045">
        <ele>86</ele>
        <time>2012-12-18T20:01:03.000Z</time>
      </trkpt>
      <trkpt lat="48.87002" lon="2.37048">
        <ele>86</ele>
        <time>2012-12-18T20:01:04.000Z</time>
      </trkpt>
      <trkpt lat="48.87006" lon="2.37051">
        <ele>86</ele>
        <time>2012-12-18T20:01:05.000Z</time>
      </trkpt>
      <trkpt lat="48.87007" lon="2.37055">
        <ele>87</ele>
        <time>2012-12-18T20:01:06.000Z</time>
      </trkpt>
      <trkpt lat="48.87008" lon="2.37061">
        <ele>87</ele>
        <time>2012-12-18T20:01:07.000Z</time>
      </trkpt>
      <trkpt lat="48.87011" lon="2.37067">
        <ele>88</ele>
        <time>2012-12-18T20:01:09.000Z</time>
      </trkpt>
      <trkpt lat="48.87011" lon="2.3707">
        <ele>87</ele>
        <time>2012-12-18T20:01:10.000Z</time>
      </trkpt>
      <trkpt lat="48.87013" lon="2.37076">
        <ele>88</ele>
        <time>2012-12-18T20:01:12.000Z</time>
      </trkpt>
      <trkpt lat="48.87011" lon="2.37079">
        <ele>89</ele>
        <time>2012-12-18T20:01:13.000Z</time>
      </trkpt>
      <trkpt lat="48.87012" lon="2.37083">
        <ele>90</ele>
        <time>2012-12-18T20:01:14.000Z</time>
      </trkpt>
      <trkpt lat="48.87009" lon="2.37088">
        <ele>91</ele>
        <time>2012-12-18T20:01:15.000Z</time>
      </trkpt>
      <trkpt lat="48.87008" lon="2.37094">
        <ele>91</ele>
        <time>2012-12-18T20:01:18.000Z</time>
      </trkpt>
      <trkpt lat="48.87006" lon="2.37096">
        <ele>91</ele>
        <time>2012-12-18T20:01:19.000Z</time>
      </trkpt>
      <trkpt lat="48.87003" lon="2.371">
        <ele>90</ele>
        <time>2012-12-18T20:01:20.000Z</time>
      </trkpt>
      <trkpt lat="48.86999" lon="2.37103">
        <ele>89</ele>
        <time>2012-12-18T20:01:21.000Z</time>
      </trkpt>
      <trkpt lat="48.86997" lon="2.37109">
        <ele>96</ele>
        <time>2012-12-18T20:01:53.000Z</time>
      </trkpt>
      <trkpt lat="48.86996" lon="2.37109">
        <ele>97</ele>
        <time>2012-12-18T20:01:54.000Z</time>
      </trkpt>
      <trkpt lat="48.86992" lon="2.37109">
        <ele>103</ele>
        <time>2012-12-18T20:02:30.000Z</time>
      </trkpt>
      <trkpt lat="48.86991" lon="2.37108">
        <ele>103</ele>
        <time>2012-12-18T20:02:31.000Z</time>
      </trkpt>
      <trkpt lat="48.86991" lon="2.37102">
        <ele>103</ele>
        <time>2012-12-18T20:02:40.000Z</time>
      </trkpt>
      <trkpt lat="48.8699" lon="2.37101">
        <ele>104</ele>
        <time>2012-12-18T20:02:41.000Z</time>
      </trkpt>
      <trkpt lat="48.86992" lon="2.37107">
        <ele>104</ele>
        <time>2012-12-18T20:02:52.000Z</time>
      </trkpt>
      <trkpt lat="48.86994" lon="2.37109">
        <ele>103</ele>
        <time>2012-12-18T20:02:53.000Z</time>
      </trkpt>
      <trkpt lat="48.86997" lon="2.37114">
        <ele>103</ele>
        <time>2012-12-18T20:02:56.000Z</time>
      </trkpt>
      <trkpt lat="48.87" lon="2.3712">
        <ele>102</ele>
        <time>2012-12-18T20:02:57.000Z</time>
      </trkpt>
      <trkpt lat="48.87002" lon="2.37124">
        <ele>102</ele>
        <time>2012-12-18T20:02:58.000Z</time>
      </trkpt>
      <trkpt lat="48.87004" lon="2.3713">
        <ele>102</ele>
        <time>2012-12-18T20:02:59.000Z</time>
      </trkpt>
      <trkpt lat="48.87007" lon="2.37135">
        <ele>102</ele>
        <time>2012-12-18T20:03:00.000Z</time>
      </trkpt>
      <trkpt lat="48.8701" lon="2.37139">
        <ele>101</ele>
        <time>2012-12-18T20:03:01.000Z</time>
      </trkpt>
      <trkpt lat="48.87012" lon="2.37142">
        <ele>101</ele>
        <time>2012-12-18T20:03:02.000Z</time>
      </trkpt>
      <trkpt lat="48.87014" lon="2.37147">
        <ele>101</ele>
        <time>2012-12-18T20:03:03.000Z</time>
      </trkpt>
      <trkpt lat="48.87014" lon="2.37152">
        <ele>100</ele>
        <time>2012-12-18T20:03:04.000Z</time>
      </trkpt>
      <trkpt lat="48.87015" lon="2.37156">
        <ele>99</ele>
        <time>2012-12-18T20:03:05.000Z</time>
      </trkpt>
      <trkpt lat="48.87016" lon="2.3716">
        <ele>99</ele>
        <time>2012-12-18T20:03:06.000Z</time>
      </trkpt>
      <trkpt lat="48.87018" lon="2.37164">
        <ele>99</ele>
        <time>2012-12-18T20:03:07.000Z</time>
      </trkpt>
      <trkpt lat="48.8702" lon="2.37167">
        <ele>98</ele>
        <time>2012-12-18T20:03:08.000Z</time>
      </trkpt>
      <trkpt lat="48.87021" lon="2.37172">
        <ele>98</ele>
        <time>2012-12-18T20:03:09.000Z</time>
      </trkpt>
      <trkpt lat="48.87021" lon="2.37178">
        <ele>98</ele>
        <time>2012-12-18T20:03:10.000Z</time>
      </trkpt>
      <trkpt lat="48.87022" lon="2.37183">
        <ele>98</ele>
        <time>2012-12-18T20:03:11.000Z</time>
      </trkpt>
      <trkpt lat="48.87023" lon="2.37187">
        <ele>98</ele>
        <time>2012-12-18T20:03:12.000Z</time>
      </trkpt>
      <trkpt lat="48.87025" lon="2.37191">
        <ele>97</ele>
        <time>2012-12-18T20:03:13.000Z</time>
      </trkpt>
      <trkpt lat="48.87027" lon="2.37196">
        <ele>98</ele>
        <time>2012-12-18T20:03:15.000Z</time>
      </trkpt>
      <trkpt lat="48.87028" lon="2.372">
        <ele>97</ele>
        <time>2012-12-18T20:03:16.000Z</time>
      </trkpt>
      <trkpt lat="48.87029" lon="2.37203">
        <ele>97</ele>
        <time>2012-12-18T20:03:17.000Z</time>
      </trkpt>
      <trkpt lat="48.8703" lon="2.37206">
        <ele>97</ele>
        <time>2012-12-18T20:03:18.000Z</time>
      </trkpt>
      <trkpt lat="48.87031" lon="2.37208">
        <ele>97</ele>
        <time>2012-12-18T20:03:19.000Z</time>
      </trkpt>
      <trkpt lat="48.87033" lon="2.37212">
        <ele>96</ele>
        <time>2012-12-18T20:03:20.000Z</time>
      </trkpt>
      <trkpt lat="48.87034" lon="2.37219">
        <ele>96</ele>
        <time>2012-12-18T20:03:21.000Z</time>
      </trkpt>
      <trkpt lat="48.87036" lon="2.37226">
        <ele>96</ele>
        <time>2012-12-18T20:03:22.000Z</time>
      </trkpt>
      <trkpt lat="48.87037" lon="2.3723">
        <ele>96</ele>
        <time>2012-12-18T20:03:23.000Z</time>
      </trkpt>
      <trkpt lat="48.87038" lon="2.37234">
        <ele>96</ele>
        <time>2012-12-18T20:03:24.000Z</time>
      </trkpt>
      <trkpt lat="48.87039" lon="2.37239">
        <ele>95</ele>
        <time>2012-12-18T20:03:25.000Z</time>
      </trkpt>
      <trkpt lat="48.8704" lon="2.37242">
        <ele>95</ele>
        <time>2012-12-18T20:03:26.000Z</time>
      </trkpt>
      <trkpt lat="48.87042" lon="2.37245">
        <ele>95</ele>
        <time>2012-12-18T20:03:27.000Z</time>
      </trkpt>
      <trkpt lat="48.87044" lon="2.37252">
        <ele>95</ele>
        <time>2012-12-18T20:03:28.000Z</time>
      </trkpt>
      <trkpt lat="48.87047" lon="2.37256">
        <ele>95</ele>
        <time>2012-12-18T20:03:29.000Z</time>
      </trkpt>
      <trkpt lat="48.87049" lon="2.37261">
        <ele>95</ele>
        <time>2012-12-18T20:03:30.000Z</time>
      </trkpt>
      <trkpt lat="48.87049" lon="2.37264">
        <ele>94</ele>
        <time>2012-12-18T20:03:31.000Z</time>
      </trkpt>
      <trkpt lat="48.87049" lon="2.37268">
        <ele>95</ele>
        <time>2012-12-18T20:03:32.000Z</time>
      </trkpt>
      <trkpt lat="48.87051" lon="2.37275">
        <ele>96</ele>
        <time>2012-12-18T20:03:33.000Z</time>
      </trkpt>
      <trkpt lat="48.87051" lon="2.37281">
        <ele>97</ele>
        <time>2012-12-18T20:03:34.000Z</time>
      </trkpt>
      <trkpt lat="48.87053" lon="2.37284">
        <ele>98</ele>
        <time>2012-12-18T20:03:35.000Z</time>
      </trkpt>
      <trkpt lat="48.87056" lon="2.37289">
        <ele>99</ele>
        <time>2012-12-18T20:03:37.000Z</time>
      </trkpt>
      <trkpt lat="48.87058" lon="2.3729">
        <ele>99</ele>
        <time>2012-12-18T20:03:38.000Z</time>
      </trkpt>
      <trkpt lat="48.8706" lon="2.37294">
        <ele>98</ele>
        <time>2012-12-18T20:03:40.000Z</time>
      </trkpt>
      <trkpt lat="48.87062" lon="2.37297">
        <ele>98</ele>
        <time>2012-12-18T20:03:41.000Z</time>
      </trkpt>
      <trkpt lat="48.87062" lon="2.37299">
        <ele>97</ele>
        <time>2012-12-18T20:03:42.000Z</time>
      </trkpt>
      <trkpt lat="48.87064" lon="2.37303">
        <ele>97</ele>
        <time>2012-12-18T20:03:43.000Z</time>
      </trkpt>
      <trkpt lat="48.87066" lon="2.37307">
        <ele>97</ele>
        <time>2012-12-18T20:03:45.000Z</time>
      </trkpt>
      <trkpt lat="48.87067" lon="2.37311">
        <ele>97</ele>
        <time>2012-12-18T20:03:46.000Z</time>
      </trkpt>
      <trkpt lat="48.87067" lon="2.37317">
        <ele>98</ele>
        <time>2012-12-18T20:03:47.000Z</time>
      </trkpt>
      <trkpt lat="48.87068" lon="2.37321">
        <ele>97</ele>
        <time>2012-12-18T20:03:48.000Z</time>
      </trkpt>
      <trkpt lat="48.8707" lon="2.37324">
        <ele>96</ele>
        <time>2012-12-18T20:03:49.000Z</time>
      </trkpt>
      <trkpt lat="48.87071" lon="2.37327">
        <ele>96</ele>
        <time>2012-12-18T20:03:50.000Z</time>
      </trkpt>
      <trkpt lat="48.87073" lon="2.37333">
        <ele>96</ele>
        <time>2012-12-18T20:03:52.000Z</time>
      </trkpt>
      <trkpt lat="48.87074" lon="2.37335">
        <ele>96</ele>
        <time>2012-12-18T20:03:53.000Z</time>
      </trkpt>
      <trkpt lat="48.87075" lon="2.37339">
        <ele>96</ele>
        <time>2012-12-18T20:03:54.000Z</time>
      </trkpt>
      <trkpt lat="48.87075" lon="2.37342">
        <ele>96</ele>
        <time>2012-12-18T20:03:55.000Z</time>
      </trkpt>
      <trkpt lat="48.87077" lon="2.37347">
        <ele>96</ele>
        <time>2012-12-18T20:03:56.000Z</time>
      </trkpt>
      <trkpt lat="48.87077" lon="2.37349">
        <ele>96</ele>
        <time>2012-12-18T20:03:57.000Z</time>
      </trkpt>
      <trkpt lat="48.87077" lon="2.37352">
        <ele>96</ele>
        <time>2012-12-18T20:03:58.000Z</time>
      </trkpt>
      <trkpt lat="48.87079" lon="2.37355">
        <ele>96</ele>
        <time>2012-12-18T20:03:59.000Z</time>
      </trkpt>
      <trkpt lat="48.8708" lon="2.37358">
        <ele>96</ele>
        <time>2012-12-18T20:04:00.000Z</time>
      </trkpt>
      <trkpt lat="48.8708" lon="2.37363">
        <ele>96</ele>
        <time>2012-12-18T20:04:01.000Z</time>
      </trkpt>
      <trkpt lat="48.87084" lon="2.37364">
        <ele>96</ele>
        <time>2012-12-18T20:04:02.000Z</time>
      </trkpt>
      <trkpt lat="48.87086" lon="2.37368">
        <ele>96</ele>
        <time>2012-12-18T20:04:03.000Z</time>
      </trkpt>
      <trkpt lat="48.87084" lon="2.37372">
        <ele>96</ele>
        <time>2012-12-18T20:04:04.000Z</time>
      </trkpt>
      <trkpt lat="48.87092" lon="2.37373">
        <ele>96</ele>
        <time>2012-12-18T20:04:05.000Z</time>
      </trkpt>
      <trkpt lat="48.87092" lon="2.3738">
        <ele>97</ele>
        <time>2012-12-18T20:04:07.000Z</time>
      </trkpt>
      <trkpt lat="48.87093" lon="2.3738">
        <ele>97</ele>
        <time>2012-12-18T20:04:08.000Z</time>
      </trkpt>
      <trkpt lat="48.87094" lon="2.37385">
        <ele>97</ele>
        <time>2012-12-18T20:04:10.000Z</time>
      </trkpt>
      <trkpt lat="48.87095" lon="2.37388">
        <ele>97</ele>
        <time>2012-12-18T20:04:11.000Z</time>
      </trkpt>
      <trkpt lat="48.87097" lon="2.37393">
        <ele>98</ele>
        <time>2012-12-18T20:04:13.000Z</time>
      </trkpt>
      <trkpt lat="48.87099" lon="2.37397">
        <ele>98</ele>
        <time>2012-12-18T20:04:14.000Z</time>
      </trkpt>
      <trkpt lat="48.871" lon="2.37401">
        <ele>98</ele>
        <time>2012-12-18T20:04:15.000Z</time>
      </trkpt>
      <trkpt lat="48.87103" lon="2.37403">
        <ele>97</ele>
        <time>2012-12-18T20:04:16.000Z</time>
      </trkpt>
      <trkpt lat="48.87106" lon="2.37406">
        <ele>97</ele>
        <time>2012-12-18T20:04:17.000Z</time>
      </trkpt>
      <trkpt lat="48.87106" lon="2.3741">
        <ele>97</ele>
        <time>2012-12-18T20:04:18.000Z</time>
      </trkpt>
      <trkpt lat="48.87109" lon="2.37413">
        <ele>97</ele>
        <time>2012-12-18T20:04:19.000Z</time>
      </trkpt>
      <trkpt lat="48.87114" lon="2.37414">
        <ele>98</ele>
        <time>2012-12-18T20:04:20.000Z</time>
      </trkpt>
      <trkpt lat="48.87117" lon="2.37415">
        <ele>99</ele>
        <time>2012-12-18T20:04:21.000Z</time>
      </trkpt>
      <trkpt lat="48.87118" lon="2.37417">
        <ele>99</ele>
        <time>2012-12-18T20:04:22.000Z</time>
      </trkpt>
      <trkpt lat="48.87118" lon="2.37423">
        <ele>98</ele>
        <time>2012-12-18T20:04:24.000Z</time>
      </trkpt>
      <trkpt lat="48.8712" lon="2.37426">
        <ele>98</ele>
        <time>2012-12-18T20:04:25.000Z</time>
      </trkpt>
      <trkpt lat="48.87122" lon="2.3743">
        <ele>98</ele>
        <time>2012-12-18T20:04:26.000Z</time>
      </trkpt>
      <trkpt lat="48.87123" lon="2.37433">
        <ele>98</ele>
        <time>2012-12-18T20:04:27.000Z</time>
      </trkpt>
      <trkpt lat="48.87125" lon="2.37437">
        <ele>98</ele>
        <time>2012-12-18T20:04:28.000Z</time>
      </trkpt>
      <trkpt lat="48.87126" lon="2.37441">
        <ele>98</ele>
        <time>2012-12-18T20:04:29.000Z</time>
      </trkpt>
      <trkpt lat="48.87128" lon="2.37447">
        <ele>98</ele>
        <time>2012-12-18T20:04:31.000Z</time>
      </trkpt>
      <trkpt lat="48.87132" lon="2.37448">
        <ele>99</ele>
        <time>2012-12-18T20:04:32.000Z</time>
      </trkpt>
      <trkpt lat="48.87138" lon="2.3745">
        <ele>100</ele>
        <time>2012-12-18T20:04:33.000Z</time>
      </trkpt>
      <trkpt lat="48.8714" lon="2.37453">
        <ele>100</ele>
        <time>2012-12-18T20:04:34.000Z</time>
      </trkpt>
      <trkpt lat="48.87139" lon="2.37458">
        <ele>100</ele>
        <time>2012-12-18T20:04:35.000Z</time>
      </trkpt>
      <trkpt lat="48.87139" lon="2.37461">
        <ele>99</ele>
        <time>2012-12-18T20:04:36.000Z</time>
      </trkpt>
      <trkpt lat="48.87141" lon="2.37466">
        <ele>99</ele>
        <time>2012-12-18T20:04:37.000Z</time>
      </trkpt>
      <trkpt lat="48.87143" lon="2.3747">
        <ele>99</ele>
        <time>2012-12-18T20:04:38.000Z</time>
      </trkpt>
      <trkpt lat="48.87144" lon="2.37474">
        <ele>99</ele>
        <time>2012-12-18T20:04:39.000Z</time>
      </trkpt>
      <trkpt lat="48.87146" lon="2.37477">
        <ele>98</ele>
        <time>2012-12-18T20:04:40.000Z</time>
      </trkpt>
      <trkpt lat="48.87147" lon="2.37482">
        <ele>99</ele>
        <time>2012-12-18T20:04:41.000Z</time>
      </trkpt>
      <trkpt lat="48.87151" lon="2.37483">
        <ele>98</ele>
        <time>2012-12-18T20:04:43.000Z</time>
      </trkpt>
      <trkpt lat="48.87152" lon="2.37487">
        <ele>99</ele>
        <time>2012-12-18T20:04:44.000Z</time>
      </trkpt>
      <trkpt lat="48.87153" lon="2.3749">
        <ele>99</ele>
        <time>2012-12-18T20:04:45.000Z</time>
      </trkpt>
      <trkpt lat="48.87153" lon="2.37496">
        <ele>99</ele>
        <time>2012-12-18T20:04:46.000Z</time>
      </trkpt>
      <trkpt lat="48.87154" lon="2.37498">
        <ele>98</ele>
        <time>2012-12-18T20:04:47.000Z</time>
      </trkpt>
      <trkpt lat="48.87155" lon="2.37503">
        <ele>98</ele>
        <time>2012-12-18T20:04:48.000Z</time>
      </trkpt>
      <trkpt lat="48.87155" lon="2.37508">
        <ele>98</ele>
        <time>2012-12-18T20:04:49.000Z</time>
      </trkpt>
      <trkpt lat="48.87156" lon="2.37512">
        <ele>98</ele>
        <time>2012-12-18T20:04:50.000Z</time>
      </trkpt>
      <trkpt lat="48.87158" lon="2.37518">
        <ele>99</ele>
        <time>2012-12-18T20:04:52.000Z</time>
      </trkpt>
      <trkpt lat="48.87159" lon="2.37521">
        <ele>98</ele>
        <time>2012-12-18T20:04:53.000Z</time>
      </trkpt>
      <trkpt lat="48.87161" lon="2.37524">
        <ele>97</ele>
        <time>2012-12-18T20:04:54.000Z</time>
      </trkpt>
      <trkpt lat="48.87162" lon="2.37527">
        <ele>97</ele>
        <time>2012-12-18T20:04:55.000Z</time>
      </trkpt>
      <trkpt lat="48.87163" lon="2.37532">
        <ele>96</ele>
        <time>2012-12-18T20:04:56.000Z</time>
      </trkpt>
      <trkpt lat="48.87164" lon="2.37534">
        <ele>96</ele>
        <time>2012-12-18T20:04:57.000Z</time>
      </trkpt>
      <trkpt lat="48.87165" lon="2.37537">
        <ele>96</ele>
        <time>2012-12-18T20:04:58.000Z</time>
      </trkpt>
      <trkpt lat="48.87166" lon="2.3754">
        <ele>96</ele>
        <time>2012-12-18T20:04:59.000Z</time>
      </trkpt>
      <trkpt lat="48.87167" lon="2.37545">
        <ele>95</ele>
        <time>2012-12-18T20:05:01.000Z</time>
      </trkpt>
      <trkpt lat="48.87169" lon="2.37549">
        <ele>95</ele>
        <time>2012-12-18T20:05:02.000Z</time>
      </trkpt>
      <trkpt lat="48.8717" lon="2.37551">
        <ele>94</ele>
        <time>2012-12-18T20:05:03.000Z</time>
      </trkpt>
      <trkpt lat="48.87171" lon="2.37555">
        <ele>94</ele>
        <time>2012-12-18T20:05:04.000Z</time>
      </trkpt>
      <trkpt lat="48.87173" lon="2.37558">
        <ele>95</ele>
        <time>2012-12-18T20:05:05.000Z</time>
      </trkpt>
      <trkpt lat="48.87176" lon="2.37561">
        <ele>94</ele>
        <time>2012-12-18T20:05:06.000Z</time>
      </trkpt>
      <trkpt lat="48.87177" lon="2.37566">
        <ele>95</ele>
        <time>2012-12-18T20:05:07.000Z</time>
      </trkpt>
      <trkpt lat="48.87178" lon="2.3757">
        <ele>97</ele>
        <time>2012-12-18T20:05:08.000Z</time>
      </trkpt>
      <trkpt lat="48.8717" lon="2.37577">
        <ele>97</ele>
        <time>2012-12-18T20:05:09.000Z</time>
      </trkpt>
      <trkpt lat="48.87168" lon="2.37583">
        <ele>98</ele>
        <time>2012-12-18T20:05:12.000Z</time>
      </trkpt>
      <trkpt lat="48.87169" lon="2.37584">
        <ele>97</ele>
        <time>2012-12-18T20:05:13.000Z</time>
      </trkpt>
      <trkpt lat="48.8717" lon="2.37586">
        <ele>96</ele>
        <time>2012-12-18T20:05:14.000Z</time>
      </trkpt>
      <trkpt lat="48.87174" lon="2.3759">
        <ele>96</ele>
        <time>2012-12-18T20:05:15.000Z</time>
      </trkpt>
      <trkpt lat="48.87176" lon="2.37592">
        <ele>95</ele>
        <time>2012-12-18T20:05:16.000Z</time>
      </trkpt>
      <trkpt lat="48.87177" lon="2.37597">
        <ele>96</ele>
        <time>2012-12-18T20:05:17.000Z</time>
      </trkpt>
      <trkpt lat="48.8718" lon="2.37602">
        <ele>95</ele>
        <time>2012-12-18T20:05:18.000Z</time>
      </trkpt>
      <trkpt lat="48.87181" lon="2.37605">
        <ele>95</ele>
        <time>2012-12-18T20:05:19.000Z</time>
      </trkpt>
      <trkpt lat="48.87182" lon="2.37608">
        <ele>95</ele>
        <time>2012-12-18T20:05:20.000Z</time>
      </trkpt>
      <trkpt lat="48.87184" lon="2.37613">
        <ele>96</ele>
        <time>2012-12-18T20:05:21.000Z</time>
      </trkpt>
      <trkpt lat="48.87186" lon="2.37616">
        <ele>95</ele>
        <time>2012-12-18T20:05:22.000Z</time>
      </trkpt>
      <trkpt lat="48.87188" lon="2.37621">
        <ele>96</ele>
        <time>2012-12-18T20:05:23.000Z</time>
      </trkpt>
      <trkpt lat="48.8719" lon="2.37626">
        <ele>95</ele>
        <time>2012-12-18T20:05:25.000Z</time>
      </trkpt>
      <trkpt lat="48.87191" lon="2.3763">
        <ele>96</ele>
        <time>2012-12-18T20:05:26.000Z</time>
      </trkpt>
      <trkpt lat="48.87195" lon="2.37634">
        <ele>95</ele>
        <time>2012-12-18T20:05:27.000Z</time>
      </trkpt>
      <trkpt lat="48.87197" lon="2.37639">
        <ele>96</ele>
        <time>2012-12-18T20:05:28.000Z</time>
      </trkpt>
      <trkpt lat="48.87198" lon="2.37642">
        <ele>96</ele>
        <time>2012-12-18T20:05:29.000Z</time>
      </trkpt>
      <trkpt lat="48.87197" lon="2.37645">
        <ele>96</ele>
        <time>2012-12-18T20:05:30.000Z</time>
      </trkpt>
      <trkpt lat="48.87198" lon="2.3765">
        <ele>97</ele>
        <time>2012-12-18T20:05:31.000Z</time>
      </trkpt>
      <trkpt lat="48.872" lon="2.37652">
        <ele>97</ele>
        <time>2012-12-18T20:05:32.000Z</time>
      </trkpt>
      <trkpt lat="48.87192" lon="2.37657">
        <ele>95</ele>
        <time>2012-12-18T20:05:33.000Z</time>
      </trkpt>
      <trkpt lat="48.8719" lon="2.37662">
        <ele>97</ele>
        <time>2012-12-18T20:05:38.000Z</time>
      </trkpt>
      <trkpt lat="48.87189" lon="2.37664">
        <ele>97</ele>
        <time>2012-12-18T20:05:39.000Z</time>
      </trkpt>
      <trkpt lat="48.8719" lon="2.37668">
        <ele>96</ele>
        <time>2012-12-18T20:05:54.000Z</time>
      </trkpt>
      <trkpt lat="48.87189" lon="2.37671">
        <ele>95</ele>
        <time>2012-12-18T20:05:55.000Z</time>
      </trkpt>
      <trkpt lat="48.87186" lon="2.37673">
        <ele>95</ele>
        <time>2012-12-18T20:05:56.000Z</time>
      </trkpt>
      <trkpt lat="48.87185" lon="2.37679">
        <ele>94</ele>
        <time>2012-12-18T20:05:57.000Z</time>
      </trkpt>
      <trkpt lat="48.87183" lon="2.37684">
        <ele>94</ele>
        <time>2012-12-18T20:05:59.000Z</time>
      </trkpt>
      <trkpt lat="48.87182" lon="2.37688">
        <ele>94</ele>
        <time>2012-12-18T20:06:00.000Z</time>
      </trkpt>
      <trkpt lat="48.87179" lon="2.37693">
        <ele>94</ele>
        <time>2012-12-18T20:06:03.000Z</time>
      </trkpt>
      <trkpt lat="48.87179" lon="2.37696">
        <ele>95</ele>
        <time>2012-12-18T20:06:04.000Z</time>
      </trkpt>
      <trkpt lat="48.8718" lon="2.377">
        <ele>95</ele>
        <time>2012-12-18T20:06:05.000Z</time>
      </trkpt>
      <trkpt lat="48.87178" lon="2.37704">
        <ele>97</ele>
        <time>2012-12-18T20:06:06.000Z</time>
      </trkpt>
      <trkpt lat="48.87175" lon="2.37708">
        <ele>98</ele>
        <time>2012-12-18T20:06:08.000Z</time>
      </trkpt>
      <trkpt lat="48.87174" lon="2.3771">
        <ele>98</ele>
        <time>2012-12-18T20:06:09.000Z</time>
      </trkpt>
      <trkpt lat="48.87171" lon="2.37715">
        <ele>97</ele>
        <time>2012-12-18T20:06:11.000Z</time>
      </trkpt>
      <trkpt lat="48.87169" lon="2.37717">
        <ele>98</ele>
        <time>2012-12-18T20:06:12.000Z</time>
      </trkpt>
      <trkpt lat="48.87166" lon="2.37719">
        <ele>98</ele>
        <time>2012-12-18T20:06:13.000Z</time>
      </trkpt>
      <trkpt lat="48.87163" lon="2.3772">
        <ele>97</ele>
        <time>2012-12-18T20:06:14.000Z</time>
      </trkpt>
      <trkpt lat="48.87162" lon="2.37723">
        <ele>97</ele>
        <time>2012-12-18T20:06:15.000Z</time>
      </trkpt>
      <trkpt lat="48.87159" lon="2.37723">
        <ele>97</ele>
        <time>2012-12-18T20:06:16.000Z</time>
      </trkpt>
      <trkpt lat="48.87155" lon="2.37723">
        <ele>97</ele>
        <time>2012-12-18T20:06:17.000Z</time>
      </trkpt>
      <trkpt lat="48.87153" lon="2.37724">
        <ele>97</ele>
        <time>2012-12-18T20:06:18.000Z</time>
      </trkpt>
      <trkpt lat="48.87149" lon="2.37725">
        <ele>97</ele>
        <time>2012-12-18T20:06:19.000Z</time>
      </trkpt>
      <trkpt lat="48.87145" lon="2.3773">
        <ele>97</ele>
        <time>2012-12-18T20:06:20.000Z</time>
      </trkpt>
      <trkpt lat="48.87142" lon="2.37733">
        <ele>97</ele>
        <time>2012-12-18T20:06:21.000Z</time>
      </trkpt>
      <trkpt lat="48.8714" lon="2.37735">
        <ele>96</ele>
        <time>2012-12-18T20:06:22.000Z</time>
      </trkpt>
      <trkpt lat="48.87137" lon="2.37738">
        <ele>96</ele>
        <time>2012-12-18T20:06:23.000Z</time>
      </trkpt>
      <trkpt lat="48.87134" lon="2.37741">
        <ele>96</ele>
        <time>2012-12-18T20:06:24.000Z</time>
      </trkpt>
      <trkpt lat="48.87131" lon="2.37744">
        <ele>96</ele>
        <time>2012-12-18T20:06:25.000Z</time>
      </trkpt>
      <trkpt lat="48.87128" lon="2.37746">
        <ele>96</ele>
        <time>2012-12-18T20:06:26.000Z</time>
      </trkpt>
      <trkpt lat="48.87126" lon="2.37749">
        <ele>96</ele>
        <time>2012-12-18T20:06:27.000Z</time>
      </trkpt>
      <trkpt lat="48.87124" lon="2.37752">
        <ele>96</ele>
        <time>2012-12-18T20:06:28.000Z</time>
      </trkpt>
      <trkpt lat="48.87121" lon="2.37753">
        <ele>96</ele>
        <time>2012-12-18T20:06:29.000Z</time>
      </trkpt>
      <trkpt lat="48.87118" lon="2.37757">
        <ele>96</ele>
        <time>2012-12-18T20:06:30.000Z</time>
      </trkpt>
      <trkpt lat="48.87115" lon="2.37757">
        <ele>96</ele>
        <time>2012-12-18T20:06:31.000Z</time>
      </trkpt>
      <trkpt lat="48.87112" lon="2.37768">
        <ele>98</ele>
        <time>2012-12-18T20:06:32.000Z</time>
      </trkpt>
      <trkpt lat="48.87109" lon="2.3777">
        <ele>98</ele>
        <time>2012-12-18T20:06:33.000Z</time>
      </trkpt>
      <trkpt lat="48.87106" lon="2.37775">
        <ele>98</ele>
        <time>2012-12-18T20:06:34.000Z</time>
      </trkpt>
      <trkpt lat="48.87104" lon="2.37777">
        <ele>98</ele>
        <time>2012-12-18T20:06:35.000Z</time>
      </trkpt>
      <trkpt lat="48.871" lon="2.37779">
        <ele>98</ele>
        <time>2012-12-18T20:06:36.000Z</time>
      </trkpt>
      <trkpt lat="48.87097" lon="2.37779">
        <ele>99</ele>
        <time>2012-12-18T20:06:38.000Z</time>
      </trkpt>
      <trkpt lat="48.87094" lon="2.37782">
        <ele>99</ele>
        <time>2012-12-18T20:06:39.000Z</time>
      </trkpt>
      <trkpt lat="48.87093" lon="2.37783">
        <ele>98</ele>
        <time>2012-12-18T20:06:40.000Z</time>
      </trkpt>
      <trkpt lat="48.87089" lon="2.37785">
        <ele>99</ele>
        <time>2012-12-18T20:06:41.000Z</time>
      </trkpt>
      <trkpt lat="48.87087" lon="2.37789">
        <ele>99</ele>
        <time>2012-12-18T20:06:42.000Z</time>
      </trkpt>
      <trkpt lat="48.87084" lon="2.37796">
        <ele>100</ele>
        <time>2012-12-18T20:06:43.000Z</time>
      </trkpt>
      <trkpt lat="48.87082" lon="2.37799">
        <ele>100</ele>
        <time>2012-12-18T20:06:44.000Z</time>
      </trkpt>
      <trkpt lat="48.87081" lon="2.37805">
        <ele>100</ele>
        <time>2012-12-18T20:06:45.000Z</time>
      </trkpt>
      <trkpt lat="48.87079" lon="2.37806">
        <ele>100</ele>
        <time>2012-12-18T20:06:46.000Z</time>
      </trkpt>
      <trkpt lat="48.87078" lon="2.37812">
        <ele>100</ele>
        <time>2012-12-18T20:06:47.000Z</time>
      </trkpt>
      <trkpt lat="48.87077" lon="2.37816">
        <ele>100</ele>
        <time>2012-12-18T20:06:48.000Z</time>
      </trkpt>
      <trkpt lat="48.87074" lon="2.37818">
        <ele>100</ele>
        <time>2012-12-18T20:06:49.000Z</time>
      </trkpt>
      <trkpt lat="48.87072" lon="2.37823">
        <ele>100</ele>
        <time>2012-12-18T20:06:50.000Z</time>
      </trkpt>
      <trkpt lat="48.87069" lon="2.37823">
        <ele>98</ele>
        <time>2012-12-18T20:06:51.000Z</time>
      </trkpt>
      <trkpt lat="48.87066" lon="2.37826">
        <ele>98</ele>
        <time>2012-12-18T20:06:52.000Z</time>
      </trkpt>
      <trkpt lat="48.87063" lon="2.37828">
        <ele>98</ele>
        <time>2012-12-18T20:06:53.000Z</time>
      </trkpt>
      <trkpt lat="48.8706" lon="2.3783">
        <ele>97</ele>
        <time>2012-12-18T20:06:54.000Z</time>
      </trkpt>
      <trkpt lat="48.87057" lon="2.37833">
        <ele>97</ele>
        <time>2012-12-18T20:06:55.000Z</time>
      </trkpt>
      <trkpt lat="48.87055" lon="2.37836">
        <ele>96</ele>
        <time>2012-12-18T20:06:56.000Z</time>
      </trkpt>
      <trkpt lat="48.87052" lon="2.37838">
        <ele>96</ele>
        <time>2012-12-18T20:06:57.000Z</time>
      </trkpt>
      <trkpt lat="48.87049" lon="2.37842">
        <ele>95</ele>
        <time>2012-12-18T20:06:58.000Z</time>
      </trkpt>
      <trkpt lat="48.87047" lon="2.37845">
        <ele>96</ele>
        <time>2012-12-18T20:06:59.000Z</time>
      </trkpt>
      <trkpt lat="48.87044" lon="2.37849">
        <ele>95</ele>
        <time>2012-12-18T20:07:00.000Z</time>
      </trkpt>
      <trkpt lat="48.87041" lon="2.37855">
        <ele>94</ele>
        <time>2012-12-18T20:07:01.000Z</time>
      </trkpt>
      <trkpt lat="48.87037" lon="2.37858">
        <ele>94</ele>
        <time>2012-12-18T20:07:02.000Z</time>
      </trkpt>
      <trkpt lat="48.87035" lon="2.37862">
        <ele>94</ele>
        <time>2012-12-18T20:07:03.000Z</time>
      </trkpt>
      <trkpt lat="48.87032" lon="2.37864">
        <ele>94</ele>
        <time>2012-12-18T20:07:04.000Z</time>
      </trkpt>
      <trkpt lat="48.87029" lon="2.37868">
        <ele>94</ele>
        <time>2012-12-18T20:07:05.000Z</time>
      </trkpt>
      <trkpt lat="48.87027" lon="2.37873">
        <ele>94</ele>
        <time>2012-12-18T20:07:06.000Z</time>
      </trkpt>
      <trkpt lat="48.87023" lon="2.37875">
        <ele>95</ele>
        <time>2012-12-18T20:07:07.000Z</time>
      </trkpt>
      <trkpt lat="48.87021" lon="2.3788">
        <ele>95</ele>
        <time>2012-12-18T20:07:08.000Z</time>
      </trkpt>
      <trkpt lat="48.87019" lon="2.37884">
        <ele>94</ele>
        <time>2012-12-18T20:07:09.000Z</time>
      </trkpt>
      <trkpt lat="48.87015" lon="2.37888">
        <ele>94</ele>
        <time>2012-12-18T20:07:10.000Z</time>
      </trkpt>
      <trkpt lat="48.87012" lon="2.3789">
        <ele>95</ele>
        <time>2012-12-18T20:07:11.000Z</time>
      </trkpt>
      <trkpt lat="48.8701" lon="2.37893">
        <ele>95</ele>
        <time>2012-12-18T20:07:12.000Z</time>
      </trkpt>
      <trkpt lat="48.87007" lon="2.37897">
        <ele>94</ele>
        <time>2012-12-18T20:07:13.000Z</time>
      </trkpt>
      <trkpt lat="48.87005" lon="2.379">
        <ele>94</ele>
        <time>2012-12-18T20:07:14.000Z</time>
      </trkpt>
      <trkpt lat="48.87003" lon="2.37901">
        <ele>94</ele>
        <time>2012-12-18T20:07:15.000Z</time>
      </trkpt>
      <trkpt lat="48.87001" lon="2.37902">
        <ele>94</ele>
        <time>2012-12-18T20:07:16.000Z</time>
      </trkpt>
      <trkpt lat="48.86999" lon="2.37906">
        <ele>93</ele>
        <time>2012-12-18T20:07:17.000Z</time>
      </trkpt>
      <trkpt lat="48.86999" lon="2.37912">
        <ele>93</ele>
        <time>2012-12-18T20:07:21.000Z</time>
      </trkpt>
      <trkpt lat="48.86999" lon="2.37913">
        <ele>92</ele>
        <time>2012-12-18T20:07:22.000Z</time>
      </trkpt>
      <trkpt lat="48.87" lon="2.37919">
        <ele>91</ele>
        <time>2012-12-18T20:07:25.000Z</time>
      </trkpt>
      <trkpt lat="48.87" lon="2.37922">
        <ele>91</ele>
        <time>2012-12-18T20:07:26.000Z</time>
      </trkpt>
      <trkpt lat="48.87" lon="2.37928">
        <ele>91</ele>
        <time>2012-12-18T20:07:29.000Z</time>
      </trkpt>
      <trkpt lat="48.87001" lon="2.3793">
        <ele>92</ele>
        <time>2012-12-18T20:07:30.000Z</time>
      </trkpt>
      <trkpt lat="48.87005" lon="2.37932">
        <ele>93</ele>
        <time>2012-12-18T20:07:37.000Z</time>
      </trkpt>
      <trkpt lat="48.87007" lon="2.37935">
        <ele>94</ele>
        <time>2012-12-18T20:07:38.000Z</time>
      </trkpt>
      <trkpt lat="48.87007" lon="2.3794">
        <ele>94</ele>
        <time>2012-12-18T20:07:40.000Z</time>
      </trkpt>
      <trkpt lat="48.87007" lon="2.37942">
        <ele>94</ele>
        <time>2012-12-18T20:07:41.000Z</time>
      </trkpt>
      <trkpt lat="48.87005" lon="2.37945">
        <ele>94</ele>
        <time>2012-12-18T20:07:42.000Z</time>
      </trkpt>
      <trkpt lat="48.87003" lon="2.37947">
        <ele>93</ele>
        <time>2012-12-18T20:07:43.000Z</time>
      </trkpt>
      <trkpt lat="48.87" lon="2.3795">
        <ele>94</ele>
        <time>2012-12-18T20:07:44.000Z</time>
      </trkpt>
      <trkpt lat="48.86998" lon="2.37954">
        <ele>94</ele>
        <time>2012-12-18T20:07:45.000Z</time>
      </trkpt>
      <trkpt lat="48.86996" lon="2.37958">
        <ele>94</ele>
        <time>2012-12-18T20:07:46.000Z</time>
      </trkpt>
      <trkpt lat="48.86993" lon="2.3796">
        <ele>94</ele>
        <time>2012-12-18T20:07:47.000Z</time>
      </trkpt>
      <trkpt lat="48.86991" lon="2.37964">
        <ele>94</ele>
        <time>2012-12-18T20:07:48.000Z</time>
      </trkpt>
      <trkpt lat="48.86989" lon="2.37968">
        <ele>93</ele>
        <time>2012-12-18T20:07:49.000Z</time>
      </trkpt>
      <trkpt lat="48.86988" lon="2.37973">
        <ele>93</ele>
        <time>2012-12-18T20:07:50.000Z</time>
      </trkpt>
      <trkpt lat="48.86985" lon="2.37975">
        <ele>93</ele>
        <time>2012-12-18T20:07:51.000Z</time>
      </trkpt>
      <trkpt lat="48.86983" lon="2.3798">
        <ele>93</ele>
        <time>2012-12-18T20:07:52.000Z</time>
      </trkpt>
      <trkpt lat="48.86982" lon="2.37985">
        <ele>93</ele>
        <time>2012-12-18T20:07:53.000Z</time>
      </trkpt>
      <trkpt lat="48.86981" lon="2.37989">
        <ele>93</ele>
        <time>2012-12-18T20:07:54.000Z</time>
      </trkpt>
      <trkpt lat="48.86976" lon="2.3799">
        <ele>93</ele>
        <time>2012-12-18T20:07:55.000Z</time>
      </trkpt>
      <trkpt lat="48.86974" lon="2.37993">
        <ele>93</ele>
        <time>2012-12-18T20:07:56.000Z</time>
      </trkpt>
      <trkpt lat="48.86971" lon="2.37996">
        <ele>92</ele>
        <time>2012-12-18T20:07:57.000Z</time>
      </trkpt>
      <trkpt lat="48.86969" lon="2.37999">
        <ele>92</ele>
        <time>2012-12-18T20:07:58.000Z</time>
      </trkpt>
      <trkpt lat="48.8697" lon="2.38002">
        <ele>92</ele>
        <time>2012-12-18T20:07:59.000Z</time>
      </trkpt>
      <trkpt lat="48.86968" lon="2.38004">
        <ele>92</ele>
        <time>2012-12-18T20:08:00.000Z</time>
      </trkpt>
      <trkpt lat="48.8697" lon="2.38011">
        <ele>91</ele>
        <time>2012-12-18T20:08:01.000Z</time>
      </trkpt>
      <trkpt lat="48.86968" lon="2.38014">
        <ele>92</ele>
        <time>2012-12-18T20:08:02.000Z</time>
      </trkpt>
      <trkpt lat="48.86968" lon="2.38017">
        <ele>92</ele>
        <time>2012-12-18T20:08:03.000Z</time>
      </trkpt>
      <trkpt lat="48.86965" lon="2.38018">
        <ele>92</ele>
        <time>2012-12-18T20:08:04.000Z</time>
      </trkpt>
      <trkpt lat="48.86962" lon="2.38019">
        <ele>92</ele>
        <time>2012-12-18T20:08:05.000Z</time>
      </trkpt>
      <trkpt lat="48.8696" lon="2.38024">
        <ele>92</ele>
        <time>2012-12-18T20:08:07.000Z</time>
      </trkpt>
      <trkpt lat="48.86957" lon="2.38028">
        <ele>92</ele>
        <time>2012-12-18T20:08:08.000Z</time>
      </trkpt>
      <trkpt lat="48.86956" lon="2.38031">
        <ele>92</ele>
        <time>2012-12-18T20:08:09.000Z</time>
      </trkpt>
      <trkpt lat="48.86954" lon="2.38035">
        <ele>91</ele>
        <time>2012-12-18T20:08:10.000Z</time>
      </trkpt>
      <trkpt lat="48.86952" lon="2.38039">
        <ele>91</ele>
        <time>2012-12-18T20:08:11.000Z</time>
      </trkpt>
      <trkpt lat="48.8695" lon="2.38043">
        <ele>91</ele>
        <time>2012-12-18T20:08:12.000Z</time>
      </trkpt>
      <trkpt lat="48.86949" lon="2.38048">
        <ele>91</ele>
        <time>2012-12-18T20:08:13.000Z</time>
      </trkpt>
      <trkpt lat="48.86948" lon="2.38051">
        <ele>91</ele>
        <time>2012-12-18T20:08:14.000Z</time>
      </trkpt>
      <trkpt lat="48.86946" lon="2.38055">
        <ele>92</ele>
        <time>2012-12-18T20:08:15.000Z</time>
      </trkpt>
      <trkpt lat="48.86944" lon="2.38058">
        <ele>92</ele>
        <time>2012-12-18T20:08:16.000Z</time>
      </trkpt>
      <trkpt lat="48.86941" lon="2.38062">
        <ele>92</ele>
        <time>2012-12-18T20:08:17.000Z</time>
      </trkpt>
      <trkpt lat="48.8694" lon="2.38065">
        <ele>92</ele>
        <time>2012-12-18T20:08:18.000Z</time>
      </trkpt>
      <trkpt lat="48.86938" lon="2.38069">
        <ele>91</ele>
        <time>2012-12-18T20:08:19.000Z</time>
      </trkpt>
      <trkpt lat="48.86935" lon="2.38071">
        <ele>92</ele>
        <time>2012-12-18T20:08:20.000Z</time>
      </trkpt>
      <trkpt lat="48.86934" lon="2.38074">
        <ele>92</ele>
        <time>2012-12-18T20:08:21.000Z</time>
      </trkpt>
      <trkpt lat="48.86931" lon="2.38076">
        <ele>92</ele>
        <time>2012-12-18T20:08:22.000Z</time>
      </trkpt>
      <trkpt lat="48.86931" lon="2.38079">
        <ele>92</ele>
        <time>2012-12-18T20:08:23.000Z</time>
      </trkpt>
      <trkpt lat="48.8693" lon="2.38083">
        <ele>92</ele>
        <time>2012-12-18T20:08:24.000Z</time>
      </trkpt>
      <trkpt lat="48.86925" lon="2.38084">
        <ele>92</ele>
        <time>2012-12-18T20:08:34.000Z</time>
      </trkpt>
      <trkpt lat="48.86925" lon="2.38084">
        <ele>92</ele>
        <time>2012-12-18T20:08:35.000Z</time>
      </trkpt>
      <trkpt lat="48.86925" lon="2.38088">
        <ele>92</ele>
        <time>2012-12-18T20:08:54.000Z</time>
      </trkpt>
      <trkpt lat="48.86925" lon="2.38091">
        <ele>92</ele>
        <time>2012-12-18T20:08:55.000Z</time>
      </trkpt>
      <trkpt lat="48.86925" lon="2.38096">
        <ele>92</ele>
        <time>2012-12-18T20:08:56.000Z</time>
      </trkpt>
      <trkpt lat="48.86923" lon="2.381">
        <ele>93</ele>
        <time>2012-12-18T20:08:57.000Z</time>
      </trkpt>
      <trkpt lat="48.8692" lon="2.38102">
        <ele>93</ele>
        <time>2012-12-18T20:08:58.000Z</time>
      </trkpt>
      <trkpt lat="48.86919" lon="2.38104">
        <ele>94</ele>
        <time>2012-12-18T20:08:59.000Z</time>
      </trkpt>
      <trkpt lat="48.86916" lon="2.38109">
        <ele>94</ele>
        <time>2012-12-18T20:09:00.000Z</time>
      </trkpt>
      <trkpt lat="48.86914" lon="2.38111">
        <ele>94</ele>
        <time>2012-12-18T20:09:01.000Z</time>
      </trkpt>
      <trkpt lat="48.86911" lon="2.38114">
        <ele>94</ele>
        <time>2012-12-18T20:09:02.000Z</time>
      </trkpt>
      <trkpt lat="48.8691" lon="2.38118">
        <ele>94</ele>
        <time>2012-12-18T20:09:03.000Z</time>
      </trkpt>
      <trkpt lat="48.86906" lon="2.3812">
        <ele>94</ele>
        <time>2012-12-18T20:09:04.000Z</time>
      </trkpt>
      <trkpt lat="48.86903" lon="2.38122">
        <ele>94</ele>
        <time>2012-12-18T20:09:05.000Z</time>
      </trkpt>
      <trkpt lat="48.86901" lon="2.38127">
        <ele>94</ele>
        <time>2012-12-18T20:09:06.000Z</time>
      </trkpt>
      <trkpt lat="48.86896" lon="2.3813">
        <ele>94</ele>
        <time>2012-12-18T20:09:07.000Z</time>
      </trkpt>
      <trkpt lat="48.86894" lon="2.38134">
        <ele>94</ele>
        <time>2012-12-18T20:09:08.000Z</time>
      </trkpt>
      <trkpt lat="48.86891" lon="2.38137">
        <ele>94</ele>
        <time>2012-12-18T20:09:09.000Z</time>
      </trkpt>
      <trkpt lat="48.86887" lon="2.3814">
        <ele>94</ele>
        <time>2012-12-18T20:09:10.000Z</time>
      </trkpt>
      <trkpt lat="48.86885" lon="2.38143">
        <ele>93</ele>
        <time>2012-12-18T20:09:11.000Z</time>
      </trkpt>
      <trkpt lat="48.86882" lon="2.38146">
        <ele>93</ele>
        <time>2012-12-18T20:09:12.000Z</time>
      </trkpt>
      <trkpt lat="48.86875" lon="2.38143">
        <ele>93</ele>
        <time>2012-12-18T20:09:13.000Z</time>
      </trkpt>
      <trkpt lat="48.86872" lon="2.38146">
        <ele>93</ele>
        <time>2012-12-18T20:09:14.000Z</time>
      </trkpt>
      <trkpt lat="48.86869" lon="2.38152">
        <ele>94</ele>
        <time>2012-12-18T20:09:15.000Z</time>
      </trkpt>
      <trkpt lat="48.86866" lon="2.38155">
        <ele>94</ele>
        <time>2012-12-18T20:09:16.000Z</time>
      </trkpt>
      <trkpt lat="48.86865" lon="2.3816">
        <ele>94</ele>
        <time>2012-12-18T20:09:17.000Z</time>
      </trkpt>
      <trkpt lat="48.86864" lon="2.38166">
        <ele>95</ele>
        <time>2012-12-18T20:09:18.000Z</time>
      </trkpt>
      <trkpt lat="48.86863" lon="2.38171">
        <ele>94</ele>
        <time>2012-12-18T20:09:19.000Z</time>
      </trkpt>
      <trkpt lat="48.8686" lon="2.38174">
        <ele>94</ele>
        <time>2012-12-18T20:09:20.000Z</time>
      </trkpt>
      <trkpt lat="48.86856" lon="2.38179">
        <ele>94</ele>
        <time>2012-12-18T20:09:21.000Z</time>
      </trkpt>
      <trkpt lat="48.86855" lon="2.38182">
        <ele>95</ele>
        <time>2012-12-18T20:09:22.000Z</time>
      </trkpt>
      <trkpt lat="48.86854" lon="2.38187">
        <ele>94</ele>
        <time>2012-12-18T20:09:23.000Z</time>
      </trkpt>
      <trkpt lat="48.86853" lon="2.38191">
        <ele>94</ele>
        <time>2012-12-18T20:09:24.000Z</time>
      </trkpt>
      <trkpt lat="48.86853" lon="2.38196">
        <ele>94</ele>
        <time>2012-12-18T20:09:25.000Z</time>
      </trkpt>
      <trkpt lat="48.8685" lon="2.38198">
        <ele>94</ele>
        <time>2012-12-18T20:09:26.000Z</time>
      </trkpt>
      <trkpt lat="48.86848" lon="2.38201">
        <ele>93</ele>
        <time>2012-12-18T20:09:27.000Z</time>
      </trkpt>
      <trkpt lat="48.86845" lon="2.38205">
        <ele>93</ele>
        <time>2012-12-18T20:09:29.000Z</time>
      </trkpt>
      <trkpt lat="48.86843" lon="2.38209">
        <ele>94</ele>
        <time>2012-12-18T20:09:30.000Z</time>
      </trkpt>
      <trkpt lat="48.86841" lon="2.38212">
        <ele>94</ele>
        <time>2012-12-18T20:09:31.000Z</time>
      </trkpt>
      <trkpt lat="48.86839" lon="2.38213">
        <ele>93</ele>
        <time>2012-12-18T20:09:32.000Z</time>
      </trkpt>
      <trkpt lat="48.86836" lon="2.38214">
        <ele>93</ele>
        <time>2012-12-18T20:09:33.000Z</time>
      </trkpt>
      <trkpt lat="48.86831" lon="2.38211">
        <ele>94</ele>
        <time>2012-12-18T20:09:34.000Z</time>
      </trkpt>
      <trkpt lat="48.8683" lon="2.38213">
        <ele>94</ele>
        <time>2012-12-18T20:09:35.000Z</time>
      </trkpt>
      <trkpt lat="48.86827" lon="2.38216">
        <ele>94</ele>
        <time>2012-12-18T20:09:36.000Z</time>
      </trkpt>
      <trkpt lat="48.86823" lon="2.38216">
        <ele>93</ele>
        <time>2012-12-18T20:09:37.000Z</time>
      </trkpt>
      <trkpt lat="48.86822" lon="2.38221">
        <ele>93</ele>
        <time>2012-12-18T20:09:38.000Z</time>
      </trkpt>
      <trkpt lat="48.8682" lon="2.38226">
        <ele>93</ele>
        <time>2012-12-18T20:09:39.000Z</time>
      </trkpt>
      <trkpt lat="48.86817" lon="2.38227">
        <ele>93</ele>
        <time>2012-12-18T20:09:40.000Z</time>
      </trkpt>
      <trkpt lat="48.86816" lon="2.3823">
        <ele>93</ele>
        <time>2012-12-18T20:09:41.000Z</time>
      </trkpt>
      <trkpt lat="48.86815" lon="2.38235">
        <ele>92</ele>
        <time>2012-12-18T20:09:42.000Z</time>
      </trkpt>
      <trkpt lat="48.86812" lon="2.38238">
        <ele>93</ele>
        <time>2012-12-18T20:09:43.000Z</time>
      </trkpt>
      <trkpt lat="48.86812" lon="2.38243">
        <ele>92</ele>
        <time>2012-12-18T20:09:44.000Z</time>
      </trkpt>
      <trkpt lat="48.86809" lon="2.38245">
        <ele>92</ele>
        <time>2012-12-18T20:09:45.000Z</time>
      </trkpt>
      <trkpt lat="48.86808" lon="2.3825">
        <ele>92</ele>
        <time>2012-12-18T20:09:46.000Z</time>
      </trkpt>
      <trkpt lat="48.86807" lon="2.38255">
        <ele>92</ele>
        <time>2012-12-18T20:09:47.000Z</time>
      </trkpt>
      <trkpt lat="48.86806" lon="2.38258">
        <ele>91</ele>
        <time>2012-12-18T20:09:48.000Z</time>
      </trkpt>
      <trkpt lat="48.86805" lon="2.38262">
        <ele>92</ele>
        <time>2012-12-18T20:09:49.000Z</time>
      </trkpt>
      <trkpt lat="48.86804" lon="2.38265">
        <ele>91</ele>
        <time>2012-12-18T20:09:50.000Z</time>
      </trkpt>
      <trkpt lat="48.86804" lon="2.38269">
        <ele>90</ele>
        <time>2012-12-18T20:09:51.000Z</time>
      </trkpt>
      <trkpt lat="48.86803" lon="2.38272">
        <ele>90</ele>
        <time>2012-12-18T20:09:52.000Z</time>
      </trkpt>
      <trkpt lat="48.86801" lon="2.38274">
        <ele>90</ele>
        <time>2012-12-18T20:09:53.000Z</time>
      </trkpt>
      <trkpt lat="48.86799" lon="2.38276">
        <ele>90</ele>
        <time>2012-12-18T20:09:54.000Z</time>
      </trkpt>
      <trkpt lat="48.86794" lon="2.38274">
        <ele>90</ele>
        <time>2012-12-18T20:09:55.000Z</time>
      </trkpt>
      <trkpt lat="48.86792" lon="2.38274">
        <ele>90</ele>
        <time>2012-12-18T20:09:56.000Z</time>
      </trkpt>
      <trkpt lat="48.86789" lon="2.38276">
        <ele>92</ele>
        <time>2012-12-18T20:10:00.000Z</time>
      </trkpt>
      <trkpt lat="48.86785" lon="2.38275">
        <ele>94</ele>
        <time>2012-12-18T20:10:01.000Z</time>
      </trkpt>
      <trkpt lat="48.86782" lon="2.3827">
        <ele>94</ele>
        <time>2012-12-18T20:10:03.000Z</time>
      </trkpt>
      <trkpt lat="48.8678" lon="2.38269">
        <ele>93</ele>
        <time>2012-12-18T20:10:04.000Z</time>
      </trkpt>
      <trkpt lat="48.86776" lon="2.38266">
        <ele>94</ele>
        <time>2012-12-18T20:10:05.000Z</time>
      </trkpt>
      <trkpt lat="48.86772" lon="2.38264">
        <ele>94</ele>
        <time>2012-12-18T20:10:10.000Z</time>
      </trkpt>
      <trkpt lat="48.86771" lon="2.38263">
        <ele>94</ele>
        <time>2012-12-18T20:10:11.000Z</time>
      </trkpt>
      <trkpt lat="48.86769" lon="2.38264">
        <ele>95</ele>
        <time>2012-12-18T20:10:13.000Z</time>
      </trkpt>
      <trkpt lat="48.86767" lon="2.38266">
        <ele>95</ele>
        <time>2012-12-18T20:10:14.000Z</time>
      </trkpt>
      <trkpt lat="48.86765" lon="2.38268">
        <ele>95</ele>
        <time>2012-12-18T20:10:15.000Z</time>
      </trkpt>
      <trkpt lat="48.86763" lon="2.3827">
        <ele>94</ele>
        <time>2012-12-18T20:10:16.000Z</time>
      </trkpt>
      <trkpt lat="48.86762" lon="2.38273">
        <ele>94</ele>
        <time>2012-12-18T20:10:17.000Z</time>
      </trkpt>
      <trkpt lat="48.8676" lon="2.38277">
        <ele>94</ele>
        <time>2012-12-18T20:10:18.000Z</time>
      </trkpt>
      <trkpt lat="48.86758" lon="2.38282">
        <ele>94</ele>
        <time>2012-12-18T20:10:20.000Z</time>
      </trkpt>
      <trkpt lat="48.86757" lon="2.38286">
        <ele>94</ele>
        <time>2012-12-18T20:10:21.000Z</time>
      </trkpt>
      <trkpt lat="48.86756" lon="2.38292">
        <ele>94</ele>
        <time>2012-12-18T20:10:23.000Z</time>
      </trkpt>
      <trkpt lat="48.86754" lon="2.38294">
        <ele>94</ele>
        <time>2012-12-18T20:10:24.000Z</time>
      </trkpt>
      <trkpt lat="48.86751" lon="2.38299">
        <ele>95</ele>
        <time>2012-12-18T20:10:26.000Z</time>
      </trkpt>
      <trkpt lat="48.8675" lon="2.38302">
        <ele>95</ele>
        <time>2012-12-18T20:10:27.000Z</time>
      </trkpt>
      <trkpt lat="48.86748" lon="2.38305">
        <ele>95</ele>
        <time>2012-12-18T20:10:28.000Z</time>
      </trkpt>
      <trkpt lat="48.86747" lon="2.38308">
        <ele>95</ele>
        <time>2012-12-18T20:10:29.000Z</time>
      </trkpt>
      <trkpt lat="48.86744" lon="2.38312">
        <ele>94</ele>
        <time>2012-12-18T20:10:31.000Z</time>
      </trkpt>
      <trkpt lat="48.86741" lon="2.38315">
        <ele>95</ele>
        <time>2012-12-18T20:10:32.000Z</time>
      </trkpt>
      <trkpt lat="48.8674" lon="2.38318">
        <ele>95</ele>
        <time>2012-12-18T20:10:33.000Z</time>
      </trkpt>
      <trkpt lat="48.86739" lon="2.38322">
        <ele>95</ele>
        <time>2012-12-18T20:10:34.000Z</time>
      </trkpt>
      <trkpt lat="48.86738" lon="2.38324">
        <ele>96</ele>
        <time>2012-12-18T20:10:35.000Z</time>
      </trkpt>
      <trkpt lat="48.86736" lon="2.38328">
        <ele>95</ele>
        <time>2012-12-18T20:10:36.000Z</time>
      </trkpt>
      <trkpt lat="48.86734" lon="2.38333">
        <ele>95</ele>
        <time>2012-12-18T20:10:37.000Z</time>
      </trkpt>
      <trkpt lat="48.86733" lon="2.38335">
        <ele>94</ele>
        <time>2012-12-18T20:10:38.000Z</time>
      </trkpt>
      <trkpt lat="48.86732" lon="2.38341">
        <ele>95</ele>
        <time>2012-12-18T20:10:40.000Z</time>
      </trkpt>
      <trkpt lat="48.86729" lon="2.38344">
        <ele>95</ele>
        <time>2012-12-18T20:10:41.000Z</time>
      </trkpt>
      <trkpt lat="48.86726" lon="2.38344">
        <ele>95</ele>
        <time>2012-12-18T20:10:42.000Z</time>
      </trkpt>
      <trkpt lat="48.86724" lon="2.38344">
        <ele>94</ele>
        <time>2012-12-18T20:10:43.000Z</time>
      </trkpt>
      <trkpt lat="48.86723" lon="2.38345">
        <ele>95</ele>
        <time>2012-12-18T20:10:44.000Z</time>
      </trkpt>
      <trkpt lat="48.86718" lon="2.38345">
        <ele>96</ele>
        <time>2012-12-18T20:10:45.000Z</time>
      </trkpt>
      <trkpt lat="48.86712" lon="2.38342">
        <ele>97</ele>
        <time>2012-12-18T20:10:46.000Z</time>
      </trkpt>
      <trkpt lat="48.86709" lon="2.38343">
        <ele>97</ele>
        <time>2012-12-18T20:10:47.000Z</time>
      </trkpt>
      <trkpt lat="48.86706" lon="2.38344">
        <ele>97</ele>
        <time>2012-12-18T20:10:48.000Z</time>
      </trkpt>
      <trkpt lat="48.86704" lon="2.38346">
        <ele>96</ele>
        <time>2012-12-18T20:10:49.000Z</time>
      </trkpt>
      <trkpt lat="48.86702" lon="2.38349">
        <ele>96</ele>
        <time>2012-12-18T20:10:50.000Z</time>
      </trkpt>
      <trkpt lat="48.86699" lon="2.38352">
        <ele>96</ele>
        <time>2012-12-18T20:10:51.000Z</time>
      </trkpt>
      <trkpt lat="48.86698" lon="2.38354">
        <ele>96</ele>
        <time>2012-12-18T20:10:52.000Z</time>
      </trkpt>
      <trkpt lat="48.86697" lon="2.38358">
        <ele>96</ele>
        <time>2012-12-18T20:10:53.000Z</time>
      </trkpt>
      <trkpt lat="48.86694" lon="2.38358">
        <ele>96</ele>
        <time>2012-12-18T20:10:54.000Z</time>
      </trkpt>
      <trkpt lat="48.86691" lon="2.38361">
        <ele>96</ele>
        <time>2012-12-18T20:10:55.000Z</time>
      </trkpt>
      <trkpt lat="48.86689" lon="2.38363">
        <ele>96</ele>
        <time>2012-12-18T20:10:56.000Z</time>
      </trkpt>
      <trkpt lat="48.86687" lon="2.38366">
        <ele>95</ele>
        <time>2012-12-18T20:10:57.000Z</time>
      </trkpt>
      <trkpt lat="48.86684" lon="2.38368">
        <ele>94</ele>
        <time>2012-12-18T20:10:58.000Z</time>
      </trkpt>
      <trkpt lat="48.86681" lon="2.3837">
        <ele>94</ele>
        <time>2012-12-18T20:10:59.000Z</time>
      </trkpt>
      <trkpt lat="48.86679" lon="2.38372">
        <ele>95</ele>
        <time>2012-12-18T20:11:00.000Z</time>
      </trkpt>
      <trkpt lat="48.86676" lon="2.38375">
        <ele>94</ele>
        <time>2012-12-18T20:11:01.000Z</time>
      </trkpt>
      <trkpt lat="48.86673" lon="2.38378">
        <ele>94</ele>
        <time>2012-12-18T20:11:02.000Z</time>
      </trkpt>
      <trkpt lat="48.86669" lon="2.38376">
        <ele>94</ele>
        <time>2012-12-18T20:11:03.000Z</time>
      </trkpt>
      <trkpt lat="48.86667" lon="2.38378">
        <ele>94</ele>
        <time>2012-12-18T20:11:04.000Z</time>
      </trkpt>
      <trkpt lat="48.86664" lon="2.38379">
        <ele>94</ele>
        <time>2012-12-18T20:11:05.000Z</time>
      </trkpt>
      <trkpt lat="48.86661" lon="2.38381">
        <ele>93</ele>
        <time>2012-12-18T20:11:06.000Z</time>
      </trkpt>
      <trkpt lat="48.86658" lon="2.38382">
        <ele>93</ele>
        <time>2012-12-18T20:11:07.000Z</time>
      </trkpt>
      <trkpt lat="48.86655" lon="2.38384">
        <ele>93</ele>
        <time>2012-12-18T20:11:08.000Z</time>
      </trkpt>
      <trkpt lat="48.86652" lon="2.38385">
        <ele>93</ele>
        <time>2012-12-18T20:11:09.000Z</time>
      </trkpt>
      <trkpt lat="48.86647" lon="2.38383">
        <ele>93</ele>
        <time>2012-12-18T20:11:10.000Z</time>
      </trkpt>
      <trkpt lat="48.86644" lon="2.38386">
        <ele>93</ele>
        <time>2012-12-18T20:11:11.000Z</time>
      </trkpt>
      <trkpt lat="48.8664" lon="2.38386">
        <ele>94</ele>
        <time>2012-12-18T20:11:12.000Z</time>
      </trkpt>
      <trkpt lat="48.86637" lon="2.38387">
        <ele>93</ele>
        <time>2012-12-18T20:11:13.000Z</time>
      </trkpt>
      <trkpt lat="48.86635" lon="2.38391">
        <ele>93</ele>
        <time>2012-12-18T20:11:14.000Z</time>
      </trkpt>
      <trkpt lat="48.86632" lon="2.38393">
        <ele>93</ele>
        <time>2012-12-18T20:11:15.000Z</time>
      </trkpt>
      <trkpt lat="48.8663" lon="2.38396">
        <ele>93</ele>
        <time>2012-12-18T20:11:16.000Z</time>
      </trkpt>
      <trkpt lat="48.86628" lon="2.38399">
        <ele>92</ele>
        <time>2012-12-18T20:11:17.000Z</time>
      </trkpt>
      <trkpt lat="48.86625" lon="2.38402">
        <ele>93</ele>
        <time>2012-12-18T20:11:18.000Z</time>
      </trkpt>
      <trkpt lat="48.86624" lon="2.38408">
        <ele>93</ele>
        <time>2012-12-18T20:11:19.000Z</time>
      </trkpt>
      <trkpt lat="48.86622" lon="2.38412">
        <ele>93</ele>
        <time>2012-12-18T20:11:20.000Z</time>
      </trkpt>
      <trkpt lat="48.8662" lon="2.38413">
        <ele>93</ele>
        <time>2012-12-18T20:11:21.000Z</time>
      </trkpt>
      <trkpt lat="48.86617" lon="2.38416">
        <ele>93</ele>
        <time>2012-12-18T20:11:22.000Z</time>
      </trkpt>
      <trkpt lat="48.86615" lon="2.38417">
        <ele>93</ele>
        <time>2012-12-18T20:11:23.000Z</time>
      </trkpt>
      <trkpt lat="48.86612" lon="2.38419">
        <ele>94</ele>
        <time>2012-12-18T20:11:24.000Z</time>
      </trkpt>
      <trkpt lat="48.8661" lon="2.38422">
        <ele>94</ele>
        <time>2012-12-18T20:11:25.000Z</time>
      </trkpt>
      <trkpt lat="48.86609" lon="2.38425">
        <ele>94</ele>
        <time>2012-12-18T20:11:26.000Z</time>
      </trkpt>
      <trkpt lat="48.86606" lon="2.38427">
        <ele>95</ele>
        <time>2012-12-18T20:11:27.000Z</time>
      </trkpt>
      <trkpt lat="48.86604" lon="2.3843">
        <ele>95</ele>
        <time>2012-12-18T20:11:28.000Z</time>
      </trkpt>
      <trkpt lat="48.86602" lon="2.38433">
        <ele>95</ele>
        <time>2012-12-18T20:11:29.000Z</time>
      </trkpt>
      <trkpt lat="48.866" lon="2.38437">
        <ele>94</ele>
        <time>2012-12-18T20:11:30.000Z</time>
      </trkpt>
      <trkpt lat="48.86597" lon="2.3844">
        <ele>94</ele>
        <time>2012-12-18T20:11:31.000Z</time>
      </trkpt>
      <trkpt lat="48.86595" lon="2.38444">
        <ele>93</ele>
        <time>2012-12-18T20:11:32.000Z</time>
      </trkpt>
      <trkpt lat="48.86593" lon="2.38447">
        <ele>92</ele>
        <time>2012-12-18T20:11:33.000Z</time>
      </trkpt>
      <trkpt lat="48.86589" lon="2.38449">
        <ele>92</ele>
        <time>2012-12-18T20:11:34.000Z</time>
      </trkpt>
      <trkpt lat="48.86587" lon="2.38454">
        <ele>92</ele>
        <time>2012-12-18T20:11:35.000Z</time>
      </trkpt>
      <trkpt lat="48.86584" lon="2.38458">
        <ele>92</ele>
        <time>2012-12-18T20:11:36.000Z</time>
      </trkpt>
      <trkpt lat="48.86581" lon="2.38463">
        <ele>92</ele>
        <time>2012-12-18T20:11:37.000Z</time>
      </trkpt>
      <trkpt lat="48.86578" lon="2.38466">
        <ele>92</ele>
        <time>2012-12-18T20:11:38.000Z</time>
      </trkpt>
      <trkpt lat="48.86574" lon="2.38469">
        <ele>92</ele>
        <time>2012-12-18T20:11:39.000Z</time>
      </trkpt>
      <trkpt lat="48.86571" lon="2.3847">
        <ele>92</ele>
        <time>2012-12-18T20:11:40.000Z</time>
      </trkpt>
      <trkpt lat="48.86567" lon="2.38471">
        <ele>92</ele>
        <time>2012-12-18T20:11:41.000Z</time>
      </trkpt>
      <trkpt lat="48.86564" lon="2.38475">
        <ele>91</ele>
        <time>2012-12-18T20:11:42.000Z</time>
      </trkpt>
      <trkpt lat="48.86562" lon="2.38478">
        <ele>91</ele>
        <time>2012-12-18T20:11:43.000Z</time>
      </trkpt>
      <trkpt lat="48.86558" lon="2.38481">
        <ele>91</ele>
        <time>2012-12-18T20:11:44.000Z</time>
      </trkpt>
      <trkpt lat="48.86554" lon="2.38483">
        <ele>91</ele>
        <time>2012-12-18T20:11:45.000Z</time>
      </trkpt>
      <trkpt lat="48.86552" lon="2.3849">
        <ele>91</ele>
        <time>2012-12-18T20:11:46.000Z</time>
      </trkpt>
      <trkpt lat="48.86551" lon="2.38496">
        <ele>92</ele>
        <time>2012-12-18T20:11:47.000Z</time>
      </trkpt>
      <trkpt lat="48.86548" lon="2.38499">
        <ele>92</ele>
        <time>2012-12-18T20:11:48.000Z</time>
      </trkpt>
      <trkpt lat="48.86545" lon="2.38501">
        <ele>91</ele>
        <time>2012-12-18T20:11:49.000Z</time>
      </trkpt>
      <trkpt lat="48.86541" lon="2.385">
        <ele>91</ele>
        <time>2012-12-18T20:11:50.000Z</time>
      </trkpt>
      <trkpt lat="48.86538" lon="2.38503">
        <ele>91</ele>
        <time>2012-12-18T20:11:51.000Z</time>
      </trkpt>
      <trkpt lat="48.86535" lon="2.38504">
        <ele>92</ele>
        <time>2012-12-18T20:11:52.000Z</time>
      </trkpt>
      <trkpt lat="48.86532" lon="2.38507">
        <ele>92</ele>
        <time>2012-12-18T20:11:54.000Z</time>
      </trkpt>
      <trkpt lat="48.8653" lon="2.38512">
        <ele>92</ele>
        <time>2012-12-18T20:11:55.000Z</time>
      </trkpt>
      <trkpt lat="48.86528" lon="2.38514">
        <ele>92</ele>
        <time>2012-12-18T20:11:56.000Z</time>
      </trkpt>
      <trkpt lat="48.86525" lon="2.38517">
        <ele>92</ele>
        <time>2012-12-18T20:11:57.000Z</time>
      </trkpt>
      <trkpt lat="48.86523" lon="2.3852">
        <ele>92</ele>
        <time>2012-12-18T20:11:58.000Z</time>
      </trkpt>
      <trkpt lat="48.86522" lon="2.38522">
        <ele>92</ele>
        <time>2012-12-18T20:11:59.000Z</time>
      </trkpt>
      <trkpt lat="48.8652" lon="2.38522">
        <ele>92</ele>
        <time>2012-12-18T20:12:00.000Z</time>
      </trkpt>
      <trkpt lat="48.86518" lon="2.38525">
        <ele>93</ele>
        <time>2012-12-18T20:12:01.000Z</time>
      </trkpt>
      <trkpt lat="48.86515" lon="2.38527">
        <ele>93</ele>
        <time>2012-12-18T20:12:02.000Z</time>
      </trkpt>
      <trkpt lat="48.86514" lon="2.38532">
        <ele>92</ele>
        <time>2012-12-18T20:12:03.000Z</time>
      </trkpt>
      <trkpt lat="48.86512" lon="2.38534">
        <ele>92</ele>
        <time>2012-12-18T20:12:04.000Z</time>
      </trkpt>
      <trkpt lat="48.8651" lon="2.38536">
        <ele>91</ele>
        <time>2012-12-18T20:12:05.000Z</time>
      </trkpt>
      <trkpt lat="48.86508" lon="2.38538">
        <ele>92</ele>
        <time>2012-12-18T20:12:06.000Z</time>
      </trkpt>
      <trkpt lat="48.86505" lon="2.38541">
        <ele>92</ele>
        <time>2012-12-18T20:12:07.000Z</time>
      </trkpt>
      <trkpt lat="48.86503" lon="2.38544">
        <ele>93</ele>
        <time>2012-12-18T20:12:08.000Z</time>
      </trkpt>
      <trkpt lat="48.865" lon="2.38548">
        <ele>94</ele>
        <time>2012-12-18T20:12:09.000Z</time>
      </trkpt>
      <trkpt lat="48.86498" lon="2.3855">
        <ele>93</ele>
        <time>2012-12-18T20:12:10.000Z</time>
      </trkpt>
      <trkpt lat="48.86496" lon="2.38552">
        <ele>93</ele>
        <time>2012-12-18T20:12:11.000Z</time>
      </trkpt>
      <trkpt lat="48.86494" lon="2.38558">
        <ele>93</ele>
        <time>2012-12-18T20:12:12.000Z</time>
      </trkpt>
      <trkpt lat="48.86491" lon="2.3856">
        <ele>93</ele>
        <time>2012-12-18T20:12:13.000Z</time>
      </trkpt>
      <trkpt lat="48.86489" lon="2.38563">
        <ele>94</ele>
        <time>2012-12-18T20:12:14.000Z</time>
      </trkpt>
      <trkpt lat="48.86485" lon="2.38565">
        <ele>94</ele>
        <time>2012-12-18T20:12:15.000Z</time>
      </trkpt>
      <trkpt lat="48.86482" lon="2.38568">
        <ele>93</ele>
        <time>2012-12-18T20:12:16.000Z</time>
      </trkpt>
      <trkpt lat="48.86479" lon="2.3857">
        <ele>93</ele>
        <time>2012-12-18T20:12:17.000Z</time>
      </trkpt>
      <trkpt lat="48.86477" lon="2.38573">
        <ele>93</ele>
        <time>2012-12-18T20:12:18.000Z</time>
      </trkpt>
      <trkpt lat="48.86474" lon="2.38576">
        <ele>93</ele>
        <time>2012-12-18T20:12:19.000Z</time>
      </trkpt>
      <trkpt lat="48.86471" lon="2.38577">
        <ele>93</ele>
        <time>2012-12-18T20:12:20.000Z</time>
      </trkpt>
      <trkpt lat="48.86469" lon="2.38581">
        <ele>92</ele>
        <time>2012-12-18T20:12:21.000Z</time>
      </trkpt>
      <trkpt lat="48.86466" lon="2.38582">
        <ele>92</ele>
        <time>2012-12-18T20:12:22.000Z</time>
      </trkpt>
      <trkpt lat="48.86462" lon="2.38586">
        <ele>91</ele>
        <time>2012-12-18T20:12:23.000Z</time>
      </trkpt>
      <trkpt lat="48.86461" lon="2.3859">
        <ele>91</ele>
        <time>2012-12-18T20:12:24.000Z</time>
      </trkpt>
      <trkpt lat="48.86458" lon="2.38596">
        <ele>91</ele>
        <time>2012-12-18T20:12:25.000Z</time>
      </trkpt>
      <trkpt lat="48.86454" lon="2.38596">
        <ele>91</ele>
        <time>2012-12-18T20:12:26.000Z</time>
      </trkpt>
      <trkpt lat="48.86451" lon="2.386">
        <ele>90</ele>
        <time>2012-12-18T20:12:27.000Z</time>
      </trkpt>
      <trkpt lat="48.86449" lon="2.38603">
        <ele>91</ele>
        <time>2012-12-18T20:12:28.000Z</time>
      </trkpt>
      <trkpt lat="48.86445" lon="2.38606">
        <ele>91</ele>
        <time>2012-12-18T20:12:29.000Z</time>
      </trkpt>
      <trkpt lat="48.86444" lon="2.38615">
        <ele>91</ele>
        <time>2012-12-18T20:12:30.000Z</time>
      </trkpt>
      <trkpt lat="48.86442" lon="2.3862">
        <ele>92</ele>
        <time>2012-12-18T20:12:31.000Z</time>
      </trkpt>
      <trkpt lat="48.8644" lon="2.38621">
        <ele>92</ele>
        <time>2012-12-18T20:12:32.000Z</time>
      </trkpt>
      <trkpt lat="48.86438" lon="2.38624">
        <ele>92</ele>
        <time>2012-12-18T20:12:33.000Z</time>
      </trkpt>
      <trkpt lat="48.86438" lon="2.38629">
        <ele>92</ele>
        <time>2012-12-18T20:12:34.000Z</time>
      </trkpt>
      <trkpt lat="48.86436" lon="2.38631">
        <ele>92</ele>
        <time>2012-12-18T20:12:35.000Z</time>
      </trkpt>
      <trkpt lat="48.86434" lon="2.38633">
        <ele>92</ele>
        <time>2012-12-18T20:12:36.000Z</time>
      </trkpt>
      <trkpt lat="48.86432" lon="2.38635">
        <ele>93</ele>
        <time>2012-12-18T20:12:37.000Z</time>
      </trkpt>
      <trkpt lat="48.8643" lon="2.38634">
        <ele>94</ele>
        <time>2012-12-18T20:12:38.000Z</time>
      </trkpt>
      <trkpt lat="48.86429" lon="2.38639">
        <ele>95</ele>
        <time>2012-12-18T20:12:41.000Z</time>
      </trkpt>
      <trkpt lat="48.8643" lon="2.38642">
        <ele>95</ele>
        <time>2012-12-18T20:12:42.000Z</time>
      </trkpt>
      <trkpt lat="48.8643" lon="2.38645">
        <ele>95</ele>
        <time>2012-12-18T20:12:43.000Z</time>
      </trkpt>
      <trkpt lat="48.86431" lon="2.38648">
        <ele>95</ele>
        <time>2012-12-18T20:12:44.000Z</time>
      </trkpt>
      <trkpt lat="48.86432" lon="2.38652">
        <ele>95</ele>
        <time>2012-12-18T20:12:45.000Z</time>
      </trkpt>
      <trkpt lat="48.86433" lon="2.38655">
        <ele>95</ele>
        <time>2012-12-18T20:12:46.000Z</time>
      </trkpt>
      <trkpt lat="48.86434" lon="2.38659">
        <ele>95</ele>
        <time>2012-12-18T20:12:47.000Z</time>
      </trkpt>
      <trkpt lat="48.86435" lon="2.38663">
        <ele>95</ele>
        <time>2012-12-18T20:12:48.000Z</time>
      </trkpt>
      <trkpt lat="48.86436" lon="2.38669">
        <ele>95</ele>
        <time>2012-12-18T20:12:49.000Z</time>
      </trkpt>
      <trkpt lat="48.86437" lon="2.38674">
        <ele>94</ele>
        <time>2012-12-18T20:12:50.000Z</time>
      </trkpt>
      <trkpt lat="48.86436" lon="2.38681">
        <ele>94</ele>
        <time>2012-12-18T20:12:51.000Z</time>
      </trkpt>
      <trkpt lat="48.86437" lon="2.38685">
        <ele>94</ele>
        <time>2012-12-18T20:12:52.000Z</time>
      </trkpt>
      <trkpt lat="48.86438" lon="2.38688">
        <ele>94</ele>
        <time>2012-12-18T20:12:53.000Z</time>
      </trkpt>
      <trkpt lat="48.86439" lon="2.38694">
        <ele>94</ele>
        <time>2012-12-18T20:12:54.000Z</time>
      </trkpt>
      <trkpt lat="48.86439" lon="2.38699">
        <ele>94</ele>
        <time>2012-12-18T20:12:55.000Z</time>
      </trkpt>
      <trkpt lat="48.86441" lon="2.38704">
        <ele>94</ele>
        <time>2012-12-18T20:12:56.000Z</time>
      </trkpt>
      <trkpt lat="48.86442" lon="2.3871">
        <ele>95</ele>
        <time>2012-12-18T20:12:57.000Z</time>
      </trkpt>
      <trkpt lat="48.86441" lon="2.38718">
        <ele>94</ele>
        <time>2012-12-18T20:12:58.000Z</time>
      </trkpt>
      <trkpt lat="48.86443" lon="2.38721">
        <ele>95</ele>
        <time>2012-12-18T20:12:59.000Z</time>
      </trkpt>
      <trkpt lat="48.86447" lon="2.38726">
        <ele>95</ele>
        <time>2012-12-18T20:13:00.000Z</time>
      </trkpt>
      <trkpt lat="48.86451" lon="2.38728">
        <ele>95</ele>
        <time>2012-12-18T20:13:01.000Z</time>
      </trkpt>
      <trkpt lat="48.86453" lon="2.38733">
        <ele>95</ele>
        <time>2012-12-18T20:13:02.000Z</time>
      </trkpt>
      <trkpt lat="48.86456" lon="2.38737">
        <ele>96</ele>
        <time>2012-12-18T20:13:03.000Z</time>
      </trkpt>
      <trkpt lat="48.86458" lon="2.38741">
        <ele>96</ele>
        <time>2012-12-18T20:13:04.000Z</time>
      </trkpt>
      <trkpt lat="48.86458" lon="2.38744">
        <ele>96</ele>
        <time>2012-12-18T20:13:05.000Z</time>
      </trkpt>
      <trkpt lat="48.8646" lon="2.38747">
        <ele>96</ele>
        <time>2012-12-18T20:13:06.000Z</time>
      </trkpt>
      <trkpt lat="48.86463" lon="2.38751">
        <ele>95</ele>
        <time>2012-12-18T20:13:07.000Z</time>
      </trkpt>
      <trkpt lat="48.86464" lon="2.38754">
        <ele>96</ele>
        <time>2012-12-18T20:13:08.000Z</time>
      </trkpt>
      <trkpt lat="48.86467" lon="2.38755">
        <ele>96</ele>
        <time>2012-12-18T20:13:09.000Z</time>
      </trkpt>
      <trkpt lat="48.86468" lon="2.38759">
        <ele>96</ele>
        <time>2012-12-18T20:13:10.000Z</time>
      </trkpt>
      <trkpt lat="48.86469" lon="2.38763">
        <ele>96</ele>
        <time>2012-12-18T20:13:11.000Z</time>
      </trkpt>
      <trkpt lat="48.8647" lon="2.38769">
        <ele>96</ele>
        <time>2012-12-18T20:13:13.000Z</time>
      </trkpt>
      <trkpt lat="48.86473" lon="2.38773">
        <ele>96</ele>
        <time>2012-12-18T20:13:14.000Z</time>
      </trkpt>
      <trkpt lat="48.86476" lon="2.3878">
        <ele>95</ele>
        <time>2012-12-18T20:13:15.000Z</time>
      </trkpt>
      <trkpt lat="48.86476" lon="2.38784">
        <ele>95</ele>
        <time>2012-12-18T20:13:16.000Z</time>
      </trkpt>
      <trkpt lat="48.8648" lon="2.38787">
        <ele>96</ele>
        <time>2012-12-18T20:13:17.000Z</time>
      </trkpt>
      <trkpt lat="48.86483" lon="2.38792">
        <ele>97</ele>
        <time>2012-12-18T20:13:18.000Z</time>
      </trkpt>
      <trkpt lat="48.86486" lon="2.388">
        <ele>99</ele>
        <time>2012-12-18T20:13:19.000Z</time>
      </trkpt>
      <trkpt lat="48.86489" lon="2.38804">
        <ele>100</ele>
        <time>2012-12-18T20:13:20.000Z</time>
      </trkpt>
      <trkpt lat="48.86488" lon="2.38809">
        <ele>102</ele>
        <time>2012-12-18T20:13:21.000Z</time>
      </trkpt>
      <trkpt lat="48.86488" lon="2.38814">
        <ele>103</ele>
        <time>2012-12-18T20:13:22.000Z</time>
      </trkpt>
      <trkpt lat="48.86489" lon="2.38817">
        <ele>102</ele>
        <time>2012-12-18T20:13:23.000Z</time>
      </trkpt>
      <trkpt lat="48.8649" lon="2.38823">
        <ele>103</ele>
        <time>2012-12-18T20:13:24.000Z</time>
      </trkpt>
      <trkpt lat="48.86492" lon="2.38823">
        <ele>103</ele>
        <time>2012-12-18T20:13:25.000Z</time>
      </trkpt>
      <trkpt lat="48.86495" lon="2.38827">
        <ele>102</ele>
        <time>2012-12-18T20:13:27.000Z</time>
      </trkpt>
      <trkpt lat="48.86496" lon="2.38829">
        <ele>102</ele>
        <time>2012-12-18T20:13:28.000Z</time>
      </trkpt>
      <trkpt lat="48.86497" lon="2.38832">
        <ele>102</ele>
        <time>2012-12-18T20:13:29.000Z</time>
      </trkpt>
      <trkpt lat="48.86496" lon="2.38837">
        <ele>103</ele>
        <time>2012-12-18T20:13:30.000Z</time>
      </trkpt>
      <trkpt lat="48.86496" lon="2.38841">
        <ele>103</ele>
        <time>2012-12-18T20:13:31.000Z</time>
      </trkpt>
      <trkpt lat="48.86497" lon="2.38845">
        <ele>103</ele>
        <time>2012-12-18T20:13:32.000Z</time>
      </trkpt>
      <trkpt lat="48.86498" lon="2.3885">
        <ele>103</ele>
        <time>2012-12-18T20:13:33.000Z</time>
      </trkpt>
      <trkpt lat="48.865" lon="2.38853">
        <ele>102</ele>
        <time>2012-12-18T20:13:34.000Z</time>
      </trkpt>
      <trkpt lat="48.86501" lon="2.38857">
        <ele>102</ele>
        <time>2012-12-18T20:13:35.000Z</time>
      </trkpt>
      <trkpt lat="48.86502" lon="2.3886">
        <ele>102</ele>
        <time>2012-12-18T20:13:36.000Z</time>
      </trkpt>
      <trkpt lat="48.86502" lon="2.38865">
        <ele>102</ele>
        <time>2012-12-18T20:13:37.000Z</time>
      </trkpt>
      <trkpt lat="48.86503" lon="2.38868">
        <ele>101</ele>
        <time>2012-12-18T20:13:38.000Z</time>
      </trkpt>
      <trkpt lat="48.86503" lon="2.38873">
        <ele>101</ele>
        <time>2012-12-18T20:13:39.000Z</time>
      </trkpt>
      <trkpt lat="48.86504" lon="2.38875">
        <ele>101</ele>
        <time>2012-12-18T20:13:40.000Z</time>
      </trkpt>
      <trkpt lat="48.86505" lon="2.3888">
        <ele>100</ele>
        <time>2012-12-18T20:13:41.000Z</time>
      </trkpt>
      <trkpt lat="48.86506" lon="2.38885">
        <ele>100</ele>
        <time>2012-12-18T20:13:42.000Z</time>
      </trkpt>
      <trkpt lat="48.86509" lon="2.38888">
        <ele>100</ele>
        <time>2012-12-18T20:13:43.000Z</time>
      </trkpt>
      <trkpt lat="48.8651" lon="2.38893">
        <ele>100</ele>
        <time>2012-12-18T20:13:44.000Z</time>
      </trkpt>
      <trkpt lat="48.86512" lon="2.38896">
        <ele>100</ele>
        <time>2012-12-18T20:13:45.000Z</time>
      </trkpt>
      <trkpt lat="48.86513" lon="2.38899">
        <ele>100</ele>
        <time>2012-12-18T20:13:46.000Z</time>
      </trkpt>
      <trkpt lat="48.86514" lon="2.38903">
        <ele>100</ele>
        <time>2012-12-18T20:13:47.000Z</time>
      </trkpt>
      <trkpt lat="48.86516" lon="2.38908">
        <ele>100</ele>
        <time>2012-12-18T20:13:48.000Z</time>
      </trkpt>
      <trkpt lat="48.86519" lon="2.3891">
        <ele>100</ele>
        <time>2012-12-18T20:13:49.000Z</time>
      </trkpt>
      <trkpt lat="48.86519" lon="2.38914">
        <ele>100</ele>
        <time>2012-12-18T20:13:50.000Z</time>
      </trkpt>
      <trkpt lat="48.8652" lon="2.38919">
        <ele>100</ele>
        <time>2012-12-18T20:13:51.000Z</time>
      </trkpt>
      <trkpt lat="48.86525" lon="2.3892">
        <ele>100</ele>
        <time>2012-12-18T20:13:52.000Z</time>
      </trkpt>
      <trkpt lat="48.86528" lon="2.38922">
        <ele>99</ele>
        <time>2012-12-18T20:13:53.000Z</time>
      </trkpt>
      <trkpt lat="48.86531" lon="2.38925">
        <ele>99</ele>
        <time>2012-12-18T20:13:54.000Z</time>
      </trkpt>
      <trkpt lat="48.86531" lon="2.38928">
        <ele>99</ele>
        <time>2012-12-18T20:13:55.000Z</time>
      </trkpt>
      <trkpt lat="48.86532" lon="2.38932">
        <ele>99</ele>
        <time>2012-12-18T20:13:56.000Z</time>
      </trkpt>
      <trkpt lat="48.86533" lon="2.38933">
        <ele>99</ele>
        <time>2012-12-18T20:13:57.000Z</time>
      </trkpt>
      <trkpt lat="48.86532" lon="2.3894">
        <ele>99</ele>
        <time>2012-12-18T20:13:58.000Z</time>
      </trkpt>
      <trkpt lat="48.86533" lon="2.38942">
        <ele>99</ele>
        <time>2012-12-18T20:13:59.000Z</time>
      </trkpt>
      <trkpt lat="48.86535" lon="2.38948">
        <ele>100</ele>
        <time>2012-12-18T20:14:00.000Z</time>
      </trkpt>
      <trkpt lat="48.86535" lon="2.38951">
        <ele>101</ele>
        <time>2012-12-18T20:14:01.000Z</time>
      </trkpt>
      <trkpt lat="48.86539" lon="2.38955">
        <ele>103</ele>
        <time>2012-12-18T20:14:02.000Z</time>
      </trkpt>
      <trkpt lat="48.86551" lon="2.38953">
        <ele>106</ele>
        <time>2012-12-18T20:14:03.000Z</time>
      </trkpt>
      <trkpt lat="48.86553" lon="2.38959">
        <ele>108</ele>
        <time>2012-12-18T20:14:05.000Z</time>
      </trkpt>
      <trkpt lat="48.86552" lon="2.38961">
        <ele>108</ele>
        <time>2012-12-18T20:14:06.000Z</time>
      </trkpt>
      <trkpt lat="48.86549" lon="2.38966">
        <ele>109</ele>
        <time>2012-12-18T20:14:07.000Z</time>
      </trkpt>
      <trkpt lat="48.86552" lon="2.38969">
        <ele>111</ele>
        <time>2012-12-18T20:14:10.000Z</time>
      </trkpt>
      <trkpt lat="48.86554" lon="2.3897">
        <ele>111</ele>
        <time>2012-12-18T20:14:11.000Z</time>
      </trkpt>
      <trkpt lat="48.86554" lon="2.38975">
        <ele>112</ele>
        <time>2012-12-18T20:14:12.000Z</time>
      </trkpt>
      <trkpt lat="48.86554" lon="2.38981">
        <ele>114</ele>
        <time>2012-12-18T20:14:13.000Z</time>
      </trkpt>
      <trkpt lat="48.86556" lon="2.38985">
        <ele>114</ele>
        <time>2012-12-18T20:14:15.000Z</time>
      </trkpt>
      <trkpt lat="48.86557" lon="2.38989">
        <ele>115</ele>
        <time>2012-12-18T20:14:16.000Z</time>
      </trkpt>
      <trkpt lat="48.86559" lon="2.3899">
        <ele>115</ele>
        <time>2012-12-18T20:14:17.000Z</time>
      </trkpt>
      <trkpt lat="48.86563" lon="2.38993">
        <ele>116</ele>
        <time>2012-12-18T20:14:18.000Z</time>
      </trkpt>
      <trkpt lat="48.86564" lon="2.38999">
        <ele>116</ele>
        <time>2012-12-18T20:14:20.000Z</time>
      </trkpt>
      <trkpt lat="48.86564" lon="2.39001">
        <ele>115</ele>
        <time>2012-12-18T20:14:21.000Z</time>
      </trkpt>
      <trkpt lat="48.86563" lon="2.39005">
        <ele>114</ele>
        <time>2012-12-18T20:14:23.000Z</time>
      </trkpt>
      <trkpt lat="48.86564" lon="2.3901">
        <ele>115</ele>
        <time>2012-12-18T20:14:24.000Z</time>
      </trkpt>
      <trkpt lat="48.86564" lon="2.39018">
        <ele>114</ele>
        <time>2012-12-18T20:14:26.000Z</time>
      </trkpt>
      <trkpt lat="48.86564" lon="2.39023">
        <ele>115</ele>
        <time>2012-12-18T20:14:27.000Z</time>
      </trkpt>
      <trkpt lat="48.86564" lon="2.39026">
        <ele>114</ele>
        <time>2012-12-18T20:14:28.000Z</time>
      </trkpt>
      <trkpt lat="48.86563" lon="2.3903">
        <ele>114</ele>
        <time>2012-12-18T20:14:30.000Z</time>
      </trkpt>
      <trkpt lat="48.86563" lon="2.39034">
        <ele>114</ele>
        <time>2012-12-18T20:14:31.000Z</time>
      </trkpt>
      <trkpt lat="48.86563" lon="2.39039">
        <ele>114</ele>
        <time>2012-12-18T20:14:33.000Z</time>
      </trkpt>
      <trkpt lat="48.86563" lon="2.39041">
        <ele>114</ele>
        <time>2012-12-18T20:14:34.000Z</time>
      </trkpt>
      <trkpt lat="48.86563" lon="2.39045">
        <ele>114</ele>
        <time>2012-12-18T20:14:35.000Z</time>
      </trkpt>
      <trkpt lat="48.86563" lon="2.39048">
        <ele>114</ele>
        <time>2012-12-18T20:14:36.000Z</time>
      </trkpt>
      <trkpt lat="48.86563" lon="2.39053">
        <ele>114</ele>
        <time>2012-12-18T20:14:38.000Z</time>
      </trkpt>
      <trkpt lat="48.86564" lon="2.39057">
        <ele>114</ele>
        <time>2012-12-18T20:14:39.000Z</time>
      </trkpt>
      <trkpt lat="48.86564" lon="2.3906">
        <ele>114</ele>
        <time>2012-12-18T20:14:40.000Z</time>
      </trkpt>
      <trkpt lat="48.8656" lon="2.39065">
        <ele>113</ele>
        <time>2012-12-18T20:14:41.000Z</time>
      </trkpt>
      <trkpt lat="48.8653" lon="2.39072">
        <ele>113</ele>
        <time>2012-12-18T20:14:42.000Z</time>
      </trkpt>
      <trkpt lat="48.86526" lon="2.39075">
        <ele>113</ele>
        <time>2012-12-18T20:14:43.000Z</time>
      </trkpt>
      <trkpt lat="48.86526" lon="2.39085">
        <ele>114</ele>
        <time>2012-12-18T20:14:44.000Z</time>
      </trkpt>
      <trkpt lat="48.86525" lon="2.39091">
        <ele>114</ele>
        <time>2012-12-18T20:14:45.000Z</time>
      </trkpt>
      <trkpt lat="48.8652" lon="2.39096">
        <ele>115</ele>
        <time>2012-12-18T20:14:46.000Z</time>
      </trkpt>
      <trkpt lat="48.86515" lon="2.39099">
        <ele>115</ele>
        <time>2012-12-18T20:14:47.000Z</time>
      </trkpt>
      <trkpt lat="48.86512" lon="2.391">
        <ele>115</ele>
        <time>2012-12-18T20:14:49.000Z</time>
      </trkpt>
      <trkpt lat="48.8651" lon="2.39101">
        <ele>114</ele>
        <time>2012-12-18T20:14:50.000Z</time>
      </trkpt>
      <trkpt lat="48.86508" lon="2.39107">
        <ele>114</ele>
        <time>2012-12-18T20:14:52.000Z</time>
      </trkpt>
      <trkpt lat="48.8651" lon="2.3911">
        <ele>113</ele>
        <time>2012-12-18T20:14:53.000Z</time>
      </trkpt>
      <trkpt lat="48.8651" lon="2.39116">
        <ele>114</ele>
        <time>2012-12-18T20:14:57.000Z</time>
      </trkpt>
      <trkpt lat="48.8651" lon="2.39118">
        <ele>115</ele>
        <time>2012-12-18T20:14:58.000Z</time>
      </trkpt>
      <trkpt lat="48.86511" lon="2.39122">
        <ele>114</ele>
        <time>2012-12-18T20:15:00.000Z</time>
      </trkpt>
      <trkpt lat="48.86512" lon="2.39129">
        <ele>114</ele>
        <time>2012-12-18T20:15:01.000Z</time>
      </trkpt>
      <trkpt lat="48.86512" lon="2.39134">
        <ele>115</ele>
        <time>2012-12-18T20:15:02.000Z</time>
      </trkpt>
      <trkpt lat="48.86512" lon="2.39138">
        <ele>115</ele>
        <time>2012-12-18T20:15:03.000Z</time>
      </trkpt>
      <trkpt lat="48.86513" lon="2.39141">
        <ele>115</ele>
        <time>2012-12-18T20:15:04.000Z</time>
      </trkpt>
      <trkpt lat="48.86513" lon="2.39147">
        <ele>115</ele>
        <time>2012-12-18T20:15:05.000Z</time>
      </trkpt>
      <trkpt lat="48.86513" lon="2.39152">
        <ele>115</ele>
        <time>2012-12-18T20:15:06.000Z</time>
      </trkpt>
      <trkpt lat="48.86514" lon="2.39157">
        <ele>115</ele>
        <time>2012-12-18T20:15:07.000Z</time>
      </trkpt>
      <trkpt lat="48.86515" lon="2.39162">
        <ele>115</ele>
        <time>2012-12-18T20:15:08.000Z</time>
      </trkpt>
      <trkpt lat="48.86514" lon="2.39165">
        <ele>115</ele>
        <time>2012-12-18T20:15:09.000Z</time>
      </trkpt>
      <trkpt lat="48.86515" lon="2.3917">
        <ele>115</ele>
        <time>2012-12-18T20:15:10.000Z</time>
      </trkpt>
      <trkpt lat="48.86515" lon="2.39173">
        <ele>115</ele>
        <time>2012-12-18T20:15:11.000Z</time>
      </trkpt>
      <trkpt lat="48.86515" lon="2.3918">
        <ele>116</ele>
        <time>2012-12-18T20:15:13.000Z</time>
      </trkpt>
      <trkpt lat="48.8652" lon="2.39183">
        <ele>115</ele>
        <time>2012-12-18T20:15:14.000Z</time>
      </trkpt>
      <trkpt lat="48.86522" lon="2.39184">
        <ele>115</ele>
        <time>2012-12-18T20:15:15.000Z</time>
      </trkpt>
      <trkpt lat="48.86521" lon="2.39189">
        <ele>115</ele>
        <time>2012-12-18T20:15:16.000Z</time>
      </trkpt>
      <trkpt lat="48.8652" lon="2.39195">
        <ele>115</ele>
        <time>2012-12-18T20:15:18.000Z</time>
      </trkpt>
      <trkpt lat="48.86519" lon="2.39198">
        <ele>115</ele>
        <time>2012-12-18T20:15:19.000Z</time>
      </trkpt>
      <trkpt lat="48.8652" lon="2.39201">
        <ele>115</ele>
        <time>2012-12-18T20:15:20.000Z</time>
      </trkpt>
      <trkpt lat="48.86519" lon="2.39205">
        <ele>115</ele>
        <time>2012-12-18T20:15:21.000Z</time>
      </trkpt>
      <trkpt lat="48.86519" lon="2.3921">
        <ele>115</ele>
        <time>2012-12-18T20:15:22.000Z</time>
      </trkpt>
      <trkpt lat="48.86519" lon="2.39213">
        <ele>116</ele>
        <time>2012-12-18T20:15:23.000Z</time>
      </trkpt>
      <trkpt lat="48.86519" lon="2.3922">
        <ele>116</ele>
        <time>2012-12-18T20:15:25.000Z</time>
      </trkpt>
      <trkpt lat="48.86518" lon="2.39223">
        <ele>116</ele>
        <time>2012-12-18T20:15:26.000Z</time>
      </trkpt>
      <trkpt lat="48.86519" lon="2.39229">
        <ele>115</ele>
        <time>2012-12-18T20:15:28.000Z</time>
      </trkpt>
      <trkpt lat="48.86518" lon="2.39236">
        <ele>115</ele>
        <time>2012-12-18T20:15:29.000Z</time>
      </trkpt>
      <trkpt lat="48.8652" lon="2.39238">
        <ele>115</ele>
        <time>2012-12-18T20:15:30.000Z</time>
      </trkpt>
      <trkpt lat="48.86521" lon="2.39243">
        <ele>114</ele>
        <time>2012-12-18T20:15:31.000Z</time>
      </trkpt>
      <trkpt lat="48.8652" lon="2.39249">
        <ele>115</ele>
        <time>2012-12-18T20:15:33.000Z</time>
      </trkpt>
      <trkpt lat="48.86537" lon="2.39253">
        <ele>116</ele>
        <time>2012-12-18T20:15:34.000Z</time>
      </trkpt>
      <trkpt lat="48.86537" lon="2.39258">
        <ele>116</ele>
        <time>2012-12-18T20:15:37.000Z</time>
      </trkpt>
      <trkpt lat="48.86538" lon="2.39262">
        <ele>116</ele>
        <time>2012-12-18T20:15:38.000Z</time>
      </trkpt>
      <trkpt lat="48.86538" lon="2.39265">
        <ele>116</ele>
        <time>2012-12-18T20:15:39.000Z</time>
      </trkpt>
      <trkpt lat="48.86533" lon="2.39268">
        <ele>116</ele>
        <time>2012-12-18T20:15:40.000Z</time>
      </trkpt>
      <trkpt lat="48.86534" lon="2.39273">
        <ele>116</ele>
        <time>2012-12-18T20:15:42.000Z</time>
      </trkpt>
      <trkpt lat="48.86534" lon="2.39276">
        <ele>117</ele>
        <time>2012-12-18T20:15:43.000Z</time>
      </trkpt>
      <trkpt lat="48.86528" lon="2.39278">
        <ele>117</ele>
        <time>2012-12-18T20:15:44.000Z</time>
      </trkpt>
      <trkpt lat="48.86527" lon="2.39281">
        <ele>117</ele>
        <time>2012-12-18T20:15:45.000Z</time>
      </trkpt>
      <trkpt lat="48.86527" lon="2.39285">
        <ele>117</ele>
        <time>2012-12-18T20:15:46.000Z</time>
      </trkpt>
      <trkpt lat="48.86526" lon="2.39291">
        <ele>116</ele>
        <time>2012-12-18T20:15:48.000Z</time>
      </trkpt>
      <trkpt lat="48.8653" lon="2.39294">
        <ele>117</ele>
        <time>2012-12-18T20:15:49.000Z</time>
      </trkpt>
      <trkpt lat="48.86529" lon="2.39299">
        <ele>117</ele>
        <time>2012-12-18T20:15:51.000Z</time>
      </trkpt>
      <trkpt lat="48.86532" lon="2.39301">
        <ele>117</ele>
        <time>2012-12-18T20:15:52.000Z</time>
      </trkpt>
      <trkpt lat="48.86532" lon="2.39307">
        <ele>126</ele>
        <time>2012-12-18T20:15:58.000Z</time>
      </trkpt>
      <trkpt lat="48.8653" lon="2.39309">
        <ele>127</ele>
        <time>2012-12-18T20:15:59.000Z</time>
      </trkpt>
      <trkpt lat="48.86528" lon="2.39312">
        <ele>129</ele>
        <time>2012-12-18T20:16:01.000Z</time>
      </trkpt>
      <trkpt lat="48.86527" lon="2.39315">
        <ele>129</ele>
        <time>2012-12-18T20:16:02.000Z</time>
      </trkpt>
      <trkpt lat="48.86525" lon="2.39317">
        <ele>130</ele>
        <time>2012-12-18T20:16:04.000Z</time>
      </trkpt>
      <trkpt lat="48.86523" lon="2.39322">
        <ele>132</ele>
        <time>2012-12-18T20:16:05.000Z</time>
      </trkpt>
      <trkpt lat="48.8652" lon="2.39327">
        <ele>132</ele>
        <time>2012-12-18T20:16:08.000Z</time>
      </trkpt>
      <trkpt lat="48.86512" lon="2.39331">
        <ele>130</ele>
        <time>2012-12-18T20:16:09.000Z</time>
      </trkpt>
      <trkpt lat="48.86513" lon="2.39334">
        <ele>130</ele>
        <time>2012-12-18T20:16:10.000Z</time>
      </trkpt>
      <trkpt lat="48.8651" lon="2.39337">
        <ele>130</ele>
        <time>2012-12-18T20:16:11.000Z</time>
      </trkpt>
      <trkpt lat="48.86507" lon="2.39341">
        <ele>129</ele>
        <time>2012-12-18T20:16:18.000Z</time>
      </trkpt>
      <trkpt lat="48.86507" lon="2.39342">
        <ele>128</ele>
        <time>2012-12-18T20:16:19.000Z</time>
      </trkpt>
      <trkpt lat="48.86505" lon="2.39347">
        <ele>127</ele>
        <time>2012-12-18T20:16:22.000Z</time>
      </trkpt>
      <trkpt lat="48.86505" lon="2.39352">
        <ele>126</ele>
        <time>2012-12-18T20:16:23.000Z</time>
      </trkpt>
      <trkpt lat="48.86503" lon="2.39358">
        <ele>126</ele>
        <time>2012-12-18T20:16:25.000Z</time>
      </trkpt>
      <trkpt lat="48.86501" lon="2.39362">
        <ele>125</ele>
        <time>2012-12-18T20:16:26.000Z</time>
      </trkpt>
      <trkpt lat="48.865" lon="2.39365">
        <ele>126</ele>
        <time>2012-12-18T20:16:27.000Z</time>
      </trkpt>
      <trkpt lat="48.86498" lon="2.39369">
        <ele>126</ele>
        <time>2012-12-18T20:16:28.000Z</time>
      </trkpt>
      <trkpt lat="48.86496" lon="2.39372">
        <ele>126</ele>
        <time>2012-12-18T20:16:29.000Z</time>
      </trkpt>
      <trkpt lat="48.86495" lon="2.39377">
        <ele>126</ele>
        <time>2012-12-18T20:16:30.000Z</time>
      </trkpt>
      <trkpt lat="48.86494" lon="2.39383">
        <ele>124</ele>
        <time>2012-12-18T20:16:31.000Z</time>
      </trkpt>
      <trkpt lat="48.86491" lon="2.39388">
        <ele>123</ele>
        <time>2012-12-18T20:16:32.000Z</time>
      </trkpt>
      <trkpt lat="48.8649" lon="2.39394">
        <ele>124</ele>
        <time>2012-12-18T20:16:34.000Z</time>
      </trkpt>
      <trkpt lat="48.86493" lon="2.39396">
        <ele>125</ele>
        <time>2012-12-18T20:16:35.000Z</time>
      </trkpt>
      <trkpt lat="48.86497" lon="2.39398">
        <ele>125</ele>
        <time>2012-12-18T20:16:42.000Z</time>
      </trkpt>
      <trkpt lat="48.86498" lon="2.39397">
        <ele>125</ele>
        <time>2012-12-18T20:16:43.000Z</time>
      </trkpt>
      <trkpt lat="48.86503" lon="2.39396">
        <ele>126</ele>
        <time>2012-12-18T20:16:57.000Z</time>
      </trkpt>
      <trkpt lat="48.86503" lon="2.39396">
        <ele>126</ele>
        <time>2012-12-18T20:16:58.000Z</time>
      </trkpt>
      <trkpt lat="48.86501" lon="2.3939">
        <ele>125</ele>
        <time>2012-12-18T20:17:41.000Z</time>
      </trkpt>
      <trkpt lat="48.865" lon="2.39388">
        <ele>125</ele>
        <time>2012-12-18T20:17:42.000Z</time>
      </trkpt>
      <trkpt lat="48.86498" lon="2.39384">
        <ele>125</ele>
        <time>2012-12-18T20:17:43.000Z</time>
      </trkpt>
      <trkpt lat="48.86497" lon="2.39381">
        <ele>125</ele>
        <time>2012-12-18T20:17:44.000Z</time>
      </trkpt>
      <trkpt lat="48.86495" lon="2.39375">
        <ele>124</ele>
        <time>2012-12-18T20:17:46.000Z</time>
      </trkpt>
      <trkpt lat="48.86493" lon="2.39373">
        <ele>125</ele>
        <time>2012-12-18T20:17:47.000Z</time>
      </trkpt>
      <trkpt lat="48.86492" lon="2.39369">
        <ele>125</ele>
        <time>2012-12-18T20:17:48.000Z</time>
      </trkpt>
      <trkpt lat="48.86491" lon="2.39366">
        <ele>125</ele>
        <time>2012-12-18T20:17:49.000Z</time>
      </trkpt>
      <trkpt lat="48.86488" lon="2.39362">
        <ele>125</ele>
        <time>2012-12-18T20:17:51.000Z</time>
      </trkpt>
      <trkpt lat="48.86488" lon="2.39358">
        <ele>124</ele>
        <time>2012-12-18T20:17:52.000Z</time>
      </trkpt>
      <trkpt lat="48.86489" lon="2.39354">
        <ele>123</ele>
        <time>2012-12-18T20:17:54.000Z</time>
      </trkpt>
      <trkpt lat="48.865" lon="2.3935">
        <ele>124</ele>
        <time>2012-12-18T20:17:55.000Z</time>
      </trkpt>
      <trkpt lat="48.86503" lon="2.39346">
        <ele>125</ele>
        <time>2012-12-18T20:18:07.000Z</time>
      </trkpt>
      <trkpt lat="48.86504" lon="2.39346">
        <ele>125</ele>
        <time>2012-12-18T20:18:08.000Z</time>
      </trkpt>
      <trkpt lat="48.86507" lon="2.39347">
        <ele>131</ele>
        <time>2012-12-18T20:19:11.000Z</time>
      </trkpt>
      <trkpt lat="48.86507" lon="2.39351">
        <ele>130</ele>
        <time>2012-12-18T20:19:12.000Z</time>
      </trkpt>
      <trkpt lat="48.86507" lon="2.39356">
        <ele>128</ele>
        <time>2012-12-18T20:19:14.000Z</time>
      </trkpt>
      <trkpt lat="48.86507" lon="2.39358">
        <ele>129</ele>
        <time>2012-12-18T20:19:15.000Z</time>
      </trkpt>
      <trkpt lat="48.86507" lon="2.39364">
        <ele>128</ele>
        <time>2012-12-18T20:19:17.000Z</time>
      </trkpt>
      <trkpt lat="48.86507" lon="2.39369">
        <ele>127</ele>
        <time>2012-12-18T20:19:18.000Z</time>
      </trkpt>
      <trkpt lat="48.86506" lon="2.39373">
        <ele>128</ele>
        <time>2012-12-18T20:19:19.000Z</time>
      </trkpt>
      <trkpt lat="48.86504" lon="2.39376">
        <ele>128</ele>
        <time>2012-12-18T20:19:20.000Z</time>
      </trkpt>
      <trkpt lat="48.86503" lon="2.3938">
        <ele>127</ele>
        <time>2012-12-18T20:19:21.000Z</time>
      </trkpt>
      <trkpt lat="48.86501" lon="2.39384">
        <ele>128</ele>
        <time>2012-12-18T20:19:22.000Z</time>
      </trkpt>
      <trkpt lat="48.865" lon="2.39388">
        <ele>128</ele>
        <time>2012-12-18T20:19:23.000Z</time>
      </trkpt>
      <trkpt lat="48.86499" lon="2.39391">
        <ele>128</ele>
        <time>2012-12-18T20:19:24.000Z</time>
      </trkpt>
      <trkpt lat="48.86496" lon="2.39396">
        <ele>128</ele>
        <time>2012-12-18T20:19:26.000Z</time>
      </trkpt>
      <trkpt lat="48.86496" lon="2.39397">
        <ele>128</ele>
        <time>2012-12-18T20:19:27.000Z</time>
      </trkpt>
      <trkpt lat="48.86499" lon="2.394">
        <ele>129</ele>
        <time>2012-12-18T20:19:43.000Z</time>
      </trkpt>
      <trkpt lat="48.865" lon="2.39403">
        <ele>129</ele>
        <time>2012-12-18T20:19:44.000Z</time>
      </trkpt>
      <trkpt lat="48.86498" lon="2.39406">
        <ele>129</ele>
        <time>2012-12-18T20:19:47.000Z</time>
      </trkpt>
      <trkpt lat="48.86496" lon="2.39409">
        <ele>130</ele>
        <time>2012-12-18T20:19:48.000Z</time>
      </trkpt>
      <trkpt lat="48.86492" lon="2.39411">
        <ele>132</ele>
        <time>2012-12-18T20:19:52.000Z</time>
      </trkpt>
      <trkpt lat="48.86492" lon="2.39412">
        <ele>132</ele>
        <time>2012-12-18T20:19:53.000Z</time>
      </trkpt>
      <trkpt lat="48.86493" lon="2.39414">
        <ele>141</ele>
        <time>2012-12-18T20:21:22.000Z</time>
      </trkpt>
      <trkpt lat="48.86492" lon="2.39419">
        <ele>142</ele>
        <time>2012-12-18T20:21:23.000Z</time>
      </trkpt>
      <trkpt lat="48.86488" lon="2.39422">
        <ele>140</ele>
        <time>2012-12-18T20:21:26.000Z</time>
      </trkpt>
      <trkpt lat="48.86491" lon="2.39427">
        <ele>138</ele>
        <time>2012-12-18T20:21:27.000Z</time>
      </trkpt>
      <trkpt lat="48.8649" lon="2.39433">
        <ele>138</ele>
        <time>2012-12-18T20:21:29.000Z</time>
      </trkpt>
      <trkpt lat="48.86487" lon="2.39435">
        <ele>138</ele>
        <time>2012-12-18T20:21:30.000Z</time>
      </trkpt>
      <trkpt lat="48.86485" lon="2.3944">
        <ele>137</ele>
        <time>2012-12-18T20:21:32.000Z</time>
      </trkpt>
      <trkpt lat="48.86484" lon="2.39441">
        <ele>136</ele>
        <time>2012-12-18T20:21:33.000Z</time>
      </trkpt>
      <trkpt lat="48.86488" lon="2.39441">
        <ele>136</ele>
        <time>2012-12-18T20:21:39.000Z</time>
      </trkpt>
      <trkpt lat="48.86489" lon="2.39441">
        <ele>137</ele>
        <time>2012-12-18T20:21:40.000Z</time>
      </trkpt>
      <trkpt lat="48.86492" lon="2.39445">
        <ele>140</ele>
        <time>2012-12-18T20:21:50.000Z</time>
      </trkpt>
      <trkpt lat="48.86491" lon="2.39448">
        <ele>137</ele>
        <time>2012-12-18T20:21:51.000Z</time>
      </trkpt>
      <trkpt lat="48.86491" lon="2.39454">
        <ele>136</ele>
        <time>2012-12-18T20:21:54.000Z</time>
      </trkpt>
      <trkpt lat="48.86491" lon="2.39456">
        <ele>135</ele>
        <time>2012-12-18T20:21:55.000Z</time>
      </trkpt>
      <trkpt lat="48.86491" lon="2.39461">
        <ele>133</ele>
        <time>2012-12-18T20:21:57.000Z</time>
      </trkpt>
      <trkpt lat="48.86491" lon="2.39464">
        <ele>133</ele>
        <time>2012-12-18T20:21:58.000Z</time>
      </trkpt>
      <trkpt lat="48.8649" lon="2.3947">
        <ele>131</ele>
        <time>2012-12-18T20:22:01.000Z</time>
      </trkpt>
      <trkpt lat="48.8649" lon="2.39472">
        <ele>130</ele>
        <time>2012-12-18T20:22:02.000Z</time>
      </trkpt>
      <trkpt lat="48.86492" lon="2.39475">
        <ele>131</ele>
        <time>2012-12-18T20:22:04.000Z</time>
      </trkpt>
      <trkpt lat="48.86492" lon="2.39477">
        <ele>130</ele>
        <time>2012-12-18T20:22:05.000Z</time>
      </trkpt>
      <trkpt lat="48.86495" lon="2.39483">
        <ele>130</ele>
        <time>2012-12-18T20:22:09.000Z</time>
      </trkpt>
      <trkpt lat="48.86497" lon="2.39486">
        <ele>130</ele>
        <time>2012-12-18T20:22:10.000Z</time>
      </trkpt>
      <trkpt lat="48.86498" lon="2.39491">
        <ele>130</ele>
        <time>2012-12-18T20:22:12.000Z</time>
      </trkpt>
      <trkpt lat="48.86498" lon="2.39493">
        <ele>130</ele>
        <time>2012-12-18T20:22:13.000Z</time>
      </trkpt>
      <trkpt lat="48.86496" lon="2.39498">
        <ele>129</ele>
        <time>2012-12-18T20:22:17.000Z</time>
      </trkpt>
      <trkpt lat="48.86496" lon="2.39503">
        <ele>129</ele>
        <time>2012-12-18T20:22:18.000Z</time>
      </trkpt>
      <trkpt lat="48.86497" lon="2.39509">
        <ele>128</ele>
        <time>2012-12-18T20:22:24.000Z</time>
      </trkpt>
      <trkpt lat="48.86497" lon="2.39511">
        <ele>127</ele>
        <time>2012-12-18T20:22:26.000Z</time>
      </trkpt>
      <trkpt lat="48.86495" lon="2.39513">
        <ele>128</ele>
        <time>2012-12-18T20:22:29.000Z</time>
      </trkpt>
      <trkpt lat="48.86493" lon="2.39516">
        <ele>128</ele>
        <time>2012-12-18T20:22:30.000Z</time>
      </trkpt>
      <trkpt lat="48.86492" lon="2.39519">
        <ele>127</ele>
        <time>2012-12-18T20:22:32.000Z</time>
      </trkpt>
      <trkpt lat="48.86489" lon="2.39519">
        <ele>127</ele>
        <time>2012-12-18T20:22:33.000Z</time>
      </trkpt>
      <trkpt lat="48.86486" lon="2.3952">
        <ele>126</ele>
        <time>2012-12-18T20:22:38.000Z</time>
      </trkpt>
      <trkpt lat="48.86485" lon="2.39523">
        <ele>127</ele>
        <time>2012-12-18T20:22:39.000Z</time>
      </trkpt>
      <trkpt lat="48.86486" lon="2.3953">
        <ele>128</ele>
        <time>2012-12-18T20:22:42.000Z</time>
      </trkpt>
      <trkpt lat="48.86485" lon="2.39531">
        <ele>128</ele>
        <time>2012-12-18T20:22:43.000Z</time>
      </trkpt>
      <trkpt lat="48.86487" lon="2.39537">
        <ele>128</ele>
        <time>2012-12-18T20:22:46.000Z</time>
      </trkpt>
      <trkpt lat="48.86488" lon="2.39538">
        <ele>128</ele>
        <time>2012-12-18T20:22:47.000Z</time>
      </trkpt>
      <trkpt lat="48.86489" lon="2.39544">
        <ele>129</ele>
        <time>2012-12-18T20:22:49.000Z</time>
      </trkpt>
      <trkpt lat="48.86491" lon="2.39544">
        <ele>129</ele>
        <time>2012-12-18T20:22:50.000Z</time>
      </trkpt>
      <trkpt lat="48.8649" lon="2.39547">
        <ele>129</ele>
        <time>2012-12-18T20:22:51.000Z</time>
      </trkpt>
      <trkpt lat="48.86495" lon="2.39548">
        <ele>129</ele>
        <time>2012-12-18T20:22:52.000Z</time>
      </trkpt>
      <trkpt lat="48.86493" lon="2.39553">
        <ele>131</ele>
        <time>2012-12-18T20:22:59.000Z</time>
      </trkpt>
      <trkpt lat="48.86493" lon="2.39557">
        <ele>132</ele>
        <time>2012-12-18T20:23:00.000Z</time>
      </trkpt>
      <trkpt lat="48.86495" lon="2.39563">
        <ele>132</ele>
        <time>2012-12-18T20:23:02.000Z</time>
      </trkpt>
      <trkpt lat="48.86494" lon="2.39567">
        <ele>133</ele>
        <time>2012-12-18T20:23:03.000Z</time>
      </trkpt>
      <trkpt lat="48.86495" lon="2.39572">
        <ele>133</ele>
        <time>2012-12-18T20:23:05.000Z</time>
      </trkpt>
      <trkpt lat="48.86494" lon="2.39575">
        <ele>132</ele>
        <time>2012-12-18T20:23:06.000Z</time>
      </trkpt>
      <trkpt lat="48.86495" lon="2.39578">
        <ele>132</ele>
        <time>2012-12-18T20:23:07.000Z</time>
      </trkpt>
      <trkpt lat="48.86496" lon="2.39584">
        <ele>132</ele>
        <time>2012-12-18T20:23:08.000Z</time>
      </trkpt>
      <trkpt lat="48.86496" lon="2.39588">
        <ele>131</ele>
        <time>2012-12-18T20:23:09.000Z</time>
      </trkpt>
      <trkpt lat="48.86495" lon="2.39593">
        <ele>131</ele>
        <time>2012-12-18T20:23:10.000Z</time>
      </trkpt>
      <trkpt lat="48.86495" lon="2.39597">
        <ele>131</ele>
        <time>2012-12-18T20:23:11.000Z</time>
      </trkpt>
      <trkpt lat="48.86494" lon="2.39602">
        <ele>131</ele>
        <time>2012-12-18T20:23:12.000Z</time>
      </trkpt>
      <trkpt lat="48.86493" lon="2.39604">
        <ele>131</ele>
        <time>2012-12-18T20:23:13.000Z</time>
      </trkpt>
      <trkpt lat="48.86494" lon="2.39609">
        <ele>131</ele>
        <time>2012-12-18T20:23:14.000Z</time>
      </trkpt>
      <trkpt lat="48.86495" lon="2.39611">
        <ele>131</ele>
        <time>2012-12-18T20:23:15.000Z</time>
      </trkpt>
      <trkpt lat="48.86495" lon="2.39616">
        <ele>130</ele>
        <time>2012-12-18T20:23:16.000Z</time>
      </trkpt>
      <trkpt lat="48.86494" lon="2.39619">
        <ele>130</ele>
        <time>2012-12-18T20:23:17.000Z</time>
      </trkpt>
      <trkpt lat="48.86493" lon="2.39624">
        <ele>130</ele>
        <time>2012-12-18T20:23:18.000Z</time>
      </trkpt>
      <trkpt lat="48.86493" lon="2.39627">
        <ele>130</ele>
        <time>2012-12-18T20:23:19.000Z</time>
      </trkpt>
      <trkpt lat="48.86493" lon="2.39632">
        <ele>130</ele>
        <time>2012-12-18T20:23:20.000Z</time>
      </trkpt>
      <trkpt lat="48.86496" lon="2.39635">
        <ele>130</ele>
        <time>2012-12-18T20:23:21.000Z</time>
      </trkpt>
      <trkpt lat="48.86498" lon="2.3964">
        <ele>130</ele>
        <time>2012-12-18T20:23:22.000Z</time>
      </trkpt>
      <trkpt lat="48.86498" lon="2.39645">
        <ele>129</ele>
        <time>2012-12-18T20:23:23.000Z</time>
      </trkpt>
      <trkpt lat="48.865" lon="2.39649">
        <ele>128</ele>
        <time>2012-12-18T20:23:24.000Z</time>
      </trkpt>
      <trkpt lat="48.86499" lon="2.39654">
        <ele>128</ele>
        <time>2012-12-18T20:23:25.000Z</time>
      </trkpt>
      <trkpt lat="48.86502" lon="2.39659">
        <ele>128</ele>
        <time>2012-12-18T20:23:26.000Z</time>
      </trkpt>
      <trkpt lat="48.86501" lon="2.39663">
        <ele>127</ele>
        <time>2012-12-18T20:23:28.000Z</time>
      </trkpt>
      <trkpt lat="48.86501" lon="2.39667">
        <ele>127</ele>
        <time>2012-12-18T20:23:29.000Z</time>
      </trkpt>
      <trkpt lat="48.86501" lon="2.3967">
        <ele>128</ele>
        <time>2012-12-18T20:23:30.000Z</time>
      </trkpt>
      <trkpt lat="48.86501" lon="2.39674">
        <ele>129</ele>
        <time>2012-12-18T20:23:31.000Z</time>
      </trkpt>
      <trkpt lat="48.865" lon="2.39677">
        <ele>129</ele>
        <time>2012-12-18T20:23:32.000Z</time>
      </trkpt>
      <trkpt lat="48.86499" lon="2.39683">
        <ele>128</ele>
        <time>2012-12-18T20:23:33.000Z</time>
      </trkpt>
      <trkpt lat="48.86499" lon="2.39687">
        <ele>126</ele>
        <time>2012-12-18T20:23:34.000Z</time>
      </trkpt>
      <trkpt lat="48.86499" lon="2.3969">
        <ele>125</ele>
        <time>2012-12-18T20:23:35.000Z</time>
      </trkpt>
      <trkpt lat="48.86498" lon="2.39693">
        <ele>124</ele>
        <time>2012-12-18T20:23:36.000Z</time>
      </trkpt>
      <trkpt lat="48.86495" lon="2.39697">
        <ele>124</ele>
        <time>2012-12-18T20:23:37.000Z</time>
      </trkpt>
      <trkpt lat="48.86492" lon="2.397">
        <ele>124</ele>
        <time>2012-12-18T20:23:38.000Z</time>
      </trkpt>
      <trkpt lat="48.8649" lon="2.39705">
        <ele>123</ele>
        <time>2012-12-18T20:23:39.000Z</time>
      </trkpt>
      <trkpt lat="48.86488" lon="2.39708">
        <ele>124</ele>
        <time>2012-12-18T20:23:40.000Z</time>
      </trkpt>
      <trkpt lat="48.86489" lon="2.39713">
        <ele>125</ele>
        <time>2012-12-18T20:23:41.000Z</time>
      </trkpt>
      <trkpt lat="48.86488" lon="2.39719">
        <ele>125</ele>
        <time>2012-12-18T20:23:42.000Z</time>
      </trkpt>
      <trkpt lat="48.86488" lon="2.39721">
        <ele>125</ele>
        <time>2012-12-18T20:23:43.000Z</time>
      </trkpt>
      <trkpt lat="48.86488" lon="2.39725">
        <ele>126</ele>
        <time>2012-12-18T20:23:45.000Z</time>
      </trkpt>
      <trkpt lat="48.86487" lon="2.39729">
        <ele>126</ele>
        <time>2012-12-18T20:23:46.000Z</time>
      </trkpt>
      <trkpt lat="48.86486" lon="2.39732">
        <ele>126</ele>
        <time>2012-12-18T20:23:47.000Z</time>
      </trkpt>
      <trkpt lat="48.86486" lon="2.39736">
        <ele>126</ele>
        <time>2012-12-18T20:23:48.000Z</time>
      </trkpt>
      <trkpt lat="48.86488" lon="2.39741">
        <ele>125</ele>
        <time>2012-12-18T20:23:49.000Z</time>
      </trkpt>
      <trkpt lat="48.86488" lon="2.39743">
        <ele>125</ele>
        <time>2012-12-18T20:23:50.000Z</time>
      </trkpt>
      <trkpt lat="48.86489" lon="2.39747">
        <ele>124</ele>
        <time>2012-12-18T20:23:51.000Z</time>
      </trkpt>
      <trkpt lat="48.86489" lon="2.39752">
        <ele>124</ele>
        <time>2012-12-18T20:23:52.000Z</time>
      </trkpt>
      <trkpt lat="48.86492" lon="2.39757">
        <ele>124</ele>
        <time>2012-12-18T20:23:53.000Z</time>
      </trkpt>
      <trkpt lat="48.86494" lon="2.3976">
        <ele>125</ele>
        <time>2012-12-18T20:23:54.000Z</time>
      </trkpt>
      <trkpt lat="48.86496" lon="2.39764">
        <ele>125</ele>
        <time>2012-12-18T20:23:55.000Z</time>
      </trkpt>
      <trkpt lat="48.865" lon="2.39767">
        <ele>127</ele>
        <time>2012-12-18T20:23:56.000Z</time>
      </trkpt>
      <trkpt lat="48.86501" lon="2.39771">
        <ele>127</ele>
        <time>2012-12-18T20:23:57.000Z</time>
      </trkpt>
      <trkpt lat="48.86496" lon="2.39778">
        <ele>127</ele>
        <time>2012-12-18T20:23:58.000Z</time>
      </trkpt>
      <trkpt lat="48.86494" lon="2.39783">
        <ele>128</ele>
        <time>2012-12-18T20:24:00.000Z</time>
      </trkpt>
      <trkpt lat="48.86491" lon="2.39785">
        <ele>128</ele>
        <time>2012-12-18T20:24:01.000Z</time>
      </trkpt>
      <trkpt lat="48.8649" lon="2.3979">
        <ele>129</ele>
        <time>2012-12-18T20:24:03.000Z</time>
      </trkpt>
      <trkpt lat="48.8649" lon="2.39794">
        <ele>128</ele>
        <time>2012-12-18T20:24:04.000Z</time>
      </trkpt>
      <trkpt lat="48.86488" lon="2.39796">
        <ele>129</ele>
        <time>2012-12-18T20:24:06.000Z</time>
      </trkpt>
      <trkpt lat="48.86485" lon="2.39798">
        <ele>129</ele>
        <time>2012-12-18T20:24:07.000Z</time>
      </trkpt>
      <trkpt lat="48.86481" lon="2.39801">
        <ele>128</ele>
        <time>2012-12-18T20:24:11.000Z</time>
      </trkpt>
      <trkpt lat="48.8648" lon="2.39802">
        <ele>127</ele>
        <time>2012-12-18T20:24:12.000Z</time>
      </trkpt>
      <trkpt lat="48.86481" lon="2.39803">
        <ele>136</ele>
        <time>2012-12-18T20:24:36.000Z</time>
      </trkpt>
      <trkpt lat="48.86479" lon="2.3981">
        <ele>138</ele>
        <time>2012-12-18T20:24:37.000Z</time>
      </trkpt>
      <trkpt lat="48.86475" lon="2.39813">
        <ele>138</ele>
        <time>2012-12-18T20:24:38.000Z</time>
      </trkpt>
      <trkpt lat="48.86473" lon="2.39817">
        <ele>138</ele>
        <time>2012-12-18T20:24:39.000Z</time>
      </trkpt>
      <trkpt lat="48.86471" lon="2.39822">
        <ele>138</ele>
        <time>2012-12-18T20:24:47.000Z</time>
      </trkpt>
      <trkpt lat="48.86471" lon="2.39824">
        <ele>139</ele>
        <time>2012-12-18T20:24:48.000Z</time>
      </trkpt>
      <trkpt lat="48.86469" lon="2.39825">
        <ele>138</ele>
        <time>2012-12-18T20:24:55.000Z</time>
      </trkpt>
      <trkpt lat="48.86467" lon="2.39831">
        <ele>138</ele>
        <time>2012-12-18T20:24:56.000Z</time>
      </trkpt>
      <trkpt lat="48.86466" lon="2.39836">
        <ele>138</ele>
        <time>2012-12-18T20:24:58.000Z</time>
      </trkpt>
      <trkpt lat="48.86466" lon="2.39839">
        <ele>138</ele>
        <time>2012-12-18T20:24:59.000Z</time>
      </trkpt>
      <trkpt lat="48.86464" lon="2.39845">
        <ele>138</ele>
        <time>2012-12-18T20:25:00.000Z</time>
      </trkpt>
      <trkpt lat="48.86463" lon="2.3985">
        <ele>139</ele>
        <time>2012-12-18T20:25:01.000Z</time>
      </trkpt>
      <trkpt lat="48.86457" lon="2.39855">
        <ele>139</ele>
        <time>2012-12-18T20:25:02.000Z</time>
      </trkpt>
      <trkpt lat="48.86455" lon="2.39861">
        <ele>139</ele>
        <time>2012-12-18T20:25:04.000Z</time>
      </trkpt>
      <trkpt lat="48.86453" lon="2.39863">
        <ele>139</ele>
        <time>2012-12-18T20:25:05.000Z</time>
      </trkpt>
      <trkpt lat="48.8645" lon="2.39866">
        <ele>139</ele>
        <time>2012-12-18T20:25:06.000Z</time>
      </trkpt>
      <trkpt lat="48.86446" lon="2.3987">
        <ele>139</ele>
        <time>2012-12-18T20:25:07.000Z</time>
      </trkpt>
      <trkpt lat="48.86445" lon="2.39872">
        <ele>139</ele>
        <time>2012-12-18T20:25:08.000Z</time>
      </trkpt>
      <trkpt lat="48.86442" lon="2.39875">
        <ele>138</ele>
        <time>2012-12-18T20:25:09.000Z</time>
      </trkpt>
      <trkpt lat="48.86439" lon="2.39879">
        <ele>139</ele>
        <time>2012-12-18T20:25:10.000Z</time>
      </trkpt>
      <trkpt lat="48.86436" lon="2.39881">
        <ele>139</ele>
        <time>2012-12-18T20:25:11.000Z</time>
      </trkpt>
      <trkpt lat="48.86434" lon="2.39886">
        <ele>139</ele>
        <time>2012-12-18T20:25:12.000Z</time>
      </trkpt>
      <trkpt lat="48.86429" lon="2.39887">
        <ele>138</ele>
        <time>2012-12-18T20:25:13.000Z</time>
      </trkpt>
      <trkpt lat="48.86427" lon="2.3989">
        <ele>139</ele>
        <time>2012-12-18T20:25:14.000Z</time>
      </trkpt>
      <trkpt lat="48.86422" lon="2.39891">
        <ele>138</ele>
        <time>2012-12-18T20:25:15.000Z</time>
      </trkpt>
      <trkpt lat="48.8642" lon="2.39895">
        <ele>138</ele>
        <time>2012-12-18T20:25:16.000Z</time>
      </trkpt>
      <trkpt lat="48.86418" lon="2.39901">
        <ele>139</ele>
        <time>2012-12-18T20:25:17.000Z</time>
      </trkpt>
      <trkpt lat="48.86416" lon="2.39905">
        <ele>140</ele>
        <time>2012-12-18T20:25:19.000Z</time>
      </trkpt>
      <trkpt lat="48.86414" lon="2.39904">
        <ele>140</ele>
        <time>2012-12-18T20:25:20.000Z</time>
      </trkpt>
      <trkpt lat="48.86411" lon="2.39906">
        <ele>140</ele>
        <time>2012-12-18T20:25:21.000Z</time>
      </trkpt>
      <trkpt lat="48.86409" lon="2.39906">
        <ele>141</ele>
        <time>2012-12-18T20:25:22.000Z</time>
      </trkpt>
      <trkpt lat="48.86407" lon="2.39906">
        <ele>140</ele>
        <time>2012-12-18T20:25:23.000Z</time>
      </trkpt>
      <trkpt lat="48.86404" lon="2.39911">
        <ele>140</ele>
        <time>2012-12-18T20:25:24.000Z</time>
      </trkpt>
      <trkpt lat="48.86402" lon="2.39913">
        <ele>139</ele>
        <time>2012-12-18T20:25:26.000Z</time>
      </trkpt>
      <trkpt lat="48.86399" lon="2.39914">
        <ele>140</ele>
        <time>2012-12-18T20:25:27.000Z</time>
      </trkpt>
      <trkpt lat="48.86397" lon="2.39917">
        <ele>139</ele>
        <time>2012-12-18T20:25:28.000Z</time>
      </trkpt>
      <trkpt lat="48.86395" lon="2.3992">
        <ele>139</ele>
        <time>2012-12-18T20:25:29.000Z</time>
      </trkpt>
      <trkpt lat="48.86393" lon="2.39922">
        <ele>139</ele>
        <time>2012-12-18T20:25:30.000Z</time>
      </trkpt>
      <trkpt lat="48.86392" lon="2.39924">
        <ele>138</ele>
        <time>2012-12-18T20:25:31.000Z</time>
      </trkpt>
      <trkpt lat="48.8639" lon="2.39927">
        <ele>138</ele>
        <time>2012-12-18T20:25:32.000Z</time>
      </trkpt>
      <trkpt lat="48.86388" lon="2.3993">
        <ele>138</ele>
        <time>2012-12-18T20:25:33.000Z</time>
      </trkpt>
      <trkpt lat="48.86385" lon="2.39932">
        <ele>138</ele>
        <time>2012-12-18T20:25:34.000Z</time>
      </trkpt>
      <trkpt lat="48.86383" lon="2.39934">
        <ele>138</ele>
        <time>2012-12-18T20:25:35.000Z</time>
      </trkpt>
      <trkpt lat="48.86378" lon="2.39935">
        <ele>139</ele>
        <time>2012-12-18T20:25:36.000Z</time>
      </trkpt>
      <trkpt lat="48.86372" lon="2.39936">
        <ele>139</ele>
        <time>2012-12-18T20:25:37.000Z</time>
      </trkpt>
      <trkpt lat="48.86367" lon="2.39938">
        <ele>139</ele>
        <time>2012-12-18T20:25:38.000Z</time>
      </trkpt>
      <trkpt lat="48.86365" lon="2.3994">
        <ele>139</ele>
        <time>2012-12-18T20:25:39.000Z</time>
      </trkpt>
      <trkpt lat="48.86364" lon="2.39945">
        <ele>139</ele>
        <time>2012-12-18T20:25:40.000Z</time>
      </trkpt>
      <trkpt lat="48.86359" lon="2.3995">
        <ele>140</ele>
        <time>2012-12-18T20:25:41.000Z</time>
      </trkpt>
      <trkpt lat="48.86356" lon="2.39956">
        <ele>139</ele>
        <time>2012-12-18T20:25:42.000Z</time>
      </trkpt>
      <trkpt lat="48.86352" lon="2.39962">
        <ele>138</ele>
        <time>2012-12-18T20:25:43.000Z</time>
      </trkpt>
      <trkpt lat="48.86343" lon="2.39962">
        <ele>138</ele>
        <time>2012-12-18T20:25:44.000Z</time>
      </trkpt>
      <trkpt lat="48.86337" lon="2.39964">
        <ele>139</ele>
        <time>2012-12-18T20:25:45.000Z</time>
      </trkpt>
      <trkpt lat="48.86333" lon="2.39969">
        <ele>139</ele>
        <time>2012-12-18T20:25:46.000Z</time>
      </trkpt>
      <trkpt lat="48.86327" lon="2.39971">
        <ele>139</ele>
        <time>2012-12-18T20:25:47.000Z</time>
      </trkpt>
      <trkpt lat="48.86322" lon="2.39975">
        <ele>139</ele>
        <time>2012-12-18T20:25:48.000Z</time>
      </trkpt>
      <trkpt lat="48.86314" lon="2.39976">
        <ele>139</ele>
        <time>2012-12-18T20:25:49.000Z</time>
      </trkpt>
      <trkpt lat="48.86308" lon="2.39976">
        <ele>139</ele>
        <time>2012-12-18T20:25:50.000Z</time>
      </trkpt>
      <trkpt lat="48.86302" lon="2.39976">
        <ele>139</ele>
        <time>2012-12-18T20:25:51.000Z</time>
      </trkpt>
      <trkpt lat="48.86297" lon="2.39976">
        <ele>139</ele>
        <time>2012-12-18T20:25:52.000Z</time>
      </trkpt>
      <trkpt lat="48.86292" lon="2.39976">
        <ele>139</ele>
        <time>2012-12-18T20:25:53.000Z</time>
      </trkpt>
      <trkpt lat="48.86287" lon="2.39978">
        <ele>139</ele>
        <time>2012-12-18T20:25:54.000Z</time>
      </trkpt>
      <trkpt lat="48.86282" lon="2.3998">
        <ele>138</ele>
        <time>2012-12-18T20:25:55.000Z</time>
      </trkpt>
      <trkpt lat="48.86276" lon="2.39984">
        <ele>138</ele>
        <time>2012-12-18T20:25:56.000Z</time>
      </trkpt>
      <trkpt lat="48.86271" lon="2.39986">
        <ele>138</ele>
        <time>2012-12-18T20:25:57.000Z</time>
      </trkpt>
      <trkpt lat="48.86265" lon="2.39987">
        <ele>137</ele>
        <time>2012-12-18T20:25:58.000Z</time>
      </trkpt>
      <trkpt lat="48.86261" lon="2.39989">
        <ele>137</ele>
        <time>2012-12-18T20:25:59.000Z</time>
      </trkpt>
      <trkpt lat="48.86255" lon="2.3999">
        <ele>137</ele>
        <time>2012-12-18T20:26:00.000Z</time>
      </trkpt>
      <trkpt lat="48.86248" lon="2.39992">
        <ele>136</ele>
        <time>2012-12-18T20:26:01.000Z</time>
      </trkpt>
      <trkpt lat="48.86242" lon="2.3999">
        <ele>137</ele>
        <time>2012-12-18T20:26:02.000Z</time>
      </trkpt>
      <trkpt lat="48.86235" lon="2.39994">
        <ele>136</ele>
        <time>2012-12-18T20:26:03.000Z</time>
      </trkpt>
      <trkpt lat="48.86231" lon="2.39991">
        <ele>135</ele>
        <time>2012-12-18T20:26:04.000Z</time>
      </trkpt>
      <trkpt lat="48.86227" lon="2.39993">
        <ele>135</ele>
        <time>2012-12-18T20:26:05.000Z</time>
      </trkpt>
      <trkpt lat="48.86221" lon="2.39999">
        <ele>134</ele>
        <time>2012-12-18T20:26:06.000Z</time>
      </trkpt>
      <trkpt lat="48.86216" lon="2.40001">
        <ele>134</ele>
        <time>2012-12-18T20:26:07.000Z</time>
      </trkpt>
      <trkpt lat="48.86211" lon="2.40002">
        <ele>134</ele>
        <time>2012-12-18T20:26:08.000Z</time>
      </trkpt>
      <trkpt lat="48.86206" lon="2.40001">
        <ele>134</ele>
        <time>2012-12-18T20:26:09.000Z</time>
      </trkpt>
      <trkpt lat="48.86199" lon="2.40005">
        <ele>134</ele>
        <time>2012-12-18T20:26:10.000Z</time>
      </trkpt>
      <trkpt lat="48.86191" lon="2.40004">
        <ele>133</ele>
        <time>2012-12-18T20:26:11.000Z</time>
      </trkpt>
      <trkpt lat="48.86182" lon="2.40003">
        <ele>132</ele>
        <time>2012-12-18T20:26:12.000Z</time>
      </trkpt>
      <trkpt lat="48.86176" lon="2.40002">
        <ele>132</ele>
        <time>2012-12-18T20:26:13.000Z</time>
      </trkpt>
      <trkpt lat="48.86171" lon="2.40005">
        <ele>131</ele>
        <time>2012-12-18T20:26:14.000Z</time>
      </trkpt>
      <trkpt lat="48.86164" lon="2.40004">
        <ele>131</ele>
        <time>2012-12-18T20:26:15.000Z</time>
      </trkpt>
      <trkpt lat="48.86158" lon="2.40007">
        <ele>131</ele>
        <time>2012-12-18T20:26:16.000Z</time>
      </trkpt>
      <trkpt lat="48.86153" lon="2.40012">
        <ele>132</ele>
        <time>2012-12-18T20:26:17.000Z</time>
      </trkpt>
      <trkpt lat="48.86147" lon="2.40013">
        <ele>131</ele>
        <time>2012-12-18T20:26:18.000Z</time>
      </trkpt>
      <trkpt lat="48.86142" lon="2.40017">
        <ele>131</ele>
        <time>2012-12-18T20:26:19.000Z</time>
      </trkpt>
      <trkpt lat="48.86136" lon="2.40015">
        <ele>131</ele>
        <time>2012-12-18T20:26:20.000Z</time>
      </trkpt>
      <trkpt lat="48.86129" lon="2.40017">
        <ele>131</ele>
        <time>2012-12-18T20:26:21.000Z</time>
      </trkpt>
      <trkpt lat="48.86123" lon="2.40019">
        <ele>130</ele>
        <time>2012-12-18T20:26:22.000Z</time>
      </trkpt>
      <trkpt lat="48.86117" lon="2.40025">
        <ele>129</ele>
        <time>2012-12-18T20:26:23.000Z</time>
      </trkpt>
      <trkpt lat="48.86111" lon="2.40027">
        <ele>128</ele>
        <time>2012-12-18T20:26:24.000Z</time>
      </trkpt>
      <trkpt lat="48.86106" lon="2.4003">
        <ele>128</ele>
        <time>2012-12-18T20:26:25.000Z</time>
      </trkpt>
      <trkpt lat="48.86099" lon="2.40032">
        <ele>128</ele>
        <time>2012-12-18T20:26:26.000Z</time>
      </trkpt>
      <trkpt lat="48.86091" lon="2.40036">
        <ele>128</ele>
        <time>2012-12-18T20:26:27.000Z</time>
      </trkpt>
      <trkpt lat="48.86086" lon="2.40042">
        <ele>127</ele>
        <time>2012-12-18T20:26:28.000Z</time>
      </trkpt>
      <trkpt lat="48.86081" lon="2.40048">
        <ele>127</ele>
        <time>2012-12-18T20:26:29.000Z</time>
      </trkpt>
      <trkpt lat="48.86075" lon="2.40053">
        <ele>127</ele>
        <time>2012-12-18T20:26:30.000Z</time>
      </trkpt>
      <trkpt lat="48.86068" lon="2.40059">
        <ele>127</ele>
        <time>2012-12-18T20:26:31.000Z</time>
      </trkpt>
      <trkpt lat="48.86062" lon="2.40063">
        <ele>126</ele>
        <time>2012-12-18T20:26:32.000Z</time>
      </trkpt>
      <trkpt lat="48.86058" lon="2.40065">
        <ele>126</ele>
        <time>2012-12-18T20:26:33.000Z</time>
      </trkpt>
      <trkpt lat="48.86052" lon="2.40068">
        <ele>126</ele>
        <time>2012-12-18T20:26:34.000Z</time>
      </trkpt>
      <trkpt lat="48.86047" lon="2.40072">
        <ele>126</ele>
        <time>2012-12-18T20:26:35.000Z</time>
      </trkpt>
      <trkpt lat="48.86042" lon="2.40067">
        <ele>127</ele>
        <time>2012-12-18T20:26:36.000Z</time>
      </trkpt>
      <trkpt lat="48.86037" lon="2.4007">
        <ele>126</ele>
        <time>2012-12-18T20:26:37.000Z</time>
      </trkpt>
      <trkpt lat="48.86033" lon="2.40074">
        <ele>126</ele>
        <time>2012-12-18T20:26:38.000Z</time>
      </trkpt>
      <trkpt lat="48.86027" lon="2.40079">
        <ele>126</ele>
        <time>2012-12-18T20:26:39.000Z</time>
      </trkpt>
      <trkpt lat="48.86022" lon="2.40086">
        <ele>126</ele>
        <time>2012-12-18T20:26:40.000Z</time>
      </trkpt>
      <trkpt lat="48.86021" lon="2.40088">
        <ele>125</ele>
        <time>2012-12-18T20:26:41.000Z</time>
      </trkpt>
      <trkpt lat="48.8602" lon="2.40094">
        <ele>125</ele>
        <time>2012-12-18T20:26:42.000Z</time>
      </trkpt>
      <trkpt lat="48.86014" lon="2.40095">
        <ele>126</ele>
        <time>2012-12-18T20:26:43.000Z</time>
      </trkpt>
      <trkpt lat="48.8601" lon="2.40096">
        <ele>126</ele>
        <time>2012-12-18T20:26:44.000Z</time>
      </trkpt>
      <trkpt lat="48.86006" lon="2.40104">
        <ele>127</ele>
        <time>2012-12-18T20:26:45.000Z</time>
      </trkpt>
      <trkpt lat="48.86003" lon="2.40105">
        <ele>128</ele>
        <time>2012-12-18T20:26:46.000Z</time>
      </trkpt>
      <trkpt lat="48.86001" lon="2.40107">
        <ele>128</ele>
        <time>2012-12-18T20:26:47.000Z</time>
      </trkpt>
      <trkpt lat="48.85997" lon="2.40113">
        <ele>129</ele>
        <time>2012-12-18T20:26:48.000Z</time>
      </trkpt>
      <trkpt lat="48.85995" lon="2.40116">
        <ele>129</ele>
        <time>2012-12-18T20:26:49.000Z</time>
      </trkpt>
      <trkpt lat="48.85992" lon="2.40126">
        <ele>129</ele>
        <time>2012-12-18T20:26:50.000Z</time>
      </trkpt>
      <trkpt lat="48.8599" lon="2.40129">
        <ele>129</ele>
        <time>2012-12-18T20:26:51.000Z</time>
      </trkpt>
      <trkpt lat="48.85984" lon="2.40137">
        <ele>129</ele>
        <time>2012-12-18T20:26:52.000Z</time>
      </trkpt>
      <trkpt lat="48.85982" lon="2.40144">
        <ele>130</ele>
        <time>2012-12-18T20:26:53.000Z</time>
      </trkpt>
      <trkpt lat="48.85979" lon="2.40151">
        <ele>130</ele>
        <time>2012-12-18T20:26:54.000Z</time>
      </trkpt>
      <trkpt lat="48.85976" lon="2.40155">
        <ele>130</ele>
        <time>2012-12-18T20:26:55.000Z</time>
      </trkpt>
      <trkpt lat="48.85974" lon="2.40161">
        <ele>130</ele>
        <time>2012-12-18T20:26:56.000Z</time>
      </trkpt>
      <trkpt lat="48.85971" lon="2.40164">
        <ele>130</ele>
        <time>2012-12-18T20:26:57.000Z</time>
      </trkpt>
      <trkpt lat="48.85967" lon="2.40166">
        <ele>130</ele>
        <time>2012-12-18T20:26:58.000Z</time>
      </trkpt>
      <trkpt lat="48.85965" lon="2.4017">
        <ele>130</ele>
        <time>2012-12-18T20:26:59.000Z</time>
      </trkpt>
      <trkpt lat="48.85962" lon="2.40173">
        <ele>130</ele>
        <time>2012-12-18T20:27:00.000Z</time>
      </trkpt>
      <trkpt lat="48.85956" lon="2.40174">
        <ele>130</ele>
        <time>2012-12-18T20:27:01.000Z</time>
      </trkpt>
      <trkpt lat="48.85947" lon="2.40174">
        <ele>130</ele>
        <time>2012-12-18T20:27:02.000Z</time>
      </trkpt>
      <trkpt lat="48.8594" lon="2.40175">
        <ele>130</ele>
        <time>2012-12-18T20:27:03.000Z</time>
      </trkpt>
      <trkpt lat="48.8594" lon="2.40178">
        <ele>128</ele>
        <time>2012-12-18T20:27:04.000Z</time>
      </trkpt>
      <trkpt lat="48.85935" lon="2.40178">
        <ele>127</ele>
        <time>2012-12-18T20:27:05.000Z</time>
      </trkpt>
      <trkpt lat="48.85931" lon="2.40179">
        <ele>126</ele>
        <time>2012-12-18T20:27:06.000Z</time>
      </trkpt>
      <trkpt lat="48.85929" lon="2.40181">
        <ele>126</ele>
        <time>2012-12-18T20:27:07.000Z</time>
      </trkpt>
      <trkpt lat="48.85926" lon="2.40186">
        <ele>124</ele>
        <time>2012-12-18T20:27:09.000Z</time>
      </trkpt>
      <trkpt lat="48.85924" lon="2.4019">
        <ele>123</ele>
        <time>2012-12-18T20:27:10.000Z</time>
      </trkpt>
      <trkpt lat="48.85921" lon="2.40191">
        <ele>123</ele>
        <time>2012-12-18T20:27:12.000Z</time>
      </trkpt>
      <trkpt lat="48.85921" lon="2.40196">
        <ele>123</ele>
        <time>2012-12-18T20:27:13.000Z</time>
      </trkpt>
      <trkpt lat="48.8592" lon="2.40199">
        <ele>123</ele>
        <time>2012-12-18T20:27:14.000Z</time>
      </trkpt>
      <trkpt lat="48.85918" lon="2.40203">
        <ele>124</ele>
        <time>2012-12-18T20:27:15.000Z</time>
      </trkpt>
      <trkpt lat="48.85916" lon="2.40207">
        <ele>124</ele>
        <time>2012-12-18T20:27:18.000Z</time>
      </trkpt>
      <trkpt lat="48.85916" lon="2.40209">
        <ele>124</ele>
        <time>2012-12-18T20:27:19.000Z</time>
      </trkpt>
      <trkpt lat="48.85914" lon="2.40214">
        <ele>125</ele>
        <time>2012-12-18T20:28:35.000Z</time>
      </trkpt>
      <trkpt lat="48.85912" lon="2.40216">
        <ele>125</ele>
        <time>2012-12-18T20:28:36.000Z</time>
      </trkpt>
      <trkpt lat="48.8591" lon="2.4022">
        <ele>125</ele>
        <time>2012-12-18T20:28:37.000Z</time>
      </trkpt>
      <trkpt lat="48.85907" lon="2.40225">
        <ele>125</ele>
        <time>2012-12-18T20:28:38.000Z</time>
      </trkpt>
      <trkpt lat="48.85903" lon="2.40231">
        <ele>125</ele>
        <time>2012-12-18T20:28:39.000Z</time>
      </trkpt>
      <trkpt lat="48.85901" lon="2.40236">
        <ele>125</ele>
        <time>2012-12-18T20:28:40.000Z</time>
      </trkpt>
      <trkpt lat="48.85896" lon="2.40243">
        <ele>125</ele>
        <time>2012-12-18T20:28:41.000Z</time>
      </trkpt>
      <trkpt lat="48.85893" lon="2.40249">
        <ele>125</ele>
        <time>2012-12-18T20:28:42.000Z</time>
      </trkpt>
      <trkpt lat="48.8589" lon="2.40255">
        <ele>125</ele>
        <time>2012-12-18T20:28:43.000Z</time>
      </trkpt>
      <trkpt lat="48.85888" lon="2.40258">
        <ele>126</ele>
        <time>2012-12-18T20:28:44.000Z</time>
      </trkpt>
      <trkpt lat="48.85886" lon="2.40262">
        <ele>126</ele>
        <time>2012-12-18T20:28:45.000Z</time>
      </trkpt>
      <trkpt lat="48.85882" lon="2.40267">
        <ele>126</ele>
        <time>2012-12-18T20:28:46.000Z</time>
      </trkpt>
      <trkpt lat="48.85874" lon="2.40271">
        <ele>124</ele>
        <time>2012-12-18T20:28:47.000Z</time>
      </trkpt>
      <trkpt lat="48.85865" lon="2.40273">
        <ele>122</ele>
        <time>2012-12-18T20:28:48.000Z</time>
      </trkpt>
      <trkpt lat="48.85859" lon="2.40276">
        <ele>121</ele>
        <time>2012-12-18T20:28:49.000Z</time>
      </trkpt>
      <trkpt lat="48.85856" lon="2.40282">
        <ele>121</ele>
        <time>2012-12-18T20:28:50.000Z</time>
      </trkpt>
      <trkpt lat="48.85848" lon="2.40284">
        <ele>121</ele>
        <time>2012-12-18T20:28:51.000Z</time>
      </trkpt>
      <trkpt lat="48.85842" lon="2.40291">
        <ele>121</ele>
        <time>2012-12-18T20:28:52.000Z</time>
      </trkpt>
      <trkpt lat="48.8584" lon="2.40295">
        <ele>121</ele>
        <time>2012-12-18T20:28:53.000Z</time>
      </trkpt>
      <trkpt lat="48.85835" lon="2.40299">
        <ele>121</ele>
        <time>2012-12-18T20:28:54.000Z</time>
      </trkpt>
      <trkpt lat="48.8583" lon="2.40302">
        <ele>121</ele>
        <time>2012-12-18T20:28:55.000Z</time>
      </trkpt>
      <trkpt lat="48.85825" lon="2.4031">
        <ele>121</ele>
        <time>2012-12-18T20:28:56.000Z</time>
      </trkpt>
      <trkpt lat="48.8582" lon="2.40316">
        <ele>120</ele>
        <time>2012-12-18T20:28:57.000Z</time>
      </trkpt>
      <trkpt lat="48.85816" lon="2.40325">
        <ele>119</ele>
        <time>2012-12-18T20:28:58.000Z</time>
      </trkpt>
      <trkpt lat="48.8581" lon="2.40331">
        <ele>118</ele>
        <time>2012-12-18T20:28:59.000Z</time>
      </trkpt>
      <trkpt lat="48.85806" lon="2.40336">
        <ele>118</ele>
        <time>2012-12-18T20:29:00.000Z</time>
      </trkpt>
      <trkpt lat="48.85801" lon="2.40339">
        <ele>118</ele>
        <time>2012-12-18T20:29:01.000Z</time>
      </trkpt>
      <trkpt lat="48.85798" lon="2.40344">
        <ele>118</ele>
        <time>2012-12-18T20:29:02.000Z</time>
      </trkpt>
      <trkpt lat="48.85794" lon="2.40348">
        <ele>118</ele>
        <time>2012-12-18T20:29:03.000Z</time>
      </trkpt>
      <trkpt lat="48.85789" lon="2.40355">
        <ele>117</ele>
        <time>2012-12-18T20:29:04.000Z</time>
      </trkpt>
      <trkpt lat="48.85785" lon="2.40363">
        <ele>118</ele>
        <time>2012-12-18T20:29:05.000Z</time>
      </trkpt>
      <trkpt lat="48.8578" lon="2.40371">
        <ele>117</ele>
        <time>2012-12-18T20:29:06.000Z</time>
      </trkpt>
      <trkpt lat="48.85777" lon="2.40378">
        <ele>115</ele>
        <time>2012-12-18T20:29:07.000Z</time>
      </trkpt>
      <trkpt lat="48.85774" lon="2.40385">
        <ele>116</ele>
        <time>2012-12-18T20:29:08.000Z</time>
      </trkpt>
      <trkpt lat="48.85768" lon="2.40391">
        <ele>116</ele>
        <time>2012-12-18T20:29:09.000Z</time>
      </trkpt>
      <trkpt lat="48.85763" lon="2.40396">
        <ele>116</ele>
        <time>2012-12-18T20:29:10.000Z</time>
      </trkpt>
      <trkpt lat="48.85757" lon="2.40398">
        <ele>115</ele>
        <time>2012-12-18T20:29:11.000Z</time>
      </trkpt>
      <trkpt lat="48.85753" lon="2.40402">
        <ele>115</ele>
        <time>2012-12-18T20:29:12.000Z</time>
      </trkpt>
      <trkpt lat="48.85749" lon="2.40406">
        <ele>115</ele>
        <time>2012-12-18T20:29:13.000Z</time>
      </trkpt>
      <trkpt lat="48.85745" lon="2.40409">
        <ele>115</ele>
        <time>2012-12-18T20:29:14.000Z</time>
      </trkpt>
      <trkpt lat="48.8574" lon="2.40411">
        <ele>116</ele>
        <time>2012-12-18T20:29:15.000Z</time>
      </trkpt>
      <trkpt lat="48.85735" lon="2.40415">
        <ele>117</ele>
        <time>2012-12-18T20:29:16.000Z</time>
      </trkpt>
      <trkpt lat="48.85731" lon="2.4042">
        <ele>118</ele>
        <time>2012-12-18T20:29:17.000Z</time>
      </trkpt>
      <trkpt lat="48.85726" lon="2.40424">
        <ele>119</ele>
        <time>2012-12-18T20:29:18.000Z</time>
      </trkpt>
      <trkpt lat="48.85721" lon="2.40427">
        <ele>120</ele>
        <time>2012-12-18T20:29:19.000Z</time>
      </trkpt>
      <trkpt lat="48.85717" lon="2.40433">
        <ele>120</ele>
        <time>2012-12-18T20:29:20.000Z</time>
      </trkpt>
      <trkpt lat="48.85712" lon="2.40439">
        <ele>120</ele>
        <time>2012-12-18T20:29:21.000Z</time>
      </trkpt>
      <trkpt lat="48.85708" lon="2.40443">
        <ele>120</ele>
        <time>2012-12-18T20:29:22.000Z</time>
      </trkpt>
      <trkpt lat="48.85701" lon="2.40449">
        <ele>120</ele>
        <time>2012-12-18T20:29:23.000Z</time>
      </trkpt>
      <trkpt lat="48.85696" lon="2.40461">
        <ele>121</ele>
        <time>2012-12-18T20:29:24.000Z</time>
      </trkpt>
      <trkpt lat="48.85692" lon="2.40467">
        <ele>121</ele>
        <time>2012-12-18T20:29:25.000Z</time>
      </trkpt>
      <trkpt lat="48.85688" lon="2.40471">
        <ele>121</ele>
        <time>2012-12-18T20:29:26.000Z</time>
      </trkpt>
      <trkpt lat="48.8568" lon="2.40478">
        <ele>120</ele>
        <time>2012-12-18T20:29:27.000Z</time>
      </trkpt>
      <trkpt lat="48.85665" lon="2.40483">
        <ele>118</ele>
        <time>2012-12-18T20:29:28.000Z</time>
      </trkpt>
      <trkpt lat="48.8566" lon="2.40483">
        <ele>118</ele>
        <time>2012-12-18T20:29:29.000Z</time>
      </trkpt>
      <trkpt lat="48.85656" lon="2.40482">
        <ele>118</ele>
        <time>2012-12-18T20:29:30.000Z</time>
      </trkpt>
      <trkpt lat="48.85651" lon="2.40484">
        <ele>117</ele>
        <time>2012-12-18T20:29:31.000Z</time>
      </trkpt>
      <trkpt lat="48.85649" lon="2.40483">
        <ele>116</ele>
        <time>2012-12-18T20:29:32.000Z</time>
      </trkpt>
      <trkpt lat="48.85645" lon="2.40484">
        <ele>116</ele>
        <time>2012-12-18T20:29:33.000Z</time>
      </trkpt>
      <trkpt lat="48.85642" lon="2.40487">
        <ele>115</ele>
        <time>2012-12-18T20:29:35.000Z</time>
      </trkpt>
      <trkpt lat="48.85639" lon="2.40487">
        <ele>115</ele>
        <time>2012-12-18T20:29:36.000Z</time>
      </trkpt>
      <trkpt lat="48.85635" lon="2.40485">
        <ele>112</ele>
        <time>2012-12-18T20:29:39.000Z</time>
      </trkpt>
      <trkpt lat="48.85634" lon="2.40486">
        <ele>112</ele>
        <time>2012-12-18T20:29:40.000Z</time>
      </trkpt>
      <trkpt lat="48.8563" lon="2.40487">
        <ele>111</ele>
        <time>2012-12-18T20:29:43.000Z</time>
      </trkpt>
      <trkpt lat="48.85628" lon="2.40487">
        <ele>110</ele>
        <time>2012-12-18T20:29:44.000Z</time>
      </trkpt>
      <trkpt lat="48.85625" lon="2.40488">
        <ele>110</ele>
        <time>2012-12-18T20:29:45.000Z</time>
      </trkpt>
      <trkpt lat="48.85622" lon="2.40489">
        <ele>109</ele>
        <time>2012-12-18T20:29:46.000Z</time>
      </trkpt>
      <trkpt lat="48.8562" lon="2.4049">
        <ele>109</ele>
        <time>2012-12-18T20:29:47.000Z</time>
      </trkpt>
      <trkpt lat="48.85616" lon="2.4049">
        <ele>109</ele>
        <time>2012-12-18T20:29:48.000Z</time>
      </trkpt>
      <trkpt lat="48.85613" lon="2.4049">
        <ele>109</ele>
        <time>2012-12-18T20:29:49.000Z</time>
      </trkpt>
      <trkpt lat="48.8561" lon="2.40488">
        <ele>109</ele>
        <time>2012-12-18T20:29:50.000Z</time>
      </trkpt>
      <trkpt lat="48.85607" lon="2.40488">
        <ele>109</ele>
        <time>2012-12-18T20:29:51.000Z</time>
      </trkpt>
      <trkpt lat="48.85603" lon="2.40487">
        <ele>109</ele>
        <time>2012-12-18T20:29:52.000Z</time>
      </trkpt>
      <trkpt lat="48.856" lon="2.40487">
        <ele>109</ele>
        <time>2012-12-18T20:29:53.000Z</time>
      </trkpt>
      <trkpt lat="48.85596" lon="2.40488">
        <ele>109</ele>
        <time>2012-12-18T20:29:54.000Z</time>
      </trkpt>
      <trkpt lat="48.85593" lon="2.40489">
        <ele>109</ele>
        <time>2012-12-18T20:29:55.000Z</time>
      </trkpt>
      <trkpt lat="48.85588" lon="2.40487">
        <ele>109</ele>
        <time>2012-12-18T20:29:56.000Z</time>
      </trkpt>
      <trkpt lat="48.85583" lon="2.40489">
        <ele>109</ele>
        <time>2012-12-18T20:29:57.000Z</time>
      </trkpt>
      <trkpt lat="48.85579" lon="2.40494">
        <ele>109</ele>
        <time>2012-12-18T20:29:58.000Z</time>
      </trkpt>
      <trkpt lat="48.85575" lon="2.40496">
        <ele>109</ele>
        <time>2012-12-18T20:29:59.000Z</time>
      </trkpt>
      <trkpt lat="48.85571" lon="2.40499">
        <ele>109</ele>
        <time>2012-12-18T20:30:00.000Z</time>
      </trkpt>
      <trkpt lat="48.85567" lon="2.40502">
        <ele>109</ele>
        <time>2012-12-18T20:30:01.000Z</time>
      </trkpt>
      <trkpt lat="48.85562" lon="2.40503">
        <ele>109</ele>
        <time>2012-12-18T20:30:02.000Z</time>
      </trkpt>
      <trkpt lat="48.85558" lon="2.40509">
        <ele>109</ele>
        <time>2012-12-18T20:30:03.000Z</time>
      </trkpt>
      <trkpt lat="48.85554" lon="2.40515">
        <ele>108</ele>
        <time>2012-12-18T20:30:04.000Z</time>
      </trkpt>
      <trkpt lat="48.8555" lon="2.40518">
        <ele>108</ele>
        <time>2012-12-18T20:30:05.000Z</time>
      </trkpt>
      <trkpt lat="48.85547" lon="2.40523">
        <ele>108</ele>
        <time>2012-12-18T20:30:06.000Z</time>
      </trkpt>
      <trkpt lat="48.85541" lon="2.40523">
        <ele>108</ele>
        <time>2012-12-18T20:30:07.000Z</time>
      </trkpt>
      <trkpt lat="48.85537" lon="2.40527">
        <ele>107</ele>
        <time>2012-12-18T20:30:08.000Z</time>
      </trkpt>
      <trkpt lat="48.85534" lon="2.40526">
        <ele>107</ele>
        <time>2012-12-18T20:30:09.000Z</time>
      </trkpt>
      <trkpt lat="48.85531" lon="2.40527">
        <ele>107</ele>
        <time>2012-12-18T20:30:10.000Z</time>
      </trkpt>
      <trkpt lat="48.85525" lon="2.40535">
        <ele>107</ele>
        <time>2012-12-18T20:30:11.000Z</time>
      </trkpt>
      <trkpt lat="48.8552" lon="2.40536">
        <ele>107</ele>
        <time>2012-12-18T20:30:12.000Z</time>
      </trkpt>
      <trkpt lat="48.85514" lon="2.40542">
        <ele>107</ele>
        <time>2012-12-18T20:30:13.000Z</time>
      </trkpt>
      <trkpt lat="48.85511" lon="2.40544">
        <ele>107</ele>
        <time>2012-12-18T20:30:14.000Z</time>
      </trkpt>
      <trkpt lat="48.85504" lon="2.40541">
        <ele>107</ele>
        <time>2012-12-18T20:30:15.000Z</time>
      </trkpt>
      <trkpt lat="48.85501" lon="2.40542">
        <ele>107</ele>
        <time>2012-12-18T20:30:16.000Z</time>
      </trkpt>
      <trkpt lat="48.85493" lon="2.40542">
        <ele>108</ele>
        <time>2012-12-18T20:30:17.000Z</time>
      </trkpt>
      <trkpt lat="48.85487" lon="2.40544">
        <ele>107</ele>
        <time>2012-12-18T20:30:18.000Z</time>
      </trkpt>
      <trkpt lat="48.8548" lon="2.40549">
        <ele>107</ele>
        <time>2012-12-18T20:30:19.000Z</time>
      </trkpt>
      <trkpt lat="48.85474" lon="2.4055">
        <ele>107</ele>
        <time>2012-12-18T20:30:20.000Z</time>
      </trkpt>
      <trkpt lat="48.85469" lon="2.40549">
        <ele>107</ele>
        <time>2012-12-18T20:30:21.000Z</time>
      </trkpt>
      <trkpt lat="48.85464" lon="2.40551">
        <ele>107</ele>
        <time>2012-12-18T20:30:22.000Z</time>
      </trkpt>
      <trkpt lat="48.85459" lon="2.40551">
        <ele>107</ele>
        <time>2012-12-18T20:30:23.000Z</time>
      </trkpt>
      <trkpt lat="48.85454" lon="2.40551">
        <ele>107</ele>
        <time>2012-12-18T20:30:24.000Z</time>
      </trkpt>
      <trkpt lat="48.85449" lon="2.40551">
        <ele>106</ele>
        <time>2012-12-18T20:30:25.000Z</time>
      </trkpt>
      <trkpt lat="48.85445" lon="2.40554">
        <ele>107</ele>
        <time>2012-12-18T20:30:26.000Z</time>
      </trkpt>
      <trkpt lat="48.85439" lon="2.40559">
        <ele>108</ele>
        <time>2012-12-18T20:30:27.000Z</time>
      </trkpt>
      <trkpt lat="48.85433" lon="2.40564">
        <ele>108</ele>
        <time>2012-12-18T20:30:28.000Z</time>
      </trkpt>
      <trkpt lat="48.85428" lon="2.40562">
        <ele>108</ele>
        <time>2012-12-18T20:30:29.000Z</time>
      </trkpt>
      <trkpt lat="48.85426" lon="2.40567">
        <ele>108</ele>
        <time>2012-12-18T20:30:30.000Z</time>
      </trkpt>
      <trkpt lat="48.85422" lon="2.40566">
        <ele>108</ele>
        <time>2012-12-18T20:30:31.000Z</time>
      </trkpt>
      <trkpt lat="48.85415" lon="2.40559">
        <ele>105</ele>
        <time>2012-12-18T20:30:32.000Z</time>
      </trkpt>
      <trkpt lat="48.85408" lon="2.40561">
        <ele>105</ele>
        <time>2012-12-18T20:30:33.000Z</time>
      </trkpt>
      <trkpt lat="48.85401" lon="2.40561">
        <ele>105</ele>
        <time>2012-12-18T20:30:34.000Z</time>
      </trkpt>
      <trkpt lat="48.85397" lon="2.40563">
        <ele>105</ele>
        <time>2012-12-18T20:30:35.000Z</time>
      </trkpt>
      <trkpt lat="48.85393" lon="2.40565">
        <ele>105</ele>
        <time>2012-12-18T20:30:36.000Z</time>
      </trkpt>
      <trkpt lat="48.85388" lon="2.40566">
        <ele>106</ele>
        <time>2012-12-18T20:30:37.000Z</time>
      </trkpt>
      <trkpt lat="48.85381" lon="2.40567">
        <ele>106</ele>
        <time>2012-12-18T20:30:38.000Z</time>
      </trkpt>
      <trkpt lat="48.85376" lon="2.40568">
        <ele>106</ele>
        <time>2012-12-18T20:30:39.000Z</time>
      </trkpt>
      <trkpt lat="48.85371" lon="2.4057">
        <ele>105</ele>
        <time>2012-12-18T20:30:40.000Z</time>
      </trkpt>
      <trkpt lat="48.85369" lon="2.40571">
        <ele>105</ele>
        <time>2012-12-18T20:30:41.000Z</time>
      </trkpt>
      <trkpt lat="48.85365" lon="2.40573">
        <ele>104</ele>
        <time>2012-12-18T20:30:42.000Z</time>
      </trkpt>
      <trkpt lat="48.85362" lon="2.40573">
        <ele>104</ele>
        <time>2012-12-18T20:30:43.000Z</time>
      </trkpt>
      <trkpt lat="48.85359" lon="2.40574">
        <ele>104</ele>
        <time>2012-12-18T20:30:44.000Z</time>
      </trkpt>
      <trkpt lat="48.85355" lon="2.40578">
        <ele>104</ele>
        <time>2012-12-18T20:30:45.000Z</time>
      </trkpt>
      <trkpt lat="48.85352" lon="2.40579">
        <ele>104</ele>
        <time>2012-12-18T20:30:46.000Z</time>
      </trkpt>
      <trkpt lat="48.85345" lon="2.40587">
        <ele>104</ele>
        <time>2012-12-18T20:30:47.000Z</time>
      </trkpt>
      <trkpt lat="48.85341" lon="2.40588">
        <ele>104</ele>
        <time>2012-12-18T20:30:48.000Z</time>
      </trkpt>
      <trkpt lat="48.85337" lon="2.40589">
        <ele>104</ele>
        <time>2012-12-18T20:30:49.000Z</time>
      </trkpt>
      <trkpt lat="48.85334" lon="2.4059">
        <ele>104</ele>
        <time>2012-12-18T20:30:50.000Z</time>
      </trkpt>
      <trkpt lat="48.8533" lon="2.40589">
        <ele>104</ele>
        <time>2012-12-18T20:30:51.000Z</time>
      </trkpt>
      <trkpt lat="48.85324" lon="2.40589">
        <ele>105</ele>
        <time>2012-12-18T20:30:52.000Z</time>
      </trkpt>
      <trkpt lat="48.85319" lon="2.40588">
        <ele>105</ele>
        <time>2012-12-18T20:30:53.000Z</time>
      </trkpt>
      <trkpt lat="48.85315" lon="2.40588">
        <ele>104</ele>
        <time>2012-12-18T20:30:54.000Z</time>
      </trkpt>
      <trkpt lat="48.85314" lon="2.40588">
        <ele>105</ele>
        <time>2012-12-18T20:30:55.000Z</time>
      </trkpt>
      <trkpt lat="48.85312" lon="2.40588">
        <ele>105</ele>
        <time>2012-12-18T20:30:56.000Z</time>
      </trkpt>
      <trkpt lat="48.85305" lon="2.40591">
        <ele>105</ele>
        <time>2012-12-18T20:30:57.000Z</time>
      </trkpt>
      <trkpt lat="48.85301" lon="2.40593">
        <ele>106</ele>
        <time>2012-12-18T20:30:58.000Z</time>
      </trkpt>
      <trkpt lat="48.85293" lon="2.40595">
        <ele>109</ele>
        <time>2012-12-18T20:30:59.000Z</time>
      </trkpt>
      <trkpt lat="48.85289" lon="2.40597">
        <ele>111</ele>
        <time>2012-12-18T20:31:00.000Z</time>
      </trkpt>
      <trkpt lat="48.85286" lon="2.40597">
        <ele>113</ele>
        <time>2012-12-18T20:31:01.000Z</time>
      </trkpt>
      <trkpt lat="48.85283" lon="2.406">
        <ele>113</ele>
        <time>2012-12-18T20:31:02.000Z</time>
      </trkpt>
      <trkpt lat="48.85281" lon="2.40601">
        <ele>113</ele>
        <time>2012-12-18T20:31:03.000Z</time>
      </trkpt>
      <trkpt lat="48.8528" lon="2.40598">
        <ele>111</ele>
        <time>2012-12-18T20:31:29.000Z</time>
      </trkpt>
      <trkpt lat="48.85276" lon="2.40599">
        <ele>112</ele>
        <time>2012-12-18T20:31:30.000Z</time>
      </trkpt>
      <trkpt lat="48.85272" lon="2.40601">
        <ele>112</ele>
        <time>2012-12-18T20:31:31.000Z</time>
      </trkpt>
      <trkpt lat="48.85267" lon="2.40604">
        <ele>112</ele>
        <time>2012-12-18T20:31:32.000Z</time>
      </trkpt>
      <trkpt lat="48.85263" lon="2.40604">
        <ele>112</ele>
        <time>2012-12-18T20:31:33.000Z</time>
      </trkpt>
      <trkpt lat="48.85257" lon="2.40605">
        <ele>113</ele>
        <time>2012-12-18T20:31:34.000Z</time>
      </trkpt>
      <trkpt lat="48.85252" lon="2.40608">
        <ele>113</ele>
        <time>2012-12-18T20:31:35.000Z</time>
      </trkpt>
      <trkpt lat="48.85248" lon="2.40608">
        <ele>113</ele>
        <time>2012-12-18T20:31:36.000Z</time>
      </trkpt>
      <trkpt lat="48.85243" lon="2.40608">
        <ele>113</ele>
        <time>2012-12-18T20:31:37.000Z</time>
      </trkpt>
      <trkpt lat="48.85239" lon="2.40608">
        <ele>113</ele>
        <time>2012-12-18T20:31:38.000Z</time>
      </trkpt>
      <trkpt lat="48.85235" lon="2.40609">
        <ele>113</ele>
        <time>2012-12-18T20:31:39.000Z</time>
      </trkpt>
      <trkpt lat="48.85231" lon="2.40609">
        <ele>113</ele>
        <time>2012-12-18T20:31:40.000Z</time>
      </trkpt>
      <trkpt lat="48.85227" lon="2.40609">
        <ele>113</ele>
        <time>2012-12-18T20:31:41.000Z</time>
      </trkpt>
      <trkpt lat="48.85222" lon="2.4061">
        <ele>113</ele>
        <time>2012-12-18T20:31:42.000Z</time>
      </trkpt>
      <trkpt lat="48.85221" lon="2.40606">
        <ele>113</ele>
        <time>2012-12-18T20:31:43.000Z</time>
      </trkpt>
      <trkpt lat="48.85216" lon="2.40609">
        <ele>113</ele>
        <time>2012-12-18T20:31:44.000Z</time>
      </trkpt>
      <trkpt lat="48.85212" lon="2.40608">
        <ele>113</ele>
        <time>2012-12-18T20:31:45.000Z</time>
      </trkpt>
      <trkpt lat="48.85209" lon="2.40609">
        <ele>113</ele>
        <time>2012-12-18T20:31:46.000Z</time>
      </trkpt>
      <trkpt lat="48.85205" lon="2.40609">
        <ele>113</ele>
        <time>2012-12-18T20:31:47.000Z</time>
      </trkpt>
      <trkpt lat="48.85203" lon="2.4061">
        <ele>113</ele>
        <time>2012-12-18T20:31:48.000Z</time>
      </trkpt>
      <trkpt lat="48.85198" lon="2.40611">
        <ele>112</ele>
        <time>2012-12-18T20:31:49.000Z</time>
      </trkpt>
      <trkpt lat="48.85196" lon="2.4061">
        <ele>113</ele>
        <time>2012-12-18T20:31:50.000Z</time>
      </trkpt>
      <trkpt lat="48.85195" lon="2.4061">
        <ele>113</ele>
        <time>2012-12-18T20:31:51.000Z</time>
      </trkpt>
      <trkpt lat="48.8519" lon="2.40619">
        <ele>112</ele>
        <time>2012-12-18T20:31:52.000Z</time>
      </trkpt>
      <trkpt lat="48.85179" lon="2.40614">
        <ele>112</ele>
        <time>2012-12-18T20:31:53.000Z</time>
      </trkpt>
      <trkpt lat="48.85168" lon="2.4061">
        <ele>111</ele>
        <time>2012-12-18T20:31:54.000Z</time>
      </trkpt>
      <trkpt lat="48.85166" lon="2.40611">
        <ele>111</ele>
        <time>2012-12-18T20:31:55.000Z</time>
      </trkpt>
      <trkpt lat="48.85161" lon="2.40613">
        <ele>111</ele>
        <time>2012-12-18T20:31:56.000Z</time>
      </trkpt>
      <trkpt lat="48.85154" lon="2.40618">
        <ele>112</ele>
        <time>2012-12-18T20:31:57.000Z</time>
      </trkpt>
      <trkpt lat="48.8515" lon="2.40617">
        <ele>112</ele>
        <time>2012-12-18T20:31:58.000Z</time>
      </trkpt>
      <trkpt lat="48.85144" lon="2.40618">
        <ele>112</ele>
        <time>2012-12-18T20:31:59.000Z</time>
      </trkpt>
      <trkpt lat="48.85138" lon="2.4062">
        <ele>112</ele>
        <time>2012-12-18T20:32:00.000Z</time>
      </trkpt>
      <trkpt lat="48.85134" lon="2.40618">
        <ele>112</ele>
        <time>2012-12-18T20:32:01.000Z</time>
      </trkpt>
      <trkpt lat="48.85128" lon="2.40618">
        <ele>111</ele>
        <time>2012-12-18T20:32:02.000Z</time>
      </trkpt>
      <trkpt lat="48.85118" lon="2.40621">
        <ele>110</ele>
        <time>2012-12-18T20:32:03.000Z</time>
      </trkpt>
      <trkpt lat="48.85109" lon="2.40623">
        <ele>109</ele>
        <time>2012-12-18T20:32:04.000Z</time>
      </trkpt>
      <trkpt lat="48.851" lon="2.40626">
        <ele>109</ele>
        <time>2012-12-18T20:32:05.000Z</time>
      </trkpt>
      <trkpt lat="48.85093" lon="2.4063">
        <ele>108</ele>
        <time>2012-12-18T20:32:06.000Z</time>
      </trkpt>
      <trkpt lat="48.85087" lon="2.40629">
        <ele>106</ele>
        <time>2012-12-18T20:32:07.000Z</time>
      </trkpt>
      <trkpt lat="48.85082" lon="2.40627">
        <ele>106</ele>
        <time>2012-12-18T20:32:08.000Z</time>
      </trkpt>
      <trkpt lat="48.85075" lon="2.40626">
        <ele>105</ele>
        <time>2012-12-18T20:32:09.000Z</time>
      </trkpt>
      <trkpt lat="48.8507" lon="2.40627">
        <ele>104</ele>
        <time>2012-12-18T20:32:10.000Z</time>
      </trkpt>
      <trkpt lat="48.85065" lon="2.40627">
        <ele>104</ele>
        <time>2012-12-18T20:32:11.000Z</time>
      </trkpt>
      <trkpt lat="48.85058" lon="2.40626">
        <ele>104</ele>
        <time>2012-12-18T20:32:12.000Z</time>
      </trkpt>
      <trkpt lat="48.85051" lon="2.40625">
        <ele>103</ele>
        <time>2012-12-18T20:32:13.000Z</time>
      </trkpt>
      <trkpt lat="48.85045" lon="2.40624">
        <ele>103</ele>
        <time>2012-12-18T20:32:14.000Z</time>
      </trkpt>
      <trkpt lat="48.85038" lon="2.40626">
        <ele>103</ele>
        <time>2012-12-18T20:32:15.000Z</time>
      </trkpt>
      <trkpt lat="48.85032" lon="2.40628">
        <ele>103</ele>
        <time>2012-12-18T20:32:16.000Z</time>
      </trkpt>
      <trkpt lat="48.85027" lon="2.40628">
        <ele>101</ele>
        <time>2012-12-18T20:32:17.000Z</time>
      </trkpt>
      <trkpt lat="48.85021" lon="2.40632">
        <ele>101</ele>
        <time>2012-12-18T20:32:18.000Z</time>
      </trkpt>
      <trkpt lat="48.85016" lon="2.40635">
        <ele>100</ele>
        <time>2012-12-18T20:32:19.000Z</time>
      </trkpt>
      <trkpt lat="48.85011" lon="2.40635">
        <ele>100</ele>
        <time>2012-12-18T20:32:20.000Z</time>
      </trkpt>
      <trkpt lat="48.85006" lon="2.40636">
        <ele>100</ele>
        <time>2012-12-18T20:32:21.000Z</time>
      </trkpt>
      <trkpt lat="48.84999" lon="2.40635">
        <ele>100</ele>
        <time>2012-12-18T20:32:22.000Z</time>
      </trkpt>
      <trkpt lat="48.84994" lon="2.40635">
        <ele>100</ele>
        <time>2012-12-18T20:32:23.000Z</time>
      </trkpt>
      <trkpt lat="48.84989" lon="2.40635">
        <ele>100</ele>
        <time>2012-12-18T20:32:24.000Z</time>
      </trkpt>
      <trkpt lat="48.84986" lon="2.40637">
        <ele>99</ele>
        <time>2012-12-18T20:32:25.000Z</time>
      </trkpt>
      <trkpt lat="48.84981" lon="2.40637">
        <ele>99</ele>
        <time>2012-12-18T20:32:26.000Z</time>
      </trkpt>
      <trkpt lat="48.84975" lon="2.40638">
        <ele>99</ele>
        <time>2012-12-18T20:32:27.000Z</time>
      </trkpt>
      <trkpt lat="48.84972" lon="2.40634">
        <ele>99</ele>
        <time>2012-12-18T20:32:28.000Z</time>
      </trkpt>
      <trkpt lat="48.84967" lon="2.40635">
        <ele>99</ele>
        <time>2012-12-18T20:32:29.000Z</time>
      </trkpt>
      <trkpt lat="48.84963" lon="2.40636">
        <ele>99</ele>
        <time>2012-12-18T20:32:30.000Z</time>
      </trkpt>
      <trkpt lat="48.8496" lon="2.40635">
        <ele>100</ele>
        <time>2012-12-18T20:32:31.000Z</time>
      </trkpt>
      <trkpt lat="48.84954" lon="2.40635">
        <ele>100</ele>
        <time>2012-12-18T20:32:32.000Z</time>
      </trkpt>
      <trkpt lat="48.84951" lon="2.40634">
        <ele>100</ele>
        <time>2012-12-18T20:32:33.000Z</time>
      </trkpt>
      <trkpt lat="48.84946" lon="2.40636">
        <ele>100</ele>
        <time>2012-12-18T20:32:34.000Z</time>
      </trkpt>
      <trkpt lat="48.8494" lon="2.40639">
        <ele>101</ele>
        <time>2012-12-18T20:32:35.000Z</time>
      </trkpt>
      <trkpt lat="48.84936" lon="2.4064">
        <ele>100</ele>
        <time>2012-12-18T20:32:36.000Z</time>
      </trkpt>
      <trkpt lat="48.84931" lon="2.40641">
        <ele>101</ele>
        <time>2012-12-18T20:32:37.000Z</time>
      </trkpt>
      <trkpt lat="48.84927" lon="2.4064">
        <ele>101</ele>
        <time>2012-12-18T20:32:38.000Z</time>
      </trkpt>
      <trkpt lat="48.84924" lon="2.40639">
        <ele>101</ele>
        <time>2012-12-18T20:32:39.000Z</time>
      </trkpt>
      <trkpt lat="48.84921" lon="2.40638">
        <ele>101</ele>
        <time>2012-12-18T20:32:40.000Z</time>
      </trkpt>
      <trkpt lat="48.84915" lon="2.40638">
        <ele>101</ele>
        <time>2012-12-18T20:32:41.000Z</time>
      </trkpt>
      <trkpt lat="48.84912" lon="2.40642">
        <ele>101</ele>
        <time>2012-12-18T20:32:42.000Z</time>
      </trkpt>
      <trkpt lat="48.8491" lon="2.40642">
        <ele>101</ele>
        <time>2012-12-18T20:32:43.000Z</time>
      </trkpt>
      <trkpt lat="48.84907" lon="2.40642">
        <ele>102</ele>
        <time>2012-12-18T20:32:45.000Z</time>
      </trkpt>
      <trkpt lat="48.84905" lon="2.40642">
        <ele>102</ele>
        <time>2012-12-18T20:32:46.000Z</time>
      </trkpt>
      <trkpt lat="48.84901" lon="2.40643">
        <ele>102</ele>
        <time>2012-12-18T20:32:50.000Z</time>
      </trkpt>
      <trkpt lat="48.84899" lon="2.40645">
        <ele>101</ele>
        <time>2012-12-18T20:32:51.000Z</time>
      </trkpt>
      <trkpt lat="48.84899" lon="2.4064">
        <ele>101</ele>
        <time>2012-12-18T20:32:52.000Z</time>
      </trkpt>
      <trkpt lat="48.84901" lon="2.40638">
        <ele>101</ele>
        <time>2012-12-18T20:32:53.000Z</time>
      </trkpt>
      <trkpt lat="48.84898" lon="2.40637">
        <ele>100</ele>
        <time>2012-12-18T20:33:00.000Z</time>
      </trkpt>
      <trkpt lat="48.84895" lon="2.40638">
        <ele>100</ele>
        <time>2012-12-18T20:33:01.000Z</time>
      </trkpt>
      <trkpt lat="48.84891" lon="2.40638">
        <ele>100</ele>
        <time>2012-12-18T20:33:02.000Z</time>
      </trkpt>
      <trkpt lat="48.84889" lon="2.40636">
        <ele>99</ele>
        <time>2012-12-18T20:33:03.000Z</time>
      </trkpt>
      <trkpt lat="48.84885" lon="2.40638">
        <ele>99</ele>
        <time>2012-12-18T20:33:04.000Z</time>
      </trkpt>
      <trkpt lat="48.84883" lon="2.40637">
        <ele>99</ele>
        <time>2012-12-18T20:33:05.000Z</time>
      </trkpt>
      <trkpt lat="48.8488" lon="2.40637">
        <ele>99</ele>
        <time>2012-12-18T20:33:06.000Z</time>
      </trkpt>
      <trkpt lat="48.84877" lon="2.40637">
        <ele>99</ele>
        <time>2012-12-18T20:33:07.000Z</time>
      </trkpt>
      <trkpt lat="48.84873" lon="2.40639">
        <ele>100</ele>
        <time>2012-12-18T20:33:08.000Z</time>
      </trkpt>
      <trkpt lat="48.8487" lon="2.40641">
        <ele>100</ele>
        <time>2012-12-18T20:33:09.000Z</time>
      </trkpt>
      <trkpt lat="48.84865" lon="2.40642">
        <ele>100</ele>
        <time>2012-12-18T20:33:10.000Z</time>
      </trkpt>
      <trkpt lat="48.84863" lon="2.40642">
        <ele>100</ele>
        <time>2012-12-18T20:33:11.000Z</time>
      </trkpt>
      <trkpt lat="48.84858" lon="2.40643">
        <ele>100</ele>
        <time>2012-12-18T20:33:12.000Z</time>
      </trkpt>
      <trkpt lat="48.84855" lon="2.40642">
        <ele>100</ele>
        <time>2012-12-18T20:33:13.000Z</time>
      </trkpt>
      <trkpt lat="48.84851" lon="2.40643">
        <ele>101</ele>
        <time>2012-12-18T20:33:14.000Z</time>
      </trkpt>
      <trkpt lat="48.84847" lon="2.40642">
        <ele>101</ele>
        <time>2012-12-18T20:33:15.000Z</time>
      </trkpt>
      <trkpt lat="48.84844" lon="2.40642">
        <ele>100</ele>
        <time>2012-12-18T20:33:16.000Z</time>
      </trkpt>
      <trkpt lat="48.84839" lon="2.40644">
        <ele>101</ele>
        <time>2012-12-18T20:33:17.000Z</time>
      </trkpt>
      <trkpt lat="48.84835" lon="2.40643">
        <ele>101</ele>
        <time>2012-12-18T20:33:19.000Z</time>
      </trkpt>
      <trkpt lat="48.84832" lon="2.40642">
        <ele>102</ele>
        <time>2012-12-18T20:33:20.000Z</time>
      </trkpt>
      <trkpt lat="48.84827" lon="2.40643">
        <ele>100</ele>
        <time>2012-12-18T20:33:21.000Z</time>
      </trkpt>
      <trkpt lat="48.84821" lon="2.40645">
        <ele>101</ele>
        <time>2012-12-18T20:33:22.000Z</time>
      </trkpt>
      <trkpt lat="48.84819" lon="2.40642">
        <ele>101</ele>
        <time>2012-12-18T20:33:23.000Z</time>
      </trkpt>
      <trkpt lat="48.84815" lon="2.40641">
        <ele>101</ele>
        <time>2012-12-18T20:33:24.000Z</time>
      </trkpt>
      <trkpt lat="48.84812" lon="2.40641">
        <ele>100</ele>
        <time>2012-12-18T20:33:25.000Z</time>
      </trkpt>
      <trkpt lat="48.84809" lon="2.4064">
        <ele>101</ele>
        <time>2012-12-18T20:33:26.000Z</time>
      </trkpt>
      <trkpt lat="48.84806" lon="2.4064">
        <ele>102</ele>
        <time>2012-12-18T20:33:27.000Z</time>
      </trkpt>
      <trkpt lat="48.84804" lon="2.40638">
        <ele>103</ele>
        <time>2012-12-18T20:33:28.000Z</time>
      </trkpt>
      <trkpt lat="48.84802" lon="2.40638">
        <ele>103</ele>
        <time>2012-12-18T20:33:29.000Z</time>
      </trkpt>
      <trkpt lat="48.84798" lon="2.40637">
        <ele>104</ele>
        <time>2012-12-18T20:33:30.000Z</time>
      </trkpt>
      <trkpt lat="48.84796" lon="2.40632">
        <ele>103</ele>
        <time>2012-12-18T20:33:31.000Z</time>
      </trkpt>
      <trkpt lat="48.84793" lon="2.40627">
        <ele>101</ele>
        <time>2012-12-18T20:33:32.000Z</time>
      </trkpt>
      <trkpt lat="48.84792" lon="2.40623">
        <ele>100</ele>
        <time>2012-12-18T20:33:33.000Z</time>
      </trkpt>
      <trkpt lat="48.8479" lon="2.40615">
        <ele>99</ele>
        <time>2012-12-18T20:33:34.000Z</time>
      </trkpt>
      <trkpt lat="48.84788" lon="2.4061">
        <ele>96</ele>
        <time>2012-12-18T20:33:36.000Z</time>
      </trkpt>
      <trkpt lat="48.84786" lon="2.40608">
        <ele>97</ele>
        <time>2012-12-18T20:33:37.000Z</time>
      </trkpt>
      <trkpt lat="48.84782" lon="2.40605">
        <ele>97</ele>
        <time>2012-12-18T20:33:39.000Z</time>
      </trkpt>
      <trkpt lat="48.8478" lon="2.40604">
        <ele>96</ele>
        <time>2012-12-18T20:33:40.000Z</time>
      </trkpt>
      <trkpt lat="48.84777" lon="2.40603">
        <ele>97</ele>
        <time>2012-12-18T20:33:41.000Z</time>
      </trkpt>
      <trkpt lat="48.84774" lon="2.40602">
        <ele>97</ele>
        <time>2012-12-18T20:33:42.000Z</time>
      </trkpt>
      <trkpt lat="48.84771" lon="2.406">
        <ele>98</ele>
        <time>2012-12-18T20:33:44.000Z</time>
      </trkpt>
      <trkpt lat="48.84768" lon="2.40598">
        <ele>98</ele>
        <time>2012-12-18T20:33:45.000Z</time>
      </trkpt>
      <trkpt lat="48.84764" lon="2.40595">
        <ele>100</ele>
        <time>2012-12-18T20:33:49.000Z</time>
      </trkpt>
      <trkpt lat="48.84764" lon="2.40594">
        <ele>99</ele>
        <time>2012-12-18T20:33:50.000Z</time>
      </trkpt>
      <trkpt lat="48.8476" lon="2.4059">
        <ele>99</ele>
        <time>2012-12-18T20:33:54.000Z</time>
      </trkpt>
      <trkpt lat="48.8476" lon="2.4059">
        <ele>99</ele>
        <time>2012-12-18T20:33:55.000Z</time>
      </trkpt>
      <trkpt lat="48.84758" lon="2.40586">
        <ele>102</ele>
        <time>2012-12-18T20:34:05.000Z</time>
      </trkpt>
      <trkpt lat="48.8476" lon="2.40583">
        <ele>102</ele>
        <time>2012-12-18T20:34:06.000Z</time>
      </trkpt>
      <trkpt lat="48.84761" lon="2.40578">
        <ele>103</ele>
        <time>2012-12-18T20:34:10.000Z</time>
      </trkpt>
      <trkpt lat="48.84761" lon="2.40576">
        <ele>104</ele>
        <time>2012-12-18T20:34:11.000Z</time>
      </trkpt>
      <trkpt lat="48.84762" lon="2.40569">
        <ele>104</ele>
        <time>2012-12-18T20:34:15.000Z</time>
      </trkpt>
      <trkpt lat="48.84762" lon="2.40567">
        <ele>104</ele>
        <time>2012-12-18T20:34:16.000Z</time>
      </trkpt>
      <trkpt lat="48.84761" lon="2.40562">
        <ele>104</ele>
        <time>2012-12-18T20:34:18.000Z</time>
      </trkpt>
      <trkpt lat="48.84761" lon="2.40559">
        <ele>104</ele>
        <time>2012-12-18T20:34:19.000Z</time>
      </trkpt>
      <trkpt lat="48.84763" lon="2.40553">
        <ele>101</ele>
        <time>2012-12-18T20:34:23.000Z</time>
      </trkpt>
      <trkpt lat="48.84763" lon="2.40552">
        <ele>100</ele>
        <time>2012-12-18T20:34:24.000Z</time>
      </trkpt>
      <trkpt lat="48.84763" lon="2.40547">
        <ele>98</ele>
        <time>2012-12-18T20:34:26.000Z</time>
      </trkpt>
      <trkpt lat="48.84763" lon="2.40543">
        <ele>98</ele>
        <time>2012-12-18T20:34:27.000Z</time>
      </trkpt>
      <trkpt lat="48.84764" lon="2.40539">
        <ele>98</ele>
        <time>2012-12-18T20:34:28.000Z</time>
      </trkpt>
      <trkpt lat="48.84765" lon="2.40536">
        <ele>98</ele>
        <time>2012-12-18T20:34:29.000Z</time>
      </trkpt>
      <trkpt lat="48.84765" lon="2.4053">
        <ele>97</ele>
        <time>2012-12-18T20:34:30.000Z</time>
      </trkpt>
      <trkpt lat="48.84767" lon="2.40524">
        <ele>97</ele>
        <time>2012-12-18T20:34:31.000Z</time>
      </trkpt>
      <trkpt lat="48.84767" lon="2.40518">
        <ele>97</ele>
        <time>2012-12-18T20:34:32.000Z</time>
      </trkpt>
      <trkpt lat="48.84768" lon="2.40513">
        <ele>97</ele>
        <time>2012-12-18T20:34:33.000Z</time>
      </trkpt>
      <trkpt lat="48.84769" lon="2.40508">
        <ele>97</ele>
        <time>2012-12-18T20:34:34.000Z</time>
      </trkpt>
      <trkpt lat="48.84769" lon="2.40501">
        <ele>97</ele>
        <time>2012-12-18T20:34:35.000Z</time>
      </trkpt>
      <trkpt lat="48.8477" lon="2.40495">
        <ele>97</ele>
        <time>2012-12-18T20:34:36.000Z</time>
      </trkpt>
      <trkpt lat="48.8477" lon="2.40488">
        <ele>97</ele>
        <time>2012-12-18T20:34:37.000Z</time>
      </trkpt>
      <trkpt lat="48.84771" lon="2.40481">
        <ele>97</ele>
        <time>2012-12-18T20:34:38.000Z</time>
      </trkpt>
      <trkpt lat="48.84771" lon="2.40475">
        <ele>97</ele>
        <time>2012-12-18T20:34:39.000Z</time>
      </trkpt>
      <trkpt lat="48.84773" lon="2.40468">
        <ele>96</ele>
        <time>2012-12-18T20:34:40.000Z</time>
      </trkpt>
      <trkpt lat="48.84772" lon="2.40461">
        <ele>96</ele>
        <time>2012-12-18T20:34:41.000Z</time>
      </trkpt>
      <trkpt lat="48.84773" lon="2.40454">
        <ele>96</ele>
        <time>2012-12-18T20:34:42.000Z</time>
      </trkpt>
      <trkpt lat="48.84774" lon="2.40447">
        <ele>96</ele>
        <time>2012-12-18T20:34:43.000Z</time>
      </trkpt>
      <trkpt lat="48.84775" lon="2.40441">
        <ele>95</ele>
        <time>2012-12-18T20:34:44.000Z</time>
      </trkpt>
      <trkpt lat="48.84775" lon="2.40435">
        <ele>95</ele>
        <time>2012-12-18T20:34:45.000Z</time>
      </trkpt>
      <trkpt lat="48.84775" lon="2.40428">
        <ele>95</ele>
        <time>2012-12-18T20:34:46.000Z</time>
      </trkpt>
      <trkpt lat="48.84776" lon="2.40421">
        <ele>95</ele>
        <time>2012-12-18T20:34:47.000Z</time>
      </trkpt>
      <trkpt lat="48.84777" lon="2.40414">
        <ele>95</ele>
        <time>2012-12-18T20:34:48.000Z</time>
      </trkpt>
      <trkpt lat="48.84778" lon="2.40408">
        <ele>95</ele>
        <time>2012-12-18T20:34:49.000Z</time>
      </trkpt>
      <trkpt lat="48.84779" lon="2.40402">
        <ele>94</ele>
        <time>2012-12-18T20:34:50.000Z</time>
      </trkpt>
      <trkpt lat="48.84781" lon="2.40396">
        <ele>94</ele>
        <time>2012-12-18T20:34:51.000Z</time>
      </trkpt>
      <trkpt lat="48.84779" lon="2.40389">
        <ele>94</ele>
        <time>2012-12-18T20:34:52.000Z</time>
      </trkpt>
      <trkpt lat="48.84781" lon="2.40383">
        <ele>94</ele>
        <time>2012-12-18T20:34:53.000Z</time>
      </trkpt>
      <trkpt lat="48.84781" lon="2.40375">
        <ele>93</ele>
        <time>2012-12-18T20:34:54.000Z</time>
      </trkpt>
      <trkpt lat="48.84783" lon="2.40367">
        <ele>93</ele>
        <time>2012-12-18T20:34:55.000Z</time>
      </trkpt>
      <trkpt lat="48.84783" lon="2.40359">
        <ele>94</ele>
        <time>2012-12-18T20:34:56.000Z</time>
      </trkpt>
      <trkpt lat="48.84783" lon="2.40351">
        <ele>93</ele>
        <time>2012-12-18T20:34:57.000Z</time>
      </trkpt>
      <trkpt lat="48.84784" lon="2.40343">
        <ele>93</ele>
        <time>2012-12-18T20:34:58.000Z</time>
      </trkpt>
      <trkpt lat="48.84785" lon="2.40336">
        <ele>93</ele>
        <time>2012-12-18T20:34:59.000Z</time>
      </trkpt>
      <trkpt lat="48.84785" lon="2.40327">
        <ele>93</ele>
        <time>2012-12-18T20:35:00.000Z</time>
      </trkpt>
      <trkpt lat="48.84788" lon="2.40319">
        <ele>93</ele>
        <time>2012-12-18T20:35:01.000Z</time>
      </trkpt>
      <trkpt lat="48.84788" lon="2.40311">
        <ele>93</ele>
        <time>2012-12-18T20:35:02.000Z</time>
      </trkpt>
      <trkpt lat="48.84789" lon="2.40304">
        <ele>93</ele>
        <time>2012-12-18T20:35:03.000Z</time>
      </trkpt>
      <trkpt lat="48.84789" lon="2.40295">
        <ele>93</ele>
        <time>2012-12-18T20:35:04.000Z</time>
      </trkpt>
      <trkpt lat="48.84789" lon="2.40288">
        <ele>93</ele>
        <time>2012-12-18T20:35:05.000Z</time>
      </trkpt>
      <trkpt lat="48.84792" lon="2.4028">
        <ele>93</ele>
        <time>2012-12-18T20:35:06.000Z</time>
      </trkpt>
      <trkpt lat="48.84793" lon="2.40272">
        <ele>93</ele>
        <time>2012-12-18T20:35:07.000Z</time>
      </trkpt>
      <trkpt lat="48.84793" lon="2.40264">
        <ele>92</ele>
        <time>2012-12-18T20:35:08.000Z</time>
      </trkpt>
      <trkpt lat="48.84795" lon="2.40257">
        <ele>92</ele>
        <time>2012-12-18T20:35:09.000Z</time>
      </trkpt>
      <trkpt lat="48.84795" lon="2.40251">
        <ele>92</ele>
        <time>2012-12-18T20:35:10.000Z</time>
      </trkpt>
      <trkpt lat="48.84793" lon="2.40244">
        <ele>92</ele>
        <time>2012-12-18T20:35:11.000Z</time>
      </trkpt>
      <trkpt lat="48.84795" lon="2.40237">
        <ele>91</ele>
        <time>2012-12-18T20:35:12.000Z</time>
      </trkpt>
      <trkpt lat="48.84796" lon="2.40232">
        <ele>91</ele>
        <time>2012-12-18T20:35:13.000Z</time>
      </trkpt>
      <trkpt lat="48.84797" lon="2.40227">
        <ele>92</ele>
        <time>2012-12-18T20:35:14.000Z</time>
      </trkpt>
      <trkpt lat="48.84798" lon="2.4022">
        <ele>93</ele>
        <time>2012-12-18T20:35:15.000Z</time>
      </trkpt>
      <trkpt lat="48.84799" lon="2.40213">
        <ele>93</ele>
        <time>2012-12-18T20:35:16.000Z</time>
      </trkpt>
      <trkpt lat="48.848" lon="2.40205">
        <ele>93</ele>
        <time>2012-12-18T20:35:17.000Z</time>
      </trkpt>
      <trkpt lat="48.848" lon="2.40199">
        <ele>94</ele>
        <time>2012-12-18T20:35:18.000Z</time>
      </trkpt>
      <trkpt lat="48.84799" lon="2.40191">
        <ele>93</ele>
        <time>2012-12-18T20:35:19.000Z</time>
      </trkpt>
      <trkpt lat="48.848" lon="2.40185">
        <ele>93</ele>
        <time>2012-12-18T20:35:20.000Z</time>
      </trkpt>
      <trkpt lat="48.84801" lon="2.40178">
        <ele>93</ele>
        <time>2012-12-18T20:35:21.000Z</time>
      </trkpt>
      <trkpt lat="48.84802" lon="2.40173">
        <ele>93</ele>
        <time>2012-12-18T20:35:22.000Z</time>
      </trkpt>
      <trkpt lat="48.84802" lon="2.40166">
        <ele>93</ele>
        <time>2012-12-18T20:35:23.000Z</time>
      </trkpt>
      <trkpt lat="48.84803" lon="2.40159">
        <ele>93</ele>
        <time>2012-12-18T20:35:24.000Z</time>
      </trkpt>
      <trkpt lat="48.84803" lon="2.40152">
        <ele>94</ele>
        <time>2012-12-18T20:35:25.000Z</time>
      </trkpt>
      <trkpt lat="48.84803" lon="2.40147">
        <ele>93</ele>
        <time>2012-12-18T20:35:26.000Z</time>
      </trkpt>
      <trkpt lat="48.84803" lon="2.40141">
        <ele>93</ele>
        <time>2012-12-18T20:35:27.000Z</time>
      </trkpt>
      <trkpt lat="48.84804" lon="2.40135">
        <ele>93</ele>
        <time>2012-12-18T20:35:28.000Z</time>
      </trkpt>
      <trkpt lat="48.84804" lon="2.4013">
        <ele>93</ele>
        <time>2012-12-18T20:35:29.000Z</time>
      </trkpt>
      <trkpt lat="48.84804" lon="2.40123">
        <ele>92</ele>
        <time>2012-12-18T20:35:30.000Z</time>
      </trkpt>
      <trkpt lat="48.84805" lon="2.40116">
        <ele>93</ele>
        <time>2012-12-18T20:35:31.000Z</time>
      </trkpt>
      <trkpt lat="48.84805" lon="2.4011">
        <ele>92</ele>
        <time>2012-12-18T20:35:32.000Z</time>
      </trkpt>
      <trkpt lat="48.84806" lon="2.40105">
        <ele>93</ele>
        <time>2012-12-18T20:35:33.000Z</time>
      </trkpt>
      <trkpt lat="48.84809" lon="2.40099">
        <ele>93</ele>
        <time>2012-12-18T20:35:34.000Z</time>
      </trkpt>
      <trkpt lat="48.8481" lon="2.40093">
        <ele>92</ele>
        <time>2012-12-18T20:35:35.000Z</time>
      </trkpt>
      <trkpt lat="48.84811" lon="2.40087">
        <ele>92</ele>
        <time>2012-12-18T20:35:36.000Z</time>
      </trkpt>
      <trkpt lat="48.84811" lon="2.40083">
        <ele>92</ele>
        <time>2012-12-18T20:35:37.000Z</time>
      </trkpt>
      <trkpt lat="48.84812" lon="2.40076">
        <ele>93</ele>
        <time>2012-12-18T20:35:38.000Z</time>
      </trkpt>
      <trkpt lat="48.84811" lon="2.4007">
        <ele>93</ele>
        <time>2012-12-18T20:35:39.000Z</time>
      </trkpt>
      <trkpt lat="48.8481" lon="2.40063">
        <ele>94</ele>
        <time>2012-12-18T20:35:40.000Z</time>
      </trkpt>
      <trkpt lat="48.84811" lon="2.40057">
        <ele>94</ele>
        <time>2012-12-18T20:35:41.000Z</time>
      </trkpt>
      <trkpt lat="48.84811" lon="2.40051">
        <ele>95</ele>
        <time>2012-12-18T20:35:42.000Z</time>
      </trkpt>
      <trkpt lat="48.84811" lon="2.40048">
        <ele>95</ele>
        <time>2012-12-18T20:35:43.000Z</time>
      </trkpt>
      <trkpt lat="48.8481" lon="2.40043">
        <ele>95</ele>
        <time>2012-12-18T20:35:44.000Z</time>
      </trkpt>
      <trkpt lat="48.84811" lon="2.40038">
        <ele>95</ele>
        <time>2012-12-18T20:35:45.000Z</time>
      </trkpt>
      <trkpt lat="48.84812" lon="2.40034">
        <ele>94</ele>
        <time>2012-12-18T20:35:46.000Z</time>
      </trkpt>
      <trkpt lat="48.84813" lon="2.40028">
        <ele>94</ele>
        <time>2012-12-18T20:35:47.000Z</time>
      </trkpt>
      <trkpt lat="48.84814" lon="2.40023">
        <ele>93</ele>
        <time>2012-12-18T20:35:48.000Z</time>
      </trkpt>
      <trkpt lat="48.84814" lon="2.40018">
        <ele>93</ele>
        <time>2012-12-18T20:35:49.000Z</time>
      </trkpt>
      <trkpt lat="48.84814" lon="2.40012">
        <ele>93</ele>
        <time>2012-12-18T20:35:50.000Z</time>
      </trkpt>
      <trkpt lat="48.84814" lon="2.40007">
        <ele>93</ele>
        <time>2012-12-18T20:35:51.000Z</time>
      </trkpt>
      <trkpt lat="48.84816" lon="2.40001">
        <ele>92</ele>
        <time>2012-12-18T20:35:52.000Z</time>
      </trkpt>
      <trkpt lat="48.84817" lon="2.39997">
        <ele>92</ele>
        <time>2012-12-18T20:35:53.000Z</time>
      </trkpt>
      <trkpt lat="48.84815" lon="2.39992">
        <ele>92</ele>
        <time>2012-12-18T20:35:54.000Z</time>
      </trkpt>
      <trkpt lat="48.84818" lon="2.39986">
        <ele>91</ele>
        <time>2012-12-18T20:35:55.000Z</time>
      </trkpt>
      <trkpt lat="48.84815" lon="2.39978">
        <ele>93</ele>
        <time>2012-12-18T20:35:56.000Z</time>
      </trkpt>
      <trkpt lat="48.84816" lon="2.39973">
        <ele>93</ele>
        <time>2012-12-18T20:35:57.000Z</time>
      </trkpt>
      <trkpt lat="48.84817" lon="2.39969">
        <ele>93</ele>
        <time>2012-12-18T20:35:58.000Z</time>
      </trkpt>
      <trkpt lat="48.84817" lon="2.39964">
        <ele>93</ele>
        <time>2012-12-18T20:35:59.000Z</time>
      </trkpt>
      <trkpt lat="48.84816" lon="2.39961">
        <ele>92</ele>
        <time>2012-12-18T20:36:00.000Z</time>
      </trkpt>
      <trkpt lat="48.84817" lon="2.39957">
        <ele>92</ele>
        <time>2012-12-18T20:36:01.000Z</time>
      </trkpt>
      <trkpt lat="48.84817" lon="2.39954">
        <ele>92</ele>
        <time>2012-12-18T20:36:02.000Z</time>
      </trkpt>
      <trkpt lat="48.84818" lon="2.39947">
        <ele>93</ele>
        <time>2012-12-18T20:36:04.000Z</time>
      </trkpt>
      <trkpt lat="48.84818" lon="2.39945">
        <ele>92</ele>
        <time>2012-12-18T20:36:05.000Z</time>
      </trkpt>
      <trkpt lat="48.8482" lon="2.39939">
        <ele>91</ele>
        <time>2012-12-18T20:36:07.000Z</time>
      </trkpt>
      <trkpt lat="48.8482" lon="2.39935">
        <ele>91</ele>
        <time>2012-12-18T20:36:08.000Z</time>
      </trkpt>
      <trkpt lat="48.84824" lon="2.39934">
        <ele>93</ele>
        <time>2012-12-18T20:36:15.000Z</time>
      </trkpt>
      <trkpt lat="48.84824" lon="2.39933">
        <ele>93</ele>
        <time>2012-12-18T20:36:16.000Z</time>
      </trkpt>
      <trkpt lat="48.84824" lon="2.39928">
        <ele>100</ele>
        <time>2012-12-18T20:36:20.000Z</time>
      </trkpt>
      <trkpt lat="48.84824" lon="2.39926">
        <ele>101</ele>
        <time>2012-12-18T20:36:21.000Z</time>
      </trkpt>
      <trkpt lat="48.84828" lon="2.39923">
        <ele>104</ele>
        <time>2012-12-18T20:36:27.000Z</time>
      </trkpt>
      <trkpt lat="48.84828" lon="2.39923">
        <ele>104</ele>
        <time>2012-12-18T20:36:28.000Z</time>
      </trkpt>
      <trkpt lat="48.84832" lon="2.3992">
        <ele>105</ele>
        <time>2012-12-18T20:36:33.000Z</time>
      </trkpt>
      <trkpt lat="48.84834" lon="2.3992">
        <ele>105</ele>
        <time>2012-12-18T20:36:34.000Z</time>
      </trkpt>
      <trkpt lat="48.84832" lon="2.39914">
        <ele>105</ele>
        <time>2012-12-18T20:36:38.000Z</time>
      </trkpt>
      <trkpt lat="48.8483" lon="2.39909">
        <ele>105</ele>
        <time>2012-12-18T20:36:39.000Z</time>
      </trkpt>
      <trkpt lat="48.8483" lon="2.39903">
        <ele>103</ele>
        <time>2012-12-18T20:36:42.000Z</time>
      </trkpt>
      <trkpt lat="48.84828" lon="2.39901">
        <ele>103</ele>
        <time>2012-12-18T20:36:43.000Z</time>
      </trkpt>
      <trkpt lat="48.84825" lon="2.39897">
        <ele>101</ele>
        <time>2012-12-18T20:36:45.000Z</time>
      </trkpt>
      <trkpt lat="48.84824" lon="2.39895">
        <ele>100</ele>
        <time>2012-12-18T20:36:46.000Z</time>
      </trkpt>
      <trkpt lat="48.84824" lon="2.39889">
        <ele>99</ele>
        <time>2012-12-18T20:36:48.000Z</time>
      </trkpt>
      <trkpt lat="48.84822" lon="2.39886">
        <ele>98</ele>
        <time>2012-12-18T20:36:49.000Z</time>
      </trkpt>
      <trkpt lat="48.84822" lon="2.39881">
        <ele>97</ele>
        <time>2012-12-18T20:36:51.000Z</time>
      </trkpt>
      <trkpt lat="48.84824" lon="2.39877">
        <ele>97</ele>
        <time>2012-12-18T20:36:52.000Z</time>
      </trkpt>
      <trkpt lat="48.84826" lon="2.39872">
        <ele>97</ele>
        <time>2012-12-18T20:36:53.000Z</time>
      </trkpt>
      <trkpt lat="48.84827" lon="2.39869">
        <ele>96</ele>
        <time>2012-12-18T20:36:54.000Z</time>
      </trkpt>
      <trkpt lat="48.84829" lon="2.39866">
        <ele>97</ele>
        <time>2012-12-18T20:36:55.000Z</time>
      </trkpt>
      <trkpt lat="48.8483" lon="2.39863">
        <ele>96</ele>
        <time>2012-12-18T20:36:56.000Z</time>
      </trkpt>
      <trkpt lat="48.84833" lon="2.3986">
        <ele>96</ele>
        <time>2012-12-18T20:36:57.000Z</time>
      </trkpt>
      <trkpt lat="48.84834" lon="2.39858">
        <ele>96</ele>
        <time>2012-12-18T20:36:58.000Z</time>
      </trkpt>
      <trkpt lat="48.84836" lon="2.39854">
        <ele>97</ele>
        <time>2012-12-18T20:36:59.000Z</time>
      </trkpt>
      <trkpt lat="48.84839" lon="2.39852">
        <ele>96</ele>
        <time>2012-12-18T20:37:00.000Z</time>
      </trkpt>
      <trkpt lat="48.8484" lon="2.3985">
        <ele>96</ele>
        <time>2012-12-18T20:37:01.000Z</time>
      </trkpt>
      <trkpt lat="48.8484" lon="2.39845">
        <ele>95</ele>
        <time>2012-12-18T20:37:02.000Z</time>
      </trkpt>
      <trkpt lat="48.84841" lon="2.39842">
        <ele>94</ele>
        <time>2012-12-18T20:37:03.000Z</time>
      </trkpt>
      <trkpt lat="48.84842" lon="2.39838">
        <ele>93</ele>
        <time>2012-12-18T20:37:04.000Z</time>
      </trkpt>
      <trkpt lat="48.84842" lon="2.39833">
        <ele>93</ele>
        <time>2012-12-18T20:37:05.000Z</time>
      </trkpt>
      <trkpt lat="48.84843" lon="2.39829">
        <ele>93</ele>
        <time>2012-12-18T20:37:06.000Z</time>
      </trkpt>
      <trkpt lat="48.84841" lon="2.39823">
        <ele>92</ele>
        <time>2012-12-18T20:37:07.000Z</time>
      </trkpt>
      <trkpt lat="48.84841" lon="2.39819">
        <ele>92</ele>
        <time>2012-12-18T20:37:08.000Z</time>
      </trkpt>
      <trkpt lat="48.84842" lon="2.39815">
        <ele>92</ele>
        <time>2012-12-18T20:37:09.000Z</time>
      </trkpt>
      <trkpt lat="48.84842" lon="2.39811">
        <ele>91</ele>
        <time>2012-12-18T20:37:10.000Z</time>
      </trkpt>
      <trkpt lat="48.84842" lon="2.39805">
        <ele>91</ele>
        <time>2012-12-18T20:37:11.000Z</time>
      </trkpt>
      <trkpt lat="48.84843" lon="2.39799">
        <ele>91</ele>
        <time>2012-12-18T20:37:12.000Z</time>
      </trkpt>
      <trkpt lat="48.84844" lon="2.39793">
        <ele>91</ele>
        <time>2012-12-18T20:37:13.000Z</time>
      </trkpt>
      <trkpt lat="48.84844" lon="2.39787">
        <ele>91</ele>
        <time>2012-12-18T20:37:14.000Z</time>
      </trkpt>
      <trkpt lat="48.84845" lon="2.39781">
        <ele>91</ele>
        <time>2012-12-18T20:37:16.000Z</time>
      </trkpt>
      <trkpt lat="48.84847" lon="2.39778">
        <ele>91</ele>
        <time>2012-12-18T20:37:17.000Z</time>
      </trkpt>
      <trkpt lat="48.84847" lon="2.39774">
        <ele>91</ele>
        <time>2012-12-18T20:37:18.000Z</time>
      </trkpt>
      <trkpt lat="48.84847" lon="2.39769">
        <ele>91</ele>
        <time>2012-12-18T20:37:19.000Z</time>
      </trkpt>
      <trkpt lat="48.84848" lon="2.39766">
        <ele>90</ele>
        <time>2012-12-18T20:37:20.000Z</time>
      </trkpt>
      <trkpt lat="48.84848" lon="2.39762">
        <ele>90</ele>
        <time>2012-12-18T20:37:21.000Z</time>
      </trkpt>
      <trkpt lat="48.84849" lon="2.39759">
        <ele>89</ele>
        <time>2012-12-18T20:37:22.000Z</time>
      </trkpt>
      <trkpt lat="48.84851" lon="2.39756">
        <ele>89</ele>
        <time>2012-12-18T20:37:23.000Z</time>
      </trkpt>
      <trkpt lat="48.84852" lon="2.39754">
        <ele>89</ele>
        <time>2012-12-18T20:37:24.000Z</time>
      </trkpt>
      <trkpt lat="48.84855" lon="2.39751">
        <ele>88</ele>
        <time>2012-12-18T20:37:25.000Z</time>
      </trkpt>
      <trkpt lat="48.84857" lon="2.39749">
        <ele>88</ele>
        <time>2012-12-18T20:37:26.000Z</time>
      </trkpt>
      <trkpt lat="48.84861" lon="2.39749">
        <ele>88</ele>
        <time>2012-12-18T20:37:27.000Z</time>
      </trkpt>
      <trkpt lat="48.84862" lon="2.39747">
        <ele>88</ele>
        <time>2012-12-18T20:37:28.000Z</time>
      </trkpt>
      <trkpt lat="48.84864" lon="2.39744">
        <ele>89</ele>
        <time>2012-12-18T20:37:29.000Z</time>
      </trkpt>
      <trkpt lat="48.84867" lon="2.39742">
        <ele>89</ele>
        <time>2012-12-18T20:37:30.000Z</time>
      </trkpt>
      <trkpt lat="48.8487" lon="2.3974">
        <ele>89</ele>
        <time>2012-12-18T20:37:31.000Z</time>
      </trkpt>
      <trkpt lat="48.84875" lon="2.39737">
        <ele>89</ele>
        <time>2012-12-18T20:37:32.000Z</time>
      </trkpt>
      <trkpt lat="48.84881" lon="2.39736">
        <ele>89</ele>
        <time>2012-12-18T20:37:33.000Z</time>
      </trkpt>
      <trkpt lat="48.84885" lon="2.39729">
        <ele>90</ele>
        <time>2012-12-18T20:37:34.000Z</time>
      </trkpt>
      <trkpt lat="48.8489" lon="2.39724">
        <ele>91</ele>
        <time>2012-12-18T20:37:35.000Z</time>
      </trkpt>
      <trkpt lat="48.84894" lon="2.39721">
        <ele>91</ele>
        <time>2012-12-18T20:37:36.000Z</time>
      </trkpt>
      <trkpt lat="48.84896" lon="2.39719">
        <ele>90</ele>
        <time>2012-12-18T20:37:37.000Z</time>
      </trkpt>
      <trkpt lat="48.849" lon="2.39717">
        <ele>90</ele>
        <time>2012-12-18T20:37:38.000Z</time>
      </trkpt>
      <trkpt lat="48.84902" lon="2.39713">
        <ele>91</ele>
        <time>2012-12-18T20:37:39.000Z</time>
      </trkpt>
      <trkpt lat="48.84906" lon="2.39712">
        <ele>90</ele>
        <time>2012-12-18T20:37:40.000Z</time>
      </trkpt>
      <trkpt lat="48.84909" lon="2.3971">
        <ele>90</ele>
        <time>2012-12-18T20:37:41.000Z</time>
      </trkpt>
      <trkpt lat="48.84911" lon="2.39708">
        <ele>90</ele>
        <time>2012-12-18T20:37:42.000Z</time>
      </trkpt>
      <trkpt lat="48.84913" lon="2.39705">
        <ele>90</ele>
        <time>2012-12-18T20:37:43.000Z</time>
      </trkpt>
      <trkpt lat="48.84915" lon="2.39702">
        <ele>90</ele>
        <time>2012-12-18T20:37:44.000Z</time>
      </trkpt>
      <trkpt lat="48.84916" lon="2.39698">
        <ele>90</ele>
        <time>2012-12-18T20:37:45.000Z</time>
      </trkpt>
      <trkpt lat="48.8492" lon="2.39694">
        <ele>91</ele>
        <time>2012-12-18T20:37:46.000Z</time>
      </trkpt>
      <trkpt lat="48.84922" lon="2.39691">
        <ele>90</ele>
        <time>2012-12-18T20:37:47.000Z</time>
      </trkpt>
      <trkpt lat="48.84924" lon="2.39686">
        <ele>90</ele>
        <time>2012-12-18T20:37:48.000Z</time>
      </trkpt>
      <trkpt lat="48.84928" lon="2.39681">
        <ele>90</ele>
        <time>2012-12-18T20:37:49.000Z</time>
      </trkpt>
      <trkpt lat="48.8493" lon="2.39676">
        <ele>90</ele>
        <time>2012-12-18T20:37:50.000Z</time>
      </trkpt>
      <trkpt lat="48.84932" lon="2.39673">
        <ele>90</ele>
        <time>2012-12-18T20:37:51.000Z</time>
      </trkpt>
      <trkpt lat="48.84934" lon="2.39669">
        <ele>90</ele>
        <time>2012-12-18T20:37:52.000Z</time>
      </trkpt>
      <trkpt lat="48.84936" lon="2.39663">
        <ele>89</ele>
        <time>2012-12-18T20:37:53.000Z</time>
      </trkpt>
      <trkpt lat="48.84938" lon="2.39659">
        <ele>89</ele>
        <time>2012-12-18T20:37:54.000Z</time>
      </trkpt>
      <trkpt lat="48.84938" lon="2.39654">
        <ele>89</ele>
        <time>2012-12-18T20:37:55.000Z</time>
      </trkpt>
      <trkpt lat="48.84939" lon="2.39646">
        <ele>89</ele>
        <time>2012-12-18T20:37:56.000Z</time>
      </trkpt>
      <trkpt lat="48.84941" lon="2.3964">
        <ele>90</ele>
        <time>2012-12-18T20:37:57.000Z</time>
      </trkpt>
      <trkpt lat="48.84942" lon="2.39633">
        <ele>89</ele>
        <time>2012-12-18T20:37:58.000Z</time>
      </trkpt>
      <trkpt lat="48.84944" lon="2.39628">
        <ele>89</ele>
        <time>2012-12-18T20:37:59.000Z</time>
      </trkpt>
      <trkpt lat="48.84945" lon="2.39624">
        <ele>88</ele>
        <time>2012-12-18T20:38:00.000Z</time>
      </trkpt>
      <trkpt lat="48.84945" lon="2.39618">
        <ele>88</ele>
        <time>2012-12-18T20:38:01.000Z</time>
      </trkpt>
      <trkpt lat="48.84946" lon="2.39614">
        <ele>87</ele>
        <time>2012-12-18T20:38:02.000Z</time>
      </trkpt>
      <trkpt lat="48.84946" lon="2.39609">
        <ele>87</ele>
        <time>2012-12-18T20:38:03.000Z</time>
      </trkpt>
      <trkpt lat="48.84945" lon="2.39606">
        <ele>87</ele>
        <time>2012-12-18T20:38:04.000Z</time>
      </trkpt>
      <trkpt lat="48.84945" lon="2.39602">
        <ele>87</ele>
        <time>2012-12-18T20:38:05.000Z</time>
      </trkpt>
      <trkpt lat="48.84946" lon="2.39597">
        <ele>87</ele>
        <time>2012-12-18T20:38:06.000Z</time>
      </trkpt>
      <trkpt lat="48.84946" lon="2.39593">
        <ele>87</ele>
        <time>2012-12-18T20:38:07.000Z</time>
      </trkpt>
      <trkpt lat="48.84946" lon="2.39587">
        <ele>87</ele>
        <time>2012-12-18T20:38:08.000Z</time>
      </trkpt>
      <trkpt lat="48.84945" lon="2.39581">
        <ele>87</ele>
        <time>2012-12-18T20:38:09.000Z</time>
      </trkpt>
      <trkpt lat="48.84943" lon="2.39575">
        <ele>88</ele>
        <time>2012-12-18T20:38:10.000Z</time>
      </trkpt>
      <trkpt lat="48.84942" lon="2.39571">
        <ele>88</ele>
        <time>2012-12-18T20:38:11.000Z</time>
      </trkpt>
      <trkpt lat="48.84942" lon="2.39566">
        <ele>89</ele>
        <time>2012-12-18T20:38:12.000Z</time>
      </trkpt>
      <trkpt lat="48.84943" lon="2.39561">
        <ele>90</ele>
        <time>2012-12-18T20:38:13.000Z</time>
      </trkpt>
      <trkpt lat="48.84943" lon="2.39558">
        <ele>90</ele>
        <time>2012-12-18T20:38:14.000Z</time>
      </trkpt>
      <trkpt lat="48.84943" lon="2.39556">
        <ele>89</ele>
        <time>2012-12-18T20:38:15.000Z</time>
      </trkpt>
      <trkpt lat="48.84943" lon="2.39551">
        <ele>89</ele>
        <time>2012-12-18T20:38:16.000Z</time>
      </trkpt>
      <trkpt lat="48.84943" lon="2.39549">
        <ele>89</ele>
        <time>2012-12-18T20:38:17.000Z</time>
      </trkpt>
      <trkpt lat="48.84942" lon="2.39544">
        <ele>88</ele>
        <time>2012-12-18T20:38:18.000Z</time>
      </trkpt>
      <trkpt lat="48.84941" lon="2.39537">
        <ele>88</ele>
        <time>2012-12-18T20:38:20.000Z</time>
      </trkpt>
      <trkpt lat="48.84941" lon="2.39534">
        <ele>87</ele>
        <time>2012-12-18T20:38:21.000Z</time>
      </trkpt>
      <trkpt lat="48.8494" lon="2.3953">
        <ele>87</ele>
        <time>2012-12-18T20:38:22.000Z</time>
      </trkpt>
      <trkpt lat="48.84939" lon="2.39524">
        <ele>87</ele>
        <time>2012-12-18T20:38:23.000Z</time>
      </trkpt>
      <trkpt lat="48.84939" lon="2.3952">
        <ele>86</ele>
        <time>2012-12-18T20:38:24.000Z</time>
      </trkpt>
      <trkpt lat="48.84937" lon="2.39516">
        <ele>86</ele>
        <time>2012-12-18T20:38:25.000Z</time>
      </trkpt>
      <trkpt lat="48.84936" lon="2.39512">
        <ele>87</ele>
        <time>2012-12-18T20:38:26.000Z</time>
      </trkpt>
      <trkpt lat="48.84935" lon="2.39508">
        <ele>87</ele>
        <time>2012-12-18T20:38:27.000Z</time>
      </trkpt>
      <trkpt lat="48.84932" lon="2.39505">
        <ele>87</ele>
        <time>2012-12-18T20:38:29.000Z</time>
      </trkpt>
      <trkpt lat="48.84931" lon="2.39504">
        <ele>88</ele>
        <time>2012-12-18T20:38:30.000Z</time>
      </trkpt>
      <trkpt lat="48.84927" lon="2.39502">
        <ele>88</ele>
        <time>2012-12-18T20:38:32.000Z</time>
      </trkpt>
      <trkpt lat="48.84925" lon="2.39499">
        <ele>88</ele>
        <time>2012-12-18T20:38:33.000Z</time>
      </trkpt>
      <trkpt lat="48.84925" lon="2.39496">
        <ele>88</ele>
        <time>2012-12-18T20:38:34.000Z</time>
      </trkpt>
      <trkpt lat="48.84924" lon="2.39492">
        <ele>89</ele>
        <time>2012-12-18T20:38:35.000Z</time>
      </trkpt>
      <trkpt lat="48.84923" lon="2.39489">
        <ele>90</ele>
        <time>2012-12-18T20:38:36.000Z</time>
      </trkpt>
      <trkpt lat="48.84921" lon="2.39486">
        <ele>90</ele>
        <time>2012-12-18T20:38:37.000Z</time>
      </trkpt>
      <trkpt lat="48.8492" lon="2.39484">
        <ele>90</ele>
        <time>2012-12-18T20:38:38.000Z</time>
      </trkpt>
      <trkpt lat="48.84918" lon="2.39479">
        <ele>90</ele>
        <time>2012-12-18T20:38:39.000Z</time>
      </trkpt>
      <trkpt lat="48.84916" lon="2.39477">
        <ele>90</ele>
        <time>2012-12-18T20:38:40.000Z</time>
      </trkpt>
      <trkpt lat="48.84914" lon="2.39474">
        <ele>91</ele>
        <time>2012-12-18T20:38:41.000Z</time>
      </trkpt>
      <trkpt lat="48.84912" lon="2.3947">
        <ele>92</ele>
        <time>2012-12-18T20:38:42.000Z</time>
      </trkpt>
      <trkpt lat="48.84909" lon="2.39468">
        <ele>92</ele>
        <time>2012-12-18T20:38:43.000Z</time>
      </trkpt>
      <trkpt lat="48.84907" lon="2.39465">
        <ele>92</ele>
        <time>2012-12-18T20:38:44.000Z</time>
      </trkpt>
      <trkpt lat="48.84903" lon="2.39461">
        <ele>93</ele>
        <time>2012-12-18T20:38:45.000Z</time>
      </trkpt>
      <trkpt lat="48.84901" lon="2.39458">
        <ele>93</ele>
        <time>2012-12-18T20:38:46.000Z</time>
      </trkpt>
      <trkpt lat="48.849" lon="2.39455">
        <ele>93</ele>
        <time>2012-12-18T20:38:47.000Z</time>
      </trkpt>
      <trkpt lat="48.84896" lon="2.39452">
        <ele>94</ele>
        <time>2012-12-18T20:38:48.000Z</time>
      </trkpt>
      <trkpt lat="48.84893" lon="2.39449">
        <ele>94</ele>
        <time>2012-12-18T20:38:49.000Z</time>
      </trkpt>
      <trkpt lat="48.84891" lon="2.39446">
        <ele>95</ele>
        <time>2012-12-18T20:38:50.000Z</time>
      </trkpt>
      <trkpt lat="48.84887" lon="2.39443">
        <ele>95</ele>
        <time>2012-12-18T20:38:51.000Z</time>
      </trkpt>
      <trkpt lat="48.84885" lon="2.39441">
        <ele>95</ele>
        <time>2012-12-18T20:38:52.000Z</time>
      </trkpt>
      <trkpt lat="48.84882" lon="2.39439">
        <ele>95</ele>
        <time>2012-12-18T20:38:53.000Z</time>
      </trkpt>
      <trkpt lat="48.84879" lon="2.39438">
        <ele>96</ele>
        <time>2012-12-18T20:38:54.000Z</time>
      </trkpt>
      <trkpt lat="48.84877" lon="2.39438">
        <ele>96</ele>
        <time>2012-12-18T20:38:55.000Z</time>
      </trkpt>
      <trkpt lat="48.84874" lon="2.39437">
        <ele>97</ele>
        <time>2012-12-18T20:38:56.000Z</time>
      </trkpt>
      <trkpt lat="48.84875" lon="2.3943">
        <ele>95</ele>
        <time>2012-12-18T20:38:57.000Z</time>
      </trkpt>
      <trkpt lat="48.84872" lon="2.39425">
        <ele>95</ele>
        <time>2012-12-18T20:39:00.000Z</time>
      </trkpt>
      <trkpt lat="48.84871" lon="2.39422">
        <ele>96</ele>
        <time>2012-12-18T20:39:01.000Z</time>
      </trkpt>
      <trkpt lat="48.84873" lon="2.39415">
        <ele>95</ele>
        <time>2012-12-18T20:39:02.000Z</time>
      </trkpt>
      <trkpt lat="48.84874" lon="2.39408">
        <ele>94</ele>
        <time>2012-12-18T20:39:03.000Z</time>
      </trkpt>
      <trkpt lat="48.84876" lon="2.39404">
        <ele>95</ele>
        <time>2012-12-18T20:39:04.000Z</time>
      </trkpt>
      <trkpt lat="48.84876" lon="2.394">
        <ele>95</ele>
        <time>2012-12-18T20:39:05.000Z</time>
      </trkpt>
      <trkpt lat="48.84877" lon="2.39395">
        <ele>95</ele>
        <time>2012-12-18T20:39:06.000Z</time>
      </trkpt>
      <trkpt lat="48.84877" lon="2.3939">
        <ele>95</ele>
        <time>2012-12-18T20:39:07.000Z</time>
      </trkpt>
      <trkpt lat="48.84878" lon="2.39385">
        <ele>96</ele>
        <time>2012-12-18T20:39:08.000Z</time>
      </trkpt>
      <trkpt lat="48.84879" lon="2.39378">
        <ele>95</ele>
        <time>2012-12-18T20:39:09.000Z</time>
      </trkpt>
      <trkpt lat="48.84879" lon="2.39371">
        <ele>95</ele>
        <time>2012-12-18T20:39:10.000Z</time>
      </trkpt>
      <trkpt lat="48.84881" lon="2.39364">
        <ele>95</ele>
        <time>2012-12-18T20:39:11.000Z</time>
      </trkpt>
      <trkpt lat="48.84881" lon="2.39359">
        <ele>95</ele>
        <time>2012-12-18T20:39:12.000Z</time>
      </trkpt>
      <trkpt lat="48.84882" lon="2.39352">
        <ele>95</ele>
        <time>2012-12-18T20:39:13.000Z</time>
      </trkpt>
      <trkpt lat="48.84883" lon="2.39347">
        <ele>95</ele>
        <time>2012-12-18T20:39:14.000Z</time>
      </trkpt>
      <trkpt lat="48.84884" lon="2.3934">
        <ele>95</ele>
        <time>2012-12-18T20:39:15.000Z</time>
      </trkpt>
      <trkpt lat="48.84886" lon="2.39334">
        <ele>95</ele>
        <time>2012-12-18T20:39:16.000Z</time>
      </trkpt>
      <trkpt lat="48.84887" lon="2.39327">
        <ele>95</ele>
        <time>2012-12-18T20:39:17.000Z</time>
      </trkpt>
      <trkpt lat="48.84887" lon="2.39318">
        <ele>95</ele>
        <time>2012-12-18T20:39:18.000Z</time>
      </trkpt>
      <trkpt lat="48.84887" lon="2.39305">
        <ele>94</ele>
        <time>2012-12-18T20:39:19.000Z</time>
      </trkpt>
      <trkpt lat="48.84886" lon="2.39292">
        <ele>94</ele>
        <time>2012-12-18T20:39:20.000Z</time>
      </trkpt>
      <trkpt lat="48.84887" lon="2.3928">
        <ele>94</ele>
        <time>2012-12-18T20:39:21.000Z</time>
      </trkpt>
      <trkpt lat="48.8489" lon="2.39274">
        <ele>94</ele>
        <time>2012-12-18T20:39:22.000Z</time>
      </trkpt>
      <trkpt lat="48.84891" lon="2.39266">
        <ele>94</ele>
        <time>2012-12-18T20:39:23.000Z</time>
      </trkpt>
      <trkpt lat="48.84891" lon="2.39257">
        <ele>93</ele>
        <time>2012-12-18T20:39:24.000Z</time>
      </trkpt>
      <trkpt lat="48.84892" lon="2.39251">
        <ele>93</ele>
        <time>2012-12-18T20:39:25.000Z</time>
      </trkpt>
      <trkpt lat="48.84892" lon="2.39243">
        <ele>93</ele>
        <time>2012-12-18T20:39:26.000Z</time>
      </trkpt>
      <trkpt lat="48.84893" lon="2.39235">
        <ele>92</ele>
        <time>2012-12-18T20:39:27.000Z</time>
      </trkpt>
      <trkpt lat="48.84893" lon="2.39227">
        <ele>92</ele>
        <time>2012-12-18T20:39:28.000Z</time>
      </trkpt>
      <trkpt lat="48.84896" lon="2.39221">
        <ele>93</ele>
        <time>2012-12-18T20:39:29.000Z</time>
      </trkpt>
      <trkpt lat="48.84893" lon="2.39217">
        <ele>92</ele>
        <time>2012-12-18T20:39:30.000Z</time>
      </trkpt>
      <trkpt lat="48.84895" lon="2.39211">
        <ele>92</ele>
        <time>2012-12-18T20:39:31.000Z</time>
      </trkpt>
      <trkpt lat="48.84895" lon="2.39205">
        <ele>91</ele>
        <time>2012-12-18T20:39:32.000Z</time>
      </trkpt>
      <trkpt lat="48.84893" lon="2.39197">
        <ele>90</ele>
        <time>2012-12-18T20:39:33.000Z</time>
      </trkpt>
      <trkpt lat="48.84894" lon="2.3919">
        <ele>89</ele>
        <time>2012-12-18T20:39:34.000Z</time>
      </trkpt>
      <trkpt lat="48.84894" lon="2.39184">
        <ele>89</ele>
        <time>2012-12-18T20:39:35.000Z</time>
      </trkpt>
      <trkpt lat="48.84896" lon="2.39177">
        <ele>89</ele>
        <time>2012-12-18T20:39:36.000Z</time>
      </trkpt>
      <trkpt lat="48.84897" lon="2.39168">
        <ele>89</ele>
        <time>2012-12-18T20:39:37.000Z</time>
      </trkpt>
      <trkpt lat="48.84898" lon="2.39162">
        <ele>88</ele>
        <time>2012-12-18T20:39:38.000Z</time>
      </trkpt>
      <trkpt lat="48.84899" lon="2.39157">
        <ele>88</ele>
        <time>2012-12-18T20:39:39.000Z</time>
      </trkpt>
      <trkpt lat="48.849" lon="2.39151">
        <ele>88</ele>
        <time>2012-12-18T20:39:40.000Z</time>
      </trkpt>
      <trkpt lat="48.84901" lon="2.39144">
        <ele>88</ele>
        <time>2012-12-18T20:39:41.000Z</time>
      </trkpt>
      <trkpt lat="48.84902" lon="2.39134">
        <ele>88</ele>
        <time>2012-12-18T20:39:42.000Z</time>
      </trkpt>
      <trkpt lat="48.84903" lon="2.39128">
        <ele>87</ele>
        <time>2012-12-18T20:39:43.000Z</time>
      </trkpt>
      <trkpt lat="48.84905" lon="2.39122">
        <ele>87</ele>
        <time>2012-12-18T20:39:44.000Z</time>
      </trkpt>
      <trkpt lat="48.84906" lon="2.39116">
        <ele>87</ele>
        <time>2012-12-18T20:39:45.000Z</time>
      </trkpt>
      <trkpt lat="48.84907" lon="2.39109">
        <ele>86</ele>
        <time>2012-12-18T20:39:46.000Z</time>
      </trkpt>
      <trkpt lat="48.84909" lon="2.39103">
        <ele>86</ele>
        <time>2012-12-18T20:39:47.000Z</time>
      </trkpt>
      <trkpt lat="48.8491" lon="2.39097">
        <ele>86</ele>
        <time>2012-12-18T20:39:48.000Z</time>
      </trkpt>
      <trkpt lat="48.84912" lon="2.39091">
        <ele>86</ele>
        <time>2012-12-18T20:39:49.000Z</time>
      </trkpt>
      <trkpt lat="48.84913" lon="2.39084">
        <ele>86</ele>
        <time>2012-12-18T20:39:50.000Z</time>
      </trkpt>
      <trkpt lat="48.84914" lon="2.39075">
        <ele>86</ele>
        <time>2012-12-18T20:39:51.000Z</time>
      </trkpt>
      <trkpt lat="48.84917" lon="2.3907">
        <ele>86</ele>
        <time>2012-12-18T20:39:52.000Z</time>
      </trkpt>
      <trkpt lat="48.84921" lon="2.39066">
        <ele>86</ele>
        <time>2012-12-18T20:39:53.000Z</time>
      </trkpt>
      <trkpt lat="48.84923" lon="2.39062">
        <ele>86</ele>
        <time>2012-12-18T20:39:54.000Z</time>
      </trkpt>
      <trkpt lat="48.84925" lon="2.39056">
        <ele>86</ele>
        <time>2012-12-18T20:39:55.000Z</time>
      </trkpt>
      <trkpt lat="48.84926" lon="2.39051">
        <ele>87</ele>
        <time>2012-12-18T20:39:56.000Z</time>
      </trkpt>
      <trkpt lat="48.84928" lon="2.39047">
        <ele>87</ele>
        <time>2012-12-18T20:39:57.000Z</time>
      </trkpt>
      <trkpt lat="48.84928" lon="2.39042">
        <ele>87</ele>
        <time>2012-12-18T20:39:58.000Z</time>
      </trkpt>
      <trkpt lat="48.84928" lon="2.39034">
        <ele>87</ele>
        <time>2012-12-18T20:39:59.000Z</time>
      </trkpt>
      <trkpt lat="48.8493" lon="2.3903">
        <ele>87</ele>
        <time>2012-12-18T20:40:00.000Z</time>
      </trkpt>
      <trkpt lat="48.8493" lon="2.39024">
        <ele>88</ele>
        <time>2012-12-18T20:40:01.000Z</time>
      </trkpt>
      <trkpt lat="48.84932" lon="2.3902">
        <ele>88</ele>
        <time>2012-12-18T20:40:03.000Z</time>
      </trkpt>
      <trkpt lat="48.84932" lon="2.39016">
        <ele>87</ele>
        <time>2012-12-18T20:40:04.000Z</time>
      </trkpt>
      <trkpt lat="48.84933" lon="2.39011">
        <ele>88</ele>
        <time>2012-12-18T20:40:05.000Z</time>
      </trkpt>
      <trkpt lat="48.84935" lon="2.39006">
        <ele>87</ele>
        <time>2012-12-18T20:40:06.000Z</time>
      </trkpt>
      <trkpt lat="48.84936" lon="2.39001">
        <ele>87</ele>
        <time>2012-12-18T20:40:07.000Z</time>
      </trkpt>
      <trkpt lat="48.84936" lon="2.38997">
        <ele>87</ele>
        <time>2012-12-18T20:40:08.000Z</time>
      </trkpt>
      <trkpt lat="48.84937" lon="2.38993">
        <ele>87</ele>
        <time>2012-12-18T20:40:09.000Z</time>
      </trkpt>
      <trkpt lat="48.84938" lon="2.38987">
        <ele>87</ele>
        <time>2012-12-18T20:40:10.000Z</time>
      </trkpt>
      <trkpt lat="48.84939" lon="2.38983">
        <ele>87</ele>
        <time>2012-12-18T20:40:11.000Z</time>
      </trkpt>
      <trkpt lat="48.84942" lon="2.38978">
        <ele>86</ele>
        <time>2012-12-18T20:40:12.000Z</time>
      </trkpt>
      <trkpt lat="48.84943" lon="2.38975">
        <ele>86</ele>
        <time>2012-12-18T20:40:13.000Z</time>
      </trkpt>
      <trkpt lat="48.84945" lon="2.38969">
        <ele>86</ele>
        <time>2012-12-18T20:40:14.000Z</time>
      </trkpt>
      <trkpt lat="48.84947" lon="2.38963">
        <ele>86</ele>
        <time>2012-12-18T20:40:15.000Z</time>
      </trkpt>
      <trkpt lat="48.84946" lon="2.38958">
        <ele>86</ele>
        <time>2012-12-18T20:40:16.000Z</time>
      </trkpt>
      <trkpt lat="48.84947" lon="2.38954">
        <ele>86</ele>
        <time>2012-12-18T20:40:17.000Z</time>
      </trkpt>
      <trkpt lat="48.84948" lon="2.3895">
        <ele>86</ele>
        <time>2012-12-18T20:40:18.000Z</time>
      </trkpt>
      <trkpt lat="48.8495" lon="2.38948">
        <ele>86</ele>
        <time>2012-12-18T20:40:19.000Z</time>
      </trkpt>
      <trkpt lat="48.84952" lon="2.38943">
        <ele>85</ele>
        <time>2012-12-18T20:40:20.000Z</time>
      </trkpt>
      <trkpt lat="48.84954" lon="2.3894">
        <ele>85</ele>
        <time>2012-12-18T20:40:21.000Z</time>
      </trkpt>
      <trkpt lat="48.84957" lon="2.38936">
        <ele>86</ele>
        <time>2012-12-18T20:40:22.000Z</time>
      </trkpt>
      <trkpt lat="48.84958" lon="2.38927">
        <ele>86</ele>
        <time>2012-12-18T20:40:23.000Z</time>
      </trkpt>
      <trkpt lat="48.8496" lon="2.38925">
        <ele>86</ele>
        <time>2012-12-18T20:40:24.000Z</time>
      </trkpt>
      <trkpt lat="48.8496" lon="2.38919">
        <ele>86</ele>
        <time>2012-12-18T20:40:25.000Z</time>
      </trkpt>
      <trkpt lat="48.84959" lon="2.38913">
        <ele>86</ele>
        <time>2012-12-18T20:40:26.000Z</time>
      </trkpt>
      <trkpt lat="48.84959" lon="2.38904">
        <ele>87</ele>
        <time>2012-12-18T20:40:27.000Z</time>
      </trkpt>
      <trkpt lat="48.8496" lon="2.38898">
        <ele>86</ele>
        <time>2012-12-18T20:40:28.000Z</time>
      </trkpt>
      <trkpt lat="48.8496" lon="2.38893">
        <ele>87</ele>
        <time>2012-12-18T20:40:29.000Z</time>
      </trkpt>
      <trkpt lat="48.84961" lon="2.38887">
        <ele>86</ele>
        <time>2012-12-18T20:40:30.000Z</time>
      </trkpt>
      <trkpt lat="48.84962" lon="2.38881">
        <ele>87</ele>
        <time>2012-12-18T20:40:31.000Z</time>
      </trkpt>
      <trkpt lat="48.84962" lon="2.38876">
        <ele>87</ele>
        <time>2012-12-18T20:40:32.000Z</time>
      </trkpt>
      <trkpt lat="48.84962" lon="2.38871">
        <ele>87</ele>
        <time>2012-12-18T20:40:33.000Z</time>
      </trkpt>
      <trkpt lat="48.84964" lon="2.38865">
        <ele>88</ele>
        <time>2012-12-18T20:40:34.000Z</time>
      </trkpt>
      <trkpt lat="48.84964" lon="2.3886">
        <ele>88</ele>
        <time>2012-12-18T20:40:35.000Z</time>
      </trkpt>
      <trkpt lat="48.84965" lon="2.38856">
        <ele>88</ele>
        <time>2012-12-18T20:40:36.000Z</time>
      </trkpt>
      <trkpt lat="48.84965" lon="2.38851">
        <ele>87</ele>
        <time>2012-12-18T20:40:37.000Z</time>
      </trkpt>
      <trkpt lat="48.84966" lon="2.38846">
        <ele>87</ele>
        <time>2012-12-18T20:40:38.000Z</time>
      </trkpt>
      <trkpt lat="48.84968" lon="2.38841">
        <ele>87</ele>
        <time>2012-12-18T20:40:39.000Z</time>
      </trkpt>
      <trkpt lat="48.84968" lon="2.38835">
        <ele>87</ele>
        <time>2012-12-18T20:40:40.000Z</time>
      </trkpt>
      <trkpt lat="48.84969" lon="2.38829">
        <ele>88</ele>
        <time>2012-12-18T20:40:41.000Z</time>
      </trkpt>
      <trkpt lat="48.8497" lon="2.38822">
        <ele>88</ele>
        <time>2012-12-18T20:40:42.000Z</time>
      </trkpt>
      <trkpt lat="48.84969" lon="2.38815">
        <ele>89</ele>
        <time>2012-12-18T20:40:43.000Z</time>
      </trkpt>
      <trkpt lat="48.8497" lon="2.38809">
        <ele>89</ele>
        <time>2012-12-18T20:40:44.000Z</time>
      </trkpt>
      <trkpt lat="48.84972" lon="2.38806">
        <ele>88</ele>
        <time>2012-12-18T20:40:45.000Z</time>
      </trkpt>
      <trkpt lat="48.84975" lon="2.388">
        <ele>89</ele>
        <time>2012-12-18T20:40:46.000Z</time>
      </trkpt>
      <trkpt lat="48.84976" lon="2.38794">
        <ele>89</ele>
        <time>2012-12-18T20:40:47.000Z</time>
      </trkpt>
      <trkpt lat="48.84977" lon="2.38787">
        <ele>91</ele>
        <time>2012-12-18T20:40:48.000Z</time>
      </trkpt>
      <trkpt lat="48.8498" lon="2.38784">
        <ele>91</ele>
        <time>2012-12-18T20:40:49.000Z</time>
      </trkpt>
      <trkpt lat="48.8498" lon="2.38779">
        <ele>90</ele>
        <time>2012-12-18T20:40:50.000Z</time>
      </trkpt>
      <trkpt lat="48.84982" lon="2.38773">
        <ele>90</ele>
        <time>2012-12-18T20:40:51.000Z</time>
      </trkpt>
      <trkpt lat="48.84983" lon="2.38768">
        <ele>90</ele>
        <time>2012-12-18T20:40:52.000Z</time>
      </trkpt>
      <trkpt lat="48.84984" lon="2.38761">
        <ele>89</ele>
        <time>2012-12-18T20:40:53.000Z</time>
      </trkpt>
      <trkpt lat="48.84985" lon="2.38757">
        <ele>89</ele>
        <time>2012-12-18T20:40:54.000Z</time>
      </trkpt>
      <trkpt lat="48.84981" lon="2.38749">
        <ele>85</ele>
        <time>2012-12-18T20:40:55.000Z</time>
      </trkpt>
      <trkpt lat="48.84982" lon="2.38742">
        <ele>85</ele>
        <time>2012-12-18T20:40:56.000Z</time>
      </trkpt>
      <trkpt lat="48.84982" lon="2.38736">
        <ele>85</ele>
        <time>2012-12-18T20:40:57.000Z</time>
      </trkpt>
      <trkpt lat="48.84982" lon="2.38731">
        <ele>85</ele>
        <time>2012-12-18T20:40:58.000Z</time>
      </trkpt>
      <trkpt lat="48.84983" lon="2.38723">
        <ele>85</ele>
        <time>2012-12-18T20:40:59.000Z</time>
      </trkpt>
      <trkpt lat="48.84982" lon="2.38717">
        <ele>85</ele>
        <time>2012-12-18T20:41:00.000Z</time>
      </trkpt>
      <trkpt lat="48.84983" lon="2.38711">
        <ele>85</ele>
        <time>2012-12-18T20:41:01.000Z</time>
      </trkpt>
      <trkpt lat="48.84985" lon="2.38705">
        <ele>85</ele>
        <time>2012-12-18T20:41:02.000Z</time>
      </trkpt>
      <trkpt lat="48.84986" lon="2.38697">
        <ele>85</ele>
        <time>2012-12-18T20:41:03.000Z</time>
      </trkpt>
      <trkpt lat="48.84987" lon="2.38691">
        <ele>85</ele>
        <time>2012-12-18T20:41:04.000Z</time>
      </trkpt>
      <trkpt lat="48.84988" lon="2.38684">
        <ele>85</ele>
        <time>2012-12-18T20:41:05.000Z</time>
      </trkpt>
      <trkpt lat="48.84989" lon="2.38678">
        <ele>85</ele>
        <time>2012-12-18T20:41:06.000Z</time>
      </trkpt>
      <trkpt lat="48.84991" lon="2.38672">
        <ele>85</ele>
        <time>2012-12-18T20:41:07.000Z</time>
      </trkpt>
      <trkpt lat="48.84991" lon="2.38666">
        <ele>85</ele>
        <time>2012-12-18T20:41:08.000Z</time>
      </trkpt>
      <trkpt lat="48.84992" lon="2.3866">
        <ele>85</ele>
        <time>2012-12-18T20:41:09.000Z</time>
      </trkpt>
      <trkpt lat="48.84992" lon="2.38653">
        <ele>85</ele>
        <time>2012-12-18T20:41:10.000Z</time>
      </trkpt>
      <trkpt lat="48.84994" lon="2.38644">
        <ele>84</ele>
        <time>2012-12-18T20:41:11.000Z</time>
      </trkpt>
      <trkpt lat="48.84996" lon="2.38637">
        <ele>84</ele>
        <time>2012-12-18T20:41:12.000Z</time>
      </trkpt>
      <trkpt lat="48.84996" lon="2.3863">
        <ele>84</ele>
        <time>2012-12-18T20:41:13.000Z</time>
      </trkpt>
      <trkpt lat="48.84995" lon="2.38623">
        <ele>83</ele>
        <time>2012-12-18T20:41:14.000Z</time>
      </trkpt>
      <trkpt lat="48.84995" lon="2.38616">
        <ele>83</ele>
        <time>2012-12-18T20:41:15.000Z</time>
      </trkpt>
      <trkpt lat="48.84995" lon="2.38611">
        <ele>83</ele>
        <time>2012-12-18T20:41:16.000Z</time>
      </trkpt>
      <trkpt lat="48.84995" lon="2.38603">
        <ele>83</ele>
        <time>2012-12-18T20:41:17.000Z</time>
      </trkpt>
      <trkpt lat="48.84997" lon="2.38595">
        <ele>83</ele>
        <time>2012-12-18T20:41:18.000Z</time>
      </trkpt>
      <trkpt lat="48.84998" lon="2.38588">
        <ele>83</ele>
        <time>2012-12-18T20:41:19.000Z</time>
      </trkpt>
      <trkpt lat="48.85" lon="2.38581">
        <ele>82</ele>
        <time>2012-12-18T20:41:20.000Z</time>
      </trkpt>
      <trkpt lat="48.85001" lon="2.38574">
        <ele>82</ele>
        <time>2012-12-18T20:41:21.000Z</time>
      </trkpt>
      <trkpt lat="48.85002" lon="2.38567">
        <ele>82</ele>
        <time>2012-12-18T20:41:22.000Z</time>
      </trkpt>
      <trkpt lat="48.85003" lon="2.38561">
        <ele>82</ele>
        <time>2012-12-18T20:41:23.000Z</time>
      </trkpt>
      <trkpt lat="48.85004" lon="2.38555">
        <ele>82</ele>
        <time>2012-12-18T20:41:24.000Z</time>
      </trkpt>
      <trkpt lat="48.85005" lon="2.38548">
        <ele>82</ele>
        <time>2012-12-18T20:41:25.000Z</time>
      </trkpt>
      <trkpt lat="48.85008" lon="2.3854">
        <ele>82</ele>
        <time>2012-12-18T20:41:26.000Z</time>
      </trkpt>
      <trkpt lat="48.85008" lon="2.38535">
        <ele>82</ele>
        <time>2012-12-18T20:41:27.000Z</time>
      </trkpt>
      <trkpt lat="48.85009" lon="2.38529">
        <ele>82</ele>
        <time>2012-12-18T20:41:28.000Z</time>
      </trkpt>
      <trkpt lat="48.85011" lon="2.38522">
        <ele>85</ele>
        <time>2012-12-18T20:41:29.000Z</time>
      </trkpt>
      <trkpt lat="48.85012" lon="2.38519">
        <ele>86</ele>
        <time>2012-12-18T20:41:30.000Z</time>
      </trkpt>
      <trkpt lat="48.85012" lon="2.38513">
        <ele>88</ele>
        <time>2012-12-18T20:41:31.000Z</time>
      </trkpt>
      <trkpt lat="48.85012" lon="2.3851">
        <ele>90</ele>
        <time>2012-12-18T20:41:32.000Z</time>
      </trkpt>
      <trkpt lat="48.85013" lon="2.38506">
        <ele>91</ele>
        <time>2012-12-18T20:41:33.000Z</time>
      </trkpt>
      <trkpt lat="48.85012" lon="2.38502">
        <ele>92</ele>
        <time>2012-12-18T20:41:34.000Z</time>
      </trkpt>
      <trkpt lat="48.85014" lon="2.38496">
        <ele>94</ele>
        <time>2012-12-18T20:41:35.000Z</time>
      </trkpt>
      <trkpt lat="48.85016" lon="2.38492">
        <ele>94</ele>
        <time>2012-12-18T20:41:36.000Z</time>
      </trkpt>
      <trkpt lat="48.85018" lon="2.38487">
        <ele>95</ele>
        <time>2012-12-18T20:41:37.000Z</time>
      </trkpt>
      <trkpt lat="48.85018" lon="2.38485">
        <ele>94</ele>
        <time>2012-12-18T20:41:38.000Z</time>
      </trkpt>
      <trkpt lat="48.85019" lon="2.3848">
        <ele>94</ele>
        <time>2012-12-18T20:41:39.000Z</time>
      </trkpt>
      <trkpt lat="48.8502" lon="2.38476">
        <ele>93</ele>
        <time>2012-12-18T20:41:40.000Z</time>
      </trkpt>
      <trkpt lat="48.85021" lon="2.38472">
        <ele>93</ele>
        <time>2012-12-18T20:41:41.000Z</time>
      </trkpt>
      <trkpt lat="48.85021" lon="2.38468">
        <ele>92</ele>
        <time>2012-12-18T20:41:42.000Z</time>
      </trkpt>
      <trkpt lat="48.85021" lon="2.38463">
        <ele>91</ele>
        <time>2012-12-18T20:41:43.000Z</time>
      </trkpt>
      <trkpt lat="48.85021" lon="2.38459">
        <ele>91</ele>
        <time>2012-12-18T20:41:44.000Z</time>
      </trkpt>
      <trkpt lat="48.85022" lon="2.38455">
        <ele>91</ele>
        <time>2012-12-18T20:41:45.000Z</time>
      </trkpt>
      <trkpt lat="48.85022" lon="2.38449">
        <ele>91</ele>
        <time>2012-12-18T20:41:46.000Z</time>
      </trkpt>
      <trkpt lat="48.85021" lon="2.38442">
        <ele>91</ele>
        <time>2012-12-18T20:41:47.000Z</time>
      </trkpt>
      <trkpt lat="48.85021" lon="2.38438">
        <ele>91</ele>
        <time>2012-12-18T20:41:48.000Z</time>
      </trkpt>
      <trkpt lat="48.85021" lon="2.38435">
        <ele>91</ele>
        <time>2012-12-18T20:41:49.000Z</time>
      </trkpt>
      <trkpt lat="48.85023" lon="2.3843">
        <ele>92</ele>
        <time>2012-12-18T20:41:50.000Z</time>
      </trkpt>
      <trkpt lat="48.85023" lon="2.38426">
        <ele>92</ele>
        <time>2012-12-18T20:41:51.000Z</time>
      </trkpt>
      <trkpt lat="48.85024" lon="2.38423">
        <ele>92</ele>
        <time>2012-12-18T20:41:52.000Z</time>
      </trkpt>
      <trkpt lat="48.85027" lon="2.38418">
        <ele>92</ele>
        <time>2012-12-18T20:41:53.000Z</time>
      </trkpt>
      <trkpt lat="48.85028" lon="2.38411">
        <ele>92</ele>
        <time>2012-12-18T20:41:54.000Z</time>
      </trkpt>
      <trkpt lat="48.85029" lon="2.38404">
        <ele>93</ele>
        <time>2012-12-18T20:41:55.000Z</time>
      </trkpt>
      <trkpt lat="48.85028" lon="2.38393">
        <ele>94</ele>
        <time>2012-12-18T20:41:56.000Z</time>
      </trkpt>
      <trkpt lat="48.85027" lon="2.38387">
        <ele>94</ele>
        <time>2012-12-18T20:41:57.000Z</time>
      </trkpt>
      <trkpt lat="48.85026" lon="2.3838">
        <ele>94</ele>
        <time>2012-12-18T20:41:58.000Z</time>
      </trkpt>
      <trkpt lat="48.85026" lon="2.38374">
        <ele>93</ele>
        <time>2012-12-18T20:41:59.000Z</time>
      </trkpt>
      <trkpt lat="48.85026" lon="2.38367">
        <ele>94</ele>
        <time>2012-12-18T20:42:00.000Z</time>
      </trkpt>
      <trkpt lat="48.85026" lon="2.38363">
        <ele>93</ele>
        <time>2012-12-18T20:42:01.000Z</time>
      </trkpt>
      <trkpt lat="48.85027" lon="2.38358">
        <ele>93</ele>
        <time>2012-12-18T20:42:02.000Z</time>
      </trkpt>
      <trkpt lat="48.85028" lon="2.38354">
        <ele>93</ele>
        <time>2012-12-18T20:42:03.000Z</time>
      </trkpt>
      <trkpt lat="48.85028" lon="2.38349">
        <ele>94</ele>
        <time>2012-12-18T20:42:04.000Z</time>
      </trkpt>
      <trkpt lat="48.85028" lon="2.38344">
        <ele>93</ele>
        <time>2012-12-18T20:42:05.000Z</time>
      </trkpt>
      <trkpt lat="48.85031" lon="2.38339">
        <ele>93</ele>
        <time>2012-12-18T20:42:06.000Z</time>
      </trkpt>
      <trkpt lat="48.85032" lon="2.38335">
        <ele>92</ele>
        <time>2012-12-18T20:42:07.000Z</time>
      </trkpt>
      <trkpt lat="48.85032" lon="2.38331">
        <ele>91</ele>
        <time>2012-12-18T20:42:08.000Z</time>
      </trkpt>
      <trkpt lat="48.85034" lon="2.38325">
        <ele>93</ele>
        <time>2012-12-18T20:42:09.000Z</time>
      </trkpt>
      <trkpt lat="48.85034" lon="2.3832">
        <ele>92</ele>
        <time>2012-12-18T20:42:10.000Z</time>
      </trkpt>
      <trkpt lat="48.85034" lon="2.38316">
        <ele>92</ele>
        <time>2012-12-18T20:42:11.000Z</time>
      </trkpt>
      <trkpt lat="48.85035" lon="2.38311">
        <ele>91</ele>
        <time>2012-12-18T20:42:12.000Z</time>
      </trkpt>
      <trkpt lat="48.85034" lon="2.38308">
        <ele>91</ele>
        <time>2012-12-18T20:42:13.000Z</time>
      </trkpt>
      <trkpt lat="48.85035" lon="2.38302">
        <ele>91</ele>
        <time>2012-12-18T20:42:14.000Z</time>
      </trkpt>
      <trkpt lat="48.85035" lon="2.38297">
        <ele>90</ele>
        <time>2012-12-18T20:42:15.000Z</time>
      </trkpt>
      <trkpt lat="48.85038" lon="2.38291">
        <ele>90</ele>
        <time>2012-12-18T20:42:16.000Z</time>
      </trkpt>
      <trkpt lat="48.85039" lon="2.38285">
        <ele>90</ele>
        <time>2012-12-18T20:42:18.000Z</time>
      </trkpt>
      <trkpt lat="48.85039" lon="2.3828">
        <ele>91</ele>
        <time>2012-12-18T20:42:19.000Z</time>
      </trkpt>
      <trkpt lat="48.8504" lon="2.38276">
        <ele>91</ele>
        <time>2012-12-18T20:42:20.000Z</time>
      </trkpt>
      <trkpt lat="48.8504" lon="2.38271">
        <ele>91</ele>
        <time>2012-12-18T20:42:21.000Z</time>
      </trkpt>
      <trkpt lat="48.8504" lon="2.38267">
        <ele>90</ele>
        <time>2012-12-18T20:42:22.000Z</time>
      </trkpt>
      <trkpt lat="48.8504" lon="2.38262">
        <ele>91</ele>
        <time>2012-12-18T20:42:23.000Z</time>
      </trkpt>
      <trkpt lat="48.85042" lon="2.38257">
        <ele>91</ele>
        <time>2012-12-18T20:42:24.000Z</time>
      </trkpt>
      <trkpt lat="48.85042" lon="2.38253">
        <ele>91</ele>
        <time>2012-12-18T20:42:25.000Z</time>
      </trkpt>
      <trkpt lat="48.85042" lon="2.38249">
        <ele>91</ele>
        <time>2012-12-18T20:42:26.000Z</time>
      </trkpt>
      <trkpt lat="48.85043" lon="2.38243">
        <ele>93</ele>
        <time>2012-12-18T20:42:27.000Z</time>
      </trkpt>
      <trkpt lat="48.85043" lon="2.38239">
        <ele>93</ele>
        <time>2012-12-18T20:42:28.000Z</time>
      </trkpt>
      <trkpt lat="48.85043" lon="2.38235">
        <ele>93</ele>
        <time>2012-12-18T20:42:29.000Z</time>
      </trkpt>
      <trkpt lat="48.85041" lon="2.38231">
        <ele>92</ele>
        <time>2012-12-18T20:42:30.000Z</time>
      </trkpt>
      <trkpt lat="48.85041" lon="2.38227">
        <ele>92</ele>
        <time>2012-12-18T20:42:31.000Z</time>
      </trkpt>
      <trkpt lat="48.85042" lon="2.3822">
        <ele>92</ele>
        <time>2012-12-18T20:42:33.000Z</time>
      </trkpt>
      <trkpt lat="48.85042" lon="2.38217">
        <ele>92</ele>
        <time>2012-12-18T20:42:34.000Z</time>
      </trkpt>
      <trkpt lat="48.85041" lon="2.38213">
        <ele>92</ele>
        <time>2012-12-18T20:42:35.000Z</time>
      </trkpt>
      <trkpt lat="48.85042" lon="2.38208">
        <ele>92</ele>
        <time>2012-12-18T20:42:36.000Z</time>
      </trkpt>
      <trkpt lat="48.85042" lon="2.38203">
        <ele>92</ele>
        <time>2012-12-18T20:42:37.000Z</time>
      </trkpt>
      <trkpt lat="48.85042" lon="2.38199">
        <ele>92</ele>
        <time>2012-12-18T20:42:38.000Z</time>
      </trkpt>
      <trkpt lat="48.85042" lon="2.38195">
        <ele>92</ele>
        <time>2012-12-18T20:42:39.000Z</time>
      </trkpt>
      <trkpt lat="48.85041" lon="2.38189">
        <ele>92</ele>
        <time>2012-12-18T20:42:40.000Z</time>
      </trkpt>
      <trkpt lat="48.85041" lon="2.38183">
        <ele>93</ele>
        <time>2012-12-18T20:42:42.000Z</time>
      </trkpt>
      <trkpt lat="48.85043" lon="2.3818">
        <ele>93</ele>
        <time>2012-12-18T20:42:43.000Z</time>
      </trkpt>
      <trkpt lat="48.85045" lon="2.38177">
        <ele>93</ele>
        <time>2012-12-18T20:42:44.000Z</time>
      </trkpt>
      <trkpt lat="48.85047" lon="2.38174">
        <ele>93</ele>
        <time>2012-12-18T20:42:45.000Z</time>
      </trkpt>
      <trkpt lat="48.85048" lon="2.3817">
        <ele>94</ele>
        <time>2012-12-18T20:42:46.000Z</time>
      </trkpt>
      <trkpt lat="48.85046" lon="2.38165">
        <ele>93</ele>
        <time>2012-12-18T20:42:47.000Z</time>
      </trkpt>
      <trkpt lat="48.85046" lon="2.38158">
        <ele>95</ele>
        <time>2012-12-18T20:42:49.000Z</time>
      </trkpt>
      <trkpt lat="48.85046" lon="2.38155">
        <ele>94</ele>
        <time>2012-12-18T20:42:50.000Z</time>
      </trkpt>
      <trkpt lat="48.85045" lon="2.3815">
        <ele>96</ele>
        <time>2012-12-18T20:42:51.000Z</time>
      </trkpt>
      <trkpt lat="48.85046" lon="2.38148">
        <ele>95</ele>
        <time>2012-12-18T20:42:52.000Z</time>
      </trkpt>
      <trkpt lat="48.85044" lon="2.38142">
        <ele>96</ele>
        <time>2012-12-18T20:42:54.000Z</time>
      </trkpt>
      <trkpt lat="48.85042" lon="2.3814">
        <ele>97</ele>
        <time>2012-12-18T20:42:55.000Z</time>
      </trkpt>
      <trkpt lat="48.85042" lon="2.38139">
        <ele>95</ele>
        <time>2012-12-18T20:43:14.000Z</time>
      </trkpt>
      <trkpt lat="48.85042" lon="2.38131">
        <ele>94</ele>
        <time>2012-12-18T20:43:15.000Z</time>
      </trkpt>
      <trkpt lat="48.85043" lon="2.38123">
        <ele>93</ele>
        <time>2012-12-18T20:43:16.000Z</time>
      </trkpt>
      <trkpt lat="48.85042" lon="2.38117">
        <ele>92</ele>
        <time>2012-12-18T20:43:17.000Z</time>
      </trkpt>
      <trkpt lat="48.85042" lon="2.38113">
        <ele>91</ele>
        <time>2012-12-18T20:43:18.000Z</time>
      </trkpt>
      <trkpt lat="48.85045" lon="2.38106">
        <ele>91</ele>
        <time>2012-12-18T20:43:19.000Z</time>
      </trkpt>
      <trkpt lat="48.85045" lon="2.38099">
        <ele>92</ele>
        <time>2012-12-18T20:43:20.000Z</time>
      </trkpt>
      <trkpt lat="48.85046" lon="2.38092">
        <ele>92</ele>
        <time>2012-12-18T20:43:21.000Z</time>
      </trkpt>
      <trkpt lat="48.85044" lon="2.38088">
        <ele>92</ele>
        <time>2012-12-18T20:43:22.000Z</time>
      </trkpt>
      <trkpt lat="48.85046" lon="2.38081">
        <ele>92</ele>
        <time>2012-12-18T20:43:23.000Z</time>
      </trkpt>
      <trkpt lat="48.85047" lon="2.38073">
        <ele>92</ele>
        <time>2012-12-18T20:43:24.000Z</time>
      </trkpt>
      <trkpt lat="48.85051" lon="2.38063">
        <ele>92</ele>
        <time>2012-12-18T20:43:25.000Z</time>
      </trkpt>
      <trkpt lat="48.85052" lon="2.38056">
        <ele>92</ele>
        <time>2012-12-18T20:43:26.000Z</time>
      </trkpt>
      <trkpt lat="48.85054" lon="2.38046">
        <ele>91</ele>
        <time>2012-12-18T20:43:27.000Z</time>
      </trkpt>
      <trkpt lat="48.85054" lon="2.38038">
        <ele>92</ele>
        <time>2012-12-18T20:43:28.000Z</time>
      </trkpt>
      <trkpt lat="48.85054" lon="2.3803">
        <ele>92</ele>
        <time>2012-12-18T20:43:29.000Z</time>
      </trkpt>
      <trkpt lat="48.85056" lon="2.38022">
        <ele>91</ele>
        <time>2012-12-18T20:43:30.000Z</time>
      </trkpt>
      <trkpt lat="48.85056" lon="2.38014">
        <ele>91</ele>
        <time>2012-12-18T20:43:31.000Z</time>
      </trkpt>
      <trkpt lat="48.85057" lon="2.38009">
        <ele>92</ele>
        <time>2012-12-18T20:43:32.000Z</time>
      </trkpt>
      <trkpt lat="48.85058" lon="2.38002">
        <ele>92</ele>
        <time>2012-12-18T20:43:33.000Z</time>
      </trkpt>
      <trkpt lat="48.85056" lon="2.37992">
        <ele>91</ele>
        <time>2012-12-18T20:43:34.000Z</time>
      </trkpt>
      <trkpt lat="48.85057" lon="2.37986">
        <ele>91</ele>
        <time>2012-12-18T20:43:35.000Z</time>
      </trkpt>
      <trkpt lat="48.85059" lon="2.37978">
        <ele>91</ele>
        <time>2012-12-18T20:43:36.000Z</time>
      </trkpt>
      <trkpt lat="48.8506" lon="2.37969">
        <ele>91</ele>
        <time>2012-12-18T20:43:37.000Z</time>
      </trkpt>
      <trkpt lat="48.85061" lon="2.37962">
        <ele>91</ele>
        <time>2012-12-18T20:43:38.000Z</time>
      </trkpt>
      <trkpt lat="48.85062" lon="2.37956">
        <ele>91</ele>
        <time>2012-12-18T20:43:39.000Z</time>
      </trkpt>
      <trkpt lat="48.85063" lon="2.37948">
        <ele>91</ele>
        <time>2012-12-18T20:43:40.000Z</time>
      </trkpt>
      <trkpt lat="48.85065" lon="2.37941">
        <ele>91</ele>
        <time>2012-12-18T20:43:41.000Z</time>
      </trkpt>
      <trkpt lat="48.85065" lon="2.37934">
        <ele>90</ele>
        <time>2012-12-18T20:43:42.000Z</time>
      </trkpt>
      <trkpt lat="48.85068" lon="2.37927">
        <ele>90</ele>
        <time>2012-12-18T20:43:43.000Z</time>
      </trkpt>
      <trkpt lat="48.85069" lon="2.37922">
        <ele>89</ele>
        <time>2012-12-18T20:43:44.000Z</time>
      </trkpt>
      <trkpt lat="48.8507" lon="2.37915">
        <ele>90</ele>
        <time>2012-12-18T20:43:45.000Z</time>
      </trkpt>
      <trkpt lat="48.85071" lon="2.37908">
        <ele>91</ele>
        <time>2012-12-18T20:43:46.000Z</time>
      </trkpt>
      <trkpt lat="48.85072" lon="2.37903">
        <ele>93</ele>
        <time>2012-12-18T20:43:47.000Z</time>
      </trkpt>
      <trkpt lat="48.85072" lon="2.37898">
        <ele>92</ele>
        <time>2012-12-18T20:43:48.000Z</time>
      </trkpt>
      <trkpt lat="48.85072" lon="2.37892">
        <ele>92</ele>
        <time>2012-12-18T20:43:49.000Z</time>
      </trkpt>
      <trkpt lat="48.8507" lon="2.37886">
        <ele>89</ele>
        <time>2012-12-18T20:43:50.000Z</time>
      </trkpt>
      <trkpt lat="48.85071" lon="2.3788">
        <ele>88</ele>
        <time>2012-12-18T20:43:51.000Z</time>
      </trkpt>
      <trkpt lat="48.85072" lon="2.37876">
        <ele>88</ele>
        <time>2012-12-18T20:43:52.000Z</time>
      </trkpt>
      <trkpt lat="48.85073" lon="2.37872">
        <ele>87</ele>
        <time>2012-12-18T20:43:53.000Z</time>
      </trkpt>
      <trkpt lat="48.85075" lon="2.37866">
        <ele>88</ele>
        <time>2012-12-18T20:43:54.000Z</time>
      </trkpt>
      <trkpt lat="48.85076" lon="2.3786">
        <ele>87</ele>
        <time>2012-12-18T20:43:55.000Z</time>
      </trkpt>
      <trkpt lat="48.85078" lon="2.37856">
        <ele>86</ele>
        <time>2012-12-18T20:43:56.000Z</time>
      </trkpt>
      <trkpt lat="48.85079" lon="2.37852">
        <ele>86</ele>
        <time>2012-12-18T20:43:57.000Z</time>
      </trkpt>
      <trkpt lat="48.8508" lon="2.37845">
        <ele>86</ele>
        <time>2012-12-18T20:43:58.000Z</time>
      </trkpt>
      <trkpt lat="48.85082" lon="2.3784">
        <ele>86</ele>
        <time>2012-12-18T20:43:59.000Z</time>
      </trkpt>
      <trkpt lat="48.85084" lon="2.37836">
        <ele>86</ele>
        <time>2012-12-18T20:44:00.000Z</time>
      </trkpt>
      <trkpt lat="48.85085" lon="2.37831">
        <ele>85</ele>
        <time>2012-12-18T20:44:01.000Z</time>
      </trkpt>
      <trkpt lat="48.85086" lon="2.37824">
        <ele>85</ele>
        <time>2012-12-18T20:44:02.000Z</time>
      </trkpt>
      <trkpt lat="48.85088" lon="2.37818">
        <ele>84</ele>
        <time>2012-12-18T20:44:03.000Z</time>
      </trkpt>
      <trkpt lat="48.8509" lon="2.37812">
        <ele>84</ele>
        <time>2012-12-18T20:44:04.000Z</time>
      </trkpt>
      <trkpt lat="48.85092" lon="2.37807">
        <ele>84</ele>
        <time>2012-12-18T20:44:05.000Z</time>
      </trkpt>
      <trkpt lat="48.85092" lon="2.37801">
        <ele>84</ele>
        <time>2012-12-18T20:44:06.000Z</time>
      </trkpt>
      <trkpt lat="48.85093" lon="2.37794">
        <ele>83</ele>
        <time>2012-12-18T20:44:07.000Z</time>
      </trkpt>
      <trkpt lat="48.85095" lon="2.3779">
        <ele>83</ele>
        <time>2012-12-18T20:44:08.000Z</time>
      </trkpt>
      <trkpt lat="48.85097" lon="2.37783">
        <ele>82</ele>
        <time>2012-12-18T20:44:09.000Z</time>
      </trkpt>
      <trkpt lat="48.85098" lon="2.37775">
        <ele>81</ele>
        <time>2012-12-18T20:44:10.000Z</time>
      </trkpt>
      <trkpt lat="48.85101" lon="2.37771">
        <ele>81</ele>
        <time>2012-12-18T20:44:11.000Z</time>
      </trkpt>
      <trkpt lat="48.85102" lon="2.37764">
        <ele>81</ele>
        <time>2012-12-18T20:44:12.000Z</time>
      </trkpt>
      <trkpt lat="48.85105" lon="2.37759">
        <ele>81</ele>
        <time>2012-12-18T20:44:13.000Z</time>
      </trkpt>
      <trkpt lat="48.85106" lon="2.37754">
        <ele>81</ele>
        <time>2012-12-18T20:44:14.000Z</time>
      </trkpt>
      <trkpt lat="48.85107" lon="2.3775">
        <ele>82</ele>
        <time>2012-12-18T20:44:15.000Z</time>
      </trkpt>
      <trkpt lat="48.85106" lon="2.37739">
        <ele>82</ele>
        <time>2012-12-18T20:44:16.000Z</time>
      </trkpt>
      <trkpt lat="48.85108" lon="2.37731">
        <ele>82</ele>
        <time>2012-12-18T20:44:17.000Z</time>
      </trkpt>
      <trkpt lat="48.85108" lon="2.37724">
        <ele>82</ele>
        <time>2012-12-18T20:44:18.000Z</time>
      </trkpt>
      <trkpt lat="48.85109" lon="2.37718">
        <ele>82</ele>
        <time>2012-12-18T20:44:19.000Z</time>
      </trkpt>
      <trkpt lat="48.85113" lon="2.37711">
        <ele>82</ele>
        <time>2012-12-18T20:44:20.000Z</time>
      </trkpt>
      <trkpt lat="48.85114" lon="2.37704">
        <ele>82</ele>
        <time>2012-12-18T20:44:21.000Z</time>
      </trkpt>
      <trkpt lat="48.85115" lon="2.37698">
        <ele>82</ele>
        <time>2012-12-18T20:44:22.000Z</time>
      </trkpt>
      <trkpt lat="48.85116" lon="2.37692">
        <ele>82</ele>
        <time>2012-12-18T20:44:23.000Z</time>
      </trkpt>
      <trkpt lat="48.85117" lon="2.37687">
        <ele>82</ele>
        <time>2012-12-18T20:44:24.000Z</time>
      </trkpt>
      <trkpt lat="48.85119" lon="2.37682">
        <ele>82</ele>
        <time>2012-12-18T20:44:25.000Z</time>
      </trkpt>
      <trkpt lat="48.8512" lon="2.37679">
        <ele>82</ele>
        <time>2012-12-18T20:44:26.000Z</time>
      </trkpt>
      <trkpt lat="48.85124" lon="2.37673">
        <ele>82</ele>
        <time>2012-12-18T20:44:27.000Z</time>
      </trkpt>
      <trkpt lat="48.85125" lon="2.37667">
        <ele>82</ele>
        <time>2012-12-18T20:44:28.000Z</time>
      </trkpt>
      <trkpt lat="48.85127" lon="2.37663">
        <ele>82</ele>
        <time>2012-12-18T20:44:29.000Z</time>
      </trkpt>
      <trkpt lat="48.85126" lon="2.37656">
        <ele>82</ele>
        <time>2012-12-18T20:44:30.000Z</time>
      </trkpt>
      <trkpt lat="48.85127" lon="2.37649">
        <ele>82</ele>
        <time>2012-12-18T20:44:31.000Z</time>
      </trkpt>
      <trkpt lat="48.85127" lon="2.37641">
        <ele>81</ele>
        <time>2012-12-18T20:44:32.000Z</time>
      </trkpt>
      <trkpt lat="48.85126" lon="2.37636">
        <ele>81</ele>
        <time>2012-12-18T20:44:33.000Z</time>
      </trkpt>
      <trkpt lat="48.85123" lon="2.37633">
        <ele>81</ele>
        <time>2012-12-18T20:44:34.000Z</time>
      </trkpt>
      <trkpt lat="48.85123" lon="2.37628">
        <ele>81</ele>
        <time>2012-12-18T20:44:36.000Z</time>
      </trkpt>
      <trkpt lat="48.85123" lon="2.37623">
        <ele>79</ele>
        <time>2012-12-18T20:44:37.000Z</time>
      </trkpt>
      <trkpt lat="48.85123" lon="2.37618">
        <ele>79</ele>
        <time>2012-12-18T20:44:39.000Z</time>
      </trkpt>
      <trkpt lat="48.85122" lon="2.37611">
        <ele>80</ele>
        <time>2012-12-18T20:44:40.000Z</time>
      </trkpt>
      <trkpt lat="48.85126" lon="2.37609">
        <ele>80</ele>
        <time>2012-12-18T20:44:43.000Z</time>
      </trkpt>
      <trkpt lat="48.85127" lon="2.37612">
        <ele>78</ele>
        <time>2012-12-18T20:44:44.000Z</time>
      </trkpt>
      <trkpt lat="48.8513" lon="2.37613">
        <ele>77</ele>
        <time>2012-12-18T20:45:04.000Z</time>
      </trkpt>
      <trkpt lat="48.85132" lon="2.37612">
        <ele>77</ele>
        <time>2012-12-18T20:45:05.000Z</time>
      </trkpt>
      <trkpt lat="48.85134" lon="2.3761">
        <ele>77</ele>
        <time>2012-12-18T20:45:06.000Z</time>
      </trkpt>
      <trkpt lat="48.85135" lon="2.37606">
        <ele>77</ele>
        <time>2012-12-18T20:45:07.000Z</time>
      </trkpt>
      <trkpt lat="48.85136" lon="2.37603">
        <ele>78</ele>
        <time>2012-12-18T20:45:08.000Z</time>
      </trkpt>
      <trkpt lat="48.85139" lon="2.37601">
        <ele>78</ele>
        <time>2012-12-18T20:45:09.000Z</time>
      </trkpt>
      <trkpt lat="48.85142" lon="2.376">
        <ele>78</ele>
        <time>2012-12-18T20:45:10.000Z</time>
      </trkpt>
      <trkpt lat="48.85144" lon="2.37597">
        <ele>78</ele>
        <time>2012-12-18T20:45:11.000Z</time>
      </trkpt>
      <trkpt lat="48.85146" lon="2.37593">
        <ele>78</ele>
        <time>2012-12-18T20:45:12.000Z</time>
      </trkpt>
      <trkpt lat="48.85152" lon="2.37591">
        <ele>78</ele>
        <time>2012-12-18T20:45:13.000Z</time>
      </trkpt>
      <trkpt lat="48.85153" lon="2.37587">
        <ele>78</ele>
        <time>2012-12-18T20:45:14.000Z</time>
      </trkpt>
      <trkpt lat="48.85156" lon="2.37583">
        <ele>78</ele>
        <time>2012-12-18T20:45:15.000Z</time>
      </trkpt>
      <trkpt lat="48.85157" lon="2.37577">
        <ele>78</ele>
        <time>2012-12-18T20:45:16.000Z</time>
      </trkpt>
      <trkpt lat="48.85158" lon="2.37572">
        <ele>78</ele>
        <time>2012-12-18T20:45:17.000Z</time>
      </trkpt>
      <trkpt lat="48.85159" lon="2.37568">
        <ele>78</ele>
        <time>2012-12-18T20:45:18.000Z</time>
      </trkpt>
      <trkpt lat="48.8516" lon="2.37563">
        <ele>78</ele>
        <time>2012-12-18T20:45:19.000Z</time>
      </trkpt>
      <trkpt lat="48.85161" lon="2.37558">
        <ele>78</ele>
        <time>2012-12-18T20:45:20.000Z</time>
      </trkpt>
      <trkpt lat="48.85161" lon="2.3755">
        <ele>78</ele>
        <time>2012-12-18T20:45:21.000Z</time>
      </trkpt>
      <trkpt lat="48.85163" lon="2.37545">
        <ele>78</ele>
        <time>2012-12-18T20:45:22.000Z</time>
      </trkpt>
      <trkpt lat="48.85164" lon="2.37539">
        <ele>78</ele>
        <time>2012-12-18T20:45:23.000Z</time>
      </trkpt>
      <trkpt lat="48.85166" lon="2.37533">
        <ele>78</ele>
        <time>2012-12-18T20:45:24.000Z</time>
      </trkpt>
      <trkpt lat="48.85167" lon="2.37518">
        <ele>78</ele>
        <time>2012-12-18T20:45:26.000Z</time>
      </trkpt>
      <trkpt lat="48.85168" lon="2.37513">
        <ele>78</ele>
        <time>2012-12-18T20:45:27.000Z</time>
      </trkpt>
      <trkpt lat="48.85171" lon="2.37507">
        <ele>77</ele>
        <time>2012-12-18T20:45:28.000Z</time>
      </trkpt>
      <trkpt lat="48.85171" lon="2.37499">
        <ele>77</ele>
        <time>2012-12-18T20:45:29.000Z</time>
      </trkpt>
      <trkpt lat="48.85172" lon="2.37494">
        <ele>78</ele>
        <time>2012-12-18T20:45:30.000Z</time>
      </trkpt>
      <trkpt lat="48.85173" lon="2.37485">
        <ele>77</ele>
        <time>2012-12-18T20:45:31.000Z</time>
      </trkpt>
      <trkpt lat="48.85174" lon="2.37479">
        <ele>77</ele>
        <time>2012-12-18T20:45:32.000Z</time>
      </trkpt>
      <trkpt lat="48.85176" lon="2.37471">
        <ele>77</ele>
        <time>2012-12-18T20:45:33.000Z</time>
      </trkpt>
      <trkpt lat="48.85177" lon="2.37463">
        <ele>78</ele>
        <time>2012-12-18T20:45:34.000Z</time>
      </trkpt>
      <trkpt lat="48.85179" lon="2.37458">
        <ele>78</ele>
        <time>2012-12-18T20:45:35.000Z</time>
      </trkpt>
      <trkpt lat="48.8518" lon="2.37448">
        <ele>78</ele>
        <time>2012-12-18T20:45:36.000Z</time>
      </trkpt>
      <trkpt lat="48.8518" lon="2.37442">
        <ele>78</ele>
        <time>2012-12-18T20:45:37.000Z</time>
      </trkpt>
      <trkpt lat="48.8518" lon="2.37433">
        <ele>79</ele>
        <time>2012-12-18T20:45:38.000Z</time>
      </trkpt>
      <trkpt lat="48.85182" lon="2.37428">
        <ele>79</ele>
        <time>2012-12-18T20:45:39.000Z</time>
      </trkpt>
      <trkpt lat="48.85182" lon="2.3742">
        <ele>78</ele>
        <time>2012-12-18T20:45:40.000Z</time>
      </trkpt>
      <trkpt lat="48.85183" lon="2.37414">
        <ele>78</ele>
        <time>2012-12-18T20:45:41.000Z</time>
      </trkpt>
      <trkpt lat="48.85183" lon="2.37409">
        <ele>80</ele>
        <time>2012-12-18T20:45:42.000Z</time>
      </trkpt>
      <trkpt lat="48.85184" lon="2.37403">
        <ele>81</ele>
        <time>2012-12-18T20:45:43.000Z</time>
      </trkpt>
      <trkpt lat="48.85186" lon="2.37399">
        <ele>81</ele>
        <time>2012-12-18T20:45:44.000Z</time>
      </trkpt>
      <trkpt lat="48.85185" lon="2.37395">
        <ele>81</ele>
        <time>2012-12-18T20:45:45.000Z</time>
      </trkpt>
      <trkpt lat="48.85185" lon="2.37389">
        <ele>81</ele>
        <time>2012-12-18T20:45:46.000Z</time>
      </trkpt>
      <trkpt lat="48.85185" lon="2.37385">
        <ele>81</ele>
        <time>2012-12-18T20:45:47.000Z</time>
      </trkpt>
      <trkpt lat="48.85185" lon="2.3738">
        <ele>81</ele>
        <time>2012-12-18T20:45:48.000Z</time>
      </trkpt>
      <trkpt lat="48.85185" lon="2.37377">
        <ele>81</ele>
        <time>2012-12-18T20:45:49.000Z</time>
      </trkpt>
      <trkpt lat="48.85185" lon="2.37373">
        <ele>81</ele>
        <time>2012-12-18T20:45:50.000Z</time>
      </trkpt>
      <trkpt lat="48.85184" lon="2.37367">
        <ele>81</ele>
        <time>2012-12-18T20:45:51.000Z</time>
      </trkpt>
      <trkpt lat="48.8519" lon="2.37369">
        <ele>80</ele>
        <time>2012-12-18T20:45:52.000Z</time>
      </trkpt>
      <trkpt lat="48.85192" lon="2.37359">
        <ele>81</ele>
        <time>2012-12-18T20:45:53.000Z</time>
      </trkpt>
      <trkpt lat="48.85197" lon="2.37354">
        <ele>80</ele>
        <time>2012-12-18T20:45:54.000Z</time>
      </trkpt>
      <trkpt lat="48.85198" lon="2.37347">
        <ele>80</ele>
        <time>2012-12-18T20:45:55.000Z</time>
      </trkpt>
      <trkpt lat="48.852" lon="2.37341">
        <ele>80</ele>
        <time>2012-12-18T20:45:56.000Z</time>
      </trkpt>
      <trkpt lat="48.85204" lon="2.37335">
        <ele>80</ele>
        <time>2012-12-18T20:45:57.000Z</time>
      </trkpt>
      <trkpt lat="48.85208" lon="2.3733">
        <ele>80</ele>
        <time>2012-12-18T20:45:58.000Z</time>
      </trkpt>
      <trkpt lat="48.85211" lon="2.37325">
        <ele>81</ele>
        <time>2012-12-18T20:45:59.000Z</time>
      </trkpt>
      <trkpt lat="48.85212" lon="2.3732">
        <ele>81</ele>
        <time>2012-12-18T20:46:00.000Z</time>
      </trkpt>
      <trkpt lat="48.85215" lon="2.37312">
        <ele>81</ele>
        <time>2012-12-18T20:46:01.000Z</time>
      </trkpt>
      <trkpt lat="48.85215" lon="2.37308">
        <ele>81</ele>
        <time>2012-12-18T20:46:02.000Z</time>
      </trkpt>
      <trkpt lat="48.85218" lon="2.37301">
        <ele>80</ele>
        <time>2012-12-18T20:46:03.000Z</time>
      </trkpt>
      <trkpt lat="48.85219" lon="2.37293">
        <ele>80</ele>
        <time>2012-12-18T20:46:04.000Z</time>
      </trkpt>
      <trkpt lat="48.85221" lon="2.37287">
        <ele>80</ele>
        <time>2012-12-18T20:46:05.000Z</time>
      </trkpt>
      <trkpt lat="48.85222" lon="2.37281">
        <ele>81</ele>
        <time>2012-12-18T20:46:06.000Z</time>
      </trkpt>
      <trkpt lat="48.85224" lon="2.37275">
        <ele>81</ele>
        <time>2012-12-18T20:46:07.000Z</time>
      </trkpt>
      <trkpt lat="48.85226" lon="2.37269">
        <ele>81</ele>
        <time>2012-12-18T20:46:08.000Z</time>
      </trkpt>
      <trkpt lat="48.85226" lon="2.37262">
        <ele>81</ele>
        <time>2012-12-18T20:46:09.000Z</time>
      </trkpt>
      <trkpt lat="48.85229" lon="2.37259">
        <ele>82</ele>
        <time>2012-12-18T20:46:10.000Z</time>
      </trkpt>
      <trkpt lat="48.85232" lon="2.37252">
        <ele>82</ele>
        <time>2012-12-18T20:46:11.000Z</time>
      </trkpt>
      <trkpt lat="48.85233" lon="2.37247">
        <ele>81</ele>
        <time>2012-12-18T20:46:12.000Z</time>
      </trkpt>
      <trkpt lat="48.85235" lon="2.3724">
        <ele>81</ele>
        <time>2012-12-18T20:46:13.000Z</time>
      </trkpt>
      <trkpt lat="48.85235" lon="2.37233">
        <ele>81</ele>
        <time>2012-12-18T20:46:14.000Z</time>
      </trkpt>
      <trkpt lat="48.85238" lon="2.37228">
        <ele>82</ele>
        <time>2012-12-18T20:46:15.000Z</time>
      </trkpt>
      <trkpt lat="48.85239" lon="2.37217">
        <ele>84</ele>
        <time>2012-12-18T20:46:16.000Z</time>
      </trkpt>
      <trkpt lat="48.85242" lon="2.37212">
        <ele>85</ele>
        <time>2012-12-18T20:46:17.000Z</time>
      </trkpt>
      <trkpt lat="48.85245" lon="2.37207">
        <ele>85</ele>
        <time>2012-12-18T20:46:18.000Z</time>
      </trkpt>
      <trkpt lat="48.85246" lon="2.372">
        <ele>85</ele>
        <time>2012-12-18T20:46:19.000Z</time>
      </trkpt>
      <trkpt lat="48.85249" lon="2.37196">
        <ele>85</ele>
        <time>2012-12-18T20:46:20.000Z</time>
      </trkpt>
      <trkpt lat="48.85251" lon="2.3719">
        <ele>85</ele>
        <time>2012-12-18T20:46:21.000Z</time>
      </trkpt>
      <trkpt lat="48.85255" lon="2.37188">
        <ele>84</ele>
        <time>2012-12-18T20:46:22.000Z</time>
      </trkpt>
      <trkpt lat="48.85256" lon="2.37183">
        <ele>84</ele>
        <time>2012-12-18T20:46:23.000Z</time>
      </trkpt>
      <trkpt lat="48.85257" lon="2.37175">
        <ele>85</ele>
        <time>2012-12-18T20:46:24.000Z</time>
      </trkpt>
      <trkpt lat="48.85257" lon="2.37167">
        <ele>85</ele>
        <time>2012-12-18T20:46:25.000Z</time>
      </trkpt>
      <trkpt lat="48.85259" lon="2.37159">
        <ele>85</ele>
        <time>2012-12-18T20:46:26.000Z</time>
      </trkpt>
      <trkpt lat="48.85261" lon="2.37153">
        <ele>86</ele>
        <time>2012-12-18T20:46:27.000Z</time>
      </trkpt>
      <trkpt lat="48.85262" lon="2.37149">
        <ele>85</ele>
        <time>2012-12-18T20:46:28.000Z</time>
      </trkpt>
      <trkpt lat="48.85264" lon="2.37142">
        <ele>84</ele>
        <time>2012-12-18T20:46:29.000Z</time>
      </trkpt>
      <trkpt lat="48.85267" lon="2.37138">
        <ele>84</ele>
        <time>2012-12-18T20:46:30.000Z</time>
      </trkpt>
      <trkpt lat="48.85269" lon="2.37132">
        <ele>85</ele>
        <time>2012-12-18T20:46:31.000Z</time>
      </trkpt>
      <trkpt lat="48.85272" lon="2.37127">
        <ele>85</ele>
        <time>2012-12-18T20:46:32.000Z</time>
      </trkpt>
      <trkpt lat="48.85274" lon="2.37119">
        <ele>85</ele>
        <time>2012-12-18T20:46:33.000Z</time>
      </trkpt>
      <trkpt lat="48.85277" lon="2.37114">
        <ele>84</ele>
        <time>2012-12-18T20:46:34.000Z</time>
      </trkpt>
      <trkpt lat="48.85278" lon="2.3711">
        <ele>83</ele>
        <time>2012-12-18T20:46:35.000Z</time>
      </trkpt>
      <trkpt lat="48.85282" lon="2.37109">
        <ele>84</ele>
        <time>2012-12-18T20:46:36.000Z</time>
      </trkpt>
      <trkpt lat="48.85285" lon="2.37106">
        <ele>84</ele>
        <time>2012-12-18T20:46:37.000Z</time>
      </trkpt>
      <trkpt lat="48.85288" lon="2.37101">
        <ele>84</ele>
        <time>2012-12-18T20:46:38.000Z</time>
      </trkpt>
      <trkpt lat="48.8529" lon="2.37098">
        <ele>84</ele>
        <time>2012-12-18T20:46:39.000Z</time>
      </trkpt>
      <trkpt lat="48.85293" lon="2.37097">
        <ele>84</ele>
        <time>2012-12-18T20:46:40.000Z</time>
      </trkpt>
      <trkpt lat="48.85294" lon="2.3709">
        <ele>84</ele>
        <time>2012-12-18T20:46:41.000Z</time>
      </trkpt>
      <trkpt lat="48.85297" lon="2.37086">
        <ele>84</ele>
        <time>2012-12-18T20:46:42.000Z</time>
      </trkpt>
      <trkpt lat="48.85299" lon="2.37081">
        <ele>84</ele>
        <time>2012-12-18T20:46:43.000Z</time>
      </trkpt>
      <trkpt lat="48.85303" lon="2.37077">
        <ele>85</ele>
        <time>2012-12-18T20:46:44.000Z</time>
      </trkpt>
      <trkpt lat="48.85305" lon="2.37071">
        <ele>84</ele>
        <time>2012-12-18T20:46:45.000Z</time>
      </trkpt>
      <trkpt lat="48.85306" lon="2.37068">
        <ele>83</ele>
        <time>2012-12-18T20:46:46.000Z</time>
      </trkpt>
      <trkpt lat="48.85308" lon="2.37067">
        <ele>83</ele>
        <time>2012-12-18T20:46:47.000Z</time>
      </trkpt>
      <trkpt lat="48.85311" lon="2.37062">
        <ele>83</ele>
        <time>2012-12-18T20:46:48.000Z</time>
      </trkpt>
      <trkpt lat="48.85313" lon="2.37058">
        <ele>83</ele>
        <time>2012-12-18T20:46:49.000Z</time>
      </trkpt>
      <trkpt lat="48.85315" lon="2.37054">
        <ele>84</ele>
        <time>2012-12-18T20:46:50.000Z</time>
      </trkpt>
      <trkpt lat="48.85317" lon="2.37047">
        <ele>84</ele>
        <time>2012-12-18T20:46:51.000Z</time>
      </trkpt>
      <trkpt lat="48.8532" lon="2.3704">
        <ele>84</ele>
        <time>2012-12-18T20:46:52.000Z</time>
      </trkpt>
      <trkpt lat="48.85319" lon="2.37029">
        <ele>83</ele>
        <time>2012-12-18T20:46:53.000Z</time>
      </trkpt>
      <trkpt lat="48.8532" lon="2.37024">
        <ele>83</ele>
        <time>2012-12-18T20:46:54.000Z</time>
      </trkpt>
      <trkpt lat="48.85323" lon="2.37019">
        <ele>83</ele>
        <time>2012-12-18T20:46:55.000Z</time>
      </trkpt>
      <trkpt lat="48.85326" lon="2.37017">
        <ele>83</ele>
        <time>2012-12-18T20:46:56.000Z</time>
      </trkpt>
      <trkpt lat="48.85328" lon="2.37015">
        <ele>83</ele>
        <time>2012-12-18T20:46:57.000Z</time>
      </trkpt>
      <trkpt lat="48.85329" lon="2.3701">
        <ele>85</ele>
        <time>2012-12-18T20:47:00.000Z</time>
      </trkpt>
      <trkpt lat="48.85331" lon="2.37008">
        <ele>86</ele>
        <time>2012-12-18T20:47:01.000Z</time>
      </trkpt>
      <trkpt lat="48.85332" lon="2.37002">
        <ele>88</ele>
        <time>2012-12-18T20:47:03.000Z</time>
      </trkpt>
      <trkpt lat="48.8533" lon="2.36999">
        <ele>88</ele>
        <time>2012-12-18T20:47:04.000Z</time>
      </trkpt>
      <trkpt lat="48.85331" lon="2.36992">
        <ele>89</ele>
        <time>2012-12-18T20:47:06.000Z</time>
      </trkpt>
      <trkpt lat="48.8533" lon="2.3699">
        <ele>89</ele>
        <time>2012-12-18T20:47:07.000Z</time>
      </trkpt>
      <trkpt lat="48.85332" lon="2.36987">
        <ele>89</ele>
        <time>2012-12-18T20:47:08.000Z</time>
      </trkpt>
      <trkpt lat="48.85333" lon="2.36983">
        <ele>89</ele>
        <time>2012-12-18T20:47:09.000Z</time>
      </trkpt>
      <trkpt lat="48.85334" lon="2.3698">
        <ele>89</ele>
        <time>2012-12-18T20:47:12.000Z</time>
      </trkpt>
      <trkpt lat="48.85335" lon="2.36977">
        <ele>89</ele>
        <time>2012-12-18T20:47:13.000Z</time>
      </trkpt>
      <trkpt lat="48.85336" lon="2.36978">
        <ele>89</ele>
        <time>2012-12-18T20:47:14.000Z</time>
      </trkpt>
      <trkpt lat="48.85337" lon="2.36986">
        <ele>87</ele>
        <time>2012-12-18T20:47:15.000Z</time>
      </trkpt>
      <trkpt lat="48.85338" lon="2.36989">
        <ele>87</ele>
        <time>2012-12-18T20:47:17.000Z</time>
      </trkpt>
      <trkpt lat="48.85341" lon="2.36994">
        <ele>87</ele>
        <time>2012-12-18T20:47:18.000Z</time>
      </trkpt>
      <trkpt lat="48.85341" lon="2.36998">
        <ele>86</ele>
        <time>2012-12-18T20:47:19.000Z</time>
      </trkpt>
      <trkpt lat="48.85342" lon="2.37002">
        <ele>84</ele>
        <time>2012-12-18T20:47:20.000Z</time>
      </trkpt>
      <trkpt lat="48.85341" lon="2.37008">
        <ele>84</ele>
        <time>2012-12-18T20:47:30.000Z</time>
      </trkpt>
      <trkpt lat="48.85341" lon="2.37009">
        <ele>85</ele>
        <time>2012-12-18T20:47:31.000Z</time>
      </trkpt>
      <trkpt lat="48.85342" lon="2.37006">
        <ele>86</ele>
        <time>2012-12-18T20:47:44.000Z</time>
      </trkpt>
      <trkpt lat="48.85344" lon="2.37002">
        <ele>86</ele>
        <time>2012-12-18T20:47:45.000Z</time>
      </trkpt>
      <trkpt lat="48.85348" lon="2.36997">
        <ele>87</ele>
        <time>2012-12-18T20:47:46.000Z</time>
      </trkpt>
      <trkpt lat="48.8535" lon="2.36993">
        <ele>84</ele>
        <time>2012-12-18T20:47:47.000Z</time>
      </trkpt>
      <trkpt lat="48.85351" lon="2.3699">
        <ele>84</ele>
        <time>2012-12-18T20:47:48.000Z</time>
      </trkpt>
      <trkpt lat="48.85355" lon="2.36986">
        <ele>83</ele>
        <time>2012-12-18T20:47:50.000Z</time>
      </trkpt>
      <trkpt lat="48.85356" lon="2.36984">
        <ele>82</ele>
        <time>2012-12-18T20:47:51.000Z</time>
      </trkpt>
      <trkpt lat="48.85358" lon="2.36982">
        <ele>82</ele>
        <time>2012-12-18T20:47:52.000Z</time>
      </trkpt>
      <trkpt lat="48.8536" lon="2.36977">
        <ele>82</ele>
        <time>2012-12-18T20:47:53.000Z</time>
      </trkpt>
      <trkpt lat="48.85362" lon="2.36976">
        <ele>83</ele>
        <time>2012-12-18T20:47:54.000Z</time>
      </trkpt>
      <trkpt lat="48.85364" lon="2.36973">
        <ele>82</ele>
        <time>2012-12-18T20:47:55.000Z</time>
      </trkpt>
      <trkpt lat="48.85365" lon="2.36969">
        <ele>82</ele>
        <time>2012-12-18T20:47:56.000Z</time>
      </trkpt>
      <trkpt lat="48.85367" lon="2.36967">
        <ele>82</ele>
        <time>2012-12-18T20:47:57.000Z</time>
      </trkpt>
      <trkpt lat="48.85369" lon="2.36961">
        <ele>81</ele>
        <time>2012-12-18T20:47:59.000Z</time>
      </trkpt>
      <trkpt lat="48.85371" lon="2.36958">
        <ele>81</ele>
        <time>2012-12-18T20:48:00.000Z</time>
      </trkpt>
      <trkpt lat="48.85371" lon="2.36953">
        <ele>81</ele>
        <time>2012-12-18T20:48:02.000Z</time>
      </trkpt>
      <trkpt lat="48.85371" lon="2.3695">
        <ele>80</ele>
        <time>2012-12-18T20:48:03.000Z</time>
      </trkpt>
      <trkpt lat="48.8537" lon="2.36945">
        <ele>79</ele>
        <time>2012-12-18T20:48:06.000Z</time>
      </trkpt>
      <trkpt lat="48.85372" lon="2.36942">
        <ele>78</ele>
        <time>2012-12-18T20:48:07.000Z</time>
      </trkpt>
      <trkpt lat="48.85371" lon="2.3694">
        <ele>77</ele>
        <time>2012-12-18T20:48:13.000Z</time>
      </trkpt>
      <trkpt lat="48.85367" lon="2.3694">
        <ele>77</ele>
        <time>2012-12-18T20:48:14.000Z</time>
      </trkpt>
      <trkpt lat="48.85364" lon="2.36936">
        <ele>89</ele>
        <time>2012-12-18T20:49:57.000Z</time>
      </trkpt>
      <trkpt lat="48.85363" lon="2.36937">
        <ele>91</ele>
        <time>2012-12-18T20:49:58.000Z</time>
      </trkpt>
      <trkpt lat="48.85362" lon="2.36943">
        <ele>91</ele>
        <time>2012-12-18T20:50:16.000Z</time>
      </trkpt>
      <trkpt lat="48.85361" lon="2.36943">
        <ele>91</ele>
        <time>2012-12-18T20:50:17.000Z</time>
      </trkpt>
      <trkpt lat="48.85364" lon="2.36941">
        <ele>91</ele>
        <time>2012-12-18T20:50:25.000Z</time>
      </trkpt>
      <trkpt lat="48.85366" lon="2.3694">
        <ele>92</ele>
        <time>2012-12-18T20:50:26.000Z</time>
      </trkpt>
      <trkpt lat="48.85369" lon="2.36945">
        <ele>87</ele>
        <time>2012-12-18T20:50:36.000Z</time>
      </trkpt>
      <trkpt lat="48.8537" lon="2.36945">
        <ele>88</ele>
        <time>2012-12-18T20:50:37.000Z</time>
      </trkpt>
      <trkpt lat="48.85368" lon="2.36939">
        <ele>90</ele>
        <time>2012-12-18T20:54:25.000Z</time>
      </trkpt>
      <trkpt lat="48.85369" lon="2.36937">
        <ele>91</ele>
        <time>2012-12-18T20:54:26.000Z</time>
      </trkpt>
      <trkpt lat="48.85371" lon="2.36932">
        <ele>93</ele>
        <time>2012-12-18T20:54:28.000Z</time>
      </trkpt>
      <trkpt lat="48.85372" lon="2.36929">
        <ele>93</ele>
        <time>2012-12-18T20:54:29.000Z</time>
      </trkpt>
      <trkpt lat="48.85372" lon="2.36925">
        <ele>92</ele>
        <time>2012-12-18T20:54:31.000Z</time>
      </trkpt>
      <trkpt lat="48.85373" lon="2.36922">
        <ele>92</ele>
        <time>2012-12-18T20:54:32.000Z</time>
      </trkpt>
      <trkpt lat="48.85374" lon="2.36918">
        <ele>92</ele>
        <time>2012-12-18T20:54:34.000Z</time>
      </trkpt>
      <trkpt lat="48.85374" lon="2.36914">
        <ele>92</ele>
        <time>2012-12-18T20:54:35.000Z</time>
      </trkpt>
      <trkpt lat="48.85375" lon="2.36908">
        <ele>94</ele>
        <time>2012-12-18T20:54:39.000Z</time>
      </trkpt>
      <trkpt lat="48.85375" lon="2.36907">
        <ele>96</ele>
        <time>2012-12-18T20:54:40.000Z</time>
      </trkpt>
      <trkpt lat="48.85372" lon="2.36905">
        <ele>100</ele>
        <time>2012-12-18T20:55:07.000Z</time>
      </trkpt>
      <trkpt lat="48.85371" lon="2.36903">
        <ele>99</ele>
        <time>2012-12-18T20:55:08.000Z</time>
      </trkpt>
      <trkpt lat="48.85371" lon="2.36898">
        <ele>99</ele>
        <time>2012-12-18T20:55:10.000Z</time>
      </trkpt>
      <trkpt lat="48.85372" lon="2.36895">
        <ele>99</ele>
        <time>2012-12-18T20:55:11.000Z</time>
      </trkpt>
      <trkpt lat="48.85374" lon="2.36889">
        <ele>100</ele>
        <time>2012-12-18T20:55:13.000Z</time>
      </trkpt>
      <trkpt lat="48.85375" lon="2.36887">
        <ele>100</ele>
        <time>2012-12-18T20:55:14.000Z</time>
      </trkpt>
      <trkpt lat="48.85378" lon="2.36888">
        <ele>93</ele>
        <time>2012-12-18T20:55:25.000Z</time>
      </trkpt>
      <trkpt lat="48.85379" lon="2.36889">
        <ele>94</ele>
        <time>2012-12-18T20:55:26.000Z</time>
      </trkpt>
      <trkpt lat="48.8538" lon="2.36885">
        <ele>90</ele>
        <time>2012-12-18T20:55:52.000Z</time>
      </trkpt>
      <trkpt lat="48.85379" lon="2.36881">
        <ele>90</ele>
        <time>2012-12-18T20:55:53.000Z</time>
      </trkpt>
      <trkpt lat="48.85381" lon="2.36876">
        <ele>90</ele>
        <time>2012-12-18T20:55:55.000Z</time>
      </trkpt>
      <trkpt lat="48.85382" lon="2.36873">
        <ele>90</ele>
        <time>2012-12-18T20:55:56.000Z</time>
      </trkpt>
      <trkpt lat="48.85383" lon="2.36871">
        <ele>90</ele>
        <time>2012-12-18T20:55:57.000Z</time>
      </trkpt>
      <trkpt lat="48.85384" lon="2.36866">
        <ele>90</ele>
        <time>2012-12-18T20:55:58.000Z</time>
      </trkpt>
      <trkpt lat="48.85385" lon="2.3687">
        <ele>91</ele>
        <time>2012-12-18T20:56:30.000Z</time>
      </trkpt>
      <trkpt lat="48.85389" lon="2.36869">
        <ele>90</ele>
        <time>2012-12-18T20:56:31.000Z</time>
      </trkpt>
      <trkpt lat="48.85392" lon="2.36869">
        <ele>90</ele>
        <time>2012-12-18T20:56:32.000Z</time>
      </trkpt>
      <trkpt lat="48.85397" lon="2.36867">
        <ele>90</ele>
        <time>2012-12-18T20:56:33.000Z</time>
      </trkpt>
      <trkpt lat="48.85405" lon="2.36866">
        <ele>90</ele>
        <time>2012-12-18T20:56:34.000Z</time>
      </trkpt>
      <trkpt lat="48.85421" lon="2.36855">
        <ele>90</ele>
        <time>2012-12-18T20:56:35.000Z</time>
      </trkpt>
      <trkpt lat="48.85429" lon="2.36854">
        <ele>89</ele>
        <time>2012-12-18T20:56:36.000Z</time>
      </trkpt>
      <trkpt lat="48.85433" lon="2.36854">
        <ele>90</ele>
        <time>2012-12-18T20:56:37.000Z</time>
      </trkpt>
      <trkpt lat="48.85436" lon="2.36855">
        <ele>90</ele>
        <time>2012-12-18T20:56:38.000Z</time>
      </trkpt>
      <trkpt lat="48.8544" lon="2.36855">
        <ele>90</ele>
        <time>2012-12-18T20:56:39.000Z</time>
      </trkpt>
      <trkpt lat="48.85446" lon="2.36856">
        <ele>91</ele>
        <time>2012-12-18T20:56:40.000Z</time>
      </trkpt>
      <trkpt lat="48.85449" lon="2.36856">
        <ele>91</ele>
        <time>2012-12-18T20:56:41.000Z</time>
      </trkpt>
      <trkpt lat="48.85453" lon="2.36857">
        <ele>91</ele>
        <time>2012-12-18T20:56:42.000Z</time>
      </trkpt>
      <trkpt lat="48.85455" lon="2.36857">
        <ele>91</ele>
        <time>2012-12-18T20:56:43.000Z</time>
      </trkpt>
      <trkpt lat="48.8546" lon="2.36858">
        <ele>92</ele>
        <time>2012-12-18T20:56:44.000Z</time>
      </trkpt>
      <trkpt lat="48.85465" lon="2.3686">
        <ele>93</ele>
        <time>2012-12-18T20:56:45.000Z</time>
      </trkpt>
      <trkpt lat="48.85469" lon="2.36861">
        <ele>93</ele>
        <time>2012-12-18T20:56:46.000Z</time>
      </trkpt>
      <trkpt lat="48.85473" lon="2.3686">
        <ele>92</ele>
        <time>2012-12-18T20:56:47.000Z</time>
      </trkpt>
      <trkpt lat="48.85477" lon="2.3686">
        <ele>93</ele>
        <time>2012-12-18T20:56:48.000Z</time>
      </trkpt>
      <trkpt lat="48.85481" lon="2.36861">
        <ele>92</ele>
        <time>2012-12-18T20:56:49.000Z</time>
      </trkpt>
      <trkpt lat="48.85485" lon="2.36859">
        <ele>92</ele>
        <time>2012-12-18T20:56:50.000Z</time>
      </trkpt>
      <trkpt lat="48.85487" lon="2.36859">
        <ele>91</ele>
        <time>2012-12-18T20:56:51.000Z</time>
      </trkpt>
      <trkpt lat="48.85494" lon="2.36852">
        <ele>90</ele>
        <time>2012-12-18T20:56:52.000Z</time>
      </trkpt>
      <trkpt lat="48.85498" lon="2.3685">
        <ele>91</ele>
        <time>2012-12-18T20:56:54.000Z</time>
      </trkpt>
      <trkpt lat="48.855" lon="2.36852">
        <ele>92</ele>
        <time>2012-12-18T20:56:55.000Z</time>
      </trkpt>
      <trkpt lat="48.85505" lon="2.36854">
        <ele>92</ele>
        <time>2012-12-18T20:56:56.000Z</time>
      </trkpt>
      <trkpt lat="48.85509" lon="2.36855">
        <ele>92</ele>
        <time>2012-12-18T20:56:57.000Z</time>
      </trkpt>
      <trkpt lat="48.85514" lon="2.36855">
        <ele>93</ele>
        <time>2012-12-18T20:56:58.000Z</time>
      </trkpt>
      <trkpt lat="48.85518" lon="2.36857">
        <ele>93</ele>
        <time>2012-12-18T20:56:59.000Z</time>
      </trkpt>
      <trkpt lat="48.85524" lon="2.36859">
        <ele>93</ele>
        <time>2012-12-18T20:57:00.000Z</time>
      </trkpt>
      <trkpt lat="48.85526" lon="2.36859">
        <ele>93</ele>
        <time>2012-12-18T20:57:01.000Z</time>
      </trkpt>
      <trkpt lat="48.85531" lon="2.3686">
        <ele>94</ele>
        <time>2012-12-18T20:57:02.000Z</time>
      </trkpt>
      <trkpt lat="48.85534" lon="2.36859">
        <ele>94</ele>
        <time>2012-12-18T20:57:03.000Z</time>
      </trkpt>
      <trkpt lat="48.85539" lon="2.36858">
        <ele>94</ele>
        <time>2012-12-18T20:57:04.000Z</time>
      </trkpt>
      <trkpt lat="48.85542" lon="2.36856">
        <ele>93</ele>
        <time>2012-12-18T20:57:07.000Z</time>
      </trkpt>
      <trkpt lat="48.85544" lon="2.36854">
        <ele>93</ele>
        <time>2012-12-18T20:57:08.000Z</time>
      </trkpt>
      <trkpt lat="48.85548" lon="2.36852">
        <ele>93</ele>
        <time>2012-12-18T20:57:09.000Z</time>
      </trkpt>
      <trkpt lat="48.85552" lon="2.36848">
        <ele>93</ele>
        <time>2012-12-18T20:57:10.000Z</time>
      </trkpt>
      <trkpt lat="48.85562" lon="2.36833">
        <ele>92</ele>
        <time>2012-12-18T20:57:11.000Z</time>
      </trkpt>
      <trkpt lat="48.85565" lon="2.3683">
        <ele>92</ele>
        <time>2012-12-18T20:57:12.000Z</time>
      </trkpt>
      <trkpt lat="48.85569" lon="2.36826">
        <ele>91</ele>
        <time>2012-12-18T20:57:13.000Z</time>
      </trkpt>
      <trkpt lat="48.85571" lon="2.36825">
        <ele>92</ele>
        <time>2012-12-18T20:57:14.000Z</time>
      </trkpt>
      <trkpt lat="48.85575" lon="2.36819">
        <ele>91</ele>
        <time>2012-12-18T20:57:15.000Z</time>
      </trkpt>
      <trkpt lat="48.85578" lon="2.36816">
        <ele>91</ele>
        <time>2012-12-18T20:57:16.000Z</time>
      </trkpt>
      <trkpt lat="48.8558" lon="2.36811">
        <ele>91</ele>
        <time>2012-12-18T20:57:17.000Z</time>
      </trkpt>
      <trkpt lat="48.85583" lon="2.36807">
        <ele>91</ele>
        <time>2012-12-18T20:57:18.000Z</time>
      </trkpt>
      <trkpt lat="48.85585" lon="2.36804">
        <ele>91</ele>
        <time>2012-12-18T20:57:19.000Z</time>
      </trkpt>
      <trkpt lat="48.85587" lon="2.368">
        <ele>91</ele>
        <time>2012-12-18T20:57:20.000Z</time>
      </trkpt>
      <trkpt lat="48.8559" lon="2.36797">
        <ele>90</ele>
        <time>2012-12-18T20:57:21.000Z</time>
      </trkpt>
      <trkpt lat="48.85591" lon="2.36792">
        <ele>90</ele>
        <time>2012-12-18T20:57:22.000Z</time>
      </trkpt>
      <trkpt lat="48.85592" lon="2.36786">
        <ele>90</ele>
        <time>2012-12-18T20:57:23.000Z</time>
      </trkpt>
      <trkpt lat="48.85593" lon="2.36782">
        <ele>90</ele>
        <time>2012-12-18T20:57:24.000Z</time>
      </trkpt>
      <trkpt lat="48.85595" lon="2.36779">
        <ele>90</ele>
        <time>2012-12-18T20:57:25.000Z</time>
      </trkpt>
      <trkpt lat="48.85598" lon="2.36776">
        <ele>90</ele>
        <time>2012-12-18T20:57:26.000Z</time>
      </trkpt>
      <trkpt lat="48.856" lon="2.36773">
        <ele>90</ele>
        <time>2012-12-18T20:57:27.000Z</time>
      </trkpt>
      <trkpt lat="48.85602" lon="2.3677">
        <ele>90</ele>
        <time>2012-12-18T20:57:28.000Z</time>
      </trkpt>
      <trkpt lat="48.85603" lon="2.36766">
        <ele>90</ele>
        <time>2012-12-18T20:57:29.000Z</time>
      </trkpt>
      <trkpt lat="48.85605" lon="2.36764">
        <ele>90</ele>
        <time>2012-12-18T20:57:30.000Z</time>
      </trkpt>
      <trkpt lat="48.85604" lon="2.36756">
        <ele>90</ele>
        <time>2012-12-18T20:57:31.000Z</time>
      </trkpt>
      <trkpt lat="48.85607" lon="2.36754">
        <ele>91</ele>
        <time>2012-12-18T20:57:32.000Z</time>
      </trkpt>
      <trkpt lat="48.8561" lon="2.36751">
        <ele>91</ele>
        <time>2012-12-18T20:57:33.000Z</time>
      </trkpt>
      <trkpt lat="48.85607" lon="2.36745">
        <ele>91</ele>
        <time>2012-12-18T20:57:34.000Z</time>
      </trkpt>
      <trkpt lat="48.85609" lon="2.3674">
        <ele>90</ele>
        <time>2012-12-18T20:57:36.000Z</time>
      </trkpt>
      <trkpt lat="48.85611" lon="2.36732">
        <ele>90</ele>
        <time>2012-12-18T20:57:37.000Z</time>
      </trkpt>
      <trkpt lat="48.85613" lon="2.36729">
        <ele>90</ele>
        <time>2012-12-18T20:57:38.000Z</time>
      </trkpt>
      <trkpt lat="48.85614" lon="2.36723">
        <ele>89</ele>
        <time>2012-12-18T20:57:39.000Z</time>
      </trkpt>
      <trkpt lat="48.85616" lon="2.36717">
        <ele>89</ele>
        <time>2012-12-18T20:57:40.000Z</time>
      </trkpt>
      <trkpt lat="48.85617" lon="2.36714">
        <ele>89</ele>
        <time>2012-12-18T20:57:41.000Z</time>
      </trkpt>
      <trkpt lat="48.85618" lon="2.36708">
        <ele>89</ele>
        <time>2012-12-18T20:57:42.000Z</time>
      </trkpt>
      <trkpt lat="48.85618" lon="2.36707">
        <ele>89</ele>
        <time>2012-12-18T20:57:43.000Z</time>
      </trkpt>
      <trkpt lat="48.85615" lon="2.36698">
        <ele>88</ele>
        <time>2012-12-18T20:57:44.000Z</time>
      </trkpt>
      <trkpt lat="48.8561" lon="2.36686">
        <ele>86</ele>
        <time>2012-12-18T20:57:45.000Z</time>
      </trkpt>
      <trkpt lat="48.85611" lon="2.36678">
        <ele>87</ele>
        <time>2012-12-18T20:57:46.000Z</time>
      </trkpt>
      <trkpt lat="48.85607" lon="2.36673">
        <ele>86</ele>
        <time>2012-12-18T20:57:47.000Z</time>
      </trkpt>
      <trkpt lat="48.85605" lon="2.36667">
        <ele>86</ele>
        <time>2012-12-18T20:57:48.000Z</time>
      </trkpt>
      <trkpt lat="48.85601" lon="2.36664">
        <ele>86</ele>
        <time>2012-12-18T20:57:49.000Z</time>
      </trkpt>
      <trkpt lat="48.85599" lon="2.36661">
        <ele>87</ele>
        <time>2012-12-18T20:57:50.000Z</time>
      </trkpt>
      <trkpt lat="48.85596" lon="2.36658">
        <ele>86</ele>
        <time>2012-12-18T20:57:51.000Z</time>
      </trkpt>
      <trkpt lat="48.85593" lon="2.36656">
        <ele>86</ele>
        <time>2012-12-18T20:57:52.000Z</time>
      </trkpt>
      <trkpt lat="48.8559" lon="2.36656">
        <ele>86</ele>
        <time>2012-12-18T20:57:53.000Z</time>
      </trkpt>
      <trkpt lat="48.85587" lon="2.36655">
        <ele>86</ele>
        <time>2012-12-18T20:57:54.000Z</time>
      </trkpt>
      <trkpt lat="48.85583" lon="2.36655">
        <ele>86</ele>
        <time>2012-12-18T20:57:55.000Z</time>
      </trkpt>
      <trkpt lat="48.85579" lon="2.36654">
        <ele>85</ele>
        <time>2012-12-18T20:57:56.000Z</time>
      </trkpt>
      <trkpt lat="48.85577" lon="2.36653">
        <ele>86</ele>
        <time>2012-12-18T20:57:57.000Z</time>
      </trkpt>
      <trkpt lat="48.85572" lon="2.36652">
        <ele>85</ele>
        <time>2012-12-18T20:57:59.000Z</time>
      </trkpt>
      <trkpt lat="48.8557" lon="2.3665">
        <ele>85</ele>
        <time>2012-12-18T20:58:00.000Z</time>
      </trkpt>
      <trkpt lat="48.85566" lon="2.36648">
        <ele>84</ele>
        <time>2012-12-18T20:58:01.000Z</time>
      </trkpt>
      <trkpt lat="48.85563" lon="2.36646">
        <ele>84</ele>
        <time>2012-12-18T20:58:02.000Z</time>
      </trkpt>
      <trkpt lat="48.8556" lon="2.36644">
        <ele>84</ele>
        <time>2012-12-18T20:58:03.000Z</time>
      </trkpt>
      <trkpt lat="48.85556" lon="2.36643">
        <ele>83</ele>
        <time>2012-12-18T20:58:04.000Z</time>
      </trkpt>
      <trkpt lat="48.85553" lon="2.36641">
        <ele>82</ele>
        <time>2012-12-18T20:58:05.000Z</time>
      </trkpt>
      <trkpt lat="48.85549" lon="2.36641">
        <ele>82</ele>
        <time>2012-12-18T20:58:06.000Z</time>
      </trkpt>
      <trkpt lat="48.85545" lon="2.36639">
        <ele>82</ele>
        <time>2012-12-18T20:58:07.000Z</time>
      </trkpt>
      <trkpt lat="48.85542" lon="2.36639">
        <ele>81</ele>
        <time>2012-12-18T20:58:08.000Z</time>
      </trkpt>
      <trkpt lat="48.85539" lon="2.36641">
        <ele>81</ele>
        <time>2012-12-18T20:58:09.000Z</time>
      </trkpt>
      <trkpt lat="48.85535" lon="2.36639">
        <ele>81</ele>
        <time>2012-12-18T20:58:10.000Z</time>
      </trkpt>
      <trkpt lat="48.85532" lon="2.36639">
        <ele>81</ele>
        <time>2012-12-18T20:58:11.000Z</time>
      </trkpt>
      <trkpt lat="48.85528" lon="2.36638">
        <ele>81</ele>
        <time>2012-12-18T20:58:12.000Z</time>
      </trkpt>
      <trkpt lat="48.85524" lon="2.36636">
        <ele>80</ele>
        <time>2012-12-18T20:58:13.000Z</time>
      </trkpt>
      <trkpt lat="48.8552" lon="2.36635">
        <ele>80</ele>
        <time>2012-12-18T20:58:14.000Z</time>
      </trkpt>
      <trkpt lat="48.85518" lon="2.36634">
        <ele>80</ele>
        <time>2012-12-18T20:58:15.000Z</time>
      </trkpt>
      <trkpt lat="48.85514" lon="2.36632">
        <ele>81</ele>
        <time>2012-12-18T20:58:16.000Z</time>
      </trkpt>
      <trkpt lat="48.85512" lon="2.36631">
        <ele>81</ele>
        <time>2012-12-18T20:58:17.000Z</time>
      </trkpt>
      <trkpt lat="48.85507" lon="2.36631">
        <ele>81</ele>
        <time>2012-12-18T20:58:18.000Z</time>
      </trkpt>
      <trkpt lat="48.85504" lon="2.36629">
        <ele>81</ele>
        <time>2012-12-18T20:58:19.000Z</time>
      </trkpt>
      <trkpt lat="48.85502" lon="2.36622">
        <ele>82</ele>
        <time>2012-12-18T20:58:20.000Z</time>
      </trkpt>
      <trkpt lat="48.85502" lon="2.36619">
        <ele>82</ele>
        <time>2012-12-18T20:58:21.000Z</time>
      </trkpt>
      <trkpt lat="48.855" lon="2.36615">
        <ele>81</ele>
        <time>2012-12-18T20:58:22.000Z</time>
      </trkpt>
      <trkpt lat="48.85498" lon="2.36607">
        <ele>84</ele>
        <time>2012-12-18T20:58:23.000Z</time>
      </trkpt>
      <trkpt lat="48.85497" lon="2.36601">
        <ele>83</ele>
        <time>2012-12-18T20:58:24.000Z</time>
      </trkpt>
      <trkpt lat="48.85496" lon="2.36594">
        <ele>84</ele>
        <time>2012-12-18T20:58:25.000Z</time>
      </trkpt>
      <trkpt lat="48.85497" lon="2.36589">
        <ele>83</ele>
        <time>2012-12-18T20:58:26.000Z</time>
      </trkpt>
      <trkpt lat="48.85498" lon="2.36584">
        <ele>83</ele>
        <time>2012-12-18T20:58:27.000Z</time>
      </trkpt>
      <trkpt lat="48.85496" lon="2.36576">
        <ele>84</ele>
        <time>2012-12-18T20:58:28.000Z</time>
      </trkpt>
      <trkpt lat="48.85497" lon="2.3657">
        <ele>84</ele>
        <time>2012-12-18T20:58:29.000Z</time>
      </trkpt>
      <trkpt lat="48.85499" lon="2.36565">
        <ele>83</ele>
        <time>2012-12-18T20:58:30.000Z</time>
      </trkpt>
      <trkpt lat="48.85501" lon="2.3656">
        <ele>83</ele>
        <time>2012-12-18T20:58:31.000Z</time>
      </trkpt>
      <trkpt lat="48.85502" lon="2.36556">
        <ele>83</ele>
        <time>2012-12-18T20:58:32.000Z</time>
      </trkpt>
      <trkpt lat="48.85502" lon="2.36549">
        <ele>83</ele>
        <time>2012-12-18T20:58:33.000Z</time>
      </trkpt>
      <trkpt lat="48.85502" lon="2.36545">
        <ele>84</ele>
        <time>2012-12-18T20:58:34.000Z</time>
      </trkpt>
      <trkpt lat="48.85505" lon="2.36541">
        <ele>84</ele>
        <time>2012-12-18T20:58:35.000Z</time>
      </trkpt>
      <trkpt lat="48.85507" lon="2.36536">
        <ele>84</ele>
        <time>2012-12-18T20:58:36.000Z</time>
      </trkpt>
      <trkpt lat="48.85509" lon="2.36532">
        <ele>84</ele>
        <time>2012-12-18T20:58:37.000Z</time>
      </trkpt>
      <trkpt lat="48.85512" lon="2.36526">
        <ele>85</ele>
        <time>2012-12-18T20:58:38.000Z</time>
      </trkpt>
      <trkpt lat="48.85513" lon="2.36518">
        <ele>85</ele>
        <time>2012-12-18T20:58:39.000Z</time>
      </trkpt>
      <trkpt lat="48.85512" lon="2.36509">
        <ele>86</ele>
        <time>2012-12-18T20:58:40.000Z</time>
      </trkpt>
      <trkpt lat="48.85514" lon="2.36503">
        <ele>87</ele>
        <time>2012-12-18T20:58:41.000Z</time>
      </trkpt>
      <trkpt lat="48.85514" lon="2.36497">
        <ele>87</ele>
        <time>2012-12-18T20:58:42.000Z</time>
      </trkpt>
      <trkpt lat="48.85516" lon="2.36491">
        <ele>87</ele>
        <time>2012-12-18T20:58:43.000Z</time>
      </trkpt>
      <trkpt lat="48.85516" lon="2.36487">
        <ele>87</ele>
        <time>2012-12-18T20:58:44.000Z</time>
      </trkpt>
      <trkpt lat="48.85516" lon="2.36483">
        <ele>87</ele>
        <time>2012-12-18T20:58:45.000Z</time>
      </trkpt>
      <trkpt lat="48.85518" lon="2.36481">
        <ele>86</ele>
        <time>2012-12-18T20:58:46.000Z</time>
      </trkpt>
      <trkpt lat="48.85518" lon="2.36477">
        <ele>86</ele>
        <time>2012-12-18T20:58:47.000Z</time>
      </trkpt>
      <trkpt lat="48.85521" lon="2.36472">
        <ele>86</ele>
        <time>2012-12-18T20:58:48.000Z</time>
      </trkpt>
      <trkpt lat="48.85522" lon="2.36469">
        <ele>86</ele>
        <time>2012-12-18T20:58:49.000Z</time>
      </trkpt>
      <trkpt lat="48.85523" lon="2.36465">
        <ele>87</ele>
        <time>2012-12-18T20:58:51.000Z</time>
      </trkpt>
      <trkpt lat="48.85525" lon="2.36461">
        <ele>87</ele>
        <time>2012-12-18T20:58:52.000Z</time>
      </trkpt>
      <trkpt lat="48.8553" lon="2.3646">
        <ele>87</ele>
        <time>2012-12-18T20:58:53.000Z</time>
      </trkpt>
      <trkpt lat="48.85535" lon="2.36456">
        <ele>87</ele>
        <time>2012-12-18T20:58:54.000Z</time>
      </trkpt>
      <trkpt lat="48.85538" lon="2.36453">
        <ele>87</ele>
        <time>2012-12-18T20:58:55.000Z</time>
      </trkpt>
      <trkpt lat="48.8554" lon="2.36452">
        <ele>87</ele>
        <time>2012-12-18T20:58:56.000Z</time>
      </trkpt>
      <trkpt lat="48.85543" lon="2.36451">
        <ele>87</ele>
        <time>2012-12-18T20:58:57.000Z</time>
      </trkpt>
      <trkpt lat="48.85547" lon="2.36452">
        <ele>87</ele>
        <time>2012-12-18T20:58:58.000Z</time>
      </trkpt>
      <trkpt lat="48.85549" lon="2.36452">
        <ele>87</ele>
        <time>2012-12-18T20:58:59.000Z</time>
      </trkpt>
      <trkpt lat="48.85553" lon="2.36455">
        <ele>87</ele>
        <time>2012-12-18T20:59:00.000Z</time>
      </trkpt>
      <trkpt lat="48.85557" lon="2.36459">
        <ele>86</ele>
        <time>2012-12-18T20:59:01.000Z</time>
      </trkpt>
      <trkpt lat="48.85557" lon="2.36463">
        <ele>86</ele>
        <time>2012-12-18T20:59:02.000Z</time>
      </trkpt>
      <trkpt lat="48.85559" lon="2.36465">
        <ele>85</ele>
        <time>2012-12-18T20:59:03.000Z</time>
      </trkpt>
      <trkpt lat="48.85563" lon="2.36468">
        <ele>85</ele>
        <time>2012-12-18T20:59:04.000Z</time>
      </trkpt>
      <trkpt lat="48.85565" lon="2.36472">
        <ele>86</ele>
        <time>2012-12-18T20:59:05.000Z</time>
      </trkpt>
      <trkpt lat="48.85568" lon="2.36472">
        <ele>86</ele>
        <time>2012-12-18T20:59:06.000Z</time>
      </trkpt>
      <trkpt lat="48.85572" lon="2.36475">
        <ele>85</ele>
        <time>2012-12-18T20:59:07.000Z</time>
      </trkpt>
      <trkpt lat="48.85577" lon="2.36476">
        <ele>86</ele>
        <time>2012-12-18T20:59:08.000Z</time>
      </trkpt>
      <trkpt lat="48.85579" lon="2.36477">
        <ele>85</ele>
        <time>2012-12-18T20:59:09.000Z</time>
      </trkpt>
      <trkpt lat="48.85585" lon="2.36476">
        <ele>85</ele>
        <time>2012-12-18T20:59:10.000Z</time>
      </trkpt>
      <trkpt lat="48.8559" lon="2.36478">
        <ele>85</ele>
        <time>2012-12-18T20:59:11.000Z</time>
      </trkpt>
      <trkpt lat="48.85595" lon="2.36476">
        <ele>85</ele>
        <time>2012-12-18T20:59:12.000Z</time>
      </trkpt>
      <trkpt lat="48.85601" lon="2.36478">
        <ele>85</ele>
        <time>2012-12-18T20:59:13.000Z</time>
      </trkpt>
      <trkpt lat="48.85604" lon="2.36476">
        <ele>85</ele>
        <time>2012-12-18T20:59:14.000Z</time>
      </trkpt>
      <trkpt lat="48.85607" lon="2.36478">
        <ele>85</ele>
        <time>2012-12-18T20:59:15.000Z</time>
      </trkpt>
      <trkpt lat="48.85608" lon="2.36484">
        <ele>84</ele>
        <time>2012-12-18T20:59:16.000Z</time>
      </trkpt>
      <trkpt lat="48.85613" lon="2.36486">
        <ele>86</ele>
        <time>2012-12-18T20:59:17.000Z</time>
      </trkpt>
      <trkpt lat="48.85616" lon="2.36493">
        <ele>87</ele>
        <time>2012-12-18T20:59:18.000Z</time>
      </trkpt>
      <trkpt lat="48.85619" lon="2.36489">
        <ele>86</ele>
        <time>2012-12-18T20:59:19.000Z</time>
      </trkpt>
      <trkpt lat="48.85621" lon="2.3649">
        <ele>86</ele>
        <time>2012-12-18T20:59:20.000Z</time>
      </trkpt>
      <trkpt lat="48.85624" lon="2.36493">
        <ele>86</ele>
        <time>2012-12-18T20:59:22.000Z</time>
      </trkpt>
      <trkpt lat="48.85631" lon="2.36481">
        <ele>85</ele>
        <time>2012-12-18T20:59:23.000Z</time>
      </trkpt>
      <trkpt lat="48.85634" lon="2.36478">
        <ele>85</ele>
        <time>2012-12-18T20:59:25.000Z</time>
      </trkpt>
      <trkpt lat="48.85636" lon="2.36476">
        <ele>84</ele>
        <time>2012-12-18T20:59:26.000Z</time>
      </trkpt>
      <trkpt lat="48.85638" lon="2.36473">
        <ele>84</ele>
        <time>2012-12-18T20:59:28.000Z</time>
      </trkpt>
      <trkpt lat="48.85638" lon="2.36469">
        <ele>84</ele>
        <time>2012-12-18T20:59:29.000Z</time>
      </trkpt>
      <trkpt lat="48.8564" lon="2.36465">
        <ele>85</ele>
        <time>2012-12-18T20:59:31.000Z</time>
      </trkpt>
      <trkpt lat="48.85641" lon="2.36464">
        <ele>85</ele>
        <time>2012-12-18T20:59:32.000Z</time>
      </trkpt>
      <trkpt lat="48.85642" lon="2.36461">
        <ele>85</ele>
        <time>2012-12-18T20:59:33.000Z</time>
      </trkpt>
      <trkpt lat="48.85639" lon="2.36456">
        <ele>84</ele>
        <time>2012-12-18T20:59:34.000Z</time>
      </trkpt>
      <trkpt lat="48.85642" lon="2.36451">
        <ele>84</ele>
        <time>2012-12-18T20:59:36.000Z</time>
      </trkpt>
      <trkpt lat="48.85645" lon="2.36449">
        <ele>83</ele>
        <time>2012-12-18T20:59:37.000Z</time>
      </trkpt>
      <trkpt lat="48.85649" lon="2.36444">
        <ele>83</ele>
        <time>2012-12-18T20:59:39.000Z</time>
      </trkpt>
      <trkpt lat="48.85651" lon="2.36443">
        <ele>83</ele>
        <time>2012-12-18T20:59:40.000Z</time>
      </trkpt>
      <trkpt lat="48.85653" lon="2.36439">
        <ele>82</ele>
        <time>2012-12-18T20:59:42.000Z</time>
      </trkpt>
      <trkpt lat="48.85656" lon="2.36438">
        <ele>82</ele>
        <time>2012-12-18T20:59:43.000Z</time>
      </trkpt>
      <trkpt lat="48.85658" lon="2.36437">
        <ele>82</ele>
        <time>2012-12-18T20:59:44.000Z</time>
      </trkpt>
      <trkpt lat="48.8566" lon="2.36435">
        <ele>82</ele>
        <time>2012-12-18T20:59:45.000Z</time>
      </trkpt>
      <trkpt lat="48.85661" lon="2.36435">
        <ele>82</ele>
        <time>2012-12-18T20:59:46.000Z</time>
      </trkpt>
      <trkpt lat="48.85666" lon="2.36437">
        <ele>83</ele>
        <time>2012-12-18T20:59:47.000Z</time>
      </trkpt>
      <trkpt lat="48.85668" lon="2.36438">
        <ele>83</ele>
        <time>2012-12-18T20:59:48.000Z</time>
      </trkpt>
      <trkpt lat="48.85671" lon="2.36438">
        <ele>82</ele>
        <time>2012-12-18T20:59:49.000Z</time>
      </trkpt>
      <trkpt lat="48.85673" lon="2.36437">
        <ele>82</ele>
        <time>2012-12-18T20:59:50.000Z</time>
      </trkpt>
      <trkpt lat="48.85677" lon="2.36437">
        <ele>82</ele>
        <time>2012-12-18T20:59:51.000Z</time>
      </trkpt>
      <trkpt lat="48.8568" lon="2.36437">
        <ele>82</ele>
        <time>2012-12-18T20:59:52.000Z</time>
      </trkpt>
      <trkpt lat="48.85682" lon="2.36437">
        <ele>82</ele>
        <time>2012-12-18T20:59:53.000Z</time>
      </trkpt>
      <trkpt lat="48.85684" lon="2.36436">
        <ele>82</ele>
        <time>2012-12-18T20:59:54.000Z</time>
      </trkpt>
      <trkpt lat="48.85687" lon="2.36437">
        <ele>82</ele>
        <time>2012-12-18T20:59:55.000Z</time>
      </trkpt>
      <trkpt lat="48.8569" lon="2.3644">
        <ele>82</ele>
        <time>2012-12-18T20:59:56.000Z</time>
      </trkpt>
      <trkpt lat="48.85694" lon="2.3644">
        <ele>83</ele>
        <time>2012-12-18T20:59:57.000Z</time>
      </trkpt>
      <trkpt lat="48.85698" lon="2.36439">
        <ele>83</ele>
        <time>2012-12-18T20:59:58.000Z</time>
      </trkpt>
      <trkpt lat="48.85703" lon="2.3644">
        <ele>83</ele>
        <time>2012-12-18T20:59:59.000Z</time>
      </trkpt>
      <trkpt lat="48.85706" lon="2.36438">
        <ele>83</ele>
        <time>2012-12-18T21:00:00.000Z</time>
      </trkpt>
      <trkpt lat="48.85708" lon="2.36437">
        <ele>83</ele>
        <time>2012-12-18T21:00:01.000Z</time>
      </trkpt>
      <trkpt lat="48.85711" lon="2.36438">
        <ele>84</ele>
        <time>2012-12-18T21:00:04.000Z</time>
      </trkpt>
      <trkpt lat="48.85716" lon="2.36438">
        <ele>84</ele>
        <time>2012-12-18T21:00:05.000Z</time>
      </trkpt>
      <trkpt lat="48.85718" lon="2.36438">
        <ele>84</ele>
        <time>2012-12-18T21:00:06.000Z</time>
      </trkpt>
      <trkpt lat="48.85721" lon="2.36436">
        <ele>84</ele>
        <time>2012-12-18T21:00:07.000Z</time>
      </trkpt>
      <trkpt lat="48.85725" lon="2.36436">
        <ele>83</ele>
        <time>2012-12-18T21:00:08.000Z</time>
      </trkpt>
      <trkpt lat="48.85726" lon="2.36435">
        <ele>83</ele>
        <time>2012-12-18T21:00:09.000Z</time>
      </trkpt>
      <trkpt lat="48.85732" lon="2.36436">
        <ele>82</ele>
        <time>2012-12-18T21:00:10.000Z</time>
      </trkpt>
      <trkpt lat="48.85736" lon="2.36436">
        <ele>83</ele>
        <time>2012-12-18T21:00:11.000Z</time>
      </trkpt>
      <trkpt lat="48.8574" lon="2.36434">
        <ele>83</ele>
        <time>2012-12-18T21:00:12.000Z</time>
      </trkpt>
      <trkpt lat="48.85741" lon="2.36435">
        <ele>83</ele>
        <time>2012-12-18T21:00:13.000Z</time>
      </trkpt>
      <trkpt lat="48.85745" lon="2.36432">
        <ele>83</ele>
        <time>2012-12-18T21:00:14.000Z</time>
      </trkpt>
      <trkpt lat="48.85748" lon="2.36431">
        <ele>83</ele>
        <time>2012-12-18T21:00:15.000Z</time>
      </trkpt>
      <trkpt lat="48.8575" lon="2.36431">
        <ele>83</ele>
        <time>2012-12-18T21:00:16.000Z</time>
      </trkpt>
      <trkpt lat="48.85755" lon="2.36432">
        <ele>83</ele>
        <time>2012-12-18T21:00:17.000Z</time>
      </trkpt>
      <trkpt lat="48.85763" lon="2.36434">
        <ele>84</ele>
        <time>2012-12-18T21:00:18.000Z</time>
      </trkpt>
      <trkpt lat="48.8577" lon="2.36435">
        <ele>85</ele>
        <time>2012-12-18T21:00:19.000Z</time>
      </trkpt>
      <trkpt lat="48.85781" lon="2.36434">
        <ele>85</ele>
        <time>2012-12-18T21:00:20.000Z</time>
      </trkpt>
      <trkpt lat="48.85789" lon="2.36435">
        <ele>85</ele>
        <time>2012-12-18T21:00:21.000Z</time>
      </trkpt>
      <trkpt lat="48.85795" lon="2.36433">
        <ele>86</ele>
        <time>2012-12-18T21:00:22.000Z</time>
      </trkpt>
      <trkpt lat="48.85799" lon="2.3643">
        <ele>86</ele>
        <time>2012-12-18T21:00:23.000Z</time>
      </trkpt>
      <trkpt lat="48.85804" lon="2.36426">
        <ele>86</ele>
        <time>2012-12-18T21:00:24.000Z</time>
      </trkpt>
      <trkpt lat="48.85809" lon="2.36418">
        <ele>87</ele>
        <time>2012-12-18T21:00:25.000Z</time>
      </trkpt>
      <trkpt lat="48.85814" lon="2.36413">
        <ele>87</ele>
        <time>2012-12-18T21:00:26.000Z</time>
      </trkpt>
      <trkpt lat="48.85818" lon="2.36409">
        <ele>87</ele>
        <time>2012-12-18T21:00:27.000Z</time>
      </trkpt>
      <trkpt lat="48.85822" lon="2.36405">
        <ele>87</ele>
        <time>2012-12-18T21:00:28.000Z</time>
      </trkpt>
      <trkpt lat="48.85825" lon="2.36401">
        <ele>87</ele>
        <time>2012-12-18T21:00:29.000Z</time>
      </trkpt>
      <trkpt lat="48.85826" lon="2.36394">
        <ele>87</ele>
        <time>2012-12-18T21:00:30.000Z</time>
      </trkpt>
      <trkpt lat="48.85825" lon="2.36388">
        <ele>87</ele>
        <time>2012-12-18T21:00:31.000Z</time>
      </trkpt>
      <trkpt lat="48.8583" lon="2.36383">
        <ele>87</ele>
        <time>2012-12-18T21:00:32.000Z</time>
      </trkpt>
      <trkpt lat="48.85833" lon="2.36378">
        <ele>87</ele>
        <time>2012-12-18T21:00:33.000Z</time>
      </trkpt>
      <trkpt lat="48.85835" lon="2.36373">
        <ele>86</ele>
        <time>2012-12-18T21:00:34.000Z</time>
      </trkpt>
      <trkpt lat="48.85838" lon="2.36368">
        <ele>85</ele>
        <time>2012-12-18T21:00:35.000Z</time>
      </trkpt>
      <trkpt lat="48.85842" lon="2.36362">
        <ele>85</ele>
        <time>2012-12-18T21:00:36.000Z</time>
      </trkpt>
      <trkpt lat="48.85844" lon="2.36357">
        <ele>85</ele>
        <time>2012-12-18T21:00:37.000Z</time>
      </trkpt>
      <trkpt lat="48.85845" lon="2.36352">
        <ele>84</ele>
        <time>2012-12-18T21:00:38.000Z</time>
      </trkpt>
      <trkpt lat="48.85847" lon="2.36348">
        <ele>84</ele>
        <time>2012-12-18T21:00:39.000Z</time>
      </trkpt>
      <trkpt lat="48.85849" lon="2.36344">
        <ele>84</ele>
        <time>2012-12-18T21:00:40.000Z</time>
      </trkpt>
      <trkpt lat="48.85851" lon="2.36341">
        <ele>84</ele>
        <time>2012-12-18T21:00:41.000Z</time>
      </trkpt>
      <trkpt lat="48.85853" lon="2.36337">
        <ele>84</ele>
        <time>2012-12-18T21:00:42.000Z</time>
      </trkpt>
      <trkpt lat="48.85855" lon="2.36333">
        <ele>84</ele>
        <time>2012-12-18T21:00:43.000Z</time>
      </trkpt>
      <trkpt lat="48.85857" lon="2.3633">
        <ele>83</ele>
        <time>2012-12-18T21:00:44.000Z</time>
      </trkpt>
      <trkpt lat="48.85858" lon="2.36326">
        <ele>84</ele>
        <time>2012-12-18T21:00:45.000Z</time>
      </trkpt>
      <trkpt lat="48.85858" lon="2.36321">
        <ele>85</ele>
        <time>2012-12-18T21:00:46.000Z</time>
      </trkpt>
      <trkpt lat="48.85861" lon="2.36317">
        <ele>84</ele>
        <time>2012-12-18T21:00:48.000Z</time>
      </trkpt>
      <trkpt lat="48.85862" lon="2.36315">
        <ele>84</ele>
        <time>2012-12-18T21:00:49.000Z</time>
      </trkpt>
      <trkpt lat="48.85863" lon="2.36309">
        <ele>83</ele>
        <time>2012-12-18T21:00:52.000Z</time>
      </trkpt>
      <trkpt lat="48.85864" lon="2.36309">
        <ele>83</ele>
        <time>2012-12-18T21:00:53.000Z</time>
      </trkpt>
      <trkpt lat="48.85864" lon="2.36303">
        <ele>83</ele>
        <time>2012-12-18T21:00:57.000Z</time>
      </trkpt>
      <trkpt lat="48.85865" lon="2.36302">
        <ele>83</ele>
        <time>2012-12-18T21:00:58.000Z</time>
      </trkpt>
      <trkpt lat="48.85865" lon="2.36297">
        <ele>83</ele>
        <time>2012-12-18T21:01:00.000Z</time>
      </trkpt>
      <trkpt lat="48.85865" lon="2.36294">
        <ele>83</ele>
        <time>2012-12-18T21:01:01.000Z</time>
      </trkpt>
      <trkpt lat="48.85867" lon="2.3629">
        <ele>83</ele>
        <time>2012-12-18T21:01:04.000Z</time>
      </trkpt>
      <trkpt lat="48.85868" lon="2.36288">
        <ele>83</ele>
        <time>2012-12-18T21:01:05.000Z</time>
      </trkpt>
      <trkpt lat="48.8587" lon="2.36283">
        <ele>83</ele>
        <time>2012-12-18T21:01:10.000Z</time>
      </trkpt>
      <trkpt lat="48.85872" lon="2.36281">
        <ele>84</ele>
        <time>2012-12-18T21:01:11.000Z</time>
      </trkpt>
      <trkpt lat="48.85872" lon="2.36277">
        <ele>84</ele>
        <time>2012-12-18T21:01:34.000Z</time>
      </trkpt>
      <trkpt lat="48.85873" lon="2.36274">
        <ele>84</ele>
        <time>2012-12-18T21:01:35.000Z</time>
      </trkpt>
      <trkpt lat="48.85869" lon="2.3627">
        <ele>85</ele>
        <time>2012-12-18T21:01:53.000Z</time>
      </trkpt>
      <trkpt lat="48.85868" lon="2.36269">
        <ele>85</ele>
        <time>2012-12-18T21:01:54.000Z</time>
      </trkpt>
      <trkpt lat="48.85872" lon="2.36266">
        <ele>85</ele>
        <time>2012-12-18T21:02:08.000Z</time>
      </trkpt>
      <trkpt lat="48.85874" lon="2.36266">
        <ele>85</ele>
        <time>2012-12-18T21:02:09.000Z</time>
      </trkpt>
      <trkpt lat="48.85877" lon="2.3626">
        <ele>85</ele>
        <time>2012-12-18T21:02:13.000Z</time>
      </trkpt>
      <trkpt lat="48.85878" lon="2.36255">
        <ele>85</ele>
        <time>2012-12-18T21:02:14.000Z</time>
      </trkpt>
      <trkpt lat="48.8588" lon="2.36255">
        <ele>85</ele>
        <time>2012-12-18T21:02:20.000Z</time>
      </trkpt>
      <trkpt lat="48.85881" lon="2.36243">
        <ele>85</ele>
        <time>2012-12-18T21:02:21.000Z</time>
      </trkpt>
      <trkpt lat="48.85881" lon="2.36235">
        <ele>85</ele>
        <time>2012-12-18T21:02:22.000Z</time>
      </trkpt>
      <trkpt lat="48.85893" lon="2.36234">
        <ele>84</ele>
        <time>2012-12-18T21:02:23.000Z</time>
      </trkpt>
      <trkpt lat="48.859" lon="2.36232">
        <ele>84</ele>
        <time>2012-12-18T21:02:24.000Z</time>
      </trkpt>
      <trkpt lat="48.85907" lon="2.36233">
        <ele>85</ele>
        <time>2012-12-18T21:02:25.000Z</time>
      </trkpt>
      <trkpt lat="48.8591" lon="2.3623">
        <ele>85</ele>
        <time>2012-12-18T21:02:27.000Z</time>
      </trkpt>
      <trkpt lat="48.85911" lon="2.3623">
        <ele>86</ele>
        <time>2012-12-18T21:02:28.000Z</time>
      </trkpt>
      <trkpt lat="48.8591" lon="2.36223">
        <ele>87</ele>
        <time>2012-12-18T21:02:29.000Z</time>
      </trkpt>
      <trkpt lat="48.85911" lon="2.36216">
        <ele>88</ele>
        <time>2012-12-18T21:02:30.000Z</time>
      </trkpt>
      <trkpt lat="48.85912" lon="2.36215">
        <ele>87</ele>
        <time>2012-12-18T21:02:31.000Z</time>
      </trkpt>
      <trkpt lat="48.85913" lon="2.36208">
        <ele>87</ele>
        <time>2012-12-18T21:02:32.000Z</time>
      </trkpt>
      <trkpt lat="48.85915" lon="2.36203">
        <ele>88</ele>
        <time>2012-12-18T21:02:33.000Z</time>
      </trkpt>
      <trkpt lat="48.85917" lon="2.362">
        <ele>88</ele>
        <time>2012-12-18T21:02:34.000Z</time>
      </trkpt>
      <trkpt lat="48.85922" lon="2.36199">
        <ele>87</ele>
        <time>2012-12-18T21:02:35.000Z</time>
      </trkpt>
      <trkpt lat="48.85925" lon="2.36195">
        <ele>87</ele>
        <time>2012-12-18T21:02:37.000Z</time>
      </trkpt>
      <trkpt lat="48.85926" lon="2.36192">
        <ele>87</ele>
        <time>2012-12-18T21:02:38.000Z</time>
      </trkpt>
      <trkpt lat="48.85928" lon="2.36189">
        <ele>87</ele>
        <time>2012-12-18T21:02:40.000Z</time>
      </trkpt>
      <trkpt lat="48.8593" lon="2.36187">
        <ele>87</ele>
        <time>2012-12-18T21:02:41.000Z</time>
      </trkpt>
      <trkpt lat="48.85932" lon="2.36184">
        <ele>89</ele>
        <time>2012-12-18T21:02:42.000Z</time>
      </trkpt>
      <trkpt lat="48.85933" lon="2.36179">
        <ele>88</ele>
        <time>2012-12-18T21:02:43.000Z</time>
      </trkpt>
      <trkpt lat="48.85939" lon="2.36177">
        <ele>88</ele>
        <time>2012-12-18T21:02:44.000Z</time>
      </trkpt>
      <trkpt lat="48.85943" lon="2.36173">
        <ele>89</ele>
        <time>2012-12-18T21:02:45.000Z</time>
      </trkpt>
      <trkpt lat="48.85942" lon="2.36167">
        <ele>90</ele>
        <time>2012-12-18T21:02:46.000Z</time>
      </trkpt>
      <trkpt lat="48.85944" lon="2.36162">
        <ele>88</ele>
        <time>2012-12-18T21:02:47.000Z</time>
      </trkpt>
      <trkpt lat="48.85945" lon="2.36157">
        <ele>88</ele>
        <time>2012-12-18T21:02:48.000Z</time>
      </trkpt>
      <trkpt lat="48.85948" lon="2.36153">
        <ele>87</ele>
        <time>2012-12-18T21:02:49.000Z</time>
      </trkpt>
      <trkpt lat="48.8595" lon="2.3615">
        <ele>88</ele>
        <time>2012-12-18T21:02:50.000Z</time>
      </trkpt>
      <trkpt lat="48.85953" lon="2.36148">
        <ele>88</ele>
        <time>2012-12-18T21:02:51.000Z</time>
      </trkpt>
      <trkpt lat="48.85955" lon="2.36145">
        <ele>89</ele>
        <time>2012-12-18T21:02:52.000Z</time>
      </trkpt>
      <trkpt lat="48.85957" lon="2.36144">
        <ele>87</ele>
        <time>2012-12-18T21:02:53.000Z</time>
      </trkpt>
      <trkpt lat="48.85961" lon="2.3614">
        <ele>88</ele>
        <time>2012-12-18T21:02:55.000Z</time>
      </trkpt>
      <trkpt lat="48.85962" lon="2.36137">
        <ele>88</ele>
        <time>2012-12-18T21:02:56.000Z</time>
      </trkpt>
      <trkpt lat="48.85964" lon="2.36137">
        <ele>88</ele>
        <time>2012-12-18T21:02:57.000Z</time>
      </trkpt>
      <trkpt lat="48.85967" lon="2.36135">
        <ele>88</ele>
        <time>2012-12-18T21:02:58.000Z</time>
      </trkpt>
      <trkpt lat="48.85968" lon="2.36133">
        <ele>88</ele>
        <time>2012-12-18T21:02:59.000Z</time>
      </trkpt>
      <trkpt lat="48.8597" lon="2.36129">
        <ele>87</ele>
        <time>2012-12-18T21:03:00.000Z</time>
      </trkpt>
      <trkpt lat="48.85973" lon="2.36127">
        <ele>88</ele>
        <time>2012-12-18T21:03:01.000Z</time>
      </trkpt>
      <trkpt lat="48.85976" lon="2.36123">
        <ele>88</ele>
        <time>2012-12-18T21:03:02.000Z</time>
      </trkpt>
      <trkpt lat="48.85979" lon="2.36121">
        <ele>88</ele>
        <time>2012-12-18T21:03:03.000Z</time>
      </trkpt>
      <trkpt lat="48.85982" lon="2.36119">
        <ele>87</ele>
        <time>2012-12-18T21:03:04.000Z</time>
      </trkpt>
      <trkpt lat="48.85985" lon="2.36115">
        <ele>88</ele>
        <time>2012-12-18T21:03:05.000Z</time>
      </trkpt>
      <trkpt lat="48.85988" lon="2.36111">
        <ele>85</ele>
        <time>2012-12-18T21:03:06.000Z</time>
      </trkpt>
      <trkpt lat="48.85991" lon="2.36106">
        <ele>86</ele>
        <time>2012-12-18T21:03:07.000Z</time>
      </trkpt>
      <trkpt lat="48.85992" lon="2.36102">
        <ele>86</ele>
        <time>2012-12-18T21:03:08.000Z</time>
      </trkpt>
      <trkpt lat="48.85996" lon="2.36099">
        <ele>86</ele>
        <time>2012-12-18T21:03:09.000Z</time>
      </trkpt>
      <trkpt lat="48.85998" lon="2.36095">
        <ele>86</ele>
        <time>2012-12-18T21:03:10.000Z</time>
      </trkpt>
      <trkpt lat="48.86" lon="2.36092">
        <ele>86</ele>
        <time>2012-12-18T21:03:11.000Z</time>
      </trkpt>
      <trkpt lat="48.86002" lon="2.36089">
        <ele>86</ele>
        <time>2012-12-18T21:03:12.000Z</time>
      </trkpt>
      <trkpt lat="48.86006" lon="2.36089">
        <ele>86</ele>
        <time>2012-12-18T21:03:13.000Z</time>
      </trkpt>
      <trkpt lat="48.86008" lon="2.36086">
        <ele>86</ele>
        <time>2012-12-18T21:03:14.000Z</time>
      </trkpt>
      <trkpt lat="48.8601" lon="2.36082">
        <ele>86</ele>
        <time>2012-12-18T21:03:15.000Z</time>
      </trkpt>
      <trkpt lat="48.86011" lon="2.36079">
        <ele>86</ele>
        <time>2012-12-18T21:03:16.000Z</time>
      </trkpt>
      <trkpt lat="48.86014" lon="2.36076">
        <ele>87</ele>
        <time>2012-12-18T21:03:17.000Z</time>
      </trkpt>
      <trkpt lat="48.86015" lon="2.36071">
        <ele>87</ele>
        <time>2012-12-18T21:03:18.000Z</time>
      </trkpt>
      <trkpt lat="48.86017" lon="2.36068">
        <ele>87</ele>
        <time>2012-12-18T21:03:19.000Z</time>
      </trkpt>
      <trkpt lat="48.86019" lon="2.36063">
        <ele>87</ele>
        <time>2012-12-18T21:03:20.000Z</time>
      </trkpt>
      <trkpt lat="48.86019" lon="2.36059">
        <ele>87</ele>
        <time>2012-12-18T21:03:21.000Z</time>
      </trkpt>
      <trkpt lat="48.8602" lon="2.36054">
        <ele>87</ele>
        <time>2012-12-18T21:03:22.000Z</time>
      </trkpt>
      <trkpt lat="48.86023" lon="2.36049">
        <ele>87</ele>
        <time>2012-12-18T21:03:23.000Z</time>
      </trkpt>
      <trkpt lat="48.86024" lon="2.36043">
        <ele>88</ele>
        <time>2012-12-18T21:03:24.000Z</time>
      </trkpt>
      <trkpt lat="48.86026" lon="2.36038">
        <ele>88</ele>
        <time>2012-12-18T21:03:25.000Z</time>
      </trkpt>
      <trkpt lat="48.8603" lon="2.36034">
        <ele>88</ele>
        <time>2012-12-18T21:03:26.000Z</time>
      </trkpt>
      <trkpt lat="48.86033" lon="2.36031">
        <ele>89</ele>
        <time>2012-12-18T21:03:27.000Z</time>
      </trkpt>
      <trkpt lat="48.86036" lon="2.36028">
        <ele>89</ele>
        <time>2012-12-18T21:03:28.000Z</time>
      </trkpt>
      <trkpt lat="48.8604" lon="2.36024">
        <ele>87</ele>
        <time>2012-12-18T21:03:29.000Z</time>
      </trkpt>
      <trkpt lat="48.86042" lon="2.36018">
        <ele>87</ele>
        <time>2012-12-18T21:03:30.000Z</time>
      </trkpt>
      <trkpt lat="48.86044" lon="2.36013">
        <ele>87</ele>
        <time>2012-12-18T21:03:31.000Z</time>
      </trkpt>
      <trkpt lat="48.86047" lon="2.36007">
        <ele>87</ele>
        <time>2012-12-18T21:03:32.000Z</time>
      </trkpt>
      <trkpt lat="48.86048" lon="2.36003">
        <ele>87</ele>
        <time>2012-12-18T21:03:33.000Z</time>
      </trkpt>
      <trkpt lat="48.86051" lon="2.36">
        <ele>87</ele>
        <time>2012-12-18T21:03:34.000Z</time>
      </trkpt>
      <trkpt lat="48.86052" lon="2.35989">
        <ele>88</ele>
        <time>2012-12-18T21:03:35.000Z</time>
      </trkpt>
      <trkpt lat="48.86055" lon="2.35986">
        <ele>89</ele>
        <time>2012-12-18T21:03:37.000Z</time>
      </trkpt>
      <trkpt lat="48.86057" lon="2.35985">
        <ele>88</ele>
        <time>2012-12-18T21:03:38.000Z</time>
      </trkpt>
      <trkpt lat="48.8606" lon="2.3598">
        <ele>89</ele>
        <time>2012-12-18T21:03:41.000Z</time>
      </trkpt>
      <trkpt lat="48.8606" lon="2.35973">
        <ele>92</ele>
        <time>2012-12-18T21:03:42.000Z</time>
      </trkpt>
      <trkpt lat="48.8606" lon="2.3597">
        <ele>92</ele>
        <time>2012-12-18T21:03:43.000Z</time>
      </trkpt>
      <trkpt lat="48.86061" lon="2.35965">
        <ele>93</ele>
        <time>2012-12-18T21:03:44.000Z</time>
      </trkpt>
      <trkpt lat="48.86063" lon="2.3596">
        <ele>93</ele>
        <time>2012-12-18T21:03:46.000Z</time>
      </trkpt>
      <trkpt lat="48.86064" lon="2.35956">
        <ele>93</ele>
        <time>2012-12-18T21:03:47.000Z</time>
      </trkpt>
      <trkpt lat="48.86065" lon="2.35952">
        <ele>92</ele>
        <time>2012-12-18T21:03:48.000Z</time>
      </trkpt>
      <trkpt lat="48.86066" lon="2.35949">
        <ele>93</ele>
        <time>2012-12-18T21:03:49.000Z</time>
      </trkpt>
      <trkpt lat="48.86068" lon="2.35943">
        <ele>91</ele>
        <time>2012-12-18T21:03:51.000Z</time>
      </trkpt>
      <trkpt lat="48.8607" lon="2.35937">
        <ele>91</ele>
        <time>2012-12-18T21:03:52.000Z</time>
      </trkpt>
      <trkpt lat="48.86072" lon="2.35934">
        <ele>92</ele>
        <time>2012-12-18T21:03:53.000Z</time>
      </trkpt>
      <trkpt lat="48.86073" lon="2.35928">
        <ele>92</ele>
        <time>2012-12-18T21:03:54.000Z</time>
      </trkpt>
      <trkpt lat="48.86073" lon="2.35921">
        <ele>92</ele>
        <time>2012-12-18T21:03:55.000Z</time>
      </trkpt>
      <trkpt lat="48.86073" lon="2.35919">
        <ele>92</ele>
        <time>2012-12-18T21:03:56.000Z</time>
      </trkpt>
      <trkpt lat="48.86074" lon="2.35912">
        <ele>93</ele>
        <time>2012-12-18T21:03:57.000Z</time>
      </trkpt>
      <trkpt lat="48.86076" lon="2.35909">
        <ele>93</ele>
        <time>2012-12-18T21:03:58.000Z</time>
      </trkpt>
      <trkpt lat="48.86077" lon="2.35906">
        <ele>92</ele>
        <time>2012-12-18T21:03:59.000Z</time>
      </trkpt>
      <trkpt lat="48.86079" lon="2.35902">
        <ele>92</ele>
        <time>2012-12-18T21:04:00.000Z</time>
      </trkpt>
      <trkpt lat="48.86083" lon="2.35899">
        <ele>92</ele>
        <time>2012-12-18T21:04:01.000Z</time>
      </trkpt>
      <trkpt lat="48.86084" lon="2.35897">
        <ele>92</ele>
        <time>2012-12-18T21:04:02.000Z</time>
      </trkpt>
      <trkpt lat="48.86085" lon="2.35892">
        <ele>92</ele>
        <time>2012-12-18T21:04:03.000Z</time>
      </trkpt>
      <trkpt lat="48.86085" lon="2.35891">
        <ele>92</ele>
        <time>2012-12-18T21:04:04.000Z</time>
      </trkpt>
      <trkpt lat="48.86088" lon="2.35887">
        <ele>92</ele>
        <time>2012-12-18T21:04:05.000Z</time>
      </trkpt>
      <trkpt lat="48.8609" lon="2.35886">
        <ele>92</ele>
        <time>2012-12-18T21:04:06.000Z</time>
      </trkpt>
      <trkpt lat="48.86092" lon="2.35883">
        <ele>92</ele>
        <time>2012-12-18T21:04:07.000Z</time>
      </trkpt>
      <trkpt lat="48.86092" lon="2.35877">
        <ele>92</ele>
        <time>2012-12-18T21:04:08.000Z</time>
      </trkpt>
      <trkpt lat="48.86092" lon="2.3587">
        <ele>93</ele>
        <time>2012-12-18T21:04:09.000Z</time>
      </trkpt>
      <trkpt lat="48.86093" lon="2.35867">
        <ele>93</ele>
        <time>2012-12-18T21:04:10.000Z</time>
      </trkpt>
      <trkpt lat="48.86095" lon="2.35861">
        <ele>93</ele>
        <time>2012-12-18T21:04:11.000Z</time>
      </trkpt>
      <trkpt lat="48.86098" lon="2.35857">
        <ele>93</ele>
        <time>2012-12-18T21:04:12.000Z</time>
      </trkpt>
      <trkpt lat="48.861" lon="2.35853">
        <ele>93</ele>
        <time>2012-12-18T21:04:13.000Z</time>
      </trkpt>
      <trkpt lat="48.86101" lon="2.35849">
        <ele>93</ele>
        <time>2012-12-18T21:04:14.000Z</time>
      </trkpt>
      <trkpt lat="48.86103" lon="2.35846">
        <ele>93</ele>
        <time>2012-12-18T21:04:15.000Z</time>
      </trkpt>
      <trkpt lat="48.86104" lon="2.35842">
        <ele>92</ele>
        <time>2012-12-18T21:04:17.000Z</time>
      </trkpt>
      <trkpt lat="48.86105" lon="2.35839">
        <ele>92</ele>
        <time>2012-12-18T21:04:18.000Z</time>
      </trkpt>
      <trkpt lat="48.86108" lon="2.35836">
        <ele>92</ele>
        <time>2012-12-18T21:04:20.000Z</time>
      </trkpt>
      <trkpt lat="48.86108" lon="2.35834">
        <ele>92</ele>
        <time>2012-12-18T21:04:21.000Z</time>
      </trkpt>
      <trkpt lat="48.86111" lon="2.35829">
        <ele>92</ele>
        <time>2012-12-18T21:04:23.000Z</time>
      </trkpt>
      <trkpt lat="48.8611" lon="2.35826">
        <ele>92</ele>
        <time>2012-12-18T21:04:24.000Z</time>
      </trkpt>
      <trkpt lat="48.86114" lon="2.35824">
        <ele>92</ele>
        <time>2012-12-18T21:04:25.000Z</time>
      </trkpt>
      <trkpt lat="48.86132" lon="2.35823">
        <ele>92</ele>
        <time>2012-12-18T21:04:26.000Z</time>
      </trkpt>
      <trkpt lat="48.86135" lon="2.3582">
        <ele>92</ele>
        <time>2012-12-18T21:04:27.000Z</time>
      </trkpt>
      <trkpt lat="48.86137" lon="2.35816">
        <ele>92</ele>
        <time>2012-12-18T21:04:28.000Z</time>
      </trkpt>
      <trkpt lat="48.86142" lon="2.35816">
        <ele>93</ele>
        <time>2012-12-18T21:04:29.000Z</time>
      </trkpt>
      <trkpt lat="48.86143" lon="2.35812">
        <ele>92</ele>
        <time>2012-12-18T21:04:30.000Z</time>
      </trkpt>
      <trkpt lat="48.86145" lon="2.35803">
        <ele>92</ele>
        <time>2012-12-18T21:04:31.000Z</time>
      </trkpt>
      <trkpt lat="48.86147" lon="2.35798">
        <ele>92</ele>
        <time>2012-12-18T21:04:32.000Z</time>
      </trkpt>
      <trkpt lat="48.8615" lon="2.35794">
        <ele>92</ele>
        <time>2012-12-18T21:04:33.000Z</time>
      </trkpt>
      <trkpt lat="48.86152" lon="2.35789">
        <ele>92</ele>
        <time>2012-12-18T21:04:34.000Z</time>
      </trkpt>
      <trkpt lat="48.86153" lon="2.35785">
        <ele>92</ele>
        <time>2012-12-18T21:04:35.000Z</time>
      </trkpt>
      <trkpt lat="48.86156" lon="2.35779">
        <ele>92</ele>
        <time>2012-12-18T21:04:36.000Z</time>
      </trkpt>
      <trkpt lat="48.86159" lon="2.35775">
        <ele>92</ele>
        <time>2012-12-18T21:04:37.000Z</time>
      </trkpt>
      <trkpt lat="48.86161" lon="2.35769">
        <ele>92</ele>
        <time>2012-12-18T21:04:38.000Z</time>
      </trkpt>
      <trkpt lat="48.86164" lon="2.35765">
        <ele>92</ele>
        <time>2012-12-18T21:04:39.000Z</time>
      </trkpt>
      <trkpt lat="48.86167" lon="2.35759">
        <ele>92</ele>
        <time>2012-12-18T21:04:40.000Z</time>
      </trkpt>
      <trkpt lat="48.86171" lon="2.35751">
        <ele>91</ele>
        <time>2012-12-18T21:04:41.000Z</time>
      </trkpt>
      <trkpt lat="48.86173" lon="2.35744">
        <ele>91</ele>
        <time>2012-12-18T21:04:42.000Z</time>
      </trkpt>
      <trkpt lat="48.86176" lon="2.35738">
        <ele>91</ele>
        <time>2012-12-18T21:04:43.000Z</time>
      </trkpt>
      <trkpt lat="48.8618" lon="2.35734">
        <ele>90</ele>
        <time>2012-12-18T21:04:44.000Z</time>
      </trkpt>
      <trkpt lat="48.86183" lon="2.3573">
        <ele>89</ele>
        <time>2012-12-18T21:04:45.000Z</time>
      </trkpt>
      <trkpt lat="48.86186" lon="2.35725">
        <ele>89</ele>
        <time>2012-12-18T21:04:46.000Z</time>
      </trkpt>
      <trkpt lat="48.86186" lon="2.35719">
        <ele>89</ele>
        <time>2012-12-18T21:04:47.000Z</time>
      </trkpt>
      <trkpt lat="48.8618" lon="2.35705">
        <ele>88</ele>
        <time>2012-12-18T21:04:48.000Z</time>
      </trkpt>
      <trkpt lat="48.86182" lon="2.35699">
        <ele>88</ele>
        <time>2012-12-18T21:04:49.000Z</time>
      </trkpt>
      <trkpt lat="48.86182" lon="2.35687">
        <ele>88</ele>
        <time>2012-12-18T21:04:50.000Z</time>
      </trkpt>
      <trkpt lat="48.86188" lon="2.35682">
        <ele>88</ele>
        <time>2012-12-18T21:04:51.000Z</time>
      </trkpt>
      <trkpt lat="48.86195" lon="2.35678">
        <ele>89</ele>
        <time>2012-12-18T21:04:52.000Z</time>
      </trkpt>
      <trkpt lat="48.86197" lon="2.35675">
        <ele>88</ele>
        <time>2012-12-18T21:04:53.000Z</time>
      </trkpt>
      <trkpt lat="48.86199" lon="2.3567">
        <ele>88</ele>
        <time>2012-12-18T21:04:54.000Z</time>
      </trkpt>
      <trkpt lat="48.86202" lon="2.35665">
        <ele>87</ele>
        <time>2012-12-18T21:04:55.000Z</time>
      </trkpt>
      <trkpt lat="48.86204" lon="2.3566">
        <ele>87</ele>
        <time>2012-12-18T21:04:56.000Z</time>
      </trkpt>
      <trkpt lat="48.86207" lon="2.35657">
        <ele>87</ele>
        <time>2012-12-18T21:04:57.000Z</time>
      </trkpt>
      <trkpt lat="48.86209" lon="2.35651">
        <ele>88</ele>
        <time>2012-12-18T21:04:58.000Z</time>
      </trkpt>
      <trkpt lat="48.86212" lon="2.35644">
        <ele>88</ele>
        <time>2012-12-18T21:04:59.000Z</time>
      </trkpt>
      <trkpt lat="48.86215" lon="2.35638">
        <ele>89</ele>
        <time>2012-12-18T21:05:00.000Z</time>
      </trkpt>
      <trkpt lat="48.86217" lon="2.35634">
        <ele>88</ele>
        <time>2012-12-18T21:05:01.000Z</time>
      </trkpt>
      <trkpt lat="48.8622" lon="2.3563">
        <ele>88</ele>
        <time>2012-12-18T21:05:02.000Z</time>
      </trkpt>
      <trkpt lat="48.86223" lon="2.35622">
        <ele>88</ele>
        <time>2012-12-18T21:05:03.000Z</time>
      </trkpt>
      <trkpt lat="48.86225" lon="2.35617">
        <ele>88</ele>
        <time>2012-12-18T21:05:04.000Z</time>
      </trkpt>
      <trkpt lat="48.86228" lon="2.35612">
        <ele>88</ele>
        <time>2012-12-18T21:05:05.000Z</time>
      </trkpt>
      <trkpt lat="48.86231" lon="2.35607">
        <ele>88</ele>
        <time>2012-12-18T21:05:06.000Z</time>
      </trkpt>
      <trkpt lat="48.86233" lon="2.35603">
        <ele>88</ele>
        <time>2012-12-18T21:05:07.000Z</time>
      </trkpt>
      <trkpt lat="48.86236" lon="2.35598">
        <ele>88</ele>
        <time>2012-12-18T21:05:08.000Z</time>
      </trkpt>
      <trkpt lat="48.86238" lon="2.35592">
        <ele>88</ele>
        <time>2012-12-18T21:05:09.000Z</time>
      </trkpt>
      <trkpt lat="48.86241" lon="2.35587">
        <ele>88</ele>
        <time>2012-12-18T21:05:10.000Z</time>
      </trkpt>
      <trkpt lat="48.86243" lon="2.35582">
        <ele>88</ele>
        <time>2012-12-18T21:05:11.000Z</time>
      </trkpt>
      <trkpt lat="48.86239" lon="2.35567">
        <ele>88</ele>
        <time>2012-12-18T21:05:13.000Z</time>
      </trkpt>
      <trkpt lat="48.86241" lon="2.35561">
        <ele>88</ele>
        <time>2012-12-18T21:05:14.000Z</time>
      </trkpt>
      <trkpt lat="48.86243" lon="2.35554">
        <ele>88</ele>
        <time>2012-12-18T21:05:15.000Z</time>
      </trkpt>
      <trkpt lat="48.86245" lon="2.35548">
        <ele>88</ele>
        <time>2012-12-18T21:05:16.000Z</time>
      </trkpt>
      <trkpt lat="48.86271" lon="2.3543">
        <ele>89</ele>
        <time>2012-12-18T21:05:33.000Z</time>
      </trkpt>
      <trkpt lat="48.86276" lon="2.35428">
        <ele>89</ele>
        <time>2012-12-18T21:05:34.000Z</time>
      </trkpt>
      <trkpt lat="48.86278" lon="2.35424">
        <ele>89</ele>
        <time>2012-12-18T21:05:36.000Z</time>
      </trkpt>
      <trkpt lat="48.8628" lon="2.35421">
        <ele>89</ele>
        <time>2012-12-18T21:05:37.000Z</time>
      </trkpt>
      <trkpt lat="48.86278" lon="2.35415">
        <ele>90</ele>
        <time>2012-12-18T21:05:38.000Z</time>
      </trkpt>
      <trkpt lat="48.86278" lon="2.3541">
        <ele>90</ele>
        <time>2012-12-18T21:05:39.000Z</time>
      </trkpt>
      <trkpt lat="48.86278" lon="2.35406">
        <ele>90</ele>
        <time>2012-12-18T21:05:40.000Z</time>
      </trkpt>
      <trkpt lat="48.86279" lon="2.35403">
        <ele>90</ele>
        <time>2012-12-18T21:05:41.000Z</time>
      </trkpt>
      <trkpt lat="48.86281" lon="2.354">
        <ele>90</ele>
        <time>2012-12-18T21:05:46.000Z</time>
      </trkpt>
      <trkpt lat="48.86283" lon="2.35401">
        <ele>90</ele>
        <time>2012-12-18T21:05:47.000Z</time>
      </trkpt>
      <trkpt lat="48.86286" lon="2.35405">
        <ele>89</ele>
        <time>2012-12-18T21:05:49.000Z</time>
      </trkpt>
      <trkpt lat="48.86288" lon="2.35407">
        <ele>87</ele>
        <time>2012-12-18T21:05:50.000Z</time>
      </trkpt>
      <trkpt lat="48.86287" lon="2.35412">
        <ele>88</ele>
        <time>2012-12-18T21:07:21.000Z</time>
      </trkpt>
      <trkpt lat="48.86297" lon="2.35404">
        <ele>88</ele>
        <time>2012-12-18T21:07:22.000Z</time>
      </trkpt>
      <trkpt lat="48.86299" lon="2.35397">
        <ele>88</ele>
        <time>2012-12-18T21:07:23.000Z</time>
      </trkpt>
      <trkpt lat="48.863" lon="2.35387">
        <ele>87</ele>
        <time>2012-12-18T21:07:24.000Z</time>
      </trkpt>
      <trkpt lat="48.86308" lon="2.3537">
        <ele>85</ele>
        <time>2012-12-18T21:07:26.000Z</time>
      </trkpt>
      <trkpt lat="48.86311" lon="2.3536">
        <ele>84</ele>
        <time>2012-12-18T21:07:27.000Z</time>
      </trkpt>
      <trkpt lat="48.86313" lon="2.35349">
        <ele>83</ele>
        <time>2012-12-18T21:07:28.000Z</time>
      </trkpt>
      <trkpt lat="48.86315" lon="2.35341">
        <ele>82</ele>
        <time>2012-12-18T21:07:29.000Z</time>
      </trkpt>
      <trkpt lat="48.86316" lon="2.35335">
        <ele>82</ele>
        <time>2012-12-18T21:07:30.000Z</time>
      </trkpt>
      <trkpt lat="48.86316" lon="2.35324">
        <ele>83</ele>
        <time>2012-12-18T21:07:31.000Z</time>
      </trkpt>
      <trkpt lat="48.86316" lon="2.3532">
        <ele>82</ele>
        <time>2012-12-18T21:07:32.000Z</time>
      </trkpt>
      <trkpt lat="48.86319" lon="2.35312">
        <ele>82</ele>
        <time>2012-12-18T21:07:33.000Z</time>
      </trkpt>
      <trkpt lat="48.8632" lon="2.35301">
        <ele>80</ele>
        <time>2012-12-18T21:07:34.000Z</time>
      </trkpt>
      <trkpt lat="48.86321" lon="2.35292">
        <ele>79</ele>
        <time>2012-12-18T21:07:35.000Z</time>
      </trkpt>
      <trkpt lat="48.86322" lon="2.35282">
        <ele>78</ele>
        <time>2012-12-18T21:07:36.000Z</time>
      </trkpt>
      <trkpt lat="48.86324" lon="2.35276">
        <ele>78</ele>
        <time>2012-12-18T21:07:37.000Z</time>
      </trkpt>
      <trkpt lat="48.86324" lon="2.35267">
        <ele>79</ele>
        <time>2012-12-18T21:07:38.000Z</time>
      </trkpt>
      <trkpt lat="48.86323" lon="2.35262">
        <ele>79</ele>
        <time>2012-12-18T21:07:39.000Z</time>
      </trkpt>
      <trkpt lat="48.86324" lon="2.35259">
        <ele>79</ele>
        <time>2012-12-18T21:07:40.000Z</time>
      </trkpt>
      <trkpt lat="48.86322" lon="2.35255">
        <ele>79</ele>
        <time>2012-12-18T21:07:43.000Z</time>
      </trkpt>
      <trkpt lat="48.8632" lon="2.35254">
        <ele>80</ele>
        <time>2012-12-18T21:07:44.000Z</time>
      </trkpt>
      <trkpt lat="48.86318" lon="2.35252">
        <ele>81</ele>
        <time>2012-12-18T21:07:52.000Z</time>
      </trkpt>
      <trkpt lat="48.86314" lon="2.3525">
        <ele>81</ele>
        <time>2012-12-18T21:07:53.000Z</time>
      </trkpt>
      <trkpt lat="48.86314" lon="2.35244">
        <ele>84</ele>
        <time>2012-12-18T21:07:55.000Z</time>
      </trkpt>
      <trkpt lat="48.86314" lon="2.3524">
        <ele>84</ele>
        <time>2012-12-18T21:07:56.000Z</time>
      </trkpt>
      <trkpt lat="48.86315" lon="2.35235">
        <ele>84</ele>
        <time>2012-12-18T21:07:59.000Z</time>
      </trkpt>
      <trkpt lat="48.86315" lon="2.35232">
        <ele>83</ele>
        <time>2012-12-18T21:08:00.000Z</time>
      </trkpt>
      <trkpt lat="48.86318" lon="2.35228">
        <ele>83</ele>
        <time>2012-12-18T21:08:02.000Z</time>
      </trkpt>
      <trkpt lat="48.86317" lon="2.35224">
        <ele>84</ele>
        <time>2012-12-18T21:08:03.000Z</time>
      </trkpt>
      <trkpt lat="48.8632" lon="2.35218">
        <ele>84</ele>
        <time>2012-12-18T21:08:05.000Z</time>
      </trkpt>
      <trkpt lat="48.8632" lon="2.35216">
        <ele>83</ele>
        <time>2012-12-18T21:08:06.000Z</time>
      </trkpt>
      <trkpt lat="48.86323" lon="2.35212">
        <ele>84</ele>
        <time>2012-12-18T21:08:07.000Z</time>
      </trkpt>
      <trkpt lat="48.86323" lon="2.35211">
        <ele>84</ele>
        <time>2012-12-18T21:08:08.000Z</time>
      </trkpt>
      <trkpt lat="48.86324" lon="2.35207">
        <ele>85</ele>
        <time>2012-12-18T21:08:09.000Z</time>
      </trkpt>
      <trkpt lat="48.86322" lon="2.35201">
        <ele>86</ele>
        <time>2012-12-18T21:08:10.000Z</time>
      </trkpt>
      <trkpt lat="48.86323" lon="2.35195">
        <ele>86</ele>
        <time>2012-12-18T21:08:12.000Z</time>
      </trkpt>
      <trkpt lat="48.86323" lon="2.35191">
        <ele>86</ele>
        <time>2012-12-18T21:08:13.000Z</time>
      </trkpt>
      <trkpt lat="48.86324" lon="2.35187">
        <ele>86</ele>
        <time>2012-12-18T21:08:14.000Z</time>
      </trkpt>
      <trkpt lat="48.86325" lon="2.35184">
        <ele>86</ele>
        <time>2012-12-18T21:08:15.000Z</time>
      </trkpt>
      <trkpt lat="48.86327" lon="2.35181">
        <ele>86</ele>
        <time>2012-12-18T21:08:16.000Z</time>
      </trkpt>
      <trkpt lat="48.86328" lon="2.35177">
        <ele>86</ele>
        <time>2012-12-18T21:08:17.000Z</time>
      </trkpt>
      <trkpt lat="48.8633" lon="2.35174">
        <ele>86</ele>
        <time>2012-12-18T21:08:18.000Z</time>
      </trkpt>
      <trkpt lat="48.86331" lon="2.3517">
        <ele>86</ele>
        <time>2012-12-18T21:08:19.000Z</time>
      </trkpt>
      <trkpt lat="48.86334" lon="2.35164">
        <ele>87</ele>
        <time>2012-12-18T21:08:20.000Z</time>
      </trkpt>
      <trkpt lat="48.86336" lon="2.35159">
        <ele>87</ele>
        <time>2012-12-18T21:08:21.000Z</time>
      </trkpt>
      <trkpt lat="48.86335" lon="2.35154">
        <ele>86</ele>
        <time>2012-12-18T21:08:22.000Z</time>
      </trkpt>
      <trkpt lat="48.86337" lon="2.35151">
        <ele>87</ele>
        <time>2012-12-18T21:08:23.000Z</time>
      </trkpt>
      <trkpt lat="48.86338" lon="2.35144">
        <ele>88</ele>
        <time>2012-12-18T21:08:24.000Z</time>
      </trkpt>
      <trkpt lat="48.86339" lon="2.35142">
        <ele>88</ele>
        <time>2012-12-18T21:08:25.000Z</time>
      </trkpt>
      <trkpt lat="48.86337" lon="2.35135">
        <ele>87</ele>
        <time>2012-12-18T21:08:26.000Z</time>
      </trkpt>
      <trkpt lat="48.86339" lon="2.3513">
        <ele>87</ele>
        <time>2012-12-18T21:08:28.000Z</time>
      </trkpt>
      <trkpt lat="48.86338" lon="2.35123">
        <ele>88</ele>
        <time>2012-12-18T21:08:29.000Z</time>
      </trkpt>
      <trkpt lat="48.86339" lon="2.35117">
        <ele>87</ele>
        <time>2012-12-18T21:08:30.000Z</time>
      </trkpt>
      <trkpt lat="48.86341" lon="2.35109">
        <ele>89</ele>
        <time>2012-12-18T21:08:31.000Z</time>
      </trkpt>
      <trkpt lat="48.86341" lon="2.35106">
        <ele>90</ele>
        <time>2012-12-18T21:08:32.000Z</time>
      </trkpt>
      <trkpt lat="48.86341" lon="2.351">
        <ele>93</ele>
        <time>2012-12-18T21:08:33.000Z</time>
      </trkpt>
      <trkpt lat="48.86341" lon="2.35093">
        <ele>97</ele>
        <time>2012-12-18T21:08:38.000Z</time>
      </trkpt>
      <trkpt lat="48.86342" lon="2.35092">
        <ele>97</ele>
        <time>2012-12-18T21:08:39.000Z</time>
      </trkpt>
      <trkpt lat="48.86338" lon="2.35088">
        <ele>99</ele>
        <time>2012-12-18T21:08:50.000Z</time>
      </trkpt>
      <trkpt lat="48.86338" lon="2.35085">
        <ele>100</ele>
        <time>2012-12-18T21:08:51.000Z</time>
      </trkpt>
      <trkpt lat="48.86337" lon="2.35081">
        <ele>100</ele>
        <time>2012-12-18T21:09:00.000Z</time>
      </trkpt>
      <trkpt lat="48.86339" lon="2.35078">
        <ele>100</ele>
        <time>2012-12-18T21:09:01.000Z</time>
      </trkpt>
      <trkpt lat="48.86339" lon="2.35073">
        <ele>101</ele>
        <time>2012-12-18T21:09:05.000Z</time>
      </trkpt>
      <trkpt lat="48.86342" lon="2.35071">
        <ele>100</ele>
        <time>2012-12-18T21:09:06.000Z</time>
      </trkpt>
      <trkpt lat="48.86344" lon="2.35065">
        <ele>100</ele>
        <time>2012-12-18T21:09:07.000Z</time>
      </trkpt>
      <trkpt lat="48.86345" lon="2.35061">
        <ele>100</ele>
        <time>2012-12-18T21:09:08.000Z</time>
      </trkpt>
      <trkpt lat="48.86349" lon="2.35055">
        <ele>100</ele>
        <time>2012-12-18T21:09:09.000Z</time>
      </trkpt>
      <trkpt lat="48.86351" lon="2.35049">
        <ele>100</ele>
        <time>2012-12-18T21:09:10.000Z</time>
      </trkpt>
      <trkpt lat="48.86352" lon="2.35046">
        <ele>101</ele>
        <time>2012-12-18T21:09:11.000Z</time>
      </trkpt>
      <trkpt lat="48.86354" lon="2.35041">
        <ele>101</ele>
        <time>2012-12-18T21:09:12.000Z</time>
      </trkpt>
      <trkpt lat="48.86356" lon="2.35034">
        <ele>100</ele>
        <time>2012-12-18T21:09:13.000Z</time>
      </trkpt>
      <trkpt lat="48.86358" lon="2.35026">
        <ele>101</ele>
        <time>2012-12-18T21:09:14.000Z</time>
      </trkpt>
      <trkpt lat="48.8636" lon="2.35022">
        <ele>101</ele>
        <time>2012-12-18T21:09:15.000Z</time>
      </trkpt>
      <trkpt lat="48.8636" lon="2.35017">
        <ele>101</ele>
        <time>2012-12-18T21:09:16.000Z</time>
      </trkpt>
      <trkpt lat="48.86363" lon="2.35012">
        <ele>102</ele>
        <time>2012-12-18T21:09:17.000Z</time>
      </trkpt>
      <trkpt lat="48.86365" lon="2.35005">
        <ele>102</ele>
        <time>2012-12-18T21:09:18.000Z</time>
      </trkpt>
      <trkpt lat="48.86367" lon="2.35">
        <ele>102</ele>
        <time>2012-12-18T21:09:19.000Z</time>
      </trkpt>
      <trkpt lat="48.86368" lon="2.34995">
        <ele>102</ele>
        <time>2012-12-18T21:09:20.000Z</time>
      </trkpt>
      <trkpt lat="48.86367" lon="2.34992">
        <ele>102</ele>
        <time>2012-12-18T21:09:21.000Z</time>
      </trkpt>
      <trkpt lat="48.86369" lon="2.34986">
        <ele>101</ele>
        <time>2012-12-18T21:09:22.000Z</time>
      </trkpt>
      <trkpt lat="48.86372" lon="2.34981">
        <ele>101</ele>
        <time>2012-12-18T21:09:23.000Z</time>
      </trkpt>
      <trkpt lat="48.86373" lon="2.34973">
        <ele>101</ele>
        <time>2012-12-18T21:09:24.000Z</time>
      </trkpt>
      <trkpt lat="48.86374" lon="2.34967">
        <ele>102</ele>
        <time>2012-12-18T21:09:25.000Z</time>
      </trkpt>
      <trkpt lat="48.86377" lon="2.34961">
        <ele>103</ele>
        <time>2012-12-18T21:09:26.000Z</time>
      </trkpt>
      <trkpt lat="48.86379" lon="2.34954">
        <ele>103</ele>
        <time>2012-12-18T21:09:27.000Z</time>
      </trkpt>
      <trkpt lat="48.86381" lon="2.34948">
        <ele>102</ele>
        <time>2012-12-18T21:09:28.000Z</time>
      </trkpt>
      <trkpt lat="48.86381" lon="2.34941">
        <ele>99</ele>
        <time>2012-12-18T21:09:29.000Z</time>
      </trkpt>
      <trkpt lat="48.86381" lon="2.34936">
        <ele>98</ele>
        <time>2012-12-18T21:09:30.000Z</time>
      </trkpt>
      <trkpt lat="48.86383" lon="2.34932">
        <ele>97</ele>
        <time>2012-12-18T21:09:31.000Z</time>
      </trkpt>
      <trkpt lat="48.86385" lon="2.34928">
        <ele>98</ele>
        <time>2012-12-18T21:09:32.000Z</time>
      </trkpt>
      <trkpt lat="48.86384" lon="2.34925">
        <ele>98</ele>
        <time>2012-12-18T21:09:33.000Z</time>
      </trkpt>
      <trkpt lat="48.86383" lon="2.34922">
        <ele>96</ele>
        <time>2012-12-18T21:09:59.000Z</time>
      </trkpt>
      <trkpt lat="48.86387" lon="2.34918">
        <ele>95</ele>
        <time>2012-12-18T21:10:00.000Z</time>
      </trkpt>
      <trkpt lat="48.86386" lon="2.34914">
        <ele>94</ele>
        <time>2012-12-18T21:10:01.000Z</time>
      </trkpt>
      <trkpt lat="48.86387" lon="2.34909">
        <ele>93</ele>
        <time>2012-12-18T21:10:02.000Z</time>
      </trkpt>
      <trkpt lat="48.86387" lon="2.34906">
        <ele>93</ele>
        <time>2012-12-18T21:10:03.000Z</time>
      </trkpt>
      <trkpt lat="48.86388" lon="2.349">
        <ele>92</ele>
        <time>2012-12-18T21:10:04.000Z</time>
      </trkpt>
      <trkpt lat="48.86388" lon="2.34896">
        <ele>92</ele>
        <time>2012-12-18T21:10:05.000Z</time>
      </trkpt>
      <trkpt lat="48.86389" lon="2.34892">
        <ele>92</ele>
        <time>2012-12-18T21:10:06.000Z</time>
      </trkpt>
      <trkpt lat="48.86391" lon="2.34887">
        <ele>92</ele>
        <time>2012-12-18T21:10:07.000Z</time>
      </trkpt>
      <trkpt lat="48.86393" lon="2.34883">
        <ele>92</ele>
        <time>2012-12-18T21:10:08.000Z</time>
      </trkpt>
      <trkpt lat="48.86394" lon="2.34879">
        <ele>92</ele>
        <time>2012-12-18T21:10:09.000Z</time>
      </trkpt>
      <trkpt lat="48.86395" lon="2.34874">
        <ele>91</ele>
        <time>2012-12-18T21:10:10.000Z</time>
      </trkpt>
      <trkpt lat="48.86398" lon="2.3487">
        <ele>91</ele>
        <time>2012-12-18T21:10:11.000Z</time>
      </trkpt>
      <trkpt lat="48.86401" lon="2.34866">
        <ele>92</ele>
        <time>2012-12-18T21:10:12.000Z</time>
      </trkpt>
      <trkpt lat="48.86402" lon="2.34862">
        <ele>92</ele>
        <time>2012-12-18T21:10:13.000Z</time>
      </trkpt>
      <trkpt lat="48.86404" lon="2.34857">
        <ele>92</ele>
        <time>2012-12-18T21:10:14.000Z</time>
      </trkpt>
      <trkpt lat="48.86405" lon="2.3485">
        <ele>92</ele>
        <time>2012-12-18T21:10:15.000Z</time>
      </trkpt>
      <trkpt lat="48.86407" lon="2.34843">
        <ele>93</ele>
        <time>2012-12-18T21:10:16.000Z</time>
      </trkpt>
      <trkpt lat="48.86409" lon="2.34837">
        <ele>93</ele>
        <time>2012-12-18T21:10:17.000Z</time>
      </trkpt>
      <trkpt lat="48.8641" lon="2.34831">
        <ele>93</ele>
        <time>2012-12-18T21:10:18.000Z</time>
      </trkpt>
      <trkpt lat="48.86411" lon="2.34824">
        <ele>93</ele>
        <time>2012-12-18T21:10:19.000Z</time>
      </trkpt>
      <trkpt lat="48.86412" lon="2.34819">
        <ele>93</ele>
        <time>2012-12-18T21:10:20.000Z</time>
      </trkpt>
      <trkpt lat="48.86412" lon="2.34815">
        <ele>93</ele>
        <time>2012-12-18T21:10:21.000Z</time>
      </trkpt>
      <trkpt lat="48.86413" lon="2.34809">
        <ele>94</ele>
        <time>2012-12-18T21:10:22.000Z</time>
      </trkpt>
      <trkpt lat="48.86411" lon="2.34797">
        <ele>94</ele>
        <time>2012-12-18T21:10:23.000Z</time>
      </trkpt>
      <trkpt lat="48.86411" lon="2.34793">
        <ele>94</ele>
        <time>2012-12-18T21:10:24.000Z</time>
      </trkpt>
      <trkpt lat="48.86412" lon="2.34787">
        <ele>94</ele>
        <time>2012-12-18T21:10:25.000Z</time>
      </trkpt>
      <trkpt lat="48.86416" lon="2.34782">
        <ele>94</ele>
        <time>2012-12-18T21:10:26.000Z</time>
      </trkpt>
      <trkpt lat="48.86422" lon="2.34775">
        <ele>93</ele>
        <time>2012-12-18T21:10:27.000Z</time>
      </trkpt>
      <trkpt lat="48.86423" lon="2.34771">
        <ele>93</ele>
        <time>2012-12-18T21:10:28.000Z</time>
      </trkpt>
      <trkpt lat="48.86426" lon="2.34765">
        <ele>93</ele>
        <time>2012-12-18T21:10:29.000Z</time>
      </trkpt>
      <trkpt lat="48.86427" lon="2.34762">
        <ele>93</ele>
        <time>2012-12-18T21:10:30.000Z</time>
      </trkpt>
      <trkpt lat="48.8643" lon="2.34758">
        <ele>93</ele>
        <time>2012-12-18T21:10:31.000Z</time>
      </trkpt>
      <trkpt lat="48.86432" lon="2.34753">
        <ele>93</ele>
        <time>2012-12-18T21:10:32.000Z</time>
      </trkpt>
      <trkpt lat="48.86435" lon="2.34748">
        <ele>93</ele>
        <time>2012-12-18T21:10:33.000Z</time>
      </trkpt>
      <trkpt lat="48.86437" lon="2.34742">
        <ele>93</ele>
        <time>2012-12-18T21:10:34.000Z</time>
      </trkpt>
      <trkpt lat="48.86438" lon="2.34734">
        <ele>94</ele>
        <time>2012-12-18T21:10:35.000Z</time>
      </trkpt>
      <trkpt lat="48.86439" lon="2.34729">
        <ele>94</ele>
        <time>2012-12-18T21:10:36.000Z</time>
      </trkpt>
      <trkpt lat="48.86439" lon="2.34725">
        <ele>93</ele>
        <time>2012-12-18T21:10:37.000Z</time>
      </trkpt>
      <trkpt lat="48.86441" lon="2.34719">
        <ele>93</ele>
        <time>2012-12-18T21:10:38.000Z</time>
      </trkpt>
      <trkpt lat="48.86438" lon="2.34712">
        <ele>93</ele>
        <time>2012-12-18T21:10:39.000Z</time>
      </trkpt>
      <trkpt lat="48.86439" lon="2.34707">
        <ele>93</ele>
        <time>2012-12-18T21:10:40.000Z</time>
      </trkpt>
      <trkpt lat="48.8644" lon="2.34698">
        <ele>94</ele>
        <time>2012-12-18T21:10:41.000Z</time>
      </trkpt>
      <trkpt lat="48.86444" lon="2.34694">
        <ele>94</ele>
        <time>2012-12-18T21:10:42.000Z</time>
      </trkpt>
      <trkpt lat="48.86445" lon="2.34691">
        <ele>94</ele>
        <time>2012-12-18T21:10:43.000Z</time>
      </trkpt>
      <trkpt lat="48.86448" lon="2.34687">
        <ele>94</ele>
        <time>2012-12-18T21:10:44.000Z</time>
      </trkpt>
      <trkpt lat="48.86451" lon="2.34682">
        <ele>93</ele>
        <time>2012-12-18T21:10:45.000Z</time>
      </trkpt>
      <trkpt lat="48.86452" lon="2.34678">
        <ele>93</ele>
        <time>2012-12-18T21:10:46.000Z</time>
      </trkpt>
      <trkpt lat="48.86453" lon="2.34674">
        <ele>93</ele>
        <time>2012-12-18T21:10:47.000Z</time>
      </trkpt>
      <trkpt lat="48.86454" lon="2.34671">
        <ele>93</ele>
        <time>2012-12-18T21:10:48.000Z</time>
      </trkpt>
      <trkpt lat="48.86455" lon="2.34666">
        <ele>93</ele>
        <time>2012-12-18T21:10:49.000Z</time>
      </trkpt>
      <trkpt lat="48.86458" lon="2.34661">
        <ele>93</ele>
        <time>2012-12-18T21:10:50.000Z</time>
      </trkpt>
      <trkpt lat="48.86459" lon="2.34655">
        <ele>94</ele>
        <time>2012-12-18T21:10:51.000Z</time>
      </trkpt>
      <trkpt lat="48.8646" lon="2.3465">
        <ele>94</ele>
        <time>2012-12-18T21:10:52.000Z</time>
      </trkpt>
      <trkpt lat="48.86461" lon="2.34646">
        <ele>93</ele>
        <time>2012-12-18T21:10:53.000Z</time>
      </trkpt>
      <trkpt lat="48.86461" lon="2.34637">
        <ele>94</ele>
        <time>2012-12-18T21:10:54.000Z</time>
      </trkpt>
      <trkpt lat="48.86462" lon="2.3463">
        <ele>94</ele>
        <time>2012-12-18T21:10:55.000Z</time>
      </trkpt>
      <trkpt lat="48.86461" lon="2.34622">
        <ele>94</ele>
        <time>2012-12-18T21:10:56.000Z</time>
      </trkpt>
      <trkpt lat="48.86461" lon="2.34612">
        <ele>94</ele>
        <time>2012-12-18T21:10:57.000Z</time>
      </trkpt>
      <trkpt lat="48.86464" lon="2.34605">
        <ele>94</ele>
        <time>2012-12-18T21:10:58.000Z</time>
      </trkpt>
      <trkpt lat="48.86466" lon="2.34596">
        <ele>94</ele>
        <time>2012-12-18T21:10:59.000Z</time>
      </trkpt>
      <trkpt lat="48.86466" lon="2.34591">
        <ele>94</ele>
        <time>2012-12-18T21:11:00.000Z</time>
      </trkpt>
      <trkpt lat="48.86465" lon="2.34583">
        <ele>95</ele>
        <time>2012-12-18T21:11:01.000Z</time>
      </trkpt>
      <trkpt lat="48.86467" lon="2.34574">
        <ele>94</ele>
        <time>2012-12-18T21:11:02.000Z</time>
      </trkpt>
      <trkpt lat="48.86469" lon="2.34568">
        <ele>94</ele>
        <time>2012-12-18T21:11:03.000Z</time>
      </trkpt>
      <trkpt lat="48.8647" lon="2.34559">
        <ele>94</ele>
        <time>2012-12-18T21:11:04.000Z</time>
      </trkpt>
      <trkpt lat="48.86472" lon="2.34553">
        <ele>94</ele>
        <time>2012-12-18T21:11:05.000Z</time>
      </trkpt>
      <trkpt lat="48.86471" lon="2.34547">
        <ele>95</ele>
        <time>2012-12-18T21:11:06.000Z</time>
      </trkpt>
      <trkpt lat="48.86474" lon="2.34541">
        <ele>94</ele>
        <time>2012-12-18T21:11:07.000Z</time>
      </trkpt>
      <trkpt lat="48.86481" lon="2.34533">
        <ele>94</ele>
        <time>2012-12-18T21:11:08.000Z</time>
      </trkpt>
      <trkpt lat="48.86482" lon="2.34528">
        <ele>94</ele>
        <time>2012-12-18T21:11:09.000Z</time>
      </trkpt>
      <trkpt lat="48.86483" lon="2.34522">
        <ele>92</ele>
        <time>2012-12-18T21:11:10.000Z</time>
      </trkpt>
      <trkpt lat="48.86483" lon="2.34516">
        <ele>92</ele>
        <time>2012-12-18T21:11:11.000Z</time>
      </trkpt>
      <trkpt lat="48.86485" lon="2.3451">
        <ele>92</ele>
        <time>2012-12-18T21:11:12.000Z</time>
      </trkpt>
      <trkpt lat="48.86485" lon="2.34507">
        <ele>92</ele>
        <time>2012-12-18T21:11:13.000Z</time>
      </trkpt>
      <trkpt lat="48.86486" lon="2.34503">
        <ele>92</ele>
        <time>2012-12-18T21:11:14.000Z</time>
      </trkpt>
      <trkpt lat="48.86488" lon="2.345">
        <ele>92</ele>
        <time>2012-12-18T21:11:15.000Z</time>
      </trkpt>
      <trkpt lat="48.86494" lon="2.34496">
        <ele>92</ele>
        <time>2012-12-18T21:11:16.000Z</time>
      </trkpt>
      <trkpt lat="48.86497" lon="2.34491">
        <ele>92</ele>
        <time>2012-12-18T21:11:17.000Z</time>
      </trkpt>
      <trkpt lat="48.86499" lon="2.3449">
        <ele>92</ele>
        <time>2012-12-18T21:11:18.000Z</time>
      </trkpt>
      <trkpt lat="48.86502" lon="2.34487">
        <ele>92</ele>
        <time>2012-12-18T21:11:19.000Z</time>
      </trkpt>
      <trkpt lat="48.86503" lon="2.34482">
        <ele>92</ele>
        <time>2012-12-18T21:11:20.000Z</time>
      </trkpt>
      <trkpt lat="48.86503" lon="2.34471">
        <ele>93</ele>
        <time>2012-12-18T21:11:21.000Z</time>
      </trkpt>
      <trkpt lat="48.86505" lon="2.34465">
        <ele>93</ele>
        <time>2012-12-18T21:11:22.000Z</time>
      </trkpt>
      <trkpt lat="48.86506" lon="2.34456">
        <ele>93</ele>
        <time>2012-12-18T21:11:23.000Z</time>
      </trkpt>
      <trkpt lat="48.86507" lon="2.34449">
        <ele>93</ele>
        <time>2012-12-18T21:11:24.000Z</time>
      </trkpt>
      <trkpt lat="48.86508" lon="2.34443">
        <ele>93</ele>
        <time>2012-12-18T21:11:25.000Z</time>
      </trkpt>
      <trkpt lat="48.8651" lon="2.34438">
        <ele>93</ele>
        <time>2012-12-18T21:11:26.000Z</time>
      </trkpt>
      <trkpt lat="48.8651" lon="2.34433">
        <ele>94</ele>
        <time>2012-12-18T21:11:27.000Z</time>
      </trkpt>
      <trkpt lat="48.8651" lon="2.34429">
        <ele>93</ele>
        <time>2012-12-18T21:11:28.000Z</time>
      </trkpt>
      <trkpt lat="48.86511" lon="2.34425">
        <ele>93</ele>
        <time>2012-12-18T21:11:29.000Z</time>
      </trkpt>
      <trkpt lat="48.86511" lon="2.3442">
        <ele>94</ele>
        <time>2012-12-18T21:11:30.000Z</time>
      </trkpt>
      <trkpt lat="48.86512" lon="2.34413">
        <ele>94</ele>
        <time>2012-12-18T21:11:31.000Z</time>
      </trkpt>
      <trkpt lat="48.86512" lon="2.34405">
        <ele>95</ele>
        <time>2012-12-18T21:11:32.000Z</time>
      </trkpt>
      <trkpt lat="48.86514" lon="2.34401">
        <ele>94</ele>
        <time>2012-12-18T21:11:33.000Z</time>
      </trkpt>
      <trkpt lat="48.86516" lon="2.34396">
        <ele>95</ele>
        <time>2012-12-18T21:11:34.000Z</time>
      </trkpt>
      <trkpt lat="48.86519" lon="2.34392">
        <ele>94</ele>
        <time>2012-12-18T21:11:35.000Z</time>
      </trkpt>
      <trkpt lat="48.86519" lon="2.34385">
        <ele>94</ele>
        <time>2012-12-18T21:11:36.000Z</time>
      </trkpt>
      <trkpt lat="48.8652" lon="2.34381">
        <ele>94</ele>
        <time>2012-12-18T21:11:37.000Z</time>
      </trkpt>
      <trkpt lat="48.8652" lon="2.34372">
        <ele>95</ele>
        <time>2012-12-18T21:11:38.000Z</time>
      </trkpt>
      <trkpt lat="48.86515" lon="2.34363">
        <ele>95</ele>
        <time>2012-12-18T21:11:39.000Z</time>
      </trkpt>
      <trkpt lat="48.86517" lon="2.34359">
        <ele>96</ele>
        <time>2012-12-18T21:11:40.000Z</time>
      </trkpt>
      <trkpt lat="48.86521" lon="2.34355">
        <ele>96</ele>
        <time>2012-12-18T21:11:41.000Z</time>
      </trkpt>
      <trkpt lat="48.86521" lon="2.34349">
        <ele>96</ele>
        <time>2012-12-18T21:11:42.000Z</time>
      </trkpt>
      <trkpt lat="48.8651" lon="2.34342">
        <ele>94</ele>
        <time>2012-12-18T21:11:43.000Z</time>
      </trkpt>
      <trkpt lat="48.86514" lon="2.34336">
        <ele>94</ele>
        <time>2012-12-18T21:11:44.000Z</time>
      </trkpt>
      <trkpt lat="48.86514" lon="2.3433">
        <ele>94</ele>
        <time>2012-12-18T21:11:45.000Z</time>
      </trkpt>
      <trkpt lat="48.86515" lon="2.34326">
        <ele>94</ele>
        <time>2012-12-18T21:11:46.000Z</time>
      </trkpt>
      <trkpt lat="48.86518" lon="2.34322">
        <ele>94</ele>
        <time>2012-12-18T21:11:47.000Z</time>
      </trkpt>
      <trkpt lat="48.8652" lon="2.34318">
        <ele>94</ele>
        <time>2012-12-18T21:11:48.000Z</time>
      </trkpt>
      <trkpt lat="48.86525" lon="2.34315">
        <ele>94</ele>
        <time>2012-12-18T21:11:49.000Z</time>
      </trkpt>
      <trkpt lat="48.86528" lon="2.34313">
        <ele>94</ele>
        <time>2012-12-18T21:11:50.000Z</time>
      </trkpt>
      <trkpt lat="48.86531" lon="2.34312">
        <ele>93</ele>
        <time>2012-12-18T21:11:51.000Z</time>
      </trkpt>
      <trkpt lat="48.86533" lon="2.3431">
        <ele>93</ele>
        <time>2012-12-18T21:11:52.000Z</time>
      </trkpt>
      <trkpt lat="48.86534" lon="2.34306">
        <ele>93</ele>
        <time>2012-12-18T21:11:53.000Z</time>
      </trkpt>
      <trkpt lat="48.86535" lon="2.34301">
        <ele>92</ele>
        <time>2012-12-18T21:11:54.000Z</time>
      </trkpt>
      <trkpt lat="48.86536" lon="2.34294">
        <ele>92</ele>
        <time>2012-12-18T21:11:55.000Z</time>
      </trkpt>
      <trkpt lat="48.86538" lon="2.3429">
        <ele>92</ele>
        <time>2012-12-18T21:11:56.000Z</time>
      </trkpt>
      <trkpt lat="48.86539" lon="2.34286">
        <ele>92</ele>
        <time>2012-12-18T21:11:57.000Z</time>
      </trkpt>
      <trkpt lat="48.86539" lon="2.34281">
        <ele>91</ele>
        <time>2012-12-18T21:11:58.000Z</time>
      </trkpt>
      <trkpt lat="48.8654" lon="2.34276">
        <ele>91</ele>
        <time>2012-12-18T21:11:59.000Z</time>
      </trkpt>
      <trkpt lat="48.86542" lon="2.34272">
        <ele>91</ele>
        <time>2012-12-18T21:12:00.000Z</time>
      </trkpt>
      <trkpt lat="48.86542" lon="2.34265">
        <ele>93</ele>
        <time>2012-12-18T21:12:01.000Z</time>
      </trkpt>
      <trkpt lat="48.86543" lon="2.34263">
        <ele>93</ele>
        <time>2012-12-18T21:12:02.000Z</time>
      </trkpt>
      <trkpt lat="48.86543" lon="2.34258">
        <ele>93</ele>
        <time>2012-12-18T21:12:03.000Z</time>
      </trkpt>
      <trkpt lat="48.86545" lon="2.34251">
        <ele>93</ele>
        <time>2012-12-18T21:12:05.000Z</time>
      </trkpt>
      <trkpt lat="48.86548" lon="2.34248">
        <ele>93</ele>
        <time>2012-12-18T21:12:06.000Z</time>
      </trkpt>
      <trkpt lat="48.86549" lon="2.34244">
        <ele>93</ele>
        <time>2012-12-18T21:12:07.000Z</time>
      </trkpt>
      <trkpt lat="48.86551" lon="2.34241">
        <ele>93</ele>
        <time>2012-12-18T21:12:08.000Z</time>
      </trkpt>
      <trkpt lat="48.86554" lon="2.34236">
        <ele>93</ele>
        <time>2012-12-18T21:12:09.000Z</time>
      </trkpt>
      <trkpt lat="48.86555" lon="2.3423">
        <ele>93</ele>
        <time>2012-12-18T21:12:10.000Z</time>
      </trkpt>
      <trkpt lat="48.86557" lon="2.34225">
        <ele>93</ele>
        <time>2012-12-18T21:12:11.000Z</time>
      </trkpt>
      <trkpt lat="48.86558" lon="2.34217">
        <ele>93</ele>
        <time>2012-12-18T21:12:12.000Z</time>
      </trkpt>
      <trkpt lat="48.8656" lon="2.34216">
        <ele>93</ele>
        <time>2012-12-18T21:12:13.000Z</time>
      </trkpt>
      <trkpt lat="48.86561" lon="2.34209">
        <ele>93</ele>
        <time>2012-12-18T21:12:14.000Z</time>
      </trkpt>
      <trkpt lat="48.86562" lon="2.34205">
        <ele>93</ele>
        <time>2012-12-18T21:12:15.000Z</time>
      </trkpt>
      <trkpt lat="48.86562" lon="2.34199">
        <ele>93</ele>
        <time>2012-12-18T21:12:16.000Z</time>
      </trkpt>
      <trkpt lat="48.86562" lon="2.34193">
        <ele>93</ele>
        <time>2012-12-18T21:12:17.000Z</time>
      </trkpt>
      <trkpt lat="48.86562" lon="2.34186">
        <ele>93</ele>
        <time>2012-12-18T21:12:18.000Z</time>
      </trkpt>
      <trkpt lat="48.86563" lon="2.34179">
        <ele>94</ele>
        <time>2012-12-18T21:12:19.000Z</time>
      </trkpt>
      <trkpt lat="48.86565" lon="2.34173">
        <ele>94</ele>
        <time>2012-12-18T21:12:20.000Z</time>
      </trkpt>
      <trkpt lat="48.86568" lon="2.34165">
        <ele>94</ele>
        <time>2012-12-18T21:12:21.000Z</time>
      </trkpt>
      <trkpt lat="48.86567" lon="2.34161">
        <ele>95</ele>
        <time>2012-12-18T21:12:22.000Z</time>
      </trkpt>
      <trkpt lat="48.86571" lon="2.34153">
        <ele>95</ele>
        <time>2012-12-18T21:12:23.000Z</time>
      </trkpt>
      <trkpt lat="48.86569" lon="2.34147">
        <ele>95</ele>
        <time>2012-12-18T21:12:25.000Z</time>
      </trkpt>
      <trkpt lat="48.86571" lon="2.34144">
        <ele>94</ele>
        <time>2012-12-18T21:12:26.000Z</time>
      </trkpt>
      <trkpt lat="48.86571" lon="2.34141">
        <ele>93</ele>
        <time>2012-12-18T21:12:27.000Z</time>
      </trkpt>
      <trkpt lat="48.86573" lon="2.34136">
        <ele>93</ele>
        <time>2012-12-18T21:12:28.000Z</time>
      </trkpt>
      <trkpt lat="48.86574" lon="2.34132">
        <ele>91</ele>
        <time>2012-12-18T21:12:29.000Z</time>
      </trkpt>
      <trkpt lat="48.86575" lon="2.34129">
        <ele>91</ele>
        <time>2012-12-18T21:12:30.000Z</time>
      </trkpt>
      <trkpt lat="48.86577" lon="2.34127">
        <ele>90</ele>
        <time>2012-12-18T21:12:31.000Z</time>
      </trkpt>
      <trkpt lat="48.86578" lon="2.34124">
        <ele>91</ele>
        <time>2012-12-18T21:12:32.000Z</time>
      </trkpt>
      <trkpt lat="48.8658" lon="2.34122">
        <ele>91</ele>
        <time>2012-12-18T21:12:33.000Z</time>
      </trkpt>
      <trkpt lat="48.86584" lon="2.34119">
        <ele>90</ele>
        <time>2012-12-18T21:12:34.000Z</time>
      </trkpt>
      <trkpt lat="48.86585" lon="2.34114">
        <ele>89</ele>
        <time>2012-12-18T21:12:37.000Z</time>
      </trkpt>
      <trkpt lat="48.86582" lon="2.34108">
        <ele>91</ele>
        <time>2012-12-18T21:12:38.000Z</time>
      </trkpt>
      <trkpt lat="48.86579" lon="2.34105">
        <ele>91</ele>
        <time>2012-12-18T21:12:42.000Z</time>
      </trkpt>
      <trkpt lat="48.86578" lon="2.34104">
        <ele>91</ele>
        <time>2012-12-18T21:12:43.000Z</time>
      </trkpt>
      <trkpt lat="48.86581" lon="2.34104">
        <ele>90</ele>
        <time>2012-12-18T21:12:45.000Z</time>
      </trkpt>
      <trkpt lat="48.86583" lon="2.34103">
        <ele>90</ele>
        <time>2012-12-18T21:12:46.000Z</time>
      </trkpt>
      <trkpt lat="48.86585" lon="2.34098">
        <ele>86</ele>
        <time>2012-12-18T21:12:57.000Z</time>
      </trkpt>
      <trkpt lat="48.86586" lon="2.34095">
        <ele>86</ele>
        <time>2012-12-18T21:12:58.000Z</time>
      </trkpt>
      <trkpt lat="48.86585" lon="2.34088">
        <ele>86</ele>
        <time>2012-12-18T21:13:00.000Z</time>
      </trkpt>
      <trkpt lat="48.86586" lon="2.34084">
        <ele>86</ele>
        <time>2012-12-18T21:13:01.000Z</time>
      </trkpt>
      <trkpt lat="48.86588" lon="2.3408">
        <ele>87</ele>
        <time>2012-12-18T21:13:02.000Z</time>
      </trkpt>
      <trkpt lat="48.86589" lon="2.34075">
        <ele>87</ele>
        <time>2012-12-18T21:13:03.000Z</time>
      </trkpt>
      <trkpt lat="48.86589" lon="2.34072">
        <ele>87</ele>
        <time>2012-12-18T21:13:04.000Z</time>
      </trkpt>
      <trkpt lat="48.8659" lon="2.34066">
        <ele>87</ele>
        <time>2012-12-18T21:13:05.000Z</time>
      </trkpt>
      <trkpt lat="48.8659" lon="2.3406">
        <ele>86</ele>
        <time>2012-12-18T21:13:06.000Z</time>
      </trkpt>
      <trkpt lat="48.86591" lon="2.34056">
        <ele>87</ele>
        <time>2012-12-18T21:13:07.000Z</time>
      </trkpt>
      <trkpt lat="48.86592" lon="2.34054">
        <ele>87</ele>
        <time>2012-12-18T21:13:08.000Z</time>
      </trkpt>
      <trkpt lat="48.86593" lon="2.34048">
        <ele>87</ele>
        <time>2012-12-18T21:13:09.000Z</time>
      </trkpt>
      <trkpt lat="48.86594" lon="2.34043">
        <ele>87</ele>
        <time>2012-12-18T21:13:10.000Z</time>
      </trkpt>
      <trkpt lat="48.86596" lon="2.34039">
        <ele>87</ele>
        <time>2012-12-18T21:13:11.000Z</time>
      </trkpt>
      <trkpt lat="48.86598" lon="2.34033">
        <ele>87</ele>
        <time>2012-12-18T21:13:12.000Z</time>
      </trkpt>
      <trkpt lat="48.86598" lon="2.3403">
        <ele>87</ele>
        <time>2012-12-18T21:13:13.000Z</time>
      </trkpt>
      <trkpt lat="48.86599" lon="2.34026">
        <ele>87</ele>
        <time>2012-12-18T21:13:14.000Z</time>
      </trkpt>
      <trkpt lat="48.866" lon="2.34022">
        <ele>87</ele>
        <time>2012-12-18T21:13:15.000Z</time>
      </trkpt>
      <trkpt lat="48.86601" lon="2.34016">
        <ele>87</ele>
        <time>2012-12-18T21:13:16.000Z</time>
      </trkpt>
      <trkpt lat="48.86601" lon="2.34013">
        <ele>87</ele>
        <time>2012-12-18T21:13:17.000Z</time>
      </trkpt>
      <trkpt lat="48.86601" lon="2.34007">
        <ele>88</ele>
        <time>2012-12-18T21:13:18.000Z</time>
      </trkpt>
      <trkpt lat="48.86604" lon="2.34005">
        <ele>88</ele>
        <time>2012-12-18T21:13:19.000Z</time>
      </trkpt>
      <trkpt lat="48.86604" lon="2.34002">
        <ele>88</ele>
        <time>2012-12-18T21:13:20.000Z</time>
      </trkpt>
      <trkpt lat="48.86602" lon="2.33995">
        <ele>89</ele>
        <time>2012-12-18T21:13:21.000Z</time>
      </trkpt>
      <trkpt lat="48.86601" lon="2.33989">
        <ele>89</ele>
        <time>2012-12-18T21:13:22.000Z</time>
      </trkpt>
      <trkpt lat="48.86601" lon="2.33985">
        <ele>89</ele>
        <time>2012-12-18T21:13:23.000Z</time>
      </trkpt>
      <trkpt lat="48.86601" lon="2.33982">
        <ele>89</ele>
        <time>2012-12-18T21:13:24.000Z</time>
      </trkpt>
      <trkpt lat="48.86612" lon="2.33973">
        <ele>89</ele>
        <time>2012-12-18T21:13:26.000Z</time>
      </trkpt>
      <trkpt lat="48.86613" lon="2.33967">
        <ele>89</ele>
        <time>2012-12-18T21:13:28.000Z</time>
      </trkpt>
      <trkpt lat="48.86614" lon="2.33962">
        <ele>89</ele>
        <time>2012-12-18T21:13:29.000Z</time>
      </trkpt>
      <trkpt lat="48.86615" lon="2.33956">
        <ele>88</ele>
        <time>2012-12-18T21:13:30.000Z</time>
      </trkpt>
      <trkpt lat="48.86617" lon="2.3395">
        <ele>88</ele>
        <time>2012-12-18T21:13:31.000Z</time>
      </trkpt>
      <trkpt lat="48.86618" lon="2.33946">
        <ele>88</ele>
        <time>2012-12-18T21:13:32.000Z</time>
      </trkpt>
      <trkpt lat="48.8662" lon="2.3394">
        <ele>88</ele>
        <time>2012-12-18T21:13:33.000Z</time>
      </trkpt>
      <trkpt lat="48.86622" lon="2.33934">
        <ele>88</ele>
        <time>2012-12-18T21:13:34.000Z</time>
      </trkpt>
      <trkpt lat="48.86623" lon="2.3393">
        <ele>88</ele>
        <time>2012-12-18T21:13:35.000Z</time>
      </trkpt>
      <trkpt lat="48.86624" lon="2.33922">
        <ele>88</ele>
        <time>2012-12-18T21:13:36.000Z</time>
      </trkpt>
      <trkpt lat="48.86625" lon="2.33918">
        <ele>88</ele>
        <time>2012-12-18T21:13:37.000Z</time>
      </trkpt>
      <trkpt lat="48.86625" lon="2.33911">
        <ele>87</ele>
        <time>2012-12-18T21:13:38.000Z</time>
      </trkpt>
      <trkpt lat="48.86626" lon="2.33905">
        <ele>87</ele>
        <time>2012-12-18T21:13:40.000Z</time>
      </trkpt>
      <trkpt lat="48.86632" lon="2.33898">
        <ele>87</ele>
        <time>2012-12-18T21:13:41.000Z</time>
      </trkpt>
      <trkpt lat="48.86638" lon="2.33893">
        <ele>87</ele>
        <time>2012-12-18T21:13:42.000Z</time>
      </trkpt>
      <trkpt lat="48.86639" lon="2.33886">
        <ele>87</ele>
        <time>2012-12-18T21:13:43.000Z</time>
      </trkpt>
      <trkpt lat="48.86642" lon="2.33881">
        <ele>87</ele>
        <time>2012-12-18T21:13:44.000Z</time>
      </trkpt>
      <trkpt lat="48.86643" lon="2.33877">
        <ele>87</ele>
        <time>2012-12-18T21:13:45.000Z</time>
      </trkpt>
      <trkpt lat="48.86643" lon="2.33871">
        <ele>87</ele>
        <time>2012-12-18T21:13:46.000Z</time>
      </trkpt>
      <trkpt lat="48.86645" lon="2.33866">
        <ele>87</ele>
        <time>2012-12-18T21:13:47.000Z</time>
      </trkpt>
      <trkpt lat="48.86638" lon="2.33839">
        <ele>88</ele>
        <time>2012-12-18T21:13:48.000Z</time>
      </trkpt>
      <trkpt lat="48.86638" lon="2.33828">
        <ele>88</ele>
        <time>2012-12-18T21:13:49.000Z</time>
      </trkpt>
      <trkpt lat="48.86637" lon="2.3382">
        <ele>89</ele>
        <time>2012-12-18T21:13:50.000Z</time>
      </trkpt>
      <trkpt lat="48.86638" lon="2.33817">
        <ele>89</ele>
        <time>2012-12-18T21:13:51.000Z</time>
      </trkpt>
      <trkpt lat="48.86638" lon="2.33812">
        <ele>89</ele>
        <time>2012-12-18T21:13:52.000Z</time>
      </trkpt>
      <trkpt lat="48.86639" lon="2.33808">
        <ele>89</ele>
        <time>2012-12-18T21:13:53.000Z</time>
      </trkpt>
      <trkpt lat="48.86643" lon="2.33801">
        <ele>88</ele>
        <time>2012-12-18T21:13:54.000Z</time>
      </trkpt>
      <trkpt lat="48.86646" lon="2.33796">
        <ele>88</ele>
        <time>2012-12-18T21:13:55.000Z</time>
      </trkpt>
      <trkpt lat="48.86647" lon="2.33791">
        <ele>88</ele>
        <time>2012-12-18T21:13:56.000Z</time>
      </trkpt>
      <trkpt lat="48.8665" lon="2.33786">
        <ele>88</ele>
        <time>2012-12-18T21:13:57.000Z</time>
      </trkpt>
      <trkpt lat="48.86652" lon="2.33783">
        <ele>88</ele>
        <time>2012-12-18T21:13:58.000Z</time>
      </trkpt>
      <trkpt lat="48.86652" lon="2.33777">
        <ele>87</ele>
        <time>2012-12-18T21:13:59.000Z</time>
      </trkpt>
      <trkpt lat="48.86655" lon="2.33775">
        <ele>87</ele>
        <time>2012-12-18T21:14:00.000Z</time>
      </trkpt>
      <trkpt lat="48.86657" lon="2.33771">
        <ele>87</ele>
        <time>2012-12-18T21:14:03.000Z</time>
      </trkpt>
      <trkpt lat="48.86666" lon="2.33774">
        <ele>88</ele>
        <time>2012-12-18T21:14:04.000Z</time>
      </trkpt>
      <trkpt lat="48.86668" lon="2.33772">
        <ele>88</ele>
        <time>2012-12-18T21:14:05.000Z</time>
      </trkpt>
      <trkpt lat="48.86672" lon="2.33767">
        <ele>88</ele>
        <time>2012-12-18T21:14:06.000Z</time>
      </trkpt>
      <trkpt lat="48.86675" lon="2.33764">
        <ele>87</ele>
        <time>2012-12-18T21:14:07.000Z</time>
      </trkpt>
      <trkpt lat="48.86678" lon="2.33761">
        <ele>87</ele>
        <time>2012-12-18T21:14:08.000Z</time>
      </trkpt>
      <trkpt lat="48.86681" lon="2.33758">
        <ele>87</ele>
        <time>2012-12-18T21:14:10.000Z</time>
      </trkpt>
      <trkpt lat="48.86682" lon="2.33757">
        <ele>87</ele>
        <time>2012-12-18T21:14:11.000Z</time>
      </trkpt>
      <trkpt lat="48.86685" lon="2.33753">
        <ele>87</ele>
        <time>2012-12-18T21:14:13.000Z</time>
      </trkpt>
      <trkpt lat="48.86687" lon="2.3375">
        <ele>87</ele>
        <time>2012-12-18T21:14:14.000Z</time>
      </trkpt>
      <trkpt lat="48.86689" lon="2.33746">
        <ele>87</ele>
        <time>2012-12-18T21:14:16.000Z</time>
      </trkpt>
      <trkpt lat="48.86671" lon="2.33737">
        <ele>86</ele>
        <time>2012-12-18T21:14:17.000Z</time>
      </trkpt>
      <trkpt lat="48.86674" lon="2.33736">
        <ele>86</ele>
        <time>2012-12-18T21:14:18.000Z</time>
      </trkpt>
      <trkpt lat="48.86676" lon="2.33731">
        <ele>86</ele>
        <time>2012-12-18T21:14:19.000Z</time>
      </trkpt>
      <trkpt lat="48.86676" lon="2.33728">
        <ele>86</ele>
        <time>2012-12-18T21:14:20.000Z</time>
      </trkpt>
      <trkpt lat="48.86677" lon="2.33724">
        <ele>86</ele>
        <time>2012-12-18T21:14:21.000Z</time>
      </trkpt>
      <trkpt lat="48.8668" lon="2.33721">
        <ele>86</ele>
        <time>2012-12-18T21:14:22.000Z</time>
      </trkpt>
      <trkpt lat="48.86681" lon="2.33716">
        <ele>86</ele>
        <time>2012-12-18T21:14:23.000Z</time>
      </trkpt>
      <trkpt lat="48.86682" lon="2.33713">
        <ele>86</ele>
        <time>2012-12-18T21:14:24.000Z</time>
      </trkpt>
      <trkpt lat="48.86683" lon="2.33707">
        <ele>86</ele>
        <time>2012-12-18T21:14:25.000Z</time>
      </trkpt>
      <trkpt lat="48.86686" lon="2.33706">
        <ele>86</ele>
        <time>2012-12-18T21:14:26.000Z</time>
      </trkpt>
      <trkpt lat="48.86687" lon="2.337">
        <ele>86</ele>
        <time>2012-12-18T21:14:27.000Z</time>
      </trkpt>
      <trkpt lat="48.86688" lon="2.33697">
        <ele>86</ele>
        <time>2012-12-18T21:14:28.000Z</time>
      </trkpt>
      <trkpt lat="48.8669" lon="2.33693">
        <ele>86</ele>
        <time>2012-12-18T21:14:29.000Z</time>
      </trkpt>
      <trkpt lat="48.86691" lon="2.3369">
        <ele>86</ele>
        <time>2012-12-18T21:14:30.000Z</time>
      </trkpt>
      <trkpt lat="48.86692" lon="2.3368">
        <ele>86</ele>
        <time>2012-12-18T21:14:31.000Z</time>
      </trkpt>
      <trkpt lat="48.86694" lon="2.33676">
        <ele>86</ele>
        <time>2012-12-18T21:14:32.000Z</time>
      </trkpt>
      <trkpt lat="48.86696" lon="2.33671">
        <ele>86</ele>
        <time>2012-12-18T21:14:33.000Z</time>
      </trkpt>
      <trkpt lat="48.86698" lon="2.33665">
        <ele>86</ele>
        <time>2012-12-18T21:14:34.000Z</time>
      </trkpt>
      <trkpt lat="48.86699" lon="2.3366">
        <ele>86</ele>
        <time>2012-12-18T21:14:35.000Z</time>
      </trkpt>
      <trkpt lat="48.86701" lon="2.33655">
        <ele>86</ele>
        <time>2012-12-18T21:14:36.000Z</time>
      </trkpt>
      <trkpt lat="48.86717" lon="2.33597">
        <ele>86</ele>
        <time>2012-12-18T21:14:45.000Z</time>
      </trkpt>
      <trkpt lat="48.86717" lon="2.33594">
        <ele>86</ele>
        <time>2012-12-18T21:14:46.000Z</time>
      </trkpt>
      <trkpt lat="48.86715" lon="2.33583">
        <ele>85</ele>
        <time>2012-12-18T21:14:47.000Z</time>
      </trkpt>
      <trkpt lat="48.86713" lon="2.33575">
        <ele>85</ele>
        <time>2012-12-18T21:14:48.000Z</time>
      </trkpt>
      <trkpt lat="48.86714" lon="2.3357">
        <ele>85</ele>
        <time>2012-12-18T21:14:49.000Z</time>
      </trkpt>
      <trkpt lat="48.86717" lon="2.33565">
        <ele>85</ele>
        <time>2012-12-18T21:14:50.000Z</time>
      </trkpt>
      <trkpt lat="48.86718" lon="2.33557">
        <ele>85</ele>
        <time>2012-12-18T21:14:51.000Z</time>
      </trkpt>
      <trkpt lat="48.8672" lon="2.33553">
        <ele>85</ele>
        <time>2012-12-18T21:14:52.000Z</time>
      </trkpt>
      <trkpt lat="48.8672" lon="2.33545">
        <ele>85</ele>
        <time>2012-12-18T21:14:53.000Z</time>
      </trkpt>
      <trkpt lat="48.86721" lon="2.33539">
        <ele>85</ele>
        <time>2012-12-18T21:14:54.000Z</time>
      </trkpt>
      <trkpt lat="48.86721" lon="2.33533">
        <ele>85</ele>
        <time>2012-12-18T21:14:55.000Z</time>
      </trkpt>
      <trkpt lat="48.86722" lon="2.33528">
        <ele>85</ele>
        <time>2012-12-18T21:14:56.000Z</time>
      </trkpt>
      <trkpt lat="48.86722" lon="2.33521">
        <ele>85</ele>
        <time>2012-12-18T21:14:57.000Z</time>
      </trkpt>
      <trkpt lat="48.86722" lon="2.33515">
        <ele>85</ele>
        <time>2012-12-18T21:14:58.000Z</time>
      </trkpt>
      <trkpt lat="48.86724" lon="2.33505">
        <ele>85</ele>
        <time>2012-12-18T21:14:59.000Z</time>
      </trkpt>
      <trkpt lat="48.86725" lon="2.33499">
        <ele>85</ele>
        <time>2012-12-18T21:15:00.000Z</time>
      </trkpt>
      <trkpt lat="48.86725" lon="2.33488">
        <ele>86</ele>
        <time>2012-12-18T21:15:01.000Z</time>
      </trkpt>
      <trkpt lat="48.86727" lon="2.33484">
        <ele>86</ele>
        <time>2012-12-18T21:15:02.000Z</time>
      </trkpt>
      <trkpt lat="48.86728" lon="2.33479">
        <ele>86</ele>
        <time>2012-12-18T21:15:03.000Z</time>
      </trkpt>
      <trkpt lat="48.86728" lon="2.33476">
        <ele>86</ele>
        <time>2012-12-18T21:15:04.000Z</time>
      </trkpt>
      <trkpt lat="48.8673" lon="2.33471">
        <ele>86</ele>
        <time>2012-12-18T21:15:05.000Z</time>
      </trkpt>
      <trkpt lat="48.86732" lon="2.33468">
        <ele>86</ele>
        <time>2012-12-18T21:15:06.000Z</time>
      </trkpt>
      <trkpt lat="48.86734" lon="2.33465">
        <ele>86</ele>
        <time>2012-12-18T21:15:07.000Z</time>
      </trkpt>
      <trkpt lat="48.86735" lon="2.3346">
        <ele>86</ele>
        <time>2012-12-18T21:15:08.000Z</time>
      </trkpt>
      <trkpt lat="48.86736" lon="2.33457">
        <ele>86</ele>
        <time>2012-12-18T21:15:09.000Z</time>
      </trkpt>
      <trkpt lat="48.86738" lon="2.33454">
        <ele>86</ele>
        <time>2012-12-18T21:15:10.000Z</time>
      </trkpt>
      <trkpt lat="48.86741" lon="2.33449">
        <ele>86</ele>
        <time>2012-12-18T21:15:11.000Z</time>
      </trkpt>
      <trkpt lat="48.86742" lon="2.33446">
        <ele>86</ele>
        <time>2012-12-18T21:15:12.000Z</time>
      </trkpt>
      <trkpt lat="48.86743" lon="2.3344">
        <ele>86</ele>
        <time>2012-12-18T21:15:13.000Z</time>
      </trkpt>
      <trkpt lat="48.86745" lon="2.33437">
        <ele>86</ele>
        <time>2012-12-18T21:15:14.000Z</time>
      </trkpt>
      <trkpt lat="48.86744" lon="2.33431">
        <ele>86</ele>
        <time>2012-12-18T21:15:15.000Z</time>
      </trkpt>
      <trkpt lat="48.86742" lon="2.33424">
        <ele>85</ele>
        <time>2012-12-18T21:15:16.000Z</time>
      </trkpt>
      <trkpt lat="48.86743" lon="2.3342">
        <ele>85</ele>
        <time>2012-12-18T21:15:17.000Z</time>
      </trkpt>
      <trkpt lat="48.86744" lon="2.33413">
        <ele>85</ele>
        <time>2012-12-18T21:15:18.000Z</time>
      </trkpt>
      <trkpt lat="48.86745" lon="2.33405">
        <ele>87</ele>
        <time>2012-12-18T21:15:19.000Z</time>
      </trkpt>
      <trkpt lat="48.86748" lon="2.33398">
        <ele>86</ele>
        <time>2012-12-18T21:15:20.000Z</time>
      </trkpt>
      <trkpt lat="48.86749" lon="2.33393">
        <ele>88</ele>
        <time>2012-12-18T21:15:21.000Z</time>
      </trkpt>
      <trkpt lat="48.8675" lon="2.33388">
        <ele>90</ele>
        <time>2012-12-18T21:15:22.000Z</time>
      </trkpt>
      <trkpt lat="48.86753" lon="2.33383">
        <ele>91</ele>
        <time>2012-12-18T21:15:24.000Z</time>
      </trkpt>
      <trkpt lat="48.86754" lon="2.33381">
        <ele>92</ele>
        <time>2012-12-18T21:15:25.000Z</time>
      </trkpt>
      <trkpt lat="48.86757" lon="2.33378">
        <ele>92</ele>
        <time>2012-12-18T21:15:27.000Z</time>
      </trkpt>
      <trkpt lat="48.86758" lon="2.33375">
        <ele>93</ele>
        <time>2012-12-18T21:15:28.000Z</time>
      </trkpt>
      <trkpt lat="48.86758" lon="2.33369">
        <ele>96</ele>
        <time>2012-12-18T21:15:30.000Z</time>
      </trkpt>
      <trkpt lat="48.8676" lon="2.33368">
        <ele>96</ele>
        <time>2012-12-18T21:15:31.000Z</time>
      </trkpt>
      <trkpt lat="48.86764" lon="2.33365">
        <ele>96</ele>
        <time>2012-12-18T21:15:34.000Z</time>
      </trkpt>
      <trkpt lat="48.86765" lon="2.33364">
        <ele>96</ele>
        <time>2012-12-18T21:15:35.000Z</time>
      </trkpt>
      <trkpt lat="48.86765" lon="2.33355">
        <ele>98</ele>
        <time>2012-12-18T21:15:36.000Z</time>
      </trkpt>
      <trkpt lat="48.86765" lon="2.33348">
        <ele>99</ele>
        <time>2012-12-18T21:15:37.000Z</time>
      </trkpt>
      <trkpt lat="48.86766" lon="2.33343">
        <ele>100</ele>
        <time>2012-12-18T21:15:38.000Z</time>
      </trkpt>
      <trkpt lat="48.86766" lon="2.33339">
        <ele>101</ele>
        <time>2012-12-18T21:15:39.000Z</time>
      </trkpt>
      <trkpt lat="48.86768" lon="2.33333">
        <ele>101</ele>
        <time>2012-12-18T21:15:40.000Z</time>
      </trkpt>
      <trkpt lat="48.86769" lon="2.33327">
        <ele>101</ele>
        <time>2012-12-18T21:15:41.000Z</time>
      </trkpt>
      <trkpt lat="48.86771" lon="2.33323">
        <ele>101</ele>
        <time>2012-12-18T21:15:42.000Z</time>
      </trkpt>
      <trkpt lat="48.86772" lon="2.33319">
        <ele>102</ele>
        <time>2012-12-18T21:15:43.000Z</time>
      </trkpt>
      <trkpt lat="48.86775" lon="2.33315">
        <ele>101</ele>
        <time>2012-12-18T21:15:44.000Z</time>
      </trkpt>
      <trkpt lat="48.86776" lon="2.33311">
        <ele>101</ele>
        <time>2012-12-18T21:15:45.000Z</time>
      </trkpt>
      <trkpt lat="48.86777" lon="2.33308">
        <ele>102</ele>
        <time>2012-12-18T21:15:46.000Z</time>
      </trkpt>
      <trkpt lat="48.86779" lon="2.33304">
        <ele>101</ele>
        <time>2012-12-18T21:15:47.000Z</time>
      </trkpt>
      <trkpt lat="48.86783" lon="2.33296">
        <ele>101</ele>
        <time>2012-12-18T21:15:48.000Z</time>
      </trkpt>
      <trkpt lat="48.86786" lon="2.3329">
        <ele>101</ele>
        <time>2012-12-18T21:15:49.000Z</time>
      </trkpt>
      <trkpt lat="48.8679" lon="2.33283">
        <ele>101</ele>
        <time>2012-12-18T21:15:50.000Z</time>
      </trkpt>
      <trkpt lat="48.8679" lon="2.3328">
        <ele>101</ele>
        <time>2012-12-18T21:15:51.000Z</time>
      </trkpt>
      <trkpt lat="48.86789" lon="2.33275">
        <ele>101</ele>
        <time>2012-12-18T21:15:52.000Z</time>
      </trkpt>
      <trkpt lat="48.8679" lon="2.3327">
        <ele>101</ele>
        <time>2012-12-18T21:15:53.000Z</time>
      </trkpt>
      <trkpt lat="48.86791" lon="2.33266">
        <ele>101</ele>
        <time>2012-12-18T21:15:54.000Z</time>
      </trkpt>
      <trkpt lat="48.86792" lon="2.33263">
        <ele>101</ele>
        <time>2012-12-18T21:15:55.000Z</time>
      </trkpt>
      <trkpt lat="48.86793" lon="2.33259">
        <ele>101</ele>
        <time>2012-12-18T21:15:56.000Z</time>
      </trkpt>
      <trkpt lat="48.86796" lon="2.33255">
        <ele>101</ele>
        <time>2012-12-18T21:15:57.000Z</time>
      </trkpt>
      <trkpt lat="48.86782" lon="2.33248">
        <ele>101</ele>
        <time>2012-12-18T21:15:58.000Z</time>
      </trkpt>
      <trkpt lat="48.86783" lon="2.33244">
        <ele>101</ele>
        <time>2012-12-18T21:15:59.000Z</time>
      </trkpt>
      <trkpt lat="48.86782" lon="2.33236">
        <ele>101</ele>
        <time>2012-12-18T21:16:00.000Z</time>
      </trkpt>
      <trkpt lat="48.86784" lon="2.3323">
        <ele>102</ele>
        <time>2012-12-18T21:16:01.000Z</time>
      </trkpt>
      <trkpt lat="48.86785" lon="2.3322">
        <ele>101</ele>
        <time>2012-12-18T21:16:02.000Z</time>
      </trkpt>
      <trkpt lat="48.86786" lon="2.33213">
        <ele>101</ele>
        <time>2012-12-18T21:16:03.000Z</time>
      </trkpt>
      <trkpt lat="48.86787" lon="2.33208">
        <ele>101</ele>
        <time>2012-12-18T21:16:04.000Z</time>
      </trkpt>
      <trkpt lat="48.86788" lon="2.33201">
        <ele>101</ele>
        <time>2012-12-18T21:16:05.000Z</time>
      </trkpt>
      <trkpt lat="48.8679" lon="2.33194">
        <ele>100</ele>
        <time>2012-12-18T21:16:06.000Z</time>
      </trkpt>
      <trkpt lat="48.86791" lon="2.3319">
        <ele>100</ele>
        <time>2012-12-18T21:16:07.000Z</time>
      </trkpt>
      <trkpt lat="48.86793" lon="2.33184">
        <ele>99</ele>
        <time>2012-12-18T21:16:08.000Z</time>
      </trkpt>
      <trkpt lat="48.86794" lon="2.33178">
        <ele>99</ele>
        <time>2012-12-18T21:16:09.000Z</time>
      </trkpt>
      <trkpt lat="48.86795" lon="2.33172">
        <ele>98</ele>
        <time>2012-12-18T21:16:10.000Z</time>
      </trkpt>
      <trkpt lat="48.86799" lon="2.33169">
        <ele>98</ele>
        <time>2012-12-18T21:16:11.000Z</time>
      </trkpt>
      <trkpt lat="48.86802" lon="2.33164">
        <ele>98</ele>
        <time>2012-12-18T21:16:12.000Z</time>
      </trkpt>
      <trkpt lat="48.86803" lon="2.3316">
        <ele>98</ele>
        <time>2012-12-18T21:16:13.000Z</time>
      </trkpt>
      <trkpt lat="48.86806" lon="2.33154">
        <ele>98</ele>
        <time>2012-12-18T21:16:14.000Z</time>
      </trkpt>
      <trkpt lat="48.86808" lon="2.33149">
        <ele>98</ele>
        <time>2012-12-18T21:16:15.000Z</time>
      </trkpt>
      <trkpt lat="48.86809" lon="2.33142">
        <ele>98</ele>
        <time>2012-12-18T21:16:16.000Z</time>
      </trkpt>
      <trkpt lat="48.8681" lon="2.33138">
        <ele>98</ele>
        <time>2012-12-18T21:16:17.000Z</time>
      </trkpt>
      <trkpt lat="48.86811" lon="2.33133">
        <ele>98</ele>
        <time>2012-12-18T21:16:18.000Z</time>
      </trkpt>
      <trkpt lat="48.86812" lon="2.3313">
        <ele>98</ele>
        <time>2012-12-18T21:16:19.000Z</time>
      </trkpt>
      <trkpt lat="48.86817" lon="2.33127">
        <ele>97</ele>
        <time>2012-12-18T21:16:20.000Z</time>
      </trkpt>
      <trkpt lat="48.86821" lon="2.33122">
        <ele>97</ele>
        <time>2012-12-18T21:16:21.000Z</time>
      </trkpt>
      <trkpt lat="48.86823" lon="2.33118">
        <ele>97</ele>
        <time>2012-12-18T21:16:22.000Z</time>
      </trkpt>
      <trkpt lat="48.86823" lon="2.3311">
        <ele>97</ele>
        <time>2012-12-18T21:16:23.000Z</time>
      </trkpt>
      <trkpt lat="48.86825" lon="2.33106">
        <ele>97</ele>
        <time>2012-12-18T21:16:24.000Z</time>
      </trkpt>
      <trkpt lat="48.86835" lon="2.33093">
        <ele>97</ele>
        <time>2012-12-18T21:16:26.000Z</time>
      </trkpt>
      <trkpt lat="48.86842" lon="2.33091">
        <ele>97</ele>
        <time>2012-12-18T21:16:27.000Z</time>
      </trkpt>
      <trkpt lat="48.86841" lon="2.33084">
        <ele>97</ele>
        <time>2012-12-18T21:16:28.000Z</time>
      </trkpt>
      <trkpt lat="48.86845" lon="2.33078">
        <ele>97</ele>
        <time>2012-12-18T21:16:29.000Z</time>
      </trkpt>
      <trkpt lat="48.8684" lon="2.3307">
        <ele>96</ele>
        <time>2012-12-18T21:16:30.000Z</time>
      </trkpt>
      <trkpt lat="48.86832" lon="2.3306">
        <ele>96</ele>
        <time>2012-12-18T21:16:31.000Z</time>
      </trkpt>
      <trkpt lat="48.86827" lon="2.33052">
        <ele>95</ele>
        <time>2012-12-18T21:16:32.000Z</time>
      </trkpt>
      <trkpt lat="48.86823" lon="2.33047">
        <ele>95</ele>
        <time>2012-12-18T21:16:33.000Z</time>
      </trkpt>
      <trkpt lat="48.86826" lon="2.33042">
        <ele>94</ele>
        <time>2012-12-18T21:16:37.000Z</time>
      </trkpt>
      <trkpt lat="48.86827" lon="2.33041">
        <ele>94</ele>
        <time>2012-12-18T21:16:38.000Z</time>
      </trkpt>
      <trkpt lat="48.86827" lon="2.33036">
        <ele>95</ele>
        <time>2012-12-18T21:16:45.000Z</time>
      </trkpt>
      <trkpt lat="48.86827" lon="2.33034">
        <ele>95</ele>
        <time>2012-12-18T21:16:46.000Z</time>
      </trkpt>
      <trkpt lat="48.8683" lon="2.33032">
        <ele>96</ele>
        <time>2012-12-18T21:16:48.000Z</time>
      </trkpt>
      <trkpt lat="48.86832" lon="2.3303">
        <ele>96</ele>
        <time>2012-12-18T21:16:49.000Z</time>
      </trkpt>
      <trkpt lat="48.86835" lon="2.33027">
        <ele>95</ele>
        <time>2012-12-18T21:16:50.000Z</time>
      </trkpt>
      <trkpt lat="48.86836" lon="2.33024">
        <ele>98</ele>
        <time>2012-12-18T21:16:51.000Z</time>
      </trkpt>
      <trkpt lat="48.86837" lon="2.33018">
        <ele>100</ele>
        <time>2012-12-18T21:16:56.000Z</time>
      </trkpt>
      <trkpt lat="48.86841" lon="2.33017">
        <ele>96</ele>
        <time>2012-12-18T21:16:57.000Z</time>
      </trkpt>
      <trkpt lat="48.86843" lon="2.33013">
        <ele>97</ele>
        <time>2012-12-18T21:16:59.000Z</time>
      </trkpt>
      <trkpt lat="48.86845" lon="2.3301">
        <ele>97</ele>
        <time>2012-12-18T21:17:00.000Z</time>
      </trkpt>
      <trkpt lat="48.86849" lon="2.33006">
        <ele>98</ele>
        <time>2012-12-18T21:17:02.000Z</time>
      </trkpt>
      <trkpt lat="48.86852" lon="2.33002">
        <ele>97</ele>
        <time>2012-12-18T21:17:03.000Z</time>
      </trkpt>
      <trkpt lat="48.86854" lon="2.33">
        <ele>96</ele>
        <time>2012-12-18T21:17:04.000Z</time>
      </trkpt>
      <trkpt lat="48.86857" lon="2.32997">
        <ele>96</ele>
        <time>2012-12-18T21:17:05.000Z</time>
      </trkpt>
      <trkpt lat="48.86859" lon="2.32994">
        <ele>96</ele>
        <time>2012-12-18T21:17:06.000Z</time>
      </trkpt>
      <trkpt lat="48.86861" lon="2.32992">
        <ele>95</ele>
        <time>2012-12-18T21:17:07.000Z</time>
      </trkpt>
      <trkpt lat="48.86863" lon="2.32987">
        <ele>95</ele>
        <time>2012-12-18T21:17:08.000Z</time>
      </trkpt>
      <trkpt lat="48.86865" lon="2.32983">
        <ele>95</ele>
        <time>2012-12-18T21:17:09.000Z</time>
      </trkpt>
      <trkpt lat="48.86867" lon="2.32979">
        <ele>95</ele>
        <time>2012-12-18T21:17:10.000Z</time>
      </trkpt>
      <trkpt lat="48.86869" lon="2.32977">
        <ele>95</ele>
        <time>2012-12-18T21:17:11.000Z</time>
      </trkpt>
      <trkpt lat="48.86871" lon="2.32973">
        <ele>95</ele>
        <time>2012-12-18T21:17:12.000Z</time>
      </trkpt>
      <trkpt lat="48.86875" lon="2.3297">
        <ele>95</ele>
        <time>2012-12-18T21:17:13.000Z</time>
      </trkpt>
      <trkpt lat="48.86877" lon="2.32964">
        <ele>94</ele>
        <time>2012-12-18T21:17:14.000Z</time>
      </trkpt>
      <trkpt lat="48.8688" lon="2.32957">
        <ele>94</ele>
        <time>2012-12-18T21:17:15.000Z</time>
      </trkpt>
      <trkpt lat="48.86879" lon="2.32951">
        <ele>94</ele>
        <time>2012-12-18T21:17:16.000Z</time>
      </trkpt>
      <trkpt lat="48.86879" lon="2.32948">
        <ele>94</ele>
        <time>2012-12-18T21:17:17.000Z</time>
      </trkpt>
      <trkpt lat="48.8688" lon="2.32943">
        <ele>93</ele>
        <time>2012-12-18T21:17:18.000Z</time>
      </trkpt>
      <trkpt lat="48.86881" lon="2.32937">
        <ele>93</ele>
        <time>2012-12-18T21:17:19.000Z</time>
      </trkpt>
      <trkpt lat="48.86883" lon="2.32934">
        <ele>93</ele>
        <time>2012-12-18T21:17:20.000Z</time>
      </trkpt>
      <trkpt lat="48.86891" lon="2.32934">
        <ele>93</ele>
        <time>2012-12-18T21:17:21.000Z</time>
      </trkpt>
      <trkpt lat="48.86895" lon="2.32931">
        <ele>93</ele>
        <time>2012-12-18T21:17:22.000Z</time>
      </trkpt>
      <trkpt lat="48.86897" lon="2.32928">
        <ele>93</ele>
        <time>2012-12-18T21:17:23.000Z</time>
      </trkpt>
      <trkpt lat="48.86899" lon="2.32927">
        <ele>93</ele>
        <time>2012-12-18T21:17:24.000Z</time>
      </trkpt>
      <trkpt lat="48.86903" lon="2.32924">
        <ele>92</ele>
        <time>2012-12-18T21:17:25.000Z</time>
      </trkpt>
      <trkpt lat="48.86907" lon="2.32919">
        <ele>92</ele>
        <time>2012-12-18T21:17:26.000Z</time>
      </trkpt>
      <trkpt lat="48.8691" lon="2.32915">
        <ele>92</ele>
        <time>2012-12-18T21:17:27.000Z</time>
      </trkpt>
      <trkpt lat="48.86915" lon="2.32914">
        <ele>91</ele>
        <time>2012-12-18T21:17:28.000Z</time>
      </trkpt>
      <trkpt lat="48.86922" lon="2.3291">
        <ele>91</ele>
        <time>2012-12-18T21:17:29.000Z</time>
      </trkpt>
      <trkpt lat="48.86928" lon="2.32907">
        <ele>90</ele>
        <time>2012-12-18T21:17:30.000Z</time>
      </trkpt>
      <trkpt lat="48.86932" lon="2.32904">
        <ele>89</ele>
        <time>2012-12-18T21:17:31.000Z</time>
      </trkpt>
      <trkpt lat="48.86934" lon="2.32901">
        <ele>89</ele>
        <time>2012-12-18T21:17:32.000Z</time>
      </trkpt>
      <trkpt lat="48.86938" lon="2.32898">
        <ele>89</ele>
        <time>2012-12-18T21:17:33.000Z</time>
      </trkpt>
      <trkpt lat="48.86944" lon="2.32896">
        <ele>89</ele>
        <time>2012-12-18T21:17:34.000Z</time>
      </trkpt>
      <trkpt lat="48.86947" lon="2.32889">
        <ele>90</ele>
        <time>2012-12-18T21:17:35.000Z</time>
      </trkpt>
      <trkpt lat="48.86952" lon="2.32885">
        <ele>90</ele>
        <time>2012-12-18T21:17:36.000Z</time>
      </trkpt>
      <trkpt lat="48.86955" lon="2.32878">
        <ele>90</ele>
        <time>2012-12-18T21:17:37.000Z</time>
      </trkpt>
      <trkpt lat="48.86959" lon="2.32873">
        <ele>90</ele>
        <time>2012-12-18T21:17:38.000Z</time>
      </trkpt>
      <trkpt lat="48.86966" lon="2.3287">
        <ele>91</ele>
        <time>2012-12-18T21:17:39.000Z</time>
      </trkpt>
      <trkpt lat="48.86969" lon="2.32864">
        <ele>91</ele>
        <time>2012-12-18T21:17:40.000Z</time>
      </trkpt>
      <trkpt lat="48.86971" lon="2.32857">
        <ele>91</ele>
        <time>2012-12-18T21:17:41.000Z</time>
      </trkpt>
      <trkpt lat="48.86974" lon="2.32852">
        <ele>91</ele>
        <time>2012-12-18T21:17:42.000Z</time>
      </trkpt>
      <trkpt lat="48.86978" lon="2.32848">
        <ele>91</ele>
        <time>2012-12-18T21:17:43.000Z</time>
      </trkpt>
      <trkpt lat="48.86981" lon="2.32841">
        <ele>91</ele>
        <time>2012-12-18T21:17:44.000Z</time>
      </trkpt>
      <trkpt lat="48.86984" lon="2.32835">
        <ele>91</ele>
        <time>2012-12-18T21:17:45.000Z</time>
      </trkpt>
      <trkpt lat="48.86988" lon="2.3283">
        <ele>91</ele>
        <time>2012-12-18T21:17:46.000Z</time>
      </trkpt>
      <trkpt lat="48.86988" lon="2.32821">
        <ele>93</ele>
        <time>2012-12-18T21:17:47.000Z</time>
      </trkpt>
      <trkpt lat="48.86982" lon="2.32821">
        <ele>94</ele>
        <time>2012-12-18T21:17:48.000Z</time>
      </trkpt>
      <trkpt lat="48.86981" lon="2.32819">
        <ele>94</ele>
        <time>2012-12-18T21:17:49.000Z</time>
      </trkpt>
      <trkpt lat="48.86981" lon="2.32813">
        <ele>94</ele>
        <time>2012-12-18T21:17:50.000Z</time>
      </trkpt>
      <trkpt lat="48.86982" lon="2.32808">
        <ele>94</ele>
        <time>2012-12-18T21:17:52.000Z</time>
      </trkpt>
      <trkpt lat="48.86978" lon="2.32804">
        <ele>94</ele>
        <time>2012-12-18T21:17:53.000Z</time>
      </trkpt>
      <trkpt lat="48.86978" lon="2.328">
        <ele>94</ele>
        <time>2012-12-18T21:17:54.000Z</time>
      </trkpt>
      <trkpt lat="48.86979" lon="2.32796">
        <ele>94</ele>
        <time>2012-12-18T21:17:55.000Z</time>
      </trkpt>
      <trkpt lat="48.8698" lon="2.32792">
        <ele>94</ele>
        <time>2012-12-18T21:17:57.000Z</time>
      </trkpt>
      <trkpt lat="48.86981" lon="2.3279">
        <ele>94</ele>
        <time>2012-12-18T21:17:58.000Z</time>
      </trkpt>
      <trkpt lat="48.8698" lon="2.32785">
        <ele>93</ele>
        <time>2012-12-18T21:18:00.000Z</time>
      </trkpt>
      <trkpt lat="48.86978" lon="2.32782">
        <ele>94</ele>
        <time>2012-12-18T21:18:01.000Z</time>
      </trkpt>
      <trkpt lat="48.86976" lon="2.32777">
        <ele>93</ele>
        <time>2012-12-18T21:18:03.000Z</time>
      </trkpt>
      <trkpt lat="48.86976" lon="2.32772">
        <ele>93</ele>
        <time>2012-12-18T21:18:04.000Z</time>
      </trkpt>
      <trkpt lat="48.86978" lon="2.32767">
        <ele>93</ele>
        <time>2012-12-18T21:18:05.000Z</time>
      </trkpt>
      <trkpt lat="48.86981" lon="2.3276">
        <ele>92</ele>
        <time>2012-12-18T21:18:06.000Z</time>
      </trkpt>
      <trkpt lat="48.86981" lon="2.32757">
        <ele>91</ele>
        <time>2012-12-18T21:18:07.000Z</time>
      </trkpt>
      <trkpt lat="48.86979" lon="2.32752">
        <ele>91</ele>
        <time>2012-12-18T21:18:08.000Z</time>
      </trkpt>
      <trkpt lat="48.86981" lon="2.32749">
        <ele>91</ele>
        <time>2012-12-18T21:18:09.000Z</time>
      </trkpt>
      <trkpt lat="48.86977" lon="2.32746">
        <ele>91</ele>
        <time>2012-12-18T21:18:10.000Z</time>
      </trkpt>
      <trkpt lat="48.86984" lon="2.32739">
        <ele>90</ele>
        <time>2012-12-18T21:18:11.000Z</time>
      </trkpt>
      <trkpt lat="48.86979" lon="2.32736">
        <ele>90</ele>
        <time>2012-12-18T21:18:12.000Z</time>
      </trkpt>
      <trkpt lat="48.86979" lon="2.32732">
        <ele>89</ele>
        <time>2012-12-18T21:18:13.000Z</time>
      </trkpt>
      <trkpt lat="48.8698" lon="2.32727">
        <ele>89</ele>
        <time>2012-12-18T21:18:14.000Z</time>
      </trkpt>
      <trkpt lat="48.86981" lon="2.32721">
        <ele>89</ele>
        <time>2012-12-18T21:18:16.000Z</time>
      </trkpt>
      <trkpt lat="48.86975" lon="2.32719">
        <ele>89</ele>
        <time>2012-12-18T21:18:17.000Z</time>
      </trkpt>
      <trkpt lat="48.86975" lon="2.32713">
        <ele>89</ele>
        <time>2012-12-18T21:18:19.000Z</time>
      </trkpt>
      <trkpt lat="48.86976" lon="2.32708">
        <ele>89</ele>
        <time>2012-12-18T21:18:20.000Z</time>
      </trkpt>
      <trkpt lat="48.86976" lon="2.32703">
        <ele>88</ele>
        <time>2012-12-18T21:18:21.000Z</time>
      </trkpt>
      <trkpt lat="48.86978" lon="2.32696">
        <ele>87</ele>
        <time>2012-12-18T21:18:22.000Z</time>
      </trkpt>
      <trkpt lat="48.8698" lon="2.32693">
        <ele>88</ele>
        <time>2012-12-18T21:18:23.000Z</time>
      </trkpt>
      <trkpt lat="48.86979" lon="2.32684">
        <ele>88</ele>
        <time>2012-12-18T21:18:24.000Z</time>
      </trkpt>
      <trkpt lat="48.86981" lon="2.32677">
        <ele>88</ele>
        <time>2012-12-18T21:18:25.000Z</time>
      </trkpt>
      <trkpt lat="48.86981" lon="2.32669">
        <ele>88</ele>
        <time>2012-12-18T21:18:26.000Z</time>
      </trkpt>
      <trkpt lat="48.86976" lon="2.32664">
        <ele>89</ele>
        <time>2012-12-18T21:18:27.000Z</time>
      </trkpt>
      <trkpt lat="48.86976" lon="2.32659">
        <ele>88</ele>
        <time>2012-12-18T21:18:28.000Z</time>
      </trkpt>
      <trkpt lat="48.86974" lon="2.32654">
        <ele>88</ele>
        <time>2012-12-18T21:18:29.000Z</time>
      </trkpt>
      <trkpt lat="48.86974" lon="2.32649">
        <ele>88</ele>
        <time>2012-12-18T21:18:30.000Z</time>
      </trkpt>
      <trkpt lat="48.86967" lon="2.32649">
        <ele>88</ele>
        <time>2012-12-18T21:18:31.000Z</time>
      </trkpt>
      <trkpt lat="48.86961" lon="2.32648">
        <ele>88</ele>
        <time>2012-12-18T21:18:32.000Z</time>
      </trkpt>
      <trkpt lat="48.86961" lon="2.32645">
        <ele>88</ele>
        <time>2012-12-18T21:18:33.000Z</time>
      </trkpt>
      <trkpt lat="48.86953" lon="2.32644">
        <ele>87</ele>
        <time>2012-12-18T21:18:34.000Z</time>
      </trkpt>
      <trkpt lat="48.86949" lon="2.32642">
        <ele>86</ele>
        <time>2012-12-18T21:18:35.000Z</time>
      </trkpt>
      <trkpt lat="48.86948" lon="2.3264">
        <ele>86</ele>
        <time>2012-12-18T21:18:36.000Z</time>
      </trkpt>
      <trkpt lat="48.86949" lon="2.32635">
        <ele>86</ele>
        <time>2012-12-18T21:18:37.000Z</time>
      </trkpt>
      <trkpt lat="48.86949" lon="2.32633">
        <ele>86</ele>
        <time>2012-12-18T21:18:38.000Z</time>
      </trkpt>
      <trkpt lat="48.86947" lon="2.32628">
        <ele>85</ele>
        <time>2012-12-18T21:18:40.000Z</time>
      </trkpt>
      <trkpt lat="48.86937" lon="2.32629">
        <ele>85</ele>
        <time>2012-12-18T21:18:41.000Z</time>
      </trkpt>
      <trkpt lat="48.86934" lon="2.32626">
        <ele>85</ele>
        <time>2012-12-18T21:18:42.000Z</time>
      </trkpt>
      <trkpt lat="48.86934" lon="2.3262">
        <ele>84</ele>
        <time>2012-12-18T21:18:43.000Z</time>
      </trkpt>
      <trkpt lat="48.86933" lon="2.32617">
        <ele>85</ele>
        <time>2012-12-18T21:18:44.000Z</time>
      </trkpt>
      <trkpt lat="48.86931" lon="2.3261">
        <ele>86</ele>
        <time>2012-12-18T21:18:45.000Z</time>
      </trkpt>
      <trkpt lat="48.86929" lon="2.32601">
        <ele>86</ele>
        <time>2012-12-18T21:18:46.000Z</time>
      </trkpt>
      <trkpt lat="48.8693" lon="2.32593">
        <ele>88</ele>
        <time>2012-12-18T21:18:47.000Z</time>
      </trkpt>
      <trkpt lat="48.86932" lon="2.32584">
        <ele>88</ele>
        <time>2012-12-18T21:18:48.000Z</time>
      </trkpt>
      <trkpt lat="48.86935" lon="2.32573">
        <ele>88</ele>
        <time>2012-12-18T21:18:49.000Z</time>
      </trkpt>
      <trkpt lat="48.86931" lon="2.32568">
        <ele>90</ele>
        <time>2012-12-18T21:18:50.000Z</time>
      </trkpt>
      <trkpt lat="48.8693" lon="2.32563">
        <ele>90</ele>
        <time>2012-12-18T21:18:51.000Z</time>
      </trkpt>
      <trkpt lat="48.8693" lon="2.32557">
        <ele>89</ele>
        <time>2012-12-18T21:18:52.000Z</time>
      </trkpt>
      <trkpt lat="48.8693" lon="2.32554">
        <ele>89</ele>
        <time>2012-12-18T21:18:53.000Z</time>
      </trkpt>
      <trkpt lat="48.86926" lon="2.32549">
        <ele>90</ele>
        <time>2012-12-18T21:18:54.000Z</time>
      </trkpt>
      <trkpt lat="48.86925" lon="2.32543">
        <ele>89</ele>
        <time>2012-12-18T21:18:56.000Z</time>
      </trkpt>
      <trkpt lat="48.86927" lon="2.3254">
        <ele>89</ele>
        <time>2012-12-18T21:18:57.000Z</time>
      </trkpt>
      <trkpt lat="48.86936" lon="2.32534">
        <ele>90</ele>
        <time>2012-12-18T21:18:58.000Z</time>
      </trkpt>
      <trkpt lat="48.86939" lon="2.32531">
        <ele>89</ele>
        <time>2012-12-18T21:18:59.000Z</time>
      </trkpt>
      <trkpt lat="48.86941" lon="2.3253">
        <ele>89</ele>
        <time>2012-12-18T21:19:00.000Z</time>
      </trkpt>
      <trkpt lat="48.8694" lon="2.32528">
        <ele>86</ele>
        <time>2012-12-18T21:19:26.000Z</time>
      </trkpt>
      <trkpt lat="48.86938" lon="2.32522">
        <ele>86</ele>
        <time>2012-12-18T21:19:27.000Z</time>
      </trkpt>
      <trkpt lat="48.86937" lon="2.32516">
        <ele>86</ele>
        <time>2012-12-18T21:19:28.000Z</time>
      </trkpt>
      <trkpt lat="48.86934" lon="2.32511">
        <ele>86</ele>
        <time>2012-12-18T21:19:29.000Z</time>
      </trkpt>
      <trkpt lat="48.86933" lon="2.32505">
        <ele>87</ele>
        <time>2012-12-18T21:19:31.000Z</time>
      </trkpt>
      <trkpt lat="48.86931" lon="2.32501">
        <ele>88</ele>
        <time>2012-12-18T21:19:32.000Z</time>
      </trkpt>
      <trkpt lat="48.86929" lon="2.32497">
        <ele>88</ele>
        <time>2012-12-18T21:19:34.000Z</time>
      </trkpt>
      <trkpt lat="48.86927" lon="2.32495">
        <ele>88</ele>
        <time>2012-12-18T21:19:35.000Z</time>
      </trkpt>
      <trkpt lat="48.86923" lon="2.32494">
        <ele>87</ele>
        <time>2012-12-18T21:19:37.000Z</time>
      </trkpt>
      <trkpt lat="48.86921" lon="2.32494">
        <ele>87</ele>
        <time>2012-12-18T21:19:38.000Z</time>
      </trkpt>
      <trkpt lat="48.8692" lon="2.32494">
        <ele>87</ele>
        <time>2012-12-18T21:19:39.000Z</time>
      </trkpt>
      <trkpt lat="48.86916" lon="2.32493">
        <ele>88</ele>
        <time>2012-12-18T21:19:40.000Z</time>
      </trkpt>
      <trkpt lat="48.86918" lon="2.32488">
        <ele>87</ele>
        <time>2012-12-18T21:19:42.000Z</time>
      </trkpt>
      <trkpt lat="48.86917" lon="2.32485">
        <ele>87</ele>
        <time>2012-12-18T21:19:43.000Z</time>
      </trkpt>
      <trkpt lat="48.86917" lon="2.32481">
        <ele>87</ele>
        <time>2012-12-18T21:19:45.000Z</time>
      </trkpt>
      <trkpt lat="48.8692" lon="2.32478">
        <ele>86</ele>
        <time>2012-12-18T21:19:46.000Z</time>
      </trkpt>
      <trkpt lat="48.86919" lon="2.32471">
        <ele>89</ele>
        <time>2012-12-18T21:19:47.000Z</time>
      </trkpt>
      <trkpt lat="48.8692" lon="2.32469">
        <ele>89</ele>
        <time>2012-12-18T21:19:48.000Z</time>
      </trkpt>
      <trkpt lat="48.86922" lon="2.32464">
        <ele>89</ele>
        <time>2012-12-18T21:19:49.000Z</time>
      </trkpt>
      <trkpt lat="48.86922" lon="2.32459">
        <ele>89</ele>
        <time>2012-12-18T21:19:50.000Z</time>
      </trkpt>
      <trkpt lat="48.86922" lon="2.3245">
        <ele>90</ele>
        <time>2012-12-18T21:19:51.000Z</time>
      </trkpt>
      <trkpt lat="48.86922" lon="2.32446">
        <ele>90</ele>
        <time>2012-12-18T21:19:52.000Z</time>
      </trkpt>
      <trkpt lat="48.86924" lon="2.32439">
        <ele>91</ele>
        <time>2012-12-18T21:19:53.000Z</time>
      </trkpt>
      <trkpt lat="48.86917" lon="2.32432">
        <ele>88</ele>
        <time>2012-12-18T21:19:54.000Z</time>
      </trkpt>
      <trkpt lat="48.86913" lon="2.32428">
        <ele>87</ele>
        <time>2012-12-18T21:19:55.000Z</time>
      </trkpt>
      <trkpt lat="48.86911" lon="2.32424">
        <ele>86</ele>
        <time>2012-12-18T21:19:57.000Z</time>
      </trkpt>
      <trkpt lat="48.86909" lon="2.3242">
        <ele>85</ele>
        <time>2012-12-18T21:19:58.000Z</time>
      </trkpt>
      <trkpt lat="48.86909" lon="2.32413">
        <ele>86</ele>
        <time>2012-12-18T21:19:59.000Z</time>
      </trkpt>
      <trkpt lat="48.86908" lon="2.32406">
        <ele>85</ele>
        <time>2012-12-18T21:20:00.000Z</time>
      </trkpt>
      <trkpt lat="48.8691" lon="2.32398">
        <ele>86</ele>
        <time>2012-12-18T21:20:01.000Z</time>
      </trkpt>
      <trkpt lat="48.86915" lon="2.32391">
        <ele>87</ele>
        <time>2012-12-18T21:20:02.000Z</time>
      </trkpt>
      <trkpt lat="48.86917" lon="2.32387">
        <ele>87</ele>
        <time>2012-12-18T21:20:03.000Z</time>
      </trkpt>
      <trkpt lat="48.86917" lon="2.32383">
        <ele>88</ele>
        <time>2012-12-18T21:20:04.000Z</time>
      </trkpt>
      <trkpt lat="48.86918" lon="2.32381">
        <ele>88</ele>
        <time>2012-12-18T21:20:05.000Z</time>
      </trkpt>
      <trkpt lat="48.8692" lon="2.32378">
        <ele>89</ele>
        <time>2012-12-18T21:20:06.000Z</time>
      </trkpt>
      <trkpt lat="48.86923" lon="2.32373">
        <ele>89</ele>
        <time>2012-12-18T21:20:09.000Z</time>
      </trkpt>
      <trkpt lat="48.86923" lon="2.3237">
        <ele>89</ele>
        <time>2012-12-18T21:20:10.000Z</time>
      </trkpt>
      <trkpt lat="48.8692" lon="2.32374">
        <ele>89</ele>
        <time>2012-12-18T21:20:14.000Z</time>
      </trkpt>
      <trkpt lat="48.8692" lon="2.32377">
        <ele>89</ele>
        <time>2012-12-18T21:20:15.000Z</time>
      </trkpt>
      <trkpt lat="48.86918" lon="2.32383">
        <ele>88</ele>
        <time>2012-12-18T21:20:17.000Z</time>
      </trkpt>
      <trkpt lat="48.86917" lon="2.32386">
        <ele>88</ele>
        <time>2012-12-18T21:20:18.000Z</time>
      </trkpt>
      <trkpt lat="48.86914" lon="2.3239">
        <ele>91</ele>
        <time>2012-12-18T21:20:23.000Z</time>
      </trkpt>
      <trkpt lat="48.86913" lon="2.3239">
        <ele>91</ele>
        <time>2012-12-18T21:20:24.000Z</time>
      </trkpt>
      <trkpt lat="48.86913" lon="2.3239">
        <ele>92</ele>
        <time>2012-12-18T21:21:05.000Z</time>
      </trkpt>
      <trkpt lat="48.86917" lon="2.32384">
        <ele>91</ele>
        <time>2012-12-18T21:21:06.000Z</time>
      </trkpt>
      <trkpt lat="48.86919" lon="2.32381">
        <ele>91</ele>
        <time>2012-12-18T21:21:08.000Z</time>
      </trkpt>
      <trkpt lat="48.86921" lon="2.32378">
        <ele>91</ele>
        <time>2012-12-18T21:21:09.000Z</time>
      </trkpt>
      <trkpt lat="48.86922" lon="2.32372">
        <ele>91</ele>
        <time>2012-12-18T21:21:11.000Z</time>
      </trkpt>
      <trkpt lat="48.86922" lon="2.32368">
        <ele>91</ele>
        <time>2012-12-18T21:21:12.000Z</time>
      </trkpt>
      <trkpt lat="48.86922" lon="2.32365">
        <ele>91</ele>
        <time>2012-12-18T21:21:14.000Z</time>
      </trkpt>
      <trkpt lat="48.86923" lon="2.3236">
        <ele>91</ele>
        <time>2012-12-18T21:21:15.000Z</time>
      </trkpt>
      <trkpt lat="48.86923" lon="2.32354">
        <ele>91</ele>
        <time>2012-12-18T21:21:16.000Z</time>
      </trkpt>
      <trkpt lat="48.8692" lon="2.32352">
        <ele>91</ele>
        <time>2012-12-18T21:21:17.000Z</time>
      </trkpt>
      <trkpt lat="48.8692" lon="2.3235">
        <ele>91</ele>
        <time>2012-12-18T21:21:18.000Z</time>
      </trkpt>
      <trkpt lat="48.86917" lon="2.32347">
        <ele>91</ele>
        <time>2012-12-18T21:21:19.000Z</time>
      </trkpt>
      <trkpt lat="48.86917" lon="2.32342">
        <ele>92</ele>
        <time>2012-12-18T21:21:20.000Z</time>
      </trkpt>
      <trkpt lat="48.86917" lon="2.32337">
        <ele>92</ele>
        <time>2012-12-18T21:21:21.000Z</time>
      </trkpt>
      <trkpt lat="48.86915" lon="2.32333">
        <ele>92</ele>
        <time>2012-12-18T21:21:22.000Z</time>
      </trkpt>
      <trkpt lat="48.8692" lon="2.32329">
        <ele>91</ele>
        <time>2012-12-18T21:21:23.000Z</time>
      </trkpt>
      <trkpt lat="48.86924" lon="2.32325">
        <ele>91</ele>
        <time>2012-12-18T21:21:24.000Z</time>
      </trkpt>
      <trkpt lat="48.86927" lon="2.32322">
        <ele>90</ele>
        <time>2012-12-18T21:21:26.000Z</time>
      </trkpt>
      <trkpt lat="48.86934" lon="2.32323">
        <ele>90</ele>
        <time>2012-12-18T21:21:27.000Z</time>
      </trkpt>
      <trkpt lat="48.86939" lon="2.32322">
        <ele>90</ele>
        <time>2012-12-18T21:21:28.000Z</time>
      </trkpt>
      <trkpt lat="48.86942" lon="2.32323">
        <ele>90</ele>
        <time>2012-12-18T21:21:29.000Z</time>
      </trkpt>
      <trkpt lat="48.86949" lon="2.32325">
        <ele>89</ele>
        <time>2012-12-18T21:21:30.000Z</time>
      </trkpt>
      <trkpt lat="48.8695" lon="2.32327">
        <ele>89</ele>
        <time>2012-12-18T21:21:31.000Z</time>
      </trkpt>
      <trkpt lat="48.86957" lon="2.32328">
        <ele>89</ele>
        <time>2012-12-18T21:21:32.000Z</time>
      </trkpt>
      <trkpt lat="48.86961" lon="2.3233">
        <ele>89</ele>
        <time>2012-12-18T21:21:33.000Z</time>
      </trkpt>
      <trkpt lat="48.86964" lon="2.32331">
        <ele>89</ele>
        <time>2012-12-18T21:21:34.000Z</time>
      </trkpt>
      <trkpt lat="48.86967" lon="2.32331">
        <ele>89</ele>
        <time>2012-12-18T21:21:35.000Z</time>
      </trkpt>
      <trkpt lat="48.86971" lon="2.3233">
        <ele>89</ele>
        <time>2012-12-18T21:21:36.000Z</time>
      </trkpt>
      <trkpt lat="48.86972" lon="2.32331">
        <ele>88</ele>
        <time>2012-12-18T21:21:37.000Z</time>
      </trkpt>
      <trkpt lat="48.86976" lon="2.32328">
        <ele>88</ele>
        <time>2012-12-18T21:21:38.000Z</time>
      </trkpt>
      <trkpt lat="48.8698" lon="2.32329">
        <ele>88</ele>
        <time>2012-12-18T21:21:40.000Z</time>
      </trkpt>
      <trkpt lat="48.86982" lon="2.32331">
        <ele>88</ele>
        <time>2012-12-18T21:21:41.000Z</time>
      </trkpt>
      <trkpt lat="48.86984" lon="2.32333">
        <ele>88</ele>
        <time>2012-12-18T21:21:45.000Z</time>
      </trkpt>
      <trkpt lat="48.86988" lon="2.3233">
        <ele>88</ele>
        <time>2012-12-18T21:21:46.000Z</time>
      </trkpt>
      <trkpt lat="48.8699" lon="2.32329">
        <ele>88</ele>
        <time>2012-12-18T21:21:47.000Z</time>
      </trkpt>
      <trkpt lat="48.86993" lon="2.3233">
        <ele>88</ele>
        <time>2012-12-18T21:21:48.000Z</time>
      </trkpt>
      <trkpt lat="48.86997" lon="2.32328">
        <ele>88</ele>
        <time>2012-12-18T21:21:49.000Z</time>
      </trkpt>
      <trkpt lat="48.86999" lon="2.32328">
        <ele>88</ele>
        <time>2012-12-18T21:21:50.000Z</time>
      </trkpt>
      <trkpt lat="48.87" lon="2.32326">
        <ele>88</ele>
        <time>2012-12-18T21:21:51.000Z</time>
      </trkpt>
      <trkpt lat="48.87005" lon="2.32319">
        <ele>89</ele>
        <time>2012-12-18T21:21:52.000Z</time>
      </trkpt>
      <trkpt lat="48.87008" lon="2.32316">
        <ele>89</ele>
        <time>2012-12-18T21:21:54.000Z</time>
      </trkpt>
      <trkpt lat="48.87014" lon="2.32307">
        <ele>89</ele>
        <time>2012-12-18T21:21:55.000Z</time>
      </trkpt>
      <trkpt lat="48.87027" lon="2.32285">
        <ele>89</ele>
        <time>2012-12-18T21:21:56.000Z</time>
      </trkpt>
      <trkpt lat="48.87031" lon="2.32283">
        <ele>90</ele>
        <time>2012-12-18T21:21:57.000Z</time>
      </trkpt>
      <trkpt lat="48.87035" lon="2.3228">
        <ele>90</ele>
        <time>2012-12-18T21:21:58.000Z</time>
      </trkpt>
      <trkpt lat="48.87036" lon="2.3228">
        <ele>90</ele>
        <time>2012-12-18T21:21:59.000Z</time>
      </trkpt>
      <trkpt lat="48.87037" lon="2.32278">
        <ele>90</ele>
        <time>2012-12-18T21:22:00.000Z</time>
      </trkpt>
      <trkpt lat="48.8704" lon="2.32276">
        <ele>90</ele>
        <time>2012-12-18T21:22:01.000Z</time>
      </trkpt>
      <trkpt lat="48.87047" lon="2.32275">
        <ele>91</ele>
        <time>2012-12-18T21:22:02.000Z</time>
      </trkpt>
      <trkpt lat="48.87049" lon="2.32277">
        <ele>91</ele>
        <time>2012-12-18T21:22:03.000Z</time>
      </trkpt>
      <trkpt lat="48.87052" lon="2.32276">
        <ele>91</ele>
        <time>2012-12-18T21:22:04.000Z</time>
      </trkpt>
      <trkpt lat="48.87053" lon="2.32274">
        <ele>91</ele>
        <time>2012-12-18T21:22:05.000Z</time>
      </trkpt>
      <trkpt lat="48.87057" lon="2.32274">
        <ele>89</ele>
        <time>2012-12-18T21:22:06.000Z</time>
      </trkpt>
      <trkpt lat="48.87061" lon="2.32273">
        <ele>89</ele>
        <time>2012-12-18T21:22:08.000Z</time>
      </trkpt>
      <trkpt lat="48.87063" lon="2.32272">
        <ele>89</ele>
        <time>2012-12-18T21:22:09.000Z</time>
      </trkpt>
      <trkpt lat="48.87066" lon="2.32269">
        <ele>89</ele>
        <time>2012-12-18T21:22:11.000Z</time>
      </trkpt>
      <trkpt lat="48.87067" lon="2.32268">
        <ele>89</ele>
        <time>2012-12-18T21:22:12.000Z</time>
      </trkpt>
      <trkpt lat="48.87071" lon="2.32267">
        <ele>89</ele>
        <time>2012-12-18T21:22:15.000Z</time>
      </trkpt>
      <trkpt lat="48.87072" lon="2.32264">
        <ele>88</ele>
        <time>2012-12-18T21:22:16.000Z</time>
      </trkpt>
      <trkpt lat="48.87075" lon="2.32262">
        <ele>88</ele>
        <time>2012-12-18T21:22:20.000Z</time>
      </trkpt>
      <trkpt lat="48.87077" lon="2.32257">
        <ele>88</ele>
        <time>2012-12-18T21:22:21.000Z</time>
      </trkpt>
      <trkpt lat="48.87081" lon="2.3225">
        <ele>88</ele>
        <time>2012-12-18T21:22:22.000Z</time>
      </trkpt>
      <trkpt lat="48.87084" lon="2.32247">
        <ele>88</ele>
        <time>2012-12-18T21:22:23.000Z</time>
      </trkpt>
      <trkpt lat="48.87089" lon="2.32243">
        <ele>88</ele>
        <time>2012-12-18T21:22:24.000Z</time>
      </trkpt>
      <trkpt lat="48.87093" lon="2.32241">
        <ele>88</ele>
        <time>2012-12-18T21:22:25.000Z</time>
      </trkpt>
      <trkpt lat="48.87095" lon="2.3224">
        <ele>88</ele>
        <time>2012-12-18T21:22:26.000Z</time>
      </trkpt>
      <trkpt lat="48.87096" lon="2.32239">
        <ele>88</ele>
        <time>2012-12-18T21:22:27.000Z</time>
      </trkpt>
      <trkpt lat="48.87099" lon="2.32238">
        <ele>87</ele>
        <time>2012-12-18T21:22:28.000Z</time>
      </trkpt>
      <trkpt lat="48.87102" lon="2.32236">
        <ele>87</ele>
        <time>2012-12-18T21:22:30.000Z</time>
      </trkpt>
      <trkpt lat="48.87104" lon="2.32235">
        <ele>87</ele>
        <time>2012-12-18T21:22:31.000Z</time>
      </trkpt>
      <trkpt lat="48.87106" lon="2.32234">
        <ele>87</ele>
        <time>2012-12-18T21:22:32.000Z</time>
      </trkpt>
      <trkpt lat="48.87109" lon="2.32234">
        <ele>87</ele>
        <time>2012-12-18T21:22:33.000Z</time>
      </trkpt>
      <trkpt lat="48.87111" lon="2.32234">
        <ele>87</ele>
        <time>2012-12-18T21:22:34.000Z</time>
      </trkpt>
      <trkpt lat="48.87115" lon="2.32234">
        <ele>88</ele>
        <time>2012-12-18T21:22:35.000Z</time>
      </trkpt>
      <trkpt lat="48.87117" lon="2.32232">
        <ele>88</ele>
        <time>2012-12-18T21:22:36.000Z</time>
      </trkpt>
      <trkpt lat="48.87121" lon="2.32229">
        <ele>88</ele>
        <time>2012-12-18T21:22:37.000Z</time>
      </trkpt>
      <trkpt lat="48.87124" lon="2.32228">
        <ele>88</ele>
        <time>2012-12-18T21:22:38.000Z</time>
      </trkpt>
      <trkpt lat="48.87126" lon="2.32226">
        <ele>87</ele>
        <time>2012-12-18T21:22:39.000Z</time>
      </trkpt>
      <trkpt lat="48.87128" lon="2.32225">
        <ele>87</ele>
        <time>2012-12-18T21:22:40.000Z</time>
      </trkpt>
      <trkpt lat="48.87132" lon="2.32222">
        <ele>87</ele>
        <time>2012-12-18T21:22:41.000Z</time>
      </trkpt>
      <trkpt lat="48.87122" lon="2.32224">
        <ele>87</ele>
        <time>2012-12-18T21:22:42.000Z</time>
      </trkpt>
      <trkpt lat="48.87122" lon="2.32219">
        <ele>87</ele>
        <time>2012-12-18T21:22:43.000Z</time>
      </trkpt>
      <trkpt lat="48.87121" lon="2.32217">
        <ele>87</ele>
        <time>2012-12-18T21:22:44.000Z</time>
      </trkpt>
      <trkpt lat="48.87126" lon="2.32213">
        <ele>87</ele>
        <time>2012-12-18T21:22:45.000Z</time>
      </trkpt>
      <trkpt lat="48.87133" lon="2.32211">
        <ele>87</ele>
        <time>2012-12-18T21:22:46.000Z</time>
      </trkpt>
      <trkpt lat="48.87143" lon="2.3221">
        <ele>88</ele>
        <time>2012-12-18T21:22:47.000Z</time>
      </trkpt>
      <trkpt lat="48.8715" lon="2.32206">
        <ele>89</ele>
        <time>2012-12-18T21:22:48.000Z</time>
      </trkpt>
      <trkpt lat="48.87155" lon="2.32205">
        <ele>89</ele>
        <time>2012-12-18T21:22:49.000Z</time>
      </trkpt>
      <trkpt lat="48.87158" lon="2.32205">
        <ele>89</ele>
        <time>2012-12-18T21:22:50.000Z</time>
      </trkpt>
      <trkpt lat="48.87162" lon="2.32204">
        <ele>89</ele>
        <time>2012-12-18T21:22:51.000Z</time>
      </trkpt>
      <trkpt lat="48.87166" lon="2.32203">
        <ele>89</ele>
        <time>2012-12-18T21:22:53.000Z</time>
      </trkpt>
      <trkpt lat="48.87167" lon="2.32203">
        <ele>89</ele>
        <time>2012-12-18T21:22:54.000Z</time>
      </trkpt>
      <trkpt lat="48.8717" lon="2.32203">
        <ele>89</ele>
        <time>2012-12-18T21:22:57.000Z</time>
      </trkpt>
      <trkpt lat="48.87172" lon="2.32202">
        <ele>89</ele>
        <time>2012-12-18T21:22:58.000Z</time>
      </trkpt>
      <trkpt lat="48.87175" lon="2.32202">
        <ele>88</ele>
        <time>2012-12-18T21:23:01.000Z</time>
      </trkpt>
      <trkpt lat="48.87177" lon="2.32199">
        <ele>88</ele>
        <time>2012-12-18T21:23:02.000Z</time>
      </trkpt>
      <trkpt lat="48.87181" lon="2.32196">
        <ele>86</ele>
        <time>2012-12-18T21:23:06.000Z</time>
      </trkpt>
      <trkpt lat="48.87184" lon="2.32191">
        <ele>86</ele>
        <time>2012-12-18T21:23:07.000Z</time>
      </trkpt>
      <trkpt lat="48.87188" lon="2.32192">
        <ele>86</ele>
        <time>2012-12-18T21:23:10.000Z</time>
      </trkpt>
      <trkpt lat="48.87189" lon="2.32191">
        <ele>86</ele>
        <time>2012-12-18T21:23:11.000Z</time>
      </trkpt>
      <trkpt lat="48.87191" lon="2.3219">
        <ele>86</ele>
        <time>2012-12-18T21:23:12.000Z</time>
      </trkpt>
      <trkpt lat="48.87195" lon="2.32186">
        <ele>86</ele>
        <time>2012-12-18T21:23:13.000Z</time>
      </trkpt>
      <trkpt lat="48.87198" lon="2.32183">
        <ele>86</ele>
        <time>2012-12-18T21:23:15.000Z</time>
      </trkpt>
      <trkpt lat="48.872" lon="2.32182">
        <ele>86</ele>
        <time>2012-12-18T21:23:16.000Z</time>
      </trkpt>
      <trkpt lat="48.87204" lon="2.32178">
        <ele>85</ele>
        <time>2012-12-18T21:23:17.000Z</time>
      </trkpt>
      <trkpt lat="48.87206" lon="2.32175">
        <ele>85</ele>
        <time>2012-12-18T21:23:18.000Z</time>
      </trkpt>
      <trkpt lat="48.87209" lon="2.32173">
        <ele>85</ele>
        <time>2012-12-18T21:23:20.000Z</time>
      </trkpt>
      <trkpt lat="48.87213" lon="2.32167">
        <ele>85</ele>
        <time>2012-12-18T21:23:21.000Z</time>
      </trkpt>
      <trkpt lat="48.87214" lon="2.32167">
        <ele>85</ele>
        <time>2012-12-18T21:23:22.000Z</time>
      </trkpt>
      <trkpt lat="48.87219" lon="2.32165">
        <ele>85</ele>
        <time>2012-12-18T21:23:23.000Z</time>
      </trkpt>
      <trkpt lat="48.87221" lon="2.32166">
        <ele>85</ele>
        <time>2012-12-18T21:23:24.000Z</time>
      </trkpt>
      <trkpt lat="48.87225" lon="2.32164">
        <ele>85</ele>
        <time>2012-12-18T21:23:25.000Z</time>
      </trkpt>
      <trkpt lat="48.87227" lon="2.32162">
        <ele>85</ele>
        <time>2012-12-18T21:23:26.000Z</time>
      </trkpt>
      <trkpt lat="48.87336" lon="2.32083">
        <ele>87</ele>
        <time>2012-12-18T21:23:49.000Z</time>
      </trkpt>
      <trkpt lat="48.87341" lon="2.32078">
        <ele>87</ele>
        <time>2012-12-18T21:23:50.000Z</time>
      </trkpt>
      <trkpt lat="48.87343" lon="2.32075">
        <ele>87</ele>
        <time>2012-12-18T21:23:51.000Z</time>
      </trkpt>
      <trkpt lat="48.87344" lon="2.32071">
        <ele>86</ele>
        <time>2012-12-18T21:23:52.000Z</time>
      </trkpt>
      <trkpt lat="48.87344" lon="2.32066">
        <ele>85</ele>
        <time>2012-12-18T21:23:53.000Z</time>
      </trkpt>
      <trkpt lat="48.87346" lon="2.32063">
        <ele>85</ele>
        <time>2012-12-18T21:23:54.000Z</time>
      </trkpt>
      <trkpt lat="48.87349" lon="2.32059">
        <ele>85</ele>
        <time>2012-12-18T21:23:56.000Z</time>
      </trkpt>
      <trkpt lat="48.8735" lon="2.32058">
        <ele>85</ele>
        <time>2012-12-18T21:23:57.000Z</time>
      </trkpt>
      <trkpt lat="48.87351" lon="2.32056">
        <ele>85</ele>
        <time>2012-12-18T21:23:58.000Z</time>
      </trkpt>
      <trkpt lat="48.87354" lon="2.32053">
        <ele>84</ele>
        <time>2012-12-18T21:23:59.000Z</time>
      </trkpt>
      <trkpt lat="48.87359" lon="2.32049">
        <ele>83</ele>
        <time>2012-12-18T21:24:00.000Z</time>
      </trkpt>
      <trkpt lat="48.87361" lon="2.32047">
        <ele>84</ele>
        <time>2012-12-18T21:24:01.000Z</time>
      </trkpt>
      <trkpt lat="48.87365" lon="2.32044">
        <ele>83</ele>
        <time>2012-12-18T21:24:02.000Z</time>
      </trkpt>
      <trkpt lat="48.87365" lon="2.32046">
        <ele>83</ele>
        <time>2012-12-18T21:24:03.000Z</time>
      </trkpt>
      <trkpt lat="48.8737" lon="2.32045">
        <ele>84</ele>
        <time>2012-12-18T21:24:04.000Z</time>
      </trkpt>
      <trkpt lat="48.87369" lon="2.3204">
        <ele>83</ele>
        <time>2012-12-18T21:24:06.000Z</time>
      </trkpt>
      <trkpt lat="48.87372" lon="2.32038">
        <ele>83</ele>
        <time>2012-12-18T21:24:07.000Z</time>
      </trkpt>
      <trkpt lat="48.87375" lon="2.32034">
        <ele>82</ele>
        <time>2012-12-18T21:24:11.000Z</time>
      </trkpt>
      <trkpt lat="48.87377" lon="2.32033">
        <ele>82</ele>
        <time>2012-12-18T21:24:12.000Z</time>
      </trkpt>
      <trkpt lat="48.87379" lon="2.32033">
        <ele>81</ele>
        <time>2012-12-18T21:24:13.000Z</time>
      </trkpt>
      <trkpt lat="48.87382" lon="2.32031">
        <ele>80</ele>
        <time>2012-12-18T21:24:14.000Z</time>
      </trkpt>
      <trkpt lat="48.87383" lon="2.32028">
        <ele>80</ele>
        <time>2012-12-18T21:24:16.000Z</time>
      </trkpt>
      <trkpt lat="48.87388" lon="2.32026">
        <ele>79</ele>
        <time>2012-12-18T21:24:17.000Z</time>
      </trkpt>
      <trkpt lat="48.8739" lon="2.32026">
        <ele>79</ele>
        <time>2012-12-18T21:24:18.000Z</time>
      </trkpt>
      <trkpt lat="48.87394" lon="2.32024">
        <ele>79</ele>
        <time>2012-12-18T21:24:19.000Z</time>
      </trkpt>
      <trkpt lat="48.87396" lon="2.32021">
        <ele>80</ele>
        <time>2012-12-18T21:24:21.000Z</time>
      </trkpt>
      <trkpt lat="48.87401" lon="2.32022">
        <ele>79</ele>
        <time>2012-12-18T21:24:22.000Z</time>
      </trkpt>
      <trkpt lat="48.87402" lon="2.32024">
        <ele>80</ele>
        <time>2012-12-18T21:24:23.000Z</time>
      </trkpt>
      <trkpt lat="48.87406" lon="2.32023">
        <ele>79</ele>
        <time>2012-12-18T21:24:24.000Z</time>
      </trkpt>
      <trkpt lat="48.87408" lon="2.32023">
        <ele>79</ele>
        <time>2012-12-18T21:24:27.000Z</time>
      </trkpt>
      <trkpt lat="48.87412" lon="2.32023">
        <ele>80</ele>
        <time>2012-12-18T21:24:28.000Z</time>
      </trkpt>
      <trkpt lat="48.87421" lon="2.32017">
        <ele>80</ele>
        <time>2012-12-18T21:24:29.000Z</time>
      </trkpt>
      <trkpt lat="48.87424" lon="2.32015">
        <ele>80</ele>
        <time>2012-12-18T21:24:30.000Z</time>
      </trkpt>
      <trkpt lat="48.87426" lon="2.32014">
        <ele>81</ele>
        <time>2012-12-18T21:24:31.000Z</time>
      </trkpt>
      <trkpt lat="48.87427" lon="2.32012">
        <ele>81</ele>
        <time>2012-12-18T21:24:32.000Z</time>
      </trkpt>
      <trkpt lat="48.87434" lon="2.32007">
        <ele>81</ele>
        <time>2012-12-18T21:24:33.000Z</time>
      </trkpt>
      <trkpt lat="48.87434" lon="2.32007">
        <ele>82</ele>
        <time>2012-12-18T21:24:35.000Z</time>
      </trkpt>
      <trkpt lat="48.87442" lon="2.31997">
        <ele>83</ele>
        <time>2012-12-18T21:24:36.000Z</time>
      </trkpt>
      <trkpt lat="48.87447" lon="2.31992">
        <ele>86</ele>
        <time>2012-12-18T21:24:37.000Z</time>
      </trkpt>
      <trkpt lat="48.87452" lon="2.31993">
        <ele>88</ele>
        <time>2012-12-18T21:24:38.000Z</time>
      </trkpt>
      <trkpt lat="48.87456" lon="2.31993">
        <ele>89</ele>
        <time>2012-12-18T21:24:39.000Z</time>
      </trkpt>
      <trkpt lat="48.87457" lon="2.31994">
        <ele>89</ele>
        <time>2012-12-18T21:24:40.000Z</time>
      </trkpt>
      <trkpt lat="48.87459" lon="2.31994">
        <ele>91</ele>
        <time>2012-12-18T21:24:42.000Z</time>
      </trkpt>
      <trkpt lat="48.87462" lon="2.31994">
        <ele>92</ele>
        <time>2012-12-18T21:24:43.000Z</time>
      </trkpt>
      <trkpt lat="48.87461" lon="2.31999">
        <ele>92</ele>
        <time>2012-12-18T21:24:47.000Z</time>
      </trkpt>
      <trkpt lat="48.8746" lon="2.32002">
        <ele>91</ele>
        <time>2012-12-18T21:24:48.000Z</time>
      </trkpt>
      <trkpt lat="48.87459" lon="2.32007">
        <ele>91</ele>
        <time>2012-12-18T21:24:50.000Z</time>
      </trkpt>
      <trkpt lat="48.87459" lon="2.32009">
        <ele>91</ele>
        <time>2012-12-18T21:24:51.000Z</time>
      </trkpt>
      <trkpt lat="48.8746" lon="2.32012">
        <ele>91</ele>
        <time>2012-12-18T21:24:52.000Z</time>
      </trkpt>
      <trkpt lat="48.8746" lon="2.32018">
        <ele>91</ele>
        <time>2012-12-18T21:24:53.000Z</time>
      </trkpt>
      <trkpt lat="48.8746" lon="2.32023">
        <ele>91</ele>
        <time>2012-12-18T21:24:54.000Z</time>
      </trkpt>
      <trkpt lat="48.87459" lon="2.32026">
        <ele>90</ele>
        <time>2012-12-18T21:24:55.000Z</time>
      </trkpt>
      <trkpt lat="48.87458" lon="2.32029">
        <ele>90</ele>
        <time>2012-12-18T21:24:56.000Z</time>
      </trkpt>
      <trkpt lat="48.87462" lon="2.32031">
        <ele>89</ele>
        <time>2012-12-18T21:24:57.000Z</time>
      </trkpt>
      <trkpt lat="48.87464" lon="2.32035">
        <ele>87</ele>
        <time>2012-12-18T21:25:12.000Z</time>
      </trkpt>
      <trkpt lat="48.87464" lon="2.32038">
        <ele>87</ele>
        <time>2012-12-18T21:25:13.000Z</time>
      </trkpt>
      <trkpt lat="48.87464" lon="2.32044">
        <ele>88</ele>
        <time>2012-12-18T21:25:16.000Z</time>
      </trkpt>
      <trkpt lat="48.87463" lon="2.32046">
        <ele>88</ele>
        <time>2012-12-18T21:25:17.000Z</time>
      </trkpt>
      <trkpt lat="48.87463" lon="2.3205">
        <ele>87</ele>
        <time>2012-12-18T21:25:18.000Z</time>
      </trkpt>
      <trkpt lat="48.87461" lon="2.32055">
        <ele>88</ele>
        <time>2012-12-18T21:25:19.000Z</time>
      </trkpt>
      <trkpt lat="48.87464" lon="2.32054">
        <ele>89</ele>
        <time>2012-12-18T21:25:25.000Z</time>
      </trkpt>
      <trkpt lat="48.87465" lon="2.32051">
        <ele>89</ele>
        <time>2012-12-18T21:25:26.000Z</time>
      </trkpt>
      <trkpt lat="48.87463" lon="2.32047">
        <ele>87</ele>
        <time>2012-12-18T21:25:40.000Z</time>
      </trkpt>
      <trkpt lat="48.87463" lon="2.32044">
        <ele>86</ele>
        <time>2012-12-18T21:25:41.000Z</time>
      </trkpt>
      <trkpt lat="48.87467" lon="2.32042">
        <ele>85</ele>
        <time>2012-12-18T21:25:46.000Z</time>
      </trkpt>
      <trkpt lat="48.87469" lon="2.32041">
        <ele>86</ele>
        <time>2012-12-18T21:25:47.000Z</time>
      </trkpt>
      <trkpt lat="48.87472" lon="2.32044">
        <ele>86</ele>
        <time>2012-12-18T21:25:54.000Z</time>
      </trkpt>
      <trkpt lat="48.87472" lon="2.32045">
        <ele>86</ele>
        <time>2012-12-18T21:25:55.000Z</time>
      </trkpt>
      <trkpt lat="48.87475" lon="2.32039">
        <ele>84</ele>
        <time>2012-12-18T21:26:05.000Z</time>
      </trkpt>
      <trkpt lat="48.87476" lon="2.32039">
        <ele>84</ele>
        <time>2012-12-18T21:26:06.000Z</time>
      </trkpt>
      <trkpt lat="48.87479" lon="2.32039">
        <ele>86</ele>
        <time>2012-12-18T21:26:08.000Z</time>
      </trkpt>
      <trkpt lat="48.87481" lon="2.32041">
        <ele>87</ele>
        <time>2012-12-18T21:26:09.000Z</time>
      </trkpt>
      <trkpt lat="48.87485" lon="2.32042">
        <ele>88</ele>
        <time>2012-12-18T21:26:11.000Z</time>
      </trkpt>
      <trkpt lat="48.87486" lon="2.32045">
        <ele>88</ele>
        <time>2012-12-18T21:26:12.000Z</time>
      </trkpt>
      <trkpt lat="48.87487" lon="2.32048">
        <ele>89</ele>
        <time>2012-12-18T21:26:13.000Z</time>
      </trkpt>
      <trkpt lat="48.8749" lon="2.3205">
        <ele>89</ele>
        <time>2012-12-18T21:26:14.000Z</time>
      </trkpt>
      <trkpt lat="48.87492" lon="2.32055">
        <ele>89</ele>
        <time>2012-12-18T21:26:16.000Z</time>
      </trkpt>
      <trkpt lat="48.87491" lon="2.32059">
        <ele>90</ele>
        <time>2012-12-18T21:26:17.000Z</time>
      </trkpt>
      <trkpt lat="48.87491" lon="2.32064">
        <ele>90</ele>
        <time>2012-12-18T21:26:18.000Z</time>
      </trkpt>
      <trkpt lat="48.87492" lon="2.32068">
        <ele>90</ele>
        <time>2012-12-18T21:26:19.000Z</time>
      </trkpt>
      <trkpt lat="48.87492" lon="2.32073">
        <ele>90</ele>
        <time>2012-12-18T21:26:20.000Z</time>
      </trkpt>
      <trkpt lat="48.87492" lon="2.32077">
        <ele>90</ele>
        <time>2012-12-18T21:26:21.000Z</time>
      </trkpt>
      <trkpt lat="48.87492" lon="2.32082">
        <ele>90</ele>
        <time>2012-12-18T21:26:22.000Z</time>
      </trkpt>
      <trkpt lat="48.87493" lon="2.32087">
        <ele>89</ele>
        <time>2012-12-18T21:26:23.000Z</time>
      </trkpt>
      <trkpt lat="48.87493" lon="2.32093">
        <ele>89</ele>
        <time>2012-12-18T21:26:24.000Z</time>
      </trkpt>
      <trkpt lat="48.87493" lon="2.321">
        <ele>89</ele>
        <time>2012-12-18T21:26:25.000Z</time>
      </trkpt>
      <trkpt lat="48.87493" lon="2.32105">
        <ele>89</ele>
        <time>2012-12-18T21:26:26.000Z</time>
      </trkpt>
      <trkpt lat="48.87494" lon="2.32111">
        <ele>89</ele>
        <time>2012-12-18T21:26:27.000Z</time>
      </trkpt>
      <trkpt lat="48.87494" lon="2.32117">
        <ele>89</ele>
        <time>2012-12-18T21:26:28.000Z</time>
      </trkpt>
      <trkpt lat="48.87494" lon="2.32125">
        <ele>89</ele>
        <time>2012-12-18T21:26:29.000Z</time>
      </trkpt>
      <trkpt lat="48.87494" lon="2.32132">
        <ele>88</ele>
        <time>2012-12-18T21:26:30.000Z</time>
      </trkpt>
      <trkpt lat="48.87494" lon="2.3214">
        <ele>88</ele>
        <time>2012-12-18T21:26:31.000Z</time>
      </trkpt>
      <trkpt lat="48.87493" lon="2.32149">
        <ele>88</ele>
        <time>2012-12-18T21:26:32.000Z</time>
      </trkpt>
      <trkpt lat="48.87493" lon="2.32157">
        <ele>88</ele>
        <time>2012-12-18T21:26:33.000Z</time>
      </trkpt>
      <trkpt lat="48.87494" lon="2.32163">
        <ele>88</ele>
        <time>2012-12-18T21:26:34.000Z</time>
      </trkpt>
      <trkpt lat="48.87493" lon="2.32169">
        <ele>89</ele>
        <time>2012-12-18T21:26:35.000Z</time>
      </trkpt>
      <trkpt lat="48.87493" lon="2.32175">
        <ele>89</ele>
        <time>2012-12-18T21:26:36.000Z</time>
      </trkpt>
      <trkpt lat="48.87493" lon="2.32182">
        <ele>88</ele>
        <time>2012-12-18T21:26:37.000Z</time>
      </trkpt>
      <trkpt lat="48.87493" lon="2.32188">
        <ele>88</ele>
        <time>2012-12-18T21:26:38.000Z</time>
      </trkpt>
      <trkpt lat="48.8749" lon="2.32194">
        <ele>88</ele>
        <time>2012-12-18T21:26:39.000Z</time>
      </trkpt>
      <trkpt lat="48.87487" lon="2.32203">
        <ele>88</ele>
        <time>2012-12-18T21:26:40.000Z</time>
      </trkpt>
      <trkpt lat="48.87486" lon="2.32208">
        <ele>87</ele>
        <time>2012-12-18T21:26:42.000Z</time>
      </trkpt>
      <trkpt lat="48.87509" lon="2.32286">
        <ele>88</ele>
        <time>2012-12-18T21:26:59.000Z</time>
      </trkpt>
      <trkpt lat="48.8752" lon="2.32286">
        <ele>89</ele>
        <time>2012-12-18T21:27:00.000Z</time>
      </trkpt>
      <trkpt lat="48.87521" lon="2.32292">
        <ele>89</ele>
        <time>2012-12-18T21:27:02.000Z</time>
      </trkpt>
      <trkpt lat="48.87522" lon="2.32295">
        <ele>89</ele>
        <time>2012-12-18T21:27:03.000Z</time>
      </trkpt>
      <trkpt lat="48.87523" lon="2.323">
        <ele>89</ele>
        <time>2012-12-18T21:27:04.000Z</time>
      </trkpt>
      <trkpt lat="48.87524" lon="2.32303">
        <ele>89</ele>
        <time>2012-12-18T21:27:05.000Z</time>
      </trkpt>
      <trkpt lat="48.87525" lon="2.32308">
        <ele>89</ele>
        <time>2012-12-18T21:27:06.000Z</time>
      </trkpt>
      <trkpt lat="48.87526" lon="2.32313">
        <ele>88</ele>
        <time>2012-12-18T21:27:07.000Z</time>
      </trkpt>
      <trkpt lat="48.87527" lon="2.32319">
        <ele>88</ele>
        <time>2012-12-18T21:27:08.000Z</time>
      </trkpt>
      <trkpt lat="48.87528" lon="2.32323">
        <ele>88</ele>
        <time>2012-12-18T21:27:09.000Z</time>
      </trkpt>
      <trkpt lat="48.87537" lon="2.32327">
        <ele>85</ele>
        <time>2012-12-18T21:27:10.000Z</time>
      </trkpt>
      <trkpt lat="48.87538" lon="2.32332">
        <ele>85</ele>
        <time>2012-12-18T21:27:11.000Z</time>
      </trkpt>
      <trkpt lat="48.87539" lon="2.32336">
        <ele>85</ele>
        <time>2012-12-18T21:27:12.000Z</time>
      </trkpt>
      <trkpt lat="48.87538" lon="2.32349">
        <ele>85</ele>
        <time>2012-12-18T21:27:13.000Z</time>
      </trkpt>
      <trkpt lat="48.87537" lon="2.32354">
        <ele>85</ele>
        <time>2012-12-18T21:27:14.000Z</time>
      </trkpt>
      <trkpt lat="48.87543" lon="2.32359">
        <ele>84</ele>
        <time>2012-12-18T21:27:15.000Z</time>
      </trkpt>
      <trkpt lat="48.87547" lon="2.3236">
        <ele>83</ele>
        <time>2012-12-18T21:27:16.000Z</time>
      </trkpt>
      <trkpt lat="48.87548" lon="2.32362">
        <ele>84</ele>
        <time>2012-12-18T21:27:17.000Z</time>
      </trkpt>
      <trkpt lat="48.8755" lon="2.32367">
        <ele>83</ele>
        <time>2012-12-18T21:27:22.000Z</time>
      </trkpt>
      <trkpt lat="48.87548" lon="2.32369">
        <ele>84</ele>
        <time>2012-12-18T21:27:23.000Z</time>
      </trkpt>
      <trkpt lat="48.87545" lon="2.32374">
        <ele>83</ele>
        <time>2012-12-18T21:27:24.000Z</time>
      </trkpt>
      <trkpt lat="48.87543" lon="2.32378">
        <ele>83</ele>
        <time>2012-12-18T21:27:25.000Z</time>
      </trkpt>
      <trkpt lat="48.87548" lon="2.32376">
        <ele>83</ele>
        <time>2012-12-18T21:27:26.000Z</time>
      </trkpt>
      <trkpt lat="48.87551" lon="2.32375">
        <ele>84</ele>
        <time>2012-12-18T21:27:31.000Z</time>
      </trkpt>
      <trkpt lat="48.87553" lon="2.32374">
        <ele>85</ele>
        <time>2012-12-18T21:27:32.000Z</time>
      </trkpt>
      <trkpt lat="48.87557" lon="2.32373">
        <ele>85</ele>
        <time>2012-12-18T21:27:45.000Z</time>
      </trkpt>
      <trkpt lat="48.87552" lon="2.32385">
        <ele>83</ele>
        <time>2012-12-18T21:27:46.000Z</time>
      </trkpt>
      <trkpt lat="48.87552" lon="2.32385">
        <ele>83</ele>
        <time>2012-12-18T21:27:47.000Z</time>
      </trkpt>
      <trkpt lat="48.87548" lon="2.32395">
        <ele>82</ele>
        <time>2012-12-18T21:27:48.000Z</time>
      </trkpt>
      <trkpt lat="48.87546" lon="2.32402">
        <ele>82</ele>
        <time>2012-12-18T21:27:51.000Z</time>
      </trkpt>
      <trkpt lat="48.87546" lon="2.32402">
        <ele>82</ele>
        <time>2012-12-18T21:27:52.000Z</time>
      </trkpt>
      <trkpt lat="48.87548" lon="2.32398">
        <ele>79</ele>
        <time>2012-12-18T21:29:03.000Z</time>
      </trkpt>
      <trkpt lat="48.8757" lon="2.32391">
        <ele>80</ele>
        <time>2012-12-18T21:29:04.000Z</time>
      </trkpt>
      <trkpt lat="48.87583" lon="2.32385">
        <ele>79</ele>
        <time>2012-12-18T21:29:05.000Z</time>
      </trkpt>
      <trkpt lat="48.8759" lon="2.32386">
        <ele>80</ele>
        <time>2012-12-18T21:29:06.000Z</time>
      </trkpt>
      <trkpt lat="48.87605" lon="2.3238">
        <ele>81</ele>
        <time>2012-12-18T21:29:07.000Z</time>
      </trkpt>
      <trkpt lat="48.87614" lon="2.32375">
        <ele>80</ele>
        <time>2012-12-18T21:29:08.000Z</time>
      </trkpt>
      <trkpt lat="48.8763" lon="2.32366">
        <ele>83</ele>
        <time>2012-12-18T21:29:09.000Z</time>
      </trkpt>
      <trkpt lat="48.87637" lon="2.3236">
        <ele>83</ele>
        <time>2012-12-18T21:29:10.000Z</time>
      </trkpt>
      <trkpt lat="48.8764" lon="2.32357">
        <ele>83</ele>
        <time>2012-12-18T21:29:11.000Z</time>
      </trkpt>
      <trkpt lat="48.87643" lon="2.32354">
        <ele>83</ele>
        <time>2012-12-18T21:29:12.000Z</time>
      </trkpt>
      <trkpt lat="48.87654" lon="2.32347">
        <ele>84</ele>
        <time>2012-12-18T21:29:13.000Z</time>
      </trkpt>
      <trkpt lat="48.87685" lon="2.32315">
        <ele>85</ele>
        <time>2012-12-18T21:29:14.000Z</time>
      </trkpt>
      <trkpt lat="48.87692" lon="2.32309">
        <ele>86</ele>
        <time>2012-12-18T21:29:15.000Z</time>
      </trkpt>
      <trkpt lat="48.87697" lon="2.32308">
        <ele>87</ele>
        <time>2012-12-18T21:29:16.000Z</time>
      </trkpt>
      <trkpt lat="48.877" lon="2.32306">
        <ele>86</ele>
        <time>2012-12-18T21:29:17.000Z</time>
      </trkpt>
      <trkpt lat="48.87704" lon="2.32305">
        <ele>87</ele>
        <time>2012-12-18T21:29:18.000Z</time>
      </trkpt>
      <trkpt lat="48.87706" lon="2.32303">
        <ele>86</ele>
        <time>2012-12-18T21:29:19.000Z</time>
      </trkpt>
      <trkpt lat="48.87707" lon="2.32301">
        <ele>86</ele>
        <time>2012-12-18T21:29:20.000Z</time>
      </trkpt>
      <trkpt lat="48.8771" lon="2.32299">
        <ele>86</ele>
        <time>2012-12-18T21:29:21.000Z</time>
      </trkpt>
      <trkpt lat="48.87713" lon="2.32296">
        <ele>86</ele>
        <time>2012-12-18T21:29:22.000Z</time>
      </trkpt>
      <trkpt lat="48.87717" lon="2.32295">
        <ele>86</ele>
        <time>2012-12-18T21:29:23.000Z</time>
      </trkpt>
      <trkpt lat="48.8772" lon="2.32293">
        <ele>85</ele>
        <time>2012-12-18T21:29:24.000Z</time>
      </trkpt>
      <trkpt lat="48.87727" lon="2.3229">
        <ele>85</ele>
        <time>2012-12-18T21:29:26.000Z</time>
      </trkpt>
      <trkpt lat="48.8773" lon="2.32288">
        <ele>85</ele>
        <time>2012-12-18T21:29:27.000Z</time>
      </trkpt>
      <trkpt lat="48.87732" lon="2.32287">
        <ele>85</ele>
        <time>2012-12-18T21:29:28.000Z</time>
      </trkpt>
      <trkpt lat="48.87736" lon="2.32287">
        <ele>84</ele>
        <time>2012-12-18T21:29:30.000Z</time>
      </trkpt>
      <trkpt lat="48.8774" lon="2.32287">
        <ele>84</ele>
        <time>2012-12-18T21:29:31.000Z</time>
      </trkpt>
      <trkpt lat="48.87743" lon="2.32287">
        <ele>84</ele>
        <time>2012-12-18T21:29:32.000Z</time>
      </trkpt>
      <trkpt lat="48.87747" lon="2.32285">
        <ele>84</ele>
        <time>2012-12-18T21:29:33.000Z</time>
      </trkpt>
      <trkpt lat="48.8775" lon="2.32281">
        <ele>85</ele>
        <time>2012-12-18T21:29:35.000Z</time>
      </trkpt>
      <trkpt lat="48.87751" lon="2.32278">
        <ele>85</ele>
        <time>2012-12-18T21:29:36.000Z</time>
      </trkpt>
      <trkpt lat="48.87753" lon="2.32276">
        <ele>85</ele>
        <time>2012-12-18T21:29:38.000Z</time>
      </trkpt>
      <trkpt lat="48.87764" lon="2.3227">
        <ele>86</ele>
        <time>2012-12-18T21:29:43.000Z</time>
      </trkpt>
      <trkpt lat="48.87766" lon="2.32268">
        <ele>88</ele>
        <time>2012-12-18T21:29:44.000Z</time>
      </trkpt>
      <trkpt lat="48.87776" lon="2.32268">
        <ele>92</ele>
        <time>2012-12-18T21:29:45.000Z</time>
      </trkpt>
      <trkpt lat="48.87779" lon="2.32265">
        <ele>92</ele>
        <time>2012-12-18T21:29:47.000Z</time>
      </trkpt>
      <trkpt lat="48.87781" lon="2.32263">
        <ele>93</ele>
        <time>2012-12-18T21:29:48.000Z</time>
      </trkpt>
      <trkpt lat="48.87784" lon="2.32261">
        <ele>93</ele>
        <time>2012-12-18T21:29:50.000Z</time>
      </trkpt>
      <trkpt lat="48.87786" lon="2.3226">
        <ele>93</ele>
        <time>2012-12-18T21:29:51.000Z</time>
      </trkpt>
      <trkpt lat="48.87789" lon="2.3226">
        <ele>93</ele>
        <time>2012-12-18T21:29:53.000Z</time>
      </trkpt>
      <trkpt lat="48.87796" lon="2.32259">
        <ele>93</ele>
        <time>2012-12-18T21:29:54.000Z</time>
      </trkpt>
      <trkpt lat="48.87801" lon="2.32259">
        <ele>94</ele>
        <time>2012-12-18T21:29:55.000Z</time>
      </trkpt>
      <trkpt lat="48.878" lon="2.32265">
        <ele>95</ele>
        <time>2012-12-18T21:30:02.000Z</time>
      </trkpt>
      <trkpt lat="48.878" lon="2.32266">
        <ele>95</ele>
        <time>2012-12-18T21:30:03.000Z</time>
      </trkpt>
      <trkpt lat="48.87799" lon="2.32268">
        <ele>96</ele>
        <time>2012-12-18T21:30:20.000Z</time>
      </trkpt>
      <trkpt lat="48.87813" lon="2.32266">
        <ele>98</ele>
        <time>2012-12-18T21:30:21.000Z</time>
      </trkpt>
      <trkpt lat="48.87817" lon="2.32267">
        <ele>96</ele>
        <time>2012-12-18T21:30:22.000Z</time>
      </trkpt>
      <trkpt lat="48.87821" lon="2.32269">
        <ele>94</ele>
        <time>2012-12-18T21:30:23.000Z</time>
      </trkpt>
      <trkpt lat="48.87823" lon="2.3227">
        <ele>94</ele>
        <time>2012-12-18T21:30:24.000Z</time>
      </trkpt>
      <trkpt lat="48.87829" lon="2.32274">
        <ele>91</ele>
        <time>2012-12-18T21:30:26.000Z</time>
      </trkpt>
      <trkpt lat="48.8783" lon="2.32279">
        <ele>90</ele>
        <time>2012-12-18T21:30:28.000Z</time>
      </trkpt>
      <trkpt lat="48.87831" lon="2.3228">
        <ele>90</ele>
        <time>2012-12-18T21:30:29.000Z</time>
      </trkpt>
      <trkpt lat="48.87835" lon="2.32283">
        <ele>89</ele>
        <time>2012-12-18T21:30:31.000Z</time>
      </trkpt>
      <trkpt lat="48.87837" lon="2.32284">
        <ele>88</ele>
        <time>2012-12-18T21:30:32.000Z</time>
      </trkpt>
      <trkpt lat="48.87839" lon="2.32288">
        <ele>89</ele>
        <time>2012-12-18T21:30:34.000Z</time>
      </trkpt>
      <trkpt lat="48.87842" lon="2.32291">
        <ele>88</ele>
        <time>2012-12-18T21:30:35.000Z</time>
      </trkpt>
      <trkpt lat="48.87845" lon="2.32292">
        <ele>87</ele>
        <time>2012-12-18T21:30:37.000Z</time>
      </trkpt>
      <trkpt lat="48.87847" lon="2.32294">
        <ele>88</ele>
        <time>2012-12-18T21:30:38.000Z</time>
      </trkpt>
      <trkpt lat="48.87851" lon="2.32296">
        <ele>87</ele>
        <time>2012-12-18T21:30:41.000Z</time>
      </trkpt>
      <trkpt lat="48.87852" lon="2.32296">
        <ele>88</ele>
        <time>2012-12-18T21:30:42.000Z</time>
      </trkpt>
      <trkpt lat="48.87856" lon="2.32298">
        <ele>88</ele>
        <time>2012-12-18T21:30:44.000Z</time>
      </trkpt>
      <trkpt lat="48.87857" lon="2.323">
        <ele>88</ele>
        <time>2012-12-18T21:30:45.000Z</time>
      </trkpt>
      <trkpt lat="48.8786" lon="2.32303">
        <ele>88</ele>
        <time>2012-12-18T21:30:47.000Z</time>
      </trkpt>
      <trkpt lat="48.87863" lon="2.32305">
        <ele>88</ele>
        <time>2012-12-18T21:30:48.000Z</time>
      </trkpt>
      <trkpt lat="48.87864" lon="2.3231">
        <ele>88</ele>
        <time>2012-12-18T21:30:50.000Z</time>
      </trkpt>
      <trkpt lat="48.87866" lon="2.32313">
        <ele>89</ele>
        <time>2012-12-18T21:30:51.000Z</time>
      </trkpt>
      <trkpt lat="48.87869" lon="2.32316">
        <ele>89</ele>
        <time>2012-12-18T21:30:52.000Z</time>
      </trkpt>
      <trkpt lat="48.87872" lon="2.32317">
        <ele>89</ele>
        <time>2012-12-18T21:30:53.000Z</time>
      </trkpt>
      <trkpt lat="48.87874" lon="2.32316">
        <ele>90</ele>
        <time>2012-12-18T21:30:56.000Z</time>
      </trkpt>
      <trkpt lat="48.87877" lon="2.32315">
        <ele>90</ele>
        <time>2012-12-18T21:30:57.000Z</time>
      </trkpt>
      <trkpt lat="48.87882" lon="2.32315">
        <ele>90</ele>
        <time>2012-12-18T21:30:59.000Z</time>
      </trkpt>
      <trkpt lat="48.87884" lon="2.32315">
        <ele>90</ele>
        <time>2012-12-18T21:31:00.000Z</time>
      </trkpt>
      <trkpt lat="48.8789" lon="2.32313">
        <ele>88</ele>
        <time>2012-12-18T21:31:01.000Z</time>
      </trkpt>
      <trkpt lat="48.87893" lon="2.32313">
        <ele>87</ele>
        <time>2012-12-18T21:31:02.000Z</time>
      </trkpt>
      <trkpt lat="48.87896" lon="2.32314">
        <ele>86</ele>
        <time>2012-12-18T21:31:03.000Z</time>
      </trkpt>
      <trkpt lat="48.87899" lon="2.32314">
        <ele>86</ele>
        <time>2012-12-18T21:31:04.000Z</time>
      </trkpt>
      <trkpt lat="48.87902" lon="2.32315">
        <ele>87</ele>
        <time>2012-12-18T21:31:05.000Z</time>
      </trkpt>
      <trkpt lat="48.87905" lon="2.32318">
        <ele>87</ele>
        <time>2012-12-18T21:31:07.000Z</time>
      </trkpt>
      <trkpt lat="48.87908" lon="2.3232">
        <ele>87</ele>
        <time>2012-12-18T21:31:08.000Z</time>
      </trkpt>
      <trkpt lat="48.8791" lon="2.32323">
        <ele>88</ele>
        <time>2012-12-18T21:31:09.000Z</time>
      </trkpt>
      <trkpt lat="48.87912" lon="2.32327">
        <ele>88</ele>
        <time>2012-12-18T21:31:10.000Z</time>
      </trkpt>
      <trkpt lat="48.87916" lon="2.32329">
        <ele>89</ele>
        <time>2012-12-18T21:31:11.000Z</time>
      </trkpt>
      <trkpt lat="48.87917" lon="2.32331">
        <ele>90</ele>
        <time>2012-12-18T21:31:12.000Z</time>
      </trkpt>
      <trkpt lat="48.87919" lon="2.32336">
        <ele>91</ele>
        <time>2012-12-18T21:31:14.000Z</time>
      </trkpt>
      <trkpt lat="48.87921" lon="2.32337">
        <ele>91</ele>
        <time>2012-12-18T21:31:15.000Z</time>
      </trkpt>
      <trkpt lat="48.87923" lon="2.32341">
        <ele>92</ele>
        <time>2012-12-18T21:31:17.000Z</time>
      </trkpt>
      <trkpt lat="48.87923" lon="2.32344">
        <ele>93</ele>
        <time>2012-12-18T21:31:18.000Z</time>
      </trkpt>
      <trkpt lat="48.87925" lon="2.32346">
        <ele>94</ele>
        <time>2012-12-18T21:31:20.000Z</time>
      </trkpt>
      <trkpt lat="48.87927" lon="2.32347">
        <ele>92</ele>
        <time>2012-12-18T21:31:21.000Z</time>
      </trkpt>
      <trkpt lat="48.87929" lon="2.32349">
        <ele>92</ele>
        <time>2012-12-18T21:31:22.000Z</time>
      </trkpt>
      <trkpt lat="48.87931" lon="2.32353">
        <ele>91</ele>
        <time>2012-12-18T21:31:23.000Z</time>
      </trkpt>
      <trkpt lat="48.87933" lon="2.32355">
        <ele>91</ele>
        <time>2012-12-18T21:31:24.000Z</time>
      </trkpt>
      <trkpt lat="48.87936" lon="2.32357">
        <ele>91</ele>
        <time>2012-12-18T21:31:25.000Z</time>
      </trkpt>
      <trkpt lat="48.87938" lon="2.32359">
        <ele>91</ele>
        <time>2012-12-18T21:31:27.000Z</time>
      </trkpt>
      <trkpt lat="48.87941" lon="2.32361">
        <ele>91</ele>
        <time>2012-12-18T21:31:28.000Z</time>
      </trkpt>
      <trkpt lat="48.87944" lon="2.32364">
        <ele>91</ele>
        <time>2012-12-18T21:31:30.000Z</time>
      </trkpt>
      <trkpt lat="48.87946" lon="2.32365">
        <ele>92</ele>
        <time>2012-12-18T21:31:31.000Z</time>
      </trkpt>
      <trkpt lat="48.8795" lon="2.32368">
        <ele>92</ele>
        <time>2012-12-18T21:31:33.000Z</time>
      </trkpt>
      <trkpt lat="48.87951" lon="2.32369">
        <ele>93</ele>
        <time>2012-12-18T21:31:34.000Z</time>
      </trkpt>
      <trkpt lat="48.87954" lon="2.32371">
        <ele>93</ele>
        <time>2012-12-18T21:31:35.000Z</time>
      </trkpt>
      <trkpt lat="48.87957" lon="2.32373">
        <ele>93</ele>
        <time>2012-12-18T21:31:36.000Z</time>
      </trkpt>
      <trkpt lat="48.87961" lon="2.32376">
        <ele>93</ele>
        <time>2012-12-18T21:31:39.000Z</time>
      </trkpt>
      <trkpt lat="48.87964" lon="2.32377">
        <ele>93</ele>
        <time>2012-12-18T21:31:40.000Z</time>
      </trkpt>
      <trkpt lat="48.87966" lon="2.32379">
        <ele>93</ele>
        <time>2012-12-18T21:31:41.000Z</time>
      </trkpt>
      <trkpt lat="48.87969" lon="2.32381">
        <ele>93</ele>
        <time>2012-12-18T21:31:42.000Z</time>
      </trkpt>
      <trkpt lat="48.87973" lon="2.32383">
        <ele>93</ele>
        <time>2012-12-18T21:31:43.000Z</time>
      </trkpt>
      <trkpt lat="48.87976" lon="2.32384">
        <ele>93</ele>
        <time>2012-12-18T21:31:44.000Z</time>
      </trkpt>
      <trkpt lat="48.87977" lon="2.32386">
        <ele>93</ele>
        <time>2012-12-18T21:31:45.000Z</time>
      </trkpt>
      <trkpt lat="48.8798" lon="2.32388">
        <ele>93</ele>
        <time>2012-12-18T21:31:46.000Z</time>
      </trkpt>
      <trkpt lat="48.87983" lon="2.32389">
        <ele>93</ele>
        <time>2012-12-18T21:31:47.000Z</time>
      </trkpt>
      <trkpt lat="48.87985" lon="2.32391">
        <ele>94</ele>
        <time>2012-12-18T21:31:48.000Z</time>
      </trkpt>
      <trkpt lat="48.87987" lon="2.32392">
        <ele>94</ele>
        <time>2012-12-18T21:31:50.000Z</time>
      </trkpt>
      <trkpt lat="48.8799" lon="2.32394">
        <ele>94</ele>
        <time>2012-12-18T21:31:51.000Z</time>
      </trkpt>
      <trkpt lat="48.87992" lon="2.32397">
        <ele>94</ele>
        <time>2012-12-18T21:31:54.000Z</time>
      </trkpt>
      <trkpt lat="48.87993" lon="2.32399">
        <ele>93</ele>
        <time>2012-12-18T21:31:55.000Z</time>
      </trkpt>
      <trkpt lat="48.87996" lon="2.32403">
        <ele>94</ele>
        <time>2012-12-18T21:31:57.000Z</time>
      </trkpt>
      <trkpt lat="48.87998" lon="2.32404">
        <ele>94</ele>
        <time>2012-12-18T21:31:58.000Z</time>
      </trkpt>
      <trkpt lat="48.88002" lon="2.32403">
        <ele>94</ele>
        <time>2012-12-18T21:32:02.000Z</time>
      </trkpt>
      <trkpt lat="48.88003" lon="2.32405">
        <ele>94</ele>
        <time>2012-12-18T21:32:03.000Z</time>
      </trkpt>
      <trkpt lat="48.88005" lon="2.32408">
        <ele>94</ele>
        <time>2012-12-18T21:32:04.000Z</time>
      </trkpt>
      <trkpt lat="48.88007" lon="2.3241">
        <ele>95</ele>
        <time>2012-12-18T21:32:05.000Z</time>
      </trkpt>
      <trkpt lat="48.88009" lon="2.32413">
        <ele>95</ele>
        <time>2012-12-18T21:32:06.000Z</time>
      </trkpt>
      <trkpt lat="48.88013" lon="2.32417">
        <ele>95</ele>
        <time>2012-12-18T21:32:07.000Z</time>
      </trkpt>
      <trkpt lat="48.88016" lon="2.32421">
        <ele>95</ele>
        <time>2012-12-18T21:32:08.000Z</time>
      </trkpt>
      <trkpt lat="48.88019" lon="2.32422">
        <ele>95</ele>
        <time>2012-12-18T21:32:09.000Z</time>
      </trkpt>
      <trkpt lat="48.88021" lon="2.32424">
        <ele>95</ele>
        <time>2012-12-18T21:32:10.000Z</time>
      </trkpt>
      <trkpt lat="48.88023" lon="2.32427">
        <ele>95</ele>
        <time>2012-12-18T21:32:11.000Z</time>
      </trkpt>
      <trkpt lat="48.88024" lon="2.32428">
        <ele>95</ele>
        <time>2012-12-18T21:32:12.000Z</time>
      </trkpt>
      <trkpt lat="48.88028" lon="2.32432">
        <ele>95</ele>
        <time>2012-12-18T21:32:13.000Z</time>
      </trkpt>
      <trkpt lat="48.88032" lon="2.32426">
        <ele>94</ele>
        <time>2012-12-18T21:32:14.000Z</time>
      </trkpt>
      <trkpt lat="48.88037" lon="2.32425">
        <ele>94</ele>
        <time>2012-12-18T21:32:15.000Z</time>
      </trkpt>
      <trkpt lat="48.88041" lon="2.32426">
        <ele>93</ele>
        <time>2012-12-18T21:32:16.000Z</time>
      </trkpt>
      <trkpt lat="48.88046" lon="2.32426">
        <ele>93</ele>
        <time>2012-12-18T21:32:17.000Z</time>
      </trkpt>
      <trkpt lat="48.8805" lon="2.32426">
        <ele>92</ele>
        <time>2012-12-18T21:32:18.000Z</time>
      </trkpt>
      <trkpt lat="48.88053" lon="2.32425">
        <ele>92</ele>
        <time>2012-12-18T21:32:19.000Z</time>
      </trkpt>
      <trkpt lat="48.88058" lon="2.32425">
        <ele>92</ele>
        <time>2012-12-18T21:32:20.000Z</time>
      </trkpt>
      <trkpt lat="48.88061" lon="2.32424">
        <ele>92</ele>
        <time>2012-12-18T21:32:21.000Z</time>
      </trkpt>
      <trkpt lat="48.88065" lon="2.32424">
        <ele>92</ele>
        <time>2012-12-18T21:32:22.000Z</time>
      </trkpt>
      <trkpt lat="48.88066" lon="2.32428">
        <ele>91</ele>
        <time>2012-12-18T21:32:23.000Z</time>
      </trkpt>
      <trkpt lat="48.88069" lon="2.32428">
        <ele>91</ele>
        <time>2012-12-18T21:32:24.000Z</time>
      </trkpt>
      <trkpt lat="48.88071" lon="2.32428">
        <ele>91</ele>
        <time>2012-12-18T21:32:25.000Z</time>
      </trkpt>
      <trkpt lat="48.88074" lon="2.32426">
        <ele>91</ele>
        <time>2012-12-18T21:32:26.000Z</time>
      </trkpt>
      <trkpt lat="48.88078" lon="2.32425">
        <ele>92</ele>
        <time>2012-12-18T21:32:27.000Z</time>
      </trkpt>
      <trkpt lat="48.88067" lon="2.32449">
        <ele>92</ele>
        <time>2012-12-18T21:32:28.000Z</time>
      </trkpt>
      <trkpt lat="48.88068" lon="2.32455">
        <ele>94</ele>
        <time>2012-12-18T21:32:31.000Z</time>
      </trkpt>
      <trkpt lat="48.88071" lon="2.32451">
        <ele>95</ele>
        <time>2012-12-18T21:32:32.000Z</time>
      </trkpt>
      <trkpt lat="48.88071" lon="2.32455">
        <ele>96</ele>
        <time>2012-12-18T21:32:37.000Z</time>
      </trkpt>
      <trkpt lat="48.8807" lon="2.32457">
        <ele>96</ele>
        <time>2012-12-18T21:32:38.000Z</time>
      </trkpt>
      <trkpt lat="48.88071" lon="2.32458">
        <ele>97</ele>
        <time>2012-12-18T21:32:39.000Z</time>
      </trkpt>
      <trkpt lat="48.88074" lon="2.32462">
        <ele>97</ele>
        <time>2012-12-18T21:32:40.000Z</time>
      </trkpt>
      <trkpt lat="48.88078" lon="2.32464">
        <ele>99</ele>
        <time>2012-12-18T21:32:43.000Z</time>
      </trkpt>
      <trkpt lat="48.88078" lon="2.32465">
        <ele>99</ele>
        <time>2012-12-18T21:32:44.000Z</time>
      </trkpt>
      <trkpt lat="48.88079" lon="2.32465">
        <ele>98</ele>
        <time>2012-12-18T21:32:47.000Z</time>
      </trkpt>
      <trkpt lat="48.88086" lon="2.32467">
        <ele>96</ele>
        <time>2012-12-18T21:32:48.000Z</time>
      </trkpt>
      <trkpt lat="48.88088" lon="2.32471">
        <ele>97</ele>
        <time>2012-12-18T21:32:49.000Z</time>
      </trkpt>
      <trkpt lat="48.8809" lon="2.32472">
        <ele>97</ele>
        <time>2012-12-18T21:32:50.000Z</time>
      </trkpt>
      <trkpt lat="48.88092" lon="2.32477">
        <ele>98</ele>
        <time>2012-12-18T21:32:54.000Z</time>
      </trkpt>
      <trkpt lat="48.88093" lon="2.32479">
        <ele>98</ele>
        <time>2012-12-18T21:32:55.000Z</time>
      </trkpt>
      <trkpt lat="48.88096" lon="2.3248">
        <ele>100</ele>
        <time>2012-12-18T21:33:26.000Z</time>
      </trkpt>
      <trkpt lat="48.88101" lon="2.32485">
        <ele>99</ele>
        <time>2012-12-18T21:33:27.000Z</time>
      </trkpt>
      <trkpt lat="48.88107" lon="2.32489">
        <ele>99</ele>
        <time>2012-12-18T21:33:28.000Z</time>
      </trkpt>
      <trkpt lat="48.88114" lon="2.3249">
        <ele>99</ele>
        <time>2012-12-18T21:33:29.000Z</time>
      </trkpt>
      <trkpt lat="48.8812" lon="2.32492">
        <ele>99</ele>
        <time>2012-12-18T21:33:30.000Z</time>
      </trkpt>
      <trkpt lat="48.88127" lon="2.32495">
        <ele>99</ele>
        <time>2012-12-18T21:33:31.000Z</time>
      </trkpt>
      <trkpt lat="48.88132" lon="2.32497">
        <ele>99</ele>
        <time>2012-12-18T21:33:32.000Z</time>
      </trkpt>
      <trkpt lat="48.88138" lon="2.32499">
        <ele>99</ele>
        <time>2012-12-18T21:33:33.000Z</time>
      </trkpt>
      <trkpt lat="48.88145" lon="2.32499">
        <ele>99</ele>
        <time>2012-12-18T21:33:34.000Z</time>
      </trkpt>
      <trkpt lat="48.88153" lon="2.32501">
        <ele>99</ele>
        <time>2012-12-18T21:33:35.000Z</time>
      </trkpt>
      <trkpt lat="48.88159" lon="2.32503">
        <ele>99</ele>
        <time>2012-12-18T21:33:36.000Z</time>
      </trkpt>
      <trkpt lat="48.88164" lon="2.32506">
        <ele>99</ele>
        <time>2012-12-18T21:33:37.000Z</time>
      </trkpt>
      <trkpt lat="48.88168" lon="2.32509">
        <ele>100</ele>
        <time>2012-12-18T21:33:38.000Z</time>
      </trkpt>
      <trkpt lat="48.88172" lon="2.32511">
        <ele>99</ele>
        <time>2012-12-18T21:33:39.000Z</time>
      </trkpt>
      <trkpt lat="48.88177" lon="2.3251">
        <ele>100</ele>
        <time>2012-12-18T21:33:40.000Z</time>
      </trkpt>
      <trkpt lat="48.88179" lon="2.32513">
        <ele>100</ele>
        <time>2012-12-18T21:33:41.000Z</time>
      </trkpt>
      <trkpt lat="48.88181" lon="2.32515">
        <ele>100</ele>
        <time>2012-12-18T21:33:42.000Z</time>
      </trkpt>
      <trkpt lat="48.88183" lon="2.32519">
        <ele>99</ele>
        <time>2012-12-18T21:33:43.000Z</time>
      </trkpt>
      <trkpt lat="48.88188" lon="2.32519">
        <ele>100</ele>
        <time>2012-12-18T21:33:44.000Z</time>
      </trkpt>
      <trkpt lat="48.88188" lon="2.32527">
        <ele>100</ele>
        <time>2012-12-18T21:33:45.000Z</time>
      </trkpt>
      <trkpt lat="48.88191" lon="2.3253">
        <ele>99</ele>
        <time>2012-12-18T21:33:46.000Z</time>
      </trkpt>
      <trkpt lat="48.88191" lon="2.32538">
        <ele>99</ele>
        <time>2012-12-18T21:33:47.000Z</time>
      </trkpt>
      <trkpt lat="48.88195" lon="2.32537">
        <ele>99</ele>
        <time>2012-12-18T21:33:48.000Z</time>
      </trkpt>
      <trkpt lat="48.88196" lon="2.32541">
        <ele>100</ele>
        <time>2012-12-18T21:33:49.000Z</time>
      </trkpt>
      <trkpt lat="48.88199" lon="2.32542">
        <ele>100</ele>
        <time>2012-12-18T21:33:50.000Z</time>
      </trkpt>
      <trkpt lat="48.88203" lon="2.32545">
        <ele>101</ele>
        <time>2012-12-18T21:33:51.000Z</time>
      </trkpt>
      <trkpt lat="48.88205" lon="2.32546">
        <ele>101</ele>
        <time>2012-12-18T21:33:52.000Z</time>
      </trkpt>
      <trkpt lat="48.88208" lon="2.32546">
        <ele>101</ele>
        <time>2012-12-18T21:33:53.000Z</time>
      </trkpt>
      <trkpt lat="48.88212" lon="2.32547">
        <ele>100</ele>
        <time>2012-12-18T21:33:54.000Z</time>
      </trkpt>
      <trkpt lat="48.88215" lon="2.32552">
        <ele>100</ele>
        <time>2012-12-18T21:33:55.000Z</time>
      </trkpt>
      <trkpt lat="48.88218" lon="2.32555">
        <ele>100</ele>
        <time>2012-12-18T21:33:57.000Z</time>
      </trkpt>
      <trkpt lat="48.88221" lon="2.32556">
        <ele>100</ele>
        <time>2012-12-18T21:33:58.000Z</time>
      </trkpt>
      <trkpt lat="48.88226" lon="2.32555">
        <ele>100</ele>
        <time>2012-12-18T21:33:59.000Z</time>
      </trkpt>
      <trkpt lat="48.88229" lon="2.32552">
        <ele>101</ele>
        <time>2012-12-18T21:34:00.000Z</time>
      </trkpt>
      <trkpt lat="48.8823" lon="2.32552">
        <ele>101</ele>
        <time>2012-12-18T21:34:01.000Z</time>
      </trkpt>
      <trkpt lat="48.8822" lon="2.32578">
        <ele>102</ele>
        <time>2012-12-18T21:34:02.000Z</time>
      </trkpt>
      <trkpt lat="48.88218" lon="2.32587">
        <ele>103</ele>
        <time>2012-12-18T21:34:03.000Z</time>
      </trkpt>
      <trkpt lat="48.8822" lon="2.3259">
        <ele>104</ele>
        <time>2012-12-18T21:34:04.000Z</time>
      </trkpt>
      <trkpt lat="48.88222" lon="2.3259">
        <ele>103</ele>
        <time>2012-12-18T21:34:05.000Z</time>
      </trkpt>
      <trkpt lat="48.88225" lon="2.32592">
        <ele>103</ele>
        <time>2012-12-18T21:34:06.000Z</time>
      </trkpt>
      <trkpt lat="48.88227" lon="2.32593">
        <ele>103</ele>
        <time>2012-12-18T21:34:07.000Z</time>
      </trkpt>
      <trkpt lat="48.8823" lon="2.32594">
        <ele>102</ele>
        <time>2012-12-18T21:34:08.000Z</time>
      </trkpt>
      <trkpt lat="48.88233" lon="2.32595">
        <ele>103</ele>
        <time>2012-12-18T21:34:09.000Z</time>
      </trkpt>
      <trkpt lat="48.88236" lon="2.32597">
        <ele>103</ele>
        <time>2012-12-18T21:34:11.000Z</time>
      </trkpt>
      <trkpt lat="48.88237" lon="2.32596">
        <ele>103</ele>
        <time>2012-12-18T21:34:12.000Z</time>
      </trkpt>
      <trkpt lat="48.88241" lon="2.32596">
        <ele>102</ele>
        <time>2012-12-18T21:34:13.000Z</time>
      </trkpt>
      <trkpt lat="48.88243" lon="2.32597">
        <ele>102</ele>
        <time>2012-12-18T21:34:14.000Z</time>
      </trkpt>
      <trkpt lat="48.88247" lon="2.32599">
        <ele>102</ele>
        <time>2012-12-18T21:34:16.000Z</time>
      </trkpt>
      <trkpt lat="48.88249" lon="2.32598">
        <ele>102</ele>
        <time>2012-12-18T21:34:17.000Z</time>
      </trkpt>
      <trkpt lat="48.88252" lon="2.326">
        <ele>101</ele>
        <time>2012-12-18T21:34:19.000Z</time>
      </trkpt>
      <trkpt lat="48.88254" lon="2.32603">
        <ele>101</ele>
        <time>2012-12-18T21:34:20.000Z</time>
      </trkpt>
      <trkpt lat="48.88255" lon="2.32604">
        <ele>101</ele>
        <time>2012-12-18T21:34:21.000Z</time>
      </trkpt>
      <trkpt lat="48.88258" lon="2.32605">
        <ele>100</ele>
        <time>2012-12-18T21:34:22.000Z</time>
      </trkpt>
      <trkpt lat="48.88261" lon="2.32605">
        <ele>101</ele>
        <time>2012-12-18T21:34:23.000Z</time>
      </trkpt>
      <trkpt lat="48.88263" lon="2.32605">
        <ele>100</ele>
        <time>2012-12-18T21:34:24.000Z</time>
      </trkpt>
      <trkpt lat="48.88269" lon="2.32604">
        <ele>100</ele>
        <time>2012-12-18T21:34:26.000Z</time>
      </trkpt>
      <trkpt lat="48.88271" lon="2.32606">
        <ele>101</ele>
        <time>2012-12-18T21:34:27.000Z</time>
      </trkpt>
      <trkpt lat="48.88276" lon="2.32608">
        <ele>100</ele>
        <time>2012-12-18T21:34:28.000Z</time>
      </trkpt>
      <trkpt lat="48.88274" lon="2.32618">
        <ele>100</ele>
        <time>2012-12-18T21:34:29.000Z</time>
      </trkpt>
      <trkpt lat="48.88276" lon="2.32622">
        <ele>101</ele>
        <time>2012-12-18T21:34:30.000Z</time>
      </trkpt>
      <trkpt lat="48.88273" lon="2.32632">
        <ele>101</ele>
        <time>2012-12-18T21:34:31.000Z</time>
      </trkpt>
      <trkpt lat="48.88274" lon="2.32635">
        <ele>101</ele>
        <time>2012-12-18T21:34:32.000Z</time>
      </trkpt>
      <trkpt lat="48.88276" lon="2.32638">
        <ele>101</ele>
        <time>2012-12-18T21:34:33.000Z</time>
      </trkpt>
      <trkpt lat="48.88277" lon="2.3264">
        <ele>101</ele>
        <time>2012-12-18T21:34:34.000Z</time>
      </trkpt>
      <trkpt lat="48.88279" lon="2.32642">
        <ele>102</ele>
        <time>2012-12-18T21:34:35.000Z</time>
      </trkpt>
      <trkpt lat="48.88282" lon="2.32645">
        <ele>102</ele>
        <time>2012-12-18T21:34:36.000Z</time>
      </trkpt>
      <trkpt lat="48.88282" lon="2.32646">
        <ele>102</ele>
        <time>2012-12-18T21:34:37.000Z</time>
      </trkpt>
      <trkpt lat="48.88286" lon="2.32647">
        <ele>102</ele>
        <time>2012-12-18T21:34:38.000Z</time>
      </trkpt>
      <trkpt lat="48.88288" lon="2.32649">
        <ele>103</ele>
        <time>2012-12-18T21:34:39.000Z</time>
      </trkpt>
      <trkpt lat="48.88291" lon="2.32649">
        <ele>104</ele>
        <time>2012-12-18T21:34:41.000Z</time>
      </trkpt>
      <trkpt lat="48.88294" lon="2.32652">
        <ele>104</ele>
        <time>2012-12-18T21:34:42.000Z</time>
      </trkpt>
      <trkpt lat="48.88297" lon="2.32654">
        <ele>103</ele>
        <time>2012-12-18T21:34:44.000Z</time>
      </trkpt>
      <trkpt lat="48.88297" lon="2.32659">
        <ele>103</ele>
        <time>2012-12-18T21:34:45.000Z</time>
      </trkpt>
      <trkpt lat="48.88301" lon="2.32661">
        <ele>102</ele>
        <time>2012-12-18T21:34:46.000Z</time>
      </trkpt>
      <trkpt lat="48.88301" lon="2.32666">
        <ele>102</ele>
        <time>2012-12-18T21:34:47.000Z</time>
      </trkpt>
      <trkpt lat="48.88303" lon="2.32669">
        <ele>99</ele>
        <time>2012-12-18T21:34:49.000Z</time>
      </trkpt>
      <trkpt lat="48.88301" lon="2.32673">
        <ele>98</ele>
        <time>2012-12-18T21:34:50.000Z</time>
      </trkpt>
      <trkpt lat="48.88304" lon="2.3267">
        <ele>99</ele>
        <time>2012-12-18T21:34:51.000Z</time>
      </trkpt>
      <trkpt lat="48.88305" lon="2.32668">
        <ele>100</ele>
        <time>2012-12-18T21:34:52.000Z</time>
      </trkpt>
      <trkpt lat="48.88309" lon="2.32663">
        <ele>101</ele>
        <time>2012-12-18T21:34:53.000Z</time>
      </trkpt>
      <trkpt lat="48.88312" lon="2.32659">
        <ele>102</ele>
        <time>2012-12-18T21:34:58.000Z</time>
      </trkpt>
      <trkpt lat="48.88313" lon="2.32658">
        <ele>101</ele>
        <time>2012-12-18T21:34:59.000Z</time>
      </trkpt>
      <trkpt lat="48.88311" lon="2.32659">
        <ele>101</ele>
        <time>2012-12-18T21:35:07.000Z</time>
      </trkpt>
      <trkpt lat="48.88317" lon="2.32658">
        <ele>101</ele>
        <time>2012-12-18T21:35:08.000Z</time>
      </trkpt>
      <trkpt lat="48.88319" lon="2.32655">
        <ele>107</ele>
        <time>2012-12-18T21:35:47.000Z</time>
      </trkpt>
      <trkpt lat="48.88324" lon="2.32658">
        <ele>107</ele>
        <time>2012-12-18T21:35:48.000Z</time>
      </trkpt>
      <trkpt lat="48.88326" lon="2.32661">
        <ele>106</ele>
        <time>2012-12-18T21:35:50.000Z</time>
      </trkpt>
      <trkpt lat="48.88329" lon="2.32663">
        <ele>106</ele>
        <time>2012-12-18T21:35:51.000Z</time>
      </trkpt>
      <trkpt lat="48.88332" lon="2.32664">
        <ele>106</ele>
        <time>2012-12-18T21:35:53.000Z</time>
      </trkpt>
      <trkpt lat="48.88333" lon="2.32664">
        <ele>107</ele>
        <time>2012-12-18T21:35:54.000Z</time>
      </trkpt>
      <trkpt lat="48.88338" lon="2.32663">
        <ele>108</ele>
        <time>2012-12-18T21:35:57.000Z</time>
      </trkpt>
      <trkpt lat="48.88339" lon="2.32662">
        <ele>109</ele>
        <time>2012-12-18T21:35:58.000Z</time>
      </trkpt>
      <trkpt lat="48.88343" lon="2.32661">
        <ele>109</ele>
        <time>2012-12-18T21:36:06.000Z</time>
      </trkpt>
      <trkpt lat="48.88346" lon="2.32661">
        <ele>109</ele>
        <time>2012-12-18T21:36:07.000Z</time>
      </trkpt>
      <trkpt lat="48.88348" lon="2.32661">
        <ele>110</ele>
        <time>2012-12-18T21:36:08.000Z</time>
      </trkpt>
      <trkpt lat="48.88352" lon="2.32661">
        <ele>111</ele>
        <time>2012-12-18T21:36:09.000Z</time>
      </trkpt>
      <trkpt lat="48.88354" lon="2.32662">
        <ele>111</ele>
        <time>2012-12-18T21:36:10.000Z</time>
      </trkpt>
      <trkpt lat="48.88357" lon="2.32661">
        <ele>111</ele>
        <time>2012-12-18T21:36:11.000Z</time>
      </trkpt>
      <trkpt lat="48.8836" lon="2.32661">
        <ele>112</ele>
        <time>2012-12-18T21:36:14.000Z</time>
      </trkpt>
      <trkpt lat="48.88358" lon="2.32668">
        <ele>113</ele>
        <time>2012-12-18T21:36:15.000Z</time>
      </trkpt>
      <trkpt lat="48.88361" lon="2.32665">
        <ele>113</ele>
        <time>2012-12-18T21:36:18.000Z</time>
      </trkpt>
      <trkpt lat="48.88365" lon="2.3266">
        <ele>114</ele>
        <time>2012-12-18T21:36:19.000Z</time>
      </trkpt>
      <trkpt lat="48.88367" lon="2.32661">
        <ele>114</ele>
        <time>2012-12-18T21:36:20.000Z</time>
      </trkpt>
      <trkpt lat="48.8837" lon="2.3266">
        <ele>115</ele>
        <time>2012-12-18T21:36:21.000Z</time>
      </trkpt>
      <trkpt lat="48.88372" lon="2.3266">
        <ele>115</ele>
        <time>2012-12-18T21:36:22.000Z</time>
      </trkpt>
      <trkpt lat="48.88377" lon="2.32657">
        <ele>114</ele>
        <time>2012-12-18T21:36:23.000Z</time>
      </trkpt>
      <trkpt lat="48.88381" lon="2.32656">
        <ele>114</ele>
        <time>2012-12-18T21:36:25.000Z</time>
      </trkpt>
      <trkpt lat="48.88383" lon="2.32655">
        <ele>114</ele>
        <time>2012-12-18T21:36:26.000Z</time>
      </trkpt>
      <trkpt lat="48.88385" lon="2.32655">
        <ele>114</ele>
        <time>2012-12-18T21:36:27.000Z</time>
      </trkpt>
      <trkpt lat="48.88388" lon="2.32654">
        <ele>114</ele>
        <time>2012-12-18T21:36:28.000Z</time>
      </trkpt>
      <trkpt lat="48.8839" lon="2.32651">
        <ele>114</ele>
        <time>2012-12-18T21:36:29.000Z</time>
      </trkpt>
      <trkpt lat="48.88393" lon="2.32648">
        <ele>114</ele>
        <time>2012-12-18T21:36:30.000Z</time>
      </trkpt>
      <trkpt lat="48.88396" lon="2.32646">
        <ele>114</ele>
        <time>2012-12-18T21:36:31.000Z</time>
      </trkpt>
      <trkpt lat="48.88398" lon="2.32646">
        <ele>114</ele>
        <time>2012-12-18T21:36:32.000Z</time>
      </trkpt>
      <trkpt lat="48.88399" lon="2.32642">
        <ele>114</ele>
        <time>2012-12-18T21:36:33.000Z</time>
      </trkpt>
      <trkpt lat="48.88403" lon="2.32638">
        <ele>114</ele>
        <time>2012-12-18T21:36:34.000Z</time>
      </trkpt>
      <trkpt lat="48.88405" lon="2.32636">
        <ele>113</ele>
        <time>2012-12-18T21:36:35.000Z</time>
      </trkpt>
      <trkpt lat="48.88407" lon="2.32633">
        <ele>114</ele>
        <time>2012-12-18T21:36:36.000Z</time>
      </trkpt>
      <trkpt lat="48.8841" lon="2.32631">
        <ele>114</ele>
        <time>2012-12-18T21:36:37.000Z</time>
      </trkpt>
      <trkpt lat="48.88412" lon="2.32629">
        <ele>114</ele>
        <time>2012-12-18T21:36:38.000Z</time>
      </trkpt>
      <trkpt lat="48.88412" lon="2.32623">
        <ele>114</ele>
        <time>2012-12-18T21:36:40.000Z</time>
      </trkpt>
      <trkpt lat="48.88412" lon="2.32617">
        <ele>114</ele>
        <time>2012-12-18T21:36:41.000Z</time>
      </trkpt>
      <trkpt lat="48.88413" lon="2.32615">
        <ele>114</ele>
        <time>2012-12-18T21:36:42.000Z</time>
      </trkpt>
      <trkpt lat="48.88417" lon="2.3261">
        <ele>114</ele>
        <time>2012-12-18T21:36:43.000Z</time>
      </trkpt>
      <trkpt lat="48.88422" lon="2.32607">
        <ele>113</ele>
        <time>2012-12-18T21:36:44.000Z</time>
      </trkpt>
      <trkpt lat="48.88425" lon="2.32605">
        <ele>113</ele>
        <time>2012-12-18T21:36:45.000Z</time>
      </trkpt>
      <trkpt lat="48.88427" lon="2.32602">
        <ele>113</ele>
        <time>2012-12-18T21:36:46.000Z</time>
      </trkpt>
      <trkpt lat="48.88432" lon="2.326">
        <ele>113</ele>
        <time>2012-12-18T21:36:47.000Z</time>
      </trkpt>
      <trkpt lat="48.88435" lon="2.32599">
        <ele>113</ele>
        <time>2012-12-18T21:36:48.000Z</time>
      </trkpt>
      <trkpt lat="48.88438" lon="2.32596">
        <ele>113</ele>
        <time>2012-12-18T21:36:49.000Z</time>
      </trkpt>
      <trkpt lat="48.88439" lon="2.32593">
        <ele>113</ele>
        <time>2012-12-18T21:36:50.000Z</time>
      </trkpt>
      <trkpt lat="48.88442" lon="2.32591">
        <ele>113</ele>
        <time>2012-12-18T21:36:51.000Z</time>
      </trkpt>
      <trkpt lat="48.88444" lon="2.32589">
        <ele>113</ele>
        <time>2012-12-18T21:36:52.000Z</time>
      </trkpt>
      <trkpt lat="48.88448" lon="2.32587">
        <ele>113</ele>
        <time>2012-12-18T21:36:53.000Z</time>
      </trkpt>
      <trkpt lat="48.88451" lon="2.32585">
        <ele>113</ele>
        <time>2012-12-18T21:36:54.000Z</time>
      </trkpt>
      <trkpt lat="48.88456" lon="2.32584">
        <ele>113</ele>
        <time>2012-12-18T21:36:55.000Z</time>
      </trkpt>
      <trkpt lat="48.88458" lon="2.32582">
        <ele>113</ele>
        <time>2012-12-18T21:36:56.000Z</time>
      </trkpt>
      <trkpt lat="48.8846" lon="2.32576">
        <ele>113</ele>
        <time>2012-12-18T21:36:57.000Z</time>
      </trkpt>
      <trkpt lat="48.88464" lon="2.32573">
        <ele>113</ele>
        <time>2012-12-18T21:36:58.000Z</time>
      </trkpt>
      <trkpt lat="48.88466" lon="2.32571">
        <ele>113</ele>
        <time>2012-12-18T21:36:59.000Z</time>
      </trkpt>
      <trkpt lat="48.88469" lon="2.32572">
        <ele>113</ele>
        <time>2012-12-18T21:37:00.000Z</time>
      </trkpt>
      <trkpt lat="48.88472" lon="2.3257">
        <ele>113</ele>
        <time>2012-12-18T21:37:01.000Z</time>
      </trkpt>
      <trkpt lat="48.88485" lon="2.32553">
        <ele>114</ele>
        <time>2012-12-18T21:37:07.000Z</time>
      </trkpt>
      <trkpt lat="48.88497" lon="2.32551">
        <ele>114</ele>
        <time>2012-12-18T21:37:08.000Z</time>
      </trkpt>
      <trkpt lat="48.88507" lon="2.32549">
        <ele>115</ele>
        <time>2012-12-18T21:37:09.000Z</time>
      </trkpt>
      <trkpt lat="48.88516" lon="2.32543">
        <ele>116</ele>
        <time>2012-12-18T21:37:10.000Z</time>
      </trkpt>
      <trkpt lat="48.88519" lon="2.32541">
        <ele>116</ele>
        <time>2012-12-18T21:37:11.000Z</time>
      </trkpt>
      <trkpt lat="48.88522" lon="2.32539">
        <ele>116</ele>
        <time>2012-12-18T21:37:12.000Z</time>
      </trkpt>
      <trkpt lat="48.88526" lon="2.32539">
        <ele>115</ele>
        <time>2012-12-18T21:37:23.000Z</time>
      </trkpt>
      <trkpt lat="48.88527" lon="2.32538">
        <ele>115</ele>
        <time>2012-12-18T21:37:24.000Z</time>
      </trkpt>
      <trkpt lat="48.88528" lon="2.32537">
        <ele>114</ele>
        <time>2012-12-18T21:37:31.000Z</time>
      </trkpt>
      <trkpt lat="48.88531" lon="2.32535">
        <ele>114</ele>
        <time>2012-12-18T21:37:32.000Z</time>
      </trkpt>
      <trkpt lat="48.88534" lon="2.32533">
        <ele>114</ele>
        <time>2012-12-18T21:37:33.000Z</time>
      </trkpt>
      <trkpt lat="48.88543" lon="2.32533">
        <ele>111</ele>
        <time>2012-12-18T21:37:34.000Z</time>
      </trkpt>
      <trkpt lat="48.88545" lon="2.32528">
        <ele>112</ele>
        <time>2012-12-18T21:37:35.000Z</time>
      </trkpt>
      <trkpt lat="48.88552" lon="2.32527">
        <ele>110</ele>
        <time>2012-12-18T21:37:36.000Z</time>
      </trkpt>
      <trkpt lat="48.88555" lon="2.32518">
        <ele>110</ele>
        <time>2012-12-18T21:37:37.000Z</time>
      </trkpt>
      <trkpt lat="48.88559" lon="2.32502">
        <ele>111</ele>
        <time>2012-12-18T21:37:38.000Z</time>
      </trkpt>
      <trkpt lat="48.88563" lon="2.32497">
        <ele>110</ele>
        <time>2012-12-18T21:37:39.000Z</time>
      </trkpt>
      <trkpt lat="48.88566" lon="2.32495">
        <ele>110</ele>
        <time>2012-12-18T21:37:40.000Z</time>
      </trkpt>
      <trkpt lat="48.88569" lon="2.32489">
        <ele>110</ele>
        <time>2012-12-18T21:37:41.000Z</time>
      </trkpt>
      <trkpt lat="48.88573" lon="2.32484">
        <ele>110</ele>
        <time>2012-12-18T21:37:42.000Z</time>
      </trkpt>
      <trkpt lat="48.88576" lon="2.32479">
        <ele>110</ele>
        <time>2012-12-18T21:37:43.000Z</time>
      </trkpt>
      <trkpt lat="48.88582" lon="2.32475">
        <ele>110</ele>
        <time>2012-12-18T21:37:44.000Z</time>
      </trkpt>
      <trkpt lat="48.88585" lon="2.3247">
        <ele>110</ele>
        <time>2012-12-18T21:37:45.000Z</time>
      </trkpt>
      <trkpt lat="48.88587" lon="2.32464">
        <ele>110</ele>
        <time>2012-12-18T21:37:46.000Z</time>
      </trkpt>
      <trkpt lat="48.88591" lon="2.32457">
        <ele>110</ele>
        <time>2012-12-18T21:37:47.000Z</time>
      </trkpt>
      <trkpt lat="48.88597" lon="2.32455">
        <ele>109</ele>
        <time>2012-12-18T21:37:48.000Z</time>
      </trkpt>
      <trkpt lat="48.886" lon="2.32449">
        <ele>110</ele>
        <time>2012-12-18T21:37:49.000Z</time>
      </trkpt>
      <trkpt lat="48.88602" lon="2.32445">
        <ele>110</ele>
        <time>2012-12-18T21:37:50.000Z</time>
      </trkpt>
      <trkpt lat="48.88608" lon="2.32442">
        <ele>109</ele>
        <time>2012-12-18T21:37:51.000Z</time>
      </trkpt>
      <trkpt lat="48.8861" lon="2.32436">
        <ele>110</ele>
        <time>2012-12-18T21:37:52.000Z</time>
      </trkpt>
      <trkpt lat="48.88615" lon="2.32431">
        <ele>111</ele>
        <time>2012-12-18T21:37:53.000Z</time>
      </trkpt>
      <trkpt lat="48.88622" lon="2.32429">
        <ele>112</ele>
        <time>2012-12-18T21:37:54.000Z</time>
      </trkpt>
      <trkpt lat="48.88626" lon="2.32425">
        <ele>112</ele>
        <time>2012-12-18T21:37:55.000Z</time>
      </trkpt>
      <trkpt lat="48.88628" lon="2.32421">
        <ele>112</ele>
        <time>2012-12-18T21:37:56.000Z</time>
      </trkpt>
      <trkpt lat="48.88633" lon="2.32417">
        <ele>112</ele>
        <time>2012-12-18T21:37:57.000Z</time>
      </trkpt>
      <trkpt lat="48.88637" lon="2.32413">
        <ele>112</ele>
        <time>2012-12-18T21:37:58.000Z</time>
      </trkpt>
      <trkpt lat="48.88642" lon="2.32409">
        <ele>111</ele>
        <time>2012-12-18T21:37:59.000Z</time>
      </trkpt>
      <trkpt lat="48.88646" lon="2.32404">
        <ele>111</ele>
        <time>2012-12-18T21:38:00.000Z</time>
      </trkpt>
      <trkpt lat="48.88649" lon="2.324">
        <ele>111</ele>
        <time>2012-12-18T21:38:01.000Z</time>
      </trkpt>
      <trkpt lat="48.88653" lon="2.32395">
        <ele>112</ele>
        <time>2012-12-18T21:38:02.000Z</time>
      </trkpt>
      <trkpt lat="48.88654" lon="2.32386">
        <ele>112</ele>
        <time>2012-12-18T21:38:03.000Z</time>
      </trkpt>
      <trkpt lat="48.88657" lon="2.32381">
        <ele>112</ele>
        <time>2012-12-18T21:38:04.000Z</time>
      </trkpt>
      <trkpt lat="48.8866" lon="2.32377">
        <ele>112</ele>
        <time>2012-12-18T21:38:05.000Z</time>
      </trkpt>
      <trkpt lat="48.88661" lon="2.32371">
        <ele>112</ele>
        <time>2012-12-18T21:38:06.000Z</time>
      </trkpt>
      <trkpt lat="48.88665" lon="2.32367">
        <ele>112</ele>
        <time>2012-12-18T21:38:07.000Z</time>
      </trkpt>
      <trkpt lat="48.88668" lon="2.32363">
        <ele>112</ele>
        <time>2012-12-18T21:38:08.000Z</time>
      </trkpt>
      <trkpt lat="48.88672" lon="2.32359">
        <ele>112</ele>
        <time>2012-12-18T21:38:09.000Z</time>
      </trkpt>
      <trkpt lat="48.88676" lon="2.32354">
        <ele>112</ele>
        <time>2012-12-18T21:38:10.000Z</time>
      </trkpt>
      <trkpt lat="48.88679" lon="2.32351">
        <ele>112</ele>
        <time>2012-12-18T21:38:11.000Z</time>
      </trkpt>
      <trkpt lat="48.88684" lon="2.32346">
        <ele>112</ele>
        <time>2012-12-18T21:38:12.000Z</time>
      </trkpt>
      <trkpt lat="48.88692" lon="2.32342">
        <ele>112</ele>
        <time>2012-12-18T21:38:13.000Z</time>
      </trkpt>
      <trkpt lat="48.88691" lon="2.32333">
        <ele>112</ele>
        <time>2012-12-18T21:38:14.000Z</time>
      </trkpt>
      <trkpt lat="48.88694" lon="2.32331">
        <ele>112</ele>
        <time>2012-12-18T21:38:15.000Z</time>
      </trkpt>
      <trkpt lat="48.88697" lon="2.32326">
        <ele>111</ele>
        <time>2012-12-18T21:38:16.000Z</time>
      </trkpt>
      <trkpt lat="48.88698" lon="2.3232">
        <ele>111</ele>
        <time>2012-12-18T21:38:17.000Z</time>
      </trkpt>
      <trkpt lat="48.88701" lon="2.32316">
        <ele>111</ele>
        <time>2012-12-18T21:38:18.000Z</time>
      </trkpt>
      <trkpt lat="48.88703" lon="2.32311">
        <ele>112</ele>
        <time>2012-12-18T21:38:19.000Z</time>
      </trkpt>
      <trkpt lat="48.88707" lon="2.32309">
        <ele>113</ele>
        <time>2012-12-18T21:38:20.000Z</time>
      </trkpt>
      <trkpt lat="48.88709" lon="2.32305">
        <ele>113</ele>
        <time>2012-12-18T21:38:23.000Z</time>
      </trkpt>
      <trkpt lat="48.88712" lon="2.32306">
        <ele>113</ele>
        <time>2012-12-18T21:38:24.000Z</time>
      </trkpt>
      <trkpt lat="48.88714" lon="2.32301">
        <ele>114</ele>
        <time>2012-12-18T21:38:26.000Z</time>
      </trkpt>
      <trkpt lat="48.88715" lon="2.32301">
        <ele>114</ele>
        <time>2012-12-18T21:38:27.000Z</time>
      </trkpt>
      <trkpt lat="48.88719" lon="2.323">
        <ele>114</ele>
        <time>2012-12-18T21:38:29.000Z</time>
      </trkpt>
      <trkpt lat="48.8872" lon="2.32299">
        <ele>114</ele>
        <time>2012-12-18T21:38:30.000Z</time>
      </trkpt>
      <trkpt lat="48.88723" lon="2.32303">
        <ele>113</ele>
        <time>2012-12-18T21:38:33.000Z</time>
      </trkpt>
      <trkpt lat="48.88724" lon="2.32303">
        <ele>113</ele>
        <time>2012-12-18T21:38:34.000Z</time>
      </trkpt>
      <trkpt lat="48.88726" lon="2.32307">
        <ele>113</ele>
        <time>2012-12-18T21:38:36.000Z</time>
      </trkpt>
      <trkpt lat="48.88727" lon="2.32311">
        <ele>113</ele>
        <time>2012-12-18T21:38:37.000Z</time>
      </trkpt>
      <trkpt lat="48.8873" lon="2.32315">
        <ele>113</ele>
        <time>2012-12-18T21:38:40.000Z</time>
      </trkpt>
      <trkpt lat="48.88731" lon="2.32317">
        <ele>113</ele>
        <time>2012-12-18T21:38:41.000Z</time>
      </trkpt>
      <trkpt lat="48.88729" lon="2.32327">
        <ele>113</ele>
        <time>2012-12-18T21:38:42.000Z</time>
      </trkpt>
      <trkpt lat="48.88723" lon="2.32334">
        <ele>113</ele>
        <time>2012-12-18T21:38:43.000Z</time>
      </trkpt>
      <trkpt lat="48.88726" lon="2.32343">
        <ele>112</ele>
        <time>2012-12-18T21:38:44.000Z</time>
      </trkpt>
      <trkpt lat="48.88723" lon="2.32349">
        <ele>112</ele>
        <time>2012-12-18T21:38:45.000Z</time>
      </trkpt>
      <trkpt lat="48.88728" lon="2.32354">
        <ele>112</ele>
        <time>2012-12-18T21:38:46.000Z</time>
      </trkpt>
      <trkpt lat="48.88737" lon="2.32366">
        <ele>112</ele>
        <time>2012-12-18T21:38:47.000Z</time>
      </trkpt>
      <trkpt lat="48.88737" lon="2.32369">
        <ele>112</ele>
        <time>2012-12-18T21:38:48.000Z</time>
      </trkpt>
      <trkpt lat="48.8874" lon="2.32372">
        <ele>112</ele>
        <time>2012-12-18T21:38:49.000Z</time>
      </trkpt>
      <trkpt lat="48.88745" lon="2.32369">
        <ele>112</ele>
        <time>2012-12-18T21:38:50.000Z</time>
      </trkpt>
      <trkpt lat="48.88749" lon="2.32375">
        <ele>112</ele>
        <time>2012-12-18T21:38:51.000Z</time>
      </trkpt>
      <trkpt lat="48.88755" lon="2.32386">
        <ele>112</ele>
        <time>2012-12-18T21:38:52.000Z</time>
      </trkpt>
      <trkpt lat="48.88761" lon="2.3239">
        <ele>112</ele>
        <time>2012-12-18T21:38:53.000Z</time>
      </trkpt>
      <trkpt lat="48.88765" lon="2.32394">
        <ele>111</ele>
        <time>2012-12-18T21:38:54.000Z</time>
      </trkpt>
      <trkpt lat="48.88768" lon="2.32395">
        <ele>111</ele>
        <time>2012-12-18T21:38:55.000Z</time>
      </trkpt>
      <trkpt lat="48.88771" lon="2.32397">
        <ele>111</ele>
        <time>2012-12-18T21:38:56.000Z</time>
      </trkpt>
      <trkpt lat="48.88773" lon="2.32399">
        <ele>111</ele>
        <time>2012-12-18T21:38:57.000Z</time>
      </trkpt>
      <trkpt lat="48.88775" lon="2.324">
        <ele>111</ele>
        <time>2012-12-18T21:38:58.000Z</time>
      </trkpt>
      <trkpt lat="48.88781" lon="2.32401">
        <ele>111</ele>
        <time>2012-12-18T21:38:59.000Z</time>
      </trkpt>
      <trkpt lat="48.88783" lon="2.32402">
        <ele>111</ele>
        <time>2012-12-18T21:39:00.000Z</time>
      </trkpt>
      <trkpt lat="48.88786" lon="2.32403">
        <ele>111</ele>
        <time>2012-12-18T21:39:01.000Z</time>
      </trkpt>
      <trkpt lat="48.88786" lon="2.32407">
        <ele>111</ele>
        <time>2012-12-18T21:39:03.000Z</time>
      </trkpt>
      <trkpt lat="48.88794" lon="2.32411">
        <ele>112</ele>
        <time>2012-12-18T21:39:04.000Z</time>
      </trkpt>
      <trkpt lat="48.88801" lon="2.32411">
        <ele>112</ele>
        <time>2012-12-18T21:39:05.000Z</time>
      </trkpt>
      <trkpt lat="48.88806" lon="2.32413">
        <ele>113</ele>
        <time>2012-12-18T21:39:06.000Z</time>
      </trkpt>
      <trkpt lat="48.8879" lon="2.32425">
        <ele>115</ele>
        <time>2012-12-18T21:39:07.000Z</time>
      </trkpt>
      <trkpt lat="48.88791" lon="2.32429">
        <ele>115</ele>
        <time>2012-12-18T21:39:09.000Z</time>
      </trkpt>
      <trkpt lat="48.88796" lon="2.32431">
        <ele>116</ele>
        <time>2012-12-18T21:39:10.000Z</time>
      </trkpt>
      <trkpt lat="48.88799" lon="2.32433">
        <ele>116</ele>
        <time>2012-12-18T21:39:12.000Z</time>
      </trkpt>
      <trkpt lat="48.888" lon="2.32435">
        <ele>116</ele>
        <time>2012-12-18T21:39:13.000Z</time>
      </trkpt>
      <trkpt lat="48.88803" lon="2.32439">
        <ele>118</ele>
        <time>2012-12-18T21:39:14.000Z</time>
      </trkpt>
      <trkpt lat="48.88803" lon="2.3244">
        <ele>118</ele>
        <time>2012-12-18T21:39:15.000Z</time>
      </trkpt>
      <trkpt lat="48.88806" lon="2.32444">
        <ele>123</ele>
        <time>2012-12-18T21:39:25.000Z</time>
      </trkpt>
      <trkpt lat="48.88807" lon="2.32445">
        <ele>123</ele>
        <time>2012-12-18T21:39:26.000Z</time>
      </trkpt>
      <trkpt lat="48.8881" lon="2.32441">
        <ele>123</ele>
        <time>2012-12-18T21:40:47.000Z</time>
      </trkpt>
      <trkpt lat="48.88815" lon="2.32436">
        <ele>122</ele>
        <time>2012-12-18T21:40:48.000Z</time>
      </trkpt>
      <trkpt lat="48.88817" lon="2.32433">
        <ele>122</ele>
        <time>2012-12-18T21:40:49.000Z</time>
      </trkpt>
      <trkpt lat="48.8882" lon="2.32432">
        <ele>122</ele>
        <time>2012-12-18T21:40:50.000Z</time>
      </trkpt>
      <trkpt lat="48.88825" lon="2.32426">
        <ele>121</ele>
        <time>2012-12-18T21:40:51.000Z</time>
      </trkpt>
      <trkpt lat="48.88828" lon="2.32425">
        <ele>121</ele>
        <time>2012-12-18T21:40:52.000Z</time>
      </trkpt>
      <trkpt lat="48.88829" lon="2.32416">
        <ele>121</ele>
        <time>2012-12-18T21:40:53.000Z</time>
      </trkpt>
      <trkpt lat="48.88832" lon="2.32418">
        <ele>120</ele>
        <time>2012-12-18T21:40:55.000Z</time>
      </trkpt>
      <trkpt lat="48.88834" lon="2.32419">
        <ele>120</ele>
        <time>2012-12-18T21:40:56.000Z</time>
      </trkpt>
      <trkpt lat="48.88838" lon="2.32418">
        <ele>118</ele>
        <time>2012-12-18T21:41:09.000Z</time>
      </trkpt>
      <trkpt lat="48.88839" lon="2.32419">
        <ele>119</ele>
        <time>2012-12-18T21:41:10.000Z</time>
      </trkpt>
      <trkpt lat="48.88841" lon="2.32419">
        <ele>119</ele>
        <time>2012-12-18T21:41:27.000Z</time>
      </trkpt>
      <trkpt lat="48.88848" lon="2.32419">
        <ele>121</ele>
        <time>2012-12-18T21:41:28.000Z</time>
      </trkpt>
      <trkpt lat="48.88853" lon="2.32419">
        <ele>123</ele>
        <time>2012-12-18T21:41:29.000Z</time>
      </trkpt>
      <trkpt lat="48.88858" lon="2.32416">
        <ele>123</ele>
        <time>2012-12-18T21:41:30.000Z</time>
      </trkpt>
      <trkpt lat="48.88861" lon="2.32412">
        <ele>123</ele>
        <time>2012-12-18T21:41:31.000Z</time>
      </trkpt>
      <trkpt lat="48.88867" lon="2.32409">
        <ele>123</ele>
        <time>2012-12-18T21:41:32.000Z</time>
      </trkpt>
      <trkpt lat="48.88869" lon="2.32405">
        <ele>124</ele>
        <time>2012-12-18T21:41:33.000Z</time>
      </trkpt>
      <trkpt lat="48.88873" lon="2.32399">
        <ele>124</ele>
        <time>2012-12-18T21:41:34.000Z</time>
      </trkpt>
      <trkpt lat="48.88874" lon="2.32392">
        <ele>125</ele>
        <time>2012-12-18T21:41:38.000Z</time>
      </trkpt>
      <trkpt lat="48.88878" lon="2.32389">
        <ele>126</ele>
        <time>2012-12-18T21:41:39.000Z</time>
      </trkpt>
      <trkpt lat="48.88885" lon="2.32386">
        <ele>127</ele>
        <time>2012-12-18T21:41:40.000Z</time>
      </trkpt>
      <trkpt lat="48.88886" lon="2.32384">
        <ele>128</ele>
        <time>2012-12-18T21:41:41.000Z</time>
      </trkpt>
      <trkpt lat="48.88889" lon="2.32381">
        <ele>128</ele>
        <time>2012-12-18T21:41:42.000Z</time>
      </trkpt>
      <trkpt lat="48.88891" lon="2.32381">
        <ele>128</ele>
        <time>2012-12-18T21:41:46.000Z</time>
      </trkpt>
      <trkpt lat="48.88893" lon="2.32385">
        <ele>128</ele>
        <time>2012-12-18T21:41:47.000Z</time>
      </trkpt>
      <trkpt lat="48.88897" lon="2.32388">
        <ele>129</ele>
        <time>2012-12-18T21:41:50.000Z</time>
      </trkpt>
      <trkpt lat="48.88897" lon="2.32388">
        <ele>129</ele>
        <time>2012-12-18T21:41:51.000Z</time>
      </trkpt>
      <trkpt lat="48.88901" lon="2.32392">
        <ele>128</ele>
        <time>2012-12-18T21:41:52.000Z</time>
      </trkpt>
      <trkpt lat="48.88903" lon="2.32396">
        <ele>128</ele>
        <time>2012-12-18T21:41:54.000Z</time>
      </trkpt>
      <trkpt lat="48.88906" lon="2.324">
        <ele>128</ele>
        <time>2012-12-18T21:41:55.000Z</time>
      </trkpt>
      <trkpt lat="48.88912" lon="2.32406">
        <ele>128</ele>
        <time>2012-12-18T21:41:56.000Z</time>
      </trkpt>
      <trkpt lat="48.88917" lon="2.32414">
        <ele>128</ele>
        <time>2012-12-18T21:41:57.000Z</time>
      </trkpt>
      <trkpt lat="48.88924" lon="2.3242">
        <ele>127</ele>
        <time>2012-12-18T21:41:58.000Z</time>
      </trkpt>
      <trkpt lat="48.88926" lon="2.32424">
        <ele>127</ele>
        <time>2012-12-18T21:41:59.000Z</time>
      </trkpt>
      <trkpt lat="48.88926" lon="2.32428">
        <ele>127</ele>
        <time>2012-12-18T21:42:00.000Z</time>
      </trkpt>
      <trkpt lat="48.8893" lon="2.32434">
        <ele>127</ele>
        <time>2012-12-18T21:42:01.000Z</time>
      </trkpt>
      <trkpt lat="48.88932" lon="2.32438">
        <ele>127</ele>
        <time>2012-12-18T21:42:02.000Z</time>
      </trkpt>
      <trkpt lat="48.8893" lon="2.32447">
        <ele>127</ele>
        <time>2012-12-18T21:42:03.000Z</time>
      </trkpt>
      <trkpt lat="48.88932" lon="2.32451">
        <ele>127</ele>
        <time>2012-12-18T21:42:04.000Z</time>
      </trkpt>
      <trkpt lat="48.88934" lon="2.32455">
        <ele>127</ele>
        <time>2012-12-18T21:42:05.000Z</time>
      </trkpt>
      <trkpt lat="48.88936" lon="2.32459">
        <ele>127</ele>
        <time>2012-12-18T21:42:06.000Z</time>
      </trkpt>
      <trkpt lat="48.88942" lon="2.32461">
        <ele>126</ele>
        <time>2012-12-18T21:42:07.000Z</time>
      </trkpt>
      <trkpt lat="48.88947" lon="2.32464">
        <ele>126</ele>
        <time>2012-12-18T21:42:08.000Z</time>
      </trkpt>
      <trkpt lat="48.88952" lon="2.32471">
        <ele>125</ele>
        <time>2012-12-18T21:42:09.000Z</time>
      </trkpt>
      <trkpt lat="48.88955" lon="2.32472">
        <ele>125</ele>
        <time>2012-12-18T21:42:10.000Z</time>
      </trkpt>
      <trkpt lat="48.88958" lon="2.32476">
        <ele>125</ele>
        <time>2012-12-18T21:42:11.000Z</time>
      </trkpt>
      <trkpt lat="48.88959" lon="2.32484">
        <ele>124</ele>
        <time>2012-12-18T21:42:12.000Z</time>
      </trkpt>
      <trkpt lat="48.88962" lon="2.32485">
        <ele>123</ele>
        <time>2012-12-18T21:42:13.000Z</time>
      </trkpt>
      <trkpt lat="48.88969" lon="2.3249">
        <ele>122</ele>
        <time>2012-12-18T21:42:14.000Z</time>
      </trkpt>
      <trkpt lat="48.88975" lon="2.3249">
        <ele>122</ele>
        <time>2012-12-18T21:42:15.000Z</time>
      </trkpt>
      <trkpt lat="48.88986" lon="2.3249">
        <ele>122</ele>
        <time>2012-12-18T21:42:16.000Z</time>
      </trkpt>
      <trkpt lat="48.88985" lon="2.32494">
        <ele>121</ele>
        <time>2012-12-18T21:42:17.000Z</time>
      </trkpt>
      <trkpt lat="48.88993" lon="2.32499">
        <ele>120</ele>
        <time>2012-12-18T21:42:18.000Z</time>
      </trkpt>
      <trkpt lat="48.88998" lon="2.32499">
        <ele>119</ele>
        <time>2012-12-18T21:42:19.000Z</time>
      </trkpt>
      <trkpt lat="48.89001" lon="2.32501">
        <ele>119</ele>
        <time>2012-12-18T21:42:20.000Z</time>
      </trkpt>
      <trkpt lat="48.89008" lon="2.32501">
        <ele>119</ele>
        <time>2012-12-18T21:42:21.000Z</time>
      </trkpt>
      <trkpt lat="48.89012" lon="2.32502">
        <ele>119</ele>
        <time>2012-12-18T21:42:22.000Z</time>
      </trkpt>
      <trkpt lat="48.89013" lon="2.32505">
        <ele>119</ele>
        <time>2012-12-18T21:42:23.000Z</time>
      </trkpt>
      <trkpt lat="48.89015" lon="2.32507">
        <ele>118</ele>
        <time>2012-12-18T21:42:24.000Z</time>
      </trkpt>
      <trkpt lat="48.89016" lon="2.32513">
        <ele>119</ele>
        <time>2012-12-18T21:42:25.000Z</time>
      </trkpt>
      <trkpt lat="48.89021" lon="2.32514">
        <ele>118</ele>
        <time>2012-12-18T21:42:26.000Z</time>
      </trkpt>
      <trkpt lat="48.89027" lon="2.32517">
        <ele>120</ele>
        <time>2012-12-18T21:42:27.000Z</time>
      </trkpt>
      <trkpt lat="48.89029" lon="2.32518">
        <ele>120</ele>
        <time>2012-12-18T21:42:28.000Z</time>
      </trkpt>
      <trkpt lat="48.89048" lon="2.3252">
        <ele>124</ele>
        <time>2012-12-18T21:42:30.000Z</time>
      </trkpt>
      <trkpt lat="48.89049" lon="2.32521">
        <ele>123</ele>
        <time>2012-12-18T21:42:35.000Z</time>
      </trkpt>
      <trkpt lat="48.8904" lon="2.32533">
        <ele>123</ele>
        <time>2012-12-18T21:42:36.000Z</time>
      </trkpt>
      <trkpt lat="48.89041" lon="2.32531">
        <ele>123</ele>
        <time>2012-12-18T21:42:37.000Z</time>
      </trkpt>
      <trkpt lat="48.89033" lon="2.32544">
        <ele>123</ele>
        <time>2012-12-18T21:42:38.000Z</time>
      </trkpt>
      <trkpt lat="48.89031" lon="2.32545">
        <ele>123</ele>
        <time>2012-12-18T21:42:39.000Z</time>
      </trkpt>
      <trkpt lat="48.89027" lon="2.32562">
        <ele>124</ele>
        <time>2012-12-18T21:42:40.000Z</time>
      </trkpt>
      <trkpt lat="48.89027" lon="2.32563">
        <ele>124</ele>
        <time>2012-12-18T21:42:41.000Z</time>
      </trkpt>
      <trkpt lat="48.89033" lon="2.32566">
        <ele>125</ele>
        <time>2012-12-18T21:42:42.000Z</time>
      </trkpt>
      <trkpt lat="48.89038" lon="2.3257">
        <ele>125</ele>
        <time>2012-12-18T21:42:43.000Z</time>
      </trkpt>
      <trkpt lat="48.89043" lon="2.32573">
        <ele>125</ele>
        <time>2012-12-18T21:42:44.000Z</time>
      </trkpt>
      <trkpt lat="48.89045" lon="2.32577">
        <ele>124</ele>
        <time>2012-12-18T21:42:47.000Z</time>
      </trkpt>
      <trkpt lat="48.89047" lon="2.32578">
        <ele>124</ele>
        <time>2012-12-18T21:42:48.000Z</time>
      </trkpt>
      <trkpt lat="48.8905" lon="2.3258">
        <ele>124</ele>
        <time>2012-12-18T21:42:49.000Z</time>
      </trkpt>
      <trkpt lat="48.89051" lon="2.32582">
        <ele>124</ele>
        <time>2012-12-18T21:42:50.000Z</time>
      </trkpt>
      <trkpt lat="48.89053" lon="2.32584">
        <ele>124</ele>
        <time>2012-12-18T21:42:52.000Z</time>
      </trkpt>
      <trkpt lat="48.89056" lon="2.32583">
        <ele>123</ele>
        <time>2012-12-18T21:42:53.000Z</time>
      </trkpt>
      <trkpt lat="48.89054" lon="2.32587">
        <ele>124</ele>
        <time>2012-12-18T21:43:29.000Z</time>
      </trkpt>
      <trkpt lat="48.89062" lon="2.32597">
        <ele>126</ele>
        <time>2012-12-18T21:43:30.000Z</time>
      </trkpt>
      <trkpt lat="48.89065" lon="2.32604">
        <ele>127</ele>
        <time>2012-12-18T21:43:31.000Z</time>
      </trkpt>
      <trkpt lat="48.89071" lon="2.32612">
        <ele>126</ele>
        <time>2012-12-18T21:43:32.000Z</time>
      </trkpt>
      <trkpt lat="48.89071" lon="2.32618">
        <ele>126</ele>
        <time>2012-12-18T21:43:34.000Z</time>
      </trkpt>
      <trkpt lat="48.89068" lon="2.32622">
        <ele>124</ele>
        <time>2012-12-18T21:43:35.000Z</time>
      </trkpt>
      <trkpt lat="48.89071" lon="2.32622">
        <ele>123</ele>
        <time>2012-12-18T21:43:36.000Z</time>
      </trkpt>
      <trkpt lat="48.89074" lon="2.32626">
        <ele>121</ele>
        <time>2012-12-18T21:43:37.000Z</time>
      </trkpt>
      <trkpt lat="48.8908" lon="2.32627">
        <ele>120</ele>
        <time>2012-12-18T21:43:38.000Z</time>
      </trkpt>
      <trkpt lat="48.89083" lon="2.3263">
        <ele>119</ele>
        <time>2012-12-18T21:43:39.000Z</time>
      </trkpt>
      <trkpt lat="48.89083" lon="2.32632">
        <ele>119</ele>
        <time>2012-12-18T21:43:40.000Z</time>
      </trkpt>
      <trkpt lat="48.89087" lon="2.32634">
        <ele>119</ele>
        <time>2012-12-18T21:43:42.000Z</time>
      </trkpt>
      <trkpt lat="48.89087" lon="2.32637">
        <ele>119</ele>
        <time>2012-12-18T21:43:43.000Z</time>
      </trkpt>
      <trkpt lat="48.89089" lon="2.32638">
        <ele>120</ele>
        <time>2012-12-18T21:43:44.000Z</time>
      </trkpt>
      <trkpt lat="48.89091" lon="2.32639">
        <ele>119</ele>
        <time>2012-12-18T21:43:45.000Z</time>
      </trkpt>
      <trkpt lat="48.89095" lon="2.32641">
        <ele>119</ele>
        <time>2012-12-18T21:43:47.000Z</time>
      </trkpt>
      <trkpt lat="48.89098" lon="2.32642">
        <ele>119</ele>
        <time>2012-12-18T21:43:48.000Z</time>
      </trkpt>
      <trkpt lat="48.89101" lon="2.32645">
        <ele>119</ele>
        <time>2012-12-18T21:43:49.000Z</time>
      </trkpt>
      <trkpt lat="48.89103" lon="2.32646">
        <ele>119</ele>
        <time>2012-12-18T21:43:50.000Z</time>
      </trkpt>
      <trkpt lat="48.89106" lon="2.32648">
        <ele>117</ele>
        <time>2012-12-18T21:43:51.000Z</time>
      </trkpt>
      <trkpt lat="48.8911" lon="2.32652">
        <ele>114</ele>
        <time>2012-12-18T21:43:52.000Z</time>
      </trkpt>
      <trkpt lat="48.89112" lon="2.32653">
        <ele>114</ele>
        <time>2012-12-18T21:43:53.000Z</time>
      </trkpt>
      <trkpt lat="48.89114" lon="2.32654">
        <ele>114</ele>
        <time>2012-12-18T21:43:54.000Z</time>
      </trkpt>
      <trkpt lat="48.89118" lon="2.32657">
        <ele>114</ele>
        <time>2012-12-18T21:43:56.000Z</time>
      </trkpt>
      <trkpt lat="48.89119" lon="2.32658">
        <ele>114</ele>
        <time>2012-12-18T21:43:57.000Z</time>
      </trkpt>
      <trkpt lat="48.89121" lon="2.3266">
        <ele>114</ele>
        <time>2012-12-18T21:43:58.000Z</time>
      </trkpt>
      <trkpt lat="48.89123" lon="2.32663">
        <ele>114</ele>
        <time>2012-12-18T21:43:59.000Z</time>
      </trkpt>
      <trkpt lat="48.89125" lon="2.32663">
        <ele>113</ele>
        <time>2012-12-18T21:44:00.000Z</time>
      </trkpt>
      <trkpt lat="48.89128" lon="2.32661">
        <ele>113</ele>
        <time>2012-12-18T21:44:01.000Z</time>
      </trkpt>
      <trkpt lat="48.89126" lon="2.32667">
        <ele>113</ele>
        <time>2012-12-18T21:44:02.000Z</time>
      </trkpt>
      <trkpt lat="48.89128" lon="2.32675">
        <ele>114</ele>
        <time>2012-12-18T21:44:03.000Z</time>
      </trkpt>
      <trkpt lat="48.8913" lon="2.32678">
        <ele>114</ele>
        <time>2012-12-18T21:44:04.000Z</time>
      </trkpt>
      <trkpt lat="48.89133" lon="2.32683">
        <ele>113</ele>
        <time>2012-12-18T21:44:05.000Z</time>
      </trkpt>
      <trkpt lat="48.89136" lon="2.32687">
        <ele>112</ele>
        <time>2012-12-18T21:44:06.000Z</time>
      </trkpt>
      <trkpt lat="48.89145" lon="2.3268">
        <ele>109</ele>
        <time>2012-12-18T21:44:07.000Z</time>
      </trkpt>
      <trkpt lat="48.8915" lon="2.32676">
        <ele>105</ele>
        <time>2012-12-18T21:44:08.000Z</time>
      </trkpt>
      <trkpt lat="48.89154" lon="2.32679">
        <ele>101</ele>
        <time>2012-12-18T21:44:10.000Z</time>
      </trkpt>
      <trkpt lat="48.89156" lon="2.32681">
        <ele>101</ele>
        <time>2012-12-18T21:44:11.000Z</time>
      </trkpt>
      <trkpt lat="48.89157" lon="2.32682">
        <ele>102</ele>
        <time>2012-12-18T21:44:12.000Z</time>
      </trkpt>
      <trkpt lat="48.89162" lon="2.32685">
        <ele>102</ele>
        <time>2012-12-18T21:44:13.000Z</time>
      </trkpt>
      <trkpt lat="48.89166" lon="2.32688">
        <ele>102</ele>
        <time>2012-12-18T21:44:14.000Z</time>
      </trkpt>
      <trkpt lat="48.89169" lon="2.32689">
        <ele>102</ele>
        <time>2012-12-18T21:44:15.000Z</time>
      </trkpt>
      <trkpt lat="48.89172" lon="2.32691">
        <ele>103</ele>
        <time>2012-12-18T21:44:17.000Z</time>
      </trkpt>
      <trkpt lat="48.89177" lon="2.3269">
        <ele>103</ele>
        <time>2012-12-18T21:44:18.000Z</time>
      </trkpt>
      <trkpt lat="48.89178" lon="2.32689">
        <ele>103</ele>
        <time>2012-12-18T21:44:19.000Z</time>
      </trkpt>
      <trkpt lat="48.89183" lon="2.32689">
        <ele>103</ele>
        <time>2012-12-18T21:44:20.000Z</time>
      </trkpt>
      <trkpt lat="48.89186" lon="2.3269">
        <ele>102</ele>
        <time>2012-12-18T21:44:22.000Z</time>
      </trkpt>
      <trkpt lat="48.8919" lon="2.32692">
        <ele>101</ele>
        <time>2012-12-18T21:44:23.000Z</time>
      </trkpt>
      <trkpt lat="48.89193" lon="2.32691">
        <ele>102</ele>
        <time>2012-12-18T21:44:25.000Z</time>
      </trkpt>
      <trkpt lat="48.89196" lon="2.32693">
        <ele>102</ele>
        <time>2012-12-18T21:44:26.000Z</time>
      </trkpt>
      <trkpt lat="48.89198" lon="2.32695">
        <ele>102</ele>
        <time>2012-12-18T21:44:28.000Z</time>
      </trkpt>
      <trkpt lat="48.89198" lon="2.327">
        <ele>101</ele>
        <time>2012-12-18T21:44:29.000Z</time>
      </trkpt>
      <trkpt lat="48.89197" lon="2.32706">
        <ele>99</ele>
        <time>2012-12-18T21:44:34.000Z</time>
      </trkpt>
      <trkpt lat="48.89198" lon="2.32707">
        <ele>100</ele>
        <time>2012-12-18T21:44:35.000Z</time>
      </trkpt>
      <trkpt lat="48.89195" lon="2.32712">
        <ele>102</ele>
        <time>2012-12-18T21:44:51.000Z</time>
      </trkpt>
      <trkpt lat="48.89194" lon="2.32713">
        <ele>103</ele>
        <time>2012-12-18T21:44:52.000Z</time>
      </trkpt>
      <trkpt lat="48.89196" lon="2.32719">
        <ele>103</ele>
        <time>2012-12-18T21:45:11.000Z</time>
      </trkpt>
      <trkpt lat="48.89195" lon="2.3272">
        <ele>103</ele>
        <time>2012-12-18T21:45:12.000Z</time>
      </trkpt>
      <trkpt lat="48.89197" lon="2.32723">
        <ele>106</ele>
        <time>2012-12-18T21:45:18.000Z</time>
      </trkpt>
    </trkseg>
  </trk>
</gpx>